﻿<?xml version="1.0" encoding="utf-8"?><gpx creator="Garmin Desktop App" version="1.1" xsi:schemaLocation="http://www.topografix.com/GPX/1/1 http://www.topografix.com/GPX/1/1/gpx.xsd http://www.garmin.com/xmlschemas/WaypointExtension/v1 http://www8.garmin.com/xmlschemas/WaypointExtensionv1.xsd http://www.garmin.com/xmlschemas/TrackPointExtension/v1 http://www.garmin.com/xmlschemas/TrackPointExtensionv1.xsd http://www.garmin.com/xmlschemas/GpxExtensions/v3 http://www8.garmin.com/xmlschemas/GpxExtensionsv3.xsd http://www.garmin.com/xmlschemas/ActivityExtension/v1 http://www8.garmin.com/xmlschemas/ActivityExtensionv1.xsd http://www.garmin.com/xmlschemas/AdventuresExtensions/v1 http://www8.garmin.com/xmlschemas/AdventuresExtensionv1.xsd http://www.garmin.com/xmlschemas/PressureExtension/v1 http://www.garmin.com/xmlschemas/PressureExtensionv1.xsd http://www.garmin.com/xmlschemas/TripExtensions/v1 http://www.garmin.com/xmlschemas/TripExtensionsv1.xsd http://www.garmin.com/xmlschemas/TripMetaDataExtensions/v1 http://www.garmin.com/xmlschemas/TripMetaDataExtensionsv1.xsd http://www.garmin.com/xmlschemas/ViaPointTransportationModeExtensions/v1 http://www.garmin.com/xmlschemas/ViaPointTransportationModeExtensionsv1.xsd http://www.garmin.com/xmlschemas/CreationTimeExtension/v1 http://www.garmin.com/xmlschemas/CreationTimeExtensionsv1.xsd http://www.garmin.com/xmlschemas/AccelerationExtension/v1 http://www.garmin.com/xmlschemas/AccelerationExtensionv1.xsd http://www.garmin.com/xmlschemas/PowerExtension/v1 http://www.garmin.com/xmlschemas/PowerExtensionv1.xsd http://www.garmin.com/xmlschemas/VideoExtension/v1 http://www.garmin.com/xmlschemas/VideoExtensionv1.xsd" xmlns="http://www.topografix.com/GPX/1/1" xmlns:xsi="http://www.w3.org/2001/XMLSchema-instance" xmlns:wptx1="http://www.garmin.com/xmlschemas/WaypointExtension/v1" xmlns:gpxtrx="http://www.garmin.com/xmlschemas/GpxExtensions/v3" xmlns:gpxtpx="http://www.garmin.com/xmlschemas/TrackPointExtension/v1" xmlns:gpxx="http://www.garmin.com/xmlschemas/GpxExtensions/v3" xmlns:trp="http://www.garmin.com/xmlschemas/TripExtensions/v1" xmlns:adv="http://www.garmin.com/xmlschemas/AdventuresExtensions/v1" xmlns:prs="http://www.garmin.com/xmlschemas/PressureExtension/v1" xmlns:tmd="http://www.garmin.com/xmlschemas/TripMetaDataExtensions/v1" xmlns:vptm="http://www.garmin.com/xmlschemas/ViaPointTransportationModeExtensions/v1" xmlns:ctx="http://www.garmin.com/xmlschemas/CreationTimeExtension/v1" xmlns:gpxacc="http://www.garmin.com/xmlschemas/AccelerationExtension/v1" xmlns:gpxpx="http://www.garmin.com/xmlschemas/PowerExtension/v1" xmlns:vidx1="http://www.garmin.com/xmlschemas/VideoExtension/v1">

  <metadata>
    <link href="http://www.garmin.com">
      <text>Garmin International</text>
    </link>
    <time>2017-07-02T21:30:43Z</time>
    <bounds maxlat="59.946038005873561" maxlon="13.102462962269783" minlat="50.054515013471246" minlon="7.004943983629346" />
  </metadata>

  <trk>
    <name>Track vom: 02 Jul 2017 03:42</name>
    <extensions>
      <gpxx:TrackExtension>
        <gpxx:DisplayColor>DarkGray</gpxx:DisplayColor>
      </gpxx:TrackExtension>
    </extensions>
    <trkseg>
      <trkpt lat="59.937151009216905" lon="10.76729197986424">
        <ele>89.540000000000006</ele>
        <time>2017-07-02T01:42:49Z</time>
      </trkpt>
      <trkpt lat="59.937585024163127" lon="10.767705962061882">
        <ele>90.980000000000004</ele>
        <time>2017-07-02T01:42:56Z</time>
      </trkpt>
      <trkpt lat="59.93838700465858" lon="10.768505008891225">
        <ele>90.019999999999996</ele>
        <time>2017-07-02T01:43:06Z</time>
      </trkpt>
      <trkpt lat="59.938662014901638" lon="10.768720004707575">
        <ele>89.540000000000006</ele>
        <time>2017-07-02T01:43:10Z</time>
      </trkpt>
      <trkpt lat="59.938936019316316" lon="10.769027033820748">
        <ele>89.060000000000002</ele>
        <time>2017-07-02T01:43:14Z</time>
      </trkpt>
      <trkpt lat="59.939895998686552" lon="10.769977038726211">
        <ele>92.420000000000002</ele>
        <time>2017-07-02T01:43:25Z</time>
      </trkpt>
      <trkpt lat="59.940832005813718" lon="10.771044977009296">
        <ele>95.790000000000006</ele>
        <time>2017-07-02T01:43:37Z</time>
      </trkpt>
      <trkpt lat="59.940954968333244" lon="10.771142961457372">
        <ele>96.75</ele>
        <time>2017-07-02T01:43:42Z</time>
      </trkpt>
      <trkpt lat="59.941024035215378" lon="10.771195013076067">
        <ele>98.670000000000002</ele>
        <time>2017-07-02T01:43:48Z</time>
      </trkpt>
      <trkpt lat="59.941235007718205" lon="10.771411014720798">
        <ele>99.150000000000006</ele>
        <time>2017-07-02T01:43:52Z</time>
      </trkpt>
      <trkpt lat="59.941289993003011" lon="10.771495001390576">
        <ele>99.150000000000006</ele>
        <time>2017-07-02T01:43:53Z</time>
      </trkpt>
      <trkpt lat="59.942090967670083" lon="10.772650027647614">
        <ele>100.11</ele>
        <time>2017-07-02T01:44:04Z</time>
      </trkpt>
      <trkpt lat="59.943392006680369" lon="10.774573003873229">
        <ele>113.56999999999999</ele>
        <time>2017-07-02T01:44:21Z</time>
      </trkpt>
      <trkpt lat="59.944106983020902" lon="10.776069005951285">
        <ele>120.78</ele>
        <time>2017-07-02T01:44:32Z</time>
      </trkpt>
      <trkpt lat="59.94489898905158" lon="10.777657041326165">
        <ele>126.06999999999999</ele>
        <time>2017-07-02T01:44:43Z</time>
      </trkpt>
      <trkpt lat="59.945084983482957" lon="10.777915036305785">
        <ele>130.40000000000001</ele>
        <time>2017-07-02T01:44:49Z</time>
      </trkpt>
      <trkpt lat="59.945139968767762" lon="10.77799298800528">
        <ele>128.47</ele>
        <time>2017-07-02T01:44:52Z</time>
      </trkpt>
      <trkpt lat="59.945173999294639" lon="10.778014026582241">
        <ele>129.43000000000001</ele>
        <time>2017-07-02T01:44:53Z</time>
      </trkpt>
      <trkpt lat="59.945211969316006" lon="10.777976978570223">
        <ele>131.36000000000001</ele>
        <time>2017-07-02T01:44:54Z</time>
      </trkpt>
      <trkpt lat="59.945254968479276" lon="10.777913024649024">
        <ele>132.31999999999999</ele>
        <time>2017-07-02T01:44:55Z</time>
      </trkpt>
      <trkpt lat="59.945282964035869" lon="10.777829037979245">
        <ele>132.31999999999999</ele>
        <time>2017-07-02T01:44:56Z</time>
      </trkpt>
      <trkpt lat="59.945382038131356" lon="10.777584034949541">
        <ele>131.84</ele>
        <time>2017-07-02T01:44:59Z</time>
      </trkpt>
      <trkpt lat="59.945769030600786" lon="10.777020016685128">
        <ele>127.98999999999999</ele>
        <time>2017-07-02T01:45:10Z</time>
      </trkpt>
      <trkpt lat="59.945948990061879" lon="10.776547025889158">
        <ele>125.59</ele>
        <time>2017-07-02T01:45:19Z</time>
      </trkpt>
      <trkpt lat="59.945968016982079" lon="10.776549959555268">
        <ele>125.59</ele>
        <time>2017-07-02T01:45:20Z</time>
      </trkpt>
      <trkpt lat="59.945975979790092" lon="10.776553982868791">
        <ele>124.63</ele>
        <time>2017-07-02T01:45:21Z</time>
      </trkpt>
      <trkpt lat="59.945988971740007" lon="10.776572003960609">
        <ele>124.63</ele>
        <time>2017-07-02T01:45:22Z</time>
      </trkpt>
      <trkpt lat="59.946000035852194" lon="10.776611985638738">
        <ele>124.63</ele>
        <time>2017-07-02T01:45:23Z</time>
      </trkpt>
      <trkpt lat="59.946001963689923" lon="10.776651967316866">
        <ele>125.11</ele>
        <time>2017-07-02T01:45:24Z</time>
      </trkpt>
      <trkpt lat="59.945997018367052" lon="10.776705024763942">
        <ele>125.11</ele>
        <time>2017-07-02T01:45:25Z</time>
      </trkpt>
      <trkpt lat="59.945997018367052" lon="10.776739977300167">
        <ele>126.06999999999999</ele>
        <time>2017-07-02T01:45:26Z</time>
      </trkpt>
      <trkpt lat="59.946003975346684" lon="10.776822036132216">
        <ele>126.06999999999999</ele>
        <time>2017-07-02T01:45:39Z</time>
      </trkpt>
      <trkpt lat="59.946020990610123" lon="10.776811977848411">
        <ele>126.55</ele>
        <time>2017-07-02T01:46:12Z</time>
      </trkpt>
      <trkpt lat="59.946021996438503" lon="10.776809966191649">
        <ele>126.06999999999999</ele>
        <time>2017-07-02T01:47:32Z</time>
      </trkpt>
      <trkpt lat="59.9460169672966" lon="10.776796974241734">
        <ele>126.06999999999999</ele>
        <time>2017-07-02T01:48:51Z</time>
      </trkpt>
      <trkpt lat="59.94601403363049" lon="10.776785993948579">
        <ele>125.59</ele>
        <time>2017-07-02T01:50:27Z</time>
      </trkpt>
      <trkpt lat="59.946028031408787" lon="10.776756992563605">
        <ele>125.11</ele>
        <time>2017-07-02T01:51:31Z</time>
      </trkpt>
      <trkpt lat="59.946038005873561" lon="10.776750035583973">
        <ele>124.15000000000001</ele>
        <time>2017-07-02T01:52:35Z</time>
      </trkpt>
      <trkpt lat="59.9460169672966" lon="10.776790017262101">
        <ele>123.19</ele>
        <time>2017-07-02T01:53:34Z</time>
      </trkpt>
      <trkpt lat="59.945991989225149" lon="10.77681097202003">
        <ele>120.78</ele>
        <time>2017-07-02T01:54:23Z</time>
      </trkpt>
    </trkseg>
  </trk>

  <trk>
    <name>Track vom: 02 Jul 2017 04:03</name>
    <extensions>
      <gpxx:TrackExtension>
        <gpxx:DisplayColor>DarkGray</gpxx:DisplayColor>
      </gpxx:TrackExtension>
    </extensions>
    <trkseg>
      <trkpt lat="59.945888975635171" lon="10.777675984427333">
        <ele>134.24000000000001</ele>
        <time>2017-07-02T02:03:13Z</time>
      </trkpt>
      <trkpt lat="59.945885958150029" lon="10.777641031891108">
        <ele>129.43000000000001</ele>
        <time>2017-07-02T02:03:25Z</time>
      </trkpt>
      <trkpt lat="59.945995006710291" lon="10.776512995362282">
        <ele>132.31999999999999</ele>
        <time>2017-07-02T02:03:39Z</time>
      </trkpt>
      <trkpt lat="59.94597103446722" lon="10.776387015357614">
        <ele>131.84</ele>
        <time>2017-07-02T02:03:41Z</time>
      </trkpt>
      <trkpt lat="59.945866009220481" lon="10.776376035064459">
        <ele>127.51000000000001</ele>
        <time>2017-07-02T02:03:46Z</time>
      </trkpt>
      <trkpt lat="59.945831978693604" lon="10.776451975107193">
        <ele>127.03</ele>
        <time>2017-07-02T02:03:47Z</time>
      </trkpt>
      <trkpt lat="59.945791997015476" lon="10.776541996747255">
        <ele>126.06999999999999</ele>
        <time>2017-07-02T02:03:48Z</time>
      </trkpt>
      <trkpt lat="59.945230996236205" lon="10.777426036074758">
        <ele>123.67</ele>
        <time>2017-07-02T02:03:58Z</time>
      </trkpt>
      <trkpt lat="59.945183973759413" lon="10.777465011924505">
        <ele>123.19</ele>
        <time>2017-07-02T02:03:59Z</time>
      </trkpt>
      <trkpt lat="59.945136029273272" lon="10.777464006096125">
        <ele>123.19</ele>
        <time>2017-07-02T02:04:00Z</time>
      </trkpt>
      <trkpt lat="59.945085989311337" lon="10.777430981397629">
        <ele>122.70999999999999</ele>
        <time>2017-07-02T02:04:01Z</time>
      </trkpt>
      <trkpt lat="59.945043995976448" lon="10.777359986677766">
        <ele>123.19</ele>
        <time>2017-07-02T02:04:02Z</time>
      </trkpt>
      <trkpt lat="59.944997979328036" lon="10.777272982522845">
        <ele>122.70999999999999</ele>
        <time>2017-07-02T02:04:03Z</time>
      </trkpt>
      <trkpt lat="59.944952968508005" lon="10.777149014174938">
        <ele>122.70999999999999</ele>
        <time>2017-07-02T02:04:04Z</time>
      </trkpt>
      <trkpt lat="59.944260958582163" lon="10.775752002373338">
        <ele>115.98</ele>
        <time>2017-07-02T02:04:17Z</time>
      </trkpt>
      <trkpt lat="59.943418996408582" lon="10.774190034717321">
        <ele>114.05</ele>
        <time>2017-07-02T02:04:31Z</time>
      </trkpt>
      <trkpt lat="59.943358981981874" lon="10.774090960621834">
        <ele>112.61</ele>
        <time>2017-07-02T02:04:32Z</time>
      </trkpt>
      <trkpt lat="59.943297961726785" lon="10.774004040285945">
        <ele>111.65000000000001</ele>
        <time>2017-07-02T02:04:33Z</time>
      </trkpt>
      <trkpt lat="59.942391961812973" lon="10.772608034312725">
        <ele>101.56</ele>
        <time>2017-07-02T02:04:48Z</time>
      </trkpt>
      <trkpt lat="59.941649995744228" lon="10.771607989445329">
        <ele>100.11</ele>
        <time>2017-07-02T02:04:59Z</time>
      </trkpt>
      <trkpt lat="59.941023029386997" lon="10.770730990916491">
        <ele>98.670000000000002</ele>
        <time>2017-07-02T02:05:09Z</time>
      </trkpt>
      <trkpt lat="59.940822031348944" lon="10.770485987886786">
        <ele>97.709999999999994</ele>
        <time>2017-07-02T02:05:12Z</time>
      </trkpt>
      <trkpt lat="59.939787033945322" lon="10.769343031570315">
        <ele>91.939999999999998</ele>
        <time>2017-07-02T02:05:23Z</time>
      </trkpt>
      <trkpt lat="59.938629996031523" lon="10.768275009468198">
        <ele>88.579999999999998</ele>
        <time>2017-07-02T02:05:36Z</time>
      </trkpt>
      <trkpt lat="59.937747968360782" lon="10.767400022596121">
        <ele>90.5</ele>
        <time>2017-07-02T02:05:48Z</time>
      </trkpt>
      <trkpt lat="59.937504976987839" lon="10.76716398820281">
        <ele>91.459999999999994</ele>
        <time>2017-07-02T02:05:56Z</time>
      </trkpt>
      <trkpt lat="59.937391988933086" lon="10.767066003754735">
        <ele>90.019999999999996</ele>
        <time>2017-07-02T02:06:09Z</time>
      </trkpt>
      <trkpt lat="59.936747001484036" lon="10.766482036560774">
        <ele>86.659999999999997</ele>
        <time>2017-07-02T02:06:20Z</time>
      </trkpt>
      <trkpt lat="59.935595998540521" lon="10.765362968668342">
        <ele>83.769999999999996</ele>
        <time>2017-07-02T02:06:35Z</time>
      </trkpt>
      <trkpt lat="59.934687986969948" lon="10.764515977352858">
        <ele>82.329999999999998</ele>
        <time>2017-07-02T02:06:47Z</time>
      </trkpt>
      <trkpt lat="59.934048028662801" lon="10.763856992125511">
        <ele>88.099999999999994</ele>
        <time>2017-07-02T02:06:58Z</time>
      </trkpt>
      <trkpt lat="59.933621976524591" lon="10.763499001041055">
        <ele>85.689999999999998</ele>
        <time>2017-07-02T02:07:09Z</time>
      </trkpt>
      <trkpt lat="59.933015964925289" lon="10.763035984709859">
        <ele>82.810000000000002</ele>
        <time>2017-07-02T02:07:20Z</time>
      </trkpt>
      <trkpt lat="59.932384975254536" lon="10.762547990307212">
        <ele>73.680000000000007</ele>
        <time>2017-07-02T02:07:33Z</time>
      </trkpt>
      <trkpt lat="59.93226402439177" lon="10.76243500225246">
        <ele>69.349999999999994</ele>
        <time>2017-07-02T02:07:37Z</time>
      </trkpt>
      <trkpt lat="59.932040981948376" lon="10.762301981449127">
        <ele>66.469999999999999</ele>
        <time>2017-07-02T02:07:46Z</time>
      </trkpt>
      <trkpt lat="59.931950038298965" lon="10.762211959809065">
        <ele>67.909999999999997</ele>
        <time>2017-07-02T02:08:01Z</time>
      </trkpt>
      <trkpt lat="59.931953977793455" lon="10.762158986181021">
        <ele>67.430000000000007</ele>
        <time>2017-07-02T02:08:02Z</time>
      </trkpt>
      <trkpt lat="59.931954983621836" lon="10.7620910089463">
        <ele>67.430000000000007</ele>
        <time>2017-07-02T02:08:03Z</time>
      </trkpt>
      <trkpt lat="59.931952971965075" lon="10.761978020891547">
        <ele>67.909999999999997</ele>
        <time>2017-07-02T02:08:04Z</time>
      </trkpt>
      <trkpt lat="59.931956995278597" lon="10.761843994259834">
        <ele>68.390000000000001</ele>
        <time>2017-07-02T02:08:05Z</time>
      </trkpt>
      <trkpt lat="59.931993037462234" lon="10.761707033962011">
        <ele>68.390000000000001</ele>
        <time>2017-07-02T02:08:06Z</time>
      </trkpt>
      <trkpt lat="59.93245898745954" lon="10.759735023602843">
        <ele>69.349999999999994</ele>
        <time>2017-07-02T02:08:18Z</time>
      </trkpt>
      <trkpt lat="59.933257028460503" lon="10.757566960528493">
        <ele>68.390000000000001</ele>
        <time>2017-07-02T02:08:30Z</time>
      </trkpt>
      <trkpt lat="59.933613007888198" lon="10.755292028188705">
        <ele>66.950000000000003</ele>
        <time>2017-07-02T02:08:41Z</time>
      </trkpt>
      <trkpt lat="59.933927999809384" lon="10.751777999103069">
        <ele>66.950000000000003</ele>
        <time>2017-07-02T02:08:58Z</time>
      </trkpt>
      <trkpt lat="59.93396395817399" lon="10.75145797803998">
        <ele>65.989999999999995</ele>
        <time>2017-07-02T02:09:00Z</time>
      </trkpt>
      <trkpt lat="59.933962030336261" lon="10.751330992206931">
        <ele>65.989999999999995</ele>
        <time>2017-07-02T02:09:01Z</time>
      </trkpt>
      <trkpt lat="59.933945015072823" lon="10.751221021637321">
        <ele>66.469999999999999</ele>
        <time>2017-07-02T02:09:02Z</time>
      </trkpt>
      <trkpt lat="59.933912996202707" lon="10.751125970855355">
        <ele>66.950000000000003</ele>
        <time>2017-07-02T02:09:03Z</time>
      </trkpt>
      <trkpt lat="59.933866979554296" lon="10.751052964478731">
        <ele>67.430000000000007</ele>
        <time>2017-07-02T02:09:04Z</time>
      </trkpt>
      <trkpt lat="59.93381199426949" lon="10.750975012779236">
        <ele>66.950000000000003</ele>
        <time>2017-07-02T02:09:05Z</time>
      </trkpt>
      <trkpt lat="59.933705041185021" lon="10.75076999142766">
        <ele>65.989999999999995</ele>
        <time>2017-07-02T02:09:07Z</time>
      </trkpt>
      <trkpt lat="59.933663969859481" lon="10.750653985887766">
        <ele>65.510000000000005</ele>
        <time>2017-07-02T02:09:08Z</time>
      </trkpt>
      <trkpt lat="59.933365993201733" lon="10.749876983463764">
        <ele>64.549999999999997</ele>
        <time>2017-07-02T02:09:17Z</time>
      </trkpt>
      <trkpt lat="59.93333799764514" lon="10.749762989580631">
        <ele>65.030000000000001</ele>
        <time>2017-07-02T02:09:32Z</time>
      </trkpt>
      <trkpt lat="59.933284018188715" lon="10.749467024579644">
        <ele>65.989999999999995</ele>
        <time>2017-07-02T02:09:35Z</time>
      </trkpt>
      <trkpt lat="59.933203971013427" lon="10.749352024868131">
        <ele>65.989999999999995</ele>
        <time>2017-07-02T02:09:37Z</time>
      </trkpt>
      <trkpt lat="59.93316600099206" lon="10.749321011826396">
        <ele>65.989999999999995</ele>
        <time>2017-07-02T02:09:38Z</time>
      </trkpt>
      <trkpt lat="59.93312400765717" lon="10.749302990734577">
        <ele>65.510000000000005</ele>
        <time>2017-07-02T02:09:39Z</time>
      </trkpt>
      <trkpt lat="59.93303700350225" lon="10.749292010441422">
        <ele>63.100000000000001</ele>
        <time>2017-07-02T02:09:48Z</time>
      </trkpt>
      <trkpt lat="59.932812033221126" lon="10.749215986579657">
        <ele>61.659999999999997</ele>
        <time>2017-07-02T02:10:06Z</time>
      </trkpt>
      <trkpt lat="59.93187703192234" lon="10.748881967738271">
        <ele>53.969999999999999</ele>
        <time>2017-07-02T02:10:16Z</time>
      </trkpt>
      <trkpt lat="59.930925015360117" lon="10.748789012432098">
        <ele>45.799999999999997</ele>
        <time>2017-07-02T02:10:25Z</time>
      </trkpt>
      <trkpt lat="59.929240001365542" lon="10.749100986868143">
        <ele>39.549999999999997</ele>
        <time>2017-07-02T02:10:38Z</time>
      </trkpt>
      <trkpt lat="59.927953965961933" lon="10.749486973509192">
        <ele>34.740000000000002</ele>
        <time>2017-07-02T02:10:50Z</time>
      </trkpt>
      <trkpt lat="59.92792303673923" lon="10.749517986550927">
        <ele>33.780000000000001</ele>
        <time>2017-07-02T02:10:51Z</time>
      </trkpt>
      <trkpt lat="59.927911972627044" lon="10.749536007642746">
        <ele>33.780000000000001</ele>
        <time>2017-07-02T02:10:52Z</time>
      </trkpt>
      <trkpt lat="59.927659006789327" lon="10.749742034822702">
        <ele>38.590000000000003</ele>
        <time>2017-07-02T02:10:59Z</time>
      </trkpt>
      <trkpt lat="59.927589017897844" lon="10.74976097792387">
        <ele>38.590000000000003</ele>
        <time>2017-07-02T02:11:00Z</time>
      </trkpt>
      <trkpt lat="59.927491033449769" lon="10.749762989580631">
        <ele>38.109999999999999</ele>
        <time>2017-07-02T02:11:01Z</time>
      </trkpt>
      <trkpt lat="59.926293008029461" lon="10.749882012605667">
        <ele>30.899999999999999</ele>
        <time>2017-07-02T02:11:12Z</time>
      </trkpt>
      <trkpt lat="59.925041003152728" lon="10.750171020627022">
        <ele>21.77</ele>
        <time>2017-07-02T02:11:24Z</time>
      </trkpt>
      <trkpt lat="59.923595041036606" lon="10.750731015577912">
        <ele>21.289999999999999</ele>
        <time>2017-07-02T02:11:37Z</time>
      </trkpt>
      <trkpt lat="59.923496972769499" lon="10.750765968114138">
        <ele>20.809999999999999</ele>
        <time>2017-07-02T02:11:38Z</time>
      </trkpt>
      <trkpt lat="59.922766992822289" lon="10.750750964507461">
        <ele>20.809999999999999</ele>
        <time>2017-07-02T02:11:45Z</time>
      </trkpt>
      <trkpt lat="59.922658028081059" lon="10.750698996707797">
        <ele>21.289999999999999</ele>
        <time>2017-07-02T02:11:46Z</time>
      </trkpt>
      <trkpt lat="59.922107001766562" lon="10.750476960092783">
        <ele>24.170000000000002</ele>
        <time>2017-07-02T02:11:51Z</time>
      </trkpt>
      <trkpt lat="59.922002982348204" lon="10.750502021983266">
        <ele>26.09</ele>
        <time>2017-07-02T02:11:52Z</time>
      </trkpt>
      <trkpt lat="59.921896029263735" lon="10.750528005883098">
        <ele>26.57</ele>
        <time>2017-07-02T02:11:53Z</time>
      </trkpt>
      <trkpt lat="59.921292029321194" lon="10.750851966440678">
        <ele>22.25</ele>
        <time>2017-07-02T02:11:59Z</time>
      </trkpt>
      <trkpt lat="59.921196978539228" lon="10.750894965603948">
        <ele>21.77</ele>
        <time>2017-07-02T02:12:00Z</time>
      </trkpt>
      <trkpt lat="59.920982988551259" lon="10.751132005825639">
        <ele>19.84</ele>
        <time>2017-07-02T02:12:03Z</time>
      </trkpt>
      <trkpt lat="59.920696998015046" lon="10.751300984993577">
        <ele>18.879999999999999</ele>
        <time>2017-07-02T02:12:06Z</time>
      </trkpt>
      <trkpt lat="59.92057403549552" lon="10.751319006085396">
        <ele>19.359999999999999</ele>
        <time>2017-07-02T02:12:07Z</time>
      </trkpt>
      <trkpt lat="59.919794015586376" lon="10.751313976943493">
        <ele>17.440000000000001</ele>
        <time>2017-07-02T02:12:15Z</time>
      </trkpt>
      <trkpt lat="59.919663006439805" lon="10.751310959458351">
        <ele>16</ele>
        <time>2017-07-02T02:12:17Z</time>
      </trkpt>
      <trkpt lat="59.919424960389733" lon="10.751257985830307">
        <ele>14.08</ele>
        <time>2017-07-02T02:12:24Z</time>
      </trkpt>
      <trkpt lat="59.919309038668871" lon="10.751119013875723">
        <ele>16.48</ele>
        <time>2017-07-02T02:12:38Z</time>
      </trkpt>
      <trkpt lat="59.9193109665066" lon="10.751002002507448">
        <ele>15.52</ele>
        <time>2017-07-02T02:12:39Z</time>
      </trkpt>
      <trkpt lat="59.919317001476884" lon="10.750899994745851">
        <ele>16.960000000000001</ele>
        <time>2017-07-02T02:12:40Z</time>
      </trkpt>
      <trkpt lat="59.91947902366519" lon="10.749352024868131">
        <ele>21.289999999999999</ele>
        <time>2017-07-02T02:12:51Z</time>
      </trkpt>
      <trkpt lat="59.919596035033464" lon="10.748394979164004">
        <ele>24.649999999999999</ele>
        <time>2017-07-02T02:13:01Z</time>
      </trkpt>
      <trkpt lat="59.919600980356336" lon="10.748057020828128">
        <ele>26.57</ele>
        <time>2017-07-02T02:13:07Z</time>
      </trkpt>
      <trkpt lat="59.919577008113265" lon="10.747972028329968">
        <ele>27.050000000000001</ele>
        <time>2017-07-02T02:13:08Z</time>
      </trkpt>
      <trkpt lat="59.919525040313601" lon="10.747913019731641">
        <ele>27.530000000000001</ele>
        <time>2017-07-02T02:13:09Z</time>
      </trkpt>
      <trkpt lat="59.919465025886893" lon="10.747889969497919">
        <ele>27.530000000000001</ele>
        <time>2017-07-02T02:13:10Z</time>
      </trkpt>
      <trkpt lat="59.919404005631804" lon="10.747881000861526">
        <ele>28.5</ele>
        <time>2017-07-02T02:13:11Z</time>
      </trkpt>
      <trkpt lat="59.919342985376716" lon="10.747886030003428">
        <ele>28.98</ele>
        <time>2017-07-02T02:13:12Z</time>
      </trkpt>
      <trkpt lat="59.919281965121627" lon="10.747892986983061">
        <ele>29.940000000000001</ele>
        <time>2017-07-02T02:13:13Z</time>
      </trkpt>
      <trkpt lat="59.919165959581733" lon="10.747957024723291">
        <ele>31.379999999999999</ele>
        <time>2017-07-02T02:13:15Z</time>
      </trkpt>
      <trkpt lat="59.91911600343883" lon="10.747993988916278">
        <ele>32.340000000000003</ele>
        <time>2017-07-02T02:13:16Z</time>
      </trkpt>
      <trkpt lat="59.918997986242175" lon="10.748003041371703">
        <ele>32.340000000000003</ele>
        <time>2017-07-02T02:13:17Z</time>
      </trkpt>
      <trkpt lat="59.918850967660546" lon="10.748046040534973">
        <ele>34.259999999999998</ele>
        <time>2017-07-02T02:13:19Z</time>
      </trkpt>
      <trkpt lat="59.918706966564059" lon="10.748032964766026">
        <ele>35.229999999999997</ele>
        <time>2017-07-02T02:13:21Z</time>
      </trkpt>
      <trkpt lat="59.918659022077918" lon="10.747986026108265">
        <ele>35.710000000000001</ele>
        <time>2017-07-02T02:13:22Z</time>
      </trkpt>
      <trkpt lat="59.918605964630842" lon="10.747921988368034">
        <ele>35.710000000000001</ele>
        <time>2017-07-02T02:13:23Z</time>
      </trkpt>
      <trkpt lat="59.91857897490263" lon="10.747850993648171">
        <ele>35.710000000000001</ele>
        <time>2017-07-02T02:13:24Z</time>
      </trkpt>
      <trkpt lat="59.91855600848794" lon="10.747785028070211">
        <ele>35.229999999999997</ele>
        <time>2017-07-02T02:13:25Z</time>
      </trkpt>
      <trkpt lat="59.918478978797793" lon="10.747661981731653">
        <ele>35.229999999999997</ele>
        <time>2017-07-02T02:13:27Z</time>
      </trkpt>
      <trkpt lat="59.91840697824955" lon="10.747557040303946">
        <ele>36.670000000000002</ele>
        <time>2017-07-02T02:13:29Z</time>
      </trkpt>
      <trkpt lat="59.918371019884944" lon="10.747489985078573">
        <ele>37.149999999999999</ele>
        <time>2017-07-02T02:13:30Z</time>
      </trkpt>
      <trkpt lat="59.91812601685524" lon="10.747067034244537">
        <ele>42.439999999999998</ele>
        <time>2017-07-02T02:13:36Z</time>
      </trkpt>
      <trkpt lat="59.918110007420182" lon="10.7470119651407">
        <ele>49.159999999999997</ele>
        <time>2017-07-02T02:13:37Z</time>
      </trkpt>
      <trkpt lat="59.918032977730036" lon="10.747022023424506">
        <ele>46.759999999999998</ele>
        <time>2017-07-02T02:13:38Z</time>
      </trkpt>
      <trkpt lat="59.917974974960089" lon="10.747058987617493">
        <ele>46.280000000000001</ele>
        <time>2017-07-02T02:13:39Z</time>
      </trkpt>
      <trkpt lat="59.917928036302328" lon="10.747100980952382">
        <ele>46.280000000000001</ele>
        <time>2017-07-02T02:13:40Z</time>
      </trkpt>
      <trkpt lat="59.917884031310678" lon="10.747140040621161">
        <ele>46.280000000000001</ele>
        <time>2017-07-02T02:13:41Z</time>
      </trkpt>
      <trkpt lat="59.917609021067619" lon="10.747556034475565">
        <ele>49.159999999999997</ele>
        <time>2017-07-02T02:13:49Z</time>
      </trkpt>
      <trkpt lat="59.917495027184486" lon="10.74756701476872">
        <ele>47.240000000000002</ele>
        <time>2017-07-02T02:13:50Z</time>
      </trkpt>
      <trkpt lat="59.917345996946096" lon="10.747571960091591">
        <ele>41.469999999999999</ele>
        <time>2017-07-02T02:13:51Z</time>
      </trkpt>
      <trkpt lat="59.917114991694689" lon="10.747641026973724">
        <ele>36.189999999999998</ele>
        <time>2017-07-02T02:13:53Z</time>
      </trkpt>
      <trkpt lat="59.917048020288348" lon="10.747674973681569">
        <ele>36.670000000000002</ele>
        <time>2017-07-02T02:13:54Z</time>
      </trkpt>
      <trkpt lat="59.916653987020254" lon="10.747594004496932">
        <ele>39.549999999999997</ele>
        <time>2017-07-02T02:14:02Z</time>
      </trkpt>
      <trkpt lat="59.916647030040622" lon="10.747644966468215">
        <ele>40.509999999999998</ele>
        <time>2017-07-02T02:14:03Z</time>
      </trkpt>
      <trkpt lat="59.916645018383861" lon="10.747713027521968">
        <ele>40.030000000000001</ele>
        <time>2017-07-02T02:14:04Z</time>
      </trkpt>
      <trkpt lat="59.916643006727099" lon="10.747779998928308">
        <ele>40.509999999999998</ele>
        <time>2017-07-02T02:14:05Z</time>
      </trkpt>
      <trkpt lat="59.916651975363493" lon="10.747865997254848">
        <ele>41.469999999999999</ele>
        <time>2017-07-02T02:14:06Z</time>
      </trkpt>
      <trkpt lat="59.916671002283692" lon="10.747956018894911">
        <ele>43.880000000000003</ele>
        <time>2017-07-02T02:14:07Z</time>
      </trkpt>
      <trkpt lat="59.916649963706732" lon="10.748215019702911">
        <ele>41.469999999999999</ele>
        <time>2017-07-02T02:14:09Z</time>
      </trkpt>
      <trkpt lat="59.916648035869002" lon="10.749230990186334">
        <ele>43.399999999999999</ele>
        <time>2017-07-02T02:14:20Z</time>
      </trkpt>
      <trkpt lat="59.916630014777184" lon="10.749252028763294">
        <ele>43.880000000000003</ele>
        <time>2017-07-02T02:14:21Z</time>
      </trkpt>
      <trkpt lat="59.916561031714082" lon="10.749249011278152">
        <ele>45.799999999999997</ele>
        <time>2017-07-02T02:14:23Z</time>
      </trkpt>
      <trkpt lat="59.916519960388541" lon="10.749224033206701">
        <ele>45.799999999999997</ele>
        <time>2017-07-02T02:14:24Z</time>
      </trkpt>
      <trkpt lat="59.915903974324465" lon="10.748753976076841">
        <ele>50.130000000000003</ele>
        <time>2017-07-02T02:14:36Z</time>
      </trkpt>
      <trkpt lat="59.915687972679734" lon="10.748688010498881">
        <ele>40.030000000000001</ele>
        <time>2017-07-02T02:14:45Z</time>
      </trkpt>
      <trkpt lat="59.915392007678747" lon="10.748357009142637">
        <ele>37.149999999999999</ele>
        <time>2017-07-02T02:14:52Z</time>
      </trkpt>
      <trkpt lat="59.91499001160264" lon="10.747816963121295">
        <ele>32.340000000000003</ele>
        <time>2017-07-02T02:14:59Z</time>
      </trkpt>
      <trkpt lat="59.914949024096131" lon="10.747772958129644">
        <ele>32.82</ele>
        <time>2017-07-02T02:15:00Z</time>
      </trkpt>
      <trkpt lat="59.914906024932861" lon="10.747756026685238">
        <ele>31.859999999999999</ele>
        <time>2017-07-02T02:15:01Z</time>
      </trkpt>
      <trkpt lat="59.914863025769591" lon="10.747778993099928">
        <ele>31.859999999999999</ele>
        <time>2017-07-02T02:15:02Z</time>
      </trkpt>
      <trkpt lat="59.914827989414334" lon="10.747828027233481">
        <ele>30.899999999999999</ele>
        <time>2017-07-02T02:15:03Z</time>
      </trkpt>
      <trkpt lat="59.914663033559918" lon="10.748145030811429">
        <ele>26.57</ele>
        <time>2017-07-02T02:15:08Z</time>
      </trkpt>
      <trkpt lat="59.91425902582705" lon="10.748841986060143">
        <ele>9.75</ele>
        <time>2017-07-02T02:15:18Z</time>
      </trkpt>
      <trkpt lat="59.914177972823381" lon="10.748948017135262">
        <ele>7.83</ele>
        <time>2017-07-02T02:15:20Z</time>
      </trkpt>
      <trkpt lat="59.914122987538576" lon="10.748996967449784">
        <ele>6.39</ele>
        <time>2017-07-02T02:15:21Z</time>
      </trkpt>
      <trkpt lat="59.913619989529252" lon="10.749559979885817">
        <ele>0.14</ele>
        <time>2017-07-02T02:15:30Z</time>
      </trkpt>
      <trkpt lat="59.913563998416066" lon="10.749639021232724">
        <ele>2.54</ele>
        <time>2017-07-02T02:15:31Z</time>
      </trkpt>
      <trkpt lat="59.913542959839106" lon="10.749784028157592">
        <ele>4.46</ele>
        <time>2017-07-02T02:15:32Z</time>
      </trkpt>
      <trkpt lat="59.913518987596035" lon="10.749786961823702">
        <ele>5.42</ele>
        <time>2017-07-02T02:15:33Z</time>
      </trkpt>
      <trkpt lat="59.913455033674836" lon="10.749801965430379">
        <ele>5.91</ele>
        <time>2017-07-02T02:15:34Z</time>
      </trkpt>
      <trkpt lat="59.913415974006057" lon="10.749735999852419">
        <ele>5.91</ele>
        <time>2017-07-02T02:15:35Z</time>
      </trkpt>
      <trkpt lat="59.913380015641451" lon="10.749619994312525">
        <ele>5.91</ele>
        <time>2017-07-02T02:15:36Z</time>
      </trkpt>
      <trkpt lat="59.913338022306561" lon="10.749489990994334">
        <ele>6.39</ele>
        <time>2017-07-02T02:15:37Z</time>
      </trkpt>
      <trkpt lat="59.913091007620096" lon="10.749015994369984">
        <ele>9.75</ele>
        <time>2017-07-02T02:15:42Z</time>
      </trkpt>
      <trkpt lat="59.913006015121937" lon="10.748683987185359">
        <ele>9.75</ele>
        <time>2017-07-02T02:15:45Z</time>
      </trkpt>
      <trkpt lat="59.912839969620109" lon="10.747936991974711">
        <ele>27.530000000000001</ele>
        <time>2017-07-02T02:15:53Z</time>
      </trkpt>
      <trkpt lat="59.912797976285219" lon="10.747908996418118">
        <ele>28.5</ele>
        <time>2017-07-02T02:15:54Z</time>
      </trkpt>
      <trkpt lat="59.912729999050498" lon="10.747925005853176">
        <ele>23.210000000000001</ele>
        <time>2017-07-02T02:15:55Z</time>
      </trkpt>
      <trkpt lat="59.91269102320075" lon="10.747951995581388">
        <ele>22.73</ele>
        <time>2017-07-02T02:15:56Z</time>
      </trkpt>
      <trkpt lat="59.912651041522622" lon="10.747990971431136">
        <ele>20.809999999999999</ele>
        <time>2017-07-02T02:15:57Z</time>
      </trkpt>
      <trkpt lat="59.912391034886241" lon="10.748329013586044">
        <ele>18.399999999999999</ele>
        <time>2017-07-02T02:16:04Z</time>
      </trkpt>
      <trkpt lat="59.91234702989459" lon="10.748408976942301">
        <ele>18.399999999999999</ele>
        <time>2017-07-02T02:16:05Z</time>
      </trkpt>
      <trkpt lat="59.91228399798274" lon="10.748574016615748">
        <ele>16.960000000000001</ele>
        <time>2017-07-02T02:16:07Z</time>
      </trkpt>
      <trkpt lat="59.912254996597767" lon="10.74866496026516">
        <ele>16.48</ele>
        <time>2017-07-02T02:16:08Z</time>
      </trkpt>
      <trkpt lat="59.912221971899271" lon="10.748757999390364">
        <ele>16.48</ele>
        <time>2017-07-02T02:16:09Z</time>
      </trkpt>
      <trkpt lat="59.912210991606116" lon="10.748863024637103">
        <ele>16.48</ele>
        <time>2017-07-02T02:16:10Z</time>
      </trkpt>
      <trkpt lat="59.91221803240478" lon="10.748969977721572">
        <ele>16</ele>
        <time>2017-07-02T02:16:11Z</time>
      </trkpt>
      <trkpt lat="59.91221996024251" lon="10.749080032110214">
        <ele>16</ele>
        <time>2017-07-02T02:16:12Z</time>
      </trkpt>
      <trkpt lat="59.912176039069891" lon="10.750177977606654">
        <ele>15.039999999999999</ele>
        <time>2017-07-02T02:16:24Z</time>
      </trkpt>
      <trkpt lat="59.912109989672899" lon="10.751602984964848">
        <ele>19.359999999999999</ele>
        <time>2017-07-02T02:16:34Z</time>
      </trkpt>
      <trkpt lat="59.912098003551364" lon="10.752032976597548">
        <ele>22.25</ele>
        <time>2017-07-02T02:16:37Z</time>
      </trkpt>
      <trkpt lat="59.912104960530996" lon="10.75216599740088">
        <ele>23.690000000000001</ele>
        <time>2017-07-02T02:16:38Z</time>
      </trkpt>
      <trkpt lat="59.912117030471563" lon="10.752301029860973">
        <ele>25.129999999999999</ele>
        <time>2017-07-02T02:16:39Z</time>
      </trkpt>
      <trkpt lat="59.912123987451196" lon="10.752692967653275">
        <ele>25.129999999999999</ele>
        <time>2017-07-02T02:16:42Z</time>
      </trkpt>
      <trkpt lat="59.912104038521647" lon="10.753527972847223">
        <ele>22.73</ele>
        <time>2017-07-02T02:16:48Z</time>
      </trkpt>
      <trkpt lat="59.912041006609797" lon="10.75379703193903">
        <ele>22.25</ele>
        <time>2017-07-02T02:16:51Z</time>
      </trkpt>
      <trkpt lat="59.91196297109127" lon="10.754297012463212">
        <ele>22.25</ele>
        <time>2017-07-02T02:16:55Z</time>
      </trkpt>
      <trkpt lat="59.911857023835182" lon="10.754994973540306">
        <ele>22.25</ele>
        <time>2017-07-02T02:17:00Z</time>
      </trkpt>
      <trkpt lat="59.911504983901978" lon="10.757701992988586">
        <ele>24.170000000000002</ele>
        <time>2017-07-02T02:17:18Z</time>
      </trkpt>
      <trkpt lat="59.911404987797141" lon="10.758021008223295">
        <ele>23.690000000000001</ele>
        <time>2017-07-02T02:17:23Z</time>
      </trkpt>
      <trkpt lat="59.911367017775774" lon="10.758065013214946">
        <ele>23.210000000000001</ele>
        <time>2017-07-02T02:17:24Z</time>
      </trkpt>
      <trkpt lat="59.911319995298982" lon="10.7580950204283">
        <ele>23.210000000000001</ele>
        <time>2017-07-02T02:17:25Z</time>
      </trkpt>
      <trkpt lat="59.911272972822189" lon="10.758106000721455">
        <ele>22.73</ele>
        <time>2017-07-02T02:17:26Z</time>
      </trkpt>
      <trkpt lat="59.911222010850906" lon="10.758082028478384">
        <ele>22.25</ele>
        <time>2017-07-02T02:17:27Z</time>
      </trkpt>
      <trkpt lat="59.911169959232211" lon="10.758041962981224">
        <ele>21.77</ele>
        <time>2017-07-02T02:17:28Z</time>
      </trkpt>
      <trkpt lat="59.911112962290645" lon="10.757997035980225">
        <ele>21.289999999999999</ele>
        <time>2017-07-02T02:17:29Z</time>
      </trkpt>
      <trkpt lat="59.911053031682968" lon="10.757949007675052">
        <ele>21.289999999999999</ele>
        <time>2017-07-02T02:17:30Z</time>
      </trkpt>
      <trkpt lat="59.910996034741402" lon="10.757895028218627">
        <ele>21.77</ele>
        <time>2017-07-02T02:17:31Z</time>
      </trkpt>
      <trkpt lat="59.910947000607848" lon="10.757834007963538">
        <ele>21.77</ele>
        <time>2017-07-02T02:17:32Z</time>
      </trkpt>
      <trkpt lat="59.910899978131056" lon="10.757769970223308">
        <ele>21.77</ele>
        <time>2017-07-02T02:17:33Z</time>
      </trkpt>
      <trkpt lat="59.910847004503012" lon="10.757734011858702">
        <ele>21.289999999999999</ele>
        <time>2017-07-02T02:17:34Z</time>
      </trkpt>
      <trkpt lat="59.910792019218206" lon="10.757728982716799">
        <ele>21.289999999999999</ele>
        <time>2017-07-02T02:17:35Z</time>
      </trkpt>
      <trkpt lat="59.910747008398175" lon="10.757766030728817">
        <ele>20.809999999999999</ele>
        <time>2017-07-02T02:17:36Z</time>
      </trkpt>
      <trkpt lat="59.91071498952806" lon="10.757864015176892">
        <ele>20.809999999999999</ele>
        <time>2017-07-02T02:17:37Z</time>
      </trkpt>
      <trkpt lat="59.910690011456609" lon="10.757993012666702">
        <ele>20.32</ele>
        <time>2017-07-02T02:17:38Z</time>
      </trkpt>
      <trkpt lat="59.910666039213538" lon="10.75813902541995">
        <ele>19.359999999999999</ele>
        <time>2017-07-02T02:17:39Z</time>
      </trkpt>
      <trkpt lat="59.910205034539104" lon="10.760097038000822">
        <ele>15.52</ele>
        <time>2017-07-02T02:17:50Z</time>
      </trkpt>
      <trkpt lat="59.909458961337805" lon="10.763111002743244">
        <ele>23.210000000000001</ele>
        <time>2017-07-02T02:18:05Z</time>
      </trkpt>
      <trkpt lat="59.909390984103084" lon="10.763272019103169">
        <ele>23.690000000000001</ele>
        <time>2017-07-02T02:18:06Z</time>
      </trkpt>
      <trkpt lat="59.909311020746827" lon="10.76340202242136">
        <ele>23.690000000000001</ele>
        <time>2017-07-02T02:18:07Z</time>
      </trkpt>
      <trkpt lat="59.909217981621623" lon="10.763474022969604">
        <ele>24.170000000000002</ele>
        <time>2017-07-02T02:18:08Z</time>
      </trkpt>
      <trkpt lat="59.909125026315451" lon="10.763514004647732">
        <ele>24.170000000000002</ele>
        <time>2017-07-02T02:18:09Z</time>
      </trkpt>
      <trkpt lat="59.909030981361866" lon="10.763506963849068">
        <ele>24.649999999999999</ele>
        <time>2017-07-02T02:18:10Z</time>
      </trkpt>
      <trkpt lat="59.90893199108541" lon="10.763462958857417">
        <ele>24.649999999999999</ele>
        <time>2017-07-02T02:18:11Z</time>
      </trkpt>
      <trkpt lat="59.908824032172561" lon="10.763388024643064">
        <ele>25.129999999999999</ele>
        <time>2017-07-02T02:18:12Z</time>
      </trkpt>
      <trkpt lat="59.908714983612299" lon="10.763308983296156">
        <ele>25.129999999999999</ele>
        <time>2017-07-02T02:18:13Z</time>
      </trkpt>
      <trkpt lat="59.907379997894168" lon="10.762356966733932">
        <ele>17.920000000000002</ele>
        <time>2017-07-02T02:18:26Z</time>
      </trkpt>
      <trkpt lat="59.907041033729911" lon="10.762094026431441">
        <ele>16.48</ele>
        <time>2017-07-02T02:18:35Z</time>
      </trkpt>
      <trkpt lat="59.907041033729911" lon="10.762064019218087">
        <ele>15.52</ele>
        <time>2017-07-02T02:18:48Z</time>
      </trkpt>
      <trkpt lat="59.906826037913561" lon="10.761906020343304">
        <ele>15.039999999999999</ele>
        <time>2017-07-02T02:19:14Z</time>
      </trkpt>
      <trkpt lat="59.905937975272536" lon="10.761273019015789">
        <ele>15.039999999999999</ele>
        <time>2017-07-02T02:19:22Z</time>
      </trkpt>
      <trkpt lat="59.90334696136415" lon="10.75960099697113">
        <ele>11.19</ele>
        <time>2017-07-02T02:19:42Z</time>
      </trkpt>
      <trkpt lat="59.902809010818601" lon="10.759538970887661">
        <ele>10.710000000000001</ele>
        <time>2017-07-02T02:19:46Z</time>
      </trkpt>
      <trkpt lat="59.902672972530127" lon="10.759575013071299">
        <ele>10.710000000000001</ele>
        <time>2017-07-02T02:19:47Z</time>
      </trkpt>
      <trkpt lat="59.901296999305487" lon="10.760407000780106">
        <ele>17.440000000000001</ele>
        <time>2017-07-02T02:19:58Z</time>
      </trkpt>
      <trkpt lat="59.900913024321198" lon="10.76058603823185">
        <ele>18.399999999999999</ele>
        <time>2017-07-02T02:20:03Z</time>
      </trkpt>
      <trkpt lat="59.90087597630918" lon="10.76054303906858">
        <ele>18.399999999999999</ele>
        <time>2017-07-02T02:20:04Z</time>
      </trkpt>
      <trkpt lat="59.900846974924207" lon="10.760457962751389">
        <ele>18.399999999999999</ele>
        <time>2017-07-02T02:20:05Z</time>
      </trkpt>
      <trkpt lat="59.900815961882472" lon="10.760345980525017">
        <ele>18.399999999999999</ele>
        <time>2017-07-02T02:20:06Z</time>
      </trkpt>
      <trkpt lat="59.900785032659769" lon="10.760203991085291">
        <ele>17.920000000000002</ele>
        <time>2017-07-02T02:20:07Z</time>
      </trkpt>
      <trkpt lat="59.900754019618034" lon="10.760049009695649">
        <ele>17.920000000000002</ele>
        <time>2017-07-02T02:20:08Z</time>
      </trkpt>
      <trkpt lat="59.900341965258121" lon="10.758443959057331">
        <ele>16.960000000000001</ele>
        <time>2017-07-02T02:20:16Z</time>
      </trkpt>
      <trkpt lat="59.899511989206076" lon="10.757005959749222">
        <ele>15.039999999999999</ele>
        <time>2017-07-02T02:20:24Z</time>
      </trkpt>
      <trkpt lat="59.89803995937109" lon="10.755812963470817">
        <ele>12.15</ele>
        <time>2017-07-02T02:20:34Z</time>
      </trkpt>
      <trkpt lat="59.896846963092685" lon="10.755913965404034">
        <ele>11.67</ele>
        <time>2017-07-02T02:20:41Z</time>
      </trkpt>
      <trkpt lat="59.895359007641673" lon="10.757170999422669">
        <ele>10.710000000000001</ele>
        <time>2017-07-02T02:20:51Z</time>
      </trkpt>
      <trkpt lat="59.893950009718537" lon="10.758700026199222">
        <ele>4.94</ele>
        <time>2017-07-02T02:21:00Z</time>
      </trkpt>
      <trkpt lat="59.893781030550599" lon="10.758749982342124">
        <ele>5.91</ele>
        <time>2017-07-02T02:21:01Z</time>
      </trkpt>
      <trkpt lat="59.892399022355676" lon="10.759700993075967">
        <ele>11.19</ele>
        <time>2017-07-02T02:21:10Z</time>
      </trkpt>
      <trkpt lat="59.890609988942742" lon="10.761905014514923">
        <ele>15.52</ele>
        <time>2017-07-02T02:21:22Z</time>
      </trkpt>
      <trkpt lat="59.889365024864674" lon="10.764029994606972">
        <ele>18.879999999999999</ele>
        <time>2017-07-02T02:21:31Z</time>
      </trkpt>
      <trkpt lat="59.888116959482431" lon="10.765446033328772">
        <ele>17.440000000000001</ele>
        <time>2017-07-02T02:21:39Z</time>
      </trkpt>
      <trkpt lat="59.886056017130613" lon="10.767805958166718">
        <ele>15.52</ele>
        <time>2017-07-02T02:21:52Z</time>
      </trkpt>
      <trkpt lat="59.884657999500632" lon="10.768768033012748">
        <ele>11.67</ele>
        <time>2017-07-02T02:22:01Z</time>
      </trkpt>
      <trkpt lat="59.882953036576509" lon="10.770538039505482">
        <ele>5.91</ele>
        <time>2017-07-02T02:22:13Z</time>
      </trkpt>
      <trkpt lat="59.881928013637662" lon="10.771779986098409">
        <ele>4.46</ele>
        <time>2017-07-02T02:22:23Z</time>
      </trkpt>
      <trkpt lat="59.881138019263744" lon="10.772779025137424">
        <ele>7.83</ele>
        <time>2017-07-02T02:22:31Z</time>
      </trkpt>
      <trkpt lat="59.879572028294206" lon="10.774669982492924">
        <ele>13.6</ele>
        <time>2017-07-02T02:22:43Z</time>
      </trkpt>
      <trkpt lat="59.87792800180614" lon="10.775747979059815">
        <ele>12.15</ele>
        <time>2017-07-02T02:22:53Z</time>
      </trkpt>
      <trkpt lat="59.876008965075016" lon="10.776903005316854">
        <ele>11.19</ele>
        <time>2017-07-02T02:23:04Z</time>
      </trkpt>
      <trkpt lat="59.874066961929202" lon="10.77859397046268">
        <ele>9.27</ele>
        <time>2017-07-02T02:23:17Z</time>
      </trkpt>
      <trkpt lat="59.871946005150676" lon="10.7799899764359">
        <ele>10.710000000000001</ele>
        <time>2017-07-02T02:23:32Z</time>
      </trkpt>
      <trkpt lat="59.870053958147764" lon="10.781338037922978">
        <ele>14.08</ele>
        <time>2017-07-02T02:23:44Z</time>
      </trkpt>
      <trkpt lat="59.86808798275888" lon="10.783145008608699">
        <ele>16.960000000000001</ele>
        <time>2017-07-02T02:23:57Z</time>
      </trkpt>
      <trkpt lat="59.867303017526865" lon="10.783140985295177">
        <ele>17.920000000000002</ele>
        <time>2017-07-02T02:24:03Z</time>
      </trkpt>
      <trkpt lat="59.866675967350602" lon="10.783121036365628">
        <ele>18.879999999999999</ele>
        <time>2017-07-02T02:24:08Z</time>
      </trkpt>
      <trkpt lat="59.866548981517553" lon="10.783168980851769">
        <ele>19.359999999999999</ele>
        <time>2017-07-02T02:24:09Z</time>
      </trkpt>
      <trkpt lat="59.865204021334648" lon="10.783856967464089">
        <ele>20.32</ele>
        <time>2017-07-02T02:24:19Z</time>
      </trkpt>
      <trkpt lat="59.864346971735358" lon="10.783821009099483">
        <ele>21.289999999999999</ele>
        <time>2017-07-02T02:24:26Z</time>
      </trkpt>
      <trkpt lat="59.862949959933758" lon="10.784255024045706">
        <ele>17.440000000000001</ele>
        <time>2017-07-02T02:24:38Z</time>
      </trkpt>
      <trkpt lat="59.860648037865758" lon="10.785349030047655">
        <ele>16</ele>
        <time>2017-07-02T02:24:58Z</time>
      </trkpt>
      <trkpt lat="59.859697027131915" lon="10.785571988672018">
        <ele>16</ele>
        <time>2017-07-02T02:25:06Z</time>
      </trkpt>
      <trkpt lat="59.859574986621737" lon="10.785525972023606">
        <ele>16</ele>
        <time>2017-07-02T02:25:07Z</time>
      </trkpt>
      <trkpt lat="59.859456969425082" lon="10.785460006445646">
        <ele>16</ele>
        <time>2017-07-02T02:25:08Z</time>
      </trkpt>
      <trkpt lat="59.859341969713569" lon="10.785364033654332">
        <ele>15.52</ele>
        <time>2017-07-02T02:25:09Z</time>
      </trkpt>
      <trkpt lat="59.859230993315578" lon="10.785247022286057">
        <ele>15.039999999999999</ele>
        <time>2017-07-02T02:25:10Z</time>
      </trkpt>
      <trkpt lat="59.859123034402728" lon="10.785109978169203">
        <ele>15.039999999999999</ele>
        <time>2017-07-02T02:25:11Z</time>
      </trkpt>
      <trkpt lat="59.859018009155989" lon="10.784959020093083">
        <ele>14.56</ele>
        <time>2017-07-02T02:25:12Z</time>
      </trkpt>
      <trkpt lat="59.858565973117948" lon="10.784412017092109">
        <ele>14.08</ele>
        <time>2017-07-02T02:25:16Z</time>
      </trkpt>
      <trkpt lat="59.858437981456518" lon="10.784323001280427">
        <ele>13.6</ele>
        <time>2017-07-02T02:25:17Z</time>
      </trkpt>
      <trkpt lat="59.858303032815456" lon="10.784261981025338">
        <ele>13.6</ele>
        <time>2017-07-02T02:25:18Z</time>
      </trkpt>
      <trkpt lat="59.858169006183743" lon="10.784235997125506">
        <ele>13.6</ele>
        <time>2017-07-02T02:25:19Z</time>
      </trkpt>
      <trkpt lat="59.85803104005754" lon="10.784240020439029">
        <ele>13.6</ele>
        <time>2017-07-02T02:25:20Z</time>
      </trkpt>
      <trkpt lat="59.857892990112305" lon="10.784272961318493">
        <ele>13.6</ele>
        <time>2017-07-02T02:25:21Z</time>
      </trkpt>
      <trkpt lat="59.857757035642862" lon="10.784332975745201">
        <ele>13.6</ele>
        <time>2017-07-02T02:25:22Z</time>
      </trkpt>
      <trkpt lat="59.857619991526008" lon="10.784403970465064">
        <ele>13.6</ele>
        <time>2017-07-02T02:25:23Z</time>
      </trkpt>
      <trkpt lat="59.856386007741094" lon="10.784634975716472">
        <ele>12.630000000000001</ele>
        <time>2017-07-02T02:25:32Z</time>
      </trkpt>
      <trkpt lat="59.854591023176908" lon="10.784021001309156">
        <ele>13.119999999999999</ele>
        <time>2017-07-02T02:25:46Z</time>
      </trkpt>
      <trkpt lat="59.852630998939276" lon="10.782417040318251">
        <ele>8.789999999999999</ele>
        <time>2017-07-02T02:26:02Z</time>
      </trkpt>
      <trkpt lat="59.851505979895592" lon="10.781559990718961">
        <ele>8.789999999999999</ele>
        <time>2017-07-02T02:26:11Z</time>
      </trkpt>
      <trkpt lat="59.851387962698936" lon="10.781530989333987">
        <ele>8.789999999999999</ele>
        <time>2017-07-02T02:26:12Z</time>
      </trkpt>
      <trkpt lat="59.851271035149693" lon="10.781525038182735">
        <ele>9.27</ele>
        <time>2017-07-02T02:26:13Z</time>
      </trkpt>
      <trkpt lat="59.85115896910429" lon="10.781534006819129">
        <ele>9.27</ele>
        <time>2017-07-02T02:26:14Z</time>
      </trkpt>
      <trkpt lat="59.851047992706299" lon="10.781555967405438">
        <ele>9.27</ele>
        <time>2017-07-02T02:26:15Z</time>
      </trkpt>
      <trkpt lat="59.8502760194242" lon="10.78162201680243">
        <ele>9.27</ele>
        <time>2017-07-02T02:26:22Z</time>
      </trkpt>
      <trkpt lat="59.850153978914022" lon="10.781566025689244">
        <ele>9.27</ele>
        <time>2017-07-02T02:26:23Z</time>
      </trkpt>
      <trkpt lat="59.850033028051257" lon="10.781481033191085">
        <ele>8.789999999999999</ele>
        <time>2017-07-02T02:26:24Z</time>
      </trkpt>
      <trkpt lat="59.84991199336946" lon="10.781369972974062">
        <ele>9.27</ele>
        <time>2017-07-02T02:26:25Z</time>
      </trkpt>
      <trkpt lat="59.849789030849934" lon="10.781243992969394">
        <ele>9.27</ele>
        <time>2017-07-02T02:26:26Z</time>
      </trkpt>
      <trkpt lat="59.848666023463011" lon="10.779616981744766">
        <ele>10.23</ele>
        <time>2017-07-02T02:26:36Z</time>
      </trkpt>
      <trkpt lat="59.847249984741211" lon="10.777081958949566">
        <ele>9.75</ele>
        <time>2017-07-02T02:26:50Z</time>
      </trkpt>
      <trkpt lat="59.846142986789346" lon="10.776551971212029">
        <ele>8.310000000000001</ele>
        <time>2017-07-02T02:26:58Z</time>
      </trkpt>
      <trkpt lat="59.844024041667581" lon="10.775546981021762">
        <ele>7.83</ele>
        <time>2017-07-02T02:27:13Z</time>
      </trkpt>
      <trkpt lat="59.843464968726039" lon="10.775182032957673">
        <ele>7.35</ele>
        <time>2017-07-02T02:27:17Z</time>
      </trkpt>
      <trkpt lat="59.843313004821539" lon="10.775139033794403">
        <ele>6.87</ele>
        <time>2017-07-02T02:27:18Z</time>
      </trkpt>
      <trkpt lat="59.843159029260278" lon="10.775131992995739">
        <ele>6.39</ele>
        <time>2017-07-02T02:27:19Z</time>
      </trkpt>
      <trkpt lat="59.843005975708365" lon="10.775158982723951">
        <ele>6.39</ele>
        <time>2017-07-02T02:27:20Z</time>
      </trkpt>
      <trkpt lat="59.842856023460627" lon="10.775203993543983">
        <ele>6.39</ele>
        <time>2017-07-02T02:27:21Z</time>
      </trkpt>
      <trkpt lat="59.842704981565475" lon="10.775280017405748">
        <ele>5.91</ele>
        <time>2017-07-02T02:27:22Z</time>
      </trkpt>
      <trkpt lat="59.842558968812227" lon="10.775388982146978">
        <ele>5.91</ele>
        <time>2017-07-02T02:27:23Z</time>
      </trkpt>
      <trkpt lat="59.842417985200882" lon="10.775527032092214">
        <ele>5.91</ele>
        <time>2017-07-02T02:27:24Z</time>
      </trkpt>
      <trkpt lat="59.842281024903059" lon="10.775686036795378">
        <ele>6.39</ele>
        <time>2017-07-02T02:27:25Z</time>
      </trkpt>
      <trkpt lat="59.842154961079359" lon="10.775869013741612">
        <ele>6.39</ele>
        <time>2017-07-02T02:27:26Z</time>
      </trkpt>
      <trkpt lat="59.842033004388213" lon="10.776065988466144">
        <ele>6.39</ele>
        <time>2017-07-02T02:27:27Z</time>
      </trkpt>
      <trkpt lat="59.840647978708148" lon="10.778436977416277">
        <ele>6.39</ele>
        <time>2017-07-02T02:27:38Z</time>
      </trkpt>
      <trkpt lat="59.839446013793349" lon="10.779425036162138">
        <ele>7.83</ele>
        <time>2017-07-02T02:27:45Z</time>
      </trkpt>
      <trkpt lat="59.83925599604845" lon="10.77945495955646">
        <ele>8.310000000000001</ele>
        <time>2017-07-02T02:27:46Z</time>
      </trkpt>
      <trkpt lat="59.839070001617074" lon="10.779467029497027">
        <ele>8.789999999999999</ele>
        <time>2017-07-02T02:27:47Z</time>
      </trkpt>
      <trkpt lat="59.838885013014078" lon="10.77945202589035">
        <ele>9.27</ele>
        <time>2017-07-02T02:27:48Z</time>
      </trkpt>
      <trkpt lat="59.838700024411082" lon="10.779420007020235">
        <ele>10.23</ele>
        <time>2017-07-02T02:27:49Z</time>
      </trkpt>
      <trkpt lat="59.8365059774369" lon="10.778606040403247">
        <ele>19.359999999999999</ele>
        <time>2017-07-02T02:28:01Z</time>
      </trkpt>
      <trkpt lat="59.834490967914462" lon="10.77855197712779">
        <ele>28.98</ele>
        <time>2017-07-02T02:28:11Z</time>
      </trkpt>
      <trkpt lat="59.831181960180402" lon="10.778489029034972">
        <ele>41.469999999999999</ele>
        <time>2017-07-02T02:28:27Z</time>
      </trkpt>
      <trkpt lat="59.828338986262679" lon="10.777557967230678">
        <ele>49.649999999999999</ele>
        <time>2017-07-02T02:28:41Z</time>
      </trkpt>
      <trkpt lat="59.825338013470173" lon="10.776584995910525">
        <ele>56.859999999999999</ele>
        <time>2017-07-02T02:28:56Z</time>
      </trkpt>
      <trkpt lat="59.8206050042063" lon="10.775151019915938">
        <ele>61.659999999999997</ele>
        <time>2017-07-02T02:29:18Z</time>
      </trkpt>
      <trkpt lat="59.817214021459222" lon="10.774391032755375">
        <ele>64.549999999999997</ele>
        <time>2017-07-02T02:29:34Z</time>
      </trkpt>
      <trkpt lat="59.814583025872707" lon="10.774117028340697">
        <ele>57.82</ele>
        <time>2017-07-02T02:29:46Z</time>
      </trkpt>
      <trkpt lat="59.812157973647118" lon="10.7735660020262">
        <ele>52.049999999999997</ele>
        <time>2017-07-02T02:29:57Z</time>
      </trkpt>
      <trkpt lat="59.810640010982752" lon="10.772163961082697">
        <ele>56.369999999999997</ele>
        <time>2017-07-02T02:30:05Z</time>
      </trkpt>
      <trkpt lat="59.809213997796178" lon="10.769747961312532">
        <ele>62.140000000000001</ele>
        <time>2017-07-02T02:30:14Z</time>
      </trkpt>
      <trkpt lat="59.807750014588237" lon="10.767300026491284">
        <ele>67.430000000000007</ele>
        <time>2017-07-02T02:30:24Z</time>
      </trkpt>
      <trkpt lat="59.806008003652096" lon="10.765665974467993">
        <ele>74.159999999999997</ele>
        <time>2017-07-02T02:30:34Z</time>
      </trkpt>
      <trkpt lat="59.804096007719636" lon="10.763451978564262">
        <ele>82.810000000000002</ele>
        <time>2017-07-02T02:30:45Z</time>
      </trkpt>
      <trkpt lat="59.801877988502383" lon="10.760782007128">
        <ele>91.939999999999998</ele>
        <time>2017-07-02T02:30:58Z</time>
      </trkpt>
      <trkpt lat="59.800004968419671" lon="10.759651036933064">
        <ele>96.269999999999996</ele>
        <time>2017-07-02T02:31:08Z</time>
      </trkpt>
      <trkpt lat="59.797909995540977" lon="10.759401004761457">
        <ele>104.44</ele>
        <time>2017-07-02T02:31:19Z</time>
      </trkpt>
      <trkpt lat="59.793335990980268" lon="10.76013701967895">
        <ele>108.77</ele>
        <time>2017-07-02T02:31:43Z</time>
      </trkpt>
      <trkpt lat="59.789554998278618" lon="10.760768009349704">
        <ele>96.269999999999996</ele>
        <time>2017-07-02T02:32:02Z</time>
      </trkpt>
      <trkpt lat="59.786370964720845" lon="10.761324986815453">
        <ele>86.180000000000007</ele>
        <time>2017-07-02T02:32:18Z</time>
      </trkpt>
      <trkpt lat="59.784026965498924" lon="10.762384040281177">
        <ele>80.890000000000001</ele>
        <time>2017-07-02T02:32:30Z</time>
      </trkpt>
      <trkpt lat="59.782299036160111" lon="10.764073999598622">
        <ele>80.890000000000001</ele>
        <time>2017-07-02T02:32:40Z</time>
      </trkpt>
      <trkpt lat="59.780481001362205" lon="10.766736008226871">
        <ele>79.930000000000007</ele>
        <time>2017-07-02T02:32:52Z</time>
      </trkpt>
      <trkpt lat="59.778813002631068" lon="10.768467960879207">
        <ele>81.849999999999994</ele>
        <time>2017-07-02T02:33:02Z</time>
      </trkpt>
      <trkpt lat="59.776274040341377" lon="10.769837982952595">
        <ele>80.890000000000001</ele>
        <time>2017-07-02T02:33:16Z</time>
      </trkpt>
      <trkpt lat="59.771773964166641" lon="10.772119034081697">
        <ele>80.890000000000001</ele>
        <time>2017-07-02T02:33:40Z</time>
      </trkpt>
      <trkpt lat="59.767650989815593" lon="10.774249965324998">
        <ele>78.480000000000004</ele>
        <time>2017-07-02T02:34:02Z</time>
      </trkpt>
      <trkpt lat="59.764884961768985" lon="10.775445979088545">
        <ele>69.349999999999994</ele>
        <time>2017-07-02T02:34:16Z</time>
      </trkpt>
      <trkpt lat="59.763142028823495" lon="10.77532603405416">
        <ele>63.100000000000001</ele>
        <time>2017-07-02T02:34:25Z</time>
      </trkpt>
      <trkpt lat="59.760689986869693" lon="10.774745000526309">
        <ele>55.409999999999997</ele>
        <time>2017-07-02T02:34:38Z</time>
      </trkpt>
      <trkpt lat="59.759209994226694" lon="10.775470035150647">
        <ele>52.530000000000001</ele>
        <time>2017-07-02T02:34:46Z</time>
      </trkpt>
      <trkpt lat="59.757946003228426" lon="10.777102997526526">
        <ele>51.57</ele>
        <time>2017-07-02T02:34:54Z</time>
      </trkpt>
      <trkpt lat="59.756999015808105" lon="10.779421012848616">
        <ele>53.009999999999998</ele>
        <time>2017-07-02T02:35:02Z</time>
      </trkpt>
      <trkpt lat="59.755663024261594" lon="10.782401030883193">
        <ele>53.009999999999998</ele>
        <time>2017-07-02T02:35:13Z</time>
      </trkpt>
      <trkpt lat="59.754365002736449" lon="10.783614981919527">
        <ele>51.57</ele>
        <time>2017-07-02T02:35:21Z</time>
      </trkpt>
      <trkpt lat="59.752473039552569" lon="10.783947994932532">
        <ele>51.57</ele>
        <time>2017-07-02T02:35:31Z</time>
      </trkpt>
      <trkpt lat="59.749952014535666" lon="10.783559996634722">
        <ele>51.57</ele>
        <time>2017-07-02T02:35:44Z</time>
      </trkpt>
      <trkpt lat="59.745817976072431" lon="10.782601023092866">
        <ele>47.240000000000002</ele>
        <time>2017-07-02T02:36:05Z</time>
      </trkpt>
      <trkpt lat="59.742540987208486" lon="10.78127802349627">
        <ele>51.090000000000003</ele>
        <time>2017-07-02T02:36:22Z</time>
      </trkpt>
      <trkpt lat="59.741085972636938" lon="10.779766011983156">
        <ele>53.969999999999999</ele>
        <time>2017-07-02T02:36:30Z</time>
      </trkpt>
      <trkpt lat="59.739697007462382" lon="10.777396028861403">
        <ele>58.299999999999997</ele>
        <time>2017-07-02T02:36:39Z</time>
      </trkpt>
      <trkpt lat="59.738181978464127" lon="10.774839967489243">
        <ele>58.780000000000001</ele>
        <time>2017-07-02T02:36:48Z</time>
      </trkpt>
      <trkpt lat="59.708599979057908" lon="10.737586012110114">
        <ele>26.57</ele>
        <time>2017-07-02T02:39:21Z</time>
      </trkpt>
      <trkpt lat="59.705558018758893" lon="10.737629011273384">
        <ele>27.530000000000001</ele>
        <time>2017-07-02T02:39:34Z</time>
      </trkpt>
      <trkpt lat="59.703258024528623" lon="10.737093994393945">
        <ele>33.780000000000001</ele>
        <time>2017-07-02T02:39:45Z</time>
      </trkpt>
      <trkpt lat="59.693942964076996" lon="10.733191967010498">
        <ele>35.710000000000001</ele>
        <time>2017-07-02T02:40:25Z</time>
      </trkpt>
      <trkpt lat="59.691655961796641" lon="10.733406962826848">
        <ele>44.840000000000003</ele>
        <time>2017-07-02T02:40:35Z</time>
      </trkpt>
      <trkpt lat="59.689512960612774" lon="10.73456802405417">
        <ele>50.130000000000003</ele>
        <time>2017-07-02T02:40:45Z</time>
      </trkpt>
      <trkpt lat="59.687594007700682" lon="10.73609596118331">
        <ele>53.490000000000002</ele>
        <time>2017-07-02T02:40:54Z</time>
      </trkpt>
      <trkpt lat="59.685143977403641" lon="10.737349977716804">
        <ele>59.259999999999998</ele>
        <time>2017-07-02T02:41:05Z</time>
      </trkpt>
      <trkpt lat="59.682509964331985" lon="10.739052006974816">
        <ele>65.510000000000005</ele>
        <time>2017-07-02T02:41:17Z</time>
      </trkpt>
      <trkpt lat="59.679686017334461" lon="10.741055030375719">
        <ele>67.909999999999997</ele>
        <time>2017-07-02T02:41:30Z</time>
      </trkpt>
      <trkpt lat="59.677527006715536" lon="10.74148703366518">
        <ele>65.510000000000005</ele>
        <time>2017-07-02T02:41:39Z</time>
      </trkpt>
      <trkpt lat="59.675352992489934" lon="10.742187006399035">
        <ele>61.659999999999997</ele>
        <time>2017-07-02T02:41:48Z</time>
      </trkpt>
      <trkpt lat="59.670455027371645" lon="10.744373006746173">
        <ele>59.259999999999998</ele>
        <time>2017-07-02T02:42:08Z</time>
      </trkpt>
      <trkpt lat="59.666927000507712" lon="10.745144980028272">
        <ele>75.120000000000005</ele>
        <time>2017-07-02T02:42:22Z</time>
      </trkpt>
      <trkpt lat="59.662899998947978" lon="10.745194014161825">
        <ele>87.140000000000001</ele>
        <time>2017-07-02T02:42:38Z</time>
      </trkpt>
      <trkpt lat="59.66041199862957" lon="10.744352973997593">
        <ele>88.099999999999994</ele>
        <time>2017-07-02T02:42:48Z</time>
      </trkpt>
      <trkpt lat="59.6556649915874" lon="10.7419160194695">
        <ele>88.579999999999998</ele>
        <time>2017-07-02T02:43:07Z</time>
      </trkpt>
      <trkpt lat="59.652379034087062" lon="10.740976994857192">
        <ele>90.980000000000004</ele>
        <time>2017-07-02T02:43:19Z</time>
      </trkpt>
      <trkpt lat="59.645181996747851" lon="10.739865973591805">
        <ele>97.230000000000004</ele>
        <time>2017-07-02T02:43:46Z</time>
      </trkpt>
      <trkpt lat="59.640367012470961" lon="10.739161977544427">
        <ele>93.870000000000005</ele>
        <time>2017-07-02T02:44:04Z</time>
      </trkpt>
      <trkpt lat="59.634111011400819" lon="10.738104013726115">
        <ele>89.060000000000002</ele>
        <time>2017-07-02T02:44:27Z</time>
      </trkpt>
      <trkpt lat="59.63099897839129" lon="10.736957034096122">
        <ele>91.939999999999998</ele>
        <time>2017-07-02T02:44:39Z</time>
      </trkpt>
      <trkpt lat="59.627237012609839" lon="10.734887039288878">
        <ele>95.310000000000002</ele>
        <time>2017-07-02T02:44:54Z</time>
      </trkpt>
      <trkpt lat="59.623044971376657" lon="10.733210993930697">
        <ele>96.269999999999996</ele>
        <time>2017-07-02T02:45:10Z</time>
      </trkpt>
      <trkpt lat="59.619085025042295" lon="10.732445977628231">
        <ele>94.829999999999998</ele>
        <time>2017-07-02T02:45:24Z</time>
      </trkpt>
      <trkpt lat="59.614249002188444" lon="10.731997964903712">
        <ele>86.659999999999997</ele>
        <time>2017-07-02T02:45:41Z</time>
      </trkpt>
      <trkpt lat="59.611480040475726" lon="10.732597019523382">
        <ele>84.25</ele>
        <time>2017-07-02T02:45:51Z</time>
      </trkpt>
      <trkpt lat="59.608234986662865" lon="10.734382029622793">
        <ele>75.120000000000005</ele>
        <time>2017-07-02T02:46:03Z</time>
      </trkpt>
      <trkpt lat="59.602266987785697" lon="10.737709980458021">
        <ele>64.069999999999993</ele>
        <time>2017-07-02T02:46:25Z</time>
      </trkpt>
      <trkpt lat="59.598618010058999" lon="10.738667026162148">
        <ele>55.890000000000001</ele>
        <time>2017-07-02T02:46:38Z</time>
      </trkpt>
      <trkpt lat="59.594982024282217" lon="10.738729974254966">
        <ele>53.490000000000002</ele>
        <time>2017-07-02T02:46:51Z</time>
      </trkpt>
      <trkpt lat="59.591990020126104" lon="10.738048022612929">
        <ele>53.490000000000002</ele>
        <time>2017-07-02T02:47:02Z</time>
      </trkpt>
      <trkpt lat="59.589114021509886" lon="10.736473985016346">
        <ele>53.009999999999998</ele>
        <time>2017-07-02T02:47:13Z</time>
      </trkpt>
      <trkpt lat="59.58418202586472" lon="10.733336973935366">
        <ele>53.969999999999999</ele>
        <time>2017-07-02T02:47:31Z</time>
      </trkpt>
      <trkpt lat="59.579772977158427" lon="10.73031697422266">
        <ele>56.859999999999999</ele>
        <time>2017-07-02T02:47:47Z</time>
      </trkpt>
      <trkpt lat="59.574282998219132" lon="10.725783035159111">
        <ele>66.469999999999999</ele>
        <time>2017-07-02T02:48:08Z</time>
      </trkpt>
      <trkpt lat="59.569793986156583" lon="10.722470004111528">
        <ele>74.640000000000001</ele>
        <time>2017-07-02T02:48:25Z</time>
      </trkpt>
      <trkpt lat="59.566697962582111" lon="10.721260998398066">
        <ele>76.560000000000002</ele>
        <time>2017-07-02T02:48:36Z</time>
      </trkpt>
      <trkpt lat="59.562886040657759" lon="10.720722964033484">
        <ele>74.640000000000001</ele>
        <time>2017-07-02T02:48:49Z</time>
      </trkpt>
      <trkpt lat="59.558531977236271" lon="10.721022030338645">
        <ele>71.760000000000005</ele>
        <time>2017-07-02T02:49:04Z</time>
      </trkpt>
      <trkpt lat="59.552143039181828" lon="10.722230030223727">
        <ele>71.269999999999996</ele>
        <time>2017-07-02T02:49:26Z</time>
      </trkpt>
      <trkpt lat="59.546054005622864" lon="10.723700970411301">
        <ele>68.870000000000005</ele>
        <time>2017-07-02T02:49:47Z</time>
      </trkpt>
      <trkpt lat="59.541415963321924" lon="10.725428983569145">
        <ele>58.780000000000001</ele>
        <time>2017-07-02T02:50:03Z</time>
      </trkpt>
      <trkpt lat="59.536996018141508" lon="10.727253975346684">
        <ele>52.049999999999997</ele>
        <time>2017-07-02T02:50:19Z</time>
      </trkpt>
      <trkpt lat="59.526231978088617" lon="10.729483980685472">
        <ele>40.030000000000001</ele>
        <time>2017-07-02T02:50:56Z</time>
      </trkpt>
      <trkpt lat="59.522779975086451" lon="10.728482007980347">
        <ele>35.710000000000001</ele>
        <time>2017-07-02T02:51:08Z</time>
      </trkpt>
      <trkpt lat="59.519328977912664" lon="10.72657504118979">
        <ele>28.98</ele>
        <time>2017-07-02T02:51:20Z</time>
      </trkpt>
      <trkpt lat="59.514185003936291" lon="10.722931008785963">
        <ele>23.210000000000001</ele>
        <time>2017-07-02T02:51:38Z</time>
      </trkpt>
      <trkpt lat="59.510260010138154" lon="10.720375031232834">
        <ele>32.340000000000003</ele>
        <time>2017-07-02T02:51:52Z</time>
      </trkpt>
      <trkpt lat="59.507577968761325" lon="10.719624012708664">
        <ele>31.379999999999999</ele>
        <time>2017-07-02T02:52:01Z</time>
      </trkpt>
      <trkpt lat="59.503395985811949" lon="10.71879998780787">
        <ele>27.530000000000001</ele>
        <time>2017-07-02T02:52:15Z</time>
      </trkpt>
      <trkpt lat="59.500556029379368" lon="10.717023024335504">
        <ele>33.299999999999997</ele>
        <time>2017-07-02T02:52:25Z</time>
      </trkpt>
      <trkpt lat="59.496056037023664" lon="10.713488962501287">
        <ele>43.880000000000003</ele>
        <time>2017-07-02T02:52:41Z</time>
      </trkpt>
      <trkpt lat="59.492496997117996" lon="10.711789028719068">
        <ele>42.439999999999998</ele>
        <time>2017-07-02T02:52:53Z</time>
      </trkpt>
      <trkpt lat="59.489008029922843" lon="10.70975499227643">
        <ele>40.030000000000001</ele>
        <time>2017-07-02T02:53:05Z</time>
      </trkpt>
      <trkpt lat="59.486388014629483" lon="10.707614002749324">
        <ele>34.740000000000002</ele>
        <time>2017-07-02T02:53:15Z</time>
      </trkpt>
      <trkpt lat="59.483384024351835" lon="10.70515600964427">
        <ele>33.299999999999997</ele>
        <time>2017-07-02T02:53:27Z</time>
      </trkpt>
      <trkpt lat="59.480760991573334" lon="10.703649027273059">
        <ele>38.109999999999999</ele>
        <time>2017-07-02T02:53:36Z</time>
      </trkpt>
      <trkpt lat="59.476473983377218" lon="10.702414959669113">
        <ele>33.299999999999997</ele>
        <time>2017-07-02T02:53:50Z</time>
      </trkpt>
      <trkpt lat="59.470443036407232" lon="10.700776968151331">
        <ele>30.899999999999999</ele>
        <time>2017-07-02T02:54:10Z</time>
      </trkpt>
      <trkpt lat="59.466023007407784" lon="10.699532004073262">
        <ele>44.359999999999999</ele>
        <time>2017-07-02T02:54:25Z</time>
      </trkpt>
      <trkpt lat="59.462788011878729" lon="10.698327021673322">
        <ele>45.32</ele>
        <time>2017-07-02T02:54:36Z</time>
      </trkpt>
      <trkpt lat="59.460634030401707" lon="10.698305983096361">
        <ele>44.359999999999999</ele>
        <time>2017-07-02T02:54:43Z</time>
      </trkpt>
      <trkpt lat="59.458598988130689" lon="10.699273003265262">
        <ele>46.759999999999998</ele>
        <time>2017-07-02T02:54:50Z</time>
      </trkpt>
      <trkpt lat="59.45514396764338" lon="10.700699016451836">
        <ele>49.649999999999999</ele>
        <time>2017-07-02T02:55:02Z</time>
      </trkpt>
      <trkpt lat="59.453067015856504" lon="10.700383018702269">
        <ele>45.799999999999997</ele>
        <time>2017-07-02T02:55:09Z</time>
      </trkpt>
      <trkpt lat="59.450083980336785" lon="10.699034035205841">
        <ele>34.740000000000002</ele>
        <time>2017-07-02T02:55:19Z</time>
      </trkpt>
      <trkpt lat="59.448241973295808" lon="10.699066976085305">
        <ele>35.229999999999997</ele>
        <time>2017-07-02T02:55:25Z</time>
      </trkpt>
      <trkpt lat="59.446487976238132" lon="10.700042964890599">
        <ele>36.189999999999998</ele>
        <time>2017-07-02T02:55:31Z</time>
      </trkpt>
      <trkpt lat="59.444093015044928" lon="10.702496012672782">
        <ele>39.07</ele>
        <time>2017-07-02T02:55:40Z</time>
      </trkpt>
      <trkpt lat="59.441868038848042" lon="10.70474898442626">
        <ele>46.280000000000001</ele>
        <time>2017-07-02T02:55:49Z</time>
      </trkpt>
      <trkpt lat="59.439770970493555" lon="10.705878026783466">
        <ele>48.68</ele>
        <time>2017-07-02T02:55:57Z</time>
      </trkpt>
      <trkpt lat="59.43748002871871" lon="10.706139961257577">
        <ele>45.32</ele>
        <time>2017-07-02T02:56:05Z</time>
      </trkpt>
      <trkpt lat="59.434010004624724" lon="10.705343009904027">
        <ele>32.82</ele>
        <time>2017-07-02T02:56:17Z</time>
      </trkpt>
      <trkpt lat="59.431404992938042" lon="10.705288024619222">
        <ele>28.02</ele>
        <time>2017-07-02T02:56:26Z</time>
      </trkpt>
      <trkpt lat="59.427716033533216" lon="10.706398962065578">
        <ele>28.98</ele>
        <time>2017-07-02T02:56:39Z</time>
      </trkpt>
      <trkpt lat="59.424378024414182" lon="10.707221981137991">
        <ele>30.899999999999999</ele>
        <time>2017-07-02T02:56:51Z</time>
      </trkpt>
      <trkpt lat="59.422194035723805" lon="10.706625021994114">
        <ele>36.670000000000002</ele>
        <time>2017-07-02T02:56:59Z</time>
      </trkpt>
      <trkpt lat="59.420074000954628" lon="10.705060036852956">
        <ele>37.149999999999999</ele>
        <time>2017-07-02T02:57:07Z</time>
      </trkpt>
      <trkpt lat="59.414474973455071" lon="10.700532970950007">
        <ele>28.98</ele>
        <time>2017-07-02T02:57:28Z</time>
      </trkpt>
      <trkpt lat="59.412575969472528" lon="10.699510965496302">
        <ele>27.050000000000001</ele>
        <time>2017-07-02T02:57:35Z</time>
      </trkpt>
      <trkpt lat="59.410858014598489" lon="10.699739959090948">
        <ele>26.57</ele>
        <time>2017-07-02T02:57:41Z</time>
      </trkpt>
      <trkpt lat="59.409298980608582" lon="10.700995987281203">
        <ele>26.09</ele>
        <time>2017-07-02T02:57:47Z</time>
      </trkpt>
      <trkpt lat="59.407988972961903" lon="10.703134965151548">
        <ele>26.09</ele>
        <time>2017-07-02T02:57:53Z</time>
      </trkpt>
      <trkpt lat="59.406888009980321" lon="10.70644598454237">
        <ele>25.609999999999999</ele>
        <time>2017-07-02T02:58:00Z</time>
      </trkpt>
      <trkpt lat="59.403809001669288" lon="10.71639496833086">
        <ele>29.940000000000001</ele>
        <time>2017-07-02T02:58:20Z</time>
      </trkpt>
      <trkpt lat="59.401130983605981" lon="10.724221989512444">
        <ele>28.02</ele>
        <time>2017-07-02T02:58:36Z</time>
      </trkpt>
      <trkpt lat="59.399311020970345" lon="10.727228997275233">
        <ele>27.530000000000001</ele>
        <time>2017-07-02T02:58:44Z</time>
      </trkpt>
      <trkpt lat="59.395160973072052" lon="10.733383996412158">
        <ele>28.5</ele>
        <time>2017-07-02T02:59:02Z</time>
      </trkpt>
      <trkpt lat="59.391150986775756" lon="10.739659024402499">
        <ele>30.420000000000002</ele>
        <time>2017-07-02T02:59:20Z</time>
      </trkpt>
      <trkpt lat="59.388326033949852" lon="10.74524799361825">
        <ele>37.149999999999999</ele>
        <time>2017-07-02T02:59:34Z</time>
      </trkpt>
      <trkpt lat="59.385523963719606" lon="10.752175971865654">
        <ele>41.950000000000003</ele>
        <time>2017-07-02T02:59:50Z</time>
      </trkpt>
      <trkpt lat="59.383629988878965" lon="10.756252007558942">
        <ele>48.68</ele>
        <time>2017-07-02T03:00:00Z</time>
      </trkpt>
      <trkpt lat="59.380299020558596" lon="10.762976976111531">
        <ele>53.009999999999998</ele>
        <time>2017-07-02T03:00:17Z</time>
      </trkpt>
      <trkpt lat="59.378477968275547" lon="10.768013997003436">
        <ele>53.490000000000002</ele>
        <time>2017-07-02T03:00:28Z</time>
      </trkpt>
      <trkpt lat="59.37659002840519" lon="10.775062004104257">
        <ele>53.009999999999998</ele>
        <time>2017-07-02T03:00:42Z</time>
      </trkpt>
      <trkpt lat="59.37431501224637" lon="10.783869037404656">
        <ele>49.159999999999997</ele>
        <time>2017-07-02T03:00:59Z</time>
      </trkpt>
      <trkpt lat="59.372393963858485" lon="10.791939971968532">
        <ele>56.369999999999997</ele>
        <time>2017-07-02T03:01:14Z</time>
      </trkpt>
      <trkpt lat="59.370627980679274" lon="10.801077000796795">
        <ele>48.68</ele>
        <time>2017-07-02T03:01:30Z</time>
      </trkpt>
      <trkpt lat="59.368947995826602" lon="10.80798402428627">
        <ele>48.68</ele>
        <time>2017-07-02T03:01:43Z</time>
      </trkpt>
      <trkpt lat="59.366007037460804" lon="10.818714033812284">
        <ele>49.649999999999999</ele>
        <time>2017-07-02T03:02:04Z</time>
      </trkpt>
      <trkpt lat="59.36378700658679" lon="10.82581995986402">
        <ele>40.509999999999998</ele>
        <time>2017-07-02T03:02:18Z</time>
      </trkpt>
      <trkpt lat="59.360682014375925" lon="10.833935989066958">
        <ele>33.299999999999997</ele>
        <time>2017-07-02T03:02:35Z</time>
      </trkpt>
      <trkpt lat="59.358639009296894" lon="10.840227026492357">
        <ele>42.920000000000002</ele>
        <time>2017-07-02T03:02:48Z</time>
      </trkpt>
      <trkpt lat="59.35732196085155" lon="10.846117995679379">
        <ele>42.439999999999998</ele>
        <time>2017-07-02T03:02:59Z</time>
      </trkpt>
      <trkpt lat="59.356425013393164" lon="10.852356981486082">
        <ele>39.549999999999997</ele>
        <time>2017-07-02T03:03:10Z</time>
      </trkpt>
      <trkpt lat="59.355825958773494" lon="10.860478039830923">
        <ele>43.399999999999999</ele>
        <time>2017-07-02T03:03:24Z</time>
      </trkpt>
      <trkpt lat="59.354875031858683" lon="10.873373011127114">
        <ele>42.920000000000002</ele>
        <time>2017-07-02T03:03:46Z</time>
      </trkpt>
      <trkpt lat="59.35396702028811" lon="10.878937002271414">
        <ele>41.469999999999999</ele>
        <time>2017-07-02T03:03:56Z</time>
      </trkpt>
      <trkpt lat="59.352299021556973" lon="10.886290026828647">
        <ele>46.280000000000001</ele>
        <time>2017-07-02T03:04:10Z</time>
      </trkpt>
      <trkpt lat="59.350590035319328" lon="10.894621973857284">
        <ele>51.090000000000003</ele>
        <time>2017-07-02T03:04:26Z</time>
      </trkpt>
      <trkpt lat="59.349483959376812" lon="10.902270963415504">
        <ele>55.409999999999997</ele>
        <time>2017-07-02T03:04:40Z</time>
      </trkpt>
      <trkpt lat="59.348106980323792" lon="10.913621988147497">
        <ele>57.82</ele>
        <time>2017-07-02T03:05:00Z</time>
      </trkpt>
      <trkpt lat="59.346910966560245" lon="10.91906301677227">
        <ele>55.409999999999997</ele>
        <time>2017-07-02T03:05:10Z</time>
      </trkpt>
      <trkpt lat="59.345278004184365" lon="10.924053015187383">
        <ele>49.159999999999997</ele>
        <time>2017-07-02T03:05:20Z</time>
      </trkpt>
      <trkpt lat="59.343804968520999" lon="10.927047031000257">
        <ele>43.880000000000003</ele>
        <time>2017-07-02T03:05:27Z</time>
      </trkpt>
      <trkpt lat="59.341564988717437" lon="10.930031994357705">
        <ele>37.630000000000003</ele>
        <time>2017-07-02T03:05:36Z</time>
      </trkpt>
      <trkpt lat="59.338930975645781" lon="10.93249199911952">
        <ele>34.740000000000002</ele>
        <time>2017-07-02T03:05:46Z</time>
      </trkpt>
      <trkpt lat="59.334969017654657" lon="10.935144033282995">
        <ele>29.460000000000001</ele>
        <time>2017-07-02T03:06:00Z</time>
      </trkpt>
      <trkpt lat="59.330854006111622" lon="10.937015963718295">
        <ele>26.09</ele>
        <time>2017-07-02T03:06:14Z</time>
      </trkpt>
      <trkpt lat="59.327787989750504" lon="10.938579021021724">
        <ele>25.129999999999999</ele>
        <time>2017-07-02T03:06:25Z</time>
      </trkpt>
      <trkpt lat="59.326407993212342" lon="10.94026998616755">
        <ele>20.32</ele>
        <time>2017-07-02T03:06:31Z</time>
      </trkpt>
      <trkpt lat="59.325327984988689" lon="10.942710964009166">
        <ele>13.6</ele>
        <time>2017-07-02T03:06:37Z</time>
      </trkpt>
      <trkpt lat="59.324677968397737" lon="10.945753008127213">
        <ele>7.35</ele>
        <time>2017-07-02T03:06:43Z</time>
      </trkpt>
      <trkpt lat="59.324503038078547" lon="10.949007030576468">
        <ele>3.98</ele>
        <time>2017-07-02T03:06:49Z</time>
      </trkpt>
      <trkpt lat="59.324893970042467" lon="10.952676041051745">
        <ele>3.5</ele>
        <time>2017-07-02T03:06:56Z</time>
      </trkpt>
      <trkpt lat="59.325245004147291" lon="10.956797003746033">
        <ele>3.98</ele>
        <time>2017-07-02T03:07:04Z</time>
      </trkpt>
      <trkpt lat="59.324938980862498" lon="10.959924040362239">
        <ele>7.83</ele>
        <time>2017-07-02T03:07:10Z</time>
      </trkpt>
      <trkpt lat="59.323943965137005" lon="10.963893039152026">
        <ele>3.98</ele>
        <time>2017-07-02T03:07:18Z</time>
      </trkpt>
      <trkpt lat="59.32260001078248" lon="10.966868028044701">
        <ele>6.39</ele>
        <time>2017-07-02T03:07:25Z</time>
      </trkpt>
      <trkpt lat="59.320980040356517" lon="10.969094010069966">
        <ele>16.960000000000001</ele>
        <time>2017-07-02T03:07:32Z</time>
      </trkpt>
      <trkpt lat="59.318745005875826" lon="10.971994986757636">
        <ele>29.940000000000001</ele>
        <time>2017-07-02T03:07:42Z</time>
      </trkpt>
      <trkpt lat="59.317757030948997" lon="10.974489022046328">
        <ele>35.229999999999997</ele>
        <time>2017-07-02T03:07:48Z</time>
      </trkpt>
      <trkpt lat="59.317175997421145" lon="10.977578004822135">
        <ele>37.149999999999999</ele>
        <time>2017-07-02T03:07:54Z</time>
      </trkpt>
      <trkpt lat="59.316873997449875" lon="10.982628017663956">
        <ele>33.299999999999997</ele>
        <time>2017-07-02T03:08:03Z</time>
      </trkpt>
      <trkpt lat="59.316415004432201" lon="10.990739017724991">
        <ele>22.25</ele>
        <time>2017-07-02T03:08:18Z</time>
      </trkpt>
      <trkpt lat="59.31596003472805" lon="10.998919000849128">
        <ele>36.670000000000002</ele>
        <time>2017-07-02T03:08:34Z</time>
      </trkpt>
      <trkpt lat="59.316318025812507" lon="11.019869986921549">
        <ele>58.299999999999997</ele>
        <time>2017-07-02T03:09:13Z</time>
      </trkpt>
      <trkpt lat="59.316161032766104" lon="11.024247016757727">
        <ele>59.259999999999998</ele>
        <time>2017-07-02T03:09:21Z</time>
      </trkpt>
      <trkpt lat="59.315669015049934" lon="11.026734011247754">
        <ele>63.100000000000001</ele>
        <time>2017-07-02T03:09:26Z</time>
      </trkpt>
      <trkpt lat="59.314595041796565" lon="11.029307004064322">
        <ele>62.140000000000001</ele>
        <time>2017-07-02T03:09:32Z</time>
      </trkpt>
      <trkpt lat="59.313206998631358" lon="11.031119003891945">
        <ele>59.259999999999998</ele>
        <time>2017-07-02T03:09:38Z</time>
      </trkpt>
      <trkpt lat="59.310686979442835" lon="11.033475995063782">
        <ele>54.450000000000003</ele>
        <time>2017-07-02T03:09:48Z</time>
      </trkpt>
      <trkpt lat="59.309232970699668" lon="11.036059968173504">
        <ele>53.490000000000002</ele>
        <time>2017-07-02T03:09:55Z</time>
      </trkpt>
      <trkpt lat="59.305468993261456" lon="11.043643997982144">
        <ele>53.009999999999998</ele>
        <time>2017-07-02T03:10:14Z</time>
      </trkpt>
      <trkpt lat="59.302767002955079" lon="11.050199987366796">
        <ele>51.57</ele>
        <time>2017-07-02T03:10:29Z</time>
      </trkpt>
      <trkpt lat="59.300267016515136" lon="11.057615038007498">
        <ele>47.240000000000002</ele>
        <time>2017-07-02T03:10:45Z</time>
      </trkpt>
      <trkpt lat="59.297771975398064" lon="11.064342018216848">
        <ele>40.509999999999998</ele>
        <time>2017-07-02T03:11:00Z</time>
      </trkpt>
      <trkpt lat="59.295832989737391" lon="11.068294001743197">
        <ele>48.68</ele>
        <time>2017-07-02T03:11:10Z</time>
      </trkpt>
      <trkpt lat="59.293565014377236" lon="11.071751033887267">
        <ele>44.359999999999999</ele>
        <time>2017-07-02T03:11:20Z</time>
      </trkpt>
      <trkpt lat="59.291200982406735" lon="11.074451012536883">
        <ele>37.630000000000003</ele>
        <time>2017-07-02T03:11:30Z</time>
      </trkpt>
      <trkpt lat="59.288360020145774" lon="11.076757963746786">
        <ele>31.379999999999999</ele>
        <time>2017-07-02T03:11:41Z</time>
      </trkpt>
      <trkpt lat="59.285145979374647" lon="11.078408025205135">
        <ele>26.09</ele>
        <time>2017-07-02T03:11:53Z</time>
      </trkpt>
      <trkpt lat="59.281304972246289" lon="11.080350028350949">
        <ele>18.399999999999999</ele>
        <time>2017-07-02T03:12:07Z</time>
      </trkpt>
      <trkpt lat="59.278714964166284" lon="11.082526976242661">
        <ele>21.77</ele>
        <time>2017-07-02T03:12:17Z</time>
      </trkpt>
      <trkpt lat="59.276692997664213" lon="11.085356958210468">
        <ele>27.050000000000001</ele>
        <time>2017-07-02T03:12:26Z</time>
      </trkpt>
      <trkpt lat="59.275285005569458" lon="11.088594971224666">
        <ele>30.420000000000002</ele>
        <time>2017-07-02T03:12:34Z</time>
      </trkpt>
      <trkpt lat="59.273176034912467" lon="11.093442980200052">
        <ele>31.379999999999999</ele>
        <time>2017-07-02T03:12:46Z</time>
      </trkpt>
      <trkpt lat="59.27170098759234" lon="11.094926996156573">
        <ele>32.82</ele>
        <time>2017-07-02T03:12:52Z</time>
      </trkpt>
      <trkpt lat="59.270051009953022" lon="11.095508029684424">
        <ele>32.82</ele>
        <time>2017-07-02T03:12:58Z</time>
      </trkpt>
      <trkpt lat="59.265206018462777" lon="11.096162991598248">
        <ele>22.73</ele>
        <time>2017-07-02T03:13:15Z</time>
      </trkpt>
      <trkpt lat="59.261486968025565" lon="11.097092041745782">
        <ele>23.690000000000001</ele>
        <time>2017-07-02T03:13:28Z</time>
      </trkpt>
      <trkpt lat="59.258463028818369" lon="11.098622996360064">
        <ele>30.899999999999999</ele>
        <time>2017-07-02T03:13:39Z</time>
      </trkpt>
      <trkpt lat="59.255606979131699" lon="11.101080989465117">
        <ele>37.630000000000003</ele>
        <time>2017-07-02T03:13:50Z</time>
      </trkpt>
      <trkpt lat="59.252861989662051" lon="11.10445898026228">
        <ele>33.780000000000001</ele>
        <time>2017-07-02T03:14:01Z</time>
      </trkpt>
      <trkpt lat="59.250350017100573" lon="11.108687985688448">
        <ele>27.530000000000001</ele>
        <time>2017-07-02T03:14:12Z</time>
      </trkpt>
      <trkpt lat="59.248050022870302" lon="11.114032035693526">
        <ele>28.02</ele>
        <time>2017-07-02T03:14:24Z</time>
      </trkpt>
      <trkpt lat="59.244984006509185" lon="11.122229034081101">
        <ele>39.07</ele>
        <time>2017-07-02T03:14:42Z</time>
      </trkpt>
      <trkpt lat="59.241501996293664" lon="11.131325997412205">
        <ele>48.200000000000003</ele>
        <time>2017-07-02T03:15:02Z</time>
      </trkpt>
      <trkpt lat="59.239529985934496" lon="11.134829968214035">
        <ele>42.920000000000002</ele>
        <time>2017-07-02T03:15:11Z</time>
      </trkpt>
      <trkpt lat="59.236962022259831" lon="11.137955999001861">
        <ele>33.780000000000001</ele>
        <time>2017-07-02T03:15:21Z</time>
      </trkpt>
      <trkpt lat="59.232676019892097" lon="11.143317986279726">
        <ele>31.379999999999999</ele>
        <time>2017-07-02T03:15:38Z</time>
      </trkpt>
      <trkpt lat="59.230075031518936" lon="11.147886039689183">
        <ele>35.229999999999997</ele>
        <time>2017-07-02T03:15:50Z</time>
      </trkpt>
      <trkpt lat="59.226441979408264" lon="11.154016982764006">
        <ele>29.940000000000001</ele>
        <time>2017-07-02T03:16:06Z</time>
      </trkpt>
      <trkpt lat="59.223835961893201" lon="11.157215014100075">
        <ele>24.649999999999999</ele>
        <time>2017-07-02T03:16:16Z</time>
      </trkpt>
      <trkpt lat="59.220833983272314" lon="11.159837041050196">
        <ele>29.940000000000001</ele>
        <time>2017-07-02T03:16:27Z</time>
      </trkpt>
      <trkpt lat="59.217421039938927" lon="11.161750964820385">
        <ele>30.420000000000002</ele>
        <time>2017-07-02T03:16:39Z</time>
      </trkpt>
      <trkpt lat="59.213150963187218" lon="11.163924979045987">
        <ele>29.460000000000001</ele>
        <time>2017-07-02T03:16:54Z</time>
      </trkpt>
      <trkpt lat="59.211127990856767" lon="11.166225979104638">
        <ele>28.98</ele>
        <time>2017-07-02T03:17:02Z</time>
      </trkpt>
      <trkpt lat="59.209464015439153" lon="11.169468015432358">
        <ele>28.98</ele>
        <time>2017-07-02T03:17:10Z</time>
      </trkpt>
      <trkpt lat="59.20694500207901" lon="11.174434963613749">
        <ele>27.530000000000001</ele>
        <time>2017-07-02T03:17:22Z</time>
      </trkpt>
      <trkpt lat="59.204050982370973" lon="11.178679978474975">
        <ele>15.039999999999999</ele>
        <time>2017-07-02T03:17:34Z</time>
      </trkpt>
      <trkpt lat="59.202284999191761" lon="11.182057969272137">
        <ele>3.5</ele>
        <time>2017-07-02T03:17:42Z</time>
      </trkpt>
      <trkpt lat="59.200710039585829" lon="11.186526026576757">
        <ele>2.06</ele>
        <time>2017-07-02T03:17:51Z</time>
      </trkpt>
      <trkpt lat="59.198434017598629" lon="11.194041995331645">
        <ele>11.19</ele>
        <time>2017-07-02T03:18:06Z</time>
      </trkpt>
      <trkpt lat="59.196909014135599" lon="11.196734011173248">
        <ele>12.15</ele>
        <time>2017-07-02T03:18:13Z</time>
      </trkpt>
      <trkpt lat="59.195088967680931" lon="11.19856595993042">
        <ele>14.56</ele>
        <time>2017-07-02T03:18:20Z</time>
      </trkpt>
      <trkpt lat="59.193080998957157" lon="11.199442036449909">
        <ele>19.84</ele>
        <time>2017-07-02T03:18:27Z</time>
      </trkpt>
      <trkpt lat="59.189847009256482" lon="11.199570028111339">
        <ele>21.77</ele>
        <time>2017-07-02T03:18:38Z</time>
      </trkpt>
      <trkpt lat="59.186981990933418" lon="11.200148966163397">
        <ele>23.210000000000001</ele>
        <time>2017-07-02T03:18:48Z</time>
      </trkpt>
      <trkpt lat="59.18191303499043" lon="11.202577035874128">
        <ele>22.73</ele>
        <time>2017-07-02T03:19:06Z</time>
      </trkpt>
      <trkpt lat="59.180116038769484" lon="11.204380989074707">
        <ele>22.25</ele>
        <time>2017-07-02T03:19:13Z</time>
      </trkpt>
      <trkpt lat="59.176703011617064" lon="11.209023976698518">
        <ele>23.690000000000001</ele>
        <time>2017-07-02T03:19:27Z</time>
      </trkpt>
      <trkpt lat="59.173336001113057" lon="11.213085008785129">
        <ele>41.950000000000003</ele>
        <time>2017-07-02T03:19:40Z</time>
      </trkpt>
      <trkpt lat="59.170817993581295" lon="11.215059030801058">
        <ele>50.130000000000003</ele>
        <time>2017-07-02T03:19:49Z</time>
      </trkpt>
      <trkpt lat="59.166742041707039" lon="11.217770995572209">
        <ele>52.049999999999997</ele>
        <time>2017-07-02T03:20:03Z</time>
      </trkpt>
      <trkpt lat="59.163991017267108" lon="11.220659986138344">
        <ele>46.280000000000001</ele>
        <time>2017-07-02T03:20:13Z</time>
      </trkpt>
      <trkpt lat="59.159105960279703" lon="11.226401003077626">
        <ele>39.07</ele>
        <time>2017-07-02T03:20:32Z</time>
      </trkpt>
      <trkpt lat="59.15508097037673" lon="11.231610020622611">
        <ele>22.73</ele>
        <time>2017-07-02T03:20:48Z</time>
      </trkpt>
      <trkpt lat="59.152960013598204" lon="11.235619001090527">
        <ele>18.879999999999999</ele>
        <time>2017-07-02T03:20:58Z</time>
      </trkpt>
      <trkpt lat="59.150060964748263" lon="11.242227964103222">
        <ele>13.119999999999999</ele>
        <time>2017-07-02T03:21:13Z</time>
      </trkpt>
      <trkpt lat="59.146956978365779" lon="11.248443983495235">
        <ele>9.27</ele>
        <time>2017-07-02T03:21:28Z</time>
      </trkpt>
      <trkpt lat="59.144353978335857" lon="11.252230005338788">
        <ele>7.35</ele>
        <time>2017-07-02T03:21:39Z</time>
      </trkpt>
      <trkpt lat="59.141735974699259" lon="11.254781959578395">
        <ele>7.35</ele>
        <time>2017-07-02T03:21:49Z</time>
      </trkpt>
      <trkpt lat="59.138895012438297" lon="11.257811011746526">
        <ele>8.310000000000001</ele>
        <time>2017-07-02T03:22:00Z</time>
      </trkpt>
      <trkpt lat="59.135328009724617" lon="11.262711994349957">
        <ele>5.91</ele>
        <time>2017-07-02T03:22:15Z</time>
      </trkpt>
      <trkpt lat="59.130990039557219" lon="11.267235036939383">
        <ele>14.08</ele>
        <time>2017-07-02T03:22:32Z</time>
      </trkpt>
      <trkpt lat="59.127767030149698" lon="11.269822027534246">
        <ele>23.690000000000001</ele>
        <time>2017-07-02T03:22:44Z</time>
      </trkpt>
      <trkpt lat="59.125146009027958" lon="11.270600035786629">
        <ele>32.340000000000003</ele>
        <time>2017-07-02T03:22:53Z</time>
      </trkpt>
      <trkpt lat="59.122821036726236" lon="11.270471038296819">
        <ele>40.030000000000001</ele>
        <time>2017-07-02T03:23:01Z</time>
      </trkpt>
      <trkpt lat="59.120267992839217" lon="11.269408967345953">
        <ele>53.969999999999999</ele>
        <time>2017-07-02T03:23:11Z</time>
      </trkpt>
      <trkpt lat="59.117879988625646" lon="11.267440980300307">
        <ele>62.619999999999997</ele>
        <time>2017-07-02T03:23:21Z</time>
      </trkpt>
      <trkpt lat="59.115841006860137" lon="11.264880979433656">
        <ele>64.549999999999997</ele>
        <time>2017-07-02T03:23:30Z</time>
      </trkpt>
      <trkpt lat="59.113301038742065" lon="11.261306013911963">
        <ele>63.579999999999998</ele>
        <time>2017-07-02T03:23:42Z</time>
      </trkpt>
      <trkpt lat="59.110293025150895" lon="11.257172981277108">
        <ele>63.100000000000001</ele>
        <time>2017-07-02T03:23:58Z</time>
      </trkpt>
      <trkpt lat="59.108487982302904" lon="11.255580000579357">
        <ele>59.740000000000002</ele>
        <time>2017-07-02T03:24:06Z</time>
      </trkpt>
      <trkpt lat="59.106219001114368" lon="11.254595965147018">
        <ele>53.490000000000002</ele>
        <time>2017-07-02T03:24:15Z</time>
      </trkpt>
      <trkpt lat="59.104312034323812" lon="11.253275983035564">
        <ele>45.799999999999997</ele>
        <time>2017-07-02T03:24:23Z</time>
      </trkpt>
      <trkpt lat="59.101893017068505" lon="11.251026028767228">
        <ele>44.840000000000003</ele>
        <time>2017-07-02T03:24:34Z</time>
      </trkpt>
      <trkpt lat="59.10005503334105" lon="11.250380035489798">
        <ele>48.200000000000003</ele>
        <time>2017-07-02T03:24:42Z</time>
      </trkpt>
      <trkpt lat="59.097784962505102" lon="11.250656973570585">
        <ele>52.530000000000001</ele>
        <time>2017-07-02T03:24:52Z</time>
      </trkpt>
      <trkpt lat="59.093063017353415" lon="11.25199900008738">
        <ele>61.659999999999997</ele>
        <time>2017-07-02T03:25:14Z</time>
      </trkpt>
      <trkpt lat="59.090573005378246" lon="11.252188012003899">
        <ele>62.140000000000001</ele>
        <time>2017-07-02T03:25:25Z</time>
      </trkpt>
      <trkpt lat="59.088324978947639" lon="11.251373961567879">
        <ele>61.659999999999997</ele>
        <time>2017-07-02T03:25:36Z</time>
      </trkpt>
      <trkpt lat="59.086351962760091" lon="11.250430997461081">
        <ele>60.219999999999999</ele>
        <time>2017-07-02T03:25:47Z</time>
      </trkpt>
      <trkpt lat="59.083752986043692" lon="11.249579982832074">
        <ele>55.409999999999997</ele>
        <time>2017-07-02T03:26:02Z</time>
      </trkpt>
      <trkpt lat="59.080780008807778" lon="11.249262979254127">
        <ele>49.159999999999997</ele>
        <time>2017-07-02T03:26:17Z</time>
      </trkpt>
      <trkpt lat="59.07717696391046" lon="11.249256022274494">
        <ele>43.880000000000003</ele>
        <time>2017-07-02T03:26:34Z</time>
      </trkpt>
      <trkpt lat="59.074733974412084" lon="11.24862696044147">
        <ele>39.07</ele>
        <time>2017-07-02T03:26:45Z</time>
      </trkpt>
      <trkpt lat="59.071816988289356" lon="11.247061975300312">
        <ele>33.299999999999997</ele>
        <time>2017-07-02T03:26:58Z</time>
      </trkpt>
      <trkpt lat="59.069406017661095" lon="11.245825979858637">
        <ele>29.460000000000001</ele>
        <time>2017-07-02T03:27:07Z</time>
      </trkpt>
      <trkpt lat="59.066906031221151" lon="11.245525991544127">
        <ele>31.859999999999999</ele>
        <time>2017-07-02T03:27:16Z</time>
      </trkpt>
      <trkpt lat="59.064482990652323" lon="11.246234010905027">
        <ele>38.109999999999999</ele>
        <time>2017-07-02T03:27:25Z</time>
      </trkpt>
      <trkpt lat="59.061516970396042" lon="11.247774017974734">
        <ele>44.840000000000003</ele>
        <time>2017-07-02T03:27:36Z</time>
      </trkpt>
      <trkpt lat="59.058969039469957" lon="11.248145001009107">
        <ele>50.609999999999999</ele>
        <time>2017-07-02T03:27:45Z</time>
      </trkpt>
      <trkpt lat="59.056123970076442" lon="11.248677000403404">
        <ele>51.090000000000003</ele>
        <time>2017-07-02T03:27:55Z</time>
      </trkpt>
      <trkpt lat="59.053642004728317" lon="11.250320021063089">
        <ele>46.280000000000001</ele>
        <time>2017-07-02T03:28:04Z</time>
      </trkpt>
      <trkpt lat="59.051352990791202" lon="11.252983035519719">
        <ele>38.109999999999999</ele>
        <time>2017-07-02T03:28:13Z</time>
      </trkpt>
      <trkpt lat="59.048547986894846" lon="11.256150975823402">
        <ele>30.420000000000002</ele>
        <time>2017-07-02T03:28:24Z</time>
      </trkpt>
      <trkpt lat="59.046295015141368" lon="11.257432987913489">
        <ele>26.09</ele>
        <time>2017-07-02T03:28:32Z</time>
      </trkpt>
      <trkpt lat="59.04367902316153" lon="11.257806988433003">
        <ele>23.210000000000001</ele>
        <time>2017-07-02T03:28:41Z</time>
      </trkpt>
      <trkpt lat="59.041383974254131" lon="11.257150014862418">
        <ele>20.809999999999999</ele>
        <time>2017-07-02T03:28:49Z</time>
      </trkpt>
      <trkpt lat="59.038944002240896" lon="11.255383025854826">
        <ele>17.920000000000002</ele>
        <time>2017-07-02T03:28:58Z</time>
      </trkpt>
      <trkpt lat="59.036992024630308" lon="11.252960991114378">
        <ele>18.879999999999999</ele>
        <time>2017-07-02T03:29:06Z</time>
      </trkpt>
      <trkpt lat="59.034854974597692" lon="11.249160971492529">
        <ele>25.609999999999999</ele>
        <time>2017-07-02T03:29:16Z</time>
      </trkpt>
      <trkpt lat="59.032735023647547" lon="11.246180031448603">
        <ele>33.299999999999997</ele>
        <time>2017-07-02T03:29:25Z</time>
      </trkpt>
      <trkpt lat="59.029647968709469" lon="11.24327695928514">
        <ele>40.990000000000002</ele>
        <time>2017-07-02T03:29:37Z</time>
      </trkpt>
      <trkpt lat="59.025110006332397" lon="11.239868961274624">
        <ele>40.509999999999998</ele>
        <time>2017-07-02T03:29:54Z</time>
      </trkpt>
      <trkpt lat="59.022597027942538" lon="11.238672025501728">
        <ele>38.590000000000003</ele>
        <time>2017-07-02T03:30:03Z</time>
      </trkpt>
      <trkpt lat="59.02006602846086" lon="11.238565994426608">
        <ele>35.710000000000001</ele>
        <time>2017-07-02T03:30:12Z</time>
      </trkpt>
      <trkpt lat="59.015879016369581" lon="11.23925800435245">
        <ele>31.859999999999999</ele>
        <time>2017-07-02T03:30:27Z</time>
      </trkpt>
      <trkpt lat="59.013380035758018" lon="11.23865501023829">
        <ele>32.340000000000003</ele>
        <time>2017-07-02T03:30:36Z</time>
      </trkpt>
      <trkpt lat="59.011138966307044" lon="11.237117014825344">
        <ele>33.780000000000001</ele>
        <time>2017-07-02T03:30:44Z</time>
      </trkpt>
      <trkpt lat="59.008245030418038" lon="11.234273035079241">
        <ele>38.109999999999999</ele>
        <time>2017-07-02T03:30:55Z</time>
      </trkpt>
      <trkpt lat="59.00549903512001" lon="11.232484001666307">
        <ele>36.670000000000002</ele>
        <time>2017-07-02T03:31:05Z</time>
      </trkpt>
      <trkpt lat="59.002883965149522" lon="11.231829039752483">
        <ele>30.899999999999999</ele>
        <time>2017-07-02T03:31:14Z</time>
      </trkpt>
      <trkpt lat="58.999899001792073" lon="11.232030959799886">
        <ele>19.84</ele>
        <time>2017-07-02T03:31:24Z</time>
      </trkpt>
      <trkpt lat="58.996526040136814" lon="11.231801966205239">
        <ele>5.42</ele>
        <time>2017-07-02T03:31:35Z</time>
      </trkpt>
      <trkpt lat="58.993132039904594" lon="11.231060000136495">
        <ele>3.02</ele>
        <time>2017-07-02T03:31:46Z</time>
      </trkpt>
      <trkpt lat="58.990412028506398" lon="11.231451015919447">
        <ele>2.54</ele>
        <time>2017-07-02T03:31:55Z</time>
      </trkpt>
      <trkpt lat="58.987726969644427" lon="11.231159996241331">
        <ele>3.98</ele>
        <time>2017-07-02T03:32:04Z</time>
      </trkpt>
      <trkpt lat="58.985102009028196" lon="11.231067040935159">
        <ele>5.42</ele>
        <time>2017-07-02T03:32:13Z</time>
      </trkpt>
      <trkpt lat="58.982214024290442" lon="11.231901962310076">
        <ele>5.91</ele>
        <time>2017-07-02T03:32:23Z</time>
      </trkpt>
      <trkpt lat="58.978346027433872" lon="11.23236196115613">
        <ele>7.35</ele>
        <time>2017-07-02T03:32:36Z</time>
      </trkpt>
      <trkpt lat="58.974250964820385" lon="11.232016962021589">
        <ele>9.75</ele>
        <time>2017-07-02T03:32:50Z</time>
      </trkpt>
      <trkpt lat="58.969588028267026" lon="11.232222989201546">
        <ele>10.23</ele>
        <time>2017-07-02T03:33:06Z</time>
      </trkpt>
      <trkpt lat="58.964932970702648" lon="11.233384972438216">
        <ele>4.94</ele>
        <time>2017-07-02T03:33:22Z</time>
      </trkpt>
      <trkpt lat="58.96212000399828" lon="11.234785001724958">
        <ele>8.310000000000001</ele>
        <time>2017-07-02T03:33:32Z</time>
      </trkpt>
      <trkpt lat="58.960010027512908" lon="11.236840998753905">
        <ele>9.75</ele>
        <time>2017-07-02T03:33:40Z</time>
      </trkpt>
      <trkpt lat="58.957294961437583" lon="11.240614028647542">
        <ele>9.27</ele>
        <time>2017-07-02T03:33:51Z</time>
      </trkpt>
      <trkpt lat="58.953566020354629" lon="11.246748995035887">
        <ele>8.310000000000001</ele>
        <time>2017-07-02T03:34:07Z</time>
      </trkpt>
      <trkpt lat="58.950467985123396" lon="11.251421989873052">
        <ele>6.39</ele>
        <time>2017-07-02T03:34:20Z</time>
      </trkpt>
      <trkpt lat="58.947410015389323" lon="11.254768967628479">
        <ele>4.46</ele>
        <time>2017-07-02T03:34:32Z</time>
      </trkpt>
      <trkpt lat="58.945205993950367" lon="11.256204033270478">
        <ele>4.46</ele>
        <time>2017-07-02T03:34:40Z</time>
      </trkpt>
      <trkpt lat="58.942846991121769" lon="11.256753969937563">
        <ele>4.46</ele>
        <time>2017-07-02T03:34:48Z</time>
      </trkpt>
      <trkpt lat="58.939545024186373" lon="11.256372006610036">
        <ele>4.94</ele>
        <time>2017-07-02T03:34:59Z</time>
      </trkpt>
      <trkpt lat="58.934824001044035" lon="11.255346983671188">
        <ele>5.91</ele>
        <time>2017-07-02T03:35:15Z</time>
      </trkpt>
      <trkpt lat="58.930625002831221" lon="11.255150008946657">
        <ele>6.87</ele>
        <time>2017-07-02T03:35:29Z</time>
      </trkpt>
      <trkpt lat="58.92684300430119" lon="11.255690976977348">
        <ele>6.39</ele>
        <time>2017-07-02T03:35:42Z</time>
      </trkpt>
      <trkpt lat="58.923187991604209" lon="11.25685203820467">
        <ele>5.42</ele>
        <time>2017-07-02T03:35:55Z</time>
      </trkpt>
      <trkpt lat="58.919625012204051" lon="11.258846009150147">
        <ele>5.42</ele>
        <time>2017-07-02T03:36:08Z</time>
      </trkpt>
      <trkpt lat="58.91616202890873" lon="11.261744974181056">
        <ele>5.91</ele>
        <time>2017-07-02T03:36:21Z</time>
      </trkpt>
      <trkpt lat="58.913090983405709" lon="11.265145009383559">
        <ele>16.48</ele>
        <time>2017-07-02T03:36:33Z</time>
      </trkpt>
      <trkpt lat="58.910259995609522" lon="11.268207002431154">
        <ele>30.899999999999999</ele>
        <time>2017-07-02T03:36:44Z</time>
      </trkpt>
      <trkpt lat="58.907457003369927" lon="11.270086979493499">
        <ele>43.880000000000003</ele>
        <time>2017-07-02T03:36:54Z</time>
      </trkpt>
      <trkpt lat="58.904499029740691" lon="11.271050982177258">
        <ele>56.859999999999999</ele>
        <time>2017-07-02T03:37:04Z</time>
      </trkpt>
      <trkpt lat="58.901201002299786" lon="11.27118500880897">
        <ele>70.790000000000006</ele>
        <time>2017-07-02T03:37:15Z</time>
      </trkpt>
      <trkpt lat="58.897197972983122" lon="11.270573968067765">
        <ele>81.849999999999994</ele>
        <time>2017-07-02T03:37:28Z</time>
      </trkpt>
      <trkpt lat="58.893800033256412" lon="11.269157007336617">
        <ele>82.329999999999998</ele>
        <time>2017-07-02T03:37:39Z</time>
      </trkpt>
      <trkpt lat="58.891032999381423" lon="11.26789603382349">
        <ele>75.599999999999994</ele>
        <time>2017-07-02T03:37:48Z</time>
      </trkpt>
      <trkpt lat="58.888799976557493" lon="11.267937021329999">
        <ele>66.469999999999999</ele>
        <time>2017-07-02T03:37:55Z</time>
      </trkpt>
      <trkpt lat="58.886310970410705" lon="11.269123982638121">
        <ele>54.93</ele>
        <time>2017-07-02T03:38:03Z</time>
      </trkpt>
      <trkpt lat="58.884315993636847" lon="11.270993985235691">
        <ele>45.799999999999997</ele>
        <time>2017-07-02T03:38:10Z</time>
      </trkpt>
      <trkpt lat="58.881519036367536" lon="11.273624980822206">
        <ele>32.340000000000003</ele>
        <time>2017-07-02T03:38:20Z</time>
      </trkpt>
      <trkpt lat="58.878784021362662" lon="11.274948986247182">
        <ele>20.32</ele>
        <time>2017-07-02T03:38:29Z</time>
      </trkpt>
      <trkpt lat="58.875404018908739" lon="11.275520967319608">
        <ele>14.08</ele>
        <time>2017-07-02T03:38:40Z</time>
      </trkpt>
      <trkpt lat="58.872445961460471" lon="11.27524402923882">
        <ele>20.809999999999999</ele>
        <time>2017-07-02T03:38:50Z</time>
      </trkpt>
      <trkpt lat="58.869255976751447" lon="11.274141976609826">
        <ele>34.740000000000002</ele>
        <time>2017-07-02T03:39:01Z</time>
      </trkpt>
      <trkpt lat="58.866337984800339" lon="11.273491038009524">
        <ele>45.799999999999997</ele>
        <time>2017-07-02T03:39:11Z</time>
      </trkpt>
      <trkpt lat="58.863643035292625" lon="11.273939972743392">
        <ele>49.159999999999997</ele>
        <time>2017-07-02T03:39:20Z</time>
      </trkpt>
      <trkpt lat="58.86124899610877" lon="11.275204969570041">
        <ele>47.719999999999999</ele>
        <time>2017-07-02T03:39:28Z</time>
      </trkpt>
      <trkpt lat="58.857793975621462" lon="11.277969991788268">
        <ele>43.880000000000003</ele>
        <time>2017-07-02T03:39:40Z</time>
      </trkpt>
      <trkpt lat="58.853012016043067" lon="11.281056040897965">
        <ele>38.109999999999999</ele>
        <time>2017-07-02T03:39:56Z</time>
      </trkpt>
      <trkpt lat="58.848390989005566" lon="11.283078007400036">
        <ele>33.780000000000001</ele>
        <time>2017-07-02T03:40:11Z</time>
      </trkpt>
      <trkpt lat="58.845883961766958" lon="11.283077001571655">
        <ele>28.98</ele>
        <time>2017-07-02T03:40:19Z</time>
      </trkpt>
      <trkpt lat="58.843449018895626" lon="11.282039992511272">
        <ele>28.02</ele>
        <time>2017-07-02T03:40:27Z</time>
      </trkpt>
      <trkpt lat="58.841249020770192" lon="11.280093966051936">
        <ele>26.57</ele>
        <time>2017-07-02T03:40:35Z</time>
      </trkpt>
      <trkpt lat="58.838277971372008" lon="11.277004983276129">
        <ele>16.960000000000001</ele>
        <time>2017-07-02T03:40:46Z</time>
      </trkpt>
      <trkpt lat="58.83619699627161" lon="11.275995969772339">
        <ele>12.15</ele>
        <time>2017-07-02T03:40:53Z</time>
      </trkpt>
      <trkpt lat="58.834099005907774" lon="11.275893040001392">
        <ele>15.039999999999999</ele>
        <time>2017-07-02T03:41:00Z</time>
      </trkpt>
      <trkpt lat="58.831803034991026" lon="11.276765009388328">
        <ele>21.289999999999999</ele>
        <time>2017-07-02T03:41:08Z</time>
      </trkpt>
      <trkpt lat="58.828536020591855" lon="11.27911202609539">
        <ele>30.899999999999999</ele>
        <time>2017-07-02T03:41:20Z</time>
      </trkpt>
      <trkpt lat="58.824952002614737" lon="11.281686024740338">
        <ele>37.149999999999999</ele>
        <time>2017-07-02T03:41:33Z</time>
      </trkpt>
      <trkpt lat="58.821753971278667" lon="11.282864017412066">
        <ele>37.630000000000003</ele>
        <time>2017-07-02T03:41:44Z</time>
      </trkpt>
      <trkpt lat="58.819020967930555" lon="11.282901987433434">
        <ele>34.259999999999998</ele>
        <time>2017-07-02T03:41:53Z</time>
      </trkpt>
      <trkpt lat="58.815369978547096" lon="11.282090032473207">
        <ele>28.98</ele>
        <time>2017-07-02T03:42:05Z</time>
      </trkpt>
      <trkpt lat="58.812402030453086" lon="11.282190028578043">
        <ele>23.690000000000001</ele>
        <time>2017-07-02T03:42:15Z</time>
      </trkpt>
      <trkpt lat="58.808851037174463" lon="11.283040037378669">
        <ele>26.09</ele>
        <time>2017-07-02T03:42:27Z</time>
      </trkpt>
      <trkpt lat="58.805886022746563" lon="11.282927971333265">
        <ele>35.710000000000001</ele>
        <time>2017-07-02T03:42:37Z</time>
      </trkpt>
      <trkpt lat="58.803230971097946" lon="11.281795995309949">
        <ele>45.32</ele>
        <time>2017-07-02T03:42:46Z</time>
      </trkpt>
      <trkpt lat="58.799849962815642" lon="11.279278993606567">
        <ele>58.780000000000001</ele>
        <time>2017-07-02T03:42:58Z</time>
      </trkpt>
      <trkpt lat="58.797557009384036" lon="11.27803897485137">
        <ele>67.909999999999997</ele>
        <time>2017-07-02T03:43:06Z</time>
      </trkpt>
      <trkpt lat="58.794844038784504" lon="11.277671009302139">
        <ele>74.640000000000001</ele>
        <time>2017-07-02T03:43:15Z</time>
      </trkpt>
      <trkpt lat="58.792081028223038" lon="11.278406018391252">
        <ele>78</ele>
        <time>2017-07-02T03:43:24Z</time>
      </trkpt>
      <trkpt lat="58.789648013189435" lon="11.278864005580544">
        <ele>78</ele>
        <time>2017-07-02T03:43:32Z</time>
      </trkpt>
      <trkpt lat="58.786903023719788" lon="11.278277020901442">
        <ele>75.120000000000005</ele>
        <time>2017-07-02T03:43:41Z</time>
      </trkpt>
      <trkpt lat="58.784240009263158" lon="11.276844972744584">
        <ele>67.909999999999997</ele>
        <time>2017-07-02T03:43:50Z</time>
      </trkpt>
      <trkpt lat="58.780433032661676" lon="11.274372981861234">
        <ele>58.780000000000001</ele>
        <time>2017-07-02T03:44:03Z</time>
      </trkpt>
      <trkpt lat="58.777143973857164" lon="11.273263972252607">
        <ele>49.159999999999997</ele>
        <time>2017-07-02T03:44:14Z</time>
      </trkpt>
      <trkpt lat="58.774111988022923" lon="11.27316196449101">
        <ele>46.759999999999998</ele>
        <time>2017-07-02T03:44:24Z</time>
      </trkpt>
      <trkpt lat="58.77180696465075" lon="11.274095959961414">
        <ele>47.719999999999999</ele>
        <time>2017-07-02T03:44:32Z</time>
      </trkpt>
      <trkpt lat="58.769279988482594" lon="11.275878958404064">
        <ele>42.439999999999998</ele>
        <time>2017-07-02T03:44:41Z</time>
      </trkpt>
      <trkpt lat="58.766611022874713" lon="11.276973970234394">
        <ele>39.07</ele>
        <time>2017-07-02T03:44:50Z</time>
      </trkpt>
      <trkpt lat="58.763283994048834" lon="11.277547040954232">
        <ele>36.670000000000002</ele>
        <time>2017-07-02T03:45:01Z</time>
      </trkpt>
      <trkpt lat="58.759965011849999" lon="11.278765015304089">
        <ele>41.950000000000003</ele>
        <time>2017-07-02T03:45:12Z</time>
      </trkpt>
      <trkpt lat="58.756716018542647" lon="11.280855964869261">
        <ele>49.159999999999997</ele>
        <time>2017-07-02T03:45:23Z</time>
      </trkpt>
      <trkpt lat="58.754260037094355" lon="11.283496012911201">
        <ele>52.049999999999997</ele>
        <time>2017-07-02T03:45:32Z</time>
      </trkpt>
      <trkpt lat="58.75206196680665" lon="11.286964025348425">
        <ele>49.159999999999997</ele>
        <time>2017-07-02T03:45:41Z</time>
      </trkpt>
      <trkpt lat="58.748786989599466" lon="11.292972005903721">
        <ele>43.399999999999999</ele>
        <time>2017-07-02T03:45:55Z</time>
      </trkpt>
      <trkpt lat="58.745708987116814" lon="11.297330008819699">
        <ele>49.159999999999997</ele>
        <time>2017-07-02T03:46:07Z</time>
      </trkpt>
      <trkpt lat="58.742430992424488" lon="11.30092098377645">
        <ele>53.969999999999999</ele>
        <time>2017-07-02T03:46:19Z</time>
      </trkpt>
      <trkpt lat="58.738753013312817" lon="11.303880969062448">
        <ele>40.990000000000002</ele>
        <time>2017-07-02T03:46:32Z</time>
      </trkpt>
      <trkpt lat="58.7369130179286" lon="11.305720964446664">
        <ele>29.460000000000001</ele>
        <time>2017-07-02T03:46:39Z</time>
      </trkpt>
      <trkpt lat="58.735450962558389" lon="11.308529991656542">
        <ele>17.920000000000002</ele>
        <time>2017-07-02T03:46:46Z</time>
      </trkpt>
      <trkpt lat="58.734464999288321" lon="11.312151979655027">
        <ele>13.6</ele>
        <time>2017-07-02T03:46:53Z</time>
      </trkpt>
      <trkpt lat="58.733922019600868" lon="11.316122990101576">
        <ele>12.630000000000001</ele>
        <time>2017-07-02T03:47:00Z</time>
      </trkpt>
      <trkpt lat="58.733777012676001" lon="11.321249026805162">
        <ele>11.67</ele>
        <time>2017-07-02T03:47:09Z</time>
      </trkpt>
      <trkpt lat="58.733365964144468" lon="11.325639970600605">
        <ele>14.08</ele>
        <time>2017-07-02T03:47:17Z</time>
      </trkpt>
      <trkpt lat="58.732510004192591" lon="11.329233963042498">
        <ele>22.73</ele>
        <time>2017-07-02T03:47:24Z</time>
      </trkpt>
      <trkpt lat="58.730602031573653" lon="11.335847033187747">
        <ele>35.229999999999997</ele>
        <time>2017-07-02T03:47:37Z</time>
      </trkpt>
      <trkpt lat="58.728447966277599" lon="11.341387974098325">
        <ele>36.670000000000002</ele>
        <time>2017-07-02T03:47:49Z</time>
      </trkpt>
      <trkpt lat="58.725465014576912" lon="11.347615979611874">
        <ele>38.590000000000003</ele>
        <time>2017-07-02T03:48:04Z</time>
      </trkpt>
      <trkpt lat="58.723220005631447" lon="11.351035963743925">
        <ele>41.469999999999999</ele>
        <time>2017-07-02T03:48:14Z</time>
      </trkpt>
      <trkpt lat="58.721405994147062" lon="11.352565996348858">
        <ele>42.920000000000002</ele>
        <time>2017-07-02T03:48:21Z</time>
      </trkpt>
      <trkpt lat="58.720076037570834" lon="11.353226993232965">
        <ele>43.399999999999999</ele>
        <time>2017-07-02T03:48:27Z</time>
      </trkpt>
      <trkpt lat="58.719312027096748" lon="11.353318020701408">
        <ele>43.880000000000003</ele>
        <time>2017-07-02T03:48:32Z</time>
      </trkpt>
      <trkpt lat="58.719195015728474" lon="11.353270998224616">
        <ele>43.880000000000003</ele>
        <time>2017-07-02T03:48:33Z</time>
      </trkpt>
      <trkpt lat="58.719076998531818" lon="11.35319396853447">
        <ele>44.359999999999999</ele>
        <time>2017-07-02T03:48:34Z</time>
      </trkpt>
      <trkpt lat="58.718965016305447" lon="11.35308600962162">
        <ele>44.359999999999999</ele>
        <time>2017-07-02T03:48:35Z</time>
      </trkpt>
      <trkpt lat="58.718862002715468" lon="11.352943014353514">
        <ele>44.359999999999999</ele>
        <time>2017-07-02T03:48:36Z</time>
      </trkpt>
      <trkpt lat="58.718774998560548" lon="11.352768000215292">
        <ele>44.359999999999999</ele>
        <time>2017-07-02T03:48:37Z</time>
      </trkpt>
      <trkpt lat="58.718705009669065" lon="11.352559039369226">
        <ele>44.359999999999999</ele>
        <time>2017-07-02T03:48:38Z</time>
      </trkpt>
      <trkpt lat="58.718656981363893" lon="11.352325016632676">
        <ele>44.359999999999999</ele>
        <time>2017-07-02T03:48:39Z</time>
      </trkpt>
      <trkpt lat="58.718635020777583" lon="11.352072972804308">
        <ele>44.359999999999999</ele>
        <time>2017-07-02T03:48:40Z</time>
      </trkpt>
      <trkpt lat="58.718642983585596" lon="11.351823024451733">
        <ele>44.359999999999999</ele>
        <time>2017-07-02T03:48:41Z</time>
      </trkpt>
      <trkpt lat="58.718682965263724" lon="11.351576009765267">
        <ele>44.359999999999999</ele>
        <time>2017-07-02T03:48:42Z</time>
      </trkpt>
      <trkpt lat="58.718747003003955" lon="11.351352967321873">
        <ele>44.840000000000003</ele>
        <time>2017-07-02T03:48:43Z</time>
      </trkpt>
      <trkpt lat="58.718830989673734" lon="11.35115398094058">
        <ele>44.840000000000003</ele>
        <time>2017-07-02T03:48:44Z</time>
      </trkpt>
      <trkpt lat="58.718938026577234" lon="11.3510010112077">
        <ele>44.840000000000003</ele>
        <time>2017-07-02T03:48:45Z</time>
      </trkpt>
      <trkpt lat="58.719057971611619" lon="11.35089498013258">
        <ele>45.799999999999997</ele>
        <time>2017-07-02T03:48:46Z</time>
      </trkpt>
      <trkpt lat="58.719182023778558" lon="11.35080898180604">
        <ele>46.280000000000001</ele>
        <time>2017-07-02T03:48:47Z</time>
      </trkpt>
      <trkpt lat="58.719304986298084" lon="11.350736981257796">
        <ele>46.280000000000001</ele>
        <time>2017-07-02T03:48:48Z</time>
      </trkpt>
      <trkpt lat="58.719688961282372" lon="11.350579988211393">
        <ele>48.200000000000003</ele>
        <time>2017-07-02T03:48:52Z</time>
      </trkpt>
      <trkpt lat="58.719749981537461" lon="11.350583005696535">
        <ele>48.200000000000003</ele>
        <time>2017-07-02T03:48:53Z</time>
      </trkpt>
      <trkpt lat="58.719803960993886" lon="11.350606977939606">
        <ele>48.68</ele>
        <time>2017-07-02T03:48:54Z</time>
      </trkpt>
      <trkpt lat="58.719948967918754" lon="11.350649977102876">
        <ele>48.68</ele>
        <time>2017-07-02T03:48:57Z</time>
      </trkpt>
      <trkpt lat="58.719994984567165" lon="11.35061401873827">
        <ele>48.68</ele>
        <time>2017-07-02T03:48:58Z</time>
      </trkpt>
      <trkpt lat="58.720518015325069" lon="11.350297015160322">
        <ele>47.240000000000002</ele>
        <time>2017-07-02T03:49:06Z</time>
      </trkpt>
      <trkpt lat="58.720568977296352" lon="11.350312018766999">
        <ele>47.240000000000002</ele>
        <time>2017-07-02T03:49:07Z</time>
      </trkpt>
      <trkpt lat="58.720608036965132" lon="11.350360969081521">
        <ele>47.240000000000002</ele>
        <time>2017-07-02T03:49:08Z</time>
      </trkpt>
      <trkpt lat="58.720623962581158" lon="11.350425006821752">
        <ele>46.759999999999998</ele>
        <time>2017-07-02T03:49:09Z</time>
      </trkpt>
      <trkpt lat="58.720628991723061" lon="11.350479992106557">
        <ele>46.759999999999998</ele>
        <time>2017-07-02T03:49:10Z</time>
      </trkpt>
      <trkpt lat="58.720634020864964" lon="11.350533971562982">
        <ele>46.759999999999998</ele>
        <time>2017-07-02T03:49:11Z</time>
      </trkpt>
      <trkpt lat="58.720646006986499" lon="11.350589962676167">
        <ele>46.280000000000001</ele>
        <time>2017-07-02T03:49:12Z</time>
      </trkpt>
      <trkpt lat="58.720672996714711" lon="11.350646959617734">
        <ele>46.280000000000001</ele>
        <time>2017-07-02T03:49:13Z</time>
      </trkpt>
      <trkpt lat="58.720712978392839" lon="11.350693982094526">
        <ele>45.799999999999997</ele>
        <time>2017-07-02T03:49:14Z</time>
      </trkpt>
      <trkpt lat="58.720764024183154" lon="11.350731030106544">
        <ele>45.32</ele>
        <time>2017-07-02T03:49:15Z</time>
      </trkpt>
      <trkpt lat="58.720818003639579" lon="11.350751984864473">
        <ele>44.840000000000003</ele>
        <time>2017-07-02T03:49:16Z</time>
      </trkpt>
      <trkpt lat="58.720872988924384" lon="11.350756008177996">
        <ele>44.359999999999999</ele>
        <time>2017-07-02T03:49:17Z</time>
      </trkpt>
      <trkpt lat="58.720924034714699" lon="11.350747961550951">
        <ele>43.880000000000003</ele>
        <time>2017-07-02T03:49:18Z</time>
      </trkpt>
      <trkpt lat="58.720968039706349" lon="11.350724995136261">
        <ele>43.880000000000003</ele>
        <time>2017-07-02T03:49:19Z</time>
      </trkpt>
      <trkpt lat="58.721002992242575" lon="11.350665986537933">
        <ele>43.880000000000003</ele>
        <time>2017-07-02T03:49:20Z</time>
      </trkpt>
      <trkpt lat="58.721022019162774" lon="11.350599015131593">
        <ele>43.880000000000003</ele>
        <time>2017-07-02T03:49:21Z</time>
      </trkpt>
      <trkpt lat="58.721024030819535" lon="11.35052902624011">
        <ele>44.359999999999999</ele>
        <time>2017-07-02T03:49:22Z</time>
      </trkpt>
      <trkpt lat="58.721019001677632" lon="11.350467000156641">
        <ele>44.359999999999999</ele>
        <time>2017-07-02T03:49:23Z</time>
      </trkpt>
      <trkpt lat="58.721006009727716" lon="11.350420983508229">
        <ele>44.840000000000003</ele>
        <time>2017-07-02T03:49:24Z</time>
      </trkpt>
      <trkpt lat="58.720986982807517" lon="11.350384019315243">
        <ele>45.32</ele>
        <time>2017-07-02T03:49:25Z</time>
      </trkpt>
      <trkpt lat="58.720974996685982" lon="11.350362980738282">
        <ele>45.32</ele>
        <time>2017-07-02T03:49:26Z</time>
      </trkpt>
      <trkpt lat="58.720965022221208" lon="11.350353006273508">
        <ele>44.840000000000003</ele>
        <time>2017-07-02T03:49:44Z</time>
      </trkpt>
      <trkpt lat="58.720963010564446" lon="11.350354012101889">
        <ele>44.840000000000003</ele>
        <time>2017-07-02T03:51:43Z</time>
      </trkpt>
      <trkpt lat="58.720939038321376" lon="11.350321993231773">
        <ele>52.530000000000001</ele>
        <time>2017-07-02T03:55:44Z</time>
      </trkpt>
      <trkpt lat="58.720972985029221" lon="11.350363986566663">
        <ele>47.719999999999999</ele>
        <time>2017-07-02T03:56:23Z</time>
      </trkpt>
      <trkpt lat="58.72092898003757" lon="11.350304977968335">
        <ele>47.719999999999999</ele>
        <time>2017-07-02T03:56:25Z</time>
      </trkpt>
      <trkpt lat="58.720873994752765" lon="11.350264996290207">
        <ele>48.68</ele>
        <time>2017-07-02T03:56:26Z</time>
      </trkpt>
      <trkpt lat="58.720797970890999" lon="11.350238006561995">
        <ele>48.68</ele>
        <time>2017-07-02T03:56:27Z</time>
      </trkpt>
      <trkpt lat="58.720722030848265" lon="11.350232977420092">
        <ele>49.159999999999997</ele>
        <time>2017-07-02T03:56:28Z</time>
      </trkpt>
      <trkpt lat="58.720651958137751" lon="11.350235994905233">
        <ele>49.649999999999999</ele>
        <time>2017-07-02T03:56:29Z</time>
      </trkpt>
      <trkpt lat="58.720194976776838" lon="11.350304977968335">
        <ele>50.130000000000003</ele>
        <time>2017-07-02T03:56:35Z</time>
      </trkpt>
      <trkpt lat="58.720120964571834" lon="11.35027103126049">
        <ele>50.609999999999999</ele>
        <time>2017-07-02T03:56:36Z</time>
      </trkpt>
      <trkpt lat="58.720047036185861" lon="11.350210011005402">
        <ele>50.609999999999999</ele>
        <time>2017-07-02T03:56:37Z</time>
      </trkpt>
      <trkpt lat="58.719883002340794" lon="11.350170029327273">
        <ele>50.609999999999999</ele>
        <time>2017-07-02T03:56:39Z</time>
      </trkpt>
      <trkpt lat="58.719786023721099" lon="11.350226020440459">
        <ele>50.130000000000003</ele>
        <time>2017-07-02T03:56:40Z</time>
      </trkpt>
      <trkpt lat="58.71884398162365" lon="11.350933033972979">
        <ele>45.799999999999997</ele>
        <time>2017-07-02T03:56:47Z</time>
      </trkpt>
      <trkpt lat="58.718720013275743" lon="11.351107964292169">
        <ele>45.32</ele>
        <time>2017-07-02T03:56:48Z</time>
      </trkpt>
      <trkpt lat="58.718615993857384" lon="11.351321032270789">
        <ele>45.32</ele>
        <time>2017-07-02T03:56:49Z</time>
      </trkpt>
      <trkpt lat="58.718525972217321" lon="11.351577015593648">
        <ele>45.32</ele>
        <time>2017-07-02T03:56:50Z</time>
      </trkpt>
      <trkpt lat="58.71845698915422" lon="11.351859988644719">
        <ele>44.840000000000003</ele>
        <time>2017-07-02T03:56:51Z</time>
      </trkpt>
      <trkpt lat="58.718408960849047" lon="11.352168023586273">
        <ele>44.840000000000003</ele>
        <time>2017-07-02T03:56:52Z</time>
      </trkpt>
      <trkpt lat="58.718365961685777" lon="11.352460971102118">
        <ele>44.840000000000003</ele>
        <time>2017-07-02T03:56:53Z</time>
      </trkpt>
      <trkpt lat="58.718319023028016" lon="11.352732041850686">
        <ele>44.840000000000003</ele>
        <time>2017-07-02T03:56:54Z</time>
      </trkpt>
      <trkpt lat="58.718256996944547" lon="11.35297603905201">
        <ele>44.840000000000003</ele>
        <time>2017-07-02T03:56:55Z</time>
      </trkpt>
      <trkpt lat="58.718173010274768" lon="11.353187011554837">
        <ele>44.840000000000003</ele>
        <time>2017-07-02T03:56:56Z</time>
      </trkpt>
      <trkpt lat="58.718068990856409" lon="11.353355990722775">
        <ele>45.32</ele>
        <time>2017-07-02T03:56:57Z</time>
      </trkpt>
      <trkpt lat="58.717939993366599" lon="11.353484988212585">
        <ele>45.32</ele>
        <time>2017-07-02T03:56:58Z</time>
      </trkpt>
      <trkpt lat="58.717799009755254" lon="11.353585990145802">
        <ele>45.32</ele>
        <time>2017-07-02T03:56:59Z</time>
      </trkpt>
      <trkpt lat="58.717654002830386" lon="11.353632006794214">
        <ele>45.799999999999997</ele>
        <time>2017-07-02T03:57:00Z</time>
      </trkpt>
      <trkpt lat="58.717493992298841" lon="11.35364499874413">
        <ele>45.799999999999997</ele>
        <time>2017-07-02T03:57:01Z</time>
      </trkpt>
      <trkpt lat="58.716119024902582" lon="11.353871980682015">
        <ele>49.649999999999999</ele>
        <time>2017-07-02T03:57:08Z</time>
      </trkpt>
      <trkpt lat="58.714196970686316" lon="11.354665998369455">
        <ele>53.009999999999998</ele>
        <time>2017-07-02T03:57:16Z</time>
      </trkpt>
      <trkpt lat="58.71250499971211" lon="11.356069967150688">
        <ele>52.530000000000001</ele>
        <time>2017-07-02T03:57:23Z</time>
      </trkpt>
      <trkpt lat="58.710789978504181" lon="11.358642037957907">
        <ele>47.719999999999999</ele>
        <time>2017-07-02T03:57:31Z</time>
      </trkpt>
      <trkpt lat="58.70945599861443" lon="11.362175010144711">
        <ele>39.07</ele>
        <time>2017-07-02T03:57:39Z</time>
      </trkpt>
      <trkpt lat="58.708712020888925" lon="11.365793980658054">
        <ele>28.5</ele>
        <time>2017-07-02T03:57:46Z</time>
      </trkpt>
      <trkpt lat="58.708339026197791" lon="11.370094986632466">
        <ele>22.73</ele>
        <time>2017-07-02T03:57:54Z</time>
      </trkpt>
      <trkpt lat="58.707846002653241" lon="11.374108996242285">
        <ele>25.609999999999999</ele>
        <time>2017-07-02T03:58:02Z</time>
      </trkpt>
      <trkpt lat="58.705363031476736" lon="11.381963007152081">
        <ele>42.920000000000002</ele>
        <time>2017-07-02T03:58:20Z</time>
      </trkpt>
      <trkpt lat="58.703496968373656" lon="11.385467983782291">
        <ele>59.259999999999998</ele>
        <time>2017-07-02T03:58:29Z</time>
      </trkpt>
      <trkpt lat="58.70116101577878" lon="11.388651011511683">
        <ele>74.159999999999997</ele>
        <time>2017-07-02T03:58:39Z</time>
      </trkpt>
      <trkpt lat="58.698618030175567" lon="11.391090983524919">
        <ele>87.620000000000005</ele>
        <time>2017-07-02T03:58:49Z</time>
      </trkpt>
      <trkpt lat="58.695764997974038" lon="11.393727008253336">
        <ele>93.390000000000001</ele>
        <time>2017-07-02T03:59:00Z</time>
      </trkpt>
      <trkpt lat="58.693350004032254" lon="11.396965021267533">
        <ele>89.540000000000006</ele>
        <time>2017-07-02T03:59:10Z</time>
      </trkpt>
      <trkpt lat="58.691907981410623" lon="11.399919977411628">
        <ele>83.769999999999996</ele>
        <time>2017-07-02T03:59:17Z</time>
      </trkpt>
      <trkpt lat="58.689597006887197" lon="11.404834035784006">
        <ele>72.719999999999999</ele>
        <time>2017-07-02T03:59:28Z</time>
      </trkpt>
      <trkpt lat="58.687801016494632" lon="11.407150961458683">
        <ele>71.760000000000005</ele>
        <time>2017-07-02T03:59:35Z</time>
      </trkpt>
      <trkpt lat="58.685636976733804" lon="11.408933037891984">
        <ele>74.159999999999997</ele>
        <time>2017-07-02T03:59:43Z</time>
      </trkpt>
      <trkpt lat="58.683367995545268" lon="11.409812970086932">
        <ele>75.599999999999994</ele>
        <time>2017-07-02T03:59:51Z</time>
      </trkpt>
      <trkpt lat="58.680792991071939" lon="11.409729989245534">
        <ele>76.560000000000002</ele>
        <time>2017-07-02T04:00:00Z</time>
      </trkpt>
      <trkpt lat="58.67757199332118" lon="11.408953992649913">
        <ele>82.810000000000002</ele>
        <time>2017-07-02T04:00:11Z</time>
      </trkpt>
      <trkpt lat="58.675515996292233" lon="11.409392030909657">
        <ele>86.180000000000007</ele>
        <time>2017-07-02T04:00:18Z</time>
      </trkpt>
      <trkpt lat="58.673539040610194" lon="11.410715030506253">
        <ele>89.060000000000002</ele>
        <time>2017-07-02T04:00:25Z</time>
      </trkpt>
      <trkpt lat="58.670948026701808" lon="11.412244979292154">
        <ele>93.390000000000001</ele>
        <time>2017-07-02T04:00:34Z</time>
      </trkpt>
      <trkpt lat="58.668250981718302" lon="11.412695003673434">
        <ele>98.670000000000002</ele>
        <time>2017-07-02T04:00:43Z</time>
      </trkpt>
      <trkpt lat="58.666191967204213" lon="11.413469994440675">
        <ele>102.04000000000001</ele>
        <time>2017-07-02T04:00:50Z</time>
      </trkpt>
      <trkpt lat="58.664267985150218" lon="11.415193984284997">
        <ele>101.08</ele>
        <time>2017-07-02T04:00:57Z</time>
      </trkpt>
      <trkpt lat="58.661978971213102" lon="11.418429985642433">
        <ele>94.349999999999994</ele>
        <time>2017-07-02T04:01:06Z</time>
      </trkpt>
      <trkpt lat="58.658540965989232" lon="11.423735981807113">
        <ele>95.310000000000002</ele>
        <time>2017-07-02T04:01:20Z</time>
      </trkpt>
      <trkpt lat="58.655069014057517" lon="11.429025968536735">
        <ele>105.88</ele>
        <time>2017-07-02T04:01:35Z</time>
      </trkpt>
    </trkseg>
  </trk>

  <trk>
    <name>Track vom: 02 Jul 2017 06:01</name>
    <extensions>
      <gpxx:TrackExtension>
        <gpxx:DisplayColor>DarkGray</gpxx:DisplayColor>
      </gpxx:TrackExtension>
    </extensions>
    <trkseg>
      <trkpt lat="58.653618022799492" lon="11.430930001661181">
        <ele>108.29000000000001</ele>
        <time>2017-07-02T04:01:41Z</time>
      </trkpt>
      <trkpt lat="58.651244016364217" lon="11.433286992833018">
        <ele>110.20999999999999</ele>
        <time>2017-07-02T04:01:50Z</time>
      </trkpt>
      <trkpt lat="58.648881996050477" lon="11.434487029910088">
        <ele>104.92</ele>
        <time>2017-07-02T04:01:58Z</time>
      </trkpt>
      <trkpt lat="58.646054025739431" lon="11.434819959104061">
        <ele>93.870000000000005</ele>
        <time>2017-07-02T04:02:07Z</time>
      </trkpt>
      <trkpt lat="58.63906997255981" lon="11.43517903983593">
        <ele>72.719999999999999</ele>
        <time>2017-07-02T04:02:29Z</time>
      </trkpt>
      <trkpt lat="58.636702001094818" lon="11.436136001721025">
        <ele>68.390000000000001</ele>
        <time>2017-07-02T04:02:37Z</time>
      </trkpt>
      <trkpt lat="58.63453502766788" lon="11.438125027343631">
        <ele>61.18</ele>
        <time>2017-07-02T04:02:45Z</time>
      </trkpt>
      <trkpt lat="58.631804035976529" lon="11.441915994510055">
        <ele>54.450000000000003</ele>
        <time>2017-07-02T04:02:56Z</time>
      </trkpt>
      <trkpt lat="58.628865005448461" lon="11.445691036060452">
        <ele>71.760000000000005</ele>
        <time>2017-07-02T04:03:08Z</time>
      </trkpt>
      <trkpt lat="58.626725021749735" lon="11.447131969034672">
        <ele>79.930000000000007</ele>
        <time>2017-07-02T04:03:16Z</time>
      </trkpt>
      <trkpt lat="58.624404994770885" lon="11.447629015892744">
        <ele>82.810000000000002</ele>
        <time>2017-07-02T04:03:24Z</time>
      </trkpt>
      <trkpt lat="58.62205496057868" lon="11.44839696586132">
        <ele>78.480000000000004</ele>
        <time>2017-07-02T04:03:32Z</time>
      </trkpt>
      <trkpt lat="58.620395008474588" lon="11.449880981817842">
        <ele>74.159999999999997</ele>
        <time>2017-07-02T04:03:38Z</time>
      </trkpt>
      <trkpt lat="58.617120031267405" lon="11.453392999246716">
        <ele>75.599999999999994</ele>
        <time>2017-07-02T04:03:50Z</time>
      </trkpt>
      <trkpt lat="58.614994967356324" lon="11.454531010240316">
        <ele>79.450000000000003</ele>
        <time>2017-07-02T04:03:57Z</time>
      </trkpt>
      <trkpt lat="58.611854016780853" lon="11.455038031563163">
        <ele>78.969999999999999</ele>
        <time>2017-07-02T04:04:07Z</time>
      </trkpt>
      <trkpt lat="58.606076035648584" lon="11.45544296130538">
        <ele>76.079999999999998</ele>
        <time>2017-07-02T04:04:25Z</time>
      </trkpt>
      <trkpt lat="58.599683996289968" lon="11.455962974578142">
        <ele>85.209999999999994</ele>
        <time>2017-07-02T04:04:45Z</time>
      </trkpt>
      <trkpt lat="58.595142010599375" lon="11.455974038690329">
        <ele>88.579999999999998</ele>
        <time>2017-07-02T04:04:59Z</time>
      </trkpt>
      <trkpt lat="58.592550996690989" lon="11.454953961074352">
        <ele>82.810000000000002</ele>
        <time>2017-07-02T04:05:07Z</time>
      </trkpt>
      <trkpt lat="58.589735012501478" lon="11.453731041401625">
        <ele>70.310000000000002</ele>
        <time>2017-07-02T04:05:16Z</time>
      </trkpt>
      <trkpt lat="58.586255013942719" lon="11.452553970739245">
        <ele>54.93</ele>
        <time>2017-07-02T04:05:27Z</time>
      </trkpt>
      <trkpt lat="58.583454033359885" lon="11.451126029714942">
        <ele>45.799999999999997</ele>
        <time>2017-07-02T04:05:36Z</time>
      </trkpt>
      <trkpt lat="58.580873999744654" lon="11.450923020020127">
        <ele>46.280000000000001</ele>
        <time>2017-07-02T04:05:44Z</time>
      </trkpt>
      <trkpt lat="58.578302012756467" lon="11.451893979683518">
        <ele>47.719999999999999</ele>
        <time>2017-07-02T04:05:52Z</time>
      </trkpt>
      <trkpt lat="58.575303973630071" lon="11.45410998724401">
        <ele>51.090000000000003</ele>
        <time>2017-07-02T04:06:02Z</time>
      </trkpt>
      <trkpt lat="58.572177020832896" lon="11.457404997199774">
        <ele>59.259999999999998</ele>
        <time>2017-07-02T04:06:13Z</time>
      </trkpt>
      <trkpt lat="58.569291969761252" lon="11.461453037336469">
        <ele>57.340000000000003</ele>
        <time>2017-07-02T04:06:24Z</time>
      </trkpt>
      <trkpt lat="58.567439988255501" lon="11.465025991201401">
        <ele>49.159999999999997</ele>
        <time>2017-07-02T04:06:32Z</time>
      </trkpt>
      <trkpt lat="58.566226037219167" lon="11.468832967802882">
        <ele>40.030000000000001</ele>
        <time>2017-07-02T04:06:39Z</time>
      </trkpt>
      <trkpt lat="58.565004961565137" lon="11.474110968410969">
        <ele>29.460000000000001</ele>
        <time>2017-07-02T04:06:48Z</time>
      </trkpt>
      <trkpt lat="58.56369998306036" lon="11.478510964661837">
        <ele>22.25</ele>
        <time>2017-07-02T04:06:56Z</time>
      </trkpt>
      <trkpt lat="58.561478024348617" lon="11.483811009675264">
        <ele>24.170000000000002</ele>
        <time>2017-07-02T04:07:07Z</time>
      </trkpt>
      <trkpt lat="58.559205019846559" lon="11.488356012851">
        <ele>29.940000000000001</ele>
        <time>2017-07-02T04:07:17Z</time>
      </trkpt>
      <trkpt lat="58.556019980460405" lon="11.494851987808943">
        <ele>29.940000000000001</ele>
        <time>2017-07-02T04:07:31Z</time>
      </trkpt>
      <trkpt lat="58.553031999617815" lon="11.501890020444989">
        <ele>22.73</ele>
        <time>2017-07-02T04:07:45Z</time>
      </trkpt>
      <trkpt lat="58.549224017187953" lon="11.509588966146111">
        <ele>26.57</ele>
        <time>2017-07-02T04:08:01Z</time>
      </trkpt>
      <trkpt lat="58.544924017041922" lon="11.517028994858265">
        <ele>19.84</ele>
        <time>2017-07-02T04:08:18Z</time>
      </trkpt>
      <trkpt lat="58.542866008356214" lon="11.521219024434686">
        <ele>16.960000000000001</ele>
        <time>2017-07-02T04:08:27Z</time>
      </trkpt>
      <trkpt lat="58.540829038247466" lon="11.525134965777397">
        <ele>16</ele>
        <time>2017-07-02T04:08:36Z</time>
      </trkpt>
      <trkpt lat="58.538726018741727" lon="11.527765961363912">
        <ele>15.039999999999999</ele>
        <time>2017-07-02T04:08:44Z</time>
      </trkpt>
      <trkpt lat="58.535844990983605" lon="11.531487023457885">
        <ele>11.67</ele>
        <time>2017-07-02T04:08:55Z</time>
      </trkpt>
      <trkpt lat="58.531033024191856" lon="11.538211992010474">
        <ele>14.08</ele>
        <time>2017-07-02T04:09:14Z</time>
      </trkpt>
      <trkpt lat="58.526575025171041" lon="11.544156018644571">
        <ele>17.440000000000001</ele>
        <time>2017-07-02T04:09:31Z</time>
      </trkpt>
      <trkpt lat="58.523978982120752" lon="11.546300025656819">
        <ele>16</ele>
        <time>2017-07-02T04:09:40Z</time>
      </trkpt>
      <trkpt lat="58.51853602565825" lon="11.549927964806557">
        <ele>14.56</ele>
        <time>2017-07-02T04:09:58Z</time>
      </trkpt>
      <trkpt lat="58.513773009181023" lon="11.553427996113896">
        <ele>22.73</ele>
        <time>2017-07-02T04:10:14Z</time>
      </trkpt>
      <trkpt lat="58.509614998474717" lon="11.557468995451927">
        <ele>26.57</ele>
        <time>2017-07-02T04:10:29Z</time>
      </trkpt>
      <trkpt lat="58.504900010302663" lon="11.562628978863358">
        <ele>16.48</ele>
        <time>2017-07-02T04:10:46Z</time>
      </trkpt>
      <trkpt lat="58.499904982745647" lon="11.568127004429698">
        <ele>11.67</ele>
        <time>2017-07-02T04:11:04Z</time>
      </trkpt>
      <trkpt lat="58.496216023340821" lon="11.571794003248215">
        <ele>15.039999999999999</ele>
        <time>2017-07-02T04:11:17Z</time>
      </trkpt>
      <trkpt lat="58.49271297454834" lon="11.574933025985956">
        <ele>18.399999999999999</ele>
        <time>2017-07-02T04:11:29Z</time>
      </trkpt>
      <trkpt lat="58.490691008046269" lon="11.577923018485308">
        <ele>25.609999999999999</ele>
        <time>2017-07-02T04:11:37Z</time>
      </trkpt>
      <trkpt lat="58.489001970738173" lon="11.581647014245391">
        <ele>34.259999999999998</ele>
        <time>2017-07-02T04:11:45Z</time>
      </trkpt>
      <trkpt lat="58.487733034417033" lon="11.586064025759697">
        <ele>38.590000000000003</ele>
        <time>2017-07-02T04:11:53Z</time>
      </trkpt>
      <trkpt lat="58.487204974517226" lon="11.590391015633941">
        <ele>37.630000000000003</ele>
        <time>2017-07-02T04:12:00Z</time>
      </trkpt>
      <trkpt lat="58.487267000600696" lon="11.594198998063803">
        <ele>38.590000000000003</ele>
        <time>2017-07-02T04:12:06Z</time>
      </trkpt>
      <trkpt lat="58.487849961966276" lon="11.598409982398152">
        <ele>39.07</ele>
        <time>2017-07-02T04:12:13Z</time>
      </trkpt>
      <trkpt lat="58.489303970709443" lon="11.605310970917344">
        <ele>38.590000000000003</ele>
        <time>2017-07-02T04:12:25Z</time>
      </trkpt>
      <trkpt lat="58.489943007007241" lon="11.610821988433599">
        <ele>34.259999999999998</ele>
        <time>2017-07-02T04:12:34Z</time>
      </trkpt>
      <trkpt lat="58.49000402726233" lon="11.615768987685442">
        <ele>31.379999999999999</ele>
        <time>2017-07-02T04:12:42Z</time>
      </trkpt>
      <trkpt lat="58.489462975412607" lon="11.619964968413115">
        <ele>29.940000000000001</ele>
        <time>2017-07-02T04:12:49Z</time>
      </trkpt>
      <trkpt lat="58.488441975787282" lon="11.623889040201902">
        <ele>28.02</ele>
        <time>2017-07-02T04:12:56Z</time>
      </trkpt>
      <trkpt lat="58.486988972872496" lon="11.627156976610422">
        <ele>26.09</ele>
        <time>2017-07-02T04:13:03Z</time>
      </trkpt>
      <trkpt lat="58.485245034098625" lon="11.629705997183919">
        <ele>24.170000000000002</ele>
        <time>2017-07-02T04:13:10Z</time>
      </trkpt>
      <trkpt lat="58.483300013467669" lon="11.631555967032909">
        <ele>23.210000000000001</ele>
        <time>2017-07-02T04:13:17Z</time>
      </trkpt>
      <trkpt lat="58.480311026796699" lon="11.633351035416126">
        <ele>26.09</ele>
        <time>2017-07-02T04:13:27Z</time>
      </trkpt>
      <trkpt lat="58.477981025353074" lon="11.635375013574958">
        <ele>33.780000000000001</ele>
        <time>2017-07-02T04:13:35Z</time>
      </trkpt>
      <trkpt lat="58.476203978061676" lon="11.638048002496362">
        <ele>42.439999999999998</ele>
        <time>2017-07-02T04:13:42Z</time>
      </trkpt>
      <trkpt lat="58.474805038422346" lon="11.64133002050221">
        <ele>46.759999999999998</ele>
        <time>2017-07-02T04:13:49Z</time>
      </trkpt>
      <trkpt lat="58.472887007519603" lon="11.646202001720667">
        <ele>44.359999999999999</ele>
        <time>2017-07-02T04:13:59Z</time>
      </trkpt>
      <trkpt lat="58.471151031553745" lon="11.648897035047412">
        <ele>44.840000000000003</ele>
        <time>2017-07-02T04:14:06Z</time>
      </trkpt>
      <trkpt lat="58.469109032303095" lon="11.650858987122774">
        <ele>44.359999999999999</ele>
        <time>2017-07-02T04:14:13Z</time>
      </trkpt>
      <trkpt lat="58.465308006852865" lon="11.653010034933686">
        <ele>41.469999999999999</ele>
        <time>2017-07-02T04:14:25Z</time>
      </trkpt>
      <trkpt lat="58.460901975631714" lon="11.655712025240064">
        <ele>44.840000000000003</ele>
        <time>2017-07-02T04:14:39Z</time>
      </trkpt>
      <trkpt lat="58.458987968042493" lon="11.658045966178179">
        <ele>47.240000000000002</ele>
        <time>2017-07-02T04:14:46Z</time>
      </trkpt>
      <trkpt lat="58.457375038415194" lon="11.661135032773018">
        <ele>51.090000000000003</ele>
        <time>2017-07-02T04:14:53Z</time>
      </trkpt>
      <trkpt lat="58.455089963972569" lon="11.665617004036903">
        <ele>47.240000000000002</ele>
        <time>2017-07-02T04:15:03Z</time>
      </trkpt>
      <trkpt lat="58.453099010512233" lon="11.667718011885881">
        <ele>37.630000000000003</ele>
        <time>2017-07-02T04:15:10Z</time>
      </trkpt>
      <trkpt lat="58.450628025457263" lon="11.669447030872107">
        <ele>38.109999999999999</ele>
        <time>2017-07-02T04:15:18Z</time>
      </trkpt>
      <trkpt lat="58.448940999805927" lon="11.671540997922421">
        <ele>47.240000000000002</ele>
        <time>2017-07-02T04:15:24Z</time>
      </trkpt>
      <trkpt lat="58.447564020752907" lon="11.674357987940311">
        <ele>54.450000000000003</ele>
        <time>2017-07-02T04:15:30Z</time>
      </trkpt>
      <trkpt lat="58.44647403806448" lon="11.678182985633612">
        <ele>57.82</ele>
        <time>2017-07-02T04:15:37Z</time>
      </trkpt>
      <trkpt lat="58.445890992879868" lon="11.682469993829727">
        <ele>55.409999999999997</ele>
        <time>2017-07-02T04:15:44Z</time>
      </trkpt>
      <trkpt lat="58.445073002949357" lon="11.691252971068025">
        <ele>39.07</ele>
        <time>2017-07-02T04:15:58Z</time>
      </trkpt>
      <trkpt lat="58.444318966940045" lon="11.696038031950593">
        <ele>28.02</ele>
        <time>2017-07-02T04:16:06Z</time>
      </trkpt>
      <trkpt lat="58.443264020606875" lon="11.69914998114109">
        <ele>19.84</ele>
        <time>2017-07-02T04:16:12Z</time>
      </trkpt>
      <trkpt lat="58.44183498993516" lon="11.701701013371348">
        <ele>15.52</ele>
        <time>2017-07-02T04:16:18Z</time>
      </trkpt>
      <trkpt lat="58.43934397213161" lon="11.704755965620279">
        <ele>17.440000000000001</ele>
        <time>2017-07-02T04:16:27Z</time>
      </trkpt>
      <trkpt lat="58.436192963272333" lon="11.708857985213399">
        <ele>20.809999999999999</ele>
        <time>2017-07-02T04:16:39Z</time>
      </trkpt>
      <trkpt lat="58.432931983843446" lon="11.713042985647917">
        <ele>17.440000000000001</ele>
        <time>2017-07-02T04:16:51Z</time>
      </trkpt>
      <trkpt lat="58.428522013127804" lon="11.717212982475758">
        <ele>37.630000000000003</ele>
        <time>2017-07-02T04:17:06Z</time>
      </trkpt>
      <trkpt lat="58.424672959372401" lon="11.720645036548376">
        <ele>44.359999999999999</ele>
        <time>2017-07-02T04:17:19Z</time>
      </trkpt>
      <trkpt lat="58.42125398106873" lon="11.724638007581234">
        <ele>38.590000000000003</ele>
        <time>2017-07-02T04:17:31Z</time>
      </trkpt>
      <trkpt lat="58.417369974777102" lon="11.729001961648464">
        <ele>37.630000000000003</ele>
        <time>2017-07-02T04:17:45Z</time>
      </trkpt>
      <trkpt lat="58.414607970044017" lon="11.730996016412973">
        <ele>38.109999999999999</ele>
        <time>2017-07-02T04:17:54Z</time>
      </trkpt>
      <trkpt lat="58.41117599979043" lon="11.732981018722057">
        <ele>51.090000000000003</ele>
        <time>2017-07-02T04:18:05Z</time>
      </trkpt>
      <trkpt lat="58.408513991162181" lon="11.735746962949634">
        <ele>62.140000000000001</ele>
        <time>2017-07-02T04:18:14Z</time>
      </trkpt>
      <trkpt lat="58.406337965279818" lon="11.737576983869076">
        <ele>66.469999999999999</ele>
        <time>2017-07-02T04:18:21Z</time>
      </trkpt>
      <trkpt lat="58.403908973559737" lon="11.739963982254267">
        <ele>67.909999999999997</ele>
        <time>2017-07-02T04:18:29Z</time>
      </trkpt>
      <trkpt lat="58.40178600512445" lon="11.743190009146929">
        <ele>67.909999999999997</ele>
        <time>2017-07-02T04:18:37Z</time>
      </trkpt>
      <trkpt lat="58.398581016808748" lon="11.74897201359272">
        <ele>63.579999999999998</ele>
        <time>2017-07-02T04:18:51Z</time>
      </trkpt>
      <trkpt lat="58.395578032359481" lon="11.753338985145092">
        <ele>57.82</ele>
        <time>2017-07-02T04:19:03Z</time>
      </trkpt>
      <trkpt lat="58.391959983855486" lon="11.758068976923823">
        <ele>56.859999999999999</ele>
        <time>2017-07-02T04:19:17Z</time>
      </trkpt>
      <trkpt lat="58.389479024335742" lon="11.762360008433461">
        <ele>65.989999999999995</ele>
        <time>2017-07-02T04:19:27Z</time>
      </trkpt>
      <trkpt lat="58.387393020093441" lon="11.765120001509786">
        <ele>75.599999999999994</ele>
        <time>2017-07-02T04:19:35Z</time>
      </trkpt>
      <trkpt lat="58.384571000933647" lon="11.767842024564743">
        <ele>81.370000000000005</ele>
        <time>2017-07-02T04:19:45Z</time>
      </trkpt>
      <trkpt lat="58.382972991093993" lon="11.770216031000018">
        <ele>79.930000000000007</ele>
        <time>2017-07-02T04:19:52Z</time>
      </trkpt>
      <trkpt lat="58.38092403486371" lon="11.773474998772144">
        <ele>72.719999999999999</ele>
        <time>2017-07-02T04:20:02Z</time>
      </trkpt>
      <trkpt lat="58.378047030419111" lon="11.776735978201032">
        <ele>60.219999999999999</ele>
        <time>2017-07-02T04:20:14Z</time>
      </trkpt>
      <trkpt lat="58.376382971182466" lon="11.779042007401586">
        <ele>55.890000000000001</ele>
        <time>2017-07-02T04:20:21Z</time>
      </trkpt>
      <trkpt lat="58.37430601939559" lon="11.783045036718249">
        <ele>56.369999999999997</ele>
        <time>2017-07-02T04:20:31Z</time>
      </trkpt>
      <trkpt lat="58.372665010392666" lon="11.787173040211201">
        <ele>57.340000000000003</ele>
        <time>2017-07-02T04:20:40Z</time>
      </trkpt>
      <trkpt lat="58.370987959206104" lon="11.790563017129898">
        <ele>59.259999999999998</ele>
        <time>2017-07-02T04:20:48Z</time>
      </trkpt>
      <trkpt lat="58.368834983557463" lon="11.793602965772152">
        <ele>68.390000000000001</ele>
        <time>2017-07-02T04:20:57Z</time>
      </trkpt>
      <trkpt lat="58.365545002743602" lon="11.797986030578613">
        <ele>82.329999999999998</ele>
        <time>2017-07-02T04:21:11Z</time>
      </trkpt>
      <trkpt lat="58.363707019016147" lon="11.801536018028855">
        <ele>82.810000000000002</ele>
        <time>2017-07-02T04:21:20Z</time>
      </trkpt>
      <trkpt lat="58.361638030037284" lon="11.806196020916104">
        <ele>75.120000000000005</ele>
        <time>2017-07-02T04:21:31Z</time>
      </trkpt>
      <trkpt lat="58.358848029747605" lon="11.811123993247747">
        <ele>56.859999999999999</ele>
        <time>2017-07-02T04:21:44Z</time>
      </trkpt>
      <trkpt lat="58.356336979195476" lon="11.814548000693321">
        <ele>42.920000000000002</ele>
        <time>2017-07-02T04:21:54Z</time>
      </trkpt>
      <trkpt lat="58.353223018348217" lon="11.817819038406014">
        <ele>38.109999999999999</ele>
        <time>2017-07-02T04:22:06Z</time>
      </trkpt>
      <trkpt lat="58.35037199780345" lon="11.819893978536129">
        <ele>40.030000000000001</ele>
        <time>2017-07-02T04:22:16Z</time>
      </trkpt>
      <trkpt lat="58.347283015027642" lon="11.821344969794154">
        <ele>41.469999999999999</ele>
        <time>2017-07-02T04:22:26Z</time>
      </trkpt>
      <trkpt lat="58.342434000223875" lon="11.823662985116243">
        <ele>43.399999999999999</ele>
        <time>2017-07-02T04:22:42Z</time>
      </trkpt>
      <trkpt lat="58.338012965396047" lon="11.826682984828949">
        <ele>33.299999999999997</ele>
        <time>2017-07-02T04:22:57Z</time>
      </trkpt>
      <trkpt lat="58.33462399430573" lon="11.829728968441486">
        <ele>30.420000000000002</ele>
        <time>2017-07-02T04:23:09Z</time>
      </trkpt>
      <trkpt lat="58.33120702765882" lon="11.833571987226605">
        <ele>38.590000000000003</ele>
        <time>2017-07-02T04:23:22Z</time>
      </trkpt>
      <trkpt lat="58.328855987638235" lon="11.837242003530264">
        <ele>45.32</ele>
        <time>2017-07-02T04:23:32Z</time>
      </trkpt>
      <trkpt lat="58.326558005064726" lon="11.841867975890636">
        <ele>52.049999999999997</ele>
        <time>2017-07-02T04:23:43Z</time>
      </trkpt>
      <trkpt lat="58.323136009275913" lon="11.849110024049878">
        <ele>48.68</ele>
        <time>2017-07-02T04:23:59Z</time>
      </trkpt>
      <trkpt lat="58.320912960916758" lon="11.853010961785913">
        <ele>38.590000000000003</ele>
        <time>2017-07-02T04:24:08Z</time>
      </trkpt>
      <trkpt lat="58.318454967811704" lon="11.855881009250879">
        <ele>32.82</ele>
        <time>2017-07-02T04:24:17Z</time>
      </trkpt>
      <trkpt lat="58.316032011061907" lon="11.857676999643445">
        <ele>30.420000000000002</ele>
        <time>2017-07-02T04:24:25Z</time>
      </trkpt>
      <trkpt lat="58.313149977475405" lon="11.858797995373607">
        <ele>32.82</ele>
        <time>2017-07-02T04:24:34Z</time>
      </trkpt>
      <trkpt lat="58.310203989967704" lon="11.858936967328191">
        <ele>35.229999999999997</ele>
        <time>2017-07-02T04:24:43Z</time>
      </trkpt>
      <trkpt lat="58.305639959871769" lon="11.859111981466413">
        <ele>33.299999999999997</ele>
        <time>2017-07-02T04:24:57Z</time>
      </trkpt>
      <trkpt lat="58.302508983761072" lon="11.859732996672392">
        <ele>36.189999999999998</ele>
        <time>2017-07-02T04:25:07Z</time>
      </trkpt>
      <trkpt lat="58.298285007476807" lon="11.861287001520395">
        <ele>47.240000000000002</ele>
        <time>2017-07-02T04:25:21Z</time>
      </trkpt>
      <trkpt lat="58.295641019940376" lon="11.863069999963045">
        <ele>49.649999999999999</ele>
        <time>2017-07-02T04:25:30Z</time>
      </trkpt>
      <trkpt lat="58.292997032403946" lon="11.866078013554215">
        <ele>41.950000000000003</ele>
        <time>2017-07-02T04:25:40Z</time>
      </trkpt>
      <trkpt lat="58.290827041491866" lon="11.86963303014636">
        <ele>28.5</ele>
        <time>2017-07-02T04:25:49Z</time>
      </trkpt>
      <trkpt lat="58.288081968203187" lon="11.873804032802582">
        <ele>20.809999999999999</ele>
        <time>2017-07-02T04:26:00Z</time>
      </trkpt>
      <trkpt lat="58.285076972097158" lon="11.87695998698473">
        <ele>16.48</ele>
        <time>2017-07-02T04:26:11Z</time>
      </trkpt>
      <trkpt lat="58.280068030580878" lon="11.882101027294993">
        <ele>11.67</ele>
        <time>2017-07-02T04:26:29Z</time>
      </trkpt>
      <trkpt lat="58.274452993646264" lon="11.887779012322426">
        <ele>15.039999999999999</ele>
        <time>2017-07-02T04:26:49Z</time>
      </trkpt>
      <trkpt lat="58.270710976794362" lon="11.891149040311575">
        <ele>18.399999999999999</ele>
        <time>2017-07-02T04:27:02Z</time>
      </trkpt>
      <trkpt lat="58.265378996729851" lon="11.895130025222898">
        <ele>19.359999999999999</ele>
        <time>2017-07-02T04:27:20Z</time>
      </trkpt>
      <trkpt lat="58.259634040296078" lon="11.898653022944927">
        <ele>29.460000000000001</ele>
        <time>2017-07-02T04:27:39Z</time>
      </trkpt>
      <trkpt lat="58.255605027079582" lon="11.901240013539791">
        <ele>34.740000000000002</ele>
        <time>2017-07-02T04:27:52Z</time>
      </trkpt>
      <trkpt lat="58.252624003216624" lon="11.903353007510304">
        <ele>28.98</ele>
        <time>2017-07-02T04:28:02Z</time>
      </trkpt>
      <trkpt lat="58.249423960223794" lon="11.905309008434415">
        <ele>25.609999999999999</ele>
        <time>2017-07-02T04:28:13Z</time>
      </trkpt>
      <trkpt lat="58.246182007715106" lon="11.90740498714149">
        <ele>20.32</ele>
        <time>2017-07-02T04:28:24Z</time>
      </trkpt>
      <trkpt lat="58.243190003558993" lon="11.90912302583456">
        <ele>16.960000000000001</ele>
        <time>2017-07-02T04:28:34Z</time>
      </trkpt>
      <trkpt lat="58.240120969712734" lon="11.910028019919991">
        <ele>16</ele>
        <time>2017-07-02T04:28:44Z</time>
      </trkpt>
      <trkpt lat="58.236580034717917" lon="11.910871993750334">
        <ele>12.630000000000001</ele>
        <time>2017-07-02T04:28:56Z</time>
      </trkpt>
      <trkpt lat="58.23342802003026" lon="11.912395991384983">
        <ele>6.87</ele>
        <time>2017-07-02T04:29:07Z</time>
      </trkpt>
      <trkpt lat="58.23211801238358" lon="11.913225967437029">
        <ele>5.42</ele>
        <time>2017-07-02T04:29:13Z</time>
      </trkpt>
      <trkpt lat="58.231217041611671" lon="11.913565015420318">
        <ele>3.98</ele>
        <time>2017-07-02T04:29:19Z</time>
      </trkpt>
      <trkpt lat="58.231032975018024" lon="11.913496032357216">
        <ele>3.5</ele>
        <time>2017-07-02T04:29:21Z</time>
      </trkpt>
      <trkpt lat="58.230962986126542" lon="11.913438029587269">
        <ele>3.02</ele>
        <time>2017-07-02T04:29:22Z</time>
      </trkpt>
      <trkpt lat="58.230897020548582" lon="11.913358988240361">
        <ele>3.02</ele>
        <time>2017-07-02T04:29:23Z</time>
      </trkpt>
      <trkpt lat="58.230836000293493" lon="11.913251029327512">
        <ele>3.5</ele>
        <time>2017-07-02T04:29:24Z</time>
      </trkpt>
      <trkpt lat="58.230776991695166" lon="11.913103004917502">
        <ele>3.02</ele>
        <time>2017-07-02T04:29:25Z</time>
      </trkpt>
      <trkpt lat="58.230733992531896" lon="11.912913993000984">
        <ele>2.54</ele>
        <time>2017-07-02T04:29:26Z</time>
      </trkpt>
      <trkpt lat="58.230707002803683" lon="11.91271098330617">
        <ele>2.54</ele>
        <time>2017-07-02T04:29:27Z</time>
      </trkpt>
      <trkpt lat="58.230702979490161" lon="11.912480983883142">
        <ele>2.06</ele>
        <time>2017-07-02T04:29:28Z</time>
      </trkpt>
      <trkpt lat="58.230728041380644" lon="11.912263976410031">
        <ele>2.54</ele>
        <time>2017-07-02T04:29:29Z</time>
      </trkpt>
      <trkpt lat="58.230781015008688" lon="11.912069013342261">
        <ele>3.02</ele>
        <time>2017-07-02T04:29:30Z</time>
      </trkpt>
      <trkpt lat="58.230846980586648" lon="11.911910008639097">
        <ele>3.98</ele>
        <time>2017-07-02T04:29:31Z</time>
      </trkpt>
      <trkpt lat="58.23091696947813" lon="11.91178503446281">
        <ele>4.46</ele>
        <time>2017-07-02T04:29:32Z</time>
      </trkpt>
      <trkpt lat="58.230982013046741" lon="11.911698030307889">
        <ele>5.42</ele>
        <time>2017-07-02T04:29:33Z</time>
      </trkpt>
      <trkpt lat="58.23104303330183" lon="11.911633992567658">
        <ele>5.91</ele>
        <time>2017-07-02T04:29:34Z</time>
      </trkpt>
      <trkpt lat="58.231147974729538" lon="11.911531984806061">
        <ele>5.91</ele>
        <time>2017-07-02T04:29:36Z</time>
      </trkpt>
      <trkpt lat="58.231189968064427" lon="11.911468030884862">
        <ele>5.91</ele>
        <time>2017-07-02T04:29:37Z</time>
      </trkpt>
      <trkpt lat="58.23121796362102" lon="11.911371974274516">
        <ele>5.91</ele>
        <time>2017-07-02T04:29:38Z</time>
      </trkpt>
      <trkpt lat="58.231226010248065" lon="11.911244988441467">
        <ele>5.42</ele>
        <time>2017-07-02T04:29:39Z</time>
      </trkpt>
      <trkpt lat="58.231212012469769" lon="11.91112001426518">
        <ele>4.94</ele>
        <time>2017-07-02T04:29:40Z</time>
      </trkpt>
      <trkpt lat="58.231187034398317" lon="11.910994034260511">
        <ele>4.94</ele>
        <time>2017-07-02T04:29:41Z</time>
      </trkpt>
      <trkpt lat="58.23115199804306" lon="11.910847015678883">
        <ele>4.94</ele>
        <time>2017-07-02T04:29:42Z</time>
      </trkpt>
      <trkpt lat="58.231097012758255" lon="11.910523977130651">
        <ele>5.42</ele>
        <time>2017-07-02T04:29:44Z</time>
      </trkpt>
      <trkpt lat="58.231034986674786" lon="11.910098008811474">
        <ele>5.42</ele>
        <time>2017-07-02T04:29:47Z</time>
      </trkpt>
      <trkpt lat="58.230998022481799" lon="11.910016033798456">
        <ele>5.42</ele>
        <time>2017-07-02T04:29:48Z</time>
      </trkpt>
      <trkpt lat="58.230952005833387" lon="11.909957025200129">
        <ele>5.91</ele>
        <time>2017-07-02T04:29:49Z</time>
      </trkpt>
      <trkpt lat="58.23089299723506" lon="11.909921988844872">
        <ele>5.91</ele>
        <time>2017-07-02T04:29:50Z</time>
      </trkpt>
      <trkpt lat="58.230826025828719" lon="11.909911008551717">
        <ele>4.94</ele>
        <time>2017-07-02T04:29:51Z</time>
      </trkpt>
      <trkpt lat="58.230659980326891" lon="11.909807994961739">
        <ele>3.98</ele>
        <time>2017-07-02T04:29:54Z</time>
      </trkpt>
      <trkpt lat="58.230619998648763" lon="11.909758960828185">
        <ele>3.98</ele>
        <time>2017-07-02T04:29:55Z</time>
      </trkpt>
      <trkpt lat="58.230590997263789" lon="11.909712022170424">
        <ele>3.98</ele>
        <time>2017-07-02T04:29:56Z</time>
      </trkpt>
      <trkpt lat="58.230567025020719" lon="11.909666005522013">
        <ele>4.46</ele>
        <time>2017-07-02T04:29:57Z</time>
      </trkpt>
      <trkpt lat="58.230552021414042" lon="11.909616971388459">
        <ele>4.46</ele>
        <time>2017-07-02T04:29:58Z</time>
      </trkpt>
      <trkpt lat="58.230512961745262" lon="11.909382026642561">
        <ele>2.54</ele>
        <time>2017-07-02T04:30:10Z</time>
      </trkpt>
      <trkpt lat="58.230513967573643" lon="11.909379009157419">
        <ele>2.06</ele>
        <time>2017-07-02T04:30:15Z</time>
      </trkpt>
      <trkpt lat="58.230515979230404" lon="11.909303991124034">
        <ele>2.54</ele>
        <time>2017-07-02T04:30:16Z</time>
      </trkpt>
      <trkpt lat="58.230500975623727" lon="11.909277001395822">
        <ele>2.06</ele>
        <time>2017-07-02T04:30:17Z</time>
      </trkpt>
      <trkpt lat="58.230492006987333" lon="11.909248000010848">
        <ele>2.06</ele>
        <time>2017-07-02T04:30:18Z</time>
      </trkpt>
      <trkpt lat="58.230475997552276" lon="11.909240037202835">
        <ele>1.58</ele>
        <time>2017-07-02T04:30:19Z</time>
      </trkpt>
      <trkpt lat="58.230458982288837" lon="11.909255962818861">
        <ele>1.1</ele>
        <time>2017-07-02T04:30:20Z</time>
      </trkpt>
      <trkpt lat="58.230454958975315" lon="11.909353025257587">
        <ele>-2.27</ele>
        <time>2017-07-02T04:30:32Z</time>
      </trkpt>
      <trkpt lat="58.230454958975315" lon="11.909386971965432">
        <ele>-2.75</ele>
        <time>2017-07-02T04:31:08Z</time>
      </trkpt>
      <trkpt lat="58.230426963418722" lon="11.909408010542393">
        <ele>-5.15</ele>
        <time>2017-07-02T04:36:55Z</time>
      </trkpt>
      <trkpt lat="58.230435010045767" lon="11.909481016919017">
        <ele>-2.75</ele>
        <time>2017-07-02T04:37:49Z</time>
      </trkpt>
      <trkpt lat="58.230434004217386" lon="11.909482022747397">
        <ele>-2.75</ele>
        <time>2017-07-02T04:39:13Z</time>
      </trkpt>
      <trkpt lat="58.230435010045767" lon="11.909481016919017">
        <ele>-2.75</ele>
        <time>2017-07-02T04:40:28Z</time>
      </trkpt>
      <trkpt lat="58.230432998389006" lon="11.909483028575778">
        <ele>-2.75</ele>
        <time>2017-07-02T04:41:53Z</time>
      </trkpt>
      <trkpt lat="58.230429980903864" lon="11.90948897972703">
        <ele>-2.75</ele>
        <time>2017-07-02T04:43:22Z</time>
      </trkpt>
      <trkpt lat="58.230426963418722" lon="11.909491997212172">
        <ele>-2.75</ele>
        <time>2017-07-02T04:44:18Z</time>
      </trkpt>
      <trkpt lat="58.23035404086113" lon="11.909592999145389">
        <ele>-3.23</ele>
        <time>2017-07-02T04:44:21Z</time>
      </trkpt>
      <trkpt lat="58.230256978422403" lon="11.909671034663916">
        <ele>-1.79</ele>
        <time>2017-07-02T04:44:23Z</time>
      </trkpt>
      <trkpt lat="58.230221020057797" lon="11.909729037433863">
        <ele>-1.3</ele>
        <time>2017-07-02T04:44:24Z</time>
      </trkpt>
      <trkpt lat="58.230202998965979" lon="11.90981101244688">
        <ele>-1.3</ele>
        <time>2017-07-02T04:44:25Z</time>
      </trkpt>
      <trkpt lat="58.230209033936262" lon="11.909898016601801">
        <ele>-1.79</ele>
        <time>2017-07-02T04:44:26Z</time>
      </trkpt>
      <trkpt lat="58.230240968987346" lon="11.909978985786438">
        <ele>-1.79</ele>
        <time>2017-07-02T04:44:27Z</time>
      </trkpt>
      <trkpt lat="58.230298971757293" lon="11.910044029355049">
        <ele>-1.79</ele>
        <time>2017-07-02T04:44:28Z</time>
      </trkpt>
      <trkpt lat="58.230373989790678" lon="11.910081999376416">
        <ele>-1.3</ele>
        <time>2017-07-02T04:44:29Z</time>
      </trkpt>
      <trkpt lat="58.23046300560236" lon="11.910098008811474">
        <ele>-0.82</ele>
        <time>2017-07-02T04:44:30Z</time>
      </trkpt>
      <trkpt lat="58.230557972565293" lon="11.910097002983093">
        <ele>-0.82</ele>
        <time>2017-07-02T04:44:31Z</time>
      </trkpt>
      <trkpt lat="58.230906995013356" lon="11.910123992711306">
        <ele>2.54</ele>
        <time>2017-07-02T04:44:35Z</time>
      </trkpt>
      <trkpt lat="58.230960974469781" lon="11.910165986046195">
        <ele>3.5</ele>
        <time>2017-07-02T04:44:36Z</time>
      </trkpt>
      <trkpt lat="58.230997016653419" lon="11.910245027393103">
        <ele>3.98</ele>
        <time>2017-07-02T04:44:37Z</time>
      </trkpt>
      <trkpt lat="58.231031969189644" lon="11.910376958549023">
        <ele>4.46</ele>
        <time>2017-07-02T04:44:38Z</time>
      </trkpt>
      <trkpt lat="58.23106599971652" lon="11.910532023757696">
        <ele>4.46</ele>
        <time>2017-07-02T04:44:39Z</time>
      </trkpt>
      <trkpt lat="58.231162978336215" lon="11.911174999549985">
        <ele>4.94</ele>
        <time>2017-07-02T04:44:43Z</time>
      </trkpt>
      <trkpt lat="58.231162978336215" lon="11.911294022575021">
        <ele>5.42</ele>
        <time>2017-07-02T04:44:44Z</time>
      </trkpt>
      <trkpt lat="58.231142023578286" lon="11.91140198148787">
        <ele>4.94</ele>
        <time>2017-07-02T04:44:45Z</time>
      </trkpt>
      <trkpt lat="58.231093995273113" lon="11.911503989249468">
        <ele>4.94</ele>
        <time>2017-07-02T04:44:46Z</time>
      </trkpt>
      <trkpt lat="58.231027023866773" lon="11.911605997011065">
        <ele>4.46</ele>
        <time>2017-07-02T04:44:47Z</time>
      </trkpt>
      <trkpt lat="58.230943037196994" lon="11.911715967580676">
        <ele>4.46</ele>
        <time>2017-07-02T04:44:48Z</time>
      </trkpt>
      <trkpt lat="58.230788977816701" lon="11.912050992250443">
        <ele>3.02</ele>
        <time>2017-07-02T04:44:50Z</time>
      </trkpt>
      <trkpt lat="58.230725023895502" lon="11.912277974188328">
        <ele>2.06</ele>
        <time>2017-07-02T04:44:51Z</time>
      </trkpt>
      <trkpt lat="58.230674983933568" lon="11.912534963339567">
        <ele>1.58</ele>
        <time>2017-07-02T04:44:52Z</time>
      </trkpt>
      <trkpt lat="58.230650005862117" lon="11.912812991067767">
        <ele>1.58</ele>
        <time>2017-07-02T04:44:53Z</time>
      </trkpt>
      <trkpt lat="58.23063600808382" lon="11.913099987432361">
        <ele>1.1</ele>
        <time>2017-07-02T04:44:54Z</time>
      </trkpt>
      <trkpt lat="58.23061496950686" lon="11.913390001282096">
        <ele>0.62</ele>
        <time>2017-07-02T04:44:55Z</time>
      </trkpt>
      <trkpt lat="58.23056903667748" lon="11.913682026788592">
        <ele>0.62</ele>
        <time>2017-07-02T04:44:56Z</time>
      </trkpt>
      <trkpt lat="58.230499969795346" lon="11.913945972919464">
        <ele>0.14</ele>
        <time>2017-07-02T04:44:57Z</time>
      </trkpt>
      <trkpt lat="58.230406008660793" lon="11.914184018969536">
        <ele>-0.34</ele>
        <time>2017-07-02T04:44:58Z</time>
      </trkpt>
      <trkpt lat="58.23029100894928" lon="11.914391973987222">
        <ele>-0.34</ele>
        <time>2017-07-02T04:44:59Z</time>
      </trkpt>
      <trkpt lat="58.230158993974328" lon="11.914581991732121">
        <ele>-0.34</ele>
        <time>2017-07-02T04:45:00Z</time>
      </trkpt>
      <trkpt lat="58.230009963735938" lon="11.914742002263665">
        <ele>-0.34</ele>
        <time>2017-07-02T04:45:01Z</time>
      </trkpt>
      <trkpt lat="58.229851964861155" lon="11.914869993925095">
        <ele>-0.34</ele>
        <time>2017-07-02T04:45:02Z</time>
      </trkpt>
      <trkpt lat="58.22969296015799" lon="11.91498901695013">
        <ele>0.14</ele>
        <time>2017-07-02T04:45:03Z</time>
      </trkpt>
      <trkpt lat="58.228023033589125" lon="11.915931981056929">
        <ele>1.58</ele>
        <time>2017-07-02T04:45:12Z</time>
      </trkpt>
      <trkpt lat="58.225417016074061" lon="11.916848961263895">
        <ele>1.1</ele>
        <time>2017-07-02T04:45:23Z</time>
      </trkpt>
      <trkpt lat="58.222037013620138" lon="11.917341984808445">
        <ele>-2.27</ele>
        <time>2017-07-02T04:45:36Z</time>
      </trkpt>
      <trkpt lat="58.219079039990902" lon="11.917067980393767">
        <ele>0.14</ele>
        <time>2017-07-02T04:45:47Z</time>
      </trkpt>
      <trkpt lat="58.216299014165998" lon="11.915942961350083">
        <ele>5.42</ele>
        <time>2017-07-02T04:45:57Z</time>
      </trkpt>
      <trkpt lat="58.212436968460679" lon="11.913899034261703">
        <ele>10.710000000000001</ele>
        <time>2017-07-02T04:46:11Z</time>
      </trkpt>
      <trkpt lat="58.206282975152135" lon="11.910609975457191">
        <ele>24.170000000000002</ele>
        <time>2017-07-02T04:46:33Z</time>
      </trkpt>
      <trkpt lat="58.202291009947658" lon="11.90856697037816">
        <ele>35.710000000000001</ele>
        <time>2017-07-02T04:46:47Z</time>
      </trkpt>
      <trkpt lat="58.199042016640306" lon="11.907615037634969">
        <ele>44.359999999999999</ele>
        <time>2017-07-02T04:46:58Z</time>
      </trkpt>
    </trkseg>
  </trk>

  <trk>
    <name>Track vom: 02 Jul 2017 06:47</name>
    <extensions>
      <gpxx:TrackExtension>
        <gpxx:DisplayColor>DarkGray</gpxx:DisplayColor>
      </gpxx:TrackExtension>
    </extensions>
    <trkseg>
      <trkpt lat="58.196353018283844" lon="11.907504983246326">
        <ele>51.57</ele>
        <time>2017-07-02T04:47:07Z</time>
      </trkpt>
      <trkpt lat="58.19307703524828" lon="11.908233035355806">
        <ele>56.369999999999997</ele>
        <time>2017-07-02T04:47:18Z</time>
      </trkpt>
      <trkpt lat="58.189732991158962" lon="11.908913981169462">
        <ele>64.549999999999997</ele>
        <time>2017-07-02T04:47:29Z</time>
      </trkpt>
      <trkpt lat="58.186443010345101" lon="11.908728992566466">
        <ele>74.159999999999997</ele>
        <time>2017-07-02T04:47:40Z</time>
      </trkpt>
      <trkpt lat="58.183209020644426" lon="11.907792985439301">
        <ele>80.890000000000001</ele>
        <time>2017-07-02T04:47:51Z</time>
      </trkpt>
      <trkpt lat="58.179701026529074" lon="11.905918037518859">
        <ele>82.810000000000002</ele>
        <time>2017-07-02T04:48:03Z</time>
      </trkpt>
      <trkpt lat="58.176332004368305" lon="11.903133988380432">
        <ele>78</ele>
        <time>2017-07-02T04:48:15Z</time>
      </trkpt>
      <trkpt lat="58.172354958951473" lon="11.898738015443087">
        <ele>63.579999999999998</ele>
        <time>2017-07-02T04:48:30Z</time>
      </trkpt>
      <trkpt lat="58.16944501362741" lon="11.894418988376856">
        <ele>57.82</ele>
        <time>2017-07-02T04:48:42Z</time>
      </trkpt>
      <trkpt lat="58.166933041065931" lon="11.891454979777336">
        <ele>62.619999999999997</ele>
        <time>2017-07-02T04:48:52Z</time>
      </trkpt>
      <trkpt lat="58.16388102248311" lon="11.888868995010853">
        <ele>72.719999999999999</ele>
        <time>2017-07-02T04:49:03Z</time>
      </trkpt>
      <trkpt lat="58.160882983356714" lon="11.88742202706635">
        <ele>75.120000000000005</ele>
        <time>2017-07-02T04:49:13Z</time>
      </trkpt>
      <trkpt lat="58.157988963648677" lon="11.887016007676721">
        <ele>72.719999999999999</ele>
        <time>2017-07-02T04:49:22Z</time>
      </trkpt>
      <trkpt lat="58.154435036703944" lon="11.886983988806605">
        <ele>71.269999999999996</ele>
        <time>2017-07-02T04:49:33Z</time>
      </trkpt>
      <trkpt lat="58.151602037250996" lon="11.886104978621006">
        <ele>76.560000000000002</ele>
        <time>2017-07-02T04:49:42Z</time>
      </trkpt>
      <trkpt lat="58.148284982889891" lon="11.884447960183024">
        <ele>88.579999999999998</ele>
        <time>2017-07-02T04:49:53Z</time>
      </trkpt>
      <trkpt lat="58.145185019820929" lon="11.883888971060514">
        <ele>93.870000000000005</ele>
        <time>2017-07-02T04:50:03Z</time>
      </trkpt>
      <trkpt lat="58.142026970162988" lon="11.884344024583697">
        <ele>91.459999999999994</ele>
        <time>2017-07-02T04:50:13Z</time>
      </trkpt>
      <trkpt lat="58.135260008275509" lon="11.885676998645067">
        <ele>84.25</ele>
        <time>2017-07-02T04:50:34Z</time>
      </trkpt>
      <trkpt lat="58.131685964763165" lon="11.885680016130209">
        <ele>83.769999999999996</ele>
        <time>2017-07-02T04:50:45Z</time>
      </trkpt>
      <trkpt lat="58.128144023939967" lon="11.884792037308216">
        <ele>82.810000000000002</ele>
        <time>2017-07-02T04:50:56Z</time>
      </trkpt>
      <trkpt lat="58.124979017302394" lon="11.88316703774035">
        <ele>80.890000000000001</ele>
        <time>2017-07-02T04:51:06Z</time>
      </trkpt>
      <trkpt lat="58.12026696279645" lon="11.880750032141805">
        <ele>77.519999999999996</ele>
        <time>2017-07-02T04:51:21Z</time>
      </trkpt>
      <trkpt lat="58.116077017039061" lon="11.879633981734514">
        <ele>75.599999999999994</ele>
        <time>2017-07-02T04:51:34Z</time>
      </trkpt>
      <trkpt lat="58.110562982037663" lon="11.878923028707504">
        <ele>71.760000000000005</ele>
        <time>2017-07-02T04:51:51Z</time>
      </trkpt>
      <trkpt lat="58.106766985729337" lon="11.879238020628691">
        <ele>68.390000000000001</ele>
        <time>2017-07-02T04:52:03Z</time>
      </trkpt>
      <trkpt lat="58.103867014870048" lon="11.880406038835645">
        <ele>64.549999999999997</ele>
        <time>2017-07-02T04:52:12Z</time>
      </trkpt>
      <trkpt lat="58.100071018561721" lon="11.882065990939736">
        <ele>66.469999999999999</ele>
        <time>2017-07-02T04:52:24Z</time>
      </trkpt>
      <trkpt lat="58.097223015502095" lon="11.882311999797821">
        <ele>73.200000000000003</ele>
        <time>2017-07-02T04:52:33Z</time>
      </trkpt>
      <trkpt lat="58.092387998476624" lon="11.882006982341409">
        <ele>82.329999999999998</ele>
        <time>2017-07-02T04:52:48Z</time>
      </trkpt>
      <trkpt lat="58.088479014113545" lon="11.8826549872756">
        <ele>86.180000000000007</ele>
        <time>2017-07-02T04:53:00Z</time>
      </trkpt>
      <trkpt lat="58.083043014630675" lon="11.884698998183012">
        <ele>88.579999999999998</ele>
        <time>2017-07-02T04:53:17Z</time>
      </trkpt>
      <trkpt lat="58.078217972069979" lon="11.887309039011598">
        <ele>72.239999999999995</ele>
        <time>2017-07-02T04:53:32Z</time>
      </trkpt>
      <trkpt lat="58.073365017771721" lon="11.890185037627816">
        <ele>52.530000000000001</ele>
        <time>2017-07-02T04:53:47Z</time>
      </trkpt>
      <trkpt lat="58.070761011913419" lon="11.890703039243817">
        <ele>50.130000000000003</ele>
        <time>2017-07-02T04:53:55Z</time>
      </trkpt>
      <trkpt lat="58.068159017711878" lon="11.89032300375402">
        <ele>48.68</ele>
        <time>2017-07-02T04:54:03Z</time>
      </trkpt>
      <trkpt lat="58.065361976623535" lon="11.888915011659265">
        <ele>48.68</ele>
        <time>2017-07-02T04:54:12Z</time>
      </trkpt>
      <trkpt lat="58.062789989635348" lon="11.886588027700782">
        <ele>49.649999999999999</ele>
        <time>2017-07-02T04:54:21Z</time>
      </trkpt>
      <trkpt lat="58.060424029827118" lon="11.883461996912956">
        <ele>49.649999999999999</ele>
        <time>2017-07-02T04:54:30Z</time>
      </trkpt>
      <trkpt lat="58.056830037385225" lon="11.877806978300214">
        <ele>49.649999999999999</ele>
        <time>2017-07-02T04:54:45Z</time>
      </trkpt>
      <trkpt lat="58.053509965538979" lon="11.871605040505528">
        <ele>47.719999999999999</ele>
        <time>2017-07-02T04:55:00Z</time>
      </trkpt>
      <trkpt lat="58.050276981666684" lon="11.864405991509557">
        <ele>40.990000000000002</ele>
        <time>2017-07-02T04:55:16Z</time>
      </trkpt>
      <trkpt lat="58.047137958928943" lon="11.856177980080247">
        <ele>37.630000000000003</ele>
        <time>2017-07-02T04:55:33Z</time>
      </trkpt>
      <trkpt lat="58.045104006305337" lon="11.85158503241837">
        <ele>36.670000000000002</ele>
        <time>2017-07-02T04:55:43Z</time>
      </trkpt>
      <trkpt lat="58.043053960427642" lon="11.848705010488629">
        <ele>36.670000000000002</ele>
        <time>2017-07-02T04:55:51Z</time>
      </trkpt>
      <trkpt lat="58.040722031146288" lon="11.846659993752837">
        <ele>36.670000000000002</ele>
        <time>2017-07-02T04:55:59Z</time>
      </trkpt>
      <trkpt lat="58.038218021392822" lon="11.845547966659069">
        <ele>37.149999999999999</ele>
        <time>2017-07-02T04:56:07Z</time>
      </trkpt>
      <trkpt lat="58.035632036626339" lon="11.845417963340878">
        <ele>34.740000000000002</ele>
        <time>2017-07-02T04:56:15Z</time>
      </trkpt>
      <trkpt lat="58.032737011089921" lon="11.846183985471725">
        <ele>28.98</ele>
        <time>2017-07-02T04:56:24Z</time>
      </trkpt>
      <trkpt lat="58.028808999806643" lon="11.846512975171208">
        <ele>17.440000000000001</ele>
        <time>2017-07-02T04:56:36Z</time>
      </trkpt>
      <trkpt lat="58.025634018704295" lon="11.846034033223987">
        <ele>19.359999999999999</ele>
        <time>2017-07-02T04:56:46Z</time>
      </trkpt>
      <trkpt lat="58.021951010450721" lon="11.844692006707191">
        <ele>18.399999999999999</ele>
        <time>2017-07-02T04:56:58Z</time>
      </trkpt>
      <trkpt lat="58.017163015902042" lon="11.843568999320269">
        <ele>14.56</ele>
        <time>2017-07-02T04:57:13Z</time>
      </trkpt>
      <trkpt lat="58.012176034972072" lon="11.84316398575902">
        <ele>13.119999999999999</ele>
        <time>2017-07-02T04:57:28Z</time>
      </trkpt>
      <trkpt lat="58.00751100294292" lon="11.843526000156999">
        <ele>24.170000000000002</ele>
        <time>2017-07-02T04:57:42Z</time>
      </trkpt>
      <trkpt lat="58.003039006143808" lon="11.844339966773987">
        <ele>35.710000000000001</ele>
        <time>2017-07-02T04:57:56Z</time>
      </trkpt>
      <trkpt lat="57.999837035313249" lon="11.843848032876849">
        <ele>34.740000000000002</ele>
        <time>2017-07-02T04:58:06Z</time>
      </trkpt>
      <trkpt lat="57.996043972671032" lon="11.84249603189528">
        <ele>33.299999999999997</ele>
        <time>2017-07-02T04:58:18Z</time>
      </trkpt>
      <trkpt lat="57.992479987442493" lon="11.842051958665252">
        <ele>31.859999999999999</ele>
        <time>2017-07-02T04:58:29Z</time>
      </trkpt>
      <trkpt lat="57.987593002617359" lon="11.842097975313663">
        <ele>29.460000000000001</ele>
        <time>2017-07-02T04:58:44Z</time>
      </trkpt>
      <trkpt lat="57.982710963115096" lon="11.841476960107684">
        <ele>26.57</ele>
        <time>2017-07-02T04:58:59Z</time>
      </trkpt>
      <trkpt lat="57.976684961467981" lon="11.840135017409921">
        <ele>23.690000000000001</ele>
        <time>2017-07-02T04:59:18Z</time>
      </trkpt>
      <trkpt lat="57.972502978518605" lon="11.839529005810618">
        <ele>31.859999999999999</ele>
        <time>2017-07-02T04:59:31Z</time>
      </trkpt>
      <trkpt lat="57.969195982441306" lon="11.840195031836629">
        <ele>35.229999999999997</ele>
        <time>2017-07-02T04:59:41Z</time>
      </trkpt>
      <trkpt lat="57.966011026874185" lon="11.841815002262592">
        <ele>35.229999999999997</ele>
        <time>2017-07-02T04:59:51Z</time>
      </trkpt>
      <trkpt lat="57.96166299842298" lon="11.844827039167285">
        <ele>34.740000000000002</ele>
        <time>2017-07-02T05:00:05Z</time>
      </trkpt>
      <trkpt lat="57.956753969192505" lon="11.848519016057253">
        <ele>33.299999999999997</ele>
        <time>2017-07-02T05:00:21Z</time>
      </trkpt>
      <trkpt lat="57.952420022338629" lon="11.850925041362643">
        <ele>32.340000000000003</ele>
        <time>2017-07-02T05:00:35Z</time>
      </trkpt>
      <trkpt lat="57.948435014113784" lon="11.853220006451011">
        <ele>34.259999999999998</ele>
        <time>2017-07-02T05:00:48Z</time>
      </trkpt>
      <trkpt lat="57.945207981392741" lon="11.856101034209132">
        <ele>38.109999999999999</ele>
        <time>2017-07-02T05:00:59Z</time>
      </trkpt>
      <trkpt lat="57.941935015842319" lon="11.860176986083388">
        <ele>40.990000000000002</ele>
        <time>2017-07-02T05:01:11Z</time>
      </trkpt>
      <trkpt lat="57.937601990997791" lon="11.866171974688768">
        <ele>35.229999999999997</ele>
        <time>2017-07-02T05:01:27Z</time>
      </trkpt>
      <trkpt lat="57.933895010501146" lon="11.870425958186388">
        <ele>31.379999999999999</ele>
        <time>2017-07-02T05:01:40Z</time>
      </trkpt>
      <trkpt lat="57.929757032543421" lon="11.874116007238626">
        <ele>34.259999999999998</ele>
        <time>2017-07-02T05:01:54Z</time>
      </trkpt>
      <trkpt lat="57.924563018605113" lon="11.877791974693537">
        <ele>36.189999999999998</ele>
        <time>2017-07-02T05:02:11Z</time>
      </trkpt>
      <trkpt lat="57.919994965195656" lon="11.881570033729076">
        <ele>37.149999999999999</ele>
        <time>2017-07-02T05:02:26Z</time>
      </trkpt>
      <trkpt lat="57.916849991306663" lon="11.885247007012367">
        <ele>37.149999999999999</ele>
        <time>2017-07-02T05:02:37Z</time>
      </trkpt>
      <trkpt lat="57.914173984900117" lon="11.889090025797486">
        <ele>37.149999999999999</ele>
        <time>2017-07-02T05:02:47Z</time>
      </trkpt>
      <trkpt lat="57.910444037988782" lon="11.895423978567123">
        <ele>33.780000000000001</ele>
        <time>2017-07-02T05:03:02Z</time>
      </trkpt>
      <trkpt lat="57.9072190169245" lon="11.901728007942438">
        <ele>26.57</ele>
        <time>2017-07-02T05:03:16Z</time>
      </trkpt>
      <trkpt lat="57.905158996582031" lon="11.90751101821661">
        <ele>21.289999999999999</ele>
        <time>2017-07-02T05:03:27Z</time>
      </trkpt>
      <trkpt lat="57.902046963572502" lon="11.91569996997714">
        <ele>20.32</ele>
        <time>2017-07-02T05:03:43Z</time>
      </trkpt>
      <trkpt lat="57.898861002177" lon="11.922689974308014">
        <ele>21.77</ele>
        <time>2017-07-02T05:03:58Z</time>
      </trkpt>
      <trkpt lat="57.896221037954092" lon="11.927874013781548">
        <ele>18.879999999999999</ele>
        <time>2017-07-02T05:04:10Z</time>
      </trkpt>
      <trkpt lat="57.892735004425049" lon="11.93389599211514">
        <ele>16.48</ele>
        <time>2017-07-02T05:04:25Z</time>
      </trkpt>
      <trkpt lat="57.888984018936753" lon="11.939363004639745">
        <ele>16.48</ele>
        <time>2017-07-02T05:04:40Z</time>
      </trkpt>
      <trkpt lat="57.885121973231435" lon="11.944375969469547">
        <ele>19.359999999999999</ele>
        <time>2017-07-02T05:04:55Z</time>
      </trkpt>
      <trkpt lat="57.88270203396678" lon="11.948036011308432">
        <ele>18.399999999999999</ele>
        <time>2017-07-02T05:05:05Z</time>
      </trkpt>
      <trkpt lat="57.881572991609573" lon="11.950115980580449">
        <ele>16</ele>
        <time>2017-07-02T05:05:11Z</time>
      </trkpt>
      <trkpt lat="57.879767026752234" lon="11.954186987131834">
        <ele>10.710000000000001</ele>
        <time>2017-07-02T05:05:23Z</time>
      </trkpt>
      <trkpt lat="57.877175007015467" lon="11.960307033732533">
        <ele>8.310000000000001</ele>
        <time>2017-07-02T05:05:41Z</time>
      </trkpt>
      <trkpt lat="57.875190004706383" lon="11.963676977902651">
        <ele>8.310000000000001</ele>
        <time>2017-07-02T05:05:53Z</time>
      </trkpt>
      <trkpt lat="57.873273985460401" lon="11.965878987684846">
        <ele>8.789999999999999</ele>
        <time>2017-07-02T05:06:03Z</time>
      </trkpt>
      <trkpt lat="57.870768969878554" lon="11.967690987512469">
        <ele>9.75</ele>
        <time>2017-07-02T05:06:15Z</time>
      </trkpt>
      <trkpt lat="57.867820970714092" lon="11.969737010076642">
        <ele>16.48</ele>
        <time>2017-07-02T05:06:28Z</time>
      </trkpt>
      <trkpt lat="57.865446964278817" lon="11.972303967922926">
        <ele>20.809999999999999</ele>
        <time>2017-07-02T05:06:39Z</time>
      </trkpt>
      <trkpt lat="57.863349979743361" lon="11.975003024563193">
        <ele>18.879999999999999</ele>
        <time>2017-07-02T05:06:49Z</time>
      </trkpt>
      <trkpt lat="57.861775020137429" lon="11.97806996293366">
        <ele>15.039999999999999</ele>
        <time>2017-07-02T05:06:58Z</time>
      </trkpt>
      <trkpt lat="57.860474986955523" lon="11.981817008927464">
        <ele>14.56</ele>
        <time>2017-07-02T05:07:08Z</time>
      </trkpt>
      <trkpt lat="57.859433032572269" lon="11.985196005553007">
        <ele>18.879999999999999</ele>
        <time>2017-07-02T05:07:16Z</time>
      </trkpt>
      <trkpt lat="57.857599994167686" lon="11.989717958495021">
        <ele>28.02</ele>
        <time>2017-07-02T05:07:27Z</time>
      </trkpt>
      <trkpt lat="57.855601999908686" lon="11.993297031149268">
        <ele>30.420000000000002</ele>
        <time>2017-07-02T05:07:37Z</time>
      </trkpt>
      <trkpt lat="57.852500025182962" lon="11.997983017936349">
        <ele>21.289999999999999</ele>
        <time>2017-07-02T05:07:51Z</time>
      </trkpt>
      <trkpt lat="57.850049994885921" lon="12.000724989920855">
        <ele>11.19</ele>
        <time>2017-07-02T05:08:01Z</time>
      </trkpt>
      <trkpt lat="57.847214983776212" lon="12.002860028296709">
        <ele>4.94</ele>
        <time>2017-07-02T05:08:12Z</time>
      </trkpt>
      <trkpt lat="57.843457041308284" lon="12.004755008965731">
        <ele>4.94</ele>
        <time>2017-07-02T05:08:26Z</time>
      </trkpt>
      <trkpt lat="57.839873023331165" lon="12.005719011649489">
        <ele>6.39</ele>
        <time>2017-07-02T05:08:39Z</time>
      </trkpt>
      <trkpt lat="57.836406016722322" lon="12.005724962800741">
        <ele>4.94</ele>
        <time>2017-07-02T05:08:51Z</time>
      </trkpt>
      <trkpt lat="57.832174999639392" lon="12.004982996731997">
        <ele>5.91</ele>
        <time>2017-07-02T05:09:06Z</time>
      </trkpt>
      <trkpt lat="57.82583199441433" lon="12.003996027633548">
        <ele>6.39</ele>
        <time>2017-07-02T05:09:29Z</time>
      </trkpt>
      <trkpt lat="57.821392016485333" lon="12.004103986546397">
        <ele>6.87</ele>
        <time>2017-07-02T05:09:45Z</time>
      </trkpt>
      <trkpt lat="57.817759970203042" lon="12.004831032827497">
        <ele>6.39</ele>
        <time>2017-07-02T05:09:58Z</time>
      </trkpt>
      <trkpt lat="57.814335040748119" lon="12.005469985306263">
        <ele>6.39</ele>
        <time>2017-07-02T05:10:10Z</time>
      </trkpt>
      <trkpt lat="57.80840702354908" lon="12.006656024605036">
        <ele>5.91</ele>
        <time>2017-07-02T05:10:31Z</time>
      </trkpt>
      <trkpt lat="57.802600041031837" lon="12.007680963724852">
        <ele>7.35</ele>
        <time>2017-07-02T05:10:51Z</time>
      </trkpt>
      <trkpt lat="57.799701998010278" lon="12.007197998464108">
        <ele>10.23</ele>
        <time>2017-07-02T05:11:01Z</time>
      </trkpt>
      <trkpt lat="57.796911997720599" lon="12.005968960002065">
        <ele>9.75</ele>
        <time>2017-07-02T05:11:11Z</time>
      </trkpt>
      <trkpt lat="57.794197015464306" lon="12.003955962136388">
        <ele>6.87</ele>
        <time>2017-07-02T05:11:23Z</time>
      </trkpt>
      <trkpt lat="57.79027596116066" lon="12.001365032047033">
        <ele>6.87</ele>
        <time>2017-07-02T05:11:41Z</time>
      </trkpt>
      <trkpt lat="57.787514040246606" lon="12.000275971367955">
        <ele>4.94</ele>
        <time>2017-07-02T05:11:53Z</time>
      </trkpt>
      <trkpt lat="57.784082992002368" lon="11.999514978379011">
        <ele>5.91</ele>
        <time>2017-07-02T05:12:08Z</time>
      </trkpt>
      <trkpt lat="57.778168972581625" lon="11.998346038162708">
        <ele>6.39</ele>
        <time>2017-07-02T05:12:33Z</time>
      </trkpt>
      <trkpt lat="57.774899024516344" lon="11.997372983023524">
        <ele>6.87</ele>
        <time>2017-07-02T05:12:47Z</time>
      </trkpt>
      <trkpt lat="57.769955964758992" lon="11.9955800101161">
        <ele>6.87</ele>
        <time>2017-07-02T05:13:09Z</time>
      </trkpt>
      <trkpt lat="57.766346968710423" lon="11.994211999699473">
        <ele>7.83</ele>
        <time>2017-07-02T05:13:24Z</time>
      </trkpt>
      <trkpt lat="57.761195031926036" lon="11.992396982386708">
        <ele>11.67</ele>
        <time>2017-07-02T05:13:45Z</time>
      </trkpt>
      <trkpt lat="57.757568014785647" lon="11.991531969979405">
        <ele>6.87</ele>
        <time>2017-07-02T05:13:59Z</time>
      </trkpt>
      <trkpt lat="57.754571987316012" lon="11.991328038275242">
        <ele>10.23</ele>
        <time>2017-07-02T05:14:11Z</time>
      </trkpt>
      <trkpt lat="57.751088971272111" lon="11.991156963631511">
        <ele>10.710000000000001</ele>
        <time>2017-07-02T05:14:26Z</time>
      </trkpt>
      <trkpt lat="57.748270975425839" lon="11.990293962880969">
        <ele>8.789999999999999</ele>
        <time>2017-07-02T05:14:39Z</time>
      </trkpt>
      <trkpt lat="57.744114976376295" lon="11.98881003074348">
        <ele>10.23</ele>
        <time>2017-07-02T05:14:58Z</time>
      </trkpt>
      <trkpt lat="57.739731995388865" lon="11.987236998975277">
        <ele>10.710000000000001</ele>
        <time>2017-07-02T05:15:18Z</time>
      </trkpt>
      <trkpt lat="57.735296040773392" lon="11.985687017440796">
        <ele>13.119999999999999</ele>
        <time>2017-07-02T05:15:38Z</time>
      </trkpt>
      <trkpt lat="57.733782017603517" lon="11.98503096587956">
        <ele>13.119999999999999</ele>
        <time>2017-07-02T05:15:46Z</time>
      </trkpt>
      <trkpt lat="57.730716001242399" lon="11.983347041532397">
        <ele>8.310000000000001</ele>
        <time>2017-07-02T05:16:05Z</time>
      </trkpt>
      <trkpt lat="57.728888997808099" lon="11.982100987806916">
        <ele>9.75</ele>
        <time>2017-07-02T05:16:17Z</time>
      </trkpt>
      <trkpt lat="57.728415001183748" lon="11.98180602863431">
        <ele>8.310000000000001</ele>
        <time>2017-07-02T05:16:20Z</time>
      </trkpt>
      <trkpt lat="57.728255996480584" lon="11.98176403529942">
        <ele>8.310000000000001</ele>
        <time>2017-07-02T05:16:21Z</time>
      </trkpt>
      <trkpt lat="57.726950012147427" lon="11.981183001771569">
        <ele>3.5</ele>
        <time>2017-07-02T05:16:29Z</time>
      </trkpt>
      <trkpt lat="57.726109977811575" lon="11.980811012908816">
        <ele>4.46</ele>
        <time>2017-07-02T05:16:34Z</time>
      </trkpt>
      <trkpt lat="57.725936975330114" lon="11.980804977938533">
        <ele>4.94</ele>
        <time>2017-07-02T05:16:35Z</time>
      </trkpt>
      <trkpt lat="57.725769001990557" lon="11.98084102012217">
        <ele>5.42</ele>
        <time>2017-07-02T05:16:36Z</time>
      </trkpt>
      <trkpt lat="57.72560304030776" lon="11.980914026498795">
        <ele>5.91</ele>
        <time>2017-07-02T05:16:37Z</time>
      </trkpt>
      <trkpt lat="57.725445041432977" lon="11.981017962098122">
        <ele>6.39</ele>
        <time>2017-07-02T05:16:38Z</time>
      </trkpt>
      <trkpt lat="57.725311014801264" lon="11.981167998164892">
        <ele>6.87</ele>
        <time>2017-07-02T05:16:39Z</time>
      </trkpt>
      <trkpt lat="57.725168019533157" lon="11.98133597150445">
        <ele>6.87</ele>
        <time>2017-07-02T05:16:40Z</time>
      </trkpt>
      <trkpt lat="57.725037010386586" lon="11.981536969542503">
        <ele>7.83</ele>
        <time>2017-07-02T05:16:41Z</time>
      </trkpt>
      <trkpt lat="57.724902983754873" lon="11.981741990894079">
        <ele>7.83</ele>
        <time>2017-07-02T05:16:42Z</time>
      </trkpt>
      <trkpt lat="57.724770968779922" lon="11.981965033337474">
        <ele>6.87</ele>
        <time>2017-07-02T05:16:43Z</time>
      </trkpt>
      <trkpt lat="57.723469007760286" lon="11.984309032559395">
        <ele>0.14</ele>
        <time>2017-07-02T05:16:53Z</time>
      </trkpt>
      <trkpt lat="57.719264980405569" lon="11.989265000447631">
        <ele>-10.92</ele>
        <time>2017-07-02T05:17:18Z</time>
      </trkpt>
      <trkpt lat="57.719073034822941" lon="11.989472033455968">
        <ele>-12.84</ele>
        <time>2017-07-02T05:17:19Z</time>
      </trkpt>
      <trkpt lat="57.71950202062726" lon="11.990352971479297">
        <ele>-2.75</ele>
        <time>2017-07-02T05:17:20Z</time>
      </trkpt>
      <trkpt lat="57.719362964853644" lon="11.990547012537718">
        <ele>-0.34</ele>
        <time>2017-07-02T05:17:21Z</time>
      </trkpt>
      <trkpt lat="57.717861011624336" lon="11.992188021540642">
        <ele>-1.79</ele>
        <time>2017-07-02T05:17:31Z</time>
      </trkpt>
      <trkpt lat="57.715927977114916" lon="11.993408007547259">
        <ele>2.54</ele>
        <time>2017-07-02T05:17:42Z</time>
      </trkpt>
      <trkpt lat="57.715063970535994" lon="11.993673965334892">
        <ele>3.02</ele>
        <time>2017-07-02T05:17:47Z</time>
      </trkpt>
      <trkpt lat="57.713398989289999" lon="11.99420303106308">
        <ele>5.91</ele>
        <time>2017-07-02T05:17:57Z</time>
      </trkpt>
      <trkpt lat="57.713259011507034" lon="11.994296992197633">
        <ele>6.87</ele>
        <time>2017-07-02T05:17:58Z</time>
      </trkpt>
      <trkpt lat="57.712668003514409" lon="11.99480602517724">
        <ele>9.75</ele>
        <time>2017-07-02T05:18:02Z</time>
      </trkpt>
      <trkpt lat="57.71252098493278" lon="11.994993025436997">
        <ele>10.23</ele>
        <time>2017-07-02T05:18:03Z</time>
      </trkpt>
      <trkpt lat="57.712384024634957" lon="11.995203997939825">
        <ele>10.710000000000001</ele>
        <time>2017-07-02T05:18:04Z</time>
      </trkpt>
      <trkpt lat="57.711567962542176" lon="11.996594974771142">
        <ele>10.23</ele>
        <time>2017-07-02T05:18:10Z</time>
      </trkpt>
      <trkpt lat="57.711400995030999" lon="11.996746016666293">
        <ele>9.75</ele>
        <time>2017-07-02T05:18:11Z</time>
      </trkpt>
      <trkpt lat="57.711224975064397" lon="11.996864033862948">
        <ele>9.75</ele>
        <time>2017-07-02T05:18:12Z</time>
      </trkpt>
      <trkpt lat="57.711046021431684" lon="11.996936034411192">
        <ele>10.23</ele>
        <time>2017-07-02T05:18:13Z</time>
      </trkpt>
      <trkpt lat="57.710862960666418" lon="11.996981967240572">
        <ele>9.75</ele>
        <time>2017-07-02T05:18:14Z</time>
      </trkpt>
      <trkpt lat="57.71067202091217" lon="11.996993031352758">
        <ele>9.75</ele>
        <time>2017-07-02T05:18:15Z</time>
      </trkpt>
      <trkpt lat="57.710476974025369" lon="11.996980961412191">
        <ele>9.75</ele>
        <time>2017-07-02T05:18:16Z</time>
      </trkpt>
      <trkpt lat="57.71028796210885" lon="11.996946008875966">
        <ele>10.23</ele>
        <time>2017-07-02T05:18:17Z</time>
      </trkpt>
      <trkpt lat="57.710095010697842" lon="11.996895968914032">
        <ele>10.23</ele>
        <time>2017-07-02T05:18:18Z</time>
      </trkpt>
      <trkpt lat="57.707548001781106" lon="11.995983012020588">
        <ele>8.310000000000001</ele>
        <time>2017-07-02T05:18:32Z</time>
      </trkpt>
      <trkpt lat="57.705420004203916" lon="11.995368031784892">
        <ele>10.23</ele>
        <time>2017-07-02T05:18:44Z</time>
      </trkpt>
      <trkpt lat="57.702066991478205" lon="11.994731007143855">
        <ele>10.23</ele>
        <time>2017-07-02T05:19:02Z</time>
      </trkpt>
      <trkpt lat="57.699232986196876" lon="11.995140966027975">
        <ele>10.23</ele>
        <time>2017-07-02T05:19:18Z</time>
      </trkpt>
      <trkpt lat="57.697070958092809" lon="11.99577203951776">
        <ele>13.6</ele>
        <time>2017-07-02T05:19:30Z</time>
      </trkpt>
      <trkpt lat="57.694562003016472" lon="11.996953971683979">
        <ele>12.15</ele>
        <time>2017-07-02T05:19:44Z</time>
      </trkpt>
      <trkpt lat="57.691307980567217" lon="11.998420972377062">
        <ele>15.52</ele>
        <time>2017-07-02T05:20:02Z</time>
      </trkpt>
      <trkpt lat="57.689682980999351" lon="11.999900965020061">
        <ele>11.67</ele>
        <time>2017-07-02T05:20:11Z</time>
      </trkpt>
      <trkpt lat="57.687631007283926" lon="12.001654040068388">
        <ele>7.83</ele>
        <time>2017-07-02T05:20:22Z</time>
      </trkpt>
      <trkpt lat="57.684045983478427" lon="12.004616959020495">
        <ele>7.35</ele>
        <time>2017-07-02T05:20:41Z</time>
      </trkpt>
      <trkpt lat="57.681136960163713" lon="12.006912007927895">
        <ele>8.310000000000001</ele>
        <time>2017-07-02T05:20:56Z</time>
      </trkpt>
      <trkpt lat="57.678490960970521" lon="12.008400969207287">
        <ele>9.27</ele>
        <time>2017-07-02T05:21:09Z</time>
      </trkpt>
      <trkpt lat="57.676492966711521" lon="12.009561024606228">
        <ele>9.27</ele>
        <time>2017-07-02T05:21:19Z</time>
      </trkpt>
      <trkpt lat="57.67219003289938" lon="12.012324035167694">
        <ele>5.42</ele>
        <time>2017-07-02T05:21:40Z</time>
      </trkpt>
      <trkpt lat="57.668567961081862" lon="12.014003014191985">
        <ele>7.83</ele>
        <time>2017-07-02T05:21:57Z</time>
      </trkpt>
      <trkpt lat="57.665726998820901" lon="12.014891998842359">
        <ele>9.27</ele>
        <time>2017-07-02T05:22:10Z</time>
      </trkpt>
      <trkpt lat="57.662872038781643" lon="12.015953985974193">
        <ele>6.39</ele>
        <time>2017-07-02T05:22:23Z</time>
      </trkpt>
      <trkpt lat="57.659189030528069" lon="12.017027959227562">
        <ele>6.39</ele>
        <time>2017-07-02T05:22:40Z</time>
      </trkpt>
      <trkpt lat="57.655026996508241" lon="12.018356993794441">
        <ele>6.39</ele>
        <time>2017-07-02T05:22:59Z</time>
      </trkpt>
      <trkpt lat="57.651348011568189" lon="12.020075032487512">
        <ele>6.87</ele>
        <time>2017-07-02T05:23:16Z</time>
      </trkpt>
      <trkpt lat="57.647585961967707" lon="12.022150978446007">
        <ele>7.83</ele>
        <time>2017-07-02T05:23:34Z</time>
      </trkpt>
      <trkpt lat="57.64535604044795" lon="12.023443970829248">
        <ele>11.19</ele>
        <time>2017-07-02T05:23:44Z</time>
      </trkpt>
      <trkpt lat="57.643323009833694" lon="12.02516402117908">
        <ele>13.119999999999999</ele>
        <time>2017-07-02T05:23:54Z</time>
      </trkpt>
      <trkpt lat="57.638873979449272" lon="12.029487993568182">
        <ele>14.08</ele>
        <time>2017-07-02T05:24:17Z</time>
      </trkpt>
      <trkpt lat="57.634889977052808" lon="12.032773029059172">
        <ele>14.56</ele>
        <time>2017-07-02T05:24:36Z</time>
      </trkpt>
      <trkpt lat="57.632176000624895" lon="12.034418983384967">
        <ele>16</ele>
        <time>2017-07-02T05:24:48Z</time>
      </trkpt>
      <trkpt lat="57.629381977021694" lon="12.035234961658716">
        <ele>15.52</ele>
        <time>2017-07-02T05:25:00Z</time>
      </trkpt>
      <trkpt lat="57.625829977914691" lon="12.035672999918461">
        <ele>19.359999999999999</ele>
        <time>2017-07-02T05:25:16Z</time>
      </trkpt>
      <trkpt lat="57.622435977682471" lon="12.03638001345098">
        <ele>18.879999999999999</ele>
        <time>2017-07-02T05:25:32Z</time>
      </trkpt>
      <trkpt lat="57.620476959273219" lon="12.037797980010509">
        <ele>16.48</ele>
        <time>2017-07-02T05:25:42Z</time>
      </trkpt>
      <trkpt lat="57.618122985586524" lon="12.040535006672144">
        <ele>14.56</ele>
        <time>2017-07-02T05:25:55Z</time>
      </trkpt>
      <trkpt lat="57.616368988528848" lon="12.042234018445015">
        <ele>15.039999999999999</ele>
        <time>2017-07-02T05:26:04Z</time>
      </trkpt>
      <trkpt lat="57.613821979612112" lon="12.04392003826797">
        <ele>14.08</ele>
        <time>2017-07-02T05:26:16Z</time>
      </trkpt>
      <trkpt lat="57.609915006905794" lon="12.045745030045509">
        <ele>14.08</ele>
        <time>2017-07-02T05:26:34Z</time>
      </trkpt>
      <trkpt lat="57.607338996604085" lon="12.04750900156796">
        <ele>11.67</ele>
        <time>2017-07-02T05:26:46Z</time>
      </trkpt>
      <trkpt lat="57.604537010192871" lon="12.050477033481002">
        <ele>13.6</ele>
        <time>2017-07-02T05:27:00Z</time>
      </trkpt>
      <trkpt lat="57.601979020982981" lon="12.054307982325554">
        <ele>20.809999999999999</ele>
        <time>2017-07-02T05:27:14Z</time>
      </trkpt>
      <trkpt lat="57.600160986185074" lon="12.056478979066014">
        <ele>24.649999999999999</ele>
        <time>2017-07-02T05:27:23Z</time>
      </trkpt>
      <trkpt lat="57.598146982491016" lon="12.057632999494672">
        <ele>24.649999999999999</ele>
        <time>2017-07-02T05:27:32Z</time>
      </trkpt>
      <trkpt lat="57.595680020749569" lon="12.059223968535662">
        <ele>24.649999999999999</ele>
        <time>2017-07-02T05:27:43Z</time>
      </trkpt>
      <trkpt lat="57.59102001786232" lon="12.062535993754864">
        <ele>30.420000000000002</ele>
        <time>2017-07-02T05:28:04Z</time>
      </trkpt>
      <trkpt lat="57.588544003665447" lon="12.063723960891366">
        <ele>38.590000000000003</ele>
        <time>2017-07-02T05:28:15Z</time>
      </trkpt>
      <trkpt lat="57.586162034422159" lon="12.063883971422911">
        <ele>41.950000000000003</ele>
        <time>2017-07-02T05:28:25Z</time>
      </trkpt>
      <trkpt lat="57.583463983610272" lon="12.06310797482729">
        <ele>39.549999999999997</ele>
        <time>2017-07-02T05:28:36Z</time>
      </trkpt>
      <trkpt lat="57.578650005161762" lon="12.061236966401339">
        <ele>35.229999999999997</ele>
        <time>2017-07-02T05:28:55Z</time>
      </trkpt>
      <trkpt lat="57.573269996792078" lon="12.058852985501289">
        <ele>36.189999999999998</ele>
        <time>2017-07-02T05:29:15Z</time>
      </trkpt>
      <trkpt lat="57.570114964619279" lon="12.057151962071657">
        <ele>36.670000000000002</ele>
        <time>2017-07-02T05:29:27Z</time>
      </trkpt>
      <trkpt lat="57.566804029047489" lon="12.05483797006309">
        <ele>39.07</ele>
        <time>2017-07-02T05:29:40Z</time>
      </trkpt>
      <trkpt lat="57.564057027921081" lon="12.053260998800397">
        <ele>40.509999999999998</ele>
        <time>2017-07-02T05:29:51Z</time>
      </trkpt>
      <trkpt lat="57.56141496822238" lon="12.052634032443166">
        <ele>41.469999999999999</ele>
        <time>2017-07-02T05:30:01Z</time>
      </trkpt>
      <trkpt lat="57.558004036545753" lon="12.052603019401431">
        <ele>42.920000000000002</ele>
        <time>2017-07-02T05:30:13Z</time>
      </trkpt>
      <trkpt lat="57.551989015191793" lon="12.052996968850493">
        <ele>46.280000000000001</ele>
        <time>2017-07-02T05:30:34Z</time>
      </trkpt>
      <trkpt lat="57.546523008495569" lon="12.052728999406099">
        <ele>44.840000000000003</ele>
        <time>2017-07-02T05:30:53Z</time>
      </trkpt>
      <trkpt lat="57.541697965934873" lon="12.052045958116651">
        <ele>42.920000000000002</ele>
        <time>2017-07-02T05:31:10Z</time>
      </trkpt>
      <trkpt lat="57.537531992420554" lon="12.051240038126707">
        <ele>40.990000000000002</ele>
        <time>2017-07-02T05:31:25Z</time>
      </trkpt>
      <trkpt lat="57.534474022686481" lon="12.050472004339099">
        <ele>39.549999999999997</ele>
        <time>2017-07-02T05:31:39Z</time>
      </trkpt>
      <trkpt lat="57.530977008864284" lon="12.049533985555172">
        <ele>37.630000000000003</ele>
        <time>2017-07-02T05:31:57Z</time>
      </trkpt>
      <trkpt lat="57.529354020953178" lon="12.04953096807003">
        <ele>39.07</ele>
        <time>2017-07-02T05:32:06Z</time>
      </trkpt>
      <trkpt lat="57.529166014865041" lon="12.049486041069031">
        <ele>39.07</ele>
        <time>2017-07-02T05:32:07Z</time>
      </trkpt>
      <trkpt lat="57.527345968410373" lon="12.048923028632998">
        <ele>36.670000000000002</ele>
        <time>2017-07-02T05:32:16Z</time>
      </trkpt>
      <trkpt lat="57.525419974699616" lon="12.048944989219308">
        <ele>32.82</ele>
        <time>2017-07-02T05:32:24Z</time>
      </trkpt>
      <trkpt lat="57.521985992789268" lon="12.049449998885393">
        <ele>27.530000000000001</ele>
        <time>2017-07-02T05:32:36Z</time>
      </trkpt>
      <trkpt lat="57.517062965780497" lon="12.050607036799192">
        <ele>18.879999999999999</ele>
        <time>2017-07-02T05:32:53Z</time>
      </trkpt>
      <trkpt lat="57.514043971896172" lon="12.051379010081291">
        <ele>13.6</ele>
        <time>2017-07-02T05:33:04Z</time>
      </trkpt>
      <trkpt lat="57.510805958881974" lon="12.051925007253885">
        <ele>8.789999999999999</ele>
        <time>2017-07-02T05:33:15Z</time>
      </trkpt>
      <trkpt lat="57.506864033639431" lon="12.052497994154692">
        <ele>4.46</ele>
        <time>2017-07-02T05:33:28Z</time>
      </trkpt>
      <trkpt lat="57.503366013988853" lon="12.0525580085814">
        <ele>6.87</ele>
        <time>2017-07-02T05:33:40Z</time>
      </trkpt>
      <trkpt lat="57.499878974631429" lon="12.051847977563739">
        <ele>17.440000000000001</ele>
        <time>2017-07-02T05:33:52Z</time>
      </trkpt>
      <trkpt lat="57.496445998549461" lon="12.050287015736103">
        <ele>28.5</ele>
        <time>2017-07-02T05:34:04Z</time>
      </trkpt>
      <trkpt lat="57.49253299087286" lon="12.047987021505833">
        <ele>38.109999999999999</ele>
        <time>2017-07-02T05:34:18Z</time>
      </trkpt>
      <trkpt lat="57.486894987523556" lon="12.044858979061246">
        <ele>33.780000000000001</ele>
        <time>2017-07-02T05:34:37Z</time>
      </trkpt>
      <trkpt lat="57.482688026502728" lon="12.043201960623264">
        <ele>36.189999999999998</ele>
        <time>2017-07-02T05:34:51Z</time>
      </trkpt>
      <trkpt lat="57.480249982327223" lon="12.043275972828269">
        <ele>35.710000000000001</ele>
        <time>2017-07-02T05:34:59Z</time>
      </trkpt>
      <trkpt lat="57.478165989741683" lon="12.044313987717032">
        <ele>32.340000000000003</ele>
        <time>2017-07-02T05:35:06Z</time>
      </trkpt>
      <trkpt lat="57.476221974939108" lon="12.046215003356338">
        <ele>26.57</ele>
        <time>2017-07-02T05:35:13Z</time>
      </trkpt>
      <trkpt lat="57.474521035328507" lon="12.048964016139507">
        <ele>19.359999999999999</ele>
        <time>2017-07-02T05:35:20Z</time>
      </trkpt>
      <trkpt lat="57.473213961347938" lon="12.052446026355028">
        <ele>11.19</ele>
        <time>2017-07-02T05:35:27Z</time>
      </trkpt>
      <trkpt lat="57.471548980101943" lon="12.058108001947403">
        <ele>4.94</ele>
        <time>2017-07-02T05:35:38Z</time>
      </trkpt>
      <trkpt lat="57.469766987487674" lon="12.063262034207582">
        <ele>3.02</ele>
        <time>2017-07-02T05:35:49Z</time>
      </trkpt>
      <trkpt lat="57.467193994671106" lon="12.068854020908475">
        <ele>2.54</ele>
        <time>2017-07-02T05:36:02Z</time>
      </trkpt>
      <trkpt lat="57.463048975914717" lon="12.076272005215287">
        <ele>3.02</ele>
        <time>2017-07-02T05:36:21Z</time>
      </trkpt>
      <trkpt lat="57.457341989502311" lon="12.085812035948038">
        <ele>3.02</ele>
        <time>2017-07-02T05:36:46Z</time>
      </trkpt>
      <trkpt lat="57.453512968495488" lon="12.091986984014511">
        <ele>9.27</ele>
        <time>2017-07-02T05:37:02Z</time>
      </trkpt>
      <trkpt lat="57.450956990942359" lon="12.095994036644697">
        <ele>20.32</ele>
        <time>2017-07-02T05:37:13Z</time>
      </trkpt>
      <trkpt lat="57.448351979255676" lon="12.101034997031093">
        <ele>31.379999999999999</ele>
        <time>2017-07-02T05:37:25Z</time>
      </trkpt>
      <trkpt lat="57.445932039991021" lon="12.106435038149357">
        <ele>34.740000000000002</ele>
        <time>2017-07-02T05:37:37Z</time>
      </trkpt>
      <trkpt lat="57.442068988457322" lon="12.115836013108492">
        <ele>32.82</ele>
        <time>2017-07-02T05:37:57Z</time>
      </trkpt>
      <trkpt lat="57.439346965402365" lon="12.123382994905114">
        <ele>17.920000000000002</ele>
        <time>2017-07-02T05:38:12Z</time>
      </trkpt>
      <trkpt lat="57.437777034938335" lon="12.129364991560578">
        <ele>6.39</ele>
        <time>2017-07-02T05:38:23Z</time>
      </trkpt>
      <trkpt lat="57.436181036755443" lon="12.137630973011255">
        <ele>3.98</ele>
        <time>2017-07-02T05:38:38Z</time>
      </trkpt>
      <trkpt lat="57.434355961158872" lon="12.146869003772736">
        <ele>7.83</ele>
        <time>2017-07-02T05:38:55Z</time>
      </trkpt>
      <trkpt lat="57.432989040389657" lon="12.151375031098723">
        <ele>10.710000000000001</ele>
        <time>2017-07-02T05:39:04Z</time>
      </trkpt>
      <trkpt lat="57.431260021403432" lon="12.155452994629741">
        <ele>16.48</ele>
        <time>2017-07-02T05:39:13Z</time>
      </trkpt>
      <trkpt lat="57.428967989981174" lon="12.159291990101337">
        <ele>29.940000000000001</ele>
        <time>2017-07-02T05:39:23Z</time>
      </trkpt>
      <trkpt lat="57.426268011331558" lon="12.162424977868795">
        <ele>37.630000000000003</ele>
        <time>2017-07-02T05:39:33Z</time>
      </trkpt>
      <trkpt lat="57.423025975003839" lon="12.164998976513743">
        <ele>30.420000000000002</ele>
        <time>2017-07-02T05:39:44Z</time>
      </trkpt>
      <trkpt lat="57.41948202252388" lon="12.16731196269393">
        <ele>14.56</ele>
        <time>2017-07-02T05:39:56Z</time>
      </trkpt>
      <trkpt lat="57.415533978492022" lon="12.169608017429709">
        <ele>9.75</ele>
        <time>2017-07-02T05:40:10Z</time>
      </trkpt>
      <trkpt lat="57.41043602116406" lon="12.173008974641562">
        <ele>20.32</ele>
        <time>2017-07-02T05:40:28Z</time>
      </trkpt>
      <trkpt lat="57.406974965706468" lon="12.176326029002666">
        <ele>31.859999999999999</ele>
        <time>2017-07-02T05:40:41Z</time>
      </trkpt>
      <trkpt lat="57.403452973812819" lon="12.180646983906627">
        <ele>50.609999999999999</ele>
        <time>2017-07-02T05:40:55Z</time>
      </trkpt>
      <trkpt lat="57.400132985785604" lon="12.185351997613907">
        <ele>68.390000000000001</ele>
        <time>2017-07-02T05:41:09Z</time>
      </trkpt>
      <trkpt lat="57.397649008780718" lon="12.187758022919297">
        <ele>75.120000000000005</ele>
        <time>2017-07-02T05:41:18Z</time>
      </trkpt>
      <trkpt lat="57.395540960133076" lon="12.188816992565989">
        <ele>75.599999999999994</ele>
        <time>2017-07-02T05:41:25Z</time>
      </trkpt>
      <trkpt lat="57.393342973664403" lon="12.189045986160636">
        <ele>71.269999999999996</ele>
        <time>2017-07-02T05:41:32Z</time>
      </trkpt>
      <trkpt lat="57.390463035553694" lon="12.188927968963981">
        <ele>65.989999999999995</ele>
        <time>2017-07-02T05:41:41Z</time>
      </trkpt>
      <trkpt lat="57.387975035235286" lon="12.189971012994647">
        <ele>60.700000000000003</ele>
        <time>2017-07-02T05:41:49Z</time>
      </trkpt>
      <trkpt lat="57.382556973025203" lon="12.193303992971778">
        <ele>53.009999999999998</ele>
        <time>2017-07-02T05:42:07Z</time>
      </trkpt>
      <trkpt lat="57.378064021468163" lon="12.196736969053745">
        <ele>48.68</ele>
        <time>2017-07-02T05:42:22Z</time>
      </trkpt>
      <trkpt lat="57.373047033324838" lon="12.200453002005816">
        <ele>40.509999999999998</ele>
        <time>2017-07-02T05:42:39Z</time>
      </trkpt>
      <trkpt lat="57.366660023108125" lon="12.204732969403267">
        <ele>33.299999999999997</ele>
        <time>2017-07-02T05:43:00Z</time>
      </trkpt>
      <trkpt lat="57.361844033002853" lon="12.207334041595459">
        <ele>32.82</ele>
        <time>2017-07-02T05:43:16Z</time>
      </trkpt>
      <trkpt lat="57.357745030894876" lon="12.208821997046471">
        <ele>42.439999999999998</ele>
        <time>2017-07-02T05:43:30Z</time>
      </trkpt>
      <trkpt lat="57.353934030979872" lon="12.209540996700525">
        <ele>48.68</ele>
        <time>2017-07-02T05:43:43Z</time>
      </trkpt>
      <trkpt lat="57.350431988015771" lon="12.209452986717224">
        <ele>47.719999999999999</ele>
        <time>2017-07-02T05:43:55Z</time>
      </trkpt>
      <trkpt lat="57.346981996670365" lon="12.208425030112267">
        <ele>46.759999999999998</ele>
        <time>2017-07-02T05:44:07Z</time>
      </trkpt>
      <trkpt lat="57.341156993061304" lon="12.206497024744749">
        <ele>45.799999999999997</ele>
        <time>2017-07-02T05:44:27Z</time>
      </trkpt>
      <trkpt lat="57.336875014007092" lon="12.205772995948792">
        <ele>43.880000000000003</ele>
        <time>2017-07-02T05:44:41Z</time>
      </trkpt>
      <trkpt lat="57.332762014120817" lon="12.205810965970159">
        <ele>38.590000000000003</ele>
        <time>2017-07-02T05:44:54Z</time>
      </trkpt>
      <trkpt lat="57.328771976754069" lon="12.206214973703027">
        <ele>23.210000000000001</ele>
        <time>2017-07-02T05:45:07Z</time>
      </trkpt>
      <trkpt lat="57.323948023840785" lon="12.207245025783777">
        <ele>12.15</ele>
        <time>2017-07-02T05:45:23Z</time>
      </trkpt>
      <trkpt lat="57.31906003318727" lon="12.20871496014297">
        <ele>12.630000000000001</ele>
        <time>2017-07-02T05:45:40Z</time>
      </trkpt>
      <trkpt lat="57.313720006495714" lon="12.210941025987267">
        <ele>32.340000000000003</ele>
        <time>2017-07-02T05:45:59Z</time>
      </trkpt>
      <trkpt lat="57.308635041117668" lon="12.213300028815866">
        <ele>39.07</ele>
        <time>2017-07-02T05:46:17Z</time>
      </trkpt>
      <trkpt lat="57.304439982399344" lon="12.214442985132337">
        <ele>19.84</ele>
        <time>2017-07-02T05:46:31Z</time>
      </trkpt>
      <trkpt lat="57.300288006663322" lon="12.214959980919957">
        <ele>14.56</ele>
        <time>2017-07-02T05:46:45Z</time>
      </trkpt>
      <trkpt lat="57.294286983087659" lon="12.215598011389375">
        <ele>25.129999999999999</ele>
        <time>2017-07-02T05:47:05Z</time>
      </trkpt>
      <trkpt lat="57.288837991654873" lon="12.215913003310561">
        <ele>38.590000000000003</ele>
        <time>2017-07-02T05:47:23Z</time>
      </trkpt>
      <trkpt lat="57.282745018601418" lon="12.215611003339291">
        <ele>51.090000000000003</ele>
        <time>2017-07-02T05:47:44Z</time>
      </trkpt>
      <trkpt lat="57.278742995113134" lon="12.215256029739976">
        <ele>54.93</ele>
        <time>2017-07-02T05:47:58Z</time>
      </trkpt>
      <trkpt lat="57.273572031408548" lon="12.215087972581387">
        <ele>53.490000000000002</ele>
        <time>2017-07-02T05:48:16Z</time>
      </trkpt>
      <trkpt lat="57.267228020355105" lon="12.215267010033131">
        <ele>32.340000000000003</ele>
        <time>2017-07-02T05:48:37Z</time>
      </trkpt>
      <trkpt lat="57.260370030999184" lon="12.215901017189026">
        <ele>16.48</ele>
        <time>2017-07-02T05:48:59Z</time>
      </trkpt>
      <trkpt lat="57.255287999287248" lon="12.2167709749192">
        <ele>22.25</ele>
        <time>2017-07-02T05:49:16Z</time>
      </trkpt>
      <trkpt lat="57.25123300217092" lon="12.217596005648375">
        <ele>27.050000000000001</ele>
        <time>2017-07-02T05:49:30Z</time>
      </trkpt>
      <trkpt lat="57.245978973805904" lon="12.218881035223603">
        <ele>29.940000000000001</ele>
        <time>2017-07-02T05:49:48Z</time>
      </trkpt>
      <trkpt lat="57.24096198566258" lon="12.220450965687633">
        <ele>28.02</ele>
        <time>2017-07-02T05:50:05Z</time>
      </trkpt>
      <trkpt lat="57.236974965780973" lon="12.222261959686875">
        <ele>24.649999999999999</ele>
        <time>2017-07-02T05:50:19Z</time>
      </trkpt>
      <trkpt lat="57.232413031160831" lon="12.225347002968192">
        <ele>14.56</ele>
        <time>2017-07-02T05:50:35Z</time>
      </trkpt>
      <trkpt lat="57.228632038459182" lon="12.228775033727288">
        <ele>5.42</ele>
        <time>2017-07-02T05:50:49Z</time>
      </trkpt>
      <trkpt lat="57.225830974057317" lon="12.231404017657042">
        <ele>4.94</ele>
        <time>2017-07-02T05:51:00Z</time>
      </trkpt>
      <trkpt lat="57.221874967217445" lon="12.234747977927327">
        <ele>6.87</ele>
        <time>2017-07-02T05:51:15Z</time>
      </trkpt>
      <trkpt lat="57.217470025643706" lon="12.237540995702147">
        <ele>16.48</ele>
        <time>2017-07-02T05:51:31Z</time>
      </trkpt>
      <trkpt lat="57.212339965626597" lon="12.240313980728388">
        <ele>23.210000000000001</ele>
        <time>2017-07-02T05:51:49Z</time>
      </trkpt>
      <trkpt lat="57.208294020965695" lon="12.242750013247132">
        <ele>24.170000000000002</ele>
        <time>2017-07-02T05:52:03Z</time>
      </trkpt>
      <trkpt lat="57.20585698261857" lon="12.244353974238038">
        <ele>26.57</ele>
        <time>2017-07-02T05:52:12Z</time>
      </trkpt>
      <trkpt lat="57.20218101516366" lon="12.247504983097315">
        <ele>41.469999999999999</ele>
        <time>2017-07-02T05:52:26Z</time>
      </trkpt>
      <trkpt lat="57.197894006967545" lon="12.251053964719176">
        <ele>53.490000000000002</ele>
        <time>2017-07-02T05:52:42Z</time>
      </trkpt>
      <trkpt lat="57.193881003186107" lon="12.253622012212873">
        <ele>51.57</ele>
        <time>2017-07-02T05:52:56Z</time>
      </trkpt>
      <trkpt lat="57.190743992105126" lon="12.255810024216771">
        <ele>41.469999999999999</ele>
        <time>2017-07-02T05:53:07Z</time>
      </trkpt>
      <trkpt lat="57.187834968790412" lon="12.258690968155861">
        <ele>34.259999999999998</ele>
        <time>2017-07-02T05:53:18Z</time>
      </trkpt>
      <trkpt lat="57.183867981657386" lon="12.263642996549606">
        <ele>30.420000000000002</ele>
        <time>2017-07-02T05:53:34Z</time>
      </trkpt>
      <trkpt lat="57.18026602640748" lon="12.268951004371047">
        <ele>28.98</ele>
        <time>2017-07-02T05:53:49Z</time>
      </trkpt>
      <trkpt lat="57.177217025309801" lon="12.273215968161821">
        <ele>27.530000000000001</ele>
        <time>2017-07-02T05:54:02Z</time>
      </trkpt>
      <trkpt lat="57.174513023346663" lon="12.275741016492248">
        <ele>25.609999999999999</ele>
        <time>2017-07-02T05:54:12Z</time>
      </trkpt>
      <trkpt lat="57.170117972418666" lon="12.279010964557528">
        <ele>16.48</ele>
        <time>2017-07-02T05:54:28Z</time>
      </trkpt>
      <trkpt lat="57.164829997345805" lon="12.282659020274878">
        <ele>10.710000000000001</ele>
        <time>2017-07-02T05:54:47Z</time>
      </trkpt>
      <trkpt lat="57.160180974751711" lon="12.286220993846655">
        <ele>6.39</ele>
        <time>2017-07-02T05:55:04Z</time>
      </trkpt>
      <trkpt lat="57.155697997659445" lon="12.290305998176336">
        <ele>11.67</ele>
        <time>2017-07-02T05:55:21Z</time>
      </trkpt>
      <trkpt lat="57.152587976306677" lon="12.293399004265666">
        <ele>22.73</ele>
        <time>2017-07-02T05:55:34Z</time>
      </trkpt>
      <trkpt lat="57.149311993271112" lon="12.29639695957303">
        <ele>28.5</ele>
        <time>2017-07-02T05:55:47Z</time>
      </trkpt>
      <trkpt lat="57.143299989402294" lon="12.301703039556742">
        <ele>22.25</ele>
        <time>2017-07-02T05:56:09Z</time>
      </trkpt>
      <trkpt lat="57.137429974973202" lon="12.306483993306756">
        <ele>15.039999999999999</ele>
        <time>2017-07-02T05:56:30Z</time>
      </trkpt>
      <trkpt lat="57.132320031523705" lon="12.310150992125273">
        <ele>13.6</ele>
        <time>2017-07-02T05:56:48Z</time>
      </trkpt>
      <trkpt lat="57.128309039399028" lon="12.312686014920473">
        <ele>13.119999999999999</ele>
        <time>2017-07-02T05:57:02Z</time>
      </trkpt>
      <trkpt lat="57.124501978978515" lon="12.315936014056206">
        <ele>12.630000000000001</ele>
        <time>2017-07-02T05:57:16Z</time>
      </trkpt>
      <trkpt lat="57.120833974331617" lon="12.320152027532458">
        <ele>13.6</ele>
        <time>2017-07-02T05:57:30Z</time>
      </trkpt>
      <trkpt lat="57.117377026006579" lon="12.325256019830704">
        <ele>12.630000000000001</ele>
        <time>2017-07-02T05:57:44Z</time>
      </trkpt>
      <trkpt lat="57.114325007423759" lon="12.32903097756207">
        <ele>13.119999999999999</ele>
        <time>2017-07-02T05:57:56Z</time>
      </trkpt>
      <trkpt lat="57.111141979694366" lon="12.331893984228373">
        <ele>13.119999999999999</ele>
        <time>2017-07-02T05:58:08Z</time>
      </trkpt>
      <trkpt lat="57.107685031369328" lon="12.333998009562492">
        <ele>14.08</ele>
        <time>2017-07-02T05:58:20Z</time>
      </trkpt>
      <trkpt lat="57.100411970168352" lon="12.337854020297527">
        <ele>18.879999999999999</ele>
        <time>2017-07-02T05:58:45Z</time>
      </trkpt>
      <trkpt lat="57.093895962461829" lon="12.341766022145748">
        <ele>24.649999999999999</ele>
        <time>2017-07-02T05:59:07Z</time>
      </trkpt>
      <trkpt lat="57.08841897547245" lon="12.345404019579291">
        <ele>28.02</ele>
        <time>2017-07-02T05:59:26Z</time>
      </trkpt>
      <trkpt lat="57.083727037534118" lon="12.348361993208528">
        <ele>30.420000000000002</ele>
        <time>2017-07-02T05:59:42Z</time>
      </trkpt>
      <trkpt lat="57.080032965168357" lon="12.349624978378415">
        <ele>31.859999999999999</ele>
        <time>2017-07-02T05:59:54Z</time>
      </trkpt>
      <trkpt lat="57.074759993702173" lon="12.351105976849794">
        <ele>35.229999999999997</ele>
        <time>2017-07-02T06:00:11Z</time>
      </trkpt>
      <trkpt lat="57.068862989544868" lon="12.353376969695091">
        <ele>28.98</ele>
        <time>2017-07-02T06:00:30Z</time>
      </trkpt>
      <trkpt lat="57.066262001171708" lon="12.354493020102382">
        <ele>28.02</ele>
        <time>2017-07-02T06:00:39Z</time>
      </trkpt>
      <trkpt lat="57.064298959448934" lon="12.35489803366363">
        <ele>29.460000000000001</ele>
        <time>2017-07-02T06:00:47Z</time>
      </trkpt>
      <trkpt lat="57.063240995630622" lon="12.35539298504591">
        <ele>31.859999999999999</ele>
        <time>2017-07-02T06:00:53Z</time>
      </trkpt>
      <trkpt lat="57.063146028667688" lon="12.355433972552419">
        <ele>32.340000000000003</ele>
        <time>2017-07-02T06:00:54Z</time>
      </trkpt>
      <trkpt lat="57.063073022291064" lon="12.355446964502335">
        <ele>32.340000000000003</ele>
        <time>2017-07-02T06:00:55Z</time>
      </trkpt>
      <trkpt lat="57.063018959015608" lon="12.355427015572786">
        <ele>32.340000000000003</ele>
        <time>2017-07-02T06:00:56Z</time>
      </trkpt>
      <trkpt lat="57.062975959852338" lon="12.355372030287981">
        <ele>32.340000000000003</ele>
        <time>2017-07-02T06:00:57Z</time>
      </trkpt>
      <trkpt lat="57.062948970124125" lon="12.355274967849255">
        <ele>32.340000000000003</ele>
        <time>2017-07-02T06:00:58Z</time>
      </trkpt>
      <trkpt lat="57.062930027022958" lon="12.355143958702683">
        <ele>32.340000000000003</ele>
        <time>2017-07-02T06:00:59Z</time>
      </trkpt>
      <trkpt lat="57.062909994274378" lon="12.354993000626564">
        <ele>32.340000000000003</ele>
        <time>2017-07-02T06:01:00Z</time>
      </trkpt>
      <trkpt lat="57.062748977914453" lon="12.353692967444658">
        <ele>28.98</ele>
        <time>2017-07-02T06:01:10Z</time>
      </trkpt>
      <trkpt lat="57.062749983742833" lon="12.353600012138486">
        <ele>28.98</ele>
        <time>2017-07-02T06:01:11Z</time>
      </trkpt>
      <trkpt lat="57.062768004834652" lon="12.353533962741494">
        <ele>28.98</ele>
        <time>2017-07-02T06:01:12Z</time>
      </trkpt>
      <trkpt lat="57.062791977077723" lon="12.353486018255353">
        <ele>28.98</ele>
        <time>2017-07-02T06:01:13Z</time>
      </trkpt>
      <trkpt lat="57.062818966805935" lon="12.353453999385238">
        <ele>28.5</ele>
        <time>2017-07-02T06:01:14Z</time>
      </trkpt>
      <trkpt lat="57.062847968190908" lon="12.353427009657025">
        <ele>28.5</ele>
        <time>2017-07-02T06:01:15Z</time>
      </trkpt>
      <trkpt lat="57.062879987061024" lon="12.353408988565207">
        <ele>28.02</ele>
        <time>2017-07-02T06:01:16Z</time>
      </trkpt>
      <trkpt lat="57.062917035073042" lon="12.353389961645007">
        <ele>28.02</ele>
        <time>2017-07-02T06:01:17Z</time>
      </trkpt>
      <trkpt lat="57.062955005094409" lon="12.353359032422304">
        <ele>28.02</ele>
        <time>2017-07-02T06:01:18Z</time>
      </trkpt>
      <trkpt lat="57.062990041449666" lon="12.353317039087415">
        <ele>27.530000000000001</ele>
        <time>2017-07-02T06:01:19Z</time>
      </trkpt>
      <trkpt lat="57.063018959015608" lon="12.353259958326817">
        <ele>27.050000000000001</ele>
        <time>2017-07-02T06:01:20Z</time>
      </trkpt>
      <trkpt lat="57.063036980107427" lon="12.353197010233998">
        <ele>26.57</ele>
        <time>2017-07-02T06:01:21Z</time>
      </trkpt>
      <trkpt lat="57.063047960400581" lon="12.353142024949193">
        <ele>26.57</ele>
        <time>2017-07-02T06:01:22Z</time>
      </trkpt>
      <trkpt lat="57.06310898065567" lon="12.352937003597617">
        <ele>26.09</ele>
        <time>2017-07-02T06:01:32Z</time>
      </trkpt>
      <trkpt lat="57.063113003969193" lon="12.352938009425998">
        <ele>26.09</ele>
        <time>2017-07-02T06:03:37Z</time>
      </trkpt>
      <trkpt lat="57.063106968998909" lon="12.352891992777586">
        <ele>26.09</ele>
        <time>2017-07-02T06:04:47Z</time>
      </trkpt>
      <trkpt lat="57.063092971220613" lon="12.352866008877754">
        <ele>26.09</ele>
        <time>2017-07-02T06:04:48Z</time>
      </trkpt>
      <trkpt lat="57.063076039776206" lon="12.352855028584599">
        <ele>26.09</ele>
        <time>2017-07-02T06:04:49Z</time>
      </trkpt>
      <trkpt lat="57.063057012856007" lon="12.352862991392612">
        <ele>26.57</ele>
        <time>2017-07-02T06:04:50Z</time>
      </trkpt>
      <trkpt lat="57.063041003420949" lon="12.352902973070741">
        <ele>26.57</ele>
        <time>2017-07-02T06:04:51Z</time>
      </trkpt>
      <trkpt lat="57.063030023127794" lon="12.352976985275745">
        <ele>26.57</ele>
        <time>2017-07-02T06:04:52Z</time>
      </trkpt>
      <trkpt lat="57.063019964843988" lon="12.353073041886091">
        <ele>26.57</ele>
        <time>2017-07-02T06:04:53Z</time>
      </trkpt>
      <trkpt lat="57.062961040064692" lon="12.353270016610622">
        <ele>27.050000000000001</ele>
        <time>2017-07-02T06:04:55Z</time>
      </trkpt>
      <trkpt lat="57.062911000102758" lon="12.353333970531821">
        <ele>27.530000000000001</ele>
        <time>2017-07-02T06:04:56Z</time>
      </trkpt>
      <trkpt lat="57.062860960140824" lon="12.353375963866711">
        <ele>27.530000000000001</ele>
        <time>2017-07-02T06:04:57Z</time>
      </trkpt>
      <trkpt lat="57.062789965420961" lon="12.353464979678392">
        <ele>28.02</ele>
        <time>2017-07-02T06:04:59Z</time>
      </trkpt>
      <trkpt lat="57.062769010663033" lon="12.35356698743999">
        <ele>28.5</ele>
        <time>2017-07-02T06:05:00Z</time>
      </trkpt>
      <trkpt lat="57.062759958207607" lon="12.353699002414942">
        <ele>28.98</ele>
        <time>2017-07-02T06:05:01Z</time>
      </trkpt>
      <trkpt lat="57.06276498734951" lon="12.353857001289725">
        <ele>28.98</ele>
        <time>2017-07-02T06:05:02Z</time>
      </trkpt>
      <trkpt lat="57.06278401426971" lon="12.354025980457664">
        <ele>29.460000000000001</ele>
        <time>2017-07-02T06:05:03Z</time>
      </trkpt>
      <trkpt lat="57.062809998169541" lon="12.354194037616253">
        <ele>29.940000000000001</ele>
        <time>2017-07-02T06:05:04Z</time>
      </trkpt>
      <trkpt lat="57.062959028407931" lon="12.355108000338078">
        <ele>32.340000000000003</ele>
        <time>2017-07-02T06:05:09Z</time>
      </trkpt>
      <trkpt lat="57.062965985387564" lon="12.355250995606184">
        <ele>32.340000000000003</ele>
        <time>2017-07-02T06:05:10Z</time>
      </trkpt>
      <trkpt lat="57.062953999266028" lon="12.355376975610852">
        <ele>32.340000000000003</ele>
        <time>2017-07-02T06:05:11Z</time>
      </trkpt>
      <trkpt lat="57.062919968739152" lon="12.355487029999495">
        <ele>32.340000000000003</ele>
        <time>2017-07-02T06:05:12Z</time>
      </trkpt>
      <trkpt lat="57.062862971797585" lon="12.355583002790809">
        <ele>31.859999999999999</ele>
        <time>2017-07-02T06:05:13Z</time>
      </trkpt>
      <trkpt lat="57.062776973471045" lon="12.355669001117349">
        <ele>31.859999999999999</ele>
        <time>2017-07-02T06:05:14Z</time>
      </trkpt>
      <trkpt lat="57.062668008729815" lon="12.355747036635876">
        <ele>31.379999999999999</ele>
        <time>2017-07-02T06:05:15Z</time>
      </trkpt>
      <trkpt lat="57.062547979876399" lon="12.355811996385455">
        <ele>30.899999999999999</ele>
        <time>2017-07-02T06:05:16Z</time>
      </trkpt>
      <trkpt lat="57.061470989137888" lon="12.356577012687922">
        <ele>27.050000000000001</ele>
        <time>2017-07-02T06:05:23Z</time>
      </trkpt>
      <trkpt lat="57.05986300483346" lon="12.35790504142642">
        <ele>25.609999999999999</ele>
        <time>2017-07-02T06:05:31Z</time>
      </trkpt>
      <trkpt lat="57.057573990896344" lon="12.359358966350555">
        <ele>25.129999999999999</ele>
        <time>2017-07-02T06:05:40Z</time>
      </trkpt>
      <trkpt lat="57.054137997329235" lon="12.361627025529742">
        <ele>21.77</ele>
        <time>2017-07-02T06:05:52Z</time>
      </trkpt>
      <trkpt lat="57.048446014523506" lon="12.365905987098813">
        <ele>14.08</ele>
        <time>2017-07-02T06:06:11Z</time>
      </trkpt>
      <trkpt lat="57.041710987687111" lon="12.371690003201365">
        <ele>12.15</ele>
        <time>2017-07-02T06:06:34Z</time>
      </trkpt>
    </trkseg>
  </trk>

  <trk>
    <name>Track vom: 02 Jul 2017 08:06</name>
    <extensions>
      <gpxx:TrackExtension>
        <gpxx:DisplayColor>DarkGray</gpxx:DisplayColor>
      </gpxx:TrackExtension>
    </extensions>
    <trkseg>
      <trkpt lat="57.039994960650802" lon="12.373235039412975">
        <ele>12.15</ele>
        <time>2017-07-02T06:06:40Z</time>
      </trkpt>
      <trkpt lat="57.033763015642762" lon="12.379333963617682">
        <ele>12.15</ele>
        <time>2017-07-02T06:07:02Z</time>
      </trkpt>
      <trkpt lat="57.028270019218326" lon="12.385445041581988">
        <ele>11.67</ele>
        <time>2017-07-02T06:07:22Z</time>
      </trkpt>
      <trkpt lat="57.02482296153903" lon="12.388603007420897">
        <ele>10.23</ele>
        <time>2017-07-02T06:07:34Z</time>
      </trkpt>
      <trkpt lat="57.019447982311249" lon="12.392487013712525">
        <ele>11.67</ele>
        <time>2017-07-02T06:07:52Z</time>
      </trkpt>
      <trkpt lat="57.011030958965421" lon="12.398128034546971">
        <ele>14.08</ele>
        <time>2017-07-02T06:08:20Z</time>
      </trkpt>
      <trkpt lat="57.004487961530685" lon="12.402932960540056">
        <ele>18.399999999999999</ele>
        <time>2017-07-02T06:08:42Z</time>
      </trkpt>
      <trkpt lat="56.998312007635832" lon="12.408009963110089">
        <ele>25.609999999999999</ele>
        <time>2017-07-02T06:09:03Z</time>
      </trkpt>
      <trkpt lat="56.993678994476795" lon="12.412221031263471">
        <ele>26.57</ele>
        <time>2017-07-02T06:09:19Z</time>
      </trkpt>
      <trkpt lat="56.988208964467049" lon="12.417434994131327">
        <ele>23.210000000000001</ele>
        <time>2017-07-02T06:09:38Z</time>
      </trkpt>
      <trkpt lat="56.983724981546402" lon="12.42210597731173">
        <ele>17.920000000000002</ele>
        <time>2017-07-02T06:09:54Z</time>
      </trkpt>
      <trkpt lat="56.977076036855578" lon="12.429615994915366">
        <ele>16</ele>
        <time>2017-07-02T06:10:18Z</time>
      </trkpt>
      <trkpt lat="56.970859011635184" lon="12.437324998900294">
        <ele>15.52</ele>
        <time>2017-07-02T06:10:41Z</time>
      </trkpt>
      <trkpt lat="56.965355034917593" lon="12.445053029805422">
        <ele>16.48</ele>
        <time>2017-07-02T06:11:02Z</time>
      </trkpt>
      <trkpt lat="56.960291024297476" lon="12.453111978247762">
        <ele>18.399999999999999</ele>
        <time>2017-07-02T06:11:22Z</time>
      </trkpt>
      <trkpt lat="56.953087029978633" lon="12.465281998738647">
        <ele>16</ele>
        <time>2017-07-02T06:11:51Z</time>
      </trkpt>
      <trkpt lat="56.947139985859394" lon="12.47609700076282">
        <ele>14.56</ele>
        <time>2017-07-02T06:12:16Z</time>
      </trkpt>
      <trkpt lat="56.942649967968464" lon="12.485219025984406">
        <ele>15.52</ele>
        <time>2017-07-02T06:12:36Z</time>
      </trkpt>
      <trkpt lat="56.938733020797372" lon="12.49442302621901">
        <ele>18.879999999999999</ele>
        <time>2017-07-02T06:12:55Z</time>
      </trkpt>
      <trkpt lat="56.934994021430612" lon="12.504661018028855">
        <ele>23.210000000000001</ele>
        <time>2017-07-02T06:13:15Z</time>
      </trkpt>
      <trkpt lat="56.931592980399728" lon="12.5150509737432">
        <ele>26.09</ele>
        <time>2017-07-02T06:13:35Z</time>
      </trkpt>
      <trkpt lat="56.927609983831644" lon="12.526727970689535">
        <ele>34.740000000000002</ele>
        <time>2017-07-02T06:13:58Z</time>
      </trkpt>
      <trkpt lat="56.924015991389751" lon="12.536116959527135">
        <ele>39.549999999999997</ele>
        <time>2017-07-02T06:14:17Z</time>
      </trkpt>
      <trkpt lat="56.919958982616663" lon="12.545728990808129">
        <ele>24.649999999999999</ele>
        <time>2017-07-02T06:14:37Z</time>
      </trkpt>
      <trkpt lat="56.915045008063316" lon="12.556307958438993">
        <ele>11.67</ele>
        <time>2017-07-02T06:15:00Z</time>
      </trkpt>
      <trkpt lat="56.910601006820798" lon="12.565246000885963">
        <ele>11.19</ele>
        <time>2017-07-02T06:15:20Z</time>
      </trkpt>
      <trkpt lat="56.906073018908501" lon="12.57383200339973">
        <ele>14.56</ele>
        <time>2017-07-02T06:15:40Z</time>
      </trkpt>
      <trkpt lat="56.900233011692762" lon="12.584237968549132">
        <ele>30.420000000000002</ele>
        <time>2017-07-02T06:16:05Z</time>
      </trkpt>
      <trkpt lat="56.89548097550869" lon="12.591850999742746">
        <ele>24.649999999999999</ele>
        <time>2017-07-02T06:16:24Z</time>
      </trkpt>
      <trkpt lat="56.89217196777463" lon="12.595955030992627">
        <ele>16.960000000000001</ele>
        <time>2017-07-02T06:16:36Z</time>
      </trkpt>
      <trkpt lat="56.888397010043263" lon="12.600455023348331">
        <ele>14.56</ele>
        <time>2017-07-02T06:16:50Z</time>
      </trkpt>
      <trkpt lat="56.885453034192324" lon="12.604997009038925">
        <ele>15.039999999999999</ele>
        <time>2017-07-02T06:17:02Z</time>
      </trkpt>
      <trkpt lat="56.882765963673592" lon="12.610139977186918">
        <ele>19.359999999999999</ele>
        <time>2017-07-02T06:17:14Z</time>
      </trkpt>
      <trkpt lat="56.879618978127837" lon="12.61723299510777">
        <ele>19.359999999999999</ele>
        <time>2017-07-02T06:17:29Z</time>
      </trkpt>
      <trkpt lat="56.876012999564409" lon="12.625841964036226">
        <ele>16.48</ele>
        <time>2017-07-02T06:17:47Z</time>
      </trkpt>
      <trkpt lat="56.872073002159595" lon="12.635907959192991">
        <ele>21.77</ele>
        <time>2017-07-02T06:18:08Z</time>
      </trkpt>
      <trkpt lat="56.869020983576775" lon="12.644427996128798">
        <ele>20.32</ele>
        <time>2017-07-02T06:18:25Z</time>
      </trkpt>
      <trkpt lat="56.866590986028314" lon="12.652494991198182">
        <ele>16.48</ele>
        <time>2017-07-02T06:18:40Z</time>
      </trkpt>
      <trkpt lat="56.864659041166306" lon="12.658318988978863">
        <ele>14.08</ele>
        <time>2017-07-02T06:18:51Z</time>
      </trkpt>
      <trkpt lat="56.862847041338682" lon="12.661806028336287">
        <ele>13.6</ele>
        <time>2017-07-02T06:18:59Z</time>
      </trkpt>
      <trkpt lat="56.860514022409916" lon="12.66499500721693">
        <ele>14.56</ele>
        <time>2017-07-02T06:19:08Z</time>
      </trkpt>
      <trkpt lat="56.855320008471608" lon="12.671316973865032">
        <ele>21.289999999999999</ele>
        <time>2017-07-02T06:19:27Z</time>
      </trkpt>
      <trkpt lat="56.851748982444406" lon="12.676589023321867">
        <ele>23.210000000000001</ele>
        <time>2017-07-02T06:19:41Z</time>
      </trkpt>
      <trkpt lat="56.84997595846653" lon="12.68020598217845">
        <ele>24.170000000000002</ele>
        <time>2017-07-02T06:19:49Z</time>
      </trkpt>
      <trkpt lat="56.848520021885633" lon="12.684302972629666">
        <ele>24.170000000000002</ele>
        <time>2017-07-02T06:19:57Z</time>
      </trkpt>
      <trkpt lat="56.846059011295438" lon="12.692267959937453">
        <ele>24.649999999999999</ele>
        <time>2017-07-02T06:20:12Z</time>
      </trkpt>
      <trkpt lat="56.843966972082853" lon="12.696973979473114">
        <ele>25.129999999999999</ele>
        <time>2017-07-02T06:20:22Z</time>
      </trkpt>
      <trkpt lat="56.841607969254255" lon="12.701036017388105">
        <ele>26.57</ele>
        <time>2017-07-02T06:20:32Z</time>
      </trkpt>
      <trkpt lat="56.83877999894321" lon="12.704588016495109">
        <ele>33.780000000000001</ele>
        <time>2017-07-02T06:20:43Z</time>
      </trkpt>
      <trkpt lat="56.835934007540345" lon="12.707106024026871">
        <ele>41.950000000000003</ele>
        <time>2017-07-02T06:20:53Z</time>
      </trkpt>
      <trkpt lat="56.832928005605936" lon="12.708886004984379">
        <ele>45.32</ele>
        <time>2017-07-02T06:21:03Z</time>
      </trkpt>
      <trkpt lat="56.829808009788394" lon="12.709905998781323">
        <ele>46.280000000000001</ele>
        <time>2017-07-02T06:21:13Z</time>
      </trkpt>
      <trkpt lat="56.826275959610939" lon="12.710100039839745">
        <ele>42.920000000000002</ele>
        <time>2017-07-02T06:21:24Z</time>
      </trkpt>
      <trkpt lat="56.822476023808122" lon="12.710372032597661">
        <ele>39.549999999999997</ele>
        <time>2017-07-02T06:21:36Z</time>
      </trkpt>
      <trkpt lat="56.819683006033301" lon="12.711619008332491">
        <ele>36.670000000000002</ele>
        <time>2017-07-02T06:21:45Z</time>
      </trkpt>
      <trkpt lat="56.817067014053464" lon="12.71374398842454">
        <ele>33.780000000000001</ele>
        <time>2017-07-02T06:21:54Z</time>
      </trkpt>
      <trkpt lat="56.814968017861247" lon="12.716287979856133">
        <ele>30.899999999999999</ele>
        <time>2017-07-02T06:22:02Z</time>
      </trkpt>
      <trkpt lat="56.812426960095763" lon="12.720478009432554">
        <ele>28.02</ele>
        <time>2017-07-02T06:22:13Z</time>
      </trkpt>
      <trkpt lat="56.810023030266166" lon="12.7256890386343">
        <ele>25.129999999999999</ele>
        <time>2017-07-02T06:22:25Z</time>
      </trkpt>
      <trkpt lat="56.807942977175117" lon="12.731700036674738">
        <ele>23.690000000000001</ele>
        <time>2017-07-02T06:22:37Z</time>
      </trkpt>
      <trkpt lat="56.806457033380866" lon="12.737781023606658">
        <ele>21.289999999999999</ele>
        <time>2017-07-02T06:22:48Z</time>
      </trkpt>
      <trkpt lat="56.805555978789926" lon="12.742872023954988">
        <ele>20.809999999999999</ele>
        <time>2017-07-02T06:22:57Z</time>
      </trkpt>
      <trkpt lat="56.804675040766597" lon="12.750550014898181">
        <ele>20.32</ele>
        <time>2017-07-02T06:23:10Z</time>
      </trkpt>
      <trkpt lat="56.803619004786015" lon="12.757501965388656">
        <ele>20.809999999999999</ele>
        <time>2017-07-02T06:23:22Z</time>
      </trkpt>
    </trkseg>
  </trk>

  <trk>
    <name>Track vom: 02 Jul 2017 08:23</name>
    <extensions>
      <gpxx:TrackExtension>
        <gpxx:DisplayColor>DarkGray</gpxx:DisplayColor>
      </gpxx:TrackExtension>
    </extensions>
    <trkseg>
      <trkpt lat="56.802183017134666" lon="12.76352402754128">
        <ele>21.289999999999999</ele>
        <time>2017-07-02T06:23:33Z</time>
      </trkpt>
      <trkpt lat="56.800331035628915" lon="12.769186003133655">
        <ele>22.73</ele>
        <time>2017-07-02T06:23:44Z</time>
      </trkpt>
      <trkpt lat="56.79843001998961" lon="12.773967040702701">
        <ele>23.210000000000001</ele>
        <time>2017-07-02T06:23:54Z</time>
      </trkpt>
      <trkpt lat="56.795097962021828" lon="12.781264996156096">
        <ele>23.210000000000001</ele>
        <time>2017-07-02T06:24:10Z</time>
      </trkpt>
      <trkpt lat="56.791409002617002" lon="12.788123991340399">
        <ele>23.210000000000001</ele>
        <time>2017-07-02T06:24:26Z</time>
      </trkpt>
      <trkpt lat="56.787216039374471" lon="12.794694984331727">
        <ele>23.690000000000001</ele>
        <time>2017-07-02T06:24:43Z</time>
      </trkpt>
      <trkpt lat="56.783319041132927" lon="12.799893021583557">
        <ele>23.210000000000001</ele>
        <time>2017-07-02T06:24:58Z</time>
      </trkpt>
      <trkpt lat="56.77909498102963" lon="12.804431989789009">
        <ele>22.73</ele>
        <time>2017-07-02T06:25:13Z</time>
      </trkpt>
      <trkpt lat="56.77443296648562" lon="12.808381961658597">
        <ele>22.25</ele>
        <time>2017-07-02T06:25:29Z</time>
      </trkpt>
      <trkpt lat="56.770892031490803" lon="12.810945985838771">
        <ele>28.02</ele>
        <time>2017-07-02T06:25:41Z</time>
      </trkpt>
      <trkpt lat="56.768661020323634" lon="12.813201975077391">
        <ele>33.299999999999997</ele>
        <time>2017-07-02T06:25:49Z</time>
      </trkpt>
      <trkpt lat="56.766723962500691" lon="12.816170006990433">
        <ele>40.030000000000001</ele>
        <time>2017-07-02T06:25:57Z</time>
      </trkpt>
      <trkpt lat="56.765128970146179" lon="12.819728963077068">
        <ele>44.359999999999999</ele>
        <time>2017-07-02T06:26:05Z</time>
      </trkpt>
      <trkpt lat="56.763917030766606" lon="12.823937013745308">
        <ele>42.920000000000002</ele>
        <time>2017-07-02T06:26:13Z</time>
      </trkpt>
      <trkpt lat="56.762667959555984" lon="12.830183040350676">
        <ele>34.259999999999998</ele>
        <time>2017-07-02T06:26:24Z</time>
      </trkpt>
      <trkpt lat="56.761367004364729" lon="12.835013028234243">
        <ele>30.899999999999999</ele>
        <time>2017-07-02T06:26:33Z</time>
      </trkpt>
      <trkpt lat="56.759287035092711" lon="12.840467970818281">
        <ele>30.899999999999999</ele>
        <time>2017-07-02T06:26:44Z</time>
      </trkpt>
      <trkpt lat="56.757229026407003" lon="12.845080029219389">
        <ele>31.379999999999999</ele>
        <time>2017-07-02T06:26:54Z</time>
      </trkpt>
      <trkpt lat="56.753983972594142" lon="12.851148024201393">
        <ele>32.82</ele>
        <time>2017-07-02T06:27:09Z</time>
      </trkpt>
      <trkpt lat="56.750353015959263" lon="12.856827015057206">
        <ele>37.630000000000003</ele>
        <time>2017-07-02T06:27:24Z</time>
      </trkpt>
      <trkpt lat="56.745238965377212" lon="12.863618033006787">
        <ele>37.630000000000003</ele>
        <time>2017-07-02T06:27:44Z</time>
      </trkpt>
      <trkpt lat="56.74027101136744" lon="12.869348991662264">
        <ele>33.780000000000001</ele>
        <time>2017-07-02T06:28:03Z</time>
      </trkpt>
      <trkpt lat="56.735069034621119" lon="12.874519033357501">
        <ele>34.740000000000002</ele>
        <time>2017-07-02T06:28:22Z</time>
      </trkpt>
      <trkpt lat="56.72993503510952" lon="12.878806041553617">
        <ele>42.920000000000002</ele>
        <time>2017-07-02T06:28:40Z</time>
      </trkpt>
      <trkpt lat="56.72497202642262" lon="12.882301965728402">
        <ele>43.399999999999999</ele>
        <time>2017-07-02T06:28:57Z</time>
      </trkpt>
      <trkpt lat="56.71923897229135" lon="12.885569985955954">
        <ele>34.740000000000002</ele>
        <time>2017-07-02T06:29:16Z</time>
      </trkpt>
      <trkpt lat="56.715725027024746" lon="12.887106975540519">
        <ele>30.899999999999999</ele>
        <time>2017-07-02T06:29:28Z</time>
      </trkpt>
      <trkpt lat="56.711645973846316" lon="12.888389993458986">
        <ele>22.25</ele>
        <time>2017-07-02T06:29:41Z</time>
      </trkpt>
      <trkpt lat="56.70688496902585" lon="12.889830004423857">
        <ele>14.08</ele>
        <time>2017-07-02T06:29:56Z</time>
      </trkpt>
      <trkpt lat="56.701777037233114" lon="12.891419967636466">
        <ele>9.27</ele>
        <time>2017-07-02T06:30:12Z</time>
      </trkpt>
      <trkpt lat="56.69633399695158" lon="12.893385021016002">
        <ele>10.23</ele>
        <time>2017-07-02T06:30:29Z</time>
      </trkpt>
      <trkpt lat="56.692153019830585" lon="12.894428987056017">
        <ele>12.15</ele>
        <time>2017-07-02T06:30:42Z</time>
      </trkpt>
      <trkpt lat="56.687273997813463" lon="12.894792007282376">
        <ele>9.75</ele>
        <time>2017-07-02T06:30:57Z</time>
      </trkpt>
      <trkpt lat="56.683697020635009" lon="12.894988982006907">
        <ele>12.15</ele>
        <time>2017-07-02T06:31:08Z</time>
      </trkpt>
      <trkpt lat="56.679332982748747" lon="12.89548996835947">
        <ele>16</ele>
        <time>2017-07-02T06:31:22Z</time>
      </trkpt>
      <trkpt lat="56.676305020228028" lon="12.896817997097969">
        <ele>14.56</ele>
        <time>2017-07-02T06:31:32Z</time>
      </trkpt>
      <trkpt lat="56.673636976629496" lon="12.898920010775328">
        <ele>11.19</ele>
        <time>2017-07-02T06:31:41Z</time>
      </trkpt>
      <trkpt lat="56.669257013127208" lon="12.902568988502026">
        <ele>10.710000000000001</ele>
        <time>2017-07-02T06:31:56Z</time>
      </trkpt>
      <trkpt lat="56.665494963526726" lon="12.905342979356647">
        <ele>10.23</ele>
        <time>2017-07-02T06:32:09Z</time>
      </trkpt>
      <trkpt lat="56.662512011826038" lon="12.906445031985641">
        <ele>9.75</ele>
        <time>2017-07-02T06:32:19Z</time>
      </trkpt>
      <trkpt lat="56.659503998234868" lon="12.906581992283463">
        <ele>8.789999999999999</ele>
        <time>2017-07-02T06:32:29Z</time>
      </trkpt>
      <trkpt lat="56.656520962715149" lon="12.905839020386338">
        <ele>5.42</ele>
        <time>2017-07-02T06:32:39Z</time>
      </trkpt>
      <trkpt lat="56.65138503536582" lon="12.904249979183078">
        <ele>4.46</ele>
        <time>2017-07-02T06:32:56Z</time>
      </trkpt>
      <trkpt lat="56.645818026736379" lon="12.903008032590151">
        <ele>9.75</ele>
        <time>2017-07-02T06:33:14Z</time>
      </trkpt>
      <trkpt lat="56.641754982993007" lon="12.902882974594831">
        <ele>7.35</ele>
        <time>2017-07-02T06:33:27Z</time>
      </trkpt>
      <trkpt lat="56.638630041852593" lon="12.90386701002717">
        <ele>3.02</ele>
        <time>2017-07-02T06:33:37Z</time>
      </trkpt>
      <trkpt lat="56.635626973584294" lon="12.905851006507874">
        <ele>2.54</ele>
        <time>2017-07-02T06:33:47Z</time>
      </trkpt>
      <trkpt lat="56.633163029327989" lon="12.908460041508079">
        <ele>0.62</ele>
        <time>2017-07-02T06:33:56Z</time>
      </trkpt>
      <trkpt lat="56.629713037982583" lon="12.91231001727283">
        <ele>1.1</ele>
        <time>2017-07-02T06:34:09Z</time>
      </trkpt>
      <trkpt lat="56.626795968040824" lon="12.914369031786919">
        <ele>2.06</ele>
        <time>2017-07-02T06:34:19Z</time>
      </trkpt>
      <trkpt lat="56.623678989708424" lon="12.915515005588531">
        <ele>2.54</ele>
        <time>2017-07-02T06:34:29Z</time>
      </trkpt>
      <trkpt lat="56.620234027504921" lon="12.915909038856626">
        <ele>2.06</ele>
        <time>2017-07-02T06:34:40Z</time>
      </trkpt>
      <trkpt lat="56.615069014951587" lon="12.916602976620197">
        <ele>3.5</ele>
        <time>2017-07-02T06:34:57Z</time>
      </trkpt>
      <trkpt lat="56.611214010044932" lon="12.917870990931988">
        <ele>3.5</ele>
        <time>2017-07-02T06:35:10Z</time>
      </trkpt>
      <trkpt lat="56.607931992039084" lon="12.919796984642744">
        <ele>7.35</ele>
        <time>2017-07-02T06:35:21Z</time>
      </trkpt>
      <trkpt lat="56.604607980698347" lon="12.922701984643936">
        <ele>14.56</ele>
        <time>2017-07-02T06:35:33Z</time>
      </trkpt>
      <trkpt lat="56.601729970425367" lon="12.926068995147943">
        <ele>14.08</ele>
        <time>2017-07-02T06:35:44Z</time>
      </trkpt>
      <trkpt lat="56.596935018897057" lon="12.932529011741281">
        <ele>5.91</ele>
        <time>2017-07-02T06:36:03Z</time>
      </trkpt>
      <trkpt lat="56.591615024954081" lon="12.938847960904241">
        <ele>1.58</ele>
        <time>2017-07-02T06:36:23Z</time>
      </trkpt>
      <trkpt lat="56.586640030145645" lon="12.943918006494641">
        <ele>0.62</ele>
        <time>2017-07-02T06:36:41Z</time>
      </trkpt>
      <trkpt lat="56.583272013813257" lon="12.946768021211028">
        <ele>1.58</ele>
        <time>2017-07-02T06:36:53Z</time>
      </trkpt>
      <trkpt lat="56.580602964386344" lon="12.948042992502451">
        <ele>2.06</ele>
        <time>2017-07-02T06:37:02Z</time>
      </trkpt>
      <trkpt lat="56.577482968568802" lon="12.948527969419956">
        <ele>3.5</ele>
        <time>2017-07-02T06:37:12Z</time>
      </trkpt>
      <trkpt lat="56.57303100451827" lon="12.948546996340156">
        <ele>3.98</ele>
        <time>2017-07-02T06:37:26Z</time>
      </trkpt>
      <trkpt lat="56.569372974336147" lon="12.94943799264729">
        <ele>3.5</ele>
        <time>2017-07-02T06:37:38Z</time>
      </trkpt>
      <trkpt lat="56.566093973815441" lon="12.951083024963737">
        <ele>3.02</ele>
        <time>2017-07-02T06:37:49Z</time>
      </trkpt>
      <trkpt lat="56.56269402243197" lon="12.953700022771955">
        <ele>3.02</ele>
        <time>2017-07-02T06:38:01Z</time>
      </trkpt>
      <trkpt lat="56.557415015995502" lon="12.958512995392084">
        <ele>3.02</ele>
        <time>2017-07-02T06:38:20Z</time>
      </trkpt>
      <trkpt lat="56.553421961143613" lon="12.961880005896091">
        <ele>6.39</ele>
        <time>2017-07-02T06:38:34Z</time>
      </trkpt>
      <trkpt lat="56.547212982550263" lon="12.966579990461469">
        <ele>9.27</ele>
        <time>2017-07-02T06:38:56Z</time>
      </trkpt>
      <trkpt lat="56.542904013767838" lon="12.969435034319758">
        <ele>12.630000000000001</ele>
        <time>2017-07-02T06:39:11Z</time>
      </trkpt>
      <trkpt lat="56.540206968784332" lon="12.970015984028578">
        <ele>12.15</ele>
        <time>2017-07-02T06:39:20Z</time>
      </trkpt>
      <trkpt lat="56.53747002594173" lon="12.969580963253975">
        <ele>11.67</ele>
        <time>2017-07-02T06:39:29Z</time>
      </trkpt>
      <trkpt lat="56.533849965780973" lon="12.968058977276087">
        <ele>10.23</ele>
        <time>2017-07-02T06:39:41Z</time>
      </trkpt>
      <trkpt lat="56.529710981994867" lon="12.966307997703552">
        <ele>8.789999999999999</ele>
        <time>2017-07-02T06:39:55Z</time>
      </trkpt>
      <trkpt lat="56.526373978704214" lon="12.965626968070865">
        <ele>8.789999999999999</ele>
        <time>2017-07-02T06:40:06Z</time>
      </trkpt>
      <trkpt lat="56.521814977750182" lon="12.965467041358352">
        <ele>4.94</ele>
        <time>2017-07-02T06:40:21Z</time>
      </trkpt>
      <trkpt lat="56.517324959859252" lon="12.964902017265558">
        <ele>6.87</ele>
        <time>2017-07-02T06:40:36Z</time>
      </trkpt>
      <trkpt lat="56.512891016900539" lon="12.963511040434241">
        <ele>9.75</ele>
        <time>2017-07-02T06:40:51Z</time>
      </trkpt>
      <trkpt lat="56.507831029593945" lon="12.961077019572258">
        <ele>8.789999999999999</ele>
        <time>2017-07-02T06:41:08Z</time>
      </trkpt>
      <trkpt lat="56.502421014010906" lon="12.958771996200085">
        <ele>8.789999999999999</ele>
        <time>2017-07-02T06:41:26Z</time>
      </trkpt>
      <trkpt lat="56.49675702676177" lon="12.956616003066301">
        <ele>9.27</ele>
        <time>2017-07-02T06:41:45Z</time>
      </trkpt>
      <trkpt lat="56.491468967869878" lon="12.953789038583636">
        <ele>8.789999999999999</ele>
        <time>2017-07-02T06:42:03Z</time>
      </trkpt>
      <trkpt lat="56.485946970060468" lon="12.949980972334743">
        <ele>9.27</ele>
        <time>2017-07-02T06:42:22Z</time>
      </trkpt>
      <trkpt lat="56.480025993660092" lon="12.946163015440106">
        <ele>8.789999999999999</ele>
        <time>2017-07-02T06:42:42Z</time>
      </trkpt>
      <trkpt lat="56.473686005920172" lon="12.942794999107718">
        <ele>8.789999999999999</ele>
        <time>2017-07-02T06:43:03Z</time>
      </trkpt>
      <trkpt lat="56.470581013709307" lon="12.941739968955517">
        <ele>8.789999999999999</ele>
        <time>2017-07-02T06:43:13Z</time>
      </trkpt>
      <trkpt lat="56.466517969965935" lon="12.941205035895109">
        <ele>9.27</ele>
        <time>2017-07-02T06:43:26Z</time>
      </trkpt>
      <trkpt lat="56.463088011369109" lon="12.941693030297756">
        <ele>9.75</ele>
        <time>2017-07-02T06:43:37Z</time>
      </trkpt>
      <trkpt lat="56.459751008078456" lon="12.943014018237591">
        <ele>9.75</ele>
        <time>2017-07-02T06:43:48Z</time>
      </trkpt>
      <trkpt lat="56.456754980608821" lon="12.944772038608789">
        <ele>8.789999999999999</ele>
        <time>2017-07-02T06:43:58Z</time>
      </trkpt>
      <trkpt lat="56.453782003372908" lon="12.94720103032887">
        <ele>8.789999999999999</ele>
        <time>2017-07-02T06:44:09Z</time>
      </trkpt>
      <trkpt lat="56.450357995927334" lon="12.950064959004521">
        <ele>8.789999999999999</ele>
        <time>2017-07-02T06:44:22Z</time>
      </trkpt>
      <trkpt lat="56.446493016555905" lon="12.952914973720908">
        <ele>7.83</ele>
        <time>2017-07-02T06:44:36Z</time>
      </trkpt>
      <trkpt lat="56.443664040416479" lon="12.953963968902826">
        <ele>8.789999999999999</ele>
        <time>2017-07-02T06:44:46Z</time>
      </trkpt>
      <trkpt lat="56.440814025700092" lon="12.954188017174602">
        <ele>7.83</ele>
        <time>2017-07-02T06:44:56Z</time>
      </trkpt>
      <trkpt lat="56.437670979648829" lon="12.953661968931556">
        <ele>8.789999999999999</ele>
        <time>2017-07-02T06:45:07Z</time>
      </trkpt>
      <trkpt lat="56.431842036545277" lon="12.952395966276526">
        <ele>9.27</ele>
        <time>2017-07-02T06:45:28Z</time>
      </trkpt>
      <trkpt lat="56.426174025982618" lon="12.950879009440541">
        <ele>12.15</ele>
        <time>2017-07-02T06:45:48Z</time>
      </trkpt>
      <trkpt lat="56.421114038676023" lon="12.949310000985861">
        <ele>32.82</ele>
        <time>2017-07-02T06:46:06Z</time>
      </trkpt>
      <trkpt lat="56.415208987891674" lon="12.947467993944883">
        <ele>73.200000000000003</ele>
        <time>2017-07-02T06:46:27Z</time>
      </trkpt>
      <trkpt lat="56.410391991958022" lon="12.945609977468848">
        <ele>104.92</ele>
        <time>2017-07-02T06:46:44Z</time>
      </trkpt>
      <trkpt lat="56.406404972076416" lon="12.944100983440876">
        <ele>131.84</ele>
        <time>2017-07-02T06:46:58Z</time>
      </trkpt>
      <trkpt lat="56.401489991694689" lon="12.943046037107706">
        <ele>157.31</ele>
        <time>2017-07-02T06:47:15Z</time>
      </trkpt>
      <trkpt lat="56.395146986469626" lon="12.94120604172349">
        <ele>171.72999999999999</ele>
        <time>2017-07-02T06:47:37Z</time>
      </trkpt>
      <trkpt lat="56.391057958826423" lon="12.939698975533247">
        <ele>181.34999999999999</ele>
        <time>2017-07-02T06:47:51Z</time>
      </trkpt>
      <trkpt lat="56.385792028158903" lon="12.937093963846564">
        <ele>185.66999999999999</ele>
        <time>2017-07-02T06:48:09Z</time>
      </trkpt>
      <trkpt lat="56.381558999419212" lon="12.935439040884376">
        <ele>177.97999999999999</ele>
        <time>2017-07-02T06:48:23Z</time>
      </trkpt>
      <trkpt lat="56.376538993790746" lon="12.934146970510483">
        <ele>174.13999999999999</ele>
        <time>2017-07-02T06:48:40Z</time>
      </trkpt>
      <trkpt lat="56.371784023940563" lon="12.933780010789633">
        <ele>173.66</ele>
        <time>2017-07-02T06:48:56Z</time>
      </trkpt>
      <trkpt lat="56.367349997162819" lon="12.934235986322165">
        <ele>168.84999999999999</ele>
        <time>2017-07-02T06:49:11Z</time>
      </trkpt>
      <trkpt lat="56.361079998314381" lon="12.9352340195328">
        <ele>164.03999999999999</ele>
        <time>2017-07-02T06:49:32Z</time>
      </trkpt>
      <trkpt lat="56.356921987608075" lon="12.935402998700738">
        <ele>162.59999999999999</ele>
        <time>2017-07-02T06:49:46Z</time>
      </trkpt>
      <trkpt lat="56.354928016662598" lon="12.934329025447369">
        <ele>161.16</ele>
        <time>2017-07-02T06:49:53Z</time>
      </trkpt>
      <trkpt lat="56.35312900878489" lon="12.932401020079851">
        <ele>155.38999999999999</ele>
        <time>2017-07-02T06:50:00Z</time>
      </trkpt>
      <trkpt lat="56.351425973698497" lon="12.929330980405211">
        <ele>146.25999999999999</ele>
        <time>2017-07-02T06:50:08Z</time>
      </trkpt>
      <trkpt lat="56.350091993808746" lon="12.925634980201721">
        <ele>135.68000000000001</ele>
        <time>2017-07-02T06:50:16Z</time>
      </trkpt>
      <trkpt lat="56.348731024190784" lon="12.922783959656954">
        <ele>127.98999999999999</ele>
        <time>2017-07-02T06:50:23Z</time>
      </trkpt>
      <trkpt lat="56.347049027681351" lon="12.920579016208649">
        <ele>120.3</ele>
        <time>2017-07-02T06:50:30Z</time>
      </trkpt>
      <trkpt lat="56.344339996576309" lon="12.918236022815108">
        <ele>108.77</ele>
        <time>2017-07-02T06:50:40Z</time>
      </trkpt>
      <trkpt lat="56.340884976089001" lon="12.915793033316731">
        <ele>96.269999999999996</ele>
        <time>2017-07-02T06:50:52Z</time>
      </trkpt>
      <trkpt lat="56.337802028283477" lon="12.914685029536486">
        <ele>84.730000000000004</ele>
        <time>2017-07-02T06:51:02Z</time>
      </trkpt>
      <trkpt lat="56.334637021645904" lon="12.914607999846339">
        <ele>78</ele>
        <time>2017-07-02T06:51:12Z</time>
      </trkpt>
      <trkpt lat="56.328456038609147" lon="12.914816960692406">
        <ele>66.950000000000003</ele>
        <time>2017-07-02T06:51:32Z</time>
      </trkpt>
      <trkpt lat="56.322958013042808" lon="12.914552008733153">
        <ele>51.57</ele>
        <time>2017-07-02T06:51:50Z</time>
      </trkpt>
      <trkpt lat="56.319109965115786" lon="12.913435958325863">
        <ele>43.399999999999999</ele>
        <time>2017-07-02T06:52:03Z</time>
      </trkpt>
      <trkpt lat="56.31267199292779" lon="12.910945024341345">
        <ele>37.630000000000003</ele>
        <time>2017-07-02T06:52:25Z</time>
      </trkpt>
      <trkpt lat="56.307024015113711" lon="12.90876698680222">
        <ele>30.899999999999999</ele>
        <time>2017-07-02T06:52:44Z</time>
      </trkpt>
      <trkpt lat="56.304515982046723" lon="12.90779803879559">
        <ele>28.02</ele>
        <time>2017-07-02T06:52:53Z</time>
      </trkpt>
      <trkpt lat="56.298677986487746" lon="12.905460996553302">
        <ele>22.73</ele>
        <time>2017-07-02T06:53:14Z</time>
      </trkpt>
      <trkpt lat="56.293062027543783" lon="12.903142981231213">
        <ele>21.289999999999999</ele>
        <time>2017-07-02T06:53:34Z</time>
      </trkpt>
      <trkpt lat="56.287093022838235" lon="12.900614999234676">
        <ele>19.359999999999999</ele>
        <time>2017-07-02T06:53:55Z</time>
      </trkpt>
      <trkpt lat="56.280823023989797" lon="12.897855006158352">
        <ele>17.440000000000001</ele>
        <time>2017-07-02T06:54:17Z</time>
      </trkpt>
      <trkpt lat="56.275125006213784" lon="12.895327024161816">
        <ele>16</ele>
        <time>2017-07-02T06:54:37Z</time>
      </trkpt>
      <trkpt lat="56.271103033795953" lon="12.893930012360215">
        <ele>15.52</ele>
        <time>2017-07-02T06:54:51Z</time>
      </trkpt>
      <trkpt lat="56.2674880027771" lon="12.893616026267409">
        <ele>15.52</ele>
        <time>2017-07-02T06:55:03Z</time>
      </trkpt>
      <trkpt lat="56.263850005343556" lon="12.894187001511455">
        <ele>18.399999999999999</ele>
        <time>2017-07-02T06:55:15Z</time>
      </trkpt>
      <trkpt lat="56.260333964601159" lon="12.895588958635926">
        <ele>21.77</ele>
        <time>2017-07-02T06:55:27Z</time>
      </trkpt>
      <trkpt lat="56.25502897426486" lon="12.897931030020118">
        <ele>20.32</ele>
        <time>2017-07-02T06:55:45Z</time>
      </trkpt>
      <trkpt lat="56.252086004242301" lon="12.898353980854154">
        <ele>19.359999999999999</ele>
        <time>2017-07-02T06:55:55Z</time>
      </trkpt>
      <trkpt lat="56.248870035633445" lon="12.898497981950641">
        <ele>20.809999999999999</ele>
        <time>2017-07-02T06:56:06Z</time>
      </trkpt>
      <trkpt lat="56.244775978848338" lon="12.898640977218747">
        <ele>21.289999999999999</ele>
        <time>2017-07-02T06:56:20Z</time>
      </trkpt>
      <trkpt lat="56.238713013008237" lon="12.89877500385046">
        <ele>9.75</ele>
        <time>2017-07-02T06:56:41Z</time>
      </trkpt>
      <trkpt lat="56.233772970736027" lon="12.898438973352313">
        <ele>7.83</ele>
        <time>2017-07-02T06:56:58Z</time>
      </trkpt>
      <trkpt lat="56.229144986718893" lon="12.897966988384724">
        <ele>14.08</ele>
        <time>2017-07-02T06:57:14Z</time>
      </trkpt>
      <trkpt lat="56.223321994766593" lon="12.897311020642519">
        <ele>20.809999999999999</ele>
        <time>2017-07-02T06:57:34Z</time>
      </trkpt>
      <trkpt lat="56.221369011327624" lon="12.896437961608171">
        <ele>23.210000000000001</ele>
        <time>2017-07-02T06:57:41Z</time>
      </trkpt>
      <trkpt lat="56.219602022320032" lon="12.894807010889053">
        <ele>23.690000000000001</ele>
        <time>2017-07-02T06:57:48Z</time>
      </trkpt>
      <trkpt lat="56.216566013172269" lon="12.890897020697594">
        <ele>23.690000000000001</ele>
        <time>2017-07-02T06:58:01Z</time>
      </trkpt>
      <trkpt lat="56.212318986654282" lon="12.885421961545944">
        <ele>17.440000000000001</ele>
        <time>2017-07-02T06:58:19Z</time>
      </trkpt>
      <trkpt lat="56.209792010486126" lon="12.881848001852632">
        <ele>20.32</ele>
        <time>2017-07-02T06:58:30Z</time>
      </trkpt>
      <trkpt lat="56.206878963857889" lon="12.87630395963788">
        <ele>21.77</ele>
        <time>2017-07-02T06:58:45Z</time>
      </trkpt>
      <trkpt lat="56.203895006328821" lon="12.870727982372046">
        <ele>23.210000000000001</ele>
        <time>2017-07-02T06:59:00Z</time>
      </trkpt>
      <trkpt lat="56.200418025255203" lon="12.864539958536625">
        <ele>22.25</ele>
        <time>2017-07-02T06:59:17Z</time>
      </trkpt>
      <trkpt lat="56.198048964142799" lon="12.861556001007557">
        <ele>20.32</ele>
        <time>2017-07-02T06:59:27Z</time>
      </trkpt>
      <trkpt lat="56.194591009989381" lon="12.858394011855125">
        <ele>15.52</ele>
        <time>2017-07-02T06:59:40Z</time>
      </trkpt>
      <trkpt lat="56.190064027905464" lon="12.854462983086705">
        <ele>16.960000000000001</ele>
        <time>2017-07-02T06:59:57Z</time>
      </trkpt>
      <trkpt lat="56.186556033790112" lon="12.851881021633744">
        <ele>19.359999999999999</ele>
        <time>2017-07-02T07:00:10Z</time>
      </trkpt>
      <trkpt lat="56.181232016533613" lon="12.849479019641876">
        <ele>20.809999999999999</ele>
        <time>2017-07-02T07:00:29Z</time>
      </trkpt>
      <trkpt lat="56.176032973453403" lon="12.847243985161185">
        <ele>20.32</ele>
        <time>2017-07-02T07:00:47Z</time>
      </trkpt>
      <trkpt lat="56.171172978356481" lon="12.846006983891129">
        <ele>16.960000000000001</ele>
        <time>2017-07-02T07:01:03Z</time>
      </trkpt>
      <trkpt lat="56.164192026481032" lon="12.844593040645123">
        <ele>15.039999999999999</ele>
        <time>2017-07-02T07:01:26Z</time>
      </trkpt>
      <trkpt lat="56.158867003396153" lon="12.843586960807443">
        <ele>14.08</ele>
        <time>2017-07-02T07:01:44Z</time>
      </trkpt>
      <trkpt lat="56.155029013752937" lon="12.843715036287904">
        <ele>13.119999999999999</ele>
        <time>2017-07-02T07:01:57Z</time>
      </trkpt>
      <trkpt lat="56.14820497110486" lon="12.844432024285197">
        <ele>7.35</ele>
        <time>2017-07-02T07:02:20Z</time>
      </trkpt>
      <trkpt lat="56.145256971940398" lon="12.844081996008754">
        <ele>8.789999999999999</ele>
        <time>2017-07-02T07:02:30Z</time>
      </trkpt>
      <trkpt lat="56.142434030771255" lon="12.842895034700632">
        <ele>10.710000000000001</ele>
        <time>2017-07-02T07:02:40Z</time>
      </trkpt>
      <trkpt lat="56.13971896469593" lon="12.840855969116092">
        <ele>12.15</ele>
        <time>2017-07-02T07:02:50Z</time>
      </trkpt>
      <trkpt lat="56.136376010254025" lon="12.837358033284545">
        <ele>9.27</ele>
        <time>2017-07-02T07:03:03Z</time>
      </trkpt>
      <trkpt lat="56.133173033595085" lon="12.833721963688731">
        <ele>7.35</ele>
        <time>2017-07-02T07:03:16Z</time>
      </trkpt>
      <trkpt lat="56.128058983013034" lon="12.828014977276325">
        <ele>10.23</ele>
        <time>2017-07-02T07:03:37Z</time>
      </trkpt>
      <trkpt lat="56.124310009181499" lon="12.823249027132988">
        <ele>10.23</ele>
        <time>2017-07-02T07:03:53Z</time>
      </trkpt>
      <trkpt lat="56.119192019104958" lon="12.816783981397748">
        <ele>13.119999999999999</ele>
        <time>2017-07-02T07:04:15Z</time>
      </trkpt>
      <trkpt lat="56.115815034136176" lon="12.813803041353822">
        <ele>13.6</ele>
        <time>2017-07-02T07:04:28Z</time>
      </trkpt>
      <trkpt lat="56.111454013735056" lon="12.810940034687519">
        <ele>14.56</ele>
        <time>2017-07-02T07:04:44Z</time>
      </trkpt>
      <trkpt lat="56.107997987419367" lon="12.808206025511026">
        <ele>16.48</ele>
        <time>2017-07-02T07:04:57Z</time>
      </trkpt>
      <trkpt lat="56.105600008741021" lon="12.805238999426365">
        <ele>20.32</ele>
        <time>2017-07-02T07:05:07Z</time>
      </trkpt>
      <trkpt lat="56.103280987590551" lon="12.801329009234905">
        <ele>22.73</ele>
        <time>2017-07-02T07:05:18Z</time>
      </trkpt>
      <trkpt lat="56.099341996014118" lon="12.794346967712045">
        <ele>16.960000000000001</ele>
        <time>2017-07-02T07:05:37Z</time>
      </trkpt>
      <trkpt lat="56.095817992463708" lon="12.78818903490901">
        <ele>22.73</ele>
        <time>2017-07-02T07:05:54Z</time>
      </trkpt>
      <trkpt lat="56.09356602653861" lon="12.785198036581278">
        <ele>29.460000000000001</ele>
        <time>2017-07-02T07:06:04Z</time>
      </trkpt>
      <trkpt lat="56.091042989864945" lon="12.782822018489242">
        <ele>33.299999999999997</ele>
        <time>2017-07-02T07:06:14Z</time>
      </trkpt>
      <trkpt lat="56.08772300183773" lon="12.78069200925529">
        <ele>37.149999999999999</ele>
        <time>2017-07-02T07:06:26Z</time>
      </trkpt>
      <trkpt lat="56.084526982158422" lon="12.779276976361871">
        <ele>41.469999999999999</ele>
        <time>2017-07-02T07:06:37Z</time>
      </trkpt>
      <trkpt lat="56.080350028350949" lon="12.778197973966599">
        <ele>43.880000000000003</ele>
        <time>2017-07-02T07:06:51Z</time>
      </trkpt>
      <trkpt lat="56.076108030974865" lon="12.778009967878461">
        <ele>45.32</ele>
        <time>2017-07-02T07:07:05Z</time>
      </trkpt>
      <trkpt lat="56.072130985558033" lon="12.778658978641033">
        <ele>46.759999999999998</ele>
        <time>2017-07-02T07:07:18Z</time>
      </trkpt>
      <trkpt lat="56.068189982324839" lon="12.779999999329448">
        <ele>47.719999999999999</ele>
        <time>2017-07-02T07:07:31Z</time>
      </trkpt>
      <trkpt lat="56.065962994471192" lon="12.780738025903702">
        <ele>48.200000000000003</ele>
        <time>2017-07-02T07:07:39Z</time>
      </trkpt>
      <trkpt lat="56.061404999345541" lon="12.782166972756386">
        <ele>49.159999999999997</ele>
        <time>2017-07-02T07:07:55Z</time>
      </trkpt>
      <trkpt lat="56.056775003671646" lon="12.78329299762845">
        <ele>49.649999999999999</ele>
        <time>2017-07-02T07:08:11Z</time>
      </trkpt>
      <trkpt lat="56.049868986010551" lon="12.78475396335125">
        <ele>51.090000000000003</ele>
        <time>2017-07-02T07:08:35Z</time>
      </trkpt>
      <trkpt lat="56.042956011369824" lon="12.785801030695438">
        <ele>51.090000000000003</ele>
        <time>2017-07-02T07:08:59Z</time>
      </trkpt>
      <trkpt lat="56.037921002134681" lon="12.786143012344837">
        <ele>50.130000000000003</ele>
        <time>2017-07-02T07:09:16Z</time>
      </trkpt>
      <trkpt lat="56.03256999514997" lon="12.785825002938509">
        <ele>50.609999999999999</ele>
        <time>2017-07-02T07:09:34Z</time>
      </trkpt>
      <trkpt lat="56.027263998985291" lon="12.784691015258431">
        <ele>45.32</ele>
        <time>2017-07-02T07:09:52Z</time>
      </trkpt>
      <trkpt lat="56.022180961444974" lon="12.78301496990025">
        <ele>29.940000000000001</ele>
        <time>2017-07-02T07:10:09Z</time>
      </trkpt>
      <trkpt lat="56.017837040126324" lon="12.781471023336053">
        <ele>37.630000000000003</ele>
        <time>2017-07-02T07:10:24Z</time>
      </trkpt>
      <trkpt lat="56.014037020504475" lon="12.780562005937099">
        <ele>41.950000000000003</ele>
        <time>2017-07-02T07:10:37Z</time>
      </trkpt>
      <trkpt lat="56.009289007633924" lon="12.779833031818271">
        <ele>41.469999999999999</ele>
        <time>2017-07-02T07:10:53Z</time>
      </trkpt>
      <trkpt lat="56.004318036139011" lon="12.779692970216274">
        <ele>32.82</ele>
        <time>2017-07-02T07:11:10Z</time>
      </trkpt>
      <trkpt lat="56.000691018998623" lon="12.779782991856337">
        <ele>17.440000000000001</ele>
        <time>2017-07-02T07:11:22Z</time>
      </trkpt>
      <trkpt lat="55.995060978457332" lon="12.779877036809921">
        <ele>19.84</ele>
        <time>2017-07-02T07:11:41Z</time>
      </trkpt>
      <trkpt lat="55.990046001970768" lon="12.780384980142117">
        <ele>26.09</ele>
        <time>2017-07-02T07:11:58Z</time>
      </trkpt>
      <trkpt lat="55.985874999314547" lon="12.781635979190469">
        <ele>28.02</ele>
        <time>2017-07-02T07:12:12Z</time>
      </trkpt>
      <trkpt lat="55.982100963592529" lon="12.78365702368319">
        <ele>28.02</ele>
        <time>2017-07-02T07:12:25Z</time>
      </trkpt>
      <trkpt lat="55.976125001907349" lon="12.787551004439592">
        <ele>26.09</ele>
        <time>2017-07-02T07:12:46Z</time>
      </trkpt>
      <trkpt lat="55.970923025161028" lon="12.791257984936237">
        <ele>28.02</ele>
        <time>2017-07-02T07:13:05Z</time>
      </trkpt>
      <trkpt lat="55.965754995122552" lon="12.795440973713994">
        <ele>32.340000000000003</ele>
        <time>2017-07-02T07:13:24Z</time>
      </trkpt>
      <trkpt lat="55.960438018664718" lon="12.80035100877285">
        <ele>36.670000000000002</ele>
        <time>2017-07-02T07:13:44Z</time>
      </trkpt>
      <trkpt lat="55.957508962601423" lon="12.802613032981753">
        <ele>40.509999999999998</ele>
        <time>2017-07-02T07:13:55Z</time>
      </trkpt>
      <trkpt lat="55.953237963840365" lon="12.805255008861423">
        <ele>53.009999999999998</ele>
        <time>2017-07-02T07:14:11Z</time>
      </trkpt>
      <trkpt lat="55.95026196911931" lon="12.807710990309715">
        <ele>66.950000000000003</ele>
        <time>2017-07-02T07:14:23Z</time>
      </trkpt>
      <trkpt lat="55.947416983544827" lon="12.810779018327594">
        <ele>76.560000000000002</ele>
        <time>2017-07-02T07:14:35Z</time>
      </trkpt>
      <trkpt lat="55.943078007549047" lon="12.815578998997808">
        <ele>79.930000000000007</ele>
        <time>2017-07-02T07:14:53Z</time>
      </trkpt>
      <trkpt lat="55.939982989802957" lon="12.817958034574986">
        <ele>90.980000000000004</ele>
        <time>2017-07-02T07:15:05Z</time>
      </trkpt>
      <trkpt lat="55.936185987666249" lon="12.82039700075984">
        <ele>94.349999999999994</ele>
        <time>2017-07-02T07:15:19Z</time>
      </trkpt>
      <trkpt lat="55.93330797739327" lon="12.8230170160532">
        <ele>91.939999999999998</ele>
        <time>2017-07-02T07:15:30Z</time>
      </trkpt>
      <trkpt lat="55.930894995108247" lon="12.825903994962573">
        <ele>86.180000000000007</ele>
        <time>2017-07-02T07:15:40Z</time>
      </trkpt>
      <trkpt lat="55.928253019228578" lon="12.830085977911949">
        <ele>72.239999999999995</ele>
        <time>2017-07-02T07:15:52Z</time>
      </trkpt>
      <trkpt lat="55.924287037923932" lon="12.83659603446722">
        <ele>52.049999999999997</ele>
        <time>2017-07-02T07:16:10Z</time>
      </trkpt>
      <trkpt lat="55.92129897326231" lon="12.841524006798863">
        <ele>42.439999999999998</ele>
        <time>2017-07-02T07:16:24Z</time>
      </trkpt>
      <trkpt lat="55.916988998651505" lon="12.848472017794847">
        <ele>39.07</ele>
        <time>2017-07-02T07:16:44Z</time>
      </trkpt>
      <trkpt lat="55.913364998996258" lon="12.853822018951178">
        <ele>35.229999999999997</ele>
        <time>2017-07-02T07:17:00Z</time>
      </trkpt>
      <trkpt lat="55.909661035984755" lon="12.858235007151961">
        <ele>31.379999999999999</ele>
        <time>2017-07-02T07:17:15Z</time>
      </trkpt>
      <trkpt lat="55.906488988548517" lon="12.861265987157822">
        <ele>28.5</ele>
        <time>2017-07-02T07:17:27Z</time>
      </trkpt>
      <trkpt lat="55.902408007532358" lon="12.864439962431788">
        <ele>26.09</ele>
        <time>2017-07-02T07:17:42Z</time>
      </trkpt>
      <trkpt lat="55.89815997518599" lon="12.866835007444024">
        <ele>21.289999999999999</ele>
        <time>2017-07-02T07:17:57Z</time>
      </trkpt>
      <trkpt lat="55.892449971288443" lon="12.869654009118676">
        <ele>15.52</ele>
        <time>2017-07-02T07:18:17Z</time>
      </trkpt>
      <trkpt lat="55.889504989609122" lon="12.872124994173646">
        <ele>16.48</ele>
        <time>2017-07-02T07:18:28Z</time>
      </trkpt>
      <trkpt lat="55.884926961734891" lon="12.876073960214853">
        <ele>17.920000000000002</ele>
        <time>2017-07-02T07:18:45Z</time>
      </trkpt>
      <trkpt lat="55.88202397339046" lon="12.877507014200091">
        <ele>16</ele>
        <time>2017-07-02T07:18:55Z</time>
      </trkpt>
      <trkpt lat="55.879418039694428" lon="12.878003977239132">
        <ele>12.630000000000001</ele>
        <time>2017-07-02T07:19:04Z</time>
      </trkpt>
      <trkpt lat="55.874480009078979" lon="12.878516027703881">
        <ele>9.27</ele>
        <time>2017-07-02T07:19:21Z</time>
      </trkpt>
      <trkpt lat="55.870010023936629" lon="12.878890028223395">
        <ele>11.19</ele>
        <time>2017-07-02T07:19:36Z</time>
      </trkpt>
      <trkpt lat="55.86678902618587" lon="12.879841960966587">
        <ele>13.6</ele>
        <time>2017-07-02T07:19:47Z</time>
      </trkpt>
      <trkpt lat="55.863585965707898" lon="12.881559999659657">
        <ele>11.19</ele>
        <time>2017-07-02T07:19:58Z</time>
      </trkpt>
      <trkpt lat="55.86109503172338" lon="12.883647009730339">
        <ele>5.42</ele>
        <time>2017-07-02T07:20:07Z</time>
      </trkpt>
      <trkpt lat="55.858547016978264" lon="12.886691987514496">
        <ele>5.42</ele>
        <time>2017-07-02T07:20:17Z</time>
      </trkpt>
      <trkpt lat="55.855511007830501" lon="12.891322989016771">
        <ele>4.94</ele>
        <time>2017-07-02T07:20:30Z</time>
      </trkpt>
      <trkpt lat="55.850243987515569" lon="12.899328963831067">
        <ele>4.46</ele>
        <time>2017-07-02T07:20:53Z</time>
      </trkpt>
      <trkpt lat="55.845608962699771" lon="12.906771004199982">
        <ele>4.46</ele>
        <time>2017-07-02T07:21:14Z</time>
      </trkpt>
      <trkpt lat="55.842788033187389" lon="12.912470027804375">
        <ele>3.98</ele>
        <time>2017-07-02T07:21:28Z</time>
      </trkpt>
      <trkpt lat="55.840238006785512" lon="12.918222025036812">
        <ele>4.46</ele>
        <time>2017-07-02T07:21:41Z</time>
      </trkpt>
      <trkpt lat="55.838336991146207" lon="12.921766983345151">
        <ele>6.39</ele>
        <time>2017-07-02T07:21:50Z</time>
      </trkpt>
      <trkpt lat="55.836514011025429" lon="12.924292031675577">
        <ele>7.83</ele>
        <time>2017-07-02T07:21:58Z</time>
      </trkpt>
      <trkpt lat="55.834051994606853" lon="12.926801992580295">
        <ele>10.710000000000001</ele>
        <time>2017-07-02T07:22:08Z</time>
      </trkpt>
      <trkpt lat="55.830318024381995" lon="12.92937196791172">
        <ele>11.67</ele>
        <time>2017-07-02T07:22:22Z</time>
      </trkpt>
      <trkpt lat="55.823852978646755" lon="12.93373298831284">
        <ele>8.310000000000001</ele>
        <time>2017-07-02T07:22:46Z</time>
      </trkpt>
      <trkpt lat="55.819233963266015" lon="12.9370610229671">
        <ele>6.87</ele>
        <time>2017-07-02T07:23:03Z</time>
      </trkpt>
      <trkpt lat="55.815942976623774" lon="12.94026299379766">
        <ele>6.39</ele>
        <time>2017-07-02T07:23:16Z</time>
      </trkpt>
      <trkpt lat="55.81333695910871" lon="12.943620029836893">
        <ele>6.87</ele>
        <time>2017-07-02T07:23:27Z</time>
      </trkpt>
      <trkpt lat="55.807587979361415" lon="12.951466999948025">
        <ele>6.87</ele>
        <time>2017-07-02T07:23:52Z</time>
      </trkpt>
      <trkpt lat="55.802450962364674" lon="12.95841702260077">
        <ele>7.35</ele>
        <time>2017-07-02T07:24:14Z</time>
      </trkpt>
      <trkpt lat="55.799918035045266" lon="12.96099697239697">
        <ele>8.310000000000001</ele>
        <time>2017-07-02T07:24:24Z</time>
      </trkpt>
      <trkpt lat="55.797184025868773" lon="12.962815007194877">
        <ele>8.789999999999999</ele>
        <time>2017-07-02T07:24:34Z</time>
      </trkpt>
      <trkpt lat="55.793809974566102" lon="12.964131971821189">
        <ele>10.710000000000001</ele>
        <time>2017-07-02T07:24:46Z</time>
      </trkpt>
      <trkpt lat="55.789180984720588" lon="12.965832995250821">
        <ele>10.23</ele>
        <time>2017-07-02T07:25:03Z</time>
      </trkpt>
      <trkpt lat="55.783914970234036" lon="12.967751026153564">
        <ele>8.310000000000001</ele>
        <time>2017-07-02T07:25:22Z</time>
      </trkpt>
      <trkpt lat="55.779275000095367" lon="12.969709960743785">
        <ele>10.710000000000001</ele>
        <time>2017-07-02T07:25:39Z</time>
      </trkpt>
      <trkpt lat="55.776452980935574" lon="12.971908031031489">
        <ele>13.119999999999999</ele>
        <time>2017-07-02T07:25:50Z</time>
      </trkpt>
      <trkpt lat="55.774084003642201" lon="12.974645979702473">
        <ele>13.6</ele>
        <time>2017-07-02T07:26:00Z</time>
      </trkpt>
      <trkpt lat="55.771554009988904" lon="12.978574996814132">
        <ele>13.6</ele>
        <time>2017-07-02T07:26:12Z</time>
      </trkpt>
      <trkpt lat="55.767559027299285" lon="12.984851030632854">
        <ele>10.23</ele>
        <time>2017-07-02T07:26:31Z</time>
      </trkpt>
      <trkpt lat="55.765891028568149" lon="12.987259989604354">
        <ele>10.23</ele>
        <time>2017-07-02T07:26:41Z</time>
      </trkpt>
      <trkpt lat="55.765459025278687" lon="12.987697022035718">
        <ele>10.710000000000001</ele>
        <time>2017-07-02T07:26:44Z</time>
      </trkpt>
      <trkpt lat="55.765317035838962" lon="12.987786959856749">
        <ele>10.710000000000001</ele>
        <time>2017-07-02T07:26:45Z</time>
      </trkpt>
      <trkpt lat="55.765179991722107" lon="12.987825013697147">
        <ele>11.19</ele>
        <time>2017-07-02T07:26:46Z</time>
      </trkpt>
      <trkpt lat="55.765052000060678" lon="12.987823002040386">
        <ele>11.19</ele>
        <time>2017-07-02T07:26:47Z</time>
      </trkpt>
      <trkpt lat="55.764943035319448" lon="12.987772962078452">
        <ele>11.19</ele>
        <time>2017-07-02T07:26:48Z</time>
      </trkpt>
      <trkpt lat="55.764833986759186" lon="12.987684030085802">
        <ele>10.710000000000001</ele>
        <time>2017-07-02T07:26:49Z</time>
      </trkpt>
      <trkpt lat="55.764744970947504" lon="12.987558972090483">
        <ele>10.710000000000001</ele>
        <time>2017-07-02T07:26:50Z</time>
      </trkpt>
      <trkpt lat="55.764683028683066" lon="12.987392004579306">
        <ele>10.710000000000001</ele>
        <time>2017-07-02T07:26:51Z</time>
      </trkpt>
      <trkpt lat="55.764636006206274" lon="12.987198969349265">
        <ele>10.710000000000001</ele>
        <time>2017-07-02T07:26:52Z</time>
      </trkpt>
      <trkpt lat="55.764615973457694" lon="12.986983973532915">
        <ele>10.710000000000001</ele>
        <time>2017-07-02T07:26:53Z</time>
      </trkpt>
      <trkpt lat="55.764612033963203" lon="12.986765038222075">
        <ele>10.710000000000001</ele>
        <time>2017-07-02T07:26:54Z</time>
      </trkpt>
      <trkpt lat="55.764629971235991" lon="12.98654300160706">
        <ele>10.710000000000001</ele>
        <time>2017-07-02T07:26:55Z</time>
      </trkpt>
      <trkpt lat="55.764668025076389" lon="12.98632800579071">
        <ele>11.19</ele>
        <time>2017-07-02T07:26:56Z</time>
      </trkpt>
      <trkpt lat="55.764728961512446" lon="12.986120972782373">
        <ele>10.710000000000001</ele>
        <time>2017-07-02T07:26:57Z</time>
      </trkpt>
      <trkpt lat="55.764791993424296" lon="12.985937995836139">
        <ele>10.710000000000001</ele>
        <time>2017-07-02T07:26:58Z</time>
      </trkpt>
      <trkpt lat="55.764861982315779" lon="12.985779996961355">
        <ele>10.710000000000001</ele>
        <time>2017-07-02T07:26:59Z</time>
      </trkpt>
      <trkpt lat="55.764932977035642" lon="12.985655022785068">
        <ele>11.19</ele>
        <time>2017-07-02T07:27:00Z</time>
      </trkpt>
      <trkpt lat="55.765007995069027" lon="12.985571036115289">
        <ele>11.67</ele>
        <time>2017-07-02T07:27:01Z</time>
      </trkpt>
      <trkpt lat="55.765085024759173" lon="12.985520996153355">
        <ele>11.67</ele>
        <time>2017-07-02T07:27:02Z</time>
      </trkpt>
      <trkpt lat="55.765158031135798" lon="12.985505992546678">
        <ele>12.15</ele>
        <time>2017-07-02T07:27:03Z</time>
      </trkpt>
      <trkpt lat="55.765242017805576" lon="12.985546980053186">
        <ele>12.15</ele>
        <time>2017-07-02T07:27:04Z</time>
      </trkpt>
      <trkpt lat="55.765317035838962" lon="12.985623003914952">
        <ele>12.630000000000001</ele>
        <time>2017-07-02T07:27:05Z</time>
      </trkpt>
      <trkpt lat="55.765389958396554" lon="12.985743032768369">
        <ele>13.119999999999999</ele>
        <time>2017-07-02T07:27:06Z</time>
      </trkpt>
      <trkpt lat="55.765457013621926" lon="12.985894996672869">
        <ele>13.6</ele>
        <time>2017-07-02T07:27:07Z</time>
      </trkpt>
      <trkpt lat="55.765517028048635" lon="12.986074034124613">
        <ele>14.08</ele>
        <time>2017-07-02T07:27:08Z</time>
      </trkpt>
      <trkpt lat="55.765565978363156" lon="12.986282994970679">
        <ele>14.56</ele>
        <time>2017-07-02T07:27:09Z</time>
      </trkpt>
      <trkpt lat="55.765606965869665" lon="12.986508971080184">
        <ele>15.039999999999999</ele>
        <time>2017-07-02T07:27:10Z</time>
      </trkpt>
      <trkpt lat="55.765642002224922" lon="12.986751040443778">
        <ele>15.039999999999999</ele>
        <time>2017-07-02T07:27:11Z</time>
      </trkpt>
      <trkpt lat="55.765921035781503" lon="12.989323027431965">
        <ele>15.039999999999999</ele>
        <time>2017-07-02T07:27:22Z</time>
      </trkpt>
      <trkpt lat="55.765925981104374" lon="12.989598037675023">
        <ele>14.56</ele>
        <time>2017-07-02T07:27:24Z</time>
      </trkpt>
      <trkpt lat="55.765905026346445" lon="12.989717982709408">
        <ele>14.56</ele>
        <time>2017-07-02T07:27:25Z</time>
      </trkpt>
      <trkpt lat="55.765866972506046" lon="12.989970026537776">
        <ele>14.08</ele>
        <time>2017-07-02T07:27:27Z</time>
      </trkpt>
      <trkpt lat="55.765878036618233" lon="12.990096006542444">
        <ele>14.08</ele>
        <time>2017-07-02T07:27:28Z</time>
      </trkpt>
      <trkpt lat="55.765909971669316" lon="12.990221986547112">
        <ele>14.08</ele>
        <time>2017-07-02T07:27:29Z</time>
      </trkpt>
      <trkpt lat="55.766026983037591" lon="12.990716015920043">
        <ele>14.08</ele>
        <time>2017-07-02T07:27:32Z</time>
      </trkpt>
      <trkpt lat="55.766247007995844" lon="12.992518963292241">
        <ele>14.08</ele>
        <time>2017-07-02T07:27:42Z</time>
      </trkpt>
      <trkpt lat="55.766241978853941" lon="12.992656007409096">
        <ele>14.08</ele>
        <time>2017-07-02T07:27:43Z</time>
      </trkpt>
      <trkpt lat="55.766214989125729" lon="12.992780981585383">
        <ele>13.6</ele>
        <time>2017-07-02T07:27:44Z</time>
      </trkpt>
      <trkpt lat="55.76617400161922" lon="12.992892963811755">
        <ele>13.6</ele>
        <time>2017-07-02T07:27:45Z</time>
      </trkpt>
      <trkpt lat="55.766137037426233" lon="12.993003018200397">
        <ele>13.6</ele>
        <time>2017-07-02T07:27:46Z</time>
      </trkpt>
      <trkpt lat="55.766124967485666" lon="12.993122041225433">
        <ele>12.630000000000001</ele>
        <time>2017-07-02T07:27:47Z</time>
      </trkpt>
      <trkpt lat="55.766147011891007" lon="12.993214996531606">
        <ele>12.15</ele>
        <time>2017-07-02T07:27:48Z</time>
      </trkpt>
      <trkpt lat="55.766190011054277" lon="12.99328900873661">
        <ele>11.67</ele>
        <time>2017-07-02T07:27:49Z</time>
      </trkpt>
      <trkpt lat="55.766241978853941" lon="12.993336031213403">
        <ele>11.19</ele>
        <time>2017-07-02T07:27:50Z</time>
      </trkpt>
      <trkpt lat="55.76630400493741" lon="12.993333013728261">
        <ele>10.710000000000001</ele>
        <time>2017-07-02T07:27:51Z</time>
      </trkpt>
      <trkpt lat="55.766365025192499" lon="12.993293032050133">
        <ele>10.710000000000001</ele>
        <time>2017-07-02T07:27:52Z</time>
      </trkpt>
      <trkpt lat="55.766417998820543" lon="12.993237040936947">
        <ele>10.710000000000001</ele>
        <time>2017-07-02T07:27:53Z</time>
      </trkpt>
      <trkpt lat="55.766469966620207" lon="12.993173003196716">
        <ele>11.19</ele>
        <time>2017-07-02T07:27:54Z</time>
      </trkpt>
      <trkpt lat="55.76651900075376" lon="12.993104020133615">
        <ele>10.710000000000001</ele>
        <time>2017-07-02T07:27:55Z</time>
      </trkpt>
      <trkpt lat="55.76667096465826" lon="12.992898998782039">
        <ele>10.710000000000001</ele>
        <time>2017-07-02T07:27:58Z</time>
      </trkpt>
      <trkpt lat="55.766698038205504" lon="12.992807971313596">
        <ele>10.23</ele>
        <time>2017-07-02T07:27:59Z</time>
      </trkpt>
      <trkpt lat="55.766713041812181" lon="12.992700012400746">
        <ele>10.23</ele>
        <time>2017-07-02T07:28:00Z</time>
      </trkpt>
      <trkpt lat="55.766709018498659" lon="12.992590963840485">
        <ele>10.23</ele>
        <time>2017-07-02T07:28:01Z</time>
      </trkpt>
      <trkpt lat="55.766683034598827" lon="12.992489961907268">
        <ele>10.23</ele>
        <time>2017-07-02T07:28:02Z</time>
      </trkpt>
      <trkpt lat="55.766650009900331" lon="12.992399018257856">
        <ele>10.23</ele>
        <time>2017-07-02T07:28:03Z</time>
      </trkpt>
      <trkpt lat="55.766620002686977" lon="12.992333974689245">
        <ele>10.23</ele>
        <time>2017-07-02T07:28:04Z</time>
      </trkpt>
      <trkpt lat="55.766587983816862" lon="12.992172036319971">
        <ele>10.710000000000001</ele>
        <time>2017-07-02T07:28:07Z</time>
      </trkpt>
      <trkpt lat="55.766585972160101" lon="12.992138005793095">
        <ele>10.710000000000001</ele>
        <time>2017-07-02T07:28:08Z</time>
      </trkpt>
      <trkpt lat="55.766587983816862" lon="12.992115039378405">
        <ele>10.710000000000001</ele>
        <time>2017-07-02T07:28:09Z</time>
      </trkpt>
      <trkpt lat="55.766608016565442" lon="12.992115961387753">
        <ele>11.67</ele>
        <time>2017-07-02T07:28:20Z</time>
      </trkpt>
      <trkpt lat="55.766621008515358" lon="12.992057958617806">
        <ele>11.67</ele>
        <time>2017-07-02T07:29:20Z</time>
      </trkpt>
      <trkpt lat="55.766450017690659" lon="12.99187196418643">
        <ele>-13.800000000000001</ele>
        <time>2017-07-02T07:40:08Z</time>
      </trkpt>
      <trkpt lat="55.766441971063614" lon="12.991844974458218">
        <ele>-15.24</ele>
        <time>2017-07-02T07:42:26Z</time>
      </trkpt>
      <trkpt lat="55.766441971063614" lon="12.991839023306966">
        <ele>-15.24</ele>
        <time>2017-07-02T07:44:19Z</time>
      </trkpt>
      <trkpt lat="55.766447000205517" lon="12.991827037185431">
        <ele>-14.76</ele>
        <time>2017-07-02T07:45:37Z</time>
      </trkpt>
      <trkpt lat="55.76645496301353" lon="12.991814967244864">
        <ele>-14.76</ele>
        <time>2017-07-02T07:47:28Z</time>
      </trkpt>
      <trkpt lat="55.766458986327052" lon="12.991808010265231">
        <ele>-13.800000000000001</ele>
        <time>2017-07-02T07:49:19Z</time>
      </trkpt>
      <trkpt lat="55.766460997983813" lon="12.991798035800457">
        <ele>-13.800000000000001</ele>
        <time>2017-07-02T07:51:16Z</time>
      </trkpt>
      <trkpt lat="55.766462003812194" lon="12.991797029972076">
        <ele>-13.800000000000001</ele>
        <time>2017-07-02T07:51:41Z</time>
      </trkpt>
      <trkpt lat="55.766460997983813" lon="12.991784038022161">
        <ele>-13.32</ele>
        <time>2017-07-02T07:51:43Z</time>
      </trkpt>
      <trkpt lat="55.766380028799176" lon="12.99182603135705">
        <ele>-9.48</ele>
        <time>2017-07-02T07:51:47Z</time>
      </trkpt>
      <trkpt lat="55.766335017979145" lon="12.991856960579753">
        <ele>-7.55</ele>
        <time>2017-07-02T07:51:49Z</time>
      </trkpt>
      <trkpt lat="55.766254970803857" lon="12.991788983345032">
        <ele>-6.59</ele>
        <time>2017-07-02T07:51:52Z</time>
      </trkpt>
      <trkpt lat="55.766236027702689" lon="12.991707008332014">
        <ele>-6.11</ele>
        <time>2017-07-02T07:51:53Z</time>
      </trkpt>
      <trkpt lat="55.766223035752773" lon="12.991599971428514">
        <ele>-5.63</ele>
        <time>2017-07-02T07:51:54Z</time>
      </trkpt>
      <trkpt lat="55.766209037974477" lon="12.991474997252226">
        <ele>-5.15</ele>
        <time>2017-07-02T07:51:55Z</time>
      </trkpt>
      <trkpt lat="55.766100995242596" lon="12.990456009283662">
        <ele>-3.23</ele>
        <time>2017-07-02T07:52:03Z</time>
      </trkpt>
      <trkpt lat="55.766160003840923" lon="12.990024005994201">
        <ele>-1.3</ele>
        <time>2017-07-02T07:52:10Z</time>
      </trkpt>
      <trkpt lat="55.766164027154446" lon="12.989909006282687">
        <ele>-0.34</ele>
        <time>2017-07-02T07:52:11Z</time>
      </trkpt>
      <trkpt lat="55.766149023547769" lon="12.989783026278019">
        <ele>0.14</ele>
        <time>2017-07-02T07:52:12Z</time>
      </trkpt>
      <trkpt lat="55.766117004677653" lon="12.989656962454319">
        <ele>0.62</ele>
        <time>2017-07-02T07:52:13Z</time>
      </trkpt>
      <trkpt lat="55.766076017171144" lon="12.989523019641638">
        <ele>0.62</ele>
        <time>2017-07-02T07:52:14Z</time>
      </trkpt>
      <trkpt lat="55.765806036069989" lon="12.987998016178608">
        <ele>3.02</ele>
        <time>2017-07-02T07:52:22Z</time>
      </trkpt>
      <trkpt lat="55.765604032203555" lon="12.986040003597736">
        <ele>2.54</ele>
        <time>2017-07-02T07:52:32Z</time>
      </trkpt>
      <trkpt lat="55.765601014718413" lon="12.985893990844488">
        <ele>2.06</ele>
        <time>2017-07-02T07:52:33Z</time>
      </trkpt>
      <trkpt lat="55.765610989183187" lon="12.985757030546665">
        <ele>2.06</ele>
        <time>2017-07-02T07:52:34Z</time>
      </trkpt>
      <trkpt lat="55.765632027760148" lon="12.985632978379726">
        <ele>1.58</ele>
        <time>2017-07-02T07:52:35Z</time>
      </trkpt>
      <trkpt lat="55.765663040801883" lon="12.985518984496593">
        <ele>2.06</ele>
        <time>2017-07-02T07:52:36Z</time>
      </trkpt>
      <trkpt lat="55.765698999166489" lon="12.98540398478508">
        <ele>2.06</ele>
        <time>2017-07-02T07:52:37Z</time>
      </trkpt>
      <trkpt lat="55.765739986672997" lon="12.985163005068898">
        <ele>2.54</ele>
        <time>2017-07-02T07:52:39Z</time>
      </trkpt>
      <trkpt lat="55.765738980844617" lon="12.985035013407469">
        <ele>2.54</ele>
        <time>2017-07-02T07:52:40Z</time>
      </trkpt>
      <trkpt lat="55.76572397723794" lon="12.98491096124053">
        <ele>3.02</ele>
        <time>2017-07-02T07:52:41Z</time>
      </trkpt>
      <trkpt lat="55.765691036358476" lon="12.984798979014158">
        <ele>3.02</ele>
        <time>2017-07-02T07:52:42Z</time>
      </trkpt>
      <trkpt lat="55.765643008053303" lon="12.984702000394464">
        <ele>3.02</ele>
        <time>2017-07-02T07:52:43Z</time>
      </trkpt>
      <trkpt lat="55.765580981969833" lon="12.984623964875937">
        <ele>3.02</ele>
        <time>2017-07-02T07:52:44Z</time>
      </trkpt>
      <trkpt lat="55.765511998906732" lon="12.98458700068295">
        <ele>3.02</ele>
        <time>2017-07-02T07:52:45Z</time>
      </trkpt>
      <trkpt lat="55.765438992530107" lon="12.984585994854569">
        <ele>3.5</ele>
        <time>2017-07-02T07:52:46Z</time>
      </trkpt>
      <trkpt lat="55.765365986153483" lon="12.984620025381446">
        <ele>3.5</ele>
        <time>2017-07-02T07:52:47Z</time>
      </trkpt>
      <trkpt lat="55.765292979776859" lon="12.984694959595799">
        <ele>3.5</ele>
        <time>2017-07-02T07:52:48Z</time>
      </trkpt>
      <trkpt lat="55.765223996713758" lon="12.984795961529016">
        <ele>3.5</ele>
        <time>2017-07-02T07:52:49Z</time>
      </trkpt>
      <trkpt lat="55.765156019479036" lon="12.984928982332349">
        <ele>3.5</ele>
        <time>2017-07-02T07:52:50Z</time>
      </trkpt>
      <trkpt lat="55.765087036415935" lon="12.985083963721991">
        <ele>3.5</ele>
        <time>2017-07-02T07:52:51Z</time>
      </trkpt>
      <trkpt lat="55.764565011486411" lon="12.98622197471559">
        <ele>1.58</ele>
        <time>2017-07-02T07:52:57Z</time>
      </trkpt>
      <trkpt lat="55.764485970139503" lon="12.986469995230436">
        <ele>1.58</ele>
        <time>2017-07-02T07:52:58Z</time>
      </trkpt>
      <trkpt lat="55.764424027875066" lon="12.98673695884645">
        <ele>1.58</ele>
        <time>2017-07-02T07:52:59Z</time>
      </trkpt>
      <trkpt lat="55.764379017055035" lon="12.987018004059792">
        <ele>1.58</ele>
        <time>2017-07-02T07:53:00Z</time>
      </trkpt>
      <trkpt lat="55.764344986528158" lon="12.987305000424385">
        <ele>1.58</ele>
        <time>2017-07-02T07:53:01Z</time>
      </trkpt>
      <trkpt lat="55.764205008745193" lon="12.988160960376263">
        <ele>2.06</ele>
        <time>2017-07-02T07:53:04Z</time>
      </trkpt>
      <trkpt lat="55.764129990711808" lon="12.988436976447701">
        <ele>2.06</ele>
        <time>2017-07-02T07:53:05Z</time>
      </trkpt>
      <trkpt lat="55.763907032087445" lon="12.988979034125805">
        <ele>0.14</ele>
        <time>2017-07-02T07:53:07Z</time>
      </trkpt>
      <trkpt lat="55.763775017112494" lon="12.989226970821619">
        <ele>-0.34</ele>
        <time>2017-07-02T07:53:08Z</time>
      </trkpt>
      <trkpt lat="55.763634033501148" lon="12.989469962194562">
        <ele>-1.3</ele>
        <time>2017-07-02T07:53:09Z</time>
      </trkpt>
      <trkpt lat="55.763485003262758" lon="12.989710019901395">
        <ele>-1.3</ele>
        <time>2017-07-02T07:53:10Z</time>
      </trkpt>
      <trkpt lat="55.763323986902833" lon="12.989909006282687">
        <ele>-0.82</ele>
        <time>2017-07-02T07:53:11Z</time>
      </trkpt>
      <trkpt lat="55.763158025220037" lon="12.990105981007218">
        <ele>-0.34</ele>
        <time>2017-07-02T07:53:12Z</time>
      </trkpt>
      <trkpt lat="55.761369997635484" lon="12.99178596585989">
        <ele>1.58</ele>
        <time>2017-07-02T07:53:21Z</time>
      </trkpt>
      <trkpt lat="55.759263038635254" lon="12.993668960407376">
        <ele>4.46</ele>
        <time>2017-07-02T07:53:30Z</time>
      </trkpt>
      <trkpt lat="55.756780989468098" lon="12.996415039524436">
        <ele>5.42</ele>
        <time>2017-07-02T07:53:40Z</time>
      </trkpt>
      <trkpt lat="55.7548519782722" lon="12.999587003141642">
        <ele>5.42</ele>
        <time>2017-07-02T07:53:49Z</time>
      </trkpt>
      <trkpt lat="55.752973007038236" lon="13.004187997430563">
        <ele>4.94</ele>
        <time>2017-07-02T07:54:00Z</time>
      </trkpt>
      <trkpt lat="55.750562958419323" lon="13.011554013937712">
        <ele>-0.82</ele>
        <time>2017-07-02T07:54:16Z</time>
      </trkpt>
      <trkpt lat="55.748089961707592" lon="13.01924399100244">
        <ele>2.06</ele>
        <time>2017-07-02T07:54:33Z</time>
      </trkpt>
      <trkpt lat="55.745210023596883" lon="13.028729036450386">
        <ele>3.98</ele>
        <time>2017-07-02T07:54:54Z</time>
      </trkpt>
      <trkpt lat="55.743351001292467" lon="13.035763967782259">
        <ele>4.94</ele>
        <time>2017-07-02T07:55:09Z</time>
      </trkpt>
      <trkpt lat="55.74142299592495" lon="13.043536003679037">
        <ele>6.39</ele>
        <time>2017-07-02T07:55:25Z</time>
      </trkpt>
      <trkpt lat="55.740225976333022" lon="13.048170022666454">
        <ele>6.87</ele>
        <time>2017-07-02T07:55:35Z</time>
      </trkpt>
      <trkpt lat="55.737959006801248" lon="13.057133965194225">
        <ele>8.310000000000001</ele>
        <time>2017-07-02T07:55:55Z</time>
      </trkpt>
      <trkpt lat="55.736119011417031" lon="13.064527977257967">
        <ele>9.75</ele>
        <time>2017-07-02T07:56:11Z</time>
      </trkpt>
      <trkpt lat="55.733847012743354" lon="13.072942988947034">
        <ele>14.08</ele>
        <time>2017-07-02T07:56:29Z</time>
      </trkpt>
      <trkpt lat="55.732304994016886" lon="13.077160008251667">
        <ele>12.630000000000001</ele>
        <time>2017-07-02T07:56:39Z</time>
      </trkpt>
      <trkpt lat="55.730885015800595" lon="13.080068025738001">
        <ele>11.19</ele>
        <time>2017-07-02T07:56:47Z</time>
      </trkpt>
      <trkpt lat="55.729238977655768" lon="13.08286196552217">
        <ele>9.75</ele>
        <time>2017-07-02T07:56:57Z</time>
      </trkpt>
      <trkpt lat="55.727389007806778" lon="13.085378967225552">
        <ele>8.789999999999999</ele>
        <time>2017-07-02T07:57:08Z</time>
      </trkpt>
      <trkpt lat="55.725891999900341" lon="13.087042020633817">
        <ele>7.35</ele>
        <time>2017-07-02T07:57:18Z</time>
      </trkpt>
      <trkpt lat="55.724012022837996" lon="13.088684035465121">
        <ele>7.35</ele>
        <time>2017-07-02T07:57:31Z</time>
      </trkpt>
      <trkpt lat="55.721503989771008" lon="13.09042202308774">
        <ele>7.35</ele>
        <time>2017-07-02T07:57:47Z</time>
      </trkpt>
      <trkpt lat="55.719955014064908" lon="13.091217968612909">
        <ele>6.39</ele>
        <time>2017-07-02T07:57:54Z</time>
      </trkpt>
      <trkpt lat="55.717441029846668" lon="13.09225196018815">
        <ele>5.91</ele>
        <time>2017-07-02T07:58:03Z</time>
      </trkpt>
      <trkpt lat="55.710846986621618" lon="13.095065010711551">
        <ele>5.91</ele>
        <time>2017-07-02T07:58:26Z</time>
      </trkpt>
      <trkpt lat="55.705726984888315" lon="13.096969965845346">
        <ele>3.5</ele>
        <time>2017-07-02T07:58:44Z</time>
      </trkpt>
      <trkpt lat="55.701837027445436" lon="13.097617970779538">
        <ele>2.54</ele>
        <time>2017-07-02T07:58:58Z</time>
      </trkpt>
      <trkpt lat="55.697256987914443" lon="13.097618976607919">
        <ele>1.1</ele>
        <time>2017-07-02T07:59:15Z</time>
      </trkpt>
      <trkpt lat="55.690818009898067" lon="13.097527027130127">
        <ele>1.58</ele>
        <time>2017-07-02T07:59:39Z</time>
      </trkpt>
      <trkpt lat="55.685496004298329" lon="13.097692988812923">
        <ele>2.06</ele>
        <time>2017-07-02T07:59:58Z</time>
      </trkpt>
      <trkpt lat="55.679720034822822" lon="13.098348034545779">
        <ele>4.46</ele>
        <time>2017-07-02T08:00:19Z</time>
      </trkpt>
      <trkpt lat="55.672894986346364" lon="13.099143980070949">
        <ele>9.27</ele>
        <time>2017-07-02T08:00:44Z</time>
      </trkpt>
      <trkpt lat="55.666739987209439" lon="13.099630968645215">
        <ele>11.67</ele>
        <time>2017-07-02T08:01:06Z</time>
      </trkpt>
      <trkpt lat="55.66289696842432" lon="13.099201982840896">
        <ele>12.15</ele>
        <time>2017-07-02T08:01:20Z</time>
      </trkpt>
      <trkpt lat="55.659677982330322" lon="13.098749024793506">
        <ele>10.23</ele>
        <time>2017-07-02T08:01:33Z</time>
      </trkpt>
      <trkpt lat="55.656453967094421" lon="13.098355997353792">
        <ele>8.789999999999999</ele>
        <time>2017-07-02T08:01:47Z</time>
      </trkpt>
      <trkpt lat="55.653778966516256" lon="13.098027007654309">
        <ele>10.23</ele>
        <time>2017-07-02T08:01:57Z</time>
      </trkpt>
      <trkpt lat="55.651407977566123" lon="13.098337976261973">
        <ele>12.15</ele>
        <time>2017-07-02T08:02:06Z</time>
      </trkpt>
      <trkpt lat="55.648819981142879" lon="13.099513035267591">
        <ele>9.27</ele>
        <time>2017-07-02T08:02:16Z</time>
      </trkpt>
      <trkpt lat="55.645520025864244" lon="13.101756032556295">
        <ele>5.91</ele>
        <time>2017-07-02T08:02:29Z</time>
      </trkpt>
      <trkpt lat="55.643741972744465" lon="13.102462962269783">
        <ele>9.75</ele>
        <time>2017-07-02T08:02:36Z</time>
      </trkpt>
      <trkpt lat="55.641869958490133" lon="13.102260958403349">
        <ele>12.630000000000001</ele>
        <time>2017-07-02T08:02:43Z</time>
      </trkpt>
      <trkpt lat="55.64009802415967" lon="13.101148009300232">
        <ele>13.119999999999999</ele>
        <time>2017-07-02T08:02:50Z</time>
      </trkpt>
      <trkpt lat="55.638593975454569" lon="13.09929602779448">
        <ele>14.56</ele>
        <time>2017-07-02T08:02:57Z</time>
      </trkpt>
      <trkpt lat="55.637019015848637" lon="13.096276028081775">
        <ele>12.630000000000001</ele>
        <time>2017-07-02T08:03:06Z</time>
      </trkpt>
      <trkpt lat="55.635168040171266" lon="13.092545997351408">
        <ele>12.630000000000001</ele>
        <time>2017-07-02T08:03:16Z</time>
      </trkpt>
      <trkpt lat="55.633405996486545" lon="13.089075973257422">
        <ele>13.119999999999999</ele>
        <time>2017-07-02T08:03:26Z</time>
      </trkpt>
      <trkpt lat="55.630766032263637" lon="13.083869973197579">
        <ele>11.67</ele>
        <time>2017-07-02T08:03:43Z</time>
      </trkpt>
      <trkpt lat="55.627818033099174" lon="13.078057961538434">
        <ele>9.27</ele>
        <time>2017-07-02T08:04:01Z</time>
      </trkpt>
      <trkpt lat="55.625456012785435" lon="13.072732016444206">
        <ele>5.91</ele>
        <time>2017-07-02T08:04:17Z</time>
      </trkpt>
      <trkpt lat="55.623780973255634" lon="13.067716034129262">
        <ele>2.54</ele>
        <time>2017-07-02T08:04:31Z</time>
      </trkpt>
      <trkpt lat="55.623183008283377" lon="13.065561968833208">
        <ele>2.06</ele>
        <time>2017-07-02T08:04:38Z</time>
      </trkpt>
      <trkpt lat="55.622274996712804" lon="13.062068978324533">
        <ele>3.02</ele>
        <time>2017-07-02T08:04:50Z</time>
      </trkpt>
      <trkpt lat="55.621593967080116" lon="13.059794967994094">
        <ele>3.02</ele>
        <time>2017-07-02T08:04:59Z</time>
      </trkpt>
      <trkpt lat="55.621358016505837" lon="13.059025006368756">
        <ele>3.02</ele>
        <time>2017-07-02T08:05:04Z</time>
      </trkpt>
      <trkpt lat="55.621338989585638" lon="13.058901038020849">
        <ele>3.02</ele>
        <time>2017-07-02T08:05:05Z</time>
      </trkpt>
      <trkpt lat="55.621339995414019" lon="13.058784026652575">
        <ele>3.02</ele>
        <time>2017-07-02T08:05:06Z</time>
      </trkpt>
      <trkpt lat="55.621356004849076" lon="13.05866802111268">
        <ele>2.54</ele>
        <time>2017-07-02T08:05:07Z</time>
      </trkpt>
      <trkpt lat="55.621384000405669" lon="13.058550003916025">
        <ele>2.54</ele>
        <time>2017-07-02T08:05:08Z</time>
      </trkpt>
      <trkpt lat="55.621413001790643" lon="13.05843198671937">
        <ele>2.54</ele>
        <time>2017-07-02T08:05:09Z</time>
      </trkpt>
      <trkpt lat="55.621420964598656" lon="13.058182038366795">
        <ele>2.54</ele>
        <time>2017-07-02T08:05:11Z</time>
      </trkpt>
      <trkpt lat="55.621391041204333" lon="13.05806796066463">
        <ele>2.54</ele>
        <time>2017-07-02T08:05:12Z</time>
      </trkpt>
      <trkpt lat="55.621337983757257" lon="13.057989003136754">
        <ele>2.54</ele>
        <time>2017-07-02T08:05:13Z</time>
      </trkpt>
      <trkpt lat="55.621267994865775" lon="13.057954972609878">
        <ele>2.54</ele>
        <time>2017-07-02T08:05:14Z</time>
      </trkpt>
      <trkpt lat="55.62119398266077" lon="13.057969976216555">
        <ele>2.54</ele>
        <time>2017-07-02T08:05:15Z</time>
      </trkpt>
      <trkpt lat="55.621118964627385" lon="13.058018004521728">
        <ele>2.54</ele>
        <time>2017-07-02T08:05:16Z</time>
      </trkpt>
      <trkpt lat="55.621035983785987" lon="13.058085981756449">
        <ele>2.54</ele>
        <time>2017-07-02T08:05:17Z</time>
      </trkpt>
      <trkpt lat="55.620755022391677" lon="13.058387981727719">
        <ele>2.06</ele>
        <time>2017-07-02T08:05:20Z</time>
      </trkpt>
      <trkpt lat="55.620445981621742" lon="13.058811016380787">
        <ele>1.1</ele>
        <time>2017-07-02T08:05:23Z</time>
      </trkpt>
      <trkpt lat="55.620328970253468" lon="13.058918975293636">
        <ele>0.62</ele>
        <time>2017-07-02T08:05:24Z</time>
      </trkpt>
      <trkpt lat="55.620198966935277" lon="13.059016037732363">
        <ele>0.62</ele>
        <time>2017-07-02T08:05:25Z</time>
      </trkpt>
      <trkpt lat="55.620056977495551" lon="13.059072028845549">
        <ele>0.14</ele>
        <time>2017-07-02T08:05:26Z</time>
      </trkpt>
      <trkpt lat="55.619907025247812" lon="13.059109998866916">
        <ele>-0.34</ele>
        <time>2017-07-02T08:05:27Z</time>
      </trkpt>
      <trkpt lat="55.619751960039139" lon="13.05914000608027">
        <ele>0.14</ele>
        <time>2017-07-02T08:05:28Z</time>
      </trkpt>
      <trkpt lat="55.619107978418469" lon="13.059370005503297">
        <ele>0.14</ele>
        <time>2017-07-02T08:05:32Z</time>
      </trkpt>
      <trkpt lat="55.618950985372066" lon="13.059497997164726">
        <ele>0.62</ele>
        <time>2017-07-02T08:05:33Z</time>
      </trkpt>
      <trkpt lat="55.618798015639186" lon="13.059661025181413">
        <ele>0.62</ele>
        <time>2017-07-02T08:05:34Z</time>
      </trkpt>
      <trkpt lat="55.618652002885938" lon="13.059856994077563">
        <ele>0.62</ele>
        <time>2017-07-02T08:05:35Z</time>
      </trkpt>
      <trkpt lat="55.618510013446212" lon="13.060084981843829">
        <ele>0.62</ele>
        <time>2017-07-02T08:05:36Z</time>
      </trkpt>
      <trkpt lat="55.618371041491628" lon="13.060320010408759">
        <ele>0.62</ele>
        <time>2017-07-02T08:05:37Z</time>
      </trkpt>
      <trkpt lat="55.617295978590846" lon="13.061873009428382">
        <ele>0.14</ele>
        <time>2017-07-02T08:05:44Z</time>
      </trkpt>
      <trkpt lat="55.615508034825325" lon="13.063042033463717">
        <ele>0.62</ele>
        <time>2017-07-02T08:05:53Z</time>
      </trkpt>
      <trkpt lat="55.613164035603404" lon="13.063810989260674">
        <ele>-1.79</ele>
        <time>2017-07-02T08:06:04Z</time>
      </trkpt>
      <trkpt lat="55.611942959949374" lon="13.063990026712418">
        <ele>-2.75</ele>
        <time>2017-07-02T08:06:11Z</time>
      </trkpt>
      <trkpt lat="55.611793007701635" lon="13.063958007842302">
        <ele>-2.75</ele>
        <time>2017-07-02T08:06:12Z</time>
      </trkpt>
      <trkpt lat="55.611653029918671" lon="13.063908973708749">
        <ele>-2.27</ele>
        <time>2017-07-02T08:06:13Z</time>
      </trkpt>
      <trkpt lat="55.611526966094971" lon="13.063831022009254">
        <ele>-2.27</ele>
        <time>2017-07-02T08:06:14Z</time>
      </trkpt>
      <trkpt lat="55.611419007182121" lon="13.063725996762514">
        <ele>-1.79</ele>
        <time>2017-07-02T08:06:15Z</time>
      </trkpt>
      <trkpt lat="55.611327979713678" lon="13.063610997051001">
        <ele>-1.79</ele>
        <time>2017-07-02T08:06:16Z</time>
      </trkpt>
      <trkpt lat="55.611258996650577" lon="13.063489962369204">
        <ele>-1.79</ele>
        <time>2017-07-02T08:06:17Z</time>
      </trkpt>
      <trkpt lat="55.611215997487307" lon="13.063363982364535">
        <ele>-1.79</ele>
        <time>2017-07-02T08:06:18Z</time>
      </trkpt>
      <trkpt lat="55.611194958910346" lon="13.063244037330151">
        <ele>-1.79</ele>
        <time>2017-07-02T08:06:19Z</time>
      </trkpt>
      <trkpt lat="55.611183978617191" lon="13.063141023740172">
        <ele>-2.27</ele>
        <time>2017-07-02T08:06:20Z</time>
      </trkpt>
      <trkpt lat="55.611184984445572" lon="13.063046978786588">
        <ele>-2.27</ele>
        <time>2017-07-02T08:06:21Z</time>
      </trkpt>
      <trkpt lat="55.611180039122701" lon="13.062895014882088">
        <ele>-2.27</ele>
        <time>2017-07-02T08:06:23Z</time>
      </trkpt>
      <trkpt lat="55.611153971403837" lon="13.062818991020322">
        <ele>-1.3</ele>
        <time>2017-07-02T08:06:24Z</time>
      </trkpt>
      <trkpt lat="55.611112983897328" lon="13.062727963551879">
        <ele>-0.82</ele>
        <time>2017-07-02T08:06:25Z</time>
      </trkpt>
      <trkpt lat="55.61104902997613" lon="13.062654035165906">
        <ele>-0.34</ele>
        <time>2017-07-02T08:06:26Z</time>
      </trkpt>
      <trkpt lat="55.610974011942744" lon="13.062611036002636">
        <ele>0.14</ele>
        <time>2017-07-02T08:06:27Z</time>
      </trkpt>
      <trkpt lat="55.610889019444585" lon="13.062584968283772">
        <ele>0.14</ele>
        <time>2017-07-02T08:06:28Z</time>
      </trkpt>
      <trkpt lat="55.610796986147761" lon="13.062584968283772">
        <ele>0.62</ele>
        <time>2017-07-02T08:06:29Z</time>
      </trkpt>
      <trkpt lat="55.610695984214544" lon="13.062597960233688">
        <ele>1.1</ele>
        <time>2017-07-02T08:06:30Z</time>
      </trkpt>
      <trkpt lat="55.609801970422268" lon="13.062798036262393">
        <ele>2.54</ele>
        <time>2017-07-02T08:06:38Z</time>
      </trkpt>
      <trkpt lat="55.609737010672688" lon="13.062783032655716">
        <ele>2.54</ele>
        <time>2017-07-02T08:06:39Z</time>
      </trkpt>
      <trkpt lat="55.609686970710754" lon="13.062727963551879">
        <ele>2.06</ele>
        <time>2017-07-02T08:06:40Z</time>
      </trkpt>
      <trkpt lat="55.609650006517768" lon="13.062629979103804">
        <ele>2.06</ele>
        <time>2017-07-02T08:06:41Z</time>
      </trkpt>
      <trkpt lat="55.609619999304414" lon="13.062502993270755">
        <ele>1.58</ele>
        <time>2017-07-02T08:06:42Z</time>
      </trkpt>
      <trkpt lat="55.609597032889724" lon="13.062346000224352">
        <ele>1.58</ele>
        <time>2017-07-02T08:06:43Z</time>
      </trkpt>
      <trkpt lat="55.609572976827621" lon="13.062171991914511">
        <ele>1.58</ele>
        <time>2017-07-02T08:06:44Z</time>
      </trkpt>
      <trkpt lat="55.609411960467696" lon="13.060469040647149">
        <ele>3.02</ele>
        <time>2017-07-02T08:06:51Z</time>
      </trkpt>
      <trkpt lat="55.609101997688413" lon="13.056785026565194">
        <ele>6.39</ele>
        <time>2017-07-02T08:07:05Z</time>
      </trkpt>
      <trkpt lat="55.6089679710567" lon="13.055215012282133">
        <ele>7.83</ele>
        <time>2017-07-02T08:07:14Z</time>
      </trkpt>
      <trkpt lat="55.608849031850696" lon="13.053995026275516">
        <ele>7.83</ele>
        <time>2017-07-02T08:07:24Z</time>
      </trkpt>
      <trkpt lat="55.608766973018646" lon="13.052876964211464">
        <ele>8.789999999999999</ele>
        <time>2017-07-02T08:07:33Z</time>
      </trkpt>
      <trkpt lat="55.608565974980593" lon="13.050850974395871">
        <ele>8.789999999999999</ele>
        <time>2017-07-02T08:07:44Z</time>
      </trkpt>
      <trkpt lat="55.608534961938858" lon="13.050688030198216">
        <ele>9.27</ele>
        <time>2017-07-02T08:07:45Z</time>
      </trkpt>
      <trkpt lat="55.608500009402633" lon="13.050523996353149">
        <ele>9.27</ele>
        <time>2017-07-02T08:07:46Z</time>
      </trkpt>
      <trkpt lat="55.607843035832047" lon="13.04824898019433">
        <ele>10.710000000000001</ele>
        <time>2017-07-02T08:07:59Z</time>
      </trkpt>
      <trkpt lat="55.607353029772639" lon="13.046567989513278">
        <ele>11.19</ele>
        <time>2017-07-02T08:08:09Z</time>
      </trkpt>
      <trkpt lat="55.607026973739266" lon="13.04549703374505">
        <ele>12.15</ele>
        <time>2017-07-02T08:08:15Z</time>
      </trkpt>
      <trkpt lat="55.60699000954628" lon="13.045311961323023">
        <ele>12.15</ele>
        <time>2017-07-02T08:08:16Z</time>
      </trkpt>
      <trkpt lat="55.606964025646448" lon="13.045122027397156">
        <ele>12.630000000000001</ele>
        <time>2017-07-02T08:08:17Z</time>
      </trkpt>
      <trkpt lat="55.606950027868152" lon="13.044932009652257">
        <ele>12.630000000000001</ele>
        <time>2017-07-02T08:08:18Z</time>
      </trkpt>
      <trkpt lat="55.606939969584346" lon="13.044739980250597">
        <ele>12.15</ele>
        <time>2017-07-02T08:08:19Z</time>
      </trkpt>
      <trkpt lat="55.606946004554629" lon="13.044540993869305">
        <ele>12.15</ele>
        <time>2017-07-02T08:08:20Z</time>
      </trkpt>
      <trkpt lat="55.606961008161306" lon="13.044344019144773">
        <ele>12.15</ele>
        <time>2017-07-02T08:08:21Z</time>
      </trkpt>
      <trkpt lat="55.606979029253125" lon="13.044146038591862">
        <ele>11.67</ele>
        <time>2017-07-02T08:08:22Z</time>
      </trkpt>
      <trkpt lat="55.607239035889506" lon="13.042610976845026">
        <ele>9.27</ele>
        <time>2017-07-02T08:08:31Z</time>
      </trkpt>
      <trkpt lat="55.607242975383997" lon="13.042569989338517">
        <ele>9.27</ele>
        <time>2017-07-02T08:08:32Z</time>
      </trkpt>
      <trkpt lat="55.607236018404365" lon="13.042542999610305">
        <ele>9.27</ele>
        <time>2017-07-02T08:08:33Z</time>
      </trkpt>
      <trkpt lat="55.607216991484165" lon="13.042525984346867">
        <ele>9.27</ele>
        <time>2017-07-02T08:08:34Z</time>
      </trkpt>
      <trkpt lat="55.607195030897856" lon="13.042519027367234">
        <ele>9.27</ele>
        <time>2017-07-02T08:08:35Z</time>
      </trkpt>
      <trkpt lat="55.607167035341263" lon="13.042526990175247">
        <ele>8.789999999999999</ele>
        <time>2017-07-02T08:08:36Z</time>
      </trkpt>
      <trkpt lat="55.607138033956289" lon="13.04255397990346">
        <ele>8.789999999999999</ele>
        <time>2017-07-02T08:08:37Z</time>
      </trkpt>
      <trkpt lat="55.607109032571316" lon="13.042608965188265">
        <ele>7.83</ele>
        <time>2017-07-02T08:08:38Z</time>
      </trkpt>
      <trkpt lat="55.607090005651116" lon="13.042681971564889">
        <ele>7.35</ele>
        <time>2017-07-02T08:08:39Z</time>
      </trkpt>
      <trkpt lat="55.607080031186342" lon="13.042771993204951">
        <ele>6.87</ele>
        <time>2017-07-02T08:08:40Z</time>
      </trkpt>
      <trkpt lat="55.607084976509213" lon="13.042861009016633">
        <ele>6.87</ele>
        <time>2017-07-02T08:08:41Z</time>
      </trkpt>
      <trkpt lat="55.607087993994355" lon="13.042967962101102">
        <ele>6.39</ele>
        <time>2017-07-02T08:08:42Z</time>
      </trkpt>
      <trkpt lat="55.607065027579665" lon="13.043213970959187">
        <ele>6.39</ele>
        <time>2017-07-02T08:08:44Z</time>
      </trkpt>
      <trkpt lat="55.607037032023072" lon="13.043346991762519">
        <ele>5.91</ele>
        <time>2017-07-02T08:08:45Z</time>
      </trkpt>
      <trkpt lat="55.606892025098205" lon="13.044841988012195">
        <ele>5.42</ele>
        <time>2017-07-02T08:08:55Z</time>
      </trkpt>
      <trkpt lat="55.606924965977669" lon="13.045313972979784">
        <ele>4.94</ele>
        <time>2017-07-02T08:08:58Z</time>
      </trkpt>
      <trkpt lat="55.606954973191023" lon="13.04547700099647">
        <ele>4.94</ele>
        <time>2017-07-02T08:08:59Z</time>
      </trkpt>
      <trkpt lat="55.606995960697532" lon="13.045639023184776">
        <ele>4.94</ele>
        <time>2017-07-02T08:09:00Z</time>
      </trkpt>
      <trkpt lat="55.60759300366044" lon="13.04773198440671">
        <ele>5.42</ele>
        <time>2017-07-02T08:09:13Z</time>
      </trkpt>
      <trkpt lat="55.608049985021353" lon="13.049268973991275">
        <ele>5.42</ele>
        <time>2017-07-02T08:09:24Z</time>
      </trkpt>
      <trkpt lat="55.608540996909142" lon="13.051019031554461">
        <ele>4.46</ele>
        <time>2017-07-02T08:09:36Z</time>
      </trkpt>
      <trkpt lat="55.608568992465734" lon="13.051208965480328">
        <ele>4.46</ele>
        <time>2017-07-02T08:09:37Z</time>
      </trkpt>
      <trkpt lat="55.608823969960213" lon="13.054089993238449">
        <ele>3.98</ele>
        <time>2017-07-02T08:09:50Z</time>
      </trkpt>
      <trkpt lat="55.608938969671726" lon="13.055508965626359">
        <ele>3.02</ele>
        <time>2017-07-02T08:09:59Z</time>
      </trkpt>
      <trkpt lat="55.609039971604943" lon="13.056552009657025">
        <ele>2.06</ele>
        <time>2017-07-02T08:10:06Z</time>
      </trkpt>
      <trkpt lat="55.609292015433311" lon="13.059534961357713">
        <ele>1.1</ele>
        <time>2017-07-02T08:10:20Z</time>
      </trkpt>
      <trkpt lat="55.609531989321113" lon="13.062008041888475">
        <ele>2.06</ele>
        <time>2017-07-02T08:10:33Z</time>
      </trkpt>
      <trkpt lat="55.609623016789556" lon="13.062700973823667">
        <ele>2.54</ele>
        <time>2017-07-02T08:10:42Z</time>
      </trkpt>
      <trkpt lat="55.60965302400291" lon="13.062911024317145">
        <ele>3.02</ele>
        <time>2017-07-02T08:10:45Z</time>
      </trkpt>
      <trkpt lat="55.609680013731122" lon="13.062981013208628">
        <ele>3.02</ele>
        <time>2017-07-02T08:10:46Z</time>
      </trkpt>
      <trkpt lat="55.609724018722773" lon="13.063042033463717">
        <ele>3.5</ele>
        <time>2017-07-02T08:10:47Z</time>
      </trkpt>
      <trkpt lat="55.6097830273211" lon="13.0630739685148">
        <ele>3.02</ele>
        <time>2017-07-02T08:10:48Z</time>
      </trkpt>
      <trkpt lat="55.60984899289906" lon="13.063074974343181">
        <ele>3.02</ele>
        <time>2017-07-02T08:10:49Z</time>
      </trkpt>
      <trkpt lat="55.609916970133781" lon="13.063058964908123">
        <ele>2.54</ele>
        <time>2017-07-02T08:10:50Z</time>
      </trkpt>
      <trkpt lat="55.609987964853644" lon="13.063029963523149">
        <ele>2.54</ele>
        <time>2017-07-02T08:10:51Z</time>
      </trkpt>
      <trkpt lat="55.610769996419549" lon="13.062859978526831">
        <ele>-0.82</ele>
        <time>2017-07-02T08:11:00Z</time>
      </trkpt>
      <trkpt lat="55.610850965604186" lon="13.062885040417314">
        <ele>-1.3</ele>
        <time>2017-07-02T08:11:01Z</time>
      </trkpt>
      <trkpt lat="55.610929001122713" lon="13.06294203735888">
        <ele>-1.3</ele>
        <time>2017-07-02T08:11:02Z</time>
      </trkpt>
      <trkpt lat="55.610993038862944" lon="13.063038010150194">
        <ele>-1.79</ele>
        <time>2017-07-02T08:11:03Z</time>
      </trkpt>
      <trkpt lat="55.611034026369452" lon="13.063166001811624">
        <ele>-1.3</ele>
        <time>2017-07-02T08:11:04Z</time>
      </trkpt>
      <trkpt lat="55.611054981127381" lon="13.063324000686407">
        <ele>-1.79</ele>
        <time>2017-07-02T08:11:05Z</time>
      </trkpt>
      <trkpt lat="55.611059004440904" lon="13.063497003167868">
        <ele>-1.79</ele>
        <time>2017-07-02T08:11:06Z</time>
      </trkpt>
      <trkpt lat="55.611042995005846" lon="13.063676962628961">
        <ele>-1.79</ele>
        <time>2017-07-02T08:11:07Z</time>
      </trkpt>
      <trkpt lat="55.611010976135731" lon="13.06386798620224">
        <ele>-1.79</ele>
        <time>2017-07-02T08:11:08Z</time>
      </trkpt>
      <trkpt lat="55.610950961709023" lon="13.064051968976855">
        <ele>-1.79</ele>
        <time>2017-07-02T08:11:09Z</time>
      </trkpt>
      <trkpt lat="55.610867980867624" lon="13.064218014478683">
        <ele>-1.79</ele>
        <time>2017-07-02T08:11:10Z</time>
      </trkpt>
      <trkpt lat="55.610763961449265" lon="13.06436100974679">
        <ele>-1.3</ele>
        <time>2017-07-02T08:11:11Z</time>
      </trkpt>
      <trkpt lat="55.610646028071642" lon="13.064481038600206">
        <ele>-1.3</ele>
        <time>2017-07-02T08:11:12Z</time>
      </trkpt>
      <trkpt lat="55.610520970076323" lon="13.064586985856295">
        <ele>-1.3</ele>
        <time>2017-07-02T08:11:13Z</time>
      </trkpt>
      <trkpt lat="55.60935202986002" lon="13.065330041572452">
        <ele>-0.82</ele>
        <time>2017-07-02T08:11:21Z</time>
      </trkpt>
      <trkpt lat="55.607703980058432" lon="13.066517002880573">
        <ele>-0.82</ele>
        <time>2017-07-02T08:11:32Z</time>
      </trkpt>
      <trkpt lat="55.605932967737317" lon="13.06797101162374">
        <ele>-1.79</ele>
        <time>2017-07-02T08:11:42Z</time>
      </trkpt>
      <trkpt lat="55.604400001466274" lon="13.06863603182137">
        <ele>-2.27</ele>
        <time>2017-07-02T08:11:49Z</time>
      </trkpt>
      <trkpt lat="55.604159021750093" lon="13.068606024608016">
        <ele>-2.27</ele>
        <time>2017-07-02T08:11:50Z</time>
      </trkpt>
      <trkpt lat="55.603915024548769" lon="13.068535029888153">
        <ele>-2.27</ele>
        <time>2017-07-02T08:11:51Z</time>
      </trkpt>
      <trkpt lat="55.603678990155458" lon="13.06842296384275">
        <ele>-2.27</ele>
        <time>2017-07-02T08:11:52Z</time>
      </trkpt>
      <trkpt lat="55.60344697907567" lon="13.06827200576663">
        <ele>-2.27</ele>
        <time>2017-07-02T08:11:53Z</time>
      </trkpt>
      <trkpt lat="55.603223014622927" lon="13.068092968314886">
        <ele>-2.27</ele>
        <time>2017-07-02T08:11:54Z</time>
      </trkpt>
      <trkpt lat="55.603011036291718" lon="13.06786397472024">
        <ele>-2.27</ele>
        <time>2017-07-02T08:11:55Z</time>
      </trkpt>
      <trkpt lat="55.602816995233297" lon="13.067608997225761">
        <ele>-1.79</ele>
        <time>2017-07-02T08:11:56Z</time>
      </trkpt>
      <trkpt lat="55.602635024115443" lon="13.067322000861168">
        <ele>-1.79</ele>
        <time>2017-07-02T08:11:57Z</time>
      </trkpt>
      <trkpt lat="55.602468978613615" lon="13.067011032253504">
        <ele>-1.79</ele>
        <time>2017-07-02T08:11:58Z</time>
      </trkpt>
      <trkpt lat="55.602324977517128" lon="13.066678019240499">
        <ele>-1.79</ele>
        <time>2017-07-02T08:11:59Z</time>
      </trkpt>
      <trkpt lat="55.602193968370557" lon="13.066323967650533">
        <ele>-2.27</ele>
        <time>2017-07-02T08:12:00Z</time>
      </trkpt>
      <trkpt lat="55.602082991972566" lon="13.06595197878778">
        <ele>-1.79</ele>
        <time>2017-07-02T08:12:01Z</time>
      </trkpt>
      <trkpt lat="55.601989030838013" lon="13.065570015460253">
        <ele>-1.79</ele>
        <time>2017-07-02T08:12:02Z</time>
      </trkpt>
      <trkpt lat="55.601905966177583" lon="13.065182017162442">
        <ele>-1.79</ele>
        <time>2017-07-02T08:12:03Z</time>
      </trkpt>
      <trkpt lat="55.60183497145772" lon="13.064787983894348">
        <ele>-1.3</ele>
        <time>2017-07-02T08:12:04Z</time>
      </trkpt>
      <trkpt lat="55.600960990414023" lon="13.059696983546019">
        <ele>1.1</ele>
        <time>2017-07-02T08:12:17Z</time>
      </trkpt>
      <trkpt lat="55.599824991077185" lon="13.056788966059685">
        <ele>2.54</ele>
        <time>2017-07-02T08:12:26Z</time>
      </trkpt>
      <trkpt lat="55.598545996472239" lon="13.054996998980641">
        <ele>5.91</ele>
        <time>2017-07-02T08:12:33Z</time>
      </trkpt>
      <trkpt lat="55.596780013293028" lon="13.053707024082541">
        <ele>9.75</ele>
        <time>2017-07-02T08:12:41Z</time>
      </trkpt>
      <trkpt lat="55.594853013753891" lon="13.053454980254173">
        <ele>7.83</ele>
        <time>2017-07-02T08:12:49Z</time>
      </trkpt>
      <trkpt lat="55.592199973762035" lon="13.054268024861813">
        <ele>6.87</ele>
        <time>2017-07-02T08:13:00Z</time>
      </trkpt>
      <trkpt lat="55.587773993611336" lon="13.055757991969585">
        <ele>10.23</ele>
        <time>2017-07-02T08:13:19Z</time>
      </trkpt>
      <trkpt lat="55.585091030225158" lon="13.056370038539171">
        <ele>13.119999999999999</ele>
        <time>2017-07-02T08:13:31Z</time>
      </trkpt>
      <trkpt lat="55.582844009622931" lon="13.05589796975255">
        <ele>11.67</ele>
        <time>2017-07-02T08:13:41Z</time>
      </trkpt>
      <trkpt lat="55.581128988415003" lon="13.054718971252441">
        <ele>13.119999999999999</ele>
        <time>2017-07-02T08:13:49Z</time>
      </trkpt>
      <trkpt lat="55.578623972833157" lon="13.052121000364423">
        <ele>21.77</ele>
        <time>2017-07-02T08:14:02Z</time>
      </trkpt>
      <trkpt lat="55.576407965272665" lon="13.050108002498746">
        <ele>25.129999999999999</ele>
        <time>2017-07-02T08:14:13Z</time>
      </trkpt>
      <trkpt lat="55.571697000414133" lon="13.04683000780642">
        <ele>19.359999999999999</ele>
        <time>2017-07-02T08:14:35Z</time>
      </trkpt>
      <trkpt lat="55.569089977070689" lon="13.044247040525079">
        <ele>18.399999999999999</ele>
        <time>2017-07-02T08:14:48Z</time>
      </trkpt>
      <trkpt lat="55.567574026063085" lon="13.041744036599994">
        <ele>20.809999999999999</ele>
        <time>2017-07-02T08:14:57Z</time>
      </trkpt>
      <trkpt lat="55.56638496927917" lon="13.038829984143376">
        <ele>22.73</ele>
        <time>2017-07-02T08:15:06Z</time>
      </trkpt>
      <trkpt lat="55.56556798517704" lon="13.035480994731188">
        <ele>23.690000000000001</ele>
        <time>2017-07-02T08:15:16Z</time>
      </trkpt>
      <trkpt lat="55.565049983561039" lon="13.031351985409856">
        <ele>20.809999999999999</ele>
        <time>2017-07-02T08:15:27Z</time>
      </trkpt>
      <trkpt lat="55.564953004941344" lon="13.027977012097836">
        <ele>26.57</ele>
        <time>2017-07-02T08:15:36Z</time>
      </trkpt>
      <trkpt lat="55.564867006614804" lon="13.02738600410521">
        <ele>28.5</ele>
        <time>2017-07-02T08:15:38Z</time>
      </trkpt>
      <trkpt lat="55.564803974702954" lon="13.027148963883519">
        <ele>28.98</ele>
        <time>2017-07-02T08:15:39Z</time>
      </trkpt>
      <trkpt lat="55.56472702883184" lon="13.026972021907568">
        <ele>28.5</ele>
        <time>2017-07-02T08:15:40Z</time>
      </trkpt>
      <trkpt lat="55.564655028283596" lon="13.02684897556901">
        <ele>28.98</ele>
        <time>2017-07-02T08:15:41Z</time>
      </trkpt>
      <trkpt lat="55.564567018300295" lon="13.026759959757328">
        <ele>28.98</ele>
        <time>2017-07-02T08:15:42Z</time>
      </trkpt>
      <trkpt lat="55.564467022195458" lon="13.026707991957664">
        <ele>29.460000000000001</ele>
        <time>2017-07-02T08:15:43Z</time>
      </trkpt>
      <trkpt lat="55.564345987513661" lon="13.026705980300903">
        <ele>29.460000000000001</ele>
        <time>2017-07-02T08:15:44Z</time>
      </trkpt>
      <trkpt lat="55.564223024994135" lon="13.026727018877864">
        <ele>29.460000000000001</ele>
        <time>2017-07-02T08:15:45Z</time>
      </trkpt>
      <trkpt lat="55.564094027504325" lon="13.026787033304572">
        <ele>29.940000000000001</ele>
        <time>2017-07-02T08:15:46Z</time>
      </trkpt>
      <trkpt lat="55.563957989215851" lon="13.026880994439125">
        <ele>29.940000000000001</ele>
        <time>2017-07-02T08:15:47Z</time>
      </trkpt>
      <trkpt lat="55.563813988119364" lon="13.027001023292542">
        <ele>29.460000000000001</ele>
        <time>2017-07-02T08:15:48Z</time>
      </trkpt>
      <trkpt lat="55.562568018212914" lon="13.027725974097848">
        <ele>29.460000000000001</ele>
        <time>2017-07-02T08:15:55Z</time>
      </trkpt>
      <trkpt lat="55.561276031658053" lon="13.027533022686839">
        <ele>27.050000000000001</ele>
        <time>2017-07-02T08:16:02Z</time>
      </trkpt>
      <trkpt lat="55.560552002862096" lon="13.027053996920586">
        <ele>24.649999999999999</ele>
        <time>2017-07-02T08:16:07Z</time>
      </trkpt>
      <trkpt lat="55.560426022857428" lon="13.026928016915917">
        <ele>24.170000000000002</ele>
        <time>2017-07-02T08:16:08Z</time>
      </trkpt>
      <trkpt lat="55.56013198569417" lon="13.026670021936297">
        <ele>24.170000000000002</ele>
        <time>2017-07-02T08:16:11Z</time>
      </trkpt>
      <trkpt lat="55.560034001246095" lon="13.026696005836129">
        <ele>23.690000000000001</ele>
        <time>2017-07-02T08:16:12Z</time>
      </trkpt>
      <trkpt lat="55.559931993484497" lon="13.026760965585709">
        <ele>23.690000000000001</ele>
        <time>2017-07-02T08:16:13Z</time>
      </trkpt>
      <trkpt lat="55.558972014114261" lon="13.027098001912236">
        <ele>24.649999999999999</ele>
        <time>2017-07-02T08:16:20Z</time>
      </trkpt>
      <trkpt lat="55.556983994320035" lon="13.027821024879813">
        <ele>27.530000000000001</ele>
        <time>2017-07-02T08:16:31Z</time>
      </trkpt>
      <trkpt lat="55.554574029520154" lon="13.029578039422631">
        <ele>30.420000000000002</ele>
        <time>2017-07-02T08:16:44Z</time>
      </trkpt>
      <trkpt lat="55.551963988691568" lon="13.031384004279971">
        <ele>33.780000000000001</ele>
        <time>2017-07-02T08:17:01Z</time>
      </trkpt>
      <trkpt lat="55.551526034250855" lon="13.031566981226206">
        <ele>33.780000000000001</ele>
        <time>2017-07-02T08:17:05Z</time>
      </trkpt>
      <trkpt lat="55.551445987075567" lon="13.031536974012852">
        <ele>34.259999999999998</ele>
        <time>2017-07-02T08:17:06Z</time>
      </trkpt>
      <trkpt lat="55.551377004012465" lon="13.031457010656595">
        <ele>34.259999999999998</ele>
        <time>2017-07-02T08:17:07Z</time>
      </trkpt>
      <trkpt lat="55.551312966272235" lon="13.031334970146418">
        <ele>34.259999999999998</ele>
        <time>2017-07-02T08:17:08Z</time>
      </trkpt>
      <trkpt lat="55.551255969330668" lon="13.031175965443254">
        <ele>34.259999999999998</ele>
        <time>2017-07-02T08:17:09Z</time>
      </trkpt>
      <trkpt lat="55.551207019016147" lon="13.030982008203864">
        <ele>34.259999999999998</ele>
        <time>2017-07-02T08:17:10Z</time>
      </trkpt>
      <trkpt lat="55.551156979054213" lon="13.030767012387514">
        <ele>34.259999999999998</ele>
        <time>2017-07-02T08:17:11Z</time>
      </trkpt>
      <trkpt lat="55.550966961309314" lon="13.030032003298402">
        <ele>33.299999999999997</ele>
        <time>2017-07-02T08:17:14Z</time>
      </trkpt>
      <trkpt lat="55.550870988518" lon="13.029792029410601">
        <ele>32.82</ele>
        <time>2017-07-02T08:17:15Z</time>
      </trkpt>
      <trkpt lat="55.550759006291628" lon="13.029553983360529">
        <ele>32.340000000000003</ele>
        <time>2017-07-02T08:17:16Z</time>
      </trkpt>
      <trkpt lat="55.54981897585094" lon="13.02736303769052">
        <ele>30.420000000000002</ele>
        <time>2017-07-02T08:17:24Z</time>
      </trkpt>
      <trkpt lat="55.54940901696682" lon="13.024761965498328">
        <ele>31.859999999999999</ele>
        <time>2017-07-02T08:17:31Z</time>
      </trkpt>
      <trkpt lat="55.548854973167181" lon="13.019710024818778">
        <ele>31.379999999999999</ele>
        <time>2017-07-02T08:17:43Z</time>
      </trkpt>
      <trkpt lat="55.548199005424976" lon="13.013653010129929">
        <ele>27.530000000000001</ele>
        <time>2017-07-02T08:17:56Z</time>
      </trkpt>
      <trkpt lat="55.547947967424989" lon="13.007742008194327">
        <ele>23.210000000000001</ele>
        <time>2017-07-02T08:18:08Z</time>
      </trkpt>
      <trkpt lat="55.547782005742192" lon="12.999898977577686">
        <ele>18.399999999999999</ele>
        <time>2017-07-02T08:18:24Z</time>
      </trkpt>
      <trkpt lat="55.547508001327515" lon="12.989862989634275">
        <ele>17.920000000000002</ele>
        <time>2017-07-02T08:18:44Z</time>
      </trkpt>
      <trkpt lat="55.547298034653068" lon="12.979953987523913">
        <ele>16.960000000000001</ele>
        <time>2017-07-02T08:19:04Z</time>
      </trkpt>
      <trkpt lat="55.547328041866422" lon="12.973123993724585">
        <ele>13.119999999999999</ele>
        <time>2017-07-02T08:19:18Z</time>
      </trkpt>
      <trkpt lat="55.547750992700458" lon="12.967381970956922">
        <ele>11.19</ele>
        <time>2017-07-02T08:19:31Z</time>
      </trkpt>
      <trkpt lat="55.548492958769202" lon="12.962138000875711">
        <ele>10.23</ele>
        <time>2017-07-02T08:19:43Z</time>
      </trkpt>
      <trkpt lat="55.549631975591183" lon="12.957051023840904">
        <ele>9.75</ele>
        <time>2017-07-02T08:19:55Z</time>
      </trkpt>
      <trkpt lat="55.551118003204465" lon="12.952768038958311">
        <ele>8.789999999999999</ele>
        <time>2017-07-02T08:20:06Z</time>
      </trkpt>
      <trkpt lat="55.553164025768638" lon="12.948531992733479">
        <ele>8.789999999999999</ele>
        <time>2017-07-02T08:20:18Z</time>
      </trkpt>
      <trkpt lat="55.555351031944156" lon="12.945144027471542">
        <ele>8.310000000000001</ele>
        <time>2017-07-02T08:20:29Z</time>
      </trkpt>
      <trkpt lat="55.55963896214962" lon="12.939236965030432">
        <ele>7.83</ele>
        <time>2017-07-02T08:20:49Z</time>
      </trkpt>
      <trkpt lat="55.561684984713793" lon="12.935568038374186">
        <ele>7.35</ele>
        <time>2017-07-02T08:21:00Z</time>
      </trkpt>
      <trkpt lat="55.563275031745434" lon="12.931537013500929">
        <ele>6.39</ele>
        <time>2017-07-02T08:21:11Z</time>
      </trkpt>
      <trkpt lat="55.564236016944051" lon="12.928138989955187">
        <ele>4.46</ele>
        <time>2017-07-02T08:21:21Z</time>
      </trkpt>
      <trkpt lat="55.565066998824477" lon="12.923779981210828">
        <ele>2.06</ele>
        <time>2017-07-02T08:21:34Z</time>
      </trkpt>
      <trkpt lat="55.565851964056492" lon="12.91847700253129">
        <ele>2.06</ele>
        <time>2017-07-02T08:21:50Z</time>
      </trkpt>
      <trkpt lat="55.566152958199382" lon="12.915953965857625">
        <ele>2.06</ele>
        <time>2017-07-02T08:22:01Z</time>
      </trkpt>
      <trkpt lat="55.566484965384007" lon="12.9143319837749">
        <ele>2.54</ele>
        <time>2017-07-02T08:22:10Z</time>
      </trkpt>
      <trkpt lat="55.566546991467476" lon="12.913570990785956">
        <ele>2.54</ele>
        <time>2017-07-02T08:22:18Z</time>
      </trkpt>
      <trkpt lat="55.566543973982334" lon="12.913461020216346">
        <ele>2.54</ele>
        <time>2017-07-02T08:22:27Z</time>
      </trkpt>
      <trkpt lat="55.566538022831082" lon="12.913347026333213">
        <ele>2.54</ele>
        <time>2017-07-02T08:23:01Z</time>
      </trkpt>
      <trkpt lat="55.566565012559295" lon="12.913245018571615">
        <ele>4.46</ele>
        <time>2017-07-02T08:23:42Z</time>
      </trkpt>
      <trkpt lat="55.566566018387675" lon="12.913245018571615">
        <ele>4.46</ele>
        <time>2017-07-02T08:25:28Z</time>
      </trkpt>
      <trkpt lat="55.566571969538927" lon="12.913148961961269">
        <ele>4.94</ele>
        <time>2017-07-02T08:25:48Z</time>
      </trkpt>
      <trkpt lat="55.566578004509211" lon="12.913116021081805">
        <ele>5.91</ele>
        <time>2017-07-02T08:26:10Z</time>
      </trkpt>
      <trkpt lat="55.566590996459126" lon="12.913025999441743">
        <ele>9.75</ele>
        <time>2017-07-02T08:26:31Z</time>
      </trkpt>
      <trkpt lat="55.566580016165972" lon="12.912922985851765">
        <ele>15.52</ele>
        <time>2017-07-02T08:27:06Z</time>
      </trkpt>
      <trkpt lat="55.566598959267139" lon="12.912842016667128">
        <ele>15.52</ele>
        <time>2017-07-02T08:27:38Z</time>
      </trkpt>
      <trkpt lat="55.566584961488843" lon="12.912766998633742">
        <ele>11.67</ele>
        <time>2017-07-02T08:28:05Z</time>
      </trkpt>
      <trkpt lat="55.566564006730914" lon="12.912755012512207">
        <ele>9.75</ele>
        <time>2017-07-02T08:28:38Z</time>
      </trkpt>
      <trkpt lat="55.566573981195688" lon="12.912630038335919">
        <ele>10.710000000000001</ele>
        <time>2017-07-02T08:28:49Z</time>
      </trkpt>
      <trkpt lat="55.566579010337591" lon="12.912529036402702">
        <ele>11.19</ele>
        <time>2017-07-02T08:28:50Z</time>
      </trkpt>
      <trkpt lat="55.566550008952618" lon="12.912002988159657">
        <ele>13.119999999999999</ele>
        <time>2017-07-02T08:28:55Z</time>
      </trkpt>
      <trkpt lat="55.566386980935931" lon="12.910874029621482">
        <ele>11.19</ele>
        <time>2017-07-02T08:29:03Z</time>
      </trkpt>
      <trkpt lat="55.566204003989697" lon="12.908762963488698">
        <ele>8.310000000000001</ele>
        <time>2017-07-02T08:29:11Z</time>
      </trkpt>
      <trkpt lat="55.566000994294882" lon="12.905546994879842">
        <ele>6.87</ele>
        <time>2017-07-02T08:29:20Z</time>
      </trkpt>
      <trkpt lat="55.565604027360678" lon="12.900205962359905">
        <ele>9.27</ele>
        <time>2017-07-02T08:29:33Z</time>
      </trkpt>
      <trkpt lat="55.565468994900584" lon="12.896077958866954">
        <ele>12.15</ele>
        <time>2017-07-02T08:29:43Z</time>
      </trkpt>
      <trkpt lat="55.565598998218775" lon="12.892612041905522">
        <ele>16</ele>
        <time>2017-07-02T08:29:52Z</time>
      </trkpt>
      <trkpt lat="55.566037036478519" lon="12.885605022311211">
        <ele>21.289999999999999</ele>
        <time>2017-07-02T08:30:08Z</time>
      </trkpt>
      <trkpt lat="55.566737009212375" lon="12.877285983413458">
        <ele>28.5</ele>
        <time>2017-07-02T08:30:26Z</time>
      </trkpt>
      <trkpt lat="55.567793967202306" lon="12.867737989872694">
        <ele>37.149999999999999</ele>
        <time>2017-07-02T08:30:47Z</time>
      </trkpt>
      <trkpt lat="55.569095006212592" lon="12.85831798799336">
        <ele>44.359999999999999</ele>
        <time>2017-07-02T08:31:08Z</time>
      </trkpt>
      <trkpt lat="55.570697039365768" lon="12.848743004724383">
        <ele>52.049999999999997</ele>
        <time>2017-07-02T08:31:30Z</time>
      </trkpt>
      <trkpt lat="55.572934001684189" lon="12.83769004046917">
        <ele>61.659999999999997</ele>
        <time>2017-07-02T08:31:56Z</time>
      </trkpt>
      <trkpt lat="55.574979018419981" lon="12.828405993059278">
        <ele>65.030000000000001</ele>
        <time>2017-07-02T08:32:18Z</time>
      </trkpt>
      <trkpt lat="55.576878022402525" lon="12.819803981110454">
        <ele>64.549999999999997</ele>
        <time>2017-07-02T08:32:38Z</time>
      </trkpt>
      <trkpt lat="55.579096963629127" lon="12.810053983703256">
        <ele>57.340000000000003</ele>
        <time>2017-07-02T08:33:00Z</time>
      </trkpt>
      <trkpt lat="55.58101600036025" lon="12.802544971928">
        <ele>49.159999999999997</ele>
        <time>2017-07-02T08:33:18Z</time>
      </trkpt>
      <trkpt lat="55.582362972199917" lon="12.797653041779995">
        <ele>43.880000000000003</ele>
        <time>2017-07-02T08:33:31Z</time>
      </trkpt>
      <trkpt lat="55.583579018712044" lon="12.793497964739799">
        <ele>39.549999999999997</ele>
        <time>2017-07-02T08:33:42Z</time>
      </trkpt>
      <trkpt lat="55.585836013779044" lon="12.786189028993249">
        <ele>31.379999999999999</ele>
        <time>2017-07-02T08:34:00Z</time>
      </trkpt>
      <trkpt lat="55.588917033746839" lon="12.777315024286509">
        <ele>21.289999999999999</ele>
        <time>2017-07-02T08:34:21Z</time>
      </trkpt>
      <trkpt lat="55.591933010146022" lon="12.769551035016775">
        <ele>13.119999999999999</ele>
        <time>2017-07-02T08:34:40Z</time>
      </trkpt>
      <trkpt lat="55.594545984640718" lon="12.763599967584014">
        <ele>8.789999999999999</ele>
        <time>2017-07-02T08:34:55Z</time>
      </trkpt>
      <trkpt lat="55.599116971716285" lon="12.75377000682056">
        <ele>7.83</ele>
        <time>2017-07-02T08:35:20Z</time>
      </trkpt>
      <trkpt lat="55.604829993098974" lon="12.741595963016152">
        <ele>7.35</ele>
        <time>2017-07-02T08:35:51Z</time>
      </trkpt>
      <trkpt lat="55.608427003026009" lon="12.733353031799197">
        <ele>1.58</ele>
        <time>2017-07-02T08:36:12Z</time>
      </trkpt>
      <trkpt lat="55.610604034736753" lon="12.727912003174424">
        <ele>-9.48</ele>
        <time>2017-07-02T08:36:27Z</time>
      </trkpt>
      <trkpt lat="55.631287973374128" lon="12.677989974617958">
        <ele>15.039999999999999</ele>
        <time>2017-07-02T08:38:53Z</time>
      </trkpt>
      <trkpt lat="55.631473967805505" lon="12.677455963566899">
        <ele>4.46</ele>
        <time>2017-07-02T08:38:55Z</time>
      </trkpt>
      <trkpt lat="55.631503975018859" lon="12.676748028025031">
        <ele>4.46</ele>
        <time>2017-07-02T08:38:56Z</time>
      </trkpt>
      <trkpt lat="55.632659001275897" lon="12.672977009788156">
        <ele>6.87</ele>
        <time>2017-07-02T08:39:07Z</time>
      </trkpt>
      <trkpt lat="55.633318992331624" lon="12.669039024040103">
        <ele>7.35</ele>
        <time>2017-07-02T08:39:17Z</time>
      </trkpt>
      <trkpt lat="55.633511021733284" lon="12.665663966909051">
        <ele>5.91</ele>
        <time>2017-07-02T08:39:26Z</time>
      </trkpt>
      <trkpt lat="55.633383030071855" lon="12.662449004128575">
        <ele>3.02</ele>
        <time>2017-07-02T08:39:35Z</time>
      </trkpt>
      <trkpt lat="55.632868967950344" lon="12.658670023083687">
        <ele>-1.3</ele>
        <time>2017-07-02T08:39:44Z</time>
      </trkpt>
      <trkpt lat="55.631887027993798" lon="12.652678973972797">
        <ele>-3.23</ele>
        <time>2017-07-02T08:39:57Z</time>
      </trkpt>
      <trkpt lat="55.63105596229434" lon="12.646016031503677">
        <ele>-0.82</ele>
        <time>2017-07-02T08:40:11Z</time>
      </trkpt>
      <trkpt lat="55.630564028397202" lon="12.64002900570631">
        <ele>-0.34</ele>
        <time>2017-07-02T08:40:24Z</time>
      </trkpt>
      <trkpt lat="55.630286000669003" lon="12.631016029044986">
        <ele>-2.75</ele>
        <time>2017-07-02T08:40:43Z</time>
      </trkpt>
      <trkpt lat="55.630068993195891" lon="12.62307601980865">
        <ele>-4.19</ele>
        <time>2017-07-02T08:41:00Z</time>
      </trkpt>
      <trkpt lat="55.629975032061338" lon="12.62000598013401">
        <ele>-3.71</ele>
        <time>2017-07-02T08:41:07Z</time>
      </trkpt>
      <trkpt lat="55.629832958802581" lon="12.613067021593451">
        <ele>-7.07</ele>
        <time>2017-07-02T08:41:22Z</time>
      </trkpt>
      <trkpt lat="55.629070037975907" lon="12.594589032232761">
        <ele>-9.48</ele>
        <time>2017-07-02T08:42:00Z</time>
      </trkpt>
      <trkpt lat="55.628277026116848" lon="12.587750991806388">
        <ele>-9.960000000000001</ele>
        <time>2017-07-02T08:42:14Z</time>
      </trkpt>
      <trkpt lat="55.628012996166945" lon="12.581807971000671">
        <ele>-11.4</ele>
        <time>2017-07-02T08:42:26Z</time>
      </trkpt>
      <trkpt lat="55.628199996426702" lon="12.575813988223672">
        <ele>-9.48</ele>
        <time>2017-07-02T08:42:38Z</time>
      </trkpt>
      <trkpt lat="55.628451034426689" lon="12.571758991107345">
        <ele>-7.07</ele>
        <time>2017-07-02T08:42:47Z</time>
      </trkpt>
      <trkpt lat="55.628697965294123" lon="12.567004021257162">
        <ele>-7.07</ele>
        <time>2017-07-02T08:42:57Z</time>
      </trkpt>
      <trkpt lat="55.62905696220696" lon="12.559544965624809">
        <ele>-7.07</ele>
        <time>2017-07-02T08:43:12Z</time>
      </trkpt>
      <trkpt lat="55.62944496050477" lon="12.552051963284612">
        <ele>-8.51</ele>
        <time>2017-07-02T08:43:27Z</time>
      </trkpt>
      <trkpt lat="55.629675965756178" lon="12.545911967754364">
        <ele>-9.960000000000001</ele>
        <time>2017-07-02T08:43:40Z</time>
      </trkpt>
      <trkpt lat="55.629348987713456" lon="12.542648976668715">
        <ele>-9.960000000000001</ele>
        <time>2017-07-02T08:43:47Z</time>
      </trkpt>
      <trkpt lat="55.62875303439796" lon="12.53979803994298">
        <ele>-9.960000000000001</ele>
        <time>2017-07-02T08:43:54Z</time>
      </trkpt>
      <trkpt lat="55.627758018672466" lon="12.536966968327761">
        <ele>-9.48</ele>
        <time>2017-07-02T08:44:02Z</time>
      </trkpt>
      <trkpt lat="55.626264028251171" lon="12.534290039911866">
        <ele>-9.960000000000001</ele>
        <time>2017-07-02T08:44:11Z</time>
      </trkpt>
      <trkpt lat="55.624236026778817" lon="12.531975964084268">
        <ele>-9.960000000000001</ele>
        <time>2017-07-02T08:44:21Z</time>
      </trkpt>
      <trkpt lat="55.621031038463116" lon="12.529371958225965">
        <ele>-9.960000000000001</ele>
        <time>2017-07-02T08:44:35Z</time>
      </trkpt>
      <trkpt lat="55.618039034307003" lon="12.526830984279513">
        <ele>-8.51</ele>
        <time>2017-07-02T08:44:48Z</time>
      </trkpt>
      <trkpt lat="55.616330970078707" lon="12.52422496676445">
        <ele>-7.07</ele>
        <time>2017-07-02T08:44:57Z</time>
      </trkpt>
      <trkpt lat="55.61517896130681" lon="12.521326001733541">
        <ele>-3.71</ele>
        <time>2017-07-02T08:45:05Z</time>
      </trkpt>
      <trkpt lat="55.614431966096163" lon="12.518071979284286">
        <ele>1.58</ele>
        <time>2017-07-02T08:45:13Z</time>
      </trkpt>
      <trkpt lat="55.614087972790003" lon="12.514114966616035">
        <ele>7.83</ele>
        <time>2017-07-02T08:45:22Z</time>
      </trkpt>
      <trkpt lat="55.614171959459782" lon="12.508729007095098">
        <ele>6.87</ele>
        <time>2017-07-02T08:45:34Z</time>
      </trkpt>
      <trkpt lat="55.614550989121199" lon="12.502956977114081">
        <ele>-1.79</ele>
        <time>2017-07-02T08:45:47Z</time>
      </trkpt>
      <trkpt lat="55.614835973829031" lon="12.498885970562696">
        <ele>-5.63</ele>
        <time>2017-07-02T08:45:55Z</time>
      </trkpt>
      <trkpt lat="55.615387000143528" lon="12.491173027083278">
        <ele>-9</ele>
        <time>2017-07-02T08:46:10Z</time>
      </trkpt>
      <trkpt lat="55.61625100672245" lon="12.478862022981048">
        <ele>-10.92</ele>
        <time>2017-07-02T08:46:34Z</time>
      </trkpt>
      <trkpt lat="55.616397019475698" lon="12.475805981084704">
        <ele>-10.44</ele>
        <time>2017-07-02T08:46:40Z</time>
      </trkpt>
      <trkpt lat="55.61640196479857" lon="12.470755968242884">
        <ele>-9.960000000000001</ele>
        <time>2017-07-02T08:46:50Z</time>
      </trkpt>
      <trkpt lat="55.615983959287405" lon="12.465827995911241">
        <ele>-9.960000000000001</ele>
        <time>2017-07-02T08:47:00Z</time>
      </trkpt>
      <trkpt lat="55.615208968520164" lon="12.458301968872547">
        <ele>-9.48</ele>
        <time>2017-07-02T08:47:15Z</time>
      </trkpt>
      <trkpt lat="55.615380965173244" lon="12.454207995906472">
        <ele>-9</ele>
        <time>2017-07-02T08:47:23Z</time>
      </trkpt>
      <trkpt lat="55.616021007299423" lon="12.450818018987775">
        <ele>-8.51</ele>
        <time>2017-07-02T08:47:30Z</time>
      </trkpt>
      <trkpt lat="55.617059022188187" lon="12.44780003093183">
        <ele>-9.48</ele>
        <time>2017-07-02T08:47:37Z</time>
      </trkpt>
      <trkpt lat="55.61820600181818" lon="12.445581005886197">
        <ele>-9.960000000000001</ele>
        <time>2017-07-02T08:47:43Z</time>
      </trkpt>
      <trkpt lat="55.620105005800724" lon="12.4433290399611">
        <ele>-10.44</ele>
        <time>2017-07-02T08:47:51Z</time>
      </trkpt>
      <trkpt lat="55.623646024614573" lon="12.440290013328195">
        <ele>-7.55</ele>
        <time>2017-07-02T08:48:05Z</time>
      </trkpt>
      <trkpt lat="55.627148989588022" lon="12.436843039467931">
        <ele>-4.19</ele>
        <time>2017-07-02T08:48:19Z</time>
      </trkpt>
      <trkpt lat="55.628770971670747" lon="12.434009034186602">
        <ele>-2.75</ele>
        <time>2017-07-02T08:48:27Z</time>
      </trkpt>
      <trkpt lat="55.629842011258006" lon="12.430986016988754">
        <ele>-3.23</ele>
        <time>2017-07-02T08:48:34Z</time>
      </trkpt>
      <trkpt lat="55.630553970113397" lon="12.427092036232352">
        <ele>-2.27</ele>
        <time>2017-07-02T08:48:42Z</time>
      </trkpt>
      <trkpt lat="55.630698977038264" lon="12.423572978004813">
        <ele>-1.79</ele>
        <time>2017-07-02T08:48:49Z</time>
      </trkpt>
      <trkpt lat="55.63023797236383" lon="12.414567964151502">
        <ele>-0.82</ele>
        <time>2017-07-02T08:49:07Z</time>
      </trkpt>
      <trkpt lat="55.62957102432847" lon="12.402440020814538">
        <ele>1.1</ele>
        <time>2017-07-02T08:49:31Z</time>
      </trkpt>
      <trkpt lat="55.628959983587265" lon="12.390794036909938">
        <ele>4.46</ele>
        <time>2017-07-02T08:49:54Z</time>
      </trkpt>
      <trkpt lat="55.628414992243052" lon="12.381975017488003">
        <ele>-1.3</ele>
        <time>2017-07-02T08:50:11Z</time>
      </trkpt>
      <trkpt lat="55.627555008977652" lon="12.374389981850982">
        <ele>-1.3</ele>
        <time>2017-07-02T08:50:26Z</time>
      </trkpt>
      <trkpt lat="55.626289006322622" lon="12.366933021694422">
        <ele>-1.79</ele>
        <time>2017-07-02T08:50:41Z</time>
      </trkpt>
      <trkpt lat="55.624765008687973" lon="12.360469987615943">
        <ele>-4.19</ele>
        <time>2017-07-02T08:50:54Z</time>
      </trkpt>
      <trkpt lat="55.622590994462371" lon="12.352838013321161">
        <ele>-3.71</ele>
        <time>2017-07-02T08:51:10Z</time>
      </trkpt>
      <trkpt lat="55.619560014456511" lon="12.342391982674599">
        <ele>-2.75</ele>
        <time>2017-07-02T08:51:32Z</time>
      </trkpt>
      <trkpt lat="55.617144014686346" lon="12.3343809787184">
        <ele>-1.3</ele>
        <time>2017-07-02T08:51:49Z</time>
      </trkpt>
      <trkpt lat="55.614816024899483" lon="12.327987011522055">
        <ele>-4.19</ele>
        <time>2017-07-02T08:52:03Z</time>
      </trkpt>
      <trkpt lat="55.612263986840844" lon="12.322239959612489">
        <ele>-5.15</ele>
        <time>2017-07-02T08:52:17Z</time>
      </trkpt>
      <trkpt lat="55.60832298360765" lon="12.314392989501357">
        <ele>-2.27</ele>
        <time>2017-07-02T08:52:37Z</time>
      </trkpt>
      <trkpt lat="55.603517973795533" lon="12.304761009290814">
        <ele>-1.3</ele>
        <time>2017-07-02T08:53:01Z</time>
      </trkpt>
      <trkpt lat="55.601057969033718" lon="12.299303971230984">
        <ele>-2.27</ele>
        <time>2017-07-02T08:53:14Z</time>
      </trkpt>
      <trkpt lat="55.598753029480577" lon="12.293099015951157">
        <ele>-3.23</ele>
        <time>2017-07-02T08:53:28Z</time>
      </trkpt>
      <trkpt lat="55.596443982794881" lon="12.285794019699097">
        <ele>-1.79</ele>
        <time>2017-07-02T08:53:44Z</time>
      </trkpt>
      <trkpt lat="55.593940978869796" lon="12.278963020071387">
        <ele>-1.3</ele>
        <time>2017-07-02T08:54:00Z</time>
      </trkpt>
      <trkpt lat="55.591657999902964" lon="12.273889034986496">
        <ele>-1.3</ele>
        <time>2017-07-02T08:54:13Z</time>
      </trkpt>
      <trkpt lat="55.588602963835001" lon="12.268154975026846">
        <ele>0.62</ele>
        <time>2017-07-02T08:54:28Z</time>
      </trkpt>
      <trkpt lat="55.585438041016459" lon="12.263266984373331">
        <ele>1.1</ele>
        <time>2017-07-02T08:54:42Z</time>
      </trkpt>
      <trkpt lat="55.582179995253682" lon="12.259201006963849">
        <ele>1.58</ele>
        <time>2017-07-02T08:54:55Z</time>
      </trkpt>
      <trkpt lat="55.580233968794346" lon="12.256759023293853">
        <ele>3.98</ele>
        <time>2017-07-02T08:55:03Z</time>
      </trkpt>
      <trkpt lat="55.576132033020258" lon="12.250611986964941">
        <ele>4.46</ele>
        <time>2017-07-02T08:55:21Z</time>
      </trkpt>
      <trkpt lat="55.572729986160994" lon="12.244630996137857">
        <ele>7.83</ele>
        <time>2017-07-02T08:55:37Z</time>
      </trkpt>
      <trkpt lat="55.570483971387148" lon="12.241159966215491">
        <ele>10.23</ele>
        <time>2017-07-02T08:55:47Z</time>
      </trkpt>
      <trkpt lat="55.567028028890491" lon="12.236502980813384">
        <ele>7.35</ele>
        <time>2017-07-02T08:56:01Z</time>
      </trkpt>
      <trkpt lat="55.563626987859607" lon="12.232719976454973">
        <ele>3.98</ele>
        <time>2017-07-02T08:56:14Z</time>
      </trkpt>
      <trkpt lat="55.559307038784027" lon="12.228963039815426">
        <ele>-0.34</ele>
        <time>2017-07-02T08:56:30Z</time>
      </trkpt>
      <trkpt lat="55.555268973112106" lon="12.226299019530416">
        <ele>-5.15</ele>
        <time>2017-07-02T08:56:44Z</time>
      </trkpt>
      <trkpt lat="55.551397958770394" lon="12.224130034446716">
        <ele>-7.07</ele>
        <time>2017-07-02T08:56:57Z</time>
      </trkpt>
      <trkpt lat="55.548584992066026" lon="12.221610015258193">
        <ele>-7.55</ele>
        <time>2017-07-02T08:57:07Z</time>
      </trkpt>
      <trkpt lat="55.546047035604715" lon="12.218221966177225">
        <ele>-6.11</ele>
        <time>2017-07-02T08:57:17Z</time>
      </trkpt>
      <trkpt lat="55.544223971664906" lon="12.214841041713953">
        <ele>-1.3</ele>
        <time>2017-07-02T08:57:26Z</time>
      </trkpt>
      <trkpt lat="55.542525965720415" lon="12.21058202907443">
        <ele>1.58</ele>
        <time>2017-07-02T08:57:36Z</time>
      </trkpt>
      <trkpt lat="55.540487989783287" lon="12.206010958179832">
        <ele>0.14</ele>
        <time>2017-07-02T08:57:47Z</time>
      </trkpt>
      <trkpt lat="55.538541963323951" lon="12.202978972345591">
        <ele>-2.75</ele>
        <time>2017-07-02T08:57:56Z</time>
      </trkpt>
      <trkpt lat="55.536560984328389" lon="12.20054998062551">
        <ele>-4.19</ele>
        <time>2017-07-02T08:58:06Z</time>
      </trkpt>
      <trkpt lat="55.533923031762242" lon="12.198287034407258">
        <ele>-4.19</ele>
        <time>2017-07-02T08:58:19Z</time>
      </trkpt>
      <trkpt lat="55.531236967071891" lon="12.1968740131706">
        <ele>-3.23</ele>
        <time>2017-07-02T08:58:32Z</time>
      </trkpt>
      <trkpt lat="55.528306988999248" lon="12.196205975487828">
        <ele>-2.75</ele>
        <time>2017-07-02T08:58:46Z</time>
      </trkpt>
      <trkpt lat="55.524665974080563" lon="12.195640029385686">
        <ele>-3.71</ele>
        <time>2017-07-02T08:59:03Z</time>
      </trkpt>
      <trkpt lat="55.522928992286325" lon="12.194991018623114">
        <ele>-4.67</ele>
        <time>2017-07-02T08:59:12Z</time>
      </trkpt>
      <trkpt lat="55.520410984754562" lon="12.19320198521018">
        <ele>-6.59</ele>
        <time>2017-07-02T08:59:25Z</time>
      </trkpt>
      <trkpt lat="55.51784997805953" lon="12.190496977418661">
        <ele>-5.63</ele>
        <time>2017-07-02T08:59:39Z</time>
      </trkpt>
      <trkpt lat="55.517667001113296" lon="12.190291034057736">
        <ele>-6.11</ele>
        <time>2017-07-02T08:59:40Z</time>
      </trkpt>
      <trkpt lat="55.517486035823822" lon="12.190077966079116">
        <ele>-6.59</ele>
        <time>2017-07-02T08:59:41Z</time>
      </trkpt>
      <trkpt lat="55.515536991879344" lon="12.187072969973087">
        <ele>-4.67</ele>
        <time>2017-07-02T08:59:53Z</time>
      </trkpt>
      <trkpt lat="55.512872971594334" lon="12.182592004537582">
        <ele>-3.23</ele>
        <time>2017-07-02T09:00:10Z</time>
      </trkpt>
      <trkpt lat="55.510467030107975" lon="12.17977199703455">
        <ele>-2.75</ele>
        <time>2017-07-02T09:00:23Z</time>
      </trkpt>
      <trkpt lat="55.507868975400925" lon="12.177673000842333">
        <ele>-2.27</ele>
        <time>2017-07-02T09:00:36Z</time>
      </trkpt>
      <trkpt lat="55.5051280092448" lon="12.176262997090816">
        <ele>-1.79</ele>
        <time>2017-07-02T09:00:49Z</time>
      </trkpt>
      <trkpt lat="55.501525970175862" lon="12.174616036936641">
        <ele>-1.79</ele>
        <time>2017-07-02T09:01:05Z</time>
      </trkpt>
      <trkpt lat="55.498004984110594" lon="12.173043005168438">
        <ele>-2.75</ele>
        <time>2017-07-02T09:01:21Z</time>
      </trkpt>
      <trkpt lat="55.494571002200246" lon="12.17147902585566">
        <ele>-2.75</ele>
        <time>2017-07-02T09:01:37Z</time>
      </trkpt>
      <trkpt lat="55.491033000871539" lon="12.169672977179289">
        <ele>4.46</ele>
        <time>2017-07-02T09:01:54Z</time>
      </trkpt>
      <trkpt lat="55.488565033301711" lon="12.167645981535316">
        <ele>0.14</ele>
        <time>2017-07-02T09:02:06Z</time>
      </trkpt>
      <trkpt lat="55.486417002975941" lon="12.165088998153806">
        <ele>-5.63</ele>
        <time>2017-07-02T09:02:17Z</time>
      </trkpt>
      <trkpt lat="55.484510958194733" lon="12.162127001211047">
        <ele>-3.23</ele>
        <time>2017-07-02T09:02:28Z</time>
      </trkpt>
      <trkpt lat="55.48261497169733" lon="12.158105028793216">
        <ele>-0.34</ele>
        <time>2017-07-02T09:02:41Z</time>
      </trkpt>
      <trkpt lat="55.481947017833591" lon="12.155916010960937">
        <ele>-2.27</ele>
        <time>2017-07-02T09:02:48Z</time>
      </trkpt>
      <trkpt lat="55.481246039271355" lon="12.153640994802117">
        <ele>-1.79</ele>
        <time>2017-07-02T09:02:56Z</time>
      </trkpt>
      <trkpt lat="55.480564003810287" lon="12.150795003399253">
        <ele>0.62</ele>
        <time>2017-07-02T09:03:03Z</time>
      </trkpt>
      <trkpt lat="55.479837041348219" lon="12.146093007177114">
        <ele>-0.82</ele>
        <time>2017-07-02T09:03:13Z</time>
      </trkpt>
      <trkpt lat="55.479500005021691" lon="12.141180960461497">
        <ele>-0.34</ele>
        <time>2017-07-02T09:03:23Z</time>
      </trkpt>
      <trkpt lat="55.479549039155245" lon="12.135221008211374">
        <ele>3.5</ele>
        <time>2017-07-02T09:03:35Z</time>
      </trkpt>
      <trkpt lat="55.479664960876107" lon="12.128294035792351">
        <ele>7.83</ele>
        <time>2017-07-02T09:03:49Z</time>
      </trkpt>
      <trkpt lat="55.479753976687789" lon="12.120952997356653">
        <ele>9.75</ele>
        <time>2017-07-02T09:04:03Z</time>
      </trkpt>
      <trkpt lat="55.479825977236032" lon="12.112048985436559">
        <ele>10.710000000000001</ele>
        <time>2017-07-02T09:04:19Z</time>
      </trkpt>
      <trkpt lat="55.479549039155245" lon="12.105331979691982">
        <ele>12.630000000000001</ele>
        <time>2017-07-02T09:04:31Z</time>
      </trkpt>
      <trkpt lat="55.478770025074482" lon="12.098850002512336">
        <ele>14.08</ele>
        <time>2017-07-02T09:04:43Z</time>
      </trkpt>
      <trkpt lat="55.477660009637475" lon="12.093089036643505">
        <ele>15.52</ele>
        <time>2017-07-02T09:04:54Z</time>
      </trkpt>
      <trkpt lat="55.476112961769104" lon="12.087616994976997">
        <ele>16</ele>
        <time>2017-07-02T09:05:05Z</time>
      </trkpt>
      <trkpt lat="55.473105031996965" lon="12.0789859816432">
        <ele>16.48</ele>
        <time>2017-07-02T09:05:23Z</time>
      </trkpt>
      <trkpt lat="55.470360964536667" lon="12.070836005732417">
        <ele>13.119999999999999</ele>
        <time>2017-07-02T09:05:40Z</time>
      </trkpt>
      <trkpt lat="55.468457015231252" lon="12.06360200420022">
        <ele>19.359999999999999</ele>
        <time>2017-07-02T09:05:54Z</time>
      </trkpt>
      <trkpt lat="55.466620959341526" lon="12.054317034780979">
        <ele>26.57</ele>
        <time>2017-07-02T09:06:11Z</time>
      </trkpt>
      <trkpt lat="55.465155970305204" lon="12.044197982177138">
        <ele>29.460000000000001</ele>
        <time>2017-07-02T09:06:29Z</time>
      </trkpt>
      <trkpt lat="55.463761975988746" lon="12.031452041119337">
        <ele>26.57</ele>
        <time>2017-07-02T09:06:51Z</time>
      </trkpt>
      <trkpt lat="55.462295981124043" lon="12.020536959171295">
        <ele>23.210000000000001</ele>
        <time>2017-07-02T09:07:10Z</time>
      </trkpt>
      <trkpt lat="55.460351966321468" lon="12.009140001609921">
        <ele>22.73</ele>
        <time>2017-07-02T09:07:30Z</time>
      </trkpt>
      <trkpt lat="55.458729984238744" lon="11.998219974339008">
        <ele>25.129999999999999</ele>
        <time>2017-07-02T09:07:49Z</time>
      </trkpt>
      <trkpt lat="55.457933032885194" lon="11.989919040352106">
        <ele>26.57</ele>
        <time>2017-07-02T09:08:03Z</time>
      </trkpt>
      <trkpt lat="55.457372032105923" lon="11.980990972369909">
        <ele>28.02</ele>
        <time>2017-07-02T09:08:18Z</time>
      </trkpt>
      <trkpt lat="55.457181008532643" lon="11.973218014463782">
        <ele>26.09</ele>
        <time>2017-07-02T09:08:31Z</time>
      </trkpt>
      <trkpt lat="55.457330038771033" lon="11.96373799815774">
        <ele>25.609999999999999</ele>
        <time>2017-07-02T09:08:47Z</time>
      </trkpt>
      <trkpt lat="55.457837982103229" lon="11.952648991718888">
        <ele>26.09</ele>
        <time>2017-07-02T09:09:06Z</time>
      </trkpt>
      <trkpt lat="55.458062030375004" lon="11.944646034389734">
        <ele>26.57</ele>
        <time>2017-07-02T09:09:20Z</time>
      </trkpt>
      <trkpt lat="55.457857009023428" lon="11.937111038714647">
        <ele>27.530000000000001</ele>
        <time>2017-07-02T09:09:33Z</time>
      </trkpt>
      <trkpt lat="55.457250997424126" lon="11.929595991969109">
        <ele>28.98</ele>
        <time>2017-07-02T09:09:46Z</time>
      </trkpt>
      <trkpt lat="55.456204013898969" lon="11.919830990955234">
        <ele>33.299999999999997</ele>
        <time>2017-07-02T09:10:03Z</time>
      </trkpt>
      <trkpt lat="55.45605699531734" lon="11.914591966196895">
        <ele>36.189999999999998</ele>
        <time>2017-07-02T09:10:12Z</time>
      </trkpt>
      <trkpt lat="55.456441976130009" lon="11.909312959760427">
        <ele>31.859999999999999</ele>
        <time>2017-07-02T09:10:21Z</time>
      </trkpt>
      <trkpt lat="55.457226019352674" lon="11.902246009558439">
        <ele>23.690000000000001</ele>
        <time>2017-07-02T09:10:33Z</time>
      </trkpt>
      <trkpt lat="55.457434980198741" lon="11.895714998245239">
        <ele>22.25</ele>
        <time>2017-07-02T09:10:44Z</time>
      </trkpt>
      <trkpt lat="55.457307994365692" lon="11.892016986384988">
        <ele>24.170000000000002</ele>
        <time>2017-07-02T09:10:51Z</time>
      </trkpt>
      <trkpt lat="55.456768032163382" lon="11.886411001905799">
        <ele>29.940000000000001</ele>
        <time>2017-07-02T09:11:02Z</time>
      </trkpt>
      <trkpt lat="55.456155985593796" lon="11.882563959807158">
        <ele>31.859999999999999</ele>
        <time>2017-07-02T09:11:10Z</time>
      </trkpt>
      <trkpt lat="55.455080000683665" lon="11.8777110055089">
        <ele>32.340000000000003</ele>
        <time>2017-07-02T09:11:21Z</time>
      </trkpt>
      <trkpt lat="55.453936960548162" lon="11.872063027694821">
        <ele>32.82</ele>
        <time>2017-07-02T09:11:32Z</time>
      </trkpt>
      <trkpt lat="55.453273029997945" lon="11.866576988250017">
        <ele>34.259999999999998</ele>
        <time>2017-07-02T09:11:42Z</time>
      </trkpt>
      <trkpt lat="55.453105978667736" lon="11.860439004376531">
        <ele>36.189999999999998</ele>
        <time>2017-07-02T09:11:53Z</time>
      </trkpt>
      <trkpt lat="55.453465981408954" lon="11.854292973875999">
        <ele>36.670000000000002</ele>
        <time>2017-07-02T09:12:04Z</time>
      </trkpt>
      <trkpt lat="55.454323031008244" lon="11.84883501380682">
        <ele>38.590000000000003</ele>
        <time>2017-07-02T09:12:14Z</time>
      </trkpt>
      <trkpt lat="55.455320980399847" lon="11.844082977622747">
        <ele>39.07</ele>
        <time>2017-07-02T09:12:23Z</time>
      </trkpt>
      <trkpt lat="55.455983988940716" lon="11.839052997529507">
        <ele>35.710000000000001</ele>
        <time>2017-07-02T09:12:32Z</time>
      </trkpt>
      <trkpt lat="55.456175012513995" lon="11.833875998854637">
        <ele>33.299999999999997</ele>
        <time>2017-07-02T09:12:41Z</time>
      </trkpt>
      <trkpt lat="55.455890027806163" lon="11.828806959092617">
        <ele>32.82</ele>
        <time>2017-07-02T09:12:50Z</time>
      </trkpt>
      <trkpt lat="55.455140015110373" lon="11.822272008284926">
        <ele>33.780000000000001</ele>
        <time>2017-07-02T09:13:02Z</time>
      </trkpt>
      <trkpt lat="55.454799039289355" lon="11.816504001617432">
        <ele>35.710000000000001</ele>
        <time>2017-07-02T09:13:13Z</time>
      </trkpt>
      <trkpt lat="55.454823011532426" lon="11.809188025072217">
        <ele>36.189999999999998</ele>
        <time>2017-07-02T09:13:26Z</time>
      </trkpt>
      <trkpt lat="55.455110007897019" lon="11.800113022327423">
        <ele>35.710000000000001</ele>
        <time>2017-07-02T09:13:42Z</time>
      </trkpt>
      <trkpt lat="55.455575035884976" lon="11.791619975119829">
        <ele>35.710000000000001</ele>
        <time>2017-07-02T09:13:57Z</time>
      </trkpt>
      <trkpt lat="55.455962028354406" lon="11.78674497641623">
        <ele>35.710000000000001</ele>
        <time>2017-07-02T09:14:06Z</time>
      </trkpt>
      <trkpt lat="55.456696031615138" lon="11.778895994648337">
        <ele>37.630000000000003</ele>
        <time>2017-07-02T09:14:21Z</time>
      </trkpt>
      <trkpt lat="55.457275975495577" lon="11.773274000734091">
        <ele>36.670000000000002</ele>
        <time>2017-07-02T09:14:32Z</time>
      </trkpt>
      <trkpt lat="55.45773102901876" lon="11.766570992767811">
        <ele>31.379999999999999</ele>
        <time>2017-07-02T09:14:44Z</time>
      </trkpt>
      <trkpt lat="55.4577980004251" lon="11.759934034198523">
        <ele>24.170000000000002</ele>
        <time>2017-07-02T09:14:55Z</time>
      </trkpt>
      <trkpt lat="55.457474961876869" lon="11.753728995099664">
        <ele>23.690000000000001</ele>
        <time>2017-07-02T09:15:06Z</time>
      </trkpt>
      <trkpt lat="55.4566599894315" lon="11.746430033817887">
        <ele>29.460000000000001</ele>
        <time>2017-07-02T09:15:19Z</time>
      </trkpt>
      <trkpt lat="55.454978998750448" lon="11.736402008682489">
        <ele>41.469999999999999</ele>
        <time>2017-07-02T09:15:37Z</time>
      </trkpt>
      <trkpt lat="55.454161008819938" lon="11.729533961042762">
        <ele>45.799999999999997</ele>
        <time>2017-07-02T09:15:49Z</time>
      </trkpt>
      <trkpt lat="55.453682988882065" lon="11.722484026104212">
        <ele>46.280000000000001</ele>
        <time>2017-07-02T09:16:01Z</time>
      </trkpt>
      <trkpt lat="55.453149983659387" lon="11.716513009741902">
        <ele>43.880000000000003</ele>
        <time>2017-07-02T09:16:12Z</time>
      </trkpt>
      <trkpt lat="55.452645979821682" lon="11.712954975664616">
        <ele>41.469999999999999</ele>
        <time>2017-07-02T09:16:20Z</time>
      </trkpt>
      <trkpt lat="55.451577035710216" lon="11.70722896233201">
        <ele>35.710000000000001</ele>
        <time>2017-07-02T09:16:32Z</time>
      </trkpt>
      <trkpt lat="55.450444975867867" lon="11.701522981747985">
        <ele>31.859999999999999</ele>
        <time>2017-07-02T09:16:45Z</time>
      </trkpt>
      <trkpt lat="55.449722958728671" lon="11.696945037692785">
        <ele>29.460000000000001</ele>
        <time>2017-07-02T09:16:55Z</time>
      </trkpt>
      <trkpt lat="55.448899017646909" lon="11.690007001161575">
        <ele>28.5</ele>
        <time>2017-07-02T09:17:11Z</time>
      </trkpt>
      <trkpt lat="55.448339022696018" lon="11.683824006468058">
        <ele>28.98</ele>
        <time>2017-07-02T09:17:24Z</time>
      </trkpt>
      <trkpt lat="55.447809034958482" lon="11.675543021410704">
        <ele>29.940000000000001</ele>
        <time>2017-07-02T09:17:39Z</time>
      </trkpt>
      <trkpt lat="55.447522038593888" lon="11.667829994112253">
        <ele>30.899999999999999</ele>
        <time>2017-07-02T09:17:52Z</time>
      </trkpt>
      <trkpt lat="55.447470992803574" lon="11.660469006747007">
        <ele>31.379999999999999</ele>
        <time>2017-07-02T09:18:04Z</time>
      </trkpt>
      <trkpt lat="55.447640977799892" lon="11.652796966955066">
        <ele>30.899999999999999</ele>
        <time>2017-07-02T09:18:17Z</time>
      </trkpt>
      <trkpt lat="55.448143975809216" lon="11.642837002873421">
        <ele>31.859999999999999</ele>
        <time>2017-07-02T09:18:34Z</time>
      </trkpt>
      <trkpt lat="55.449003037065268" lon="11.634977962821722">
        <ele>32.340000000000003</ele>
        <time>2017-07-02T09:18:48Z</time>
      </trkpt>
      <trkpt lat="55.450166026130319" lon="11.627613035961986">
        <ele>32.82</ele>
        <time>2017-07-02T09:19:02Z</time>
      </trkpt>
      <trkpt lat="55.451187025755644" lon="11.622641980648041">
        <ele>32.82</ele>
        <time>2017-07-02T09:19:13Z</time>
      </trkpt>
      <trkpt lat="55.452801967039704" lon="11.615859009325504">
        <ele>33.299999999999997</ele>
        <time>2017-07-02T09:19:28Z</time>
      </trkpt>
      <trkpt lat="55.454366030171514" lon="11.608505984768271">
        <ele>33.299999999999997</ele>
        <time>2017-07-02T09:19:43Z</time>
      </trkpt>
      <trkpt lat="55.455355010926723" lon="11.601723013445735">
        <ele>32.82</ele>
        <time>2017-07-02T09:19:55Z</time>
      </trkpt>
      <trkpt lat="55.456482963636518" lon="11.59485999494791">
        <ele>34.259999999999998</ele>
        <time>2017-07-02T09:20:07Z</time>
      </trkpt>
      <trkpt lat="55.457910988479853" lon="11.589087964966893">
        <ele>35.710000000000001</ele>
        <time>2017-07-02T09:20:18Z</time>
      </trkpt>
      <trkpt lat="55.459418976679444" lon="11.582664996385574">
        <ele>37.630000000000003</ele>
        <time>2017-07-02T09:20:30Z</time>
      </trkpt>
      <trkpt lat="55.460189022123814" lon="11.57709002494812">
        <ele>37.149999999999999</ele>
        <time>2017-07-02T09:20:40Z</time>
      </trkpt>
      <trkpt lat="55.460508037358522" lon="11.571356970816851">
        <ele>37.149999999999999</ele>
        <time>2017-07-02T09:20:50Z</time>
      </trkpt>
      <trkpt lat="55.460291029885411" lon="11.5650599822402">
        <ele>36.189999999999998</ele>
        <time>2017-07-02T09:21:01Z</time>
      </trkpt>
      <trkpt lat="55.459844022989273" lon="11.560252038761973">
        <ele>35.229999999999997</ele>
        <time>2017-07-02T09:21:10Z</time>
      </trkpt>
      <trkpt lat="55.458986973389983" lon="11.553955972194672">
        <ele>36.189999999999998</ele>
        <time>2017-07-02T09:21:24Z</time>
      </trkpt>
      <trkpt lat="55.457836976274848" lon="11.547256987541914">
        <ele>38.109999999999999</ele>
        <time>2017-07-02T09:21:38Z</time>
      </trkpt>
      <trkpt lat="55.456862999126315" lon="11.542610982432961">
        <ele>39.07</ele>
        <time>2017-07-02T09:21:48Z</time>
      </trkpt>
      <trkpt lat="55.45545500703156" lon="11.537547977641225">
        <ele>38.109999999999999</ele>
        <time>2017-07-02T09:21:59Z</time>
      </trkpt>
      <trkpt lat="55.453947018831968" lon="11.533268010243773">
        <ele>37.630000000000003</ele>
        <time>2017-07-02T09:22:08Z</time>
      </trkpt>
      <trkpt lat="55.452584959566593" lon="11.530219009146094">
        <ele>38.109999999999999</ele>
        <time>2017-07-02T09:22:15Z</time>
      </trkpt>
      <trkpt lat="55.450602974742651" lon="11.526517979800701">
        <ele>40.990000000000002</ele>
        <time>2017-07-02T09:22:26Z</time>
      </trkpt>
      <trkpt lat="55.447956975549459" lon="11.522420989349484">
        <ele>47.240000000000002</ele>
        <time>2017-07-02T09:22:41Z</time>
      </trkpt>
      <trkpt lat="55.445158006623387" lon="11.517985034734011">
        <ele>53.969999999999999</ele>
        <time>2017-07-02T09:22:56Z</time>
      </trkpt>
      <trkpt lat="55.443019028753042" lon="11.513913022354245">
        <ele>57.82</ele>
        <time>2017-07-02T09:23:07Z</time>
      </trkpt>
      <trkpt lat="55.441100997850299" lon="11.509661972522736">
        <ele>59.740000000000002</ele>
        <time>2017-07-02T09:23:17Z</time>
      </trkpt>
      <trkpt lat="55.439831977710128" lon="11.506399987265468">
        <ele>59.740000000000002</ele>
        <time>2017-07-02T09:23:24Z</time>
      </trkpt>
      <trkpt lat="55.438011009246111" lon="11.500896010547876">
        <ele>57.82</ele>
        <time>2017-07-02T09:23:35Z</time>
      </trkpt>
      <trkpt lat="55.436607962474227" lon="11.49559898301959">
        <ele>54.450000000000003</ele>
        <time>2017-07-02T09:23:46Z</time>
      </trkpt>
      <trkpt lat="55.435514962300658" lon="11.490468000993133">
        <ele>50.130000000000003</ele>
        <time>2017-07-02T09:23:56Z</time>
      </trkpt>
      <trkpt lat="55.434481976553798" lon="11.483677988871932">
        <ele>43.880000000000003</ele>
        <time>2017-07-02T09:24:09Z</time>
      </trkpt>
      <trkpt lat="55.433976966887712" lon="11.478437958285213">
        <ele>37.149999999999999</ele>
        <time>2017-07-02T09:24:18Z</time>
      </trkpt>
      <trkpt lat="55.433529037982225" lon="11.469681970775127">
        <ele>29.460000000000001</ele>
        <time>2017-07-02T09:24:33Z</time>
      </trkpt>
      <trkpt lat="55.432908022776246" lon="11.459817979484797">
        <ele>28.5</ele>
        <time>2017-07-02T09:24:50Z</time>
      </trkpt>
      <trkpt lat="55.43175701983273" lon="11.449358034878969">
        <ele>25.129999999999999</ele>
        <time>2017-07-02T09:25:08Z</time>
      </trkpt>
      <trkpt lat="55.430578021332622" lon="11.441943990066648">
        <ele>21.77</ele>
        <time>2017-07-02T09:25:21Z</time>
      </trkpt>
      <trkpt lat="55.42915603145957" lon="11.435136962682009">
        <ele>23.210000000000001</ele>
        <time>2017-07-02T09:25:33Z</time>
      </trkpt>
      <trkpt lat="55.427363980561495" lon="11.428952040150762">
        <ele>27.530000000000001</ele>
        <time>2017-07-02T09:25:45Z</time>
      </trkpt>
      <trkpt lat="55.425278982147574" lon="11.423614025115967">
        <ele>28.98</ele>
        <time>2017-07-02T09:25:56Z</time>
      </trkpt>
      <trkpt lat="55.42309801094234" lon="11.419293992221355">
        <ele>28.02</ele>
        <time>2017-07-02T09:26:06Z</time>
      </trkpt>
      <trkpt lat="55.421128012239933" lon="11.416428973898292">
        <ele>25.129999999999999</ele>
        <time>2017-07-02T09:26:14Z</time>
      </trkpt>
      <trkpt lat="55.419259015470743" lon="11.414584033191204">
        <ele>22.25</ele>
        <time>2017-07-02T09:26:21Z</time>
      </trkpt>
      <trkpt lat="55.418012039735913" lon="11.413682978600264">
        <ele>19.359999999999999</ele>
        <time>2017-07-02T09:26:26Z</time>
      </trkpt>
      <trkpt lat="55.416648974642158" lon="11.412911005318165">
        <ele>21.289999999999999</ele>
        <time>2017-07-02T09:26:33Z</time>
      </trkpt>
      <trkpt lat="55.415146015584469" lon="11.412123022601008">
        <ele>26.09</ele>
        <time>2017-07-02T09:26:43Z</time>
      </trkpt>
      <trkpt lat="55.413784040138125" lon="11.411378961056471">
        <ele>32.82</ele>
        <time>2017-07-02T09:26:54Z</time>
      </trkpt>
      <trkpt lat="55.411827033385634" lon="11.410463992506266">
        <ele>40.990000000000002</ele>
        <time>2017-07-02T09:27:08Z</time>
      </trkpt>
      <trkpt lat="55.410548038780689" lon="11.409580036997795">
        <ele>46.280000000000001</ele>
        <time>2017-07-02T09:27:19Z</time>
      </trkpt>
      <trkpt lat="55.409169970080256" lon="11.408197022974491">
        <ele>49.159999999999997</ele>
        <time>2017-07-02T09:27:30Z</time>
      </trkpt>
      <trkpt lat="55.40788896381855" lon="11.406493987888098">
        <ele>49.159999999999997</ele>
        <time>2017-07-02T09:27:38Z</time>
      </trkpt>
      <trkpt lat="55.406354991719127" lon="11.403995007276535">
        <ele>53.009999999999998</ele>
        <time>2017-07-02T09:27:46Z</time>
      </trkpt>
      <trkpt lat="55.405060993507504" lon="11.401182962581515">
        <ele>58.780000000000001</ele>
        <time>2017-07-02T09:27:54Z</time>
      </trkpt>
      <trkpt lat="55.403904039412737" lon="11.397543959319592">
        <ele>62.619999999999997</ele>
        <time>2017-07-02T09:28:03Z</time>
      </trkpt>
      <trkpt lat="55.402397979050875" lon="11.391447968780994">
        <ele>64.549999999999997</ele>
        <time>2017-07-02T09:28:17Z</time>
      </trkpt>
      <trkpt lat="55.400700978934765" lon="11.38462501578033">
        <ele>64.069999999999993</ele>
        <time>2017-07-02T09:28:32Z</time>
      </trkpt>
      <trkpt lat="55.399255016818643" lon="11.379456985741854">
        <ele>59.740000000000002</ele>
        <time>2017-07-02T09:28:43Z</time>
      </trkpt>
      <trkpt lat="55.397666981443763" lon="11.375843966379762">
        <ele>58.299999999999997</ele>
        <time>2017-07-02T09:28:52Z</time>
      </trkpt>
      <trkpt lat="55.39566102437675" lon="11.372740985825658">
        <ele>60.700000000000003</ele>
        <time>2017-07-02T09:29:01Z</time>
      </trkpt>
      <trkpt lat="55.39286901243031" lon="11.369554018601775">
        <ele>57.340000000000003</ele>
        <time>2017-07-02T09:29:12Z</time>
      </trkpt>
      <trkpt lat="55.391220962628722" lon="11.366982031613588">
        <ele>52.049999999999997</ele>
        <time>2017-07-02T09:29:19Z</time>
      </trkpt>
      <trkpt lat="55.389945991337299" lon="11.363715017214417">
        <ele>48.200000000000003</ele>
        <time>2017-07-02T09:29:26Z</time>
      </trkpt>
      <trkpt lat="55.389120038598776" lon="11.360164023935795">
        <ele>49.159999999999997</ele>
        <time>2017-07-02T09:29:33Z</time>
      </trkpt>
      <trkpt lat="55.387939028441906" lon="11.352944020181894">
        <ele>51.090000000000003</ele>
        <time>2017-07-02T09:29:47Z</time>
      </trkpt>
      <trkpt lat="55.387333016842604" lon="11.349211977794766">
        <ele>52.049999999999997</ele>
        <time>2017-07-02T09:29:55Z</time>
      </trkpt>
      <trkpt lat="55.386210009455681" lon="11.343648992478848">
        <ele>50.609999999999999</ele>
        <time>2017-07-02T09:30:07Z</time>
      </trkpt>
      <trkpt lat="55.384846022352576" lon="11.338309971615672">
        <ele>52.049999999999997</ele>
        <time>2017-07-02T09:30:18Z</time>
      </trkpt>
      <trkpt lat="55.382230030372739" lon="11.329033970832825">
        <ele>54.450000000000003</ele>
        <time>2017-07-02T09:30:37Z</time>
      </trkpt>
      <trkpt lat="55.380647024139762" lon="11.323398984968662">
        <ele>53.009999999999998</ele>
        <time>2017-07-02T09:30:50Z</time>
      </trkpt>
      <trkpt lat="55.378993023186922" lon="11.317500974982977">
        <ele>47.240000000000002</ele>
        <time>2017-07-02T09:31:04Z</time>
      </trkpt>
      <trkpt lat="55.377944028005004" lon="11.313964985311031">
        <ele>39.549999999999997</ele>
        <time>2017-07-02T09:31:14Z</time>
      </trkpt>
      <trkpt lat="55.376250967383385" lon="11.309086969122291">
        <ele>27.050000000000001</ele>
        <time>2017-07-02T09:31:29Z</time>
      </trkpt>
      <trkpt lat="55.374371996149421" lon="11.304485974833369">
        <ele>15.52</ele>
        <time>2017-07-02T09:31:44Z</time>
      </trkpt>
      <trkpt lat="55.372175015509129" lon="11.299764029681683">
        <ele>2.06</ele>
        <time>2017-07-02T09:32:00Z</time>
      </trkpt>
      <trkpt lat="55.369919026270509" lon="11.294698007404804">
        <ele>-0.82</ele>
        <time>2017-07-02T09:32:17Z</time>
      </trkpt>
      <trkpt lat="55.368563001975417" lon="11.290556006133556">
        <ele>-1.3</ele>
        <time>2017-07-02T09:32:30Z</time>
      </trkpt>
      <trkpt lat="55.367419961839914" lon="11.285562990233302">
        <ele>-2.75</ele>
        <time>2017-07-02T09:32:44Z</time>
      </trkpt>
      <trkpt lat="55.366857033222914" lon="11.281586028635502">
        <ele>0.14</ele>
        <time>2017-07-02T09:32:55Z</time>
      </trkpt>
      <trkpt lat="55.366641031578183" lon="11.277722977101803">
        <ele>1.58</ele>
        <time>2017-07-02T09:33:06Z</time>
      </trkpt>
      <trkpt lat="55.366648994386196" lon="11.275850962847471">
        <ele>5.91</ele>
        <time>2017-07-02T09:33:13Z</time>
      </trkpt>
      <trkpt lat="55.366660980507731" lon="11.275548040866852">
        <ele>6.87</ele>
        <time>2017-07-02T09:33:15Z</time>
      </trkpt>
      <trkpt lat="55.366680007427931" lon="11.275451984256506">
        <ele>7.35</ele>
        <time>2017-07-02T09:33:16Z</time>
      </trkpt>
      <trkpt lat="55.366697022691369" lon="11.275381995365024">
        <ele>7.83</ele>
        <time>2017-07-02T09:33:17Z</time>
      </trkpt>
      <trkpt lat="55.366717977449298" lon="11.275331033393741">
        <ele>7.83</ele>
        <time>2017-07-02T09:33:18Z</time>
      </trkpt>
      <trkpt lat="55.366733986884356" lon="11.275301026180387">
        <ele>7.35</ele>
        <time>2017-07-02T09:33:19Z</time>
      </trkpt>
      <trkpt lat="55.366778997704387" lon="11.275258027017117">
        <ele>7.83</ele>
        <time>2017-07-02T09:33:27Z</time>
      </trkpt>
      <trkpt lat="55.366799030452967" lon="11.275004977360368">
        <ele>9.27</ele>
        <time>2017-07-02T09:33:38Z</time>
      </trkpt>
      <trkpt lat="55.366702973842621" lon="11.274615973234177">
        <ele>10.23</ele>
        <time>2017-07-02T09:33:47Z</time>
      </trkpt>
      <trkpt lat="55.366702973842621" lon="11.274584038183093">
        <ele>10.23</ele>
        <time>2017-07-02T09:34:05Z</time>
      </trkpt>
      <trkpt lat="55.36669903434813" lon="11.274574985727668">
        <ele>10.23</ele>
        <time>2017-07-02T09:34:43Z</time>
      </trkpt>
      <trkpt lat="55.36669802851975" lon="11.274572974070907">
        <ele>10.23</ele>
        <time>2017-07-02T09:37:12Z</time>
      </trkpt>
      <trkpt lat="55.36669802851975" lon="11.274571968242526">
        <ele>10.710000000000001</ele>
        <time>2017-07-02T09:39:33Z</time>
      </trkpt>
      <trkpt lat="55.36669903434813" lon="11.274569034576416">
        <ele>10.710000000000001</ele>
        <time>2017-07-02T09:41:49Z</time>
      </trkpt>
      <trkpt lat="55.366687970235944" lon="11.274545984342694">
        <ele>10.710000000000001</ele>
        <time>2017-07-02T09:41:51Z</time>
      </trkpt>
      <trkpt lat="55.366676989942789" lon="11.274509020149708">
        <ele>10.710000000000001</ele>
        <time>2017-07-02T09:41:52Z</time>
      </trkpt>
      <trkpt lat="55.366661986336112" lon="11.274440037086606">
        <ele>10.710000000000001</ele>
        <time>2017-07-02T09:41:53Z</time>
      </trkpt>
      <trkpt lat="55.366650000214577" lon="11.274333000183105">
        <ele>10.710000000000001</ele>
        <time>2017-07-02T09:41:54Z</time>
      </trkpt>
      <trkpt lat="55.366642037406564" lon="11.27419201657176">
        <ele>10.710000000000001</ele>
        <time>2017-07-02T09:41:55Z</time>
      </trkpt>
      <trkpt lat="55.366570958867669" lon="11.272713029757142">
        <ele>8.310000000000001</ele>
        <time>2017-07-02T09:42:02Z</time>
      </trkpt>
      <trkpt lat="55.366382030770183" lon="11.270005004480481">
        <ele>5.42</ele>
        <time>2017-07-02T09:42:11Z</time>
      </trkpt>
      <trkpt lat="55.365909961983562" lon="11.265021041035652">
        <ele>3.5</ele>
        <time>2017-07-02T09:42:27Z</time>
      </trkpt>
      <trkpt lat="55.365576026961207" lon="11.260864958167076">
        <ele>1.58</ele>
        <time>2017-07-02T09:42:38Z</time>
      </trkpt>
      <trkpt lat="55.365290958434343" lon="11.257746974006295">
        <ele>3.02</ele>
        <time>2017-07-02T09:42:46Z</time>
      </trkpt>
      <trkpt lat="55.364652005955577" lon="11.250016009435058">
        <ele>2.06</ele>
        <time>2017-07-02T09:43:04Z</time>
      </trkpt>
      <trkpt lat="55.364116989076138" lon="11.24340302310884">
        <ele>0.62</ele>
        <time>2017-07-02T09:43:18Z</time>
      </trkpt>
      <trkpt lat="55.363346021622419" lon="11.234023002907634">
        <ele>-1.79</ele>
        <time>2017-07-02T09:43:37Z</time>
      </trkpt>
      <trkpt lat="55.362634984776378" lon="11.224826965481043">
        <ele>-0.82</ele>
        <time>2017-07-02T09:43:56Z</time>
      </trkpt>
      <trkpt lat="55.36253297701478" lon="11.219498002901673">
        <ele>0.14</ele>
        <time>2017-07-02T09:44:07Z</time>
      </trkpt>
      <trkpt lat="55.362544041126966" lon="11.208120994269848">
        <ele>-0.34</ele>
        <time>2017-07-02T09:44:30Z</time>
      </trkpt>
      <trkpt lat="55.362505987286568" lon="11.200030026957393">
        <ele>0.62</ele>
        <time>2017-07-02T09:44:46Z</time>
      </trkpt>
      <trkpt lat="55.362475980073214" lon="11.188416983932257">
        <ele>1.1</ele>
        <time>2017-07-02T09:45:09Z</time>
      </trkpt>
      <trkpt lat="55.362240029498935" lon="11.182997999712825">
        <ele>1.1</ele>
        <time>2017-07-02T09:45:20Z</time>
      </trkpt>
      <trkpt lat="55.361465038731694" lon="11.175268962979317">
        <ele>-0.34</ele>
        <time>2017-07-02T09:45:36Z</time>
      </trkpt>
      <trkpt lat="55.360546968877316" lon="11.166692012920976">
        <ele>-2.27</ele>
        <time>2017-07-02T09:45:53Z</time>
      </trkpt>
      <trkpt lat="55.359634011983871" lon="11.162408022210002">
        <ele>-2.27</ele>
        <time>2017-07-02T09:46:02Z</time>
      </trkpt>
      <trkpt lat="55.358245968818665" lon="11.158485962077975">
        <ele>-2.27</ele>
        <time>2017-07-02T09:46:11Z</time>
      </trkpt>
      <trkpt lat="55.354673014953732" lon="11.150651983916759">
        <ele>-1.3</ele>
        <time>2017-07-02T09:46:30Z</time>
      </trkpt>
      <trkpt lat="55.351644968613982" lon="11.143795000389218">
        <ele>7.35</ele>
        <time>2017-07-02T09:46:47Z</time>
      </trkpt>
      <trkpt lat="55.350246028974652" lon="11.139453006908298">
        <ele>6.87</ele>
        <time>2017-07-02T09:46:57Z</time>
      </trkpt>
      <trkpt lat="55.34927599132061" lon="11.134897023439407">
        <ele>3.5</ele>
        <time>2017-07-02T09:47:07Z</time>
      </trkpt>
      <trkpt lat="55.348686994984746" lon="11.129877017810941">
        <ele>1.1</ele>
        <time>2017-07-02T09:47:18Z</time>
      </trkpt>
      <trkpt lat="55.348530001938343" lon="11.125908019021153">
        <ele>2.06</ele>
        <time>2017-07-02T09:47:27Z</time>
      </trkpt>
      <trkpt lat="55.348589010536671" lon="11.122089978307486">
        <ele>2.54</ele>
        <time>2017-07-02T09:47:36Z</time>
      </trkpt>
      <trkpt lat="55.348853962495923" lon="11.11866001971066">
        <ele>3.02</ele>
        <time>2017-07-02T09:47:45Z</time>
      </trkpt>
      <trkpt lat="55.349337011575699" lon="11.114387009292841">
        <ele>2.54</ele>
        <time>2017-07-02T09:47:58Z</time>
      </trkpt>
      <trkpt lat="55.349804973229766" lon="11.111616035923362">
        <ele>3.02</ele>
        <time>2017-07-02T09:48:09Z</time>
      </trkpt>
      <trkpt lat="55.350175034254789" lon="11.109818033874035">
        <ele>2.54</ele>
        <time>2017-07-02T09:48:19Z</time>
      </trkpt>
      <trkpt lat="55.350268995389342" lon="11.108981017023325">
        <ele>3.5</ele>
        <time>2017-07-02T09:48:29Z</time>
      </trkpt>
      <trkpt lat="55.350288022309542" lon="11.108932988718152">
        <ele>4.46</ele>
        <time>2017-07-02T09:48:31Z</time>
      </trkpt>
      <trkpt lat="55.350296990945935" lon="11.108897030353546">
        <ele>4.46</ele>
        <time>2017-07-02T09:48:34Z</time>
      </trkpt>
      <trkpt lat="55.350315012037754" lon="11.10888303257525">
        <ele>4.46</ele>
        <time>2017-07-02T09:48:54Z</time>
      </trkpt>
      <trkpt lat="55.350310988724232" lon="11.10879996791482">
        <ele>4.46</ele>
        <time>2017-07-02T09:49:45Z</time>
      </trkpt>
      <trkpt lat="55.350313000380993" lon="11.108700977638364">
        <ele>3.98</ele>
        <time>2017-07-02T09:49:46Z</time>
      </trkpt>
      <trkpt lat="55.350310988724232" lon="11.108600981533527">
        <ele>3.5</ele>
        <time>2017-07-02T09:49:47Z</time>
      </trkpt>
      <trkpt lat="55.35030503757298" lon="11.10852001234889">
        <ele>3.02</ele>
        <time>2017-07-02T09:49:48Z</time>
      </trkpt>
      <trkpt lat="55.350296990945935" lon="11.108454968780279">
        <ele>3.02</ele>
        <time>2017-07-02T09:49:49Z</time>
      </trkpt>
      <trkpt lat="55.350289028137922" lon="11.108395960181952">
        <ele>3.02</ele>
        <time>2017-07-02T09:49:50Z</time>
      </trkpt>
      <trkpt lat="55.350278969854116" lon="11.10834700986743">
        <ele>3.5</ele>
        <time>2017-07-02T09:49:51Z</time>
      </trkpt>
      <trkpt lat="55.350263966247439" lon="11.108281966298819">
        <ele>3.5</ele>
        <time>2017-07-02T09:49:52Z</time>
      </trkpt>
      <trkpt lat="55.350233037024736" lon="11.108083985745907">
        <ele>3.5</ele>
        <time>2017-07-02T09:49:54Z</time>
      </trkpt>
      <trkpt lat="55.350079983472824" lon="11.106726033613086">
        <ele>4.46</ele>
        <time>2017-07-02T09:50:01Z</time>
      </trkpt>
      <trkpt lat="55.349919972941279" lon="11.104283966124058">
        <ele>6.39</ele>
        <time>2017-07-02T09:50:10Z</time>
      </trkpt>
      <trkpt lat="55.349808996543288" lon="11.100798016414046">
        <ele>9.27</ele>
        <time>2017-07-02T09:50:20Z</time>
      </trkpt>
      <trkpt lat="55.349541027098894" lon="11.096339011564851">
        <ele>14.08</ele>
        <time>2017-07-02T09:50:31Z</time>
      </trkpt>
      <trkpt lat="55.348982959985733" lon="11.090446030721068">
        <ele>20.809999999999999</ele>
        <time>2017-07-02T09:50:45Z</time>
      </trkpt>
      <trkpt lat="55.348138986155391" lon="11.083631962537766">
        <ele>27.050000000000001</ele>
        <time>2017-07-02T09:51:01Z</time>
      </trkpt>
      <trkpt lat="55.346903996542096" lon="11.073986990377307">
        <ele>38.590000000000003</ele>
        <time>2017-07-02T09:51:23Z</time>
      </trkpt>
      <trkpt lat="55.345689039677382" lon="11.064575035125017">
        <ele>48.200000000000003</ele>
        <time>2017-07-02T09:51:44Z</time>
      </trkpt>
      <trkpt lat="55.344960987567902" lon="11.059048008173704">
        <ele>54.450000000000003</ele>
        <time>2017-07-02T09:51:57Z</time>
      </trkpt>
      <trkpt lat="55.343929007649422" lon="11.050988975912333">
        <ele>64.549999999999997</ele>
        <time>2017-07-02T09:52:15Z</time>
      </trkpt>
      <trkpt lat="55.342871965840459" lon="11.042657028883696">
        <ele>73.200000000000003</ele>
        <time>2017-07-02T09:52:33Z</time>
      </trkpt>
      <trkpt lat="55.342060010880232" lon="11.036289967596531">
        <ele>74.640000000000001</ele>
        <time>2017-07-02T09:52:46Z</time>
      </trkpt>
      <trkpt lat="55.340721001848578" lon="11.025886014103889">
        <ele>70.310000000000002</ele>
        <time>2017-07-02T09:53:07Z</time>
      </trkpt>
      <trkpt lat="55.339752975851297" lon="11.018379013985395">
        <ele>62.619999999999997</ele>
        <time>2017-07-02T09:53:22Z</time>
      </trkpt>
      <trkpt lat="55.338531984016299" lon="11.00882800295949">
        <ele>48.68</ele>
        <time>2017-07-02T09:53:41Z</time>
      </trkpt>
      <trkpt lat="55.337435966357589" lon="11.000294974073768">
        <ele>37.630000000000003</ele>
        <time>2017-07-02T09:53:58Z</time>
      </trkpt>
      <trkpt lat="55.33681302331388" lon="10.995388962328434">
        <ele>30.899999999999999</ele>
        <time>2017-07-02T09:54:09Z</time>
      </trkpt>
      <trkpt lat="55.336321005597711" lon="10.99159698933363">
        <ele>25.609999999999999</ele>
        <time>2017-07-02T09:54:19Z</time>
      </trkpt>
      <trkpt lat="55.335750030353665" lon="10.987162962555885">
        <ele>19.84</ele>
        <time>2017-07-02T09:54:29Z</time>
      </trkpt>
      <trkpt lat="55.334644038230181" lon="10.979319009929895">
        <ele>9.75</ele>
        <time>2017-07-02T09:54:45Z</time>
      </trkpt>
      <trkpt lat="55.333632007241249" lon="10.973341958597302">
        <ele>6.39</ele>
        <time>2017-07-02T09:54:58Z</time>
      </trkpt>
      <trkpt lat="55.332214962691069" lon="10.966657977551222">
        <ele>4.46</ele>
        <time>2017-07-02T09:55:13Z</time>
      </trkpt>
      <trkpt lat="55.330391982570291" lon="10.959775010123849">
        <ele>6.87</ele>
        <time>2017-07-02T09:55:28Z</time>
      </trkpt>
      <trkpt lat="55.328045971691608" lon="10.952762961387634">
        <ele>10.23</ele>
        <time>2017-07-02T09:55:44Z</time>
      </trkpt>
      <trkpt lat="55.324834026396275" lon="10.944506032392383">
        <ele>15.52</ele>
        <time>2017-07-02T09:56:04Z</time>
      </trkpt>
      <trkpt lat="55.32192500308156" lon="10.937009006738663">
        <ele>18.879999999999999</ele>
        <time>2017-07-02T09:56:22Z</time>
      </trkpt>
      <trkpt lat="55.319773033261299" lon="10.931192971765995">
        <ele>21.289999999999999</ele>
        <time>2017-07-02T09:56:36Z</time>
      </trkpt>
      <trkpt lat="55.317612010985613" lon="10.92495197430253">
        <ele>22.25</ele>
        <time>2017-07-02T09:56:52Z</time>
      </trkpt>
      <trkpt lat="55.31498403288424" lon="10.916873998939991">
        <ele>23.690000000000001</ele>
        <time>2017-07-02T09:57:12Z</time>
      </trkpt>
      <trkpt lat="55.312765007838607" lon="10.909617030993104">
        <ele>24.649999999999999</ele>
        <time>2017-07-02T09:57:29Z</time>
      </trkpt>
      <trkpt lat="55.309981964528561" lon="10.899820011109114">
        <ele>25.129999999999999</ele>
        <time>2017-07-02T09:57:51Z</time>
      </trkpt>
      <trkpt lat="55.307667972519994" lon="10.890963021665812">
        <ele>25.129999999999999</ele>
        <time>2017-07-02T09:58:11Z</time>
      </trkpt>
      <trkpt lat="55.305588003247976" lon="10.882265958935022">
        <ele>24.170000000000002</ele>
        <time>2017-07-02T09:58:31Z</time>
      </trkpt>
      <trkpt lat="55.303643988445401" lon="10.873460015282035">
        <ele>22.25</ele>
        <time>2017-07-02T09:58:51Z</time>
      </trkpt>
      <trkpt lat="55.302183022722602" lon="10.866131968796253">
        <ele>20.32</ele>
        <time>2017-07-02T09:59:07Z</time>
      </trkpt>
      <trkpt lat="55.300907967612147" lon="10.859414041042328">
        <ele>17.920000000000002</ele>
        <time>2017-07-02T09:59:22Z</time>
      </trkpt>
      <trkpt lat="55.299499975517392" lon="10.851254006847739">
        <ele>14.08</ele>
        <time>2017-07-02T09:59:40Z</time>
      </trkpt>
      <trkpt lat="55.298689026385546" lon="10.845966031774879">
        <ele>10.23</ele>
        <time>2017-07-02T09:59:52Z</time>
      </trkpt>
      <trkpt lat="55.298482999205589" lon="10.841666031628847">
        <ele>8.789999999999999</ele>
        <time>2017-07-02T10:00:01Z</time>
      </trkpt>
      <trkpt lat="55.29887200333178" lon="10.837735002860427">
        <ele>9.75</ele>
        <time>2017-07-02T10:00:09Z</time>
      </trkpt>
      <trkpt lat="55.299722012132406" lon="10.834184009581804">
        <ele>9.75</ele>
        <time>2017-07-02T10:00:17Z</time>
      </trkpt>
      <trkpt lat="55.30095599591732" lon="10.83112402819097">
        <ele>10.23</ele>
        <time>2017-07-02T10:00:25Z</time>
      </trkpt>
      <trkpt lat="55.304491985589266" lon="10.823843004181981">
        <ele>5.42</ele>
        <time>2017-07-02T10:00:45Z</time>
      </trkpt>
      <trkpt lat="55.305680958554149" lon="10.820106016471982">
        <ele>2.06</ele>
        <time>2017-07-02T10:00:54Z</time>
      </trkpt>
      <trkpt lat="55.307033965364099" lon="10.815853038802743">
        <ele>3.02</ele>
        <time>2017-07-02T10:01:04Z</time>
      </trkpt>
      <trkpt lat="55.308701964095235" lon="10.812474964186549">
        <ele>3.5</ele>
        <time>2017-07-02T10:01:13Z</time>
      </trkpt>
      <trkpt lat="55.310634998604655" lon="10.809798035770655">
        <ele>3.5</ele>
        <time>2017-07-02T10:01:22Z</time>
      </trkpt>
      <trkpt lat="55.312761990353465" lon="10.807912023738027">
        <ele>3.02</ele>
        <time>2017-07-02T10:01:31Z</time>
      </trkpt>
      <trkpt lat="55.314301997423172" lon="10.806970987468958">
        <ele>3.5</ele>
        <time>2017-07-02T10:01:38Z</time>
      </trkpt>
      <trkpt lat="55.316498978063464" lon="10.806216029450297">
        <ele>3.02</ele>
        <time>2017-07-02T10:01:46Z</time>
      </trkpt>
      <trkpt lat="55.319050010293722" lon="10.805704984813929">
        <ele>4.46</ele>
        <time>2017-07-02T10:01:55Z</time>
      </trkpt>
      <trkpt lat="55.322663029655814" lon="10.805086987093091">
        <ele>6.87</ele>
        <time>2017-07-02T10:02:09Z</time>
      </trkpt>
      <trkpt lat="55.325904982164502" lon="10.804446022957563">
        <ele>7.83</ele>
        <time>2017-07-02T10:02:21Z</time>
      </trkpt>
      <trkpt lat="55.327965002506971" lon="10.803348999470472">
        <ele>12.15</ele>
        <time>2017-07-02T10:02:29Z</time>
      </trkpt>
      <trkpt lat="55.329881021752954" lon="10.801449995487928">
        <ele>16</ele>
        <time>2017-07-02T10:02:37Z</time>
      </trkpt>
      <trkpt lat="55.33150996081531" lon="10.798866022378206">
        <ele>16</ele>
        <time>2017-07-02T10:02:45Z</time>
      </trkpt>
      <trkpt lat="55.332813011482358" lon="10.795658016577363">
        <ele>16.48</ele>
        <time>2017-07-02T10:02:53Z</time>
      </trkpt>
      <trkpt lat="55.33367701806128" lon="10.791854979470372">
        <ele>14.56</ele>
        <time>2017-07-02T10:03:01Z</time>
      </trkpt>
      <trkpt lat="55.334022017195821" lon="10.787885980680585">
        <ele>12.630000000000001</ele>
        <time>2017-07-02T10:03:09Z</time>
      </trkpt>
      <trkpt lat="55.333882039412856" lon="10.784102976322174">
        <ele>16.48</ele>
        <time>2017-07-02T10:03:17Z</time>
      </trkpt>
      <trkpt lat="55.333364959806204" lon="10.776045033708215">
        <ele>24.649999999999999</ele>
        <time>2017-07-02T10:03:33Z</time>
      </trkpt>
      <trkpt lat="55.332856010645628" lon="10.768514983355999">
        <ele>20.32</ele>
        <time>2017-07-02T10:03:48Z</time>
      </trkpt>
      <trkpt lat="55.3323860373348" lon="10.761530008167028">
        <ele>16.48</ele>
        <time>2017-07-02T10:04:02Z</time>
      </trkpt>
      <trkpt lat="55.33195998519659" lon="10.75541096739471">
        <ele>13.119999999999999</ele>
        <time>2017-07-02T10:04:14Z</time>
      </trkpt>
      <trkpt lat="55.331713976338506" lon="10.748325996100903">
        <ele>10.710000000000001</ele>
        <time>2017-07-02T10:04:28Z</time>
      </trkpt>
      <trkpt lat="55.331813972443342" lon="10.740754036232829">
        <ele>10.23</ele>
        <time>2017-07-02T10:04:43Z</time>
      </trkpt>
      <trkpt lat="55.332156037911773" lon="10.734954010695219">
        <ele>11.67</ele>
        <time>2017-07-02T10:04:54Z</time>
      </trkpt>
      <trkpt lat="55.333059020340443" lon="10.726693980395794">
        <ele>12.15</ele>
        <time>2017-07-02T10:05:09Z</time>
      </trkpt>
      <trkpt lat="55.334069961681962" lon="10.719131994992495">
        <ele>15.52</ele>
        <time>2017-07-02T10:05:23Z</time>
      </trkpt>
      <trkpt lat="55.335363959893584" lon="10.711206989362836">
        <ele>16</ele>
        <time>2017-07-02T10:05:38Z</time>
      </trkpt>
      <trkpt lat="55.336700035259128" lon="10.704156970605254">
        <ele>16.960000000000001</ele>
        <time>2017-07-02T10:05:53Z</time>
      </trkpt>
      <trkpt lat="55.338216992095113" lon="10.697095971554518">
        <ele>16</ele>
        <time>2017-07-02T10:06:08Z</time>
      </trkpt>
      <trkpt lat="55.340095041319728" lon="10.689153028652072">
        <ele>16</ele>
        <time>2017-07-02T10:06:24Z</time>
      </trkpt>
      <trkpt lat="55.341216959059238" lon="10.684536024928093">
        <ele>15.039999999999999</ele>
        <time>2017-07-02T10:06:35Z</time>
      </trkpt>
      <trkpt lat="55.342467958107591" lon="10.678258985280991">
        <ele>14.08</ele>
        <time>2017-07-02T10:06:50Z</time>
      </trkpt>
      <trkpt lat="55.343142030760646" lon="10.673038987442851">
        <ele>13.119999999999999</ele>
        <time>2017-07-02T10:07:02Z</time>
      </trkpt>
      <trkpt lat="55.343616027384996" lon="10.666880970820785">
        <ele>13.119999999999999</ele>
        <time>2017-07-02T10:07:15Z</time>
      </trkpt>
      <trkpt lat="55.343813002109528" lon="10.660224985331297">
        <ele>14.08</ele>
        <time>2017-07-02T10:07:28Z</time>
      </trkpt>
      <trkpt lat="55.343737984076142" lon="10.653735967352986">
        <ele>16</ele>
        <time>2017-07-02T10:07:40Z</time>
      </trkpt>
      <trkpt lat="55.34351603128016" lon="10.645678024739027">
        <ele>19.84</ele>
        <time>2017-07-02T10:07:55Z</time>
      </trkpt>
      <trkpt lat="55.343604041263461" lon="10.637998022139072">
        <ele>23.690000000000001</ele>
        <time>2017-07-02T10:08:09Z</time>
      </trkpt>
      <trkpt lat="55.344142997637391" lon="10.629935972392559">
        <ele>28.02</ele>
        <time>2017-07-02T10:08:24Z</time>
      </trkpt>
      <trkpt lat="55.345208002254367" lon="10.621869983151555">
        <ele>27.530000000000001</ele>
        <time>2017-07-02T10:08:40Z</time>
      </trkpt>
      <trkpt lat="55.346625968813896" lon="10.614398019388318">
        <ele>24.649999999999999</ele>
        <time>2017-07-02T10:08:54Z</time>
      </trkpt>
      <trkpt lat="55.348257003352046" lon="10.606043022125959">
        <ele>26.09</ele>
        <time>2017-07-02T10:09:10Z</time>
      </trkpt>
      <trkpt lat="55.349073987454176" lon="10.600191028788686">
        <ele>29.460000000000001</ele>
        <time>2017-07-02T10:09:21Z</time>
      </trkpt>
      <trkpt lat="55.349430972710252" lon="10.594210037961602">
        <ele>29.460000000000001</ele>
        <time>2017-07-02T10:09:32Z</time>
      </trkpt>
      <trkpt lat="55.350074032321572" lon="10.58434696868062">
        <ele>29.460000000000001</ele>
        <time>2017-07-02T10:09:50Z</time>
      </trkpt>
      <trkpt lat="55.350963016971946" lon="10.577885024249554">
        <ele>28.5</ele>
        <time>2017-07-02T10:10:02Z</time>
      </trkpt>
      <trkpt lat="55.352332033216953" lon="10.57128201238811">
        <ele>28.02</ele>
        <time>2017-07-02T10:10:14Z</time>
      </trkpt>
      <trkpt lat="55.353963989764452" lon="10.565520962700248">
        <ele>26.57</ele>
        <time>2017-07-02T10:10:25Z</time>
      </trkpt>
      <trkpt lat="55.355687979608774" lon="10.560577986761928">
        <ele>24.170000000000002</ele>
        <time>2017-07-02T10:10:35Z</time>
      </trkpt>
      <trkpt lat="55.359211983159184" lon="10.551090007647872">
        <ele>20.809999999999999</ele>
        <time>2017-07-02T10:10:55Z</time>
      </trkpt>
      <trkpt lat="55.362805975601077" lon="10.541198020800948">
        <ele>18.399999999999999</ele>
        <time>2017-07-02T10:11:16Z</time>
      </trkpt>
      <trkpt lat="55.363754974678159" lon="10.537997977808118">
        <ele>18.399999999999999</ele>
        <time>2017-07-02T10:11:24Z</time>
      </trkpt>
      <trkpt lat="55.364854009822011" lon="10.532657029107213">
        <ele>18.879999999999999</ele>
        <time>2017-07-02T10:11:37Z</time>
      </trkpt>
      <trkpt lat="55.365447029471397" lon="10.527921002358198">
        <ele>18.879999999999999</ele>
        <time>2017-07-02T10:11:47Z</time>
      </trkpt>
      <trkpt lat="55.365701001137495" lon="10.522266989573836">
        <ele>19.84</ele>
        <time>2017-07-02T10:11:58Z</time>
      </trkpt>
      <trkpt lat="55.365478964522481" lon="10.516766030341387">
        <ele>21.289999999999999</ele>
        <time>2017-07-02T10:12:08Z</time>
      </trkpt>
      <trkpt lat="55.364791983738542" lon="10.511007998138666">
        <ele>23.690000000000001</ele>
        <time>2017-07-02T10:12:19Z</time>
      </trkpt>
      <trkpt lat="55.363800991326571" lon="10.50590199418366">
        <ele>25.129999999999999</ele>
        <time>2017-07-02T10:12:29Z</time>
      </trkpt>
      <trkpt lat="55.362230977043509" lon="10.499697038903832">
        <ele>27.050000000000001</ele>
        <time>2017-07-02T10:12:42Z</time>
      </trkpt>
      <trkpt lat="55.360301965847611" lon="10.493166027590632">
        <ele>28.02</ele>
        <time>2017-07-02T10:12:56Z</time>
      </trkpt>
      <trkpt lat="55.35814899019897" lon="10.485937977209687">
        <ele>29.460000000000001</ele>
        <time>2017-07-02T10:13:12Z</time>
      </trkpt>
      <trkpt lat="55.356355011463165" lon="10.480069974437356">
        <ele>29.940000000000001</ele>
        <time>2017-07-02T10:13:25Z</time>
      </trkpt>
      <trkpt lat="55.354592967778444" lon="10.474231978878379">
        <ele>28.98</ele>
        <time>2017-07-02T10:13:37Z</time>
      </trkpt>
      <trkpt lat="55.352588016539812" lon="10.467455964535475">
        <ele>27.530000000000001</ele>
        <time>2017-07-02T10:13:51Z</time>
      </trkpt>
      <trkpt lat="55.35026497207582" lon="10.459375977516174">
        <ele>26.57</ele>
        <time>2017-07-02T10:14:08Z</time>
      </trkpt>
      <trkpt lat="55.349177001044154" lon="10.454361001029611">
        <ele>25.129999999999999</ele>
        <time>2017-07-02T10:14:18Z</time>
      </trkpt>
      <trkpt lat="55.348225990310311" lon="10.447728987783194">
        <ele>25.609999999999999</ele>
        <time>2017-07-02T10:14:31Z</time>
      </trkpt>
      <trkpt lat="55.347825000062585" lon="10.441424958407879">
        <ele>28.02</ele>
        <time>2017-07-02T10:14:43Z</time>
      </trkpt>
      <trkpt lat="55.347933964803815" lon="10.435025040060282">
        <ele>30.420000000000002</ele>
        <time>2017-07-02T10:14:55Z</time>
      </trkpt>
      <trkpt lat="55.348516004160047" lon="10.42919903062284">
        <ele>31.859999999999999</ele>
        <time>2017-07-02T10:15:06Z</time>
      </trkpt>
      <trkpt lat="55.349469026550651" lon="10.424143988639116">
        <ele>31.379999999999999</ele>
        <time>2017-07-02T10:15:16Z</time>
      </trkpt>
      <trkpt lat="55.350817004218698" lon="10.417094975709915">
        <ele>32.82</ele>
        <time>2017-07-02T10:15:30Z</time>
      </trkpt>
      <trkpt lat="55.35148998722434" lon="10.411347001791">
        <ele>31.379999999999999</ele>
        <time>2017-07-02T10:15:41Z</time>
      </trkpt>
      <trkpt lat="55.351633988320827" lon="10.406564958393574">
        <ele>28.02</ele>
        <time>2017-07-02T10:15:50Z</time>
      </trkpt>
      <trkpt lat="55.35170397721231" lon="10.399720966815948">
        <ele>28.5</ele>
        <time>2017-07-02T10:16:03Z</time>
      </trkpt>
      <trkpt lat="55.351978987455368" lon="10.389821017161012">
        <ele>31.379999999999999</ele>
        <time>2017-07-02T10:16:22Z</time>
      </trkpt>
      <trkpt lat="55.352399004623294" lon="10.382387023419142">
        <ele>30.899999999999999</ele>
        <time>2017-07-02T10:16:36Z</time>
      </trkpt>
      <trkpt lat="55.353242978453636" lon="10.374491019174457">
        <ele>27.530000000000001</ele>
        <time>2017-07-02T10:16:51Z</time>
      </trkpt>
      <trkpt lat="55.354204969480634" lon="10.368772968649864">
        <ele>24.170000000000002</ele>
        <time>2017-07-02T10:17:02Z</time>
      </trkpt>
      <trkpt lat="55.355603992938995" lon="10.363311991095543">
        <ele>23.690000000000001</ele>
        <time>2017-07-02T10:17:13Z</time>
      </trkpt>
      <trkpt lat="55.357263023033738" lon="10.358551992103457">
        <ele>25.129999999999999</ele>
        <time>2017-07-02T10:17:23Z</time>
      </trkpt>
      <trkpt lat="55.359392026439309" lon="10.352762024849653">
        <ele>26.09</ele>
        <time>2017-07-02T10:17:36Z</time>
      </trkpt>
      <trkpt lat="55.360606983304024" lon="10.348509969189763">
        <ele>26.57</ele>
        <time>2017-07-02T10:17:46Z</time>
      </trkpt>
      <trkpt lat="55.361293964087963" lon="10.345102977007627">
        <ele>27.050000000000001</ele>
        <time>2017-07-02T10:17:55Z</time>
      </trkpt>
      <trkpt lat="55.361954038962722" lon="10.340711027383804">
        <ele>27.530000000000001</ele>
        <time>2017-07-02T10:18:06Z</time>
      </trkpt>
      <trkpt lat="55.36253297701478" lon="10.336144985631108">
        <ele>28.5</ele>
        <time>2017-07-02T10:18:16Z</time>
      </trkpt>
      <trkpt lat="55.363251976668835" lon="10.330513017252088">
        <ele>30.899999999999999</ele>
        <time>2017-07-02T10:18:28Z</time>
      </trkpt>
      <trkpt lat="55.364115983247757" lon="10.325196040794253">
        <ele>34.259999999999998</ele>
        <time>2017-07-02T10:18:39Z</time>
      </trkpt>
      <trkpt lat="55.365573009476066" lon="10.318681038916111">
        <ele>39.07</ele>
        <time>2017-07-02T10:18:52Z</time>
      </trkpt>
      <trkpt lat="55.366890979930758" lon="10.314178029075265">
        <ele>42.920000000000002</ele>
        <time>2017-07-02T10:19:02Z</time>
      </trkpt>
      <trkpt lat="55.368387987837195" lon="10.309964027255774">
        <ele>48.200000000000003</ele>
        <time>2017-07-02T10:19:13Z</time>
      </trkpt>
      <trkpt lat="55.370468040928245" lon="10.305018033832312">
        <ele>54.450000000000003</ele>
        <time>2017-07-02T10:19:25Z</time>
      </trkpt>
      <trkpt lat="55.372869959101081" lon="10.300098024308681">
        <ele>59.259999999999998</ele>
        <time>2017-07-02T10:19:38Z</time>
      </trkpt>
      <trkpt lat="55.375915020704269" lon="10.29401795938611">
        <ele>61.18</ele>
        <time>2017-07-02T10:19:55Z</time>
      </trkpt>
      <trkpt lat="55.378199005499482" lon="10.288651026785374">
        <ele>63.100000000000001</ele>
        <time>2017-07-02T10:20:08Z</time>
      </trkpt>
      <trkpt lat="55.379662988707423" lon="10.283869989216328">
        <ele>64.069999999999993</ele>
        <time>2017-07-02T10:20:19Z</time>
      </trkpt>
      <trkpt lat="55.380821032449603" lon="10.278343968093395">
        <ele>65.989999999999995</ele>
        <time>2017-07-02T10:20:31Z</time>
      </trkpt>
      <trkpt lat="55.381621001288295" lon="10.272958008572459">
        <ele>67.909999999999997</ele>
        <time>2017-07-02T10:20:42Z</time>
      </trkpt>
      <trkpt lat="55.382073037326336" lon="10.267986031249166">
        <ele>69.829999999999998</ele>
        <time>2017-07-02T10:20:53Z</time>
      </trkpt>
      <trkpt lat="55.382238999009132" lon="10.262175025418401">
        <ele>68.870000000000005</ele>
        <time>2017-07-02T10:21:05Z</time>
      </trkpt>
      <trkpt lat="55.3821059782058" lon="10.25415999814868">
        <ele>62.140000000000001</ele>
        <time>2017-07-02T10:21:21Z</time>
      </trkpt>
      <trkpt lat="55.382251990959048" lon="10.248277997598052">
        <ele>60.700000000000003</ele>
        <time>2017-07-02T10:21:33Z</time>
      </trkpt>
      <trkpt lat="55.382855990901589" lon="10.243512969464064">
        <ele>62.140000000000001</ele>
        <time>2017-07-02T10:21:43Z</time>
      </trkpt>
      <trkpt lat="55.383687978610396" lon="10.239394018426538">
        <ele>65.030000000000001</ele>
        <time>2017-07-02T10:21:53Z</time>
      </trkpt>
      <trkpt lat="55.384373031556606" lon="10.236297994852066">
        <ele>66.950000000000003</ele>
        <time>2017-07-02T10:22:02Z</time>
      </trkpt>
      <trkpt lat="55.384944006800652" lon="10.23317196406424">
        <ele>68.870000000000005</ele>
        <time>2017-07-02T10:22:11Z</time>
      </trkpt>
      <trkpt lat="55.385501990094781" lon="10.228455970063806">
        <ele>73.200000000000003</ele>
        <time>2017-07-02T10:22:22Z</time>
      </trkpt>
      <trkpt lat="55.385901974514127" lon="10.22352296859026">
        <ele>76.079999999999998</ele>
        <time>2017-07-02T10:22:33Z</time>
      </trkpt>
      <trkpt lat="55.386518966406584" lon="10.218382012099028">
        <ele>77.519999999999996</ele>
        <time>2017-07-02T10:22:44Z</time>
      </trkpt>
      <trkpt lat="55.387532003223896" lon="10.213321018964052">
        <ele>75.120000000000005</ele>
        <time>2017-07-02T10:22:54Z</time>
      </trkpt>
      <trkpt lat="55.389143005013466" lon="10.20700198598206">
        <ele>71.269999999999996</ele>
        <time>2017-07-02T10:23:07Z</time>
      </trkpt>
      <trkpt lat="55.391590017825365" lon="10.198628967627883">
        <ele>73.200000000000003</ele>
        <time>2017-07-02T10:23:25Z</time>
      </trkpt>
      <trkpt lat="55.393046960234642" lon="10.193648021668196">
        <ele>74.640000000000001</ele>
        <time>2017-07-02T10:23:35Z</time>
      </trkpt>
      <trkpt lat="55.395208988338709" lon="10.185924014076591">
        <ele>76.560000000000002</ele>
        <time>2017-07-02T10:23:50Z</time>
      </trkpt>
      <trkpt lat="55.396912023425102" lon="10.178645001724362">
        <ele>78.480000000000004</ele>
        <time>2017-07-02T10:24:04Z</time>
      </trkpt>
      <trkpt lat="55.397797990590334" lon="10.174155989661813">
        <ele>78.480000000000004</ele>
        <time>2017-07-02T10:24:13Z</time>
      </trkpt>
      <trkpt lat="55.399116966873407" lon="10.166414966806769">
        <ele>74.640000000000001</ele>
        <time>2017-07-02T10:24:29Z</time>
      </trkpt>
      <trkpt lat="55.400741966441274" lon="10.158247975632548">
        <ele>68.870000000000005</ele>
        <time>2017-07-02T10:24:45Z</time>
      </trkpt>
      <trkpt lat="55.402716994285583" lon="10.150392958894372">
        <ele>71.760000000000005</ele>
        <time>2017-07-02T10:25:00Z</time>
      </trkpt>
      <trkpt lat="55.404108976945281" lon="10.145396003499627">
        <ele>78.969999999999999</ele>
        <time>2017-07-02T10:25:11Z</time>
      </trkpt>
      <trkpt lat="55.405971016734838" lon="10.137676019221544">
        <ele>83.769999999999996</ele>
        <time>2017-07-02T10:25:28Z</time>
      </trkpt>
      <trkpt lat="55.40683401748538" lon="10.133504010736942">
        <ele>80.409999999999997</ele>
        <time>2017-07-02T10:25:38Z</time>
      </trkpt>
      <trkpt lat="55.407809000462294" lon="10.128035992383957">
        <ele>77.040000000000006</ele>
        <time>2017-07-02T10:25:51Z</time>
      </trkpt>
      <trkpt lat="55.408442001789808" lon="10.124094989150763">
        <ele>73.200000000000003</ele>
        <time>2017-07-02T10:26:00Z</time>
      </trkpt>
      <trkpt lat="55.409326041117311" lon="10.117716025561094">
        <ele>68.870000000000005</ele>
        <time>2017-07-02T10:26:14Z</time>
      </trkpt>
      <trkpt lat="55.409931968897581" lon="10.112440036609769">
        <ele>69.349999999999994</ele>
        <time>2017-07-02T10:26:26Z</time>
      </trkpt>
      <trkpt lat="55.410427004098892" lon="10.107191959396005">
        <ele>70.790000000000006</ele>
        <time>2017-07-02T10:26:37Z</time>
      </trkpt>
      <trkpt lat="55.410854984074831" lon="10.099422018975019">
        <ele>74.159999999999997</ele>
        <time>2017-07-02T10:26:53Z</time>
      </trkpt>
      <trkpt lat="55.411019017919898" lon="10.092092966660857">
        <ele>77.040000000000006</ele>
        <time>2017-07-02T10:27:08Z</time>
      </trkpt>
      <trkpt lat="55.410875016823411" lon="10.082369036972523">
        <ele>78</ele>
        <time>2017-07-02T10:27:27Z</time>
      </trkpt>
      <trkpt lat="55.41055197827518" lon="10.07108498364687">
        <ele>76.079999999999998</ele>
        <time>2017-07-02T10:27:49Z</time>
      </trkpt>
      <trkpt lat="55.410366989672184" lon="10.061854999512434">
        <ele>72.239999999999995</ele>
        <time>2017-07-02T10:28:07Z</time>
      </trkpt>
      <trkpt lat="55.410696985200047" lon="10.056074000895023">
        <ele>68.870000000000005</ele>
        <time>2017-07-02T10:28:18Z</time>
      </trkpt>
      <trkpt lat="55.411356976255774" lon="10.050792982801795">
        <ele>65.510000000000005</ele>
        <time>2017-07-02T10:28:28Z</time>
      </trkpt>
      <trkpt lat="55.412475038319826" lon="10.045073004439473">
        <ele>61.18</ele>
        <time>2017-07-02T10:28:39Z</time>
      </trkpt>
      <trkpt lat="55.414080005139112" lon="10.039497027173638">
        <ele>56.369999999999997</ele>
        <time>2017-07-02T10:28:50Z</time>
      </trkpt>
      <trkpt lat="55.416661966592073" lon="10.031656008213758">
        <ele>53.009999999999998</ele>
        <time>2017-07-02T10:29:06Z</time>
      </trkpt>
      <trkpt lat="55.418987022712827" lon="10.024500964209437">
        <ele>51.57</ele>
        <time>2017-07-02T10:29:21Z</time>
      </trkpt>
      <trkpt lat="55.421228008344769" lon="10.017689997330308">
        <ele>49.159999999999997</ele>
        <time>2017-07-02T10:29:35Z</time>
      </trkpt>
      <trkpt lat="55.423852968961" lon="10.009520994499326">
        <ele>41.469999999999999</ele>
        <time>2017-07-02T10:29:52Z</time>
      </trkpt>
      <trkpt lat="55.425984989851713" lon="10.002865009009838">
        <ele>35.229999999999997</ele>
        <time>2017-07-02T10:30:06Z</time>
      </trkpt>
      <trkpt lat="55.428527975454926" lon="9.995717005804181">
        <ele>28.02</ele>
        <time>2017-07-02T10:30:21Z</time>
      </trkpt>
      <trkpt lat="55.430596964433789" lon="9.990439005196095">
        <ele>23.210000000000001</ele>
        <time>2017-07-02T10:30:32Z</time>
      </trkpt>
      <trkpt lat="55.433288980275393" lon="9.984583994373679">
        <ele>23.210000000000001</ele>
        <time>2017-07-02T10:30:45Z</time>
      </trkpt>
      <trkpt lat="55.437067961320281" lon="9.977508997544646">
        <ele>23.210000000000001</ele>
        <time>2017-07-02T10:31:02Z</time>
      </trkpt>
      <trkpt lat="55.439817979931831" lon="9.973099026829004">
        <ele>22.73</ele>
        <time>2017-07-02T10:31:14Z</time>
      </trkpt>
      <trkpt lat="55.442523993551731" lon="9.968987032771111">
        <ele>21.77</ele>
        <time>2017-07-02T10:31:26Z</time>
      </trkpt>
      <trkpt lat="55.444416040554643" lon="9.966157972812653">
        <ele>24.170000000000002</ele>
        <time>2017-07-02T10:31:36Z</time>
      </trkpt>
      <trkpt lat="55.446920972317457" lon="9.962284024804831">
        <ele>33.299999999999997</ele>
        <time>2017-07-02T10:31:48Z</time>
      </trkpt>
      <trkpt lat="55.448823999613523" lon="9.95897501707077">
        <ele>36.189999999999998</ele>
        <time>2017-07-02T10:31:58Z</time>
      </trkpt>
      <trkpt lat="55.45100899413228" lon="9.954352984204888">
        <ele>36.670000000000002</ele>
        <time>2017-07-02T10:32:12Z</time>
      </trkpt>
      <trkpt lat="55.452407011762261" lon="9.95072697289288">
        <ele>37.149999999999999</ele>
        <time>2017-07-02T10:32:21Z</time>
      </trkpt>
      <trkpt lat="55.454244995489717" lon="9.945016968995333">
        <ele>37.630000000000003</ele>
        <time>2017-07-02T10:32:33Z</time>
      </trkpt>
      <trkpt lat="55.456008967012167" lon="9.939118037000299">
        <ele>38.590000000000003</ele>
        <time>2017-07-02T10:32:46Z</time>
      </trkpt>
      <trkpt lat="55.457186037674546" lon="9.935152977705002">
        <ele>38.109999999999999</ele>
        <time>2017-07-02T10:32:56Z</time>
      </trkpt>
      <trkpt lat="55.458715986460447" lon="9.930017972365022">
        <ele>34.259999999999998</ele>
        <time>2017-07-02T10:33:09Z</time>
      </trkpt>
      <trkpt lat="55.460320031270385" lon="9.924562023952603">
        <ele>29.940000000000001</ele>
        <time>2017-07-02T10:33:21Z</time>
      </trkpt>
      <trkpt lat="55.462092971429229" lon="9.917907966300845">
        <ele>26.57</ele>
        <time>2017-07-02T10:33:35Z</time>
      </trkpt>
      <trkpt lat="55.463848980143666" lon="9.90957903675735">
        <ele>28.98</ele>
        <time>2017-07-02T10:33:52Z</time>
      </trkpt>
      <trkpt lat="55.46499696560204" lon="9.90502699278295">
        <ele>30.420000000000002</ele>
        <time>2017-07-02T10:34:02Z</time>
      </trkpt>
      <trkpt lat="55.466485004872084" lon="9.901363011449575">
        <ele>31.859999999999999</ele>
        <time>2017-07-02T10:34:12Z</time>
      </trkpt>
      <trkpt lat="55.468167001381516" lon="9.898540992289782">
        <ele>34.259999999999998</ele>
        <time>2017-07-02T10:34:21Z</time>
      </trkpt>
      <trkpt lat="55.470460960641503" lon="9.895547982305288">
        <ele>35.710000000000001</ele>
        <time>2017-07-02T10:34:32Z</time>
      </trkpt>
      <trkpt lat="55.472910990938544" lon="9.892345005646348">
        <ele>34.259999999999998</ele>
        <time>2017-07-02T10:34:43Z</time>
      </trkpt>
      <trkpt lat="55.475272005423903" lon="9.888578010722995">
        <ele>33.299999999999997</ele>
        <time>2017-07-02T10:34:53Z</time>
      </trkpt>
      <trkpt lat="55.477035976946354" lon="9.884545980021358">
        <ele>31.379999999999999</ele>
        <time>2017-07-02T10:35:02Z</time>
      </trkpt>
      <trkpt lat="55.478643039241433" lon="9.879513988271356">
        <ele>27.530000000000001</ele>
        <time>2017-07-02T10:35:12Z</time>
      </trkpt>
      <trkpt lat="55.481024002656341" lon="9.870897978544235">
        <ele>23.210000000000001</ele>
        <time>2017-07-02T10:35:29Z</time>
      </trkpt>
      <trkpt lat="55.483878962695599" lon="9.860510034486651">
        <ele>19.359999999999999</ele>
        <time>2017-07-02T10:35:49Z</time>
      </trkpt>
      <trkpt lat="55.485776038840413" lon="9.853029018267989">
        <ele>16.48</ele>
        <time>2017-07-02T10:36:03Z</time>
      </trkpt>
      <trkpt lat="55.487626008689404" lon="9.844893040135503">
        <ele>14.08</ele>
        <time>2017-07-02T10:36:18Z</time>
      </trkpt>
      <trkpt lat="55.488998964428902" lon="9.837793987244368">
        <ele>15.039999999999999</ele>
        <time>2017-07-02T10:36:31Z</time>
      </trkpt>
      <trkpt lat="55.490661012008786" lon="9.829799998551607">
        <ele>13.119999999999999</ele>
        <time>2017-07-02T10:36:46Z</time>
      </trkpt>
      <trkpt lat="55.492555992677808" lon="9.820098029449582">
        <ele>9.75</ele>
        <time>2017-07-02T10:37:04Z</time>
      </trkpt>
      <trkpt lat="55.49404202029109" lon="9.812837038189173">
        <ele>7.83</ele>
        <time>2017-07-02T10:37:18Z</time>
      </trkpt>
      <trkpt lat="55.495575992390513" lon="9.805032983422279">
        <ele>8.310000000000001</ele>
        <time>2017-07-02T10:37:33Z</time>
      </trkpt>
      <trkpt lat="55.496915001422167" lon="9.800079027190805">
        <ele>9.27</ele>
        <time>2017-07-02T10:37:43Z</time>
      </trkpt>
      <trkpt lat="55.498647959902883" lon="9.795652041211724">
        <ele>12.15</ele>
        <time>2017-07-02T10:37:53Z</time>
      </trkpt>
      <trkpt lat="55.500764977186918" lon="9.791882028803229">
        <ele>18.879999999999999</ele>
        <time>2017-07-02T10:38:03Z</time>
      </trkpt>
      <trkpt lat="55.503186006098986" lon="9.788767984136939">
        <ele>25.129999999999999</ele>
        <time>2017-07-02T10:38:13Z</time>
      </trkpt>
      <trkpt lat="55.507546020671725" lon="9.784049978479743">
        <ele>28.5</ele>
        <time>2017-07-02T10:38:30Z</time>
      </trkpt>
      <trkpt lat="55.50884798169136" lon="9.782460015267134">
        <ele>28.98</ele>
        <time>2017-07-02T10:38:36Z</time>
      </trkpt>
      <trkpt lat="55.510514974594116" lon="9.779991963878274">
        <ele>30.899999999999999</ele>
        <time>2017-07-02T10:38:44Z</time>
      </trkpt>
      <trkpt lat="55.512486984953284" lon="9.776128996163607">
        <ele>30.899999999999999</ele>
        <time>2017-07-02T10:38:54Z</time>
      </trkpt>
      <trkpt lat="55.513864969834685" lon="9.772369964048266">
        <ele>28.5</ele>
        <time>2017-07-02T10:39:03Z</time>
      </trkpt>
      <trkpt lat="55.515093002468348" lon="9.767423970624805">
        <ele>25.129999999999999</ele>
        <time>2017-07-02T10:39:14Z</time>
      </trkpt>
      <trkpt lat="55.516466964036226" lon="9.760327013209462">
        <ele>33.299999999999997</ele>
        <time>2017-07-02T10:39:29Z</time>
      </trkpt>
      <trkpt lat="55.518291033804417" lon="9.751185961067677">
        <ele>48.68</ele>
        <time>2017-07-02T10:39:48Z</time>
      </trkpt>
      <trkpt lat="55.520243011415005" lon="9.741496983915567">
        <ele>38.590000000000003</ele>
        <time>2017-07-02T10:40:08Z</time>
      </trkpt>
      <trkpt lat="55.521620996296406" lon="9.73525196313858">
        <ele>25.129999999999999</ele>
        <time>2017-07-02T10:40:20Z</time>
      </trkpt>
      <trkpt lat="55.522727994248271" lon="9.732156023383141">
        <ele>20.809999999999999</ele>
        <time>2017-07-02T10:40:27Z</time>
      </trkpt>
      <trkpt lat="55.523830968886614" lon="9.729983014985919">
        <ele>19.359999999999999</ele>
        <time>2017-07-02T10:40:33Z</time>
      </trkpt>
      <trkpt lat="55.52566995844245" lon="9.727310026064515">
        <ele>17.440000000000001</ele>
        <time>2017-07-02T10:40:41Z</time>
      </trkpt>
      <trkpt lat="55.528170028701425" lon="9.724667966365814">
        <ele>16.48</ele>
        <time>2017-07-02T10:40:51Z</time>
      </trkpt>
      <trkpt lat="55.530457030981779" lon="9.721651989966631">
        <ele>14.56</ele>
        <time>2017-07-02T10:41:01Z</time>
      </trkpt>
      <trkpt lat="55.532483020797372" lon="9.717923970893025">
        <ele>14.56</ele>
        <time>2017-07-02T10:41:11Z</time>
      </trkpt>
      <trkpt lat="55.533815994858742" lon="9.714655028656125">
        <ele>13.119999999999999</ele>
        <time>2017-07-02T10:41:19Z</time>
      </trkpt>
      <trkpt lat="55.535204960033298" lon="9.709757985547185">
        <ele>14.56</ele>
        <time>2017-07-02T10:41:30Z</time>
      </trkpt>
      <trkpt lat="55.536034014075994" lon="9.705038974061608">
        <ele>19.84</ele>
        <time>2017-07-02T10:41:40Z</time>
      </trkpt>
      <trkpt lat="55.53666802123189" lon="9.698967039585114">
        <ele>18.879999999999999</ele>
        <time>2017-07-02T10:41:52Z</time>
      </trkpt>
      <trkpt lat="55.537303034216166" lon="9.692621016874909">
        <ele>23.210000000000001</ele>
        <time>2017-07-02T10:42:04Z</time>
      </trkpt>
      <trkpt lat="55.538205010816455" lon="9.684129981324077">
        <ele>21.289999999999999</ele>
        <time>2017-07-02T10:42:20Z</time>
      </trkpt>
      <trkpt lat="55.539245959371328" lon="9.674861021339893">
        <ele>21.77</ele>
        <time>2017-07-02T10:42:38Z</time>
      </trkpt>
      <trkpt lat="55.540157994255424" lon="9.666964011266828">
        <ele>24.170000000000002</ele>
        <time>2017-07-02T10:42:53Z</time>
      </trkpt>
      <trkpt lat="55.540268970653415" lon="9.662022963166237">
        <ele>24.170000000000002</ele>
        <time>2017-07-02T10:43:02Z</time>
      </trkpt>
      <trkpt lat="55.539989015087485" lon="9.657662026584148">
        <ele>26.09</ele>
        <time>2017-07-02T10:43:10Z</time>
      </trkpt>
      <trkpt lat="55.53918200545013" lon="9.649298982694745">
        <ele>28.02</ele>
        <time>2017-07-02T10:43:26Z</time>
      </trkpt>
      <trkpt lat="55.538840023800731" lon="9.644490033388138">
        <ele>29.460000000000001</ele>
        <time>2017-07-02T10:43:36Z</time>
      </trkpt>
      <trkpt lat="55.538589991629124" lon="9.637602036818862">
        <ele>31.379999999999999</ele>
        <time>2017-07-02T10:43:50Z</time>
      </trkpt>
      <trkpt lat="55.538888974115252" lon="9.632518999278545">
        <ele>33.299999999999997</ele>
        <time>2017-07-02T10:44:01Z</time>
      </trkpt>
      <trkpt lat="55.539566986262798" lon="9.627864025533199">
        <ele>33.299999999999997</ele>
        <time>2017-07-02T10:44:12Z</time>
      </trkpt>
      <trkpt lat="55.540114995092154" lon="9.62436500005424">
        <ele>31.859999999999999</ele>
        <time>2017-07-02T10:44:20Z</time>
      </trkpt>
      <trkpt lat="55.541447969153523" lon="9.616406969726086">
        <ele>28.5</ele>
        <time>2017-07-02T10:44:36Z</time>
      </trkpt>
      <trkpt lat="55.542539041489363" lon="9.60936801508069">
        <ele>28.98</ele>
        <time>2017-07-02T10:44:50Z</time>
      </trkpt>
      <trkpt lat="55.542717995122075" lon="9.60472603328526">
        <ele>25.129999999999999</ele>
        <time>2017-07-02T10:44:59Z</time>
      </trkpt>
      <trkpt lat="55.542486989870667" lon="9.600025964900851">
        <ele>16</ele>
        <time>2017-07-02T10:45:08Z</time>
      </trkpt>
      <trkpt lat="55.542519008740783" lon="9.595225984230638">
        <ele>13.119999999999999</ele>
        <time>2017-07-02T10:45:17Z</time>
      </trkpt>
      <trkpt lat="55.543112028390169" lon="9.590558018535376">
        <ele>16.48</ele>
        <time>2017-07-02T10:45:26Z</time>
      </trkpt>
      <trkpt lat="55.544494958594441" lon="9.584220964461565">
        <ele>30.420000000000002</ele>
        <time>2017-07-02T10:45:39Z</time>
      </trkpt>
      <trkpt lat="55.545953996479511" lon="9.577200030907989">
        <ele>33.780000000000001</ele>
        <time>2017-07-02T10:45:54Z</time>
      </trkpt>
      <trkpt lat="55.546584986150265" lon="9.571151984855533">
        <ele>36.189999999999998</ele>
        <time>2017-07-02T10:46:06Z</time>
      </trkpt>
      <trkpt lat="55.546602001413703" lon="9.565549017861486">
        <ele>42.920000000000002</ele>
        <time>2017-07-02T10:46:17Z</time>
      </trkpt>
      <trkpt lat="55.546075031161308" lon="9.556824965402484">
        <ele>48.200000000000003</ele>
        <time>2017-07-02T10:46:34Z</time>
      </trkpt>
      <trkpt lat="55.545682003721595" lon="9.547480987384915">
        <ele>37.630000000000003</ele>
        <time>2017-07-02T10:46:52Z</time>
      </trkpt>
      <trkpt lat="55.546025997027755" lon="9.541702000424266">
        <ele>49.159999999999997</ele>
        <time>2017-07-02T10:47:03Z</time>
      </trkpt>
      <trkpt lat="55.546592026948929" lon="9.53509203158319">
        <ele>58.299999999999997</ele>
        <time>2017-07-02T10:47:16Z</time>
      </trkpt>
      <trkpt lat="55.546605018898845" lon="9.530535964295268">
        <ele>60.219999999999999</ele>
        <time>2017-07-02T10:47:25Z</time>
      </trkpt>
      <trkpt lat="55.546175027266145" lon="9.52652002684772">
        <ele>59.740000000000002</ele>
        <time>2017-07-02T10:47:33Z</time>
      </trkpt>
      <trkpt lat="55.545266009867191" lon="9.52218197286129">
        <ele>56.369999999999997</ele>
        <time>2017-07-02T10:47:42Z</time>
      </trkpt>
      <trkpt lat="55.543871009722352" lon="9.518182966858149">
        <ele>54.450000000000003</ele>
        <time>2017-07-02T10:47:51Z</time>
      </trkpt>
      <trkpt lat="55.542574999853969" lon="9.515667976811528">
        <ele>56.369999999999997</ele>
        <time>2017-07-02T10:47:58Z</time>
      </trkpt>
      <trkpt lat="55.540790995582938" lon="9.512492995709181">
        <ele>60.219999999999999</ele>
        <time>2017-07-02T10:48:08Z</time>
      </trkpt>
      <trkpt lat="55.538619998842478" lon="9.508508993312717">
        <ele>56.859999999999999</ele>
        <time>2017-07-02T10:48:21Z</time>
      </trkpt>
      <trkpt lat="55.536257978528738" lon="9.50366098433733">
        <ele>51.090000000000003</ele>
        <time>2017-07-02T10:48:36Z</time>
      </trkpt>
      <trkpt lat="55.535216024145484" lon="9.500363962724805">
        <ele>52.530000000000001</ele>
        <time>2017-07-02T10:48:45Z</time>
      </trkpt>
      <trkpt lat="55.534189995378256" lon="9.498277036473155">
        <ele>54.450000000000003</ele>
        <time>2017-07-02T10:48:52Z</time>
      </trkpt>
      <trkpt lat="55.533056007698178" lon="9.497158974409103">
        <ele>56.369999999999997</ele>
        <time>2017-07-02T10:48:59Z</time>
      </trkpt>
      <trkpt lat="55.531849013641477" lon="9.496178962290287">
        <ele>58.780000000000001</ele>
        <time>2017-07-02T10:49:07Z</time>
      </trkpt>
      <trkpt lat="55.531801991164684" lon="9.496135963127017">
        <ele>58.780000000000001</ele>
        <time>2017-07-02T10:49:08Z</time>
      </trkpt>
      <trkpt lat="55.531782964244485" lon="9.496064968407154">
        <ele>57.82</ele>
        <time>2017-07-02T10:49:09Z</time>
      </trkpt>
      <trkpt lat="55.531772989779711" lon="9.495983999222517">
        <ele>57.82</ele>
        <time>2017-07-02T10:49:10Z</time>
      </trkpt>
      <trkpt lat="55.531715992838144" lon="9.495246978476644">
        <ele>57.340000000000003</ele>
        <time>2017-07-02T10:49:15Z</time>
      </trkpt>
      <trkpt lat="55.531651033088565" lon="9.495107000693679">
        <ele>57.340000000000003</ele>
        <time>2017-07-02T10:49:16Z</time>
      </trkpt>
      <trkpt lat="55.53157601505518" lon="9.49498001486063">
        <ele>57.340000000000003</ele>
        <time>2017-07-02T10:49:17Z</time>
      </trkpt>
      <trkpt lat="55.531489010900259" lon="9.494886975735426">
        <ele>56.859999999999999</ele>
        <time>2017-07-02T10:49:18Z</time>
      </trkpt>
      <trkpt lat="55.531393960118294" lon="9.494825033470988">
        <ele>56.859999999999999</ele>
        <time>2017-07-02T10:49:19Z</time>
      </trkpt>
      <trkpt lat="55.531293964013457" lon="9.494797959923744">
        <ele>56.859999999999999</ele>
        <time>2017-07-02T10:49:20Z</time>
      </trkpt>
      <trkpt lat="55.53119002841413" lon="9.494812041521072">
        <ele>56.859999999999999</ele>
        <time>2017-07-02T10:49:21Z</time>
      </trkpt>
      <trkpt lat="55.531087014824152" lon="9.494863003492355">
        <ele>56.859999999999999</ele>
        <time>2017-07-02T10:49:22Z</time>
      </trkpt>
      <trkpt lat="55.530994981527328" lon="9.494965011253953">
        <ele>56.859999999999999</ele>
        <time>2017-07-02T10:49:23Z</time>
      </trkpt>
      <trkpt lat="55.530916023999453" lon="9.495091997087002">
        <ele>56.859999999999999</ele>
        <time>2017-07-02T10:49:24Z</time>
      </trkpt>
      <trkpt lat="55.530850980430841" lon="9.495243038982153">
        <ele>56.369999999999997</ele>
        <time>2017-07-02T10:49:25Z</time>
      </trkpt>
      <trkpt lat="55.530806975439191" lon="9.49541000649333">
        <ele>56.369999999999997</ele>
        <time>2017-07-02T10:49:26Z</time>
      </trkpt>
      <trkpt lat="55.530785014852881" lon="9.495593989267945">
        <ele>55.890000000000001</ele>
        <time>2017-07-02T10:49:27Z</time>
      </trkpt>
      <trkpt lat="55.530769005417824" lon="9.495770009234548">
        <ele>55.409999999999997</ele>
        <time>2017-07-02T10:49:28Z</time>
      </trkpt>
      <trkpt lat="55.530692981556058" lon="9.496066980063915">
        <ele>54.93</ele>
        <time>2017-07-02T10:49:30Z</time>
      </trkpt>
      <trkpt lat="55.530604971572757" lon="9.496158007532358">
        <ele>54.450000000000003</ele>
        <time>2017-07-02T10:49:31Z</time>
      </trkpt>
      <trkpt lat="55.530496006831527" lon="9.496217016130686">
        <ele>53.969999999999999</ele>
        <time>2017-07-02T10:49:32Z</time>
      </trkpt>
      <trkpt lat="55.529413986951113" lon="9.496297985315323">
        <ele>53.969999999999999</ele>
        <time>2017-07-02T10:49:39Z</time>
      </trkpt>
      <trkpt lat="55.527530992403626" lon="9.49635598808527">
        <ele>53.490000000000002</ele>
        <time>2017-07-02T10:49:48Z</time>
      </trkpt>
      <trkpt lat="55.525407018139958" lon="9.496916988864541">
        <ele>52.049999999999997</ele>
        <time>2017-07-02T10:49:57Z</time>
      </trkpt>
      <trkpt lat="55.522751966491342" lon="9.498240994289517">
        <ele>52.530000000000001</ele>
        <time>2017-07-02T10:50:08Z</time>
      </trkpt>
      <trkpt lat="55.517910998314619" lon="9.50099403038621">
        <ele>53.490000000000002</ele>
        <time>2017-07-02T10:50:28Z</time>
      </trkpt>
      <trkpt lat="55.51610897295177" lon="9.501761980354786">
        <ele>51.090000000000003</ele>
        <time>2017-07-02T10:50:36Z</time>
      </trkpt>
      <trkpt lat="55.514061022549868" lon="9.502202030271292">
        <ele>48.200000000000003</ele>
        <time>2017-07-02T10:50:46Z</time>
      </trkpt>
      <trkpt lat="55.511580985039473" lon="9.502761019393802">
        <ele>44.359999999999999</ele>
        <time>2017-07-02T10:51:00Z</time>
      </trkpt>
      <trkpt lat="55.50938400439918" lon="9.503868017345667">
        <ele>39.07</ele>
        <time>2017-07-02T10:51:13Z</time>
      </trkpt>
      <trkpt lat="55.507586002349854" lon="9.504697993397713">
        <ele>33.299999999999997</ele>
        <time>2017-07-02T10:51:24Z</time>
      </trkpt>
      <trkpt lat="55.505977012217045" lon="9.504631021991372">
        <ele>32.82</ele>
        <time>2017-07-02T10:51:33Z</time>
      </trkpt>
      <trkpt lat="55.504472963511944" lon="9.503728961572051">
        <ele>34.259999999999998</ele>
        <time>2017-07-02T10:51:41Z</time>
      </trkpt>
      <trkpt lat="55.501990998163819" lon="9.501800034195185">
        <ele>32.82</ele>
        <time>2017-07-02T10:51:55Z</time>
      </trkpt>
      <trkpt lat="55.499326977878809" lon="9.499460980296135">
        <ele>19.84</ele>
        <time>2017-07-02T10:52:10Z</time>
      </trkpt>
      <trkpt lat="55.498694982379675" lon="9.498426988720894">
        <ele>15.039999999999999</ele>
        <time>2017-07-02T10:52:16Z</time>
      </trkpt>
      <trkpt lat="55.49853203818202" lon="9.498057011514902">
        <ele>12.630000000000001</ele>
        <time>2017-07-02T10:52:22Z</time>
      </trkpt>
      <trkpt lat="55.498409997671843" lon="9.497850984334946">
        <ele>12.15</ele>
        <time>2017-07-02T10:52:27Z</time>
      </trkpt>
      <trkpt lat="55.498369010165334" lon="9.497831035405397">
        <ele>12.15</ele>
        <time>2017-07-02T10:52:28Z</time>
      </trkpt>
      <trkpt lat="55.49831603653729" lon="9.497834974899888">
        <ele>11.67</ele>
        <time>2017-07-02T10:52:29Z</time>
      </trkpt>
      <trkpt lat="55.498259039595723" lon="9.497878979891539">
        <ele>12.15</ele>
        <time>2017-07-02T10:52:30Z</time>
      </trkpt>
      <trkpt lat="55.498201958835125" lon="9.497942011803389">
        <ele>12.15</ele>
        <time>2017-07-02T10:52:31Z</time>
      </trkpt>
      <trkpt lat="55.497558983042836" lon="9.498335961252451">
        <ele>11.19</ele>
        <time>2017-07-02T10:52:38Z</time>
      </trkpt>
      <trkpt lat="55.497438032180071" lon="9.498381977900863">
        <ele>10.23</ele>
        <time>2017-07-02T10:52:39Z</time>
      </trkpt>
      <trkpt lat="55.497310040518641" lon="9.498415002599359">
        <ele>9.75</ele>
        <time>2017-07-02T10:52:40Z</time>
      </trkpt>
      <trkpt lat="55.497177019715309" lon="9.498430006206036">
        <ele>9.27</ele>
        <time>2017-07-02T10:52:41Z</time>
      </trkpt>
      <trkpt lat="55.497038969770074" lon="9.498427994549274">
        <ele>8.789999999999999</ele>
        <time>2017-07-02T10:52:42Z</time>
      </trkpt>
      <trkpt lat="55.49689999781549" lon="9.498404022306204">
        <ele>8.310000000000001</ele>
        <time>2017-07-02T10:52:43Z</time>
      </trkpt>
      <trkpt lat="55.496763037517667" lon="9.498358005657792">
        <ele>7.83</ele>
        <time>2017-07-02T10:52:44Z</time>
      </trkpt>
      <trkpt lat="55.496624987572432" lon="9.498290028423071">
        <ele>6.87</ele>
        <time>2017-07-02T10:52:45Z</time>
      </trkpt>
      <trkpt lat="55.496488027274609" lon="9.49820201843977">
        <ele>6.39</ele>
        <time>2017-07-02T10:52:46Z</time>
      </trkpt>
      <trkpt lat="55.496355006471276" lon="9.498097999021411">
        <ele>5.42</ele>
        <time>2017-07-02T10:52:47Z</time>
      </trkpt>
      <trkpt lat="55.496229026466608" lon="9.497972019016743">
        <ele>4.46</ele>
        <time>2017-07-02T10:52:48Z</time>
      </trkpt>
      <trkpt lat="55.496112015098333" lon="9.497835980728269">
        <ele>3.98</ele>
        <time>2017-07-02T10:52:49Z</time>
      </trkpt>
      <trkpt lat="55.496000032871962" lon="9.497683010995388">
        <ele>3.02</ele>
        <time>2017-07-02T10:52:50Z</time>
      </trkpt>
      <trkpt lat="55.495900958776474" lon="9.497512020170689">
        <ele>2.06</ele>
        <time>2017-07-02T10:52:51Z</time>
      </trkpt>
      <trkpt lat="55.495809009298682" lon="9.497326025739312">
        <ele>1.1</ele>
        <time>2017-07-02T10:52:52Z</time>
      </trkpt>
      <trkpt lat="55.495717981830239" lon="9.497126033529639">
        <ele>0.62</ele>
        <time>2017-07-02T10:52:53Z</time>
      </trkpt>
      <trkpt lat="55.495636006817222" lon="9.496912965551019">
        <ele>0.14</ele>
        <time>2017-07-02T10:52:54Z</time>
      </trkpt>
      <trkpt lat="55.494676027446985" lon="9.494010983034968">
        <ele>-0.34</ele>
        <time>2017-07-02T10:53:07Z</time>
      </trkpt>
      <trkpt lat="55.493201985955238" lon="9.489723974838853">
        <ele>0.62</ele>
        <time>2017-07-02T10:53:27Z</time>
      </trkpt>
      <trkpt lat="55.491854008287191" lon="9.485865030437708">
        <ele>1.1</ele>
        <time>2017-07-02T10:53:45Z</time>
      </trkpt>
      <trkpt lat="55.490793026983738" lon="9.483403014019132">
        <ele>2.06</ele>
        <time>2017-07-02T10:53:58Z</time>
      </trkpt>
      <trkpt lat="55.489970007911325" lon="9.482086971402168">
        <ele>1.1</ele>
        <time>2017-07-02T10:54:08Z</time>
      </trkpt>
      <trkpt lat="55.489891972392797" lon="9.482015976682305">
        <ele>1.1</ele>
        <time>2017-07-02T10:54:09Z</time>
      </trkpt>
      <trkpt lat="55.489808991551399" lon="9.4819609913975">
        <ele>1.1</ele>
        <time>2017-07-02T10:54:10Z</time>
      </trkpt>
      <trkpt lat="55.48972399905324" lon="9.481926960870624">
        <ele>1.1</ele>
        <time>2017-07-02T10:54:11Z</time>
      </trkpt>
      <trkpt lat="55.489644035696983" lon="9.481902988627553">
        <ele>1.1</ele>
        <time>2017-07-02T10:54:12Z</time>
      </trkpt>
      <trkpt lat="55.489568011835217" lon="9.481897037476301">
        <ele>1.1</ele>
        <time>2017-07-02T10:54:13Z</time>
      </trkpt>
      <trkpt lat="55.48948997631669" lon="9.481902988627553">
        <ele>1.1</ele>
        <time>2017-07-02T10:54:14Z</time>
      </trkpt>
      <trkpt lat="55.489414036273956" lon="9.481921009719372">
        <ele>1.1</ele>
        <time>2017-07-02T10:54:15Z</time>
      </trkpt>
      <trkpt lat="55.489331977441907" lon="9.481944981962442">
        <ele>1.1</ele>
        <time>2017-07-02T10:54:16Z</time>
      </trkpt>
      <trkpt lat="55.489243967458606" lon="9.481990998610854">
        <ele>1.1</ele>
        <time>2017-07-02T10:54:17Z</time>
      </trkpt>
      <trkpt lat="55.489153023809195" lon="9.48204698972404">
        <ele>1.1</ele>
        <time>2017-07-02T10:54:18Z</time>
      </trkpt>
      <trkpt lat="55.48905897885561" lon="9.482118990272284">
        <ele>1.1</ele>
        <time>2017-07-02T10:54:19Z</time>
      </trkpt>
      <trkpt lat="55.488968035206199" lon="9.482200965285301">
        <ele>0.62</ele>
        <time>2017-07-02T10:54:20Z</time>
      </trkpt>
      <trkpt lat="55.488883964717388" lon="9.482294004410505">
        <ele>0.62</ele>
        <time>2017-07-02T10:54:21Z</time>
      </trkpt>
      <trkpt lat="55.488805007189512" lon="9.482375979423523">
        <ele>0.62</ele>
        <time>2017-07-02T10:54:22Z</time>
      </trkpt>
      <trkpt lat="55.488537959754467" lon="9.482576977461577">
        <ele>0.14</ele>
        <time>2017-07-02T10:54:26Z</time>
      </trkpt>
      <trkpt lat="55.488136969506741" lon="9.482757020741701">
        <ele>-1.79</ele>
        <time>2017-07-02T10:54:33Z</time>
      </trkpt>
      <trkpt lat="55.488117020577192" lon="9.482809994369745">
        <ele>-0.82</ele>
        <time>2017-07-02T10:54:34Z</time>
      </trkpt>
      <trkpt lat="55.488116014748812" lon="9.482870008796454">
        <ele>-0.82</ele>
        <time>2017-07-02T10:54:35Z</time>
      </trkpt>
      <trkpt lat="55.488126995041966" lon="9.482917031273246">
        <ele>-1.3</ele>
        <time>2017-07-02T10:54:36Z</time>
      </trkpt>
      <trkpt lat="55.488164965063334" lon="9.482944021001458">
        <ele>-1.3</ele>
        <time>2017-07-02T10:54:37Z</time>
      </trkpt>
      <trkpt lat="55.488210981711745" lon="9.4829470384866">
        <ele>-1.3</ele>
        <time>2017-07-02T10:54:38Z</time>
      </trkpt>
      <trkpt lat="55.488270996138453" lon="9.482917031273246">
        <ele>-1.3</ele>
        <time>2017-07-02T10:54:39Z</time>
      </trkpt>
      <trkpt lat="55.488337967544794" lon="9.482870008796454">
        <ele>-1.79</ele>
        <time>2017-07-02T10:54:40Z</time>
      </trkpt>
      <trkpt lat="55.488783968612552" lon="9.482686026021838">
        <ele>-2.27</ele>
        <time>2017-07-02T10:54:47Z</time>
      </trkpt>
      <trkpt lat="55.488880025222898" lon="9.482597010210156">
        <ele>-1.79</ele>
        <time>2017-07-02T10:54:55Z</time>
      </trkpt>
      <trkpt lat="55.489002987742424" lon="9.482456026598811">
        <ele>-2.27</ele>
        <time>2017-07-02T10:55:02Z</time>
      </trkpt>
      <trkpt lat="55.489022014662623" lon="9.482272965833545">
        <ele>-2.75</ele>
        <time>2017-07-02T10:55:05Z</time>
      </trkpt>
      <trkpt lat="55.489010028541088" lon="9.482170036062598">
        <ele>-3.23</ele>
        <time>2017-07-02T10:55:06Z</time>
      </trkpt>
      <trkpt lat="55.488988989964128" lon="9.482066016644239">
        <ele>-3.23</ele>
        <time>2017-07-02T10:55:07Z</time>
      </trkpt>
      <trkpt lat="55.488958982750773" lon="9.481973983347416">
        <ele>-3.23</ele>
        <time>2017-07-02T10:55:08Z</time>
      </trkpt>
      <trkpt lat="55.488928975537419" lon="9.481883961707354">
        <ele>-3.23</ele>
        <time>2017-07-02T10:55:09Z</time>
      </trkpt>
      <trkpt lat="55.488866027444601" lon="9.481623033061624">
        <ele>-2.27</ele>
        <time>2017-07-02T10:55:12Z</time>
      </trkpt>
      <trkpt lat="55.488854963332415" lon="9.481552038341761">
        <ele>-2.75</ele>
        <time>2017-07-02T10:55:13Z</time>
      </trkpt>
      <trkpt lat="55.488854963332415" lon="9.481492023915052">
        <ele>-2.75</ele>
        <time>2017-07-02T10:55:14Z</time>
      </trkpt>
      <trkpt lat="55.488859992474318" lon="9.481450030580163">
        <ele>-2.27</ele>
        <time>2017-07-02T10:55:15Z</time>
      </trkpt>
      <trkpt lat="55.488858986645937" lon="9.481420023366809">
        <ele>-2.75</ele>
        <time>2017-07-02T10:55:16Z</time>
      </trkpt>
      <trkpt lat="55.488859992474318" lon="9.481394961476326">
        <ele>-2.75</ele>
        <time>2017-07-02T10:55:17Z</time>
      </trkpt>
      <trkpt lat="55.488868039101362" lon="9.481371995061636">
        <ele>-2.27</ele>
        <time>2017-07-02T10:55:18Z</time>
      </trkpt>
      <trkpt lat="55.488877007737756" lon="9.481340982019901">
        <ele>-1.3</ele>
        <time>2017-07-02T10:55:19Z</time>
      </trkpt>
      <trkpt lat="55.488901985809207" lon="9.481287002563477">
        <ele>-6.11</ele>
        <time>2017-07-02T10:55:32Z</time>
      </trkpt>
      <trkpt lat="55.488899974152446" lon="9.481276022270322">
        <ele>-7.07</ele>
        <time>2017-07-02T10:56:19Z</time>
      </trkpt>
      <trkpt lat="55.488889999687672" lon="9.481266969814897">
        <ele>-6.11</ele>
        <time>2017-07-02T10:57:20Z</time>
      </trkpt>
    </trkseg>
  </trk>

  <trk>
    <name>Track vom: 02 Jul 2017 13:16</name>
    <extensions>
      <gpxx:TrackExtension>
        <gpxx:DisplayColor>DarkGray</gpxx:DisplayColor>
      </gpxx:TrackExtension>
    </extensions>
    <trkseg>
      <trkpt lat="55.488753039389849" lon="9.481021966785193">
        <ele>-11.4</ele>
        <time>2017-07-02T11:16:16Z</time>
      </trkpt>
      <trkpt lat="55.488742981106043" lon="9.480957007035613">
        <ele>-13.800000000000001</ele>
        <time>2017-07-02T11:18:07Z</time>
      </trkpt>
      <trkpt lat="55.488698976114392" lon="9.48099103756249">
        <ele>-11.880000000000001</ele>
        <time>2017-07-02T11:18:12Z</time>
      </trkpt>
      <trkpt lat="55.488654971122742" lon="9.480942003428936">
        <ele>-12.359999999999999</ele>
        <time>2017-07-02T11:18:14Z</time>
      </trkpt>
      <trkpt lat="55.488627981394529" lon="9.480873020365834">
        <ele>-12.84</ele>
        <time>2017-07-02T11:18:15Z</time>
      </trkpt>
      <trkpt lat="55.488605014979839" lon="9.480782998725772">
        <ele>-12.84</ele>
        <time>2017-07-02T11:18:16Z</time>
      </trkpt>
      <trkpt lat="55.488590011373162" lon="9.480681996792555">
        <ele>-13.32</ele>
        <time>2017-07-02T11:18:17Z</time>
      </trkpt>
      <trkpt lat="55.488541983067989" lon="9.480245970189571">
        <ele>-14.76</ele>
        <time>2017-07-02T11:18:26Z</time>
      </trkpt>
      <trkpt lat="55.488535026088357" lon="9.480243036523461">
        <ele>-12.84</ele>
        <time>2017-07-02T11:18:42Z</time>
      </trkpt>
      <trkpt lat="55.488528991118073" lon="9.480187967419624">
        <ele>-12.359999999999999</ele>
        <time>2017-07-02T11:18:43Z</time>
      </trkpt>
      <trkpt lat="55.488506024703383" lon="9.480097023770213">
        <ele>-12.359999999999999</ele>
        <time>2017-07-02T11:18:44Z</time>
      </trkpt>
      <trkpt lat="55.488470988348126" lon="9.480000967159867">
        <ele>-11.880000000000001</ele>
        <time>2017-07-02T11:18:45Z</time>
      </trkpt>
      <trkpt lat="55.488428995013237" lon="9.479916980490089">
        <ele>-12.359999999999999</ele>
        <time>2017-07-02T11:18:46Z</time>
      </trkpt>
      <trkpt lat="55.488389013335109" lon="9.479831987991929">
        <ele>-12.359999999999999</ele>
        <time>2017-07-02T11:18:47Z</time>
      </trkpt>
      <trkpt lat="55.488373003900051" lon="9.479737021028996">
        <ele>-12.359999999999999</ele>
        <time>2017-07-02T11:18:48Z</time>
      </trkpt>
      <trkpt lat="55.488340985029936" lon="9.479650016874075">
        <ele>-11.880000000000001</ele>
        <time>2017-07-02T11:18:49Z</time>
      </trkpt>
      <trkpt lat="55.488037979230285" lon="9.479021960869432">
        <ele>-11.880000000000001</ele>
        <time>2017-07-02T11:18:56Z</time>
      </trkpt>
      <trkpt lat="55.487995985895395" lon="9.478925988078117">
        <ele>-11.880000000000001</ele>
        <time>2017-07-02T11:18:57Z</time>
      </trkpt>
      <trkpt lat="55.487957010045648" lon="9.478822974488139">
        <ele>-11.4</ele>
        <time>2017-07-02T11:18:58Z</time>
      </trkpt>
      <trkpt lat="55.487932031974196" lon="9.478706968948245">
        <ele>-10.92</ele>
        <time>2017-07-02T11:18:59Z</time>
      </trkpt>
      <trkpt lat="55.487909987568855" lon="9.478590041399002">
        <ele>-10.44</ele>
        <time>2017-07-02T11:19:00Z</time>
      </trkpt>
      <trkpt lat="55.487750982865691" lon="9.477781020104885">
        <ele>-10.44</ele>
        <time>2017-07-02T11:19:07Z</time>
      </trkpt>
      <trkpt lat="55.487709995359182" lon="9.477672977373004">
        <ele>-9.960000000000001</ele>
        <time>2017-07-02T11:19:08Z</time>
      </trkpt>
      <trkpt lat="55.487659033387899" lon="9.477585973218083">
        <ele>-9.48</ele>
        <time>2017-07-02T11:19:09Z</time>
      </trkpt>
      <trkpt lat="55.487601030617952" lon="9.477522019296885">
        <ele>-8.51</ele>
        <time>2017-07-02T11:19:10Z</time>
      </trkpt>
      <trkpt lat="55.487541016191244" lon="9.477480025961995">
        <ele>-8.51</ele>
        <time>2017-07-02T11:19:11Z</time>
      </trkpt>
      <trkpt lat="55.487473038956523" lon="9.477457981556654">
        <ele>-8.51</ele>
        <time>2017-07-02T11:19:12Z</time>
      </trkpt>
      <trkpt lat="55.487387962639332" lon="9.477472985163331">
        <ele>-8.51</ele>
        <time>2017-07-02T11:19:13Z</time>
      </trkpt>
      <trkpt lat="55.487300958484411" lon="9.477482037618756">
        <ele>-9</ele>
        <time>2017-07-02T11:19:14Z</time>
      </trkpt>
      <trkpt lat="55.486707016825676" lon="9.477520007640123">
        <ele>-4.19</ele>
        <time>2017-07-02T11:19:21Z</time>
      </trkpt>
      <trkpt lat="55.486656976863742" lon="9.477515984326601">
        <ele>-3.71</ele>
        <time>2017-07-02T11:19:22Z</time>
      </trkpt>
      <trkpt lat="55.486353971064091" lon="9.477434009313583">
        <ele>0.14</ele>
        <time>2017-07-02T11:19:29Z</time>
      </trkpt>
      <trkpt lat="55.486311977729201" lon="9.477381035685539">
        <ele>0.14</ele>
        <time>2017-07-02T11:19:30Z</time>
      </trkpt>
      <trkpt lat="55.486279958859086" lon="9.477293025702238">
        <ele>0.62</ele>
        <time>2017-07-02T11:19:31Z</time>
      </trkpt>
      <trkpt lat="55.486260009929538" lon="9.477177020162344">
        <ele>0.62</ele>
        <time>2017-07-02T11:19:32Z</time>
      </trkpt>
      <trkpt lat="55.486247017979622" lon="9.477056991308928">
        <ele>1.58</ele>
        <time>2017-07-02T11:19:33Z</time>
      </trkpt>
      <trkpt lat="55.486248023808002" lon="9.476926987990737">
        <ele>2.06</ele>
        <time>2017-07-02T11:19:34Z</time>
      </trkpt>
      <trkpt lat="55.486256992444396" lon="9.476789021864533">
        <ele>1.58</ele>
        <time>2017-07-02T11:19:35Z</time>
      </trkpt>
      <trkpt lat="55.486364029347897" lon="9.474673010408878">
        <ele>3.5</ele>
        <time>2017-07-02T11:19:48Z</time>
      </trkpt>
      <trkpt lat="55.486441981047392" lon="9.473309023305774">
        <ele>8.310000000000001</ele>
        <time>2017-07-02T11:19:59Z</time>
      </trkpt>
      <trkpt lat="55.486482968553901" lon="9.472679039463401">
        <ele>11.19</ele>
        <time>2017-07-02T11:20:12Z</time>
      </trkpt>
      <trkpt lat="55.486482968553901" lon="9.472513999789953">
        <ele>11.19</ele>
        <time>2017-07-02T11:20:21Z</time>
      </trkpt>
      <trkpt lat="55.486480034887791" lon="9.472195990383625">
        <ele>11.67</ele>
        <time>2017-07-02T11:20:26Z</time>
      </trkpt>
      <trkpt lat="55.486444998532534" lon="9.47214100509882">
        <ele>11.67</ele>
        <time>2017-07-02T11:20:27Z</time>
      </trkpt>
      <trkpt lat="55.486397976055741" lon="9.472112003713846">
        <ele>11.67</ele>
        <time>2017-07-02T11:20:28Z</time>
      </trkpt>
      <trkpt lat="55.486334022134542" lon="9.472107980400324">
        <ele>10.710000000000001</ele>
        <time>2017-07-02T11:20:29Z</time>
      </trkpt>
      <trkpt lat="55.486262021586299" lon="9.47212197817862">
        <ele>10.710000000000001</ele>
        <time>2017-07-02T11:20:30Z</time>
      </trkpt>
      <trkpt lat="55.486191026866436" lon="9.472135975956917">
        <ele>10.710000000000001</ele>
        <time>2017-07-02T11:20:31Z</time>
      </trkpt>
      <trkpt lat="55.486039984971285" lon="9.472147962078452">
        <ele>10.710000000000001</ele>
        <time>2017-07-02T11:20:33Z</time>
      </trkpt>
      <trkpt lat="55.485961027443409" lon="9.472134970128536">
        <ele>10.710000000000001</ele>
        <time>2017-07-02T11:20:34Z</time>
      </trkpt>
      <trkpt lat="55.485881986096501" lon="9.472101023420692">
        <ele>12.15</ele>
        <time>2017-07-02T11:20:35Z</time>
      </trkpt>
      <trkpt lat="55.484712040051818" lon="9.471543962135911">
        <ele>15.039999999999999</ele>
        <time>2017-07-02T11:20:48Z</time>
      </trkpt>
      <trkpt lat="55.484387995675206" lon="9.471240034326911">
        <ele>16.960000000000001</ele>
        <time>2017-07-02T11:20:55Z</time>
      </trkpt>
      <trkpt lat="55.484341979026794" lon="9.471157975494862">
        <ele>17.920000000000002</ele>
        <time>2017-07-02T11:21:09Z</time>
      </trkpt>
      <trkpt lat="55.484131006523967" lon="9.470933005213738">
        <ele>19.359999999999999</ele>
        <time>2017-07-02T11:21:27Z</time>
      </trkpt>
      <trkpt lat="55.483120987191796" lon="9.469924997538328">
        <ele>23.690000000000001</ele>
        <time>2017-07-02T11:21:38Z</time>
      </trkpt>
      <trkpt lat="55.481313010677695" lon="9.468229003250599">
        <ele>36.189999999999998</ele>
        <time>2017-07-02T11:21:55Z</time>
      </trkpt>
      <trkpt lat="55.481193987652659" lon="9.468196984380484">
        <ele>36.670000000000002</ele>
        <time>2017-07-02T11:21:56Z</time>
      </trkpt>
      <trkpt lat="55.481062978506088" lon="9.468181980773807">
        <ele>38.109999999999999</ele>
        <time>2017-07-02T11:21:57Z</time>
      </trkpt>
      <trkpt lat="55.480934986844659" lon="9.468183992430568">
        <ele>38.590000000000003</ele>
        <time>2017-07-02T11:21:58Z</time>
      </trkpt>
      <trkpt lat="55.480803977698088" lon="9.468221962451935">
        <ele>39.07</ele>
        <time>2017-07-02T11:21:59Z</time>
      </trkpt>
      <trkpt lat="55.478464001789689" lon="9.468850018456578">
        <ele>42.920000000000002</ele>
        <time>2017-07-02T11:22:17Z</time>
      </trkpt>
      <trkpt lat="55.475617004558444" lon="9.469557031989098">
        <ele>44.840000000000003</ele>
        <time>2017-07-02T11:22:38Z</time>
      </trkpt>
      <trkpt lat="55.473105031996965" lon="9.470200007781386">
        <ele>47.719999999999999</ele>
        <time>2017-07-02T11:22:57Z</time>
      </trkpt>
      <trkpt lat="55.472128037363291" lon="9.470445010811091">
        <ele>48.68</ele>
        <time>2017-07-02T11:23:07Z</time>
      </trkpt>
      <trkpt lat="55.471444996073842" lon="9.470517011359334">
        <ele>47.719999999999999</ele>
        <time>2017-07-02T11:23:15Z</time>
      </trkpt>
      <trkpt lat="55.470994971692562" lon="9.470618013292551">
        <ele>47.719999999999999</ele>
        <time>2017-07-02T11:23:22Z</time>
      </trkpt>
      <trkpt lat="55.470810988917947" lon="9.470674004405737">
        <ele>48.200000000000003</ele>
        <time>2017-07-02T11:23:27Z</time>
      </trkpt>
      <trkpt lat="55.470768995583057" lon="9.470670986920595">
        <ele>48.200000000000003</ele>
        <time>2017-07-02T11:23:28Z</time>
      </trkpt>
      <trkpt lat="55.470728008076549" lon="9.470645003020763">
        <ele>47.719999999999999</ele>
        <time>2017-07-02T11:23:29Z</time>
      </trkpt>
      <trkpt lat="55.47068702057004" lon="9.470588006079197">
        <ele>47.240000000000002</ele>
        <time>2017-07-02T11:23:30Z</time>
      </trkpt>
      <trkpt lat="55.470646033063531" lon="9.470504019409418">
        <ele>47.719999999999999</ele>
        <time>2017-07-02T11:23:31Z</time>
      </trkpt>
      <trkpt lat="55.470606973394752" lon="9.47038097307086">
        <ele>47.719999999999999</ele>
        <time>2017-07-02T11:23:32Z</time>
      </trkpt>
      <trkpt lat="55.470575038343668" lon="9.470234038308263">
        <ele>47.719999999999999</ele>
        <time>2017-07-02T11:23:33Z</time>
      </trkpt>
      <trkpt lat="55.470540001988411" lon="9.470075033605099">
        <ele>47.719999999999999</ele>
        <time>2017-07-02T11:23:34Z</time>
      </trkpt>
      <trkpt lat="55.470170024782419" lon="9.468430001288652">
        <ele>47.240000000000002</ele>
        <time>2017-07-02T11:23:41Z</time>
      </trkpt>
      <trkpt lat="55.469508022069931" lon="9.465713007375598">
        <ele>45.799999999999997</ele>
        <time>2017-07-02T11:23:49Z</time>
      </trkpt>
      <trkpt lat="55.468397000804543" lon="9.460656959563494">
        <ele>40.030000000000001</ele>
        <time>2017-07-02T11:24:02Z</time>
      </trkpt>
      <trkpt lat="55.467697028070688" lon="9.455904001370072">
        <ele>44.359999999999999</ele>
        <time>2017-07-02T11:24:14Z</time>
      </trkpt>
      <trkpt lat="55.467086993157864" lon="9.449352035298944">
        <ele>44.359999999999999</ele>
        <time>2017-07-02T11:24:30Z</time>
      </trkpt>
      <trkpt lat="55.466532027348876" lon="9.443038031458855">
        <ele>48.68</ele>
        <time>2017-07-02T11:24:46Z</time>
      </trkpt>
      <trkpt lat="55.466328011825681" lon="9.440906010568142">
        <ele>49.159999999999997</ele>
        <time>2017-07-02T11:24:53Z</time>
      </trkpt>
      <trkpt lat="55.466245030984282" lon="9.440116016194224">
        <ele>48.68</ele>
        <time>2017-07-02T11:24:59Z</time>
      </trkpt>
      <trkpt lat="55.466249976307154" lon="9.440029012039304">
        <ele>49.649999999999999</ele>
        <time>2017-07-02T11:25:09Z</time>
      </trkpt>
      <trkpt lat="55.466216029599309" lon="9.439571024850011">
        <ele>50.609999999999999</ele>
        <time>2017-07-02T11:25:18Z</time>
      </trkpt>
      <trkpt lat="55.4660680051893" lon="9.437836976721883">
        <ele>51.090000000000003</ele>
        <time>2017-07-02T11:25:27Z</time>
      </trkpt>
      <trkpt lat="55.466010002419353" lon="9.437298020347953">
        <ele>51.57</ele>
        <time>2017-07-02T11:25:33Z</time>
      </trkpt>
      <trkpt lat="55.46600497327745" lon="9.437275975942612">
        <ele>52.049999999999997</ele>
        <time>2017-07-02T11:25:47Z</time>
      </trkpt>
      <trkpt lat="55.46596197411418" lon="9.437190983444452">
        <ele>52.530000000000001</ele>
        <time>2017-07-02T11:26:27Z</time>
      </trkpt>
      <trkpt lat="55.465905983000994" lon="9.437172040343285">
        <ele>52.530000000000001</ele>
        <time>2017-07-02T11:26:28Z</time>
      </trkpt>
      <trkpt lat="55.465830964967608" lon="9.437175979837775">
        <ele>52.530000000000001</ele>
        <time>2017-07-02T11:26:29Z</time>
      </trkpt>
      <trkpt lat="55.465743038803339" lon="9.437216967344284">
        <ele>52.530000000000001</ele>
        <time>2017-07-02T11:26:30Z</time>
      </trkpt>
      <trkpt lat="55.465644970536232" lon="9.437298020347953">
        <ele>52.049999999999997</ele>
        <time>2017-07-02T11:26:31Z</time>
      </trkpt>
      <trkpt lat="55.465539023280144" lon="9.437416037544608">
        <ele>52.049999999999997</ele>
        <time>2017-07-02T11:26:32Z</time>
      </trkpt>
      <trkpt lat="55.465433998033404" lon="9.437583005055785">
        <ele>51.57</ele>
        <time>2017-07-02T11:26:33Z</time>
      </trkpt>
      <trkpt lat="55.465331990271807" lon="9.437777968123555">
        <ele>51.090000000000003</ele>
        <time>2017-07-02T11:26:34Z</time>
      </trkpt>
      <trkpt lat="55.465235011652112" lon="9.438008973374963">
        <ele>50.609999999999999</ele>
        <time>2017-07-02T11:26:35Z</time>
      </trkpt>
      <trkpt lat="55.465137027204037" lon="9.438262023031712">
        <ele>49.649999999999999</ele>
        <time>2017-07-02T11:26:36Z</time>
      </trkpt>
      <trkpt lat="55.464238990098238" lon="9.440337968990207">
        <ele>45.32</ele>
        <time>2017-07-02T11:26:43Z</time>
      </trkpt>
      <trkpt lat="55.46286603435874" lon="9.442154997959733">
        <ele>46.759999999999998</ele>
        <time>2017-07-02T11:26:50Z</time>
      </trkpt>
      <trkpt lat="55.46028901822865" lon="9.444864029064775">
        <ele>50.130000000000003</ele>
        <time>2017-07-02T11:27:01Z</time>
      </trkpt>
      <trkpt lat="55.457421988248825" lon="9.447209034115076">
        <ele>50.130000000000003</ele>
        <time>2017-07-02T11:27:11Z</time>
      </trkpt>
      <trkpt lat="55.453215027227998" lon="9.449884034693241">
        <ele>46.759999999999998</ele>
        <time>2017-07-02T11:27:24Z</time>
      </trkpt>
      <trkpt lat="55.449866959825158" lon="9.451599977910519">
        <ele>43.399999999999999</ele>
        <time>2017-07-02T11:27:34Z</time>
      </trkpt>
      <trkpt lat="55.443986970931292" lon="9.454725002869964">
        <ele>44.359999999999999</ele>
        <time>2017-07-02T11:27:52Z</time>
      </trkpt>
      <trkpt lat="55.438148975372314" lon="9.457753971219063">
        <ele>50.609999999999999</ele>
        <time>2017-07-02T11:28:10Z</time>
      </trkpt>
      <trkpt lat="55.436396989971399" lon="9.458582019433379">
        <ele>51.090000000000003</ele>
        <time>2017-07-02T11:28:17Z</time>
      </trkpt>
      <trkpt lat="55.433852998539805" lon="9.459473015740514">
        <ele>50.130000000000003</ele>
        <time>2017-07-02T11:28:29Z</time>
      </trkpt>
      <trkpt lat="55.430610962212086" lon="9.460084978491068">
        <ele>50.130000000000003</ele>
        <time>2017-07-02T11:28:46Z</time>
      </trkpt>
      <trkpt lat="55.427663968876004" lon="9.460223028436303">
        <ele>50.130000000000003</ele>
        <time>2017-07-02T11:29:00Z</time>
      </trkpt>
      <trkpt lat="55.425249980762601" lon="9.459952963516116">
        <ele>49.159999999999997</ele>
        <time>2017-07-02T11:29:12Z</time>
      </trkpt>
      <trkpt lat="55.423621041700244" lon="9.459533030167222">
        <ele>48.68</ele>
        <time>2017-07-02T11:29:19Z</time>
      </trkpt>
      <trkpt lat="55.421217028051615" lon="9.458602974191308">
        <ele>47.719999999999999</ele>
        <time>2017-07-02T11:29:27Z</time>
      </trkpt>
      <trkpt lat="55.417418014258146" lon="9.456773037090898">
        <ele>46.759999999999998</ele>
        <time>2017-07-02T11:29:39Z</time>
      </trkpt>
      <trkpt lat="55.4132379591465" lon="9.45531802251935">
        <ele>44.840000000000003</ele>
        <time>2017-07-02T11:29:52Z</time>
      </trkpt>
      <trkpt lat="55.408683987334371" lon="9.454668005928397">
        <ele>41.469999999999999</ele>
        <time>2017-07-02T11:30:06Z</time>
      </trkpt>
      <trkpt lat="55.405193008482456" lon="9.453856972977519">
        <ele>39.549999999999997</ele>
        <time>2017-07-02T11:30:17Z</time>
      </trkpt>
      <trkpt lat="55.402770973742008" lon="9.452732959762216">
        <ele>39.549999999999997</ele>
        <time>2017-07-02T11:30:25Z</time>
      </trkpt>
      <trkpt lat="55.399585012346506" lon="9.450727002695203">
        <ele>40.509999999999998</ele>
        <time>2017-07-02T11:30:36Z</time>
      </trkpt>
      <trkpt lat="55.396208027377725" lon="9.449081970378757">
        <ele>42.920000000000002</ele>
        <time>2017-07-02T11:30:47Z</time>
      </trkpt>
      <trkpt lat="55.392995998263359" lon="9.448380991816521">
        <ele>47.719999999999999</ele>
        <time>2017-07-02T11:30:57Z</time>
      </trkpt>
      <trkpt lat="55.389719009399414" lon="9.448498003184795">
        <ele>52.049999999999997</ele>
        <time>2017-07-02T11:31:07Z</time>
      </trkpt>
      <trkpt lat="55.38519999012351" lon="9.449410960078239">
        <ele>53.490000000000002</ele>
        <time>2017-07-02T11:31:21Z</time>
      </trkpt>
      <trkpt lat="55.381208024919033" lon="9.450380997732282">
        <ele>52.530000000000001</ele>
        <time>2017-07-02T11:31:33Z</time>
      </trkpt>
      <trkpt lat="55.376559002324939" lon="9.451040988788009">
        <ele>51.090000000000003</ele>
        <time>2017-07-02T11:31:47Z</time>
      </trkpt>
      <trkpt lat="55.371489962562919" lon="9.451081976294518">
        <ele>48.68</ele>
        <time>2017-07-02T11:32:02Z</time>
      </trkpt>
      <trkpt lat="55.366824008524418" lon="9.450497003272176">
        <ele>46.280000000000001</ele>
        <time>2017-07-02T11:32:16Z</time>
      </trkpt>
      <trkpt lat="55.362098962068558" lon="9.44932303391397">
        <ele>41.469999999999999</ele>
        <time>2017-07-02T11:32:30Z</time>
      </trkpt>
      <trkpt lat="55.357347009703517" lon="9.447787972167134">
        <ele>37.630000000000003</ele>
        <time>2017-07-02T11:32:44Z</time>
      </trkpt>
      <trkpt lat="55.352752972394228" lon="9.446305967867374">
        <ele>31.379999999999999</ele>
        <time>2017-07-02T11:32:58Z</time>
      </trkpt>
      <trkpt lat="55.347122009843588" lon="9.444968970492482">
        <ele>26.57</ele>
        <time>2017-07-02T11:33:15Z</time>
      </trkpt>
      <trkpt lat="55.340945972129703" lon="9.444100018590689">
        <ele>31.379999999999999</ele>
        <time>2017-07-02T11:33:33Z</time>
      </trkpt>
      <trkpt lat="55.335665037855506" lon="9.443376995623112">
        <ele>39.07</ele>
        <time>2017-07-02T11:33:48Z</time>
      </trkpt>
      <trkpt lat="55.332069033756852" lon="9.442406035959721">
        <ele>41.469999999999999</ele>
        <time>2017-07-02T11:33:59Z</time>
      </trkpt>
      <trkpt lat="55.329189011827111" lon="9.441295014694333">
        <ele>43.399999999999999</ele>
        <time>2017-07-02T11:34:08Z</time>
      </trkpt>
      <trkpt lat="55.324822040274739" lon="9.438896030187607">
        <ele>44.840000000000003</ele>
        <time>2017-07-02T11:34:21Z</time>
      </trkpt>
      <trkpt lat="55.319674964994192" lon="9.435684001073241">
        <ele>44.840000000000003</ele>
        <time>2017-07-02T11:34:37Z</time>
      </trkpt>
      <trkpt lat="55.315728010609746" lon="9.433783991262317">
        <ele>44.840000000000003</ele>
        <time>2017-07-02T11:34:49Z</time>
      </trkpt>
      <trkpt lat="55.311850039288402" lon="9.43243601359427">
        <ele>46.280000000000001</ele>
        <time>2017-07-02T11:35:01Z</time>
      </trkpt>
      <trkpt lat="55.30770099721849" lon="9.431416019797325">
        <ele>50.609999999999999</ele>
        <time>2017-07-02T11:35:13Z</time>
      </trkpt>
      <trkpt lat="55.302200959995389" lon="9.430706994608045">
        <ele>54.450000000000003</ele>
        <time>2017-07-02T11:35:29Z</time>
      </trkpt>
      <trkpt lat="55.296669993549585" lon="9.430494010448456">
        <ele>58.780000000000001</ele>
        <time>2017-07-02T11:35:45Z</time>
      </trkpt>
      <trkpt lat="55.293154958635569" lon="9.430466014891863">
        <ele>59.740000000000002</ele>
        <time>2017-07-02T11:35:55Z</time>
      </trkpt>
      <trkpt lat="55.287572024390101" lon="9.430024037137628">
        <ele>60.700000000000003</ele>
        <time>2017-07-02T11:36:11Z</time>
      </trkpt>
      <trkpt lat="55.283432034775615" lon="9.429105967283249">
        <ele>54.93</ele>
        <time>2017-07-02T11:36:23Z</time>
      </trkpt>
      <trkpt lat="55.279133040457964" lon="9.427540982142091">
        <ele>48.68</ele>
        <time>2017-07-02T11:36:36Z</time>
      </trkpt>
      <trkpt lat="55.274662971496582" lon="9.425180973485112">
        <ele>42.439999999999998</ele>
        <time>2017-07-02T11:36:50Z</time>
      </trkpt>
      <trkpt lat="55.271240975707769" lon="9.422874022275209">
        <ele>37.149999999999999</ele>
        <time>2017-07-02T11:37:01Z</time>
      </trkpt>
      <trkpt lat="55.267977984622121" lon="9.420220982283354">
        <ele>33.299999999999997</ele>
        <time>2017-07-02T11:37:11Z</time>
      </trkpt>
      <trkpt lat="55.264851031824946" lon="9.417324028909206">
        <ele>29.940000000000001</ele>
        <time>2017-07-02T11:37:21Z</time>
      </trkpt>
      <trkpt lat="55.260700983926654" lon="9.413415966555476">
        <ele>28.02</ele>
        <time>2017-07-02T11:37:35Z</time>
      </trkpt>
      <trkpt lat="55.255906032398343" lon="9.409076990559697">
        <ele>28.5</ele>
        <time>2017-07-02T11:37:51Z</time>
      </trkpt>
      <trkpt lat="55.252495016902685" lon="9.40624700859189">
        <ele>28.98</ele>
        <time>2017-07-02T11:38:02Z</time>
      </trkpt>
      <trkpt lat="55.248644035309553" lon="9.403233965858817">
        <ele>28.5</ele>
        <time>2017-07-02T11:38:15Z</time>
      </trkpt>
      <trkpt lat="55.245022969320416" lon="9.400632977485657">
        <ele>27.530000000000001</ele>
        <time>2017-07-02T11:38:27Z</time>
      </trkpt>
      <trkpt lat="55.242301030084491" lon="9.398250002413988">
        <ele>30.420000000000002</ele>
        <time>2017-07-02T11:38:36Z</time>
      </trkpt>
      <trkpt lat="55.239858040586114" lon="9.395205024629831">
        <ele>30.899999999999999</ele>
        <time>2017-07-02T11:38:45Z</time>
      </trkpt>
      <trkpt lat="55.237707998603582" lon="9.391408022493124">
        <ele>27.530000000000001</ele>
        <time>2017-07-02T11:38:54Z</time>
      </trkpt>
      <trkpt lat="55.235140034928918" lon="9.386808034032583">
        <ele>24.649999999999999</ele>
        <time>2017-07-02T11:39:05Z</time>
      </trkpt>
      <trkpt lat="55.232629990205169" lon="9.383722990751267">
        <ele>26.57</ele>
        <time>2017-07-02T11:39:14Z</time>
      </trkpt>
      <trkpt lat="55.229801014065742" lon="9.381483010947704">
        <ele>30.899999999999999</ele>
        <time>2017-07-02T11:39:23Z</time>
      </trkpt>
      <trkpt lat="55.226862989366055" lon="9.380104020237923">
        <ele>37.149999999999999</ele>
        <time>2017-07-02T11:39:32Z</time>
      </trkpt>
      <trkpt lat="55.222993986681104" lon="9.378275005146861">
        <ele>45.799999999999997</ele>
        <time>2017-07-02T11:39:44Z</time>
      </trkpt>
      <trkpt lat="55.218835975974798" lon="9.375486010685563">
        <ele>50.130000000000003</ele>
        <time>2017-07-02T11:39:57Z</time>
      </trkpt>
      <trkpt lat="55.215505007654428" lon="9.373340997844935">
        <ele>52.049999999999997</ele>
        <time>2017-07-02T11:40:08Z</time>
      </trkpt>
      <trkpt lat="55.211989972740412" lon="9.372115982696414">
        <ele>48.68</ele>
        <time>2017-07-02T11:40:19Z</time>
      </trkpt>
      <trkpt lat="55.20863302052021" lon="9.371878020465374">
        <ele>44.359999999999999</ele>
        <time>2017-07-02T11:40:29Z</time>
      </trkpt>
      <trkpt lat="55.205250000581145" lon="9.372560977935791">
        <ele>42.920000000000002</ele>
        <time>2017-07-02T11:40:39Z</time>
      </trkpt>
      <trkpt lat="55.200493019074202" lon="9.373843995854259">
        <ele>38.590000000000003</ele>
        <time>2017-07-02T11:40:53Z</time>
      </trkpt>
      <trkpt lat="55.197044033557177" lon="9.373785993084312">
        <ele>40.990000000000002</ele>
        <time>2017-07-02T11:41:03Z</time>
      </trkpt>
      <trkpt lat="55.193711975589395" lon="9.372730040922761">
        <ele>48.200000000000003</ele>
        <time>2017-07-02T11:41:13Z</time>
      </trkpt>
      <trkpt lat="55.189719004556537" lon="9.370869006961584">
        <ele>57.340000000000003</ele>
        <time>2017-07-02T11:41:25Z</time>
      </trkpt>
      <trkpt lat="55.186300026252866" lon="9.370113965123892">
        <ele>62.140000000000001</ele>
        <time>2017-07-02T11:41:35Z</time>
      </trkpt>
      <trkpt lat="55.183270974084735" lon="9.370188983157277">
        <ele>61.659999999999997</ele>
        <time>2017-07-02T11:41:44Z</time>
      </trkpt>
      <trkpt lat="55.180234964936972" lon="9.371028011664748">
        <ele>57.340000000000003</ele>
        <time>2017-07-02T11:41:53Z</time>
      </trkpt>
      <trkpt lat="55.175880985334516" lon="9.37285702675581">
        <ele>50.609999999999999</ele>
        <time>2017-07-02T11:42:06Z</time>
      </trkpt>
      <trkpt lat="55.172132011502981" lon="9.373660013079643">
        <ele>45.799999999999997</ele>
        <time>2017-07-02T11:42:17Z</time>
      </trkpt>
      <trkpt lat="55.1680279802531" lon="9.373549036681652">
        <ele>46.280000000000001</ele>
        <time>2017-07-02T11:42:29Z</time>
      </trkpt>
      <trkpt lat="55.163939036428928" lon="9.372724005952478">
        <ele>48.68</ele>
        <time>2017-07-02T11:42:41Z</time>
      </trkpt>
      <trkpt lat="55.158777041360736" lon="9.371774001047015">
        <ele>47.240000000000002</ele>
        <time>2017-07-02T11:42:56Z</time>
      </trkpt>
      <trkpt lat="55.154643002897501" lon="9.371890006586909">
        <ele>44.359999999999999</ele>
        <time>2017-07-02T11:43:08Z</time>
      </trkpt>
      <trkpt lat="55.150607032701373" lon="9.372791983187199">
        <ele>42.920000000000002</ele>
        <time>2017-07-02T11:43:20Z</time>
      </trkpt>
      <trkpt lat="55.144429989159107" lon="9.37451396137476">
        <ele>41.469999999999999</ele>
        <time>2017-07-02T11:43:38Z</time>
      </trkpt>
      <trkpt lat="55.139328008517623" lon="9.375377967953682">
        <ele>42.920000000000002</ele>
        <time>2017-07-02T11:43:53Z</time>
      </trkpt>
      <trkpt lat="55.135151976719499" lon="9.375568991526961">
        <ele>44.840000000000003</ele>
        <time>2017-07-02T11:44:05Z</time>
      </trkpt>
      <trkpt lat="55.130411004647613" lon="9.375278977677226">
        <ele>44.359999999999999</ele>
        <time>2017-07-02T11:44:19Z</time>
      </trkpt>
      <trkpt lat="55.12529100291431" lon="9.374396027997136">
        <ele>44.840000000000003</ele>
        <time>2017-07-02T11:44:34Z</time>
      </trkpt>
      <trkpt lat="55.121852997690439" lon="9.373378967866302">
        <ele>45.799999999999997</ele>
        <time>2017-07-02T11:44:44Z</time>
      </trkpt>
      <trkpt lat="55.117390975356102" lon="9.371718009933829">
        <ele>44.840000000000003</ele>
        <time>2017-07-02T11:44:57Z</time>
      </trkpt>
      <trkpt lat="55.112565010786057" lon="9.369363030418754">
        <ele>43.399999999999999</ele>
        <time>2017-07-02T11:45:11Z</time>
      </trkpt>
      <trkpt lat="55.108505990356207" lon="9.367499984800816">
        <ele>40.509999999999998</ele>
        <time>2017-07-02T11:45:23Z</time>
      </trkpt>
      <trkpt lat="55.107062039896846" lon="9.367094971239567">
        <ele>39.07</ele>
        <time>2017-07-02T11:45:29Z</time>
      </trkpt>
      <trkpt lat="55.105021968483925" lon="9.366808980703354">
        <ele>37.630000000000003</ele>
        <time>2017-07-02T11:45:37Z</time>
      </trkpt>
      <trkpt lat="55.102316038683057" lon="9.366811998188496">
        <ele>37.149999999999999</ele>
        <time>2017-07-02T11:45:46Z</time>
      </trkpt>
      <trkpt lat="55.099099986255169" lon="9.36740200035274">
        <ele>36.670000000000002</ele>
        <time>2017-07-02T11:45:56Z</time>
      </trkpt>
      <trkpt lat="55.094506032764912" lon="9.368822984397411">
        <ele>37.149999999999999</ele>
        <time>2017-07-02T11:46:09Z</time>
      </trkpt>
      <trkpt lat="55.089073972776532" lon="9.371130019426346">
        <ele>39.07</ele>
        <time>2017-07-02T11:46:25Z</time>
      </trkpt>
      <trkpt lat="55.085321981459856" lon="9.372422005981207">
        <ele>40.509999999999998</ele>
        <time>2017-07-02T11:46:36Z</time>
      </trkpt>
      <trkpt lat="55.081876013427973" lon="9.372520996257663">
        <ele>40.990000000000002</ele>
        <time>2017-07-02T11:46:46Z</time>
      </trkpt>
      <trkpt lat="55.07916203700006" lon="9.371636034920812">
        <ele>40.990000000000002</ele>
        <time>2017-07-02T11:46:54Z</time>
      </trkpt>
      <trkpt lat="55.074922973290086" lon="9.369293041527271">
        <ele>40.509999999999998</ele>
        <time>2017-07-02T11:47:07Z</time>
      </trkpt>
      <trkpt lat="55.071549005806446" lon="9.366704961284995">
        <ele>40.990000000000002</ele>
        <time>2017-07-02T11:47:18Z</time>
      </trkpt>
      <trkpt lat="55.066641988232732" lon="9.362801006063819">
        <ele>39.549999999999997</ele>
        <time>2017-07-02T11:47:34Z</time>
      </trkpt>
      <trkpt lat="55.062328996136785" lon="9.359361995011568">
        <ele>40.030000000000001</ele>
        <time>2017-07-02T11:47:48Z</time>
      </trkpt>
      <trkpt lat="55.058970032259822" lon="9.356733011081815">
        <ele>40.509999999999998</ele>
        <time>2017-07-02T11:47:59Z</time>
      </trkpt>
      <trkpt lat="55.056134015321732" lon="9.354710038751364">
        <ele>41.950000000000003</ele>
        <time>2017-07-02T11:48:08Z</time>
      </trkpt>
      <trkpt lat="55.053136982023716" lon="9.353274973109365">
        <ele>43.399999999999999</ele>
        <time>2017-07-02T11:48:17Z</time>
      </trkpt>
      <trkpt lat="55.049695959314704" lon="9.352348018437624">
        <ele>44.359999999999999</ele>
        <time>2017-07-02T11:48:27Z</time>
      </trkpt>
      <trkpt lat="55.045943967998028" lon="9.352161018177867">
        <ele>46.280000000000001</ele>
        <time>2017-07-02T11:48:38Z</time>
      </trkpt>
      <trkpt lat="55.042168004438281" lon="9.352658987045288">
        <ele>47.719999999999999</ele>
        <time>2017-07-02T11:48:49Z</time>
      </trkpt>
      <trkpt lat="55.038107978180051" lon="9.353674035519362">
        <ele>49.649999999999999</ele>
        <time>2017-07-02T11:49:01Z</time>
      </trkpt>
      <trkpt lat="55.032875994220376" lon="9.355836985632777">
        <ele>53.969999999999999</ele>
        <time>2017-07-02T11:49:17Z</time>
      </trkpt>
      <trkpt lat="55.02869501709938" lon="9.358162963762879">
        <ele>56.369999999999997</ele>
        <time>2017-07-02T11:49:30Z</time>
      </trkpt>
      <trkpt lat="55.024192007258534" lon="9.360143020749092">
        <ele>59.259999999999998</ele>
        <time>2017-07-02T11:49:44Z</time>
      </trkpt>
      <trkpt lat="55.020575970411301" lon="9.360803011804819">
        <ele>59.740000000000002</ele>
        <time>2017-07-02T11:49:55Z</time>
      </trkpt>
      <trkpt lat="55.01623397693038" lon="9.36059296131134">
        <ele>59.259999999999998</ele>
        <time>2017-07-02T11:50:08Z</time>
      </trkpt>
      <trkpt lat="55.012588016688824" lon="9.360706033185124">
        <ele>57.82</ele>
        <time>2017-07-02T11:50:19Z</time>
      </trkpt>
      <trkpt lat="55.009598024189472" lon="9.361742958426476">
        <ele>55.890000000000001</ele>
        <time>2017-07-02T11:50:28Z</time>
      </trkpt>
      <trkpt lat="55.006960993632674" lon="9.363480024039745">
        <ele>52.530000000000001</ele>
        <time>2017-07-02T11:50:36Z</time>
      </trkpt>
      <trkpt lat="55.001742001622915" lon="9.367415998131037">
        <ele>42.920000000000002</ele>
        <time>2017-07-02T11:50:52Z</time>
      </trkpt>
      <trkpt lat="54.997188029810786" lon="9.370787031948566">
        <ele>36.670000000000002</ele>
        <time>2017-07-02T11:51:06Z</time>
      </trkpt>
      <trkpt lat="54.991711964830756" lon="9.374859966337681">
        <ele>33.299999999999997</ele>
        <time>2017-07-02T11:51:23Z</time>
      </trkpt>
      <trkpt lat="54.989189011976123" lon="9.376539029181004">
        <ele>32.82</ele>
        <time>2017-07-02T11:51:31Z</time>
      </trkpt>
      <trkpt lat="54.98460503295064" lon="9.378900965675712">
        <ele>32.82</ele>
        <time>2017-07-02T11:51:44Z</time>
      </trkpt>
      <trkpt lat="54.979989035055041" lon="9.380518002435565">
        <ele>34.259999999999998</ele>
        <time>2017-07-02T11:51:57Z</time>
      </trkpt>
      <trkpt lat="54.975780984386802" lon="9.381357030943036">
        <ele>34.259999999999998</ele>
        <time>2017-07-02T11:52:09Z</time>
      </trkpt>
      <trkpt lat="54.97081303037703" lon="9.381671017035842">
        <ele>34.740000000000002</ele>
        <time>2017-07-02T11:52:23Z</time>
      </trkpt>
      <trkpt lat="54.966574972495437" lon="9.382064966484904">
        <ele>35.229999999999997</ele>
        <time>2017-07-02T11:52:35Z</time>
      </trkpt>
      <trkpt lat="54.962429031729698" lon="9.383229967206717">
        <ele>34.259999999999998</ele>
        <time>2017-07-02T11:52:47Z</time>
      </trkpt>
      <trkpt lat="54.957932978868484" lon="9.384537041187286">
        <ele>33.299999999999997</ele>
        <time>2017-07-02T11:53:00Z</time>
      </trkpt>
      <trkpt lat="54.953092010691762" lon="9.384885979816318">
        <ele>30.899999999999999</ele>
        <time>2017-07-02T11:53:14Z</time>
      </trkpt>
      <trkpt lat="54.948864011093974" lon="9.384308969601989">
        <ele>28.98</ele>
        <time>2017-07-02T11:53:26Z</time>
      </trkpt>
      <trkpt lat="54.945577969774604" lon="9.383646966889501">
        <ele>28.5</ele>
        <time>2017-07-02T11:53:36Z</time>
      </trkpt>
      <trkpt lat="54.941626992076635" lon="9.383202977478504">
        <ele>27.530000000000001</ele>
        <time>2017-07-02T11:53:50Z</time>
      </trkpt>
      <trkpt lat="54.938194015994668" lon="9.383243964985013">
        <ele>28.02</ele>
        <time>2017-07-02T11:54:02Z</time>
      </trkpt>
      <trkpt lat="54.933784967288375" lon="9.383400036022067">
        <ele>27.530000000000001</ele>
        <time>2017-07-02T11:54:17Z</time>
      </trkpt>
      <trkpt lat="54.929851004853845" lon="9.383429037407041">
        <ele>26.57</ele>
        <time>2017-07-02T11:54:31Z</time>
      </trkpt>
      <trkpt lat="54.926396990194917" lon="9.383335998281837">
        <ele>26.57</ele>
        <time>2017-07-02T11:54:43Z</time>
      </trkpt>
      <trkpt lat="54.923059986904263" lon="9.383125025779009">
        <ele>26.57</ele>
        <time>2017-07-02T11:54:54Z</time>
      </trkpt>
      <trkpt lat="54.919224008917809" lon="9.382651029154658">
        <ele>25.609999999999999</ele>
        <time>2017-07-02T11:55:07Z</time>
      </trkpt>
      <trkpt lat="54.914335012435913" lon="9.381775036454201">
        <ele>25.129999999999999</ele>
        <time>2017-07-02T11:55:22Z</time>
      </trkpt>
      <trkpt lat="54.909717002883554" lon="9.380413983017206">
        <ele>25.609999999999999</ele>
        <time>2017-07-02T11:55:36Z</time>
      </trkpt>
      <trkpt lat="54.904023008421063" lon="9.378126980736852">
        <ele>24.649999999999999</ele>
        <time>2017-07-02T11:55:54Z</time>
      </trkpt>
      <trkpt lat="54.90006297826767" lon="9.377175970003009">
        <ele>25.609999999999999</ele>
        <time>2017-07-02T11:56:06Z</time>
      </trkpt>
      <trkpt lat="54.896015021950006" lon="9.377011014148593">
        <ele>25.609999999999999</ele>
        <time>2017-07-02T11:56:18Z</time>
      </trkpt>
      <trkpt lat="54.891349989920855" lon="9.377544019371271">
        <ele>24.649999999999999</ele>
        <time>2017-07-02T11:56:32Z</time>
      </trkpt>
      <trkpt lat="54.884926015511155" lon="9.378367038443685">
        <ele>23.690000000000001</ele>
        <time>2017-07-02T11:56:51Z</time>
      </trkpt>
      <trkpt lat="54.880881998687983" lon="9.378310963511467">
        <ele>23.210000000000001</ele>
        <time>2017-07-02T11:57:03Z</time>
      </trkpt>
      <trkpt lat="54.876534976065159" lon="9.377701012417674">
        <ele>23.210000000000001</ele>
        <time>2017-07-02T11:57:16Z</time>
      </trkpt>
      <trkpt lat="54.872320974245667" lon="9.375999988988042">
        <ele>24.170000000000002</ele>
        <time>2017-07-02T11:57:29Z</time>
      </trkpt>
      <trkpt lat="54.868855979293585" lon="9.373609973117709">
        <ele>24.170000000000002</ele>
        <time>2017-07-02T11:57:40Z</time>
      </trkpt>
      <trkpt lat="54.865575972944498" lon="9.370414037257433">
        <ele>25.609999999999999</ele>
        <time>2017-07-02T11:57:51Z</time>
      </trkpt>
      <trkpt lat="54.860536018386483" lon="9.364627003669739">
        <ele>26.09</ele>
        <time>2017-07-02T11:58:09Z</time>
      </trkpt>
      <trkpt lat="54.856754019856453" lon="9.360361034050584">
        <ele>27.050000000000001</ele>
        <time>2017-07-02T11:58:23Z</time>
      </trkpt>
      <trkpt lat="54.854354029521346" lon="9.357620989903808">
        <ele>27.530000000000001</ele>
        <time>2017-07-02T11:58:32Z</time>
      </trkpt>
      <trkpt lat="54.849802991375327" lon="9.352381965145469">
        <ele>28.98</ele>
        <time>2017-07-02T11:58:48Z</time>
      </trkpt>
      <trkpt lat="54.845483964309096" lon="9.347530016675592">
        <ele>36.670000000000002</ele>
        <time>2017-07-02T11:59:04Z</time>
      </trkpt>
      <trkpt lat="54.84123500995338" lon="9.34323001652956">
        <ele>40.509999999999998</ele>
        <time>2017-07-02T11:59:19Z</time>
      </trkpt>
      <trkpt lat="54.838450038805604" lon="9.340607989579439">
        <ele>36.670000000000002</ele>
        <time>2017-07-02T11:59:29Z</time>
      </trkpt>
      <trkpt lat="54.834906002506614" lon="9.337414987385273">
        <ele>32.340000000000003</ele>
        <time>2017-07-02T11:59:43Z</time>
      </trkpt>
      <trkpt lat="54.831072958186269" lon="9.333230992779136">
        <ele>31.859999999999999</ele>
        <time>2017-07-02T11:59:59Z</time>
      </trkpt>
      <trkpt lat="54.827022990211844" lon="9.328240994364023">
        <ele>32.340000000000003</ele>
        <time>2017-07-02T12:00:16Z</time>
      </trkpt>
      <trkpt lat="54.824883006513119" lon="9.326478028669953">
        <ele>31.379999999999999</ele>
        <time>2017-07-02T12:00:24Z</time>
      </trkpt>
      <trkpt lat="54.822376985102892" lon="9.324978003278375">
        <ele>29.940000000000001</ele>
        <time>2017-07-02T12:00:33Z</time>
      </trkpt>
      <trkpt lat="54.819468967616558" lon="9.324147021397948">
        <ele>31.859999999999999</ele>
        <time>2017-07-02T12:00:43Z</time>
      </trkpt>
      <trkpt lat="54.816173035651445" lon="9.324097987264395">
        <ele>30.420000000000002</ele>
        <time>2017-07-02T12:00:54Z</time>
      </trkpt>
      <trkpt lat="54.81266101822257" lon="9.324826039373875">
        <ele>28.98</ele>
        <time>2017-07-02T12:01:06Z</time>
      </trkpt>
      <trkpt lat="54.810721026733518" lon="9.325611004605889">
        <ele>27.050000000000001</ele>
        <time>2017-07-02T12:01:15Z</time>
      </trkpt>
      <trkpt lat="54.808637034147978" lon="9.32666796259582">
        <ele>26.09</ele>
        <time>2017-07-02T12:01:27Z</time>
      </trkpt>
      <trkpt lat="54.805543022230268" lon="9.32823303155601">
        <ele>25.609999999999999</ele>
        <time>2017-07-02T12:01:46Z</time>
      </trkpt>
      <trkpt lat="54.803360039368272" lon="9.329346986487508">
        <ele>24.170000000000002</ele>
        <time>2017-07-02T12:01:59Z</time>
      </trkpt>
      <trkpt lat="54.80067003518343" lon="9.330734023824334">
        <ele>23.210000000000001</ele>
        <time>2017-07-02T12:02:12Z</time>
      </trkpt>
      <trkpt lat="54.798145992681384" lon="9.332010000944138">
        <ele>21.289999999999999</ele>
        <time>2017-07-02T12:02:22Z</time>
      </trkpt>
      <trkpt lat="54.795205034315586" lon="9.333512037992477">
        <ele>18.399999999999999</ele>
        <time>2017-07-02T12:02:32Z</time>
      </trkpt>
      <trkpt lat="54.790829010307789" lon="9.335716981440783">
        <ele>18.399999999999999</ele>
        <time>2017-07-02T12:02:46Z</time>
      </trkpt>
      <trkpt lat="54.784867968410254" lon="9.338775034993887">
        <ele>24.170000000000002</ele>
        <time>2017-07-02T12:03:05Z</time>
      </trkpt>
      <trkpt lat="54.778872979804873" lon="9.342063004150987">
        <ele>31.379999999999999</ele>
        <time>2017-07-02T12:03:24Z</time>
      </trkpt>
      <trkpt lat="54.773722970858216" lon="9.345506960526109">
        <ele>38.590000000000003</ele>
        <time>2017-07-02T12:03:40Z</time>
      </trkpt>
      <trkpt lat="54.770000986754894" lon="9.348651012405753">
        <ele>44.359999999999999</ele>
        <time>2017-07-02T12:03:52Z</time>
      </trkpt>
      <trkpt lat="54.766734978184104" lon="9.352140985429287">
        <ele>47.240000000000002</ele>
        <time>2017-07-02T12:04:03Z</time>
      </trkpt>
      <trkpt lat="54.765240987762809" lon="9.354028003290296">
        <ele>47.240000000000002</ele>
        <time>2017-07-02T12:04:09Z</time>
      </trkpt>
      <trkpt lat="54.763150960206985" lon="9.357056971639395">
        <ele>45.799999999999997</ele>
        <time>2017-07-02T12:04:20Z</time>
      </trkpt>
      <trkpt lat="54.760938975960016" lon="9.360618023201823">
        <ele>42.920000000000002</ele>
        <time>2017-07-02T12:04:33Z</time>
      </trkpt>
      <trkpt lat="54.757893998175859" lon="9.365487992763519">
        <ele>39.549999999999997</ele>
        <time>2017-07-02T12:04:50Z</time>
      </trkpt>
      <trkpt lat="54.756167996674776" lon="9.367983033880591">
        <ele>38.109999999999999</ele>
        <time>2017-07-02T12:04:57Z</time>
      </trkpt>
      <trkpt lat="54.753213040530682" lon="9.371589012444019">
        <ele>36.189999999999998</ele>
        <time>2017-07-02T12:05:07Z</time>
      </trkpt>
      <trkpt lat="54.749776041135192" lon="9.374892991036177">
        <ele>36.189999999999998</ele>
        <time>2017-07-02T12:05:18Z</time>
      </trkpt>
      <trkpt lat="54.743558010086417" lon="9.3803780246526">
        <ele>43.399999999999999</ele>
        <time>2017-07-02T12:05:38Z</time>
      </trkpt>
      <trkpt lat="54.738303981721401" lon="9.385071974247694">
        <ele>42.439999999999998</ele>
        <time>2017-07-02T12:05:55Z</time>
      </trkpt>
      <trkpt lat="54.732681987807155" lon="9.389993995428085">
        <ele>32.82</ele>
        <time>2017-07-02T12:06:13Z</time>
      </trkpt>
      <trkpt lat="54.726584991440177" lon="9.395078960806131">
        <ele>32.340000000000003</ele>
        <time>2017-07-02T12:06:32Z</time>
      </trkpt>
      <trkpt lat="54.72287499345839" lon="9.397295974195004">
        <ele>31.859999999999999</ele>
        <time>2017-07-02T12:06:43Z</time>
      </trkpt>
      <trkpt lat="54.718965003266931" lon="9.398913010954857">
        <ele>31.379999999999999</ele>
        <time>2017-07-02T12:06:54Z</time>
      </trkpt>
      <trkpt lat="54.714660979807377" lon="9.399839965626597">
        <ele>29.460000000000001</ele>
        <time>2017-07-02T12:07:06Z</time>
      </trkpt>
      <trkpt lat="54.708574963733554" lon="9.400779996067286">
        <ele>28.02</ele>
        <time>2017-07-02T12:07:23Z</time>
      </trkpt>
      <trkpt lat="54.703951003029943" lon="9.402149012312293">
        <ele>27.050000000000001</ele>
        <time>2017-07-02T12:07:36Z</time>
      </trkpt>
      <trkpt lat="54.699511025100946" lon="9.404193023219705">
        <ele>26.09</ele>
        <time>2017-07-02T12:07:49Z</time>
      </trkpt>
      <trkpt lat="54.694898966699839" lon="9.407057035714388">
        <ele>24.649999999999999</ele>
        <time>2017-07-02T12:08:03Z</time>
      </trkpt>
      <trkpt lat="54.690554039552808" lon="9.410370988771319">
        <ele>23.690000000000001</ele>
        <time>2017-07-02T12:08:17Z</time>
      </trkpt>
      <trkpt lat="54.686502981930971" lon="9.413698017597199">
        <ele>22.25</ele>
        <time>2017-07-02T12:08:30Z</time>
      </trkpt>
      <trkpt lat="54.680524002760649" lon="9.418840985745192">
        <ele>21.77</ele>
        <time>2017-07-02T12:08:49Z</time>
      </trkpt>
      <trkpt lat="54.676502030342817" lon="9.422202967107296">
        <ele>21.77</ele>
        <time>2017-07-02T12:09:02Z</time>
      </trkpt>
      <trkpt lat="54.671680005267262" lon="9.425808023661375">
        <ele>25.609999999999999</ele>
        <time>2017-07-02T12:09:17Z</time>
      </trkpt>
      <trkpt lat="54.666124982759356" lon="9.429262038320303">
        <ele>36.189999999999998</ele>
        <time>2017-07-02T12:09:34Z</time>
      </trkpt>
      <trkpt lat="54.660568032413721" lon="9.432027982547879">
        <ele>41.469999999999999</ele>
        <time>2017-07-02T12:09:51Z</time>
      </trkpt>
      <trkpt lat="54.655780037865043" lon="9.43394098430872">
        <ele>36.670000000000002</ele>
        <time>2017-07-02T12:10:05Z</time>
      </trkpt>
      <trkpt lat="54.653239985927939" lon="9.434761991724372">
        <ele>31.379999999999999</ele>
        <time>2017-07-02T12:10:13Z</time>
      </trkpt>
      <trkpt lat="54.64926696382463" lon="9.435934033244848">
        <ele>24.649999999999999</ele>
        <time>2017-07-02T12:10:25Z</time>
      </trkpt>
      <trkpt lat="54.643694004043937" lon="9.437300032004714">
        <ele>16.960000000000001</ele>
        <time>2017-07-02T12:10:40Z</time>
      </trkpt>
      <trkpt lat="54.636425971984863" lon="9.438854036852717">
        <ele>12.15</ele>
        <time>2017-07-02T12:11:00Z</time>
      </trkpt>
      <trkpt lat="54.628960965201259" lon="9.440425978973508">
        <ele>11.19</ele>
        <time>2017-07-02T12:11:21Z</time>
      </trkpt>
      <trkpt lat="54.624811001121998" lon="9.44124598056078">
        <ele>10.23</ele>
        <time>2017-07-02T12:11:33Z</time>
      </trkpt>
      <trkpt lat="54.618513006716967" lon="9.442594964057207">
        <ele>8.310000000000001</ele>
        <time>2017-07-02T12:11:51Z</time>
      </trkpt>
      <trkpt lat="54.613643959164619" lon="9.44425399415195">
        <ele>8.789999999999999</ele>
        <time>2017-07-02T12:12:05Z</time>
      </trkpt>
      <trkpt lat="54.609343037009239" lon="9.446499003097415">
        <ele>8.789999999999999</ele>
        <time>2017-07-02T12:12:18Z</time>
      </trkpt>
      <trkpt lat="54.605462970212102" lon="9.449161011725664">
        <ele>8.310000000000001</ele>
        <time>2017-07-02T12:12:30Z</time>
      </trkpt>
      <trkpt lat="54.600757034495473" lon="9.452888024970889">
        <ele>8.789999999999999</ele>
        <time>2017-07-02T12:12:45Z</time>
      </trkpt>
      <trkpt lat="54.593628980219364" lon="9.458916960284114">
        <ele>9.75</ele>
        <time>2017-07-02T12:13:08Z</time>
      </trkpt>
      <trkpt lat="54.590212013572454" lon="9.46159003302455">
        <ele>9.75</ele>
        <time>2017-07-02T12:13:20Z</time>
      </trkpt>
      <trkpt lat="54.586453987285495" lon="9.464206025004387">
        <ele>10.710000000000001</ele>
        <time>2017-07-02T12:13:32Z</time>
      </trkpt>
      <trkpt lat="54.583021011203527" lon="9.46614601649344">
        <ele>11.67</ele>
        <time>2017-07-02T12:13:42Z</time>
      </trkpt>
      <trkpt lat="54.578457986935973" lon="9.467971008270979">
        <ele>12.15</ele>
        <time>2017-07-02T12:13:55Z</time>
      </trkpt>
      <trkpt lat="54.573883982375264" lon="9.468977004289627">
        <ele>13.119999999999999</ele>
        <time>2017-07-02T12:14:08Z</time>
      </trkpt>
      <trkpt lat="54.569386001676321" lon="9.469131985679269">
        <ele>12.630000000000001</ele>
        <time>2017-07-02T12:14:21Z</time>
      </trkpt>
      <trkpt lat="54.564134990796447" lon="9.46857400238514">
        <ele>13.119999999999999</ele>
        <time>2017-07-02T12:14:36Z</time>
      </trkpt>
      <trkpt lat="54.558243015781045" lon="9.467550991103053">
        <ele>12.630000000000001</ele>
        <time>2017-07-02T12:14:53Z</time>
      </trkpt>
      <trkpt lat="54.553062999621034" lon="9.467066014185548">
        <ele>10.23</ele>
        <time>2017-07-02T12:15:08Z</time>
      </trkpt>
      <trkpt lat="54.548469968140125" lon="9.467526013031602">
        <ele>9.75</ele>
        <time>2017-07-02T12:15:21Z</time>
      </trkpt>
      <trkpt lat="54.544627033174038" lon="9.46872596628964">
        <ele>10.710000000000001</ele>
        <time>2017-07-02T12:15:32Z</time>
      </trkpt>
      <trkpt lat="54.540591984987259" lon="9.470820017158985">
        <ele>11.67</ele>
        <time>2017-07-02T12:15:44Z</time>
      </trkpt>
      <trkpt lat="54.537068987265229" lon="9.473337018862367">
        <ele>11.19</ele>
        <time>2017-07-02T12:15:55Z</time>
      </trkpt>
      <trkpt lat="54.533990984782577" lon="9.476256016641855">
        <ele>11.67</ele>
        <time>2017-07-02T12:16:05Z</time>
      </trkpt>
      <trkpt lat="54.530822960659862" lon="9.479996021836996">
        <ele>12.15</ele>
        <time>2017-07-02T12:16:16Z</time>
      </trkpt>
      <trkpt lat="54.528854973614216" lon="9.482600027695298">
        <ele>12.630000000000001</ele>
        <time>2017-07-02T12:16:24Z</time>
      </trkpt>
      <trkpt lat="54.52641298994422" lon="9.485724968835712">
        <ele>15.039999999999999</ele>
        <time>2017-07-02T12:16:36Z</time>
      </trkpt>
      <trkpt lat="54.523582002148032" lon="9.488846976310015">
        <ele>18.879999999999999</ele>
        <time>2017-07-02T12:16:50Z</time>
      </trkpt>
      <trkpt lat="54.520593015477061" lon="9.491507979109883">
        <ele>21.289999999999999</ele>
        <time>2017-07-02T12:17:04Z</time>
      </trkpt>
      <trkpt lat="54.51678897254169" lon="9.494265038520098">
        <ele>26.57</ele>
        <time>2017-07-02T12:17:21Z</time>
      </trkpt>
      <trkpt lat="54.513493040576577" lon="9.496628986671567">
        <ele>28.98</ele>
        <time>2017-07-02T12:17:34Z</time>
      </trkpt>
      <trkpt lat="54.510346977040172" lon="9.499059990048409">
        <ele>27.050000000000001</ele>
        <time>2017-07-02T12:17:46Z</time>
      </trkpt>
      <trkpt lat="54.508401034399867" lon="9.500799989327788">
        <ele>25.129999999999999</ele>
        <time>2017-07-02T12:17:55Z</time>
      </trkpt>
      <trkpt lat="54.505688985809684" lon="9.503657966852188">
        <ele>21.77</ele>
        <time>2017-07-02T12:18:09Z</time>
      </trkpt>
      <trkpt lat="54.503162009641528" lon="9.506743010133505">
        <ele>18.399999999999999</ele>
        <time>2017-07-02T12:18:22Z</time>
      </trkpt>
      <trkpt lat="54.501366019248962" lon="9.509212989360094">
        <ele>16.48</ele>
        <time>2017-07-02T12:18:31Z</time>
      </trkpt>
      <trkpt lat="54.498465964570642" lon="9.513611979782581">
        <ele>16.960000000000001</ele>
        <time>2017-07-02T12:18:46Z</time>
      </trkpt>
      <trkpt lat="54.496094975620508" lon="9.517321977764368">
        <ele>21.289999999999999</ele>
        <time>2017-07-02T12:18:58Z</time>
      </trkpt>
      <trkpt lat="54.493851978331804" lon="9.5205910038203">
        <ele>27.050000000000001</ele>
        <time>2017-07-02T12:19:10Z</time>
      </trkpt>
      <trkpt lat="54.491228023543954" lon="9.523939993232489">
        <ele>30.899999999999999</ele>
        <time>2017-07-02T12:19:23Z</time>
      </trkpt>
      <trkpt lat="54.488153038546443" lon="9.527408005669713">
        <ele>31.859999999999999</ele>
        <time>2017-07-02T12:19:36Z</time>
      </trkpt>
      <trkpt lat="54.484035009518266" lon="9.532018974423409">
        <ele>27.530000000000001</ele>
        <time>2017-07-02T12:19:53Z</time>
      </trkpt>
      <trkpt lat="54.481686986982822" lon="9.535031011328101">
        <ele>23.210000000000001</ele>
        <time>2017-07-02T12:20:02Z</time>
      </trkpt>
      <trkpt lat="54.478468000888824" lon="9.539834009483457">
        <ele>16.48</ele>
        <time>2017-07-02T12:20:14Z</time>
      </trkpt>
      <trkpt lat="54.475296959280968" lon="9.545607967302203">
        <ele>12.15</ele>
        <time>2017-07-02T12:20:27Z</time>
      </trkpt>
      <trkpt lat="54.472302021458745" lon="9.552075024694204">
        <ele>9.75</ele>
        <time>2017-07-02T12:20:41Z</time>
      </trkpt>
      <trkpt lat="54.467896996065974" lon="9.561795014888048">
        <ele>10.23</ele>
        <time>2017-07-02T12:21:02Z</time>
      </trkpt>
      <trkpt lat="54.46483701467514" lon="9.567434024065733">
        <ele>13.6</ele>
        <time>2017-07-02T12:21:15Z</time>
      </trkpt>
      <trkpt lat="54.461268000304699" lon="9.572959039360285">
        <ele>16.48</ele>
        <time>2017-07-02T12:21:29Z</time>
      </trkpt>
      <trkpt lat="54.457894032821059" lon="9.577163988724351">
        <ele>19.84</ele>
        <time>2017-07-02T12:21:41Z</time>
      </trkpt>
      <trkpt lat="54.453838029876351" lon="9.581399029120803">
        <ele>21.77</ele>
        <time>2017-07-02T12:21:55Z</time>
      </trkpt>
      <trkpt lat="54.449256984516978" lon="9.585197037085891">
        <ele>23.210000000000001</ele>
        <time>2017-07-02T12:22:10Z</time>
      </trkpt>
      <trkpt lat="54.445093022659421" lon="9.587930040434003">
        <ele>20.32</ele>
        <time>2017-07-02T12:22:23Z</time>
      </trkpt>
      <trkpt lat="54.440679028630257" lon="9.59052599966526">
        <ele>16</ele>
        <time>2017-07-02T12:22:37Z</time>
      </trkpt>
      <trkpt lat="54.435169016942382" lon="9.59381396882236">
        <ele>12.15</ele>
        <time>2017-07-02T12:22:54Z</time>
      </trkpt>
      <trkpt lat="54.428965989500284" lon="9.597540982067585">
        <ele>9.75</ele>
        <time>2017-07-02T12:23:13Z</time>
      </trkpt>
      <trkpt lat="54.424576973542571" lon="9.600704982876778">
        <ele>10.23</ele>
        <time>2017-07-02T12:23:27Z</time>
      </trkpt>
      <trkpt lat="54.421367039903998" lon="9.603831013664603">
        <ele>10.23</ele>
        <time>2017-07-02T12:23:38Z</time>
      </trkpt>
      <trkpt lat="54.417835995554924" lon="9.608259005472064">
        <ele>10.710000000000001</ele>
        <time>2017-07-02T12:23:51Z</time>
      </trkpt>
      <trkpt lat="54.414479965344071" lon="9.613645970821381">
        <ele>11.19</ele>
        <time>2017-07-02T12:24:04Z</time>
      </trkpt>
      <trkpt lat="54.410710036754608" lon="9.620727002620697">
        <ele>10.710000000000001</ele>
        <time>2017-07-02T12:24:20Z</time>
      </trkpt>
      <trkpt lat="54.408218013122678" lon="9.625753965228796">
        <ele>9.75</ele>
        <time>2017-07-02T12:24:31Z</time>
      </trkpt>
      <trkpt lat="54.405024005100131" lon="9.632118009030819">
        <ele>10.23</ele>
        <time>2017-07-02T12:24:45Z</time>
      </trkpt>
      <trkpt lat="54.401145027950406" lon="9.639139026403427">
        <ele>11.19</ele>
        <time>2017-07-02T12:25:01Z</time>
      </trkpt>
      <trkpt lat="54.39799603074789" lon="9.643743960186839">
        <ele>11.19</ele>
        <time>2017-07-02T12:25:13Z</time>
      </trkpt>
      <trkpt lat="54.39458099193871" lon="9.647731985896826">
        <ele>12.630000000000001</ele>
        <time>2017-07-02T12:25:25Z</time>
      </trkpt>
      <trkpt lat="54.390944000333548" lon="9.651076029986143">
        <ele>12.630000000000001</ele>
        <time>2017-07-02T12:25:37Z</time>
      </trkpt>
      <trkpt lat="54.385820981115103" lon="9.654670022428036">
        <ele>12.15</ele>
        <time>2017-07-02T12:25:53Z</time>
      </trkpt>
      <trkpt lat="54.379329029470682" lon="9.658561991527677">
        <ele>10.710000000000001</ele>
        <time>2017-07-02T12:26:13Z</time>
      </trkpt>
      <trkpt lat="54.374311035498977" lon="9.661786006763578">
        <ele>10.23</ele>
        <time>2017-07-02T12:26:29Z</time>
      </trkpt>
      <trkpt lat="54.370101979002357" lon="9.665274973958731">
        <ele>10.23</ele>
        <time>2017-07-02T12:26:43Z</time>
      </trkpt>
      <trkpt lat="54.366031978279352" lon="9.669518982991576">
        <ele>9.75</ele>
        <time>2017-07-02T12:26:57Z</time>
      </trkpt>
      <trkpt lat="54.362073037773371" lon="9.674557009711862">
        <ele>8.310000000000001</ele>
        <time>2017-07-02T12:27:11Z</time>
      </trkpt>
      <trkpt lat="54.358326997607946" lon="9.680090993642807">
        <ele>7.35</ele>
        <time>2017-07-02T12:27:25Z</time>
      </trkpt>
      <trkpt lat="54.355083033442497" lon="9.685377040877938">
        <ele>4.46</ele>
        <time>2017-07-02T12:27:38Z</time>
      </trkpt>
      <trkpt lat="54.353077998384833" lon="9.688827032223344">
        <ele>4.94</ele>
        <time>2017-07-02T12:27:47Z</time>
      </trkpt>
      <trkpt lat="54.348970027640462" lon="9.69638398848474">
        <ele>5.91</ele>
        <time>2017-07-02T12:28:07Z</time>
      </trkpt>
      <trkpt lat="54.34611196629703" lon="9.701755028218031">
        <ele>7.35</ele>
        <time>2017-07-02T12:28:21Z</time>
      </trkpt>
      <trkpt lat="54.344452014192939" lon="9.704861026257277">
        <ele>8.310000000000001</ele>
        <time>2017-07-02T12:28:30Z</time>
      </trkpt>
      <trkpt lat="54.342100974172354" lon="9.709189021959901">
        <ele>10.23</ele>
        <time>2017-07-02T12:28:45Z</time>
      </trkpt>
      <trkpt lat="54.339743983000517" lon="9.713492039591074">
        <ele>16.48</ele>
        <time>2017-07-02T12:29:00Z</time>
      </trkpt>
      <trkpt lat="54.338192995637655" lon="9.716142984107137">
        <ele>20.809999999999999</ele>
        <time>2017-07-02T12:29:12Z</time>
      </trkpt>
      <trkpt lat="54.336002971976995" lon="9.719719039276242">
        <ele>28.5</ele>
        <time>2017-07-02T12:29:28Z</time>
      </trkpt>
      <trkpt lat="54.334622975438833" lon="9.721867991611362">
        <ele>34.259999999999998</ele>
        <time>2017-07-02T12:29:40Z</time>
      </trkpt>
      <trkpt lat="54.332850035279989" lon="9.724538968876004">
        <ele>40.509999999999998</ele>
        <time>2017-07-02T12:29:55Z</time>
      </trkpt>
      <trkpt lat="54.331035017967224" lon="9.727170970290899">
        <ele>42.439999999999998</ele>
        <time>2017-07-02T12:30:09Z</time>
      </trkpt>
      <trkpt lat="54.328535031527281" lon="9.730594977736473">
        <ele>41.469999999999999</ele>
        <time>2017-07-02T12:30:26Z</time>
      </trkpt>
      <trkpt lat="54.326716996729374" lon="9.732982981950045">
        <ele>36.670000000000002</ele>
        <time>2017-07-02T12:30:39Z</time>
      </trkpt>
      <trkpt lat="54.324596961960196" lon="9.735640967264772">
        <ele>28.98</ele>
        <time>2017-07-02T12:30:52Z</time>
      </trkpt>
      <trkpt lat="54.322723019868135" lon="9.737880025058985">
        <ele>23.210000000000001</ele>
        <time>2017-07-02T12:31:01Z</time>
      </trkpt>
      <trkpt lat="54.320644978433847" lon="9.74023399874568">
        <ele>17.920000000000002</ele>
        <time>2017-07-02T12:31:11Z</time>
      </trkpt>
      <trkpt lat="54.318410027772188" lon="9.742648992687464">
        <ele>13.6</ele>
        <time>2017-07-02T12:31:22Z</time>
      </trkpt>
      <trkpt lat="54.315143013373017" lon="9.745969986543059">
        <ele>11.19</ele>
        <time>2017-07-02T12:31:36Z</time>
      </trkpt>
      <trkpt lat="54.312898004427552" lon="9.74809798412025">
        <ele>13.119999999999999</ele>
        <time>2017-07-02T12:31:46Z</time>
      </trkpt>
      <trkpt lat="54.310824992135167" lon="9.749977961182594">
        <ele>14.08</ele>
        <time>2017-07-02T12:31:54Z</time>
      </trkpt>
      <trkpt lat="54.306237995624542" lon="9.753811005502939">
        <ele>14.56</ele>
        <time>2017-07-02T12:32:11Z</time>
      </trkpt>
      <trkpt lat="54.301453018561006" lon="9.757353030145168">
        <ele>17.920000000000002</ele>
        <time>2017-07-02T12:32:27Z</time>
      </trkpt>
      <trkpt lat="54.296410968527198" lon="9.760742001235485">
        <ele>13.119999999999999</ele>
        <time>2017-07-02T12:32:43Z</time>
      </trkpt>
      <trkpt lat="54.294683961197734" lon="9.761931980028749">
        <ele>9.75</ele>
        <time>2017-07-02T12:32:49Z</time>
      </trkpt>
      <trkpt lat="54.291499005630612" lon="9.764025025069714">
        <ele>5.91</ele>
        <time>2017-07-02T12:33:00Z</time>
      </trkpt>
      <trkpt lat="54.288299968466163" lon="9.766161991283298">
        <ele>4.46</ele>
        <time>2017-07-02T12:33:10Z</time>
      </trkpt>
      <trkpt lat="54.284790968522429" lon="9.768699025735259">
        <ele>3.5</ele>
        <time>2017-07-02T12:33:21Z</time>
      </trkpt>
      <trkpt lat="54.281238969415426" lon="9.771506041288376">
        <ele>3.02</ele>
        <time>2017-07-02T12:33:32Z</time>
      </trkpt>
      <trkpt lat="54.277440961450338" lon="9.775043958798051">
        <ele>3.02</ele>
        <time>2017-07-02T12:33:44Z</time>
      </trkpt>
      <trkpt lat="54.273203993216157" lon="9.779654005542398">
        <ele>3.02</ele>
        <time>2017-07-02T12:33:58Z</time>
      </trkpt>
      <trkpt lat="54.26897699944675" lon="9.785121018067002">
        <ele>3.98</ele>
        <time>2017-07-02T12:34:13Z</time>
      </trkpt>
      <trkpt lat="54.265736974775791" lon="9.789937008172274">
        <ele>5.42</ele>
        <time>2017-07-02T12:34:26Z</time>
      </trkpt>
      <trkpt lat="54.261290961876512" lon="9.796656025573611">
        <ele>6.39</ele>
        <time>2017-07-02T12:34:43Z</time>
      </trkpt>
      <trkpt lat="54.258734984323382" lon="9.800251023843885">
        <ele>5.91</ele>
        <time>2017-07-02T12:34:53Z</time>
      </trkpt>
      <trkpt lat="54.255350036546588" lon="9.804455973207951">
        <ele>6.39</ele>
        <time>2017-07-02T12:35:05Z</time>
      </trkpt>
      <trkpt lat="54.251592010259628" lon="9.808734012767673">
        <ele>6.39</ele>
        <time>2017-07-02T12:35:18Z</time>
      </trkpt>
      <trkpt lat="54.249280029907823" lon="9.811242967844009">
        <ele>7.35</ele>
        <time>2017-07-02T12:35:26Z</time>
      </trkpt>
      <trkpt lat="54.245951995253563" lon="9.814811982214451">
        <ele>6.87</ele>
        <time>2017-07-02T12:35:37Z</time>
      </trkpt>
      <trkpt lat="54.243294009938836" lon="9.817732991650701">
        <ele>7.83</ele>
        <time>2017-07-02T12:35:47Z</time>
      </trkpt>
      <trkpt lat="54.240201003849506" lon="9.821385992690921">
        <ele>8.789999999999999</ele>
        <time>2017-07-02T12:35:58Z</time>
      </trkpt>
      <trkpt lat="54.236246002838016" lon="9.826602973043919">
        <ele>10.23</ele>
        <time>2017-07-02T12:36:12Z</time>
      </trkpt>
      <trkpt lat="54.231889005750418" lon="9.833255019038916">
        <ele>10.710000000000001</ele>
        <time>2017-07-02T12:36:28Z</time>
      </trkpt>
      <trkpt lat="54.227857980877161" lon="9.84020403586328">
        <ele>12.630000000000001</ele>
        <time>2017-07-02T12:36:44Z</time>
      </trkpt>
      <trkpt lat="54.224660033360124" lon="9.84577096067369">
        <ele>13.119999999999999</ele>
        <time>2017-07-02T12:36:57Z</time>
      </trkpt>
      <trkpt lat="54.220105977728963" lon="9.85331199131906">
        <ele>16</ele>
        <time>2017-07-02T12:37:15Z</time>
      </trkpt>
      <trkpt lat="54.216108983382583" lon="9.858999028801918">
        <ele>18.399999999999999</ele>
        <time>2017-07-02T12:37:30Z</time>
      </trkpt>
      <trkpt lat="54.213492991402745" lon="9.862342989072204">
        <ele>19.359999999999999</ele>
        <time>2017-07-02T12:37:40Z</time>
      </trkpt>
      <trkpt lat="54.210792006924748" lon="9.865618972107768">
        <ele>19.359999999999999</ele>
        <time>2017-07-02T12:37:51Z</time>
      </trkpt>
      <trkpt lat="54.207751974463463" lon="9.869392002001405">
        <ele>18.879999999999999</ele>
        <time>2017-07-02T12:38:04Z</time>
      </trkpt>
      <trkpt lat="54.205054007470608" lon="9.87301298417151">
        <ele>18.399999999999999</ele>
        <time>2017-07-02T12:38:14Z</time>
      </trkpt>
      <trkpt lat="54.201968964189291" lon="9.877950008958578">
        <ele>17.920000000000002</ele>
        <time>2017-07-02T12:38:26Z</time>
      </trkpt>
      <trkpt lat="54.199249958619475" lon="9.883362036198378">
        <ele>17.920000000000002</ele>
        <time>2017-07-02T12:38:38Z</time>
      </trkpt>
      <trkpt lat="54.19728297740221" lon="9.888221025466919">
        <ele>17.920000000000002</ele>
        <time>2017-07-02T12:38:48Z</time>
      </trkpt>
      <trkpt lat="54.195290012285113" lon="9.894567970186472">
        <ele>18.399999999999999</ele>
        <time>2017-07-02T12:39:00Z</time>
      </trkpt>
      <trkpt lat="54.193769032135606" lon="9.90130802616477">
        <ele>18.399999999999999</ele>
        <time>2017-07-02T12:39:12Z</time>
      </trkpt>
      <trkpt lat="54.192666979506612" lon="9.908424010500312">
        <ele>18.879999999999999</ele>
        <time>2017-07-02T12:39:24Z</time>
      </trkpt>
      <trkpt lat="54.191469959914684" lon="9.917890029028058">
        <ele>18.879999999999999</ele>
        <time>2017-07-02T12:39:40Z</time>
      </trkpt>
      <trkpt lat="54.190525989979506" lon="9.923063004389405">
        <ele>17.920000000000002</ele>
        <time>2017-07-02T12:39:49Z</time>
      </trkpt>
      <trkpt lat="54.189225034788251" lon="9.92852901108563">
        <ele>19.359999999999999</ele>
        <time>2017-07-02T12:39:59Z</time>
      </trkpt>
      <trkpt lat="54.186872988939285" lon="9.935741974040866">
        <ele>21.289999999999999</ele>
        <time>2017-07-02T12:40:13Z</time>
      </trkpt>
      <trkpt lat="54.184178961440921" lon="9.941950030624867">
        <ele>22.73</ele>
        <time>2017-07-02T12:40:26Z</time>
      </trkpt>
      <trkpt lat="54.18136197142303" lon="9.94702996686101">
        <ele>23.210000000000001</ele>
        <time>2017-07-02T12:40:38Z</time>
      </trkpt>
      <trkpt lat="54.178555961698294" lon="9.951117988675833">
        <ele>23.210000000000001</ele>
        <time>2017-07-02T12:40:49Z</time>
      </trkpt>
      <trkpt lat="54.175466978922486" lon="9.954735031351447">
        <ele>23.210000000000001</ele>
        <time>2017-07-02T12:41:00Z</time>
      </trkpt>
      <trkpt lat="54.171900982037187" lon="9.957989975810051">
        <ele>22.25</ele>
        <time>2017-07-02T12:41:12Z</time>
      </trkpt>
      <trkpt lat="54.167780019342899" lon="9.960751980543137">
        <ele>22.25</ele>
        <time>2017-07-02T12:41:25Z</time>
      </trkpt>
      <trkpt lat="54.163812026381493" lon="9.962526010349393">
        <ele>21.289999999999999</ele>
        <time>2017-07-02T12:41:37Z</time>
      </trkpt>
      <trkpt lat="54.15948998183012" lon="9.963735016062856">
        <ele>20.809999999999999</ele>
        <time>2017-07-02T12:41:50Z</time>
      </trkpt>
      <trkpt lat="54.154760995879769" lon="9.964297022670507">
        <ele>21.289999999999999</ele>
        <time>2017-07-02T12:42:04Z</time>
      </trkpt>
      <trkpt lat="54.151033982634544" lon="9.964205995202065">
        <ele>22.25</ele>
        <time>2017-07-02T12:42:15Z</time>
      </trkpt>
      <trkpt lat="54.146555028855801" lon="9.96365899220109">
        <ele>23.210000000000001</ele>
        <time>2017-07-02T12:42:29Z</time>
      </trkpt>
      <trkpt lat="54.1423000395298" lon="9.962736982852221">
        <ele>23.210000000000001</ele>
        <time>2017-07-02T12:42:42Z</time>
      </trkpt>
      <trkpt lat="54.136308990418911" lon="9.960772013291717">
        <ele>20.809999999999999</ele>
        <time>2017-07-02T12:43:00Z</time>
      </trkpt>
      <trkpt lat="54.131761975586414" lon="9.958709981292486">
        <ele>20.32</ele>
        <time>2017-07-02T12:43:14Z</time>
      </trkpt>
      <trkpt lat="54.129026038572192" lon="9.957254966720939">
        <ele>19.359999999999999</ele>
        <time>2017-07-02T12:43:24Z</time>
      </trkpt>
      <trkpt lat="54.124952014535666" lon="9.954792028293014">
        <ele>19.359999999999999</ele>
        <time>2017-07-02T12:43:41Z</time>
      </trkpt>
      <trkpt lat="54.121106984093785" lon="9.952157009392977">
        <ele>20.32</ele>
        <time>2017-07-02T12:43:58Z</time>
      </trkpt>
      <trkpt lat="54.118208019062877" lon="9.950066981837153">
        <ele>21.77</ele>
        <time>2017-07-02T12:44:11Z</time>
      </trkpt>
      <trkpt lat="54.115092968568206" lon="9.947710996493697">
        <ele>26.09</ele>
        <time>2017-07-02T12:44:26Z</time>
      </trkpt>
      <trkpt lat="54.112747963517904" lon="9.945882987231016">
        <ele>27.050000000000001</ele>
        <time>2017-07-02T12:44:37Z</time>
      </trkpt>
      <trkpt lat="54.109585974365473" lon="9.943435974419117">
        <ele>24.649999999999999</ele>
        <time>2017-07-02T12:44:51Z</time>
      </trkpt>
      <trkpt lat="54.106037998571992" lon="9.940634993836284">
        <ele>19.359999999999999</ele>
        <time>2017-07-02T12:45:07Z</time>
      </trkpt>
      <trkpt lat="54.103947971016169" lon="9.939041007310152">
        <ele>17.920000000000002</ele>
        <time>2017-07-02T12:45:17Z</time>
      </trkpt>
      <trkpt lat="54.100926965475082" lon="9.936787029728293">
        <ele>17.440000000000001</ele>
        <time>2017-07-02T12:45:32Z</time>
      </trkpt>
      <trkpt lat="54.096745988354087" lon="9.933735011145473">
        <ele>16.48</ele>
        <time>2017-07-02T12:45:53Z</time>
      </trkpt>
      <trkpt lat="54.093428011983633" lon="9.9315370246768">
        <ele>16.48</ele>
        <time>2017-07-02T12:46:09Z</time>
      </trkpt>
      <trkpt lat="54.089513998478651" lon="9.929211968556047">
        <ele>15.52</ele>
        <time>2017-07-02T12:46:26Z</time>
      </trkpt>
      <trkpt lat="54.087004037573934" lon="9.927890980616212">
        <ele>16</ele>
        <time>2017-07-02T12:46:37Z</time>
      </trkpt>
      <trkpt lat="54.083115002140403" lon="9.926121979951859">
        <ele>16.48</ele>
        <time>2017-07-02T12:46:55Z</time>
      </trkpt>
      <trkpt lat="54.080657009035349" lon="9.925410021096468">
        <ele>19.359999999999999</ele>
        <time>2017-07-02T12:47:07Z</time>
      </trkpt>
      <trkpt lat="54.07881299033761" lon="9.924851031973958">
        <ele>19.84</ele>
        <time>2017-07-02T12:47:16Z</time>
      </trkpt>
      <trkpt lat="54.0758260153234" lon="9.924003034830093">
        <ele>18.879999999999999</ele>
        <time>2017-07-02T12:47:30Z</time>
      </trkpt>
      <trkpt lat="54.071363992989063" lon="9.923112960532308">
        <ele>14.08</ele>
        <time>2017-07-02T12:47:50Z</time>
      </trkpt>
      <trkpt lat="54.067086959257722" lon="9.92264399304986">
        <ele>14.08</ele>
        <time>2017-07-02T12:48:08Z</time>
      </trkpt>
      <trkpt lat="54.062414970248938" lon="9.922781959176064">
        <ele>13.119999999999999</ele>
        <time>2017-07-02T12:48:28Z</time>
      </trkpt>
      <trkpt lat="54.058288978412747" lon="9.92367303930223">
        <ele>12.15</ele>
        <time>2017-07-02T12:48:46Z</time>
      </trkpt>
      <trkpt lat="54.05418997630477" lon="9.925125958397985">
        <ele>11.67</ele>
        <time>2017-07-02T12:49:04Z</time>
      </trkpt>
      <trkpt lat="54.049900034442544" lon="9.927020017057657">
        <ele>16</ele>
        <time>2017-07-02T12:49:23Z</time>
      </trkpt>
      <trkpt lat="54.047552011907101" lon="9.927955018356443">
        <ele>19.359999999999999</ele>
        <time>2017-07-02T12:49:35Z</time>
      </trkpt>
      <trkpt lat="54.045890970155597" lon="9.928679969161749">
        <ele>20.32</ele>
        <time>2017-07-02T12:49:45Z</time>
      </trkpt>
      <trkpt lat="54.044258007779717" lon="9.929456971585751">
        <ele>20.809999999999999</ele>
        <time>2017-07-02T12:49:55Z</time>
      </trkpt>
      <trkpt lat="54.041934041306376" lon="9.930331958457828">
        <ele>19.359999999999999</ele>
        <time>2017-07-02T12:50:09Z</time>
      </trkpt>
      <trkpt lat="54.040137967094779" lon="9.930909974500537">
        <ele>17.440000000000001</ele>
        <time>2017-07-02T12:50:18Z</time>
      </trkpt>
      <trkpt lat="54.036845974624157" lon="9.931726036593318">
        <ele>16</ele>
        <time>2017-07-02T12:50:33Z</time>
      </trkpt>
      <trkpt lat="54.032227965071797" lon="9.932418968528509">
        <ele>16</ele>
        <time>2017-07-02T12:50:54Z</time>
      </trkpt>
      <trkpt lat="54.029274014756083" lon="9.932535979896784">
        <ele>16</ele>
        <time>2017-07-02T12:51:07Z</time>
      </trkpt>
      <trkpt lat="54.02608604170382" lon="9.932437995448709">
        <ele>16</ele>
        <time>2017-07-02T12:51:21Z</time>
      </trkpt>
      <trkpt lat="54.022343019023538" lon="9.932228028774262">
        <ele>14.56</ele>
        <time>2017-07-02T12:51:37Z</time>
      </trkpt>
      <trkpt lat="54.019977981224656" lon="9.932030970230699">
        <ele>14.56</ele>
        <time>2017-07-02T12:51:48Z</time>
      </trkpt>
      <trkpt lat="54.015774959698319" lon="9.931765012443066">
        <ele>13.6</ele>
        <time>2017-07-02T12:52:06Z</time>
      </trkpt>
      <trkpt lat="54.014087012037635" lon="9.931545993313193">
        <ele>13.6</ele>
        <time>2017-07-02T12:52:13Z</time>
      </trkpt>
      <trkpt lat="54.01042403653264" lon="9.93181899189949">
        <ele>12.15</ele>
        <time>2017-07-02T12:52:27Z</time>
      </trkpt>
      <trkpt lat="54.006421007215977" lon="9.932545032352209">
        <ele>12.15</ele>
        <time>2017-07-02T12:52:42Z</time>
      </trkpt>
      <trkpt lat="54.003747012466192" lon="9.933207035064697">
        <ele>12.630000000000001</ele>
        <time>2017-07-02T12:52:51Z</time>
      </trkpt>
      <trkpt lat="53.999542985111475" lon="9.934742012992501">
        <ele>12.630000000000001</ele>
        <time>2017-07-02T12:53:05Z</time>
      </trkpt>
      <trkpt lat="53.995435014367104" lon="9.936562981456518">
        <ele>13.6</ele>
        <time>2017-07-02T12:53:19Z</time>
      </trkpt>
      <trkpt lat="53.991006016731262" lon="9.938789969310165">
        <ele>13.6</ele>
        <time>2017-07-02T12:53:34Z</time>
      </trkpt>
      <trkpt lat="53.986837025731802" lon="9.941001031547785">
        <ele>13.6</ele>
        <time>2017-07-02T12:53:48Z</time>
      </trkpt>
      <trkpt lat="53.9809899777174" lon="9.944230997934938">
        <ele>12.630000000000001</ele>
        <time>2017-07-02T12:54:08Z</time>
      </trkpt>
      <trkpt lat="53.975945999845862" lon="9.94660098105669">
        <ele>13.119999999999999</ele>
        <time>2017-07-02T12:54:25Z</time>
      </trkpt>
      <trkpt lat="53.970864973962307" lon="9.948390014469624">
        <ele>14.08</ele>
        <time>2017-07-02T12:54:42Z</time>
      </trkpt>
      <trkpt lat="53.965525031089783" lon="9.949583010748029">
        <ele>14.56</ele>
        <time>2017-07-02T12:55:00Z</time>
      </trkpt>
      <trkpt lat="53.960447022691369" lon="9.950145017355681">
        <ele>14.08</ele>
        <time>2017-07-02T12:55:17Z</time>
      </trkpt>
      <trkpt lat="53.955558026209474" lon="9.950162032619119">
        <ele>14.56</ele>
        <time>2017-07-02T12:55:33Z</time>
      </trkpt>
      <trkpt lat="53.951475033536553" lon="9.949744027107954">
        <ele>15.52</ele>
        <time>2017-07-02T12:55:46Z</time>
      </trkpt>
      <trkpt lat="53.94669801928103" lon="9.948786981403828">
        <ele>14.08</ele>
        <time>2017-07-02T12:56:02Z</time>
      </trkpt>
      <trkpt lat="53.941210974007845" lon="9.947057040408254">
        <ele>11.19</ele>
        <time>2017-07-02T12:56:21Z</time>
      </trkpt>
      <trkpt lat="53.937707003206015" lon="9.945792965590954">
        <ele>11.19</ele>
        <time>2017-07-02T12:56:34Z</time>
      </trkpt>
      <trkpt lat="53.936219969764352" lon="9.945384012535214">
        <ele>10.23</ele>
        <time>2017-07-02T12:56:41Z</time>
      </trkpt>
      <trkpt lat="53.934461027383804" lon="9.944626959040761">
        <ele>9.27</ele>
        <time>2017-07-02T12:56:50Z</time>
      </trkpt>
      <trkpt lat="53.931537000462413" lon="9.943337989971042">
        <ele>7.83</ele>
        <time>2017-07-02T12:57:03Z</time>
      </trkpt>
      <trkpt lat="53.927823984995484" lon="9.941739980131388">
        <ele>6.87</ele>
        <time>2017-07-02T12:57:18Z</time>
      </trkpt>
      <trkpt lat="53.925734041258693" lon="9.940868010744453">
        <ele>6.39</ele>
        <time>2017-07-02T12:57:27Z</time>
      </trkpt>
      <trkpt lat="53.921523978933692" lon="9.939267989248037">
        <ele>5.91</ele>
        <time>2017-07-02T12:57:45Z</time>
      </trkpt>
      <trkpt lat="53.917148960754275" lon="9.937925962731242">
        <ele>5.91</ele>
        <time>2017-07-02T12:58:04Z</time>
      </trkpt>
      <trkpt lat="53.913056999444962" lon="9.937070002779365">
        <ele>4.94</ele>
        <time>2017-07-02T12:58:21Z</time>
      </trkpt>
      <trkpt lat="53.908503027632833" lon="9.936719974502921">
        <ele>6.39</ele>
        <time>2017-07-02T12:58:40Z</time>
      </trkpt>
      <trkpt lat="53.904415005818009" lon="9.937010994181037">
        <ele>9.27</ele>
        <time>2017-07-02T12:58:57Z</time>
      </trkpt>
      <trkpt lat="53.90095504000783" lon="9.93776704184711">
        <ele>10.710000000000001</ele>
        <time>2017-07-02T12:59:11Z</time>
      </trkpt>
      <trkpt lat="53.898645993322134" lon="9.93856399320066">
        <ele>10.710000000000001</ele>
        <time>2017-07-02T12:59:21Z</time>
      </trkpt>
      <trkpt lat="53.894672971218824" lon="9.94010902941227">
        <ele>9.27</ele>
        <time>2017-07-02T12:59:38Z</time>
      </trkpt>
      <trkpt lat="53.891981961205602" lon="9.941391041502357">
        <ele>7.35</ele>
        <time>2017-07-02T12:59:49Z</time>
      </trkpt>
      <trkpt lat="53.887547012418509" lon="9.943502023816109">
        <ele>7.35</ele>
        <time>2017-07-02T13:00:08Z</time>
      </trkpt>
      <trkpt lat="53.88407195918262" lon="9.945024009793997">
        <ele>7.83</ele>
        <time>2017-07-02T13:00:22Z</time>
      </trkpt>
      <trkpt lat="53.879502983763814" lon="9.946541972458363">
        <ele>9.27</ele>
        <time>2017-07-02T13:00:40Z</time>
      </trkpt>
      <trkpt lat="53.876147959381342" lon="9.947157958522439">
        <ele>10.23</ele>
        <time>2017-07-02T13:00:54Z</time>
      </trkpt>
      <trkpt lat="53.872055998072028" lon="9.947354011237621">
        <ele>10.710000000000001</ele>
        <time>2017-07-02T13:01:11Z</time>
      </trkpt>
      <trkpt lat="53.868451025336981" lon="9.946990991011262">
        <ele>10.710000000000001</ele>
        <time>2017-07-02T13:01:25Z</time>
      </trkpt>
      <trkpt lat="53.864989969879389" lon="9.946185993030667">
        <ele>11.19</ele>
        <time>2017-07-02T13:01:39Z</time>
      </trkpt>
      <trkpt lat="53.861817000433803" lon="9.945005988702178">
        <ele>10.710000000000001</ele>
        <time>2017-07-02T13:01:52Z</time>
      </trkpt>
      <trkpt lat="53.857241990044713" lon="9.942584037780762">
        <ele>12.15</ele>
        <time>2017-07-02T13:02:10Z</time>
      </trkpt>
      <trkpt lat="53.85452700778842" lon="9.940724009647965">
        <ele>12.15</ele>
        <time>2017-07-02T13:02:22Z</time>
      </trkpt>
      <trkpt lat="53.850747020915151" lon="9.937781961634755">
        <ele>12.15</ele>
        <time>2017-07-02T13:02:40Z</time>
      </trkpt>
      <trkpt lat="53.84761000983417" lon="9.935174016281962">
        <ele>13.6</ele>
        <time>2017-07-02T13:02:55Z</time>
      </trkpt>
      <trkpt lat="53.844593027606606" lon="9.932540003210306">
        <ele>14.08</ele>
        <time>2017-07-02T13:03:10Z</time>
      </trkpt>
      <trkpt lat="53.842021962627769" lon="9.930392978712916">
        <ele>15.52</ele>
        <time>2017-07-02T13:03:22Z</time>
      </trkpt>
      <trkpt lat="53.841169020161033" lon="9.929515980184078">
        <ele>15.52</ele>
        <time>2017-07-02T13:03:26Z</time>
      </trkpt>
      <trkpt lat="53.83892803452909" lon="9.927959041669965">
        <ele>15.52</ele>
        <time>2017-07-02T13:03:35Z</time>
      </trkpt>
      <trkpt lat="53.836038960143924" lon="9.926293976604939">
        <ele>16</ele>
        <time>2017-07-02T13:03:45Z</time>
      </trkpt>
      <trkpt lat="53.833561018109322" lon="9.925097962841392">
        <ele>15.52</ele>
        <time>2017-07-02T13:03:53Z</time>
      </trkpt>
      <trkpt lat="53.831660002470016" lon="9.924392960965633">
        <ele>16</ele>
        <time>2017-07-02T13:04:00Z</time>
      </trkpt>
      <trkpt lat="53.827828969806433" lon="9.923399034887552">
        <ele>17.440000000000001</ele>
        <time>2017-07-02T13:04:15Z</time>
      </trkpt>
      <trkpt lat="53.824765970930457" lon="9.923006007447839">
        <ele>16.48</ele>
        <time>2017-07-02T13:04:28Z</time>
      </trkpt>
      <trkpt lat="53.82038701325655" lon="9.92305101826787">
        <ele>15.039999999999999</ele>
        <time>2017-07-02T13:04:46Z</time>
      </trkpt>
      <trkpt lat="53.81705797277391" lon="9.923616964370012">
        <ele>14.08</ele>
        <time>2017-07-02T13:04:58Z</time>
      </trkpt>
      <trkpt lat="53.813494993373752" lon="9.924593036994338">
        <ele>13.6</ele>
        <time>2017-07-02T13:05:10Z</time>
      </trkpt>
      <trkpt lat="53.809027019888163" lon="9.926232034340501">
        <ele>14.56</ele>
        <time>2017-07-02T13:05:25Z</time>
      </trkpt>
      <trkpt lat="53.804743029177189" lon="9.928283002227545">
        <ele>16.48</ele>
        <time>2017-07-02T13:05:40Z</time>
      </trkpt>
      <trkpt lat="53.7998709641397" lon="9.93089203722775">
        <ele>18.399999999999999</ele>
        <time>2017-07-02T13:05:57Z</time>
      </trkpt>
      <trkpt lat="53.796434970572591" lon="9.932754999026656">
        <ele>18.879999999999999</ele>
        <time>2017-07-02T13:06:09Z</time>
      </trkpt>
      <trkpt lat="53.792235972359776" lon="9.935114001855254">
        <ele>16.960000000000001</ele>
        <time>2017-07-02T13:06:24Z</time>
      </trkpt>
      <trkpt lat="53.78854701295495" lon="9.937096992507577">
        <ele>14.56</ele>
        <time>2017-07-02T13:06:37Z</time>
      </trkpt>
      <trkpt lat="53.781514009460807" lon="9.94071202352643">
        <ele>15.52</ele>
        <time>2017-07-02T13:07:01Z</time>
      </trkpt>
      <trkpt lat="53.776831962168217" lon="9.942958038300276">
        <ele>18.399999999999999</ele>
        <time>2017-07-02T13:07:17Z</time>
      </trkpt>
      <trkpt lat="53.77406501211226" lon="9.944209959357977">
        <ele>16.960000000000001</ele>
        <time>2017-07-02T13:07:27Z</time>
      </trkpt>
      <trkpt lat="53.771390011534095" lon="9.945499012246728">
        <ele>16.48</ele>
        <time>2017-07-02T13:07:38Z</time>
      </trkpt>
      <trkpt lat="53.769172998145223" lon="9.946670969948173">
        <ele>16.960000000000001</ele>
        <time>2017-07-02T13:07:48Z</time>
      </trkpt>
      <trkpt lat="53.765475992113352" lon="9.948107963427901">
        <ele>20.32</ele>
        <time>2017-07-02T13:08:04Z</time>
      </trkpt>
      <trkpt lat="53.761057974770665" lon="9.949356028810144">
        <ele>27.530000000000001</ele>
        <time>2017-07-02T13:08:22Z</time>
      </trkpt>
      <trkpt lat="53.757846029475331" lon="9.949832037091255">
        <ele>29.940000000000001</ele>
        <time>2017-07-02T13:08:35Z</time>
      </trkpt>
      <trkpt lat="53.754094960168004" lon="9.950008979067206">
        <ele>27.530000000000001</ele>
        <time>2017-07-02T13:08:51Z</time>
      </trkpt>
      <trkpt lat="53.750501973554492" lon="9.949684012681246">
        <ele>21.289999999999999</ele>
        <time>2017-07-02T13:09:07Z</time>
      </trkpt>
      <trkpt lat="53.747573001310229" lon="9.949102979153395">
        <ele>17.920000000000002</ele>
        <time>2017-07-02T13:09:21Z</time>
      </trkpt>
      <trkpt lat="53.744066013023257" lon="9.94801601395011">
        <ele>16</ele>
        <time>2017-07-02T13:09:38Z</time>
      </trkpt>
      <trkpt lat="53.742506979033351" lon="9.947397010400891">
        <ele>15.039999999999999</ele>
        <time>2017-07-02T13:09:46Z</time>
      </trkpt>
      <trkpt lat="53.739660987630486" lon="9.946120027452707">
        <ele>13.6</ele>
        <time>2017-07-02T13:10:00Z</time>
      </trkpt>
      <trkpt lat="53.735222015529871" lon="9.943944001570344">
        <ele>12.15</ele>
        <time>2017-07-02T13:10:22Z</time>
      </trkpt>
      <trkpt lat="53.73199800029397" lon="9.94236895814538">
        <ele>12.15</ele>
        <time>2017-07-02T13:10:38Z</time>
      </trkpt>
      <trkpt lat="53.729074979200959" lon="9.941102033481002">
        <ele>12.630000000000001</ele>
        <time>2017-07-02T13:10:52Z</time>
      </trkpt>
      <trkpt lat="53.72677699662745" lon="9.940254958346486">
        <ele>13.119999999999999</ele>
        <time>2017-07-02T13:11:02Z</time>
      </trkpt>
      <trkpt lat="53.72312500141561" lon="9.939293973147869">
        <ele>13.6</ele>
        <time>2017-07-02T13:11:19Z</time>
      </trkpt>
      <trkpt lat="53.719867039471865" lon="9.938816037029028">
        <ele>13.6</ele>
        <time>2017-07-02T13:11:33Z</time>
      </trkpt>
      <trkpt lat="53.716080011799932" lon="9.938806984573603">
        <ele>12.630000000000001</ele>
        <time>2017-07-02T13:11:49Z</time>
      </trkpt>
      <trkpt lat="53.712007999420166" lon="9.939392963424325">
        <ele>11.67</ele>
        <time>2017-07-02T13:12:06Z</time>
      </trkpt>
      <trkpt lat="53.707368029281497" lon="9.940828029066324">
        <ele>10.710000000000001</ele>
        <time>2017-07-02T13:12:25Z</time>
      </trkpt>
      <trkpt lat="53.703016983345151" lon="9.942634999752045">
        <ele>10.23</ele>
        <time>2017-07-02T13:12:44Z</time>
      </trkpt>
      <trkpt lat="53.700825031846762" lon="9.94350696913898">
        <ele>9.27</ele>
        <time>2017-07-02T13:12:54Z</time>
      </trkpt>
      <trkpt lat="53.698917981237173" lon="9.944163020700216">
        <ele>8.789999999999999</ele>
        <time>2017-07-02T13:13:02Z</time>
      </trkpt>
      <trkpt lat="53.696261001750827" lon="9.944974975660443">
        <ele>7.83</ele>
        <time>2017-07-02T13:13:14Z</time>
      </trkpt>
      <trkpt lat="53.693032963201404" lon="9.945620968937874">
        <ele>7.83</ele>
        <time>2017-07-02T13:13:28Z</time>
      </trkpt>
      <trkpt lat="53.689465038478374" lon="9.945944007486105">
        <ele>7.83</ele>
        <time>2017-07-02T13:13:43Z</time>
      </trkpt>
      <trkpt lat="53.686532964929938" lon="9.945852980017662">
        <ele>7.83</ele>
        <time>2017-07-02T13:13:55Z</time>
      </trkpt>
      <trkpt lat="53.683296041563153" lon="9.945398010313511">
        <ele>7.35</ele>
        <time>2017-07-02T13:14:08Z</time>
      </trkpt>
      <trkpt lat="53.679281026124954" lon="9.944398971274495">
        <ele>6.87</ele>
        <time>2017-07-02T13:14:25Z</time>
      </trkpt>
      <trkpt lat="53.676592027768493" lon="9.943270012736321">
        <ele>5.91</ele>
        <time>2017-07-02T13:14:37Z</time>
      </trkpt>
      <trkpt lat="53.674752032384276" lon="9.942425033077598">
        <ele>5.91</ele>
        <time>2017-07-02T13:14:45Z</time>
      </trkpt>
      <trkpt lat="53.671423997730017" lon="9.940671036019921">
        <ele>4.46</ele>
        <time>2017-07-02T13:14:58Z</time>
      </trkpt>
      <trkpt lat="53.669316032901406" lon="9.939304031431675">
        <ele>3.5</ele>
        <time>2017-07-02T13:15:07Z</time>
      </trkpt>
      <trkpt lat="53.666292009875178" lon="9.937173016369343">
        <ele>2.06</ele>
        <time>2017-07-02T13:15:21Z</time>
      </trkpt>
      <trkpt lat="53.662974033504725" lon="9.934864975512028">
        <ele>1.58</ele>
        <time>2017-07-02T13:15:36Z</time>
      </trkpt>
      <trkpt lat="53.658994976431131" lon="9.932563975453377">
        <ele>0.62</ele>
        <time>2017-07-02T13:15:53Z</time>
      </trkpt>
      <trkpt lat="53.656446039676666" lon="9.931513974443078">
        <ele>0.14</ele>
        <time>2017-07-02T13:16:04Z</time>
      </trkpt>
      <trkpt lat="53.654749961569905" lon="9.931054981425405">
        <ele>0.62</ele>
        <time>2017-07-02T13:16:13Z</time>
      </trkpt>
      <trkpt lat="53.652356006205082" lon="9.930565981194377">
        <ele>2.06</ele>
        <time>2017-07-02T13:16:25Z</time>
      </trkpt>
      <trkpt lat="53.650550041347742" lon="9.930412005633116">
        <ele>3.02</ele>
        <time>2017-07-02T13:16:35Z</time>
      </trkpt>
      <trkpt lat="53.649140037596226" lon="9.930600011721253">
        <ele>4.46</ele>
        <time>2017-07-02T13:16:43Z</time>
      </trkpt>
      <trkpt lat="53.646218022331595" lon="9.930453998968005">
        <ele>8.310000000000001</ele>
        <time>2017-07-02T13:16:58Z</time>
      </trkpt>
      <trkpt lat="53.643584009259939" lon="9.929617987945676">
        <ele>8.310000000000001</ele>
        <time>2017-07-02T13:17:11Z</time>
      </trkpt>
      <trkpt lat="53.641363978385925" lon="9.928280990570784">
        <ele>4.46</ele>
        <time>2017-07-02T13:17:22Z</time>
      </trkpt>
      <trkpt lat="53.639318039640784" lon="9.926706030964851">
        <ele>1.58</ele>
        <time>2017-07-02T13:17:34Z</time>
      </trkpt>
      <trkpt lat="53.637814996764064" lon="9.92558897472918">
        <ele>1.58</ele>
        <time>2017-07-02T13:17:45Z</time>
      </trkpt>
      <trkpt lat="53.63604599609971" lon="9.924536040052772">
        <ele>1.1</ele>
        <time>2017-07-02T13:17:56Z</time>
      </trkpt>
      <trkpt lat="53.634204994887114" lon="9.923735987395048">
        <ele>1.58</ele>
        <time>2017-07-02T13:18:06Z</time>
      </trkpt>
      <trkpt lat="53.632784010842443" lon="9.923270037397742">
        <ele>4.46</ele>
        <time>2017-07-02T13:18:15Z</time>
      </trkpt>
      <trkpt lat="53.630641009658575" lon="9.922628989443183">
        <ele>4.94</ele>
        <time>2017-07-02T13:18:28Z</time>
      </trkpt>
      <trkpt lat="53.628564979881048" lon="9.921865984797478">
        <ele>3.02</ele>
        <time>2017-07-02T13:18:40Z</time>
      </trkpt>
      <trkpt lat="53.62665499560535" lon="9.920801986008883">
        <ele>3.5</ele>
        <time>2017-07-02T13:18:52Z</time>
      </trkpt>
      <trkpt lat="53.624741993844509" lon="9.919245969504118">
        <ele>5.42</ele>
        <time>2017-07-02T13:19:04Z</time>
      </trkpt>
      <trkpt lat="53.622862016782165" lon="9.917170023545623">
        <ele>5.42</ele>
        <time>2017-07-02T13:19:18Z</time>
      </trkpt>
      <trkpt lat="53.620729995891452" lon="9.914488987997174">
        <ele>6.87</ele>
        <time>2017-07-02T13:19:34Z</time>
      </trkpt>
      <trkpt lat="53.618937022984028" lon="9.912965996190906">
        <ele>8.789999999999999</ele>
        <time>2017-07-02T13:19:45Z</time>
      </trkpt>
      <trkpt lat="53.617479996755719" lon="9.91256601177156">
        <ele>10.23</ele>
        <time>2017-07-02T13:19:53Z</time>
      </trkpt>
      <trkpt lat="53.615951975807548" lon="9.912941018119454">
        <ele>10.23</ele>
        <time>2017-07-02T13:20:02Z</time>
      </trkpt>
      <trkpt lat="53.61423896625638" lon="9.914202997460961">
        <ele>5.42</ele>
        <time>2017-07-02T13:20:12Z</time>
      </trkpt>
      <trkpt lat="53.612526962533593" lon="9.915583999827504">
        <ele>0.14</ele>
        <time>2017-07-02T13:20:23Z</time>
      </trkpt>
      <trkpt lat="53.611306976526976" lon="9.916524030268192">
        <ele>-0.34</ele>
        <time>2017-07-02T13:20:32Z</time>
      </trkpt>
      <trkpt lat="53.609393974766135" lon="9.917662963271141">
        <ele>-0.34</ele>
        <time>2017-07-02T13:20:43Z</time>
      </trkpt>
      <trkpt lat="53.606919972226024" lon="9.918588995933533">
        <ele>0.62</ele>
        <time>2017-07-02T13:20:57Z</time>
      </trkpt>
      <trkpt lat="53.605383988469839" lon="9.919344037771225">
        <ele>0.62</ele>
        <time>2017-07-02T13:21:06Z</time>
      </trkpt>
      <trkpt lat="53.6036660335958" lon="9.920611968263984">
        <ele>0.14</ele>
        <time>2017-07-02T13:21:17Z</time>
      </trkpt>
      <trkpt lat="53.602027958258986" lon="9.921560967341065">
        <ele>1.1</ele>
        <time>2017-07-02T13:21:27Z</time>
      </trkpt>
      <trkpt lat="53.600018983706832" lon="9.922450035810471">
        <ele>2.06</ele>
        <time>2017-07-02T13:21:39Z</time>
      </trkpt>
      <trkpt lat="53.597722006961703" lon="9.923023022711277">
        <ele>2.54</ele>
        <time>2017-07-02T13:21:52Z</time>
      </trkpt>
      <trkpt lat="53.595820991322398" lon="9.923042971640825">
        <ele>3.98</ele>
        <time>2017-07-02T13:22:03Z</time>
      </trkpt>
      <trkpt lat="53.594432026147842" lon="9.922298993915319">
        <ele>6.39</ele>
        <time>2017-07-02T13:22:11Z</time>
      </trkpt>
      <trkpt lat="53.59300802461803" lon="9.920802991837263">
        <ele>13.119999999999999</ele>
        <time>2017-07-02T13:22:20Z</time>
      </trkpt>
      <trkpt lat="53.591761970892549" lon="9.9191639944911">
        <ele>18.399999999999999</ele>
        <time>2017-07-02T13:22:30Z</time>
      </trkpt>
      <trkpt lat="53.590403012931347" lon="9.917172035202384">
        <ele>22.73</ele>
        <time>2017-07-02T13:22:40Z</time>
      </trkpt>
      <trkpt lat="53.589003989472985" lon="9.9160470161587">
        <ele>23.210000000000001</ele>
        <time>2017-07-02T13:22:48Z</time>
      </trkpt>
      <trkpt lat="53.587335990741849" lon="9.91568198427558">
        <ele>23.210000000000001</ele>
        <time>2017-07-02T13:22:57Z</time>
      </trkpt>
      <trkpt lat="53.585301032289863" lon="9.916016003116965">
        <ele>21.289999999999999</ele>
        <time>2017-07-02T13:23:08Z</time>
      </trkpt>
      <trkpt lat="53.58314897865057" lon="9.916124967858195">
        <ele>21.289999999999999</ele>
        <time>2017-07-02T13:23:19Z</time>
      </trkpt>
      <trkpt lat="53.581329016014934" lon="9.915489032864571">
        <ele>21.77</ele>
        <time>2017-07-02T13:23:28Z</time>
      </trkpt>
      <trkpt lat="53.580627031624317" lon="9.915015958249569">
        <ele>22.25</ele>
        <time>2017-07-02T13:23:32Z</time>
      </trkpt>
      <trkpt lat="53.580474983900785" lon="9.914859971031547">
        <ele>22.25</ele>
        <time>2017-07-02T13:23:33Z</time>
      </trkpt>
      <trkpt lat="53.579119965434074" lon="9.913420965895057">
        <ele>23.690000000000001</ele>
        <time>2017-07-02T13:23:41Z</time>
      </trkpt>
      <trkpt lat="53.577621029689908" lon="9.911297997459769">
        <ele>24.649999999999999</ele>
        <time>2017-07-02T13:23:50Z</time>
      </trkpt>
      <trkpt lat="53.576276991516352" lon="9.908539010211825">
        <ele>26.57</ele>
        <time>2017-07-02T13:23:59Z</time>
      </trkpt>
      <trkpt lat="53.574660960584879" lon="9.905743980780244">
        <ele>27.050000000000001</ele>
        <time>2017-07-02T13:24:08Z</time>
      </trkpt>
      <trkpt lat="53.572904029861093" lon="9.903924018144608">
        <ele>25.609999999999999</ele>
        <time>2017-07-02T13:24:16Z</time>
      </trkpt>
      <trkpt lat="53.57025601901114" lon="9.901986960321665">
        <ele>19.84</ele>
        <time>2017-07-02T13:24:27Z</time>
      </trkpt>
      <trkpt lat="53.569515980780125" lon="9.901500977575779">
        <ele>18.879999999999999</ele>
        <time>2017-07-02T13:24:30Z</time>
      </trkpt>
      <trkpt lat="53.567479010671377" lon="9.900375036522746">
        <ele>16.960000000000001</ele>
        <time>2017-07-02T13:24:38Z</time>
      </trkpt>
      <trkpt lat="53.563765995204449" lon="9.898960003629327">
        <ele>10.710000000000001</ele>
        <time>2017-07-02T13:24:52Z</time>
      </trkpt>
      <trkpt lat="53.561540013179183" lon="9.898350974544883">
        <ele>7.35</ele>
        <time>2017-07-02T13:25:02Z</time>
      </trkpt>
      <trkpt lat="53.55831197462976" lon="9.897664999589324">
        <ele>2.06</ele>
        <time>2017-07-02T13:25:17Z</time>
      </trkpt>
      <trkpt lat="53.555763037875295" lon="9.897240959107876">
        <ele>1.1</ele>
        <time>2017-07-02T13:25:29Z</time>
      </trkpt>
      <trkpt lat="53.553735036402941" lon="9.897312959656119">
        <ele>3.98</ele>
        <time>2017-07-02T13:25:39Z</time>
      </trkpt>
      <trkpt lat="53.535298034548759" lon="9.931578012183309">
        <ele>1.58</ele>
        <time>2017-07-02T13:27:52Z</time>
      </trkpt>
      <trkpt lat="53.533413028344512" lon="9.933131011202931">
        <ele>-2.27</ele>
        <time>2017-07-02T13:28:02Z</time>
      </trkpt>
      <trkpt lat="53.531654002144933" lon="9.933684971183538">
        <ele>-3.71</ele>
        <time>2017-07-02T13:28:10Z</time>
      </trkpt>
      <trkpt lat="53.529862035065889" lon="9.933572988957167">
        <ele>-2.27</ele>
        <time>2017-07-02T13:28:18Z</time>
      </trkpt>
      <trkpt lat="53.527847025543451" lon="9.932605968788266">
        <ele>-1.3</ele>
        <time>2017-07-02T13:28:27Z</time>
      </trkpt>
      <trkpt lat="53.525534039363265" lon="9.930527005344629">
        <ele>1.1</ele>
        <time>2017-07-02T13:28:38Z</time>
      </trkpt>
      <trkpt lat="53.523094989359379" lon="9.927528966218233">
        <ele>5.42</ele>
        <time>2017-07-02T13:28:51Z</time>
      </trkpt>
      <trkpt lat="53.520349999889731" lon="9.923971015959978">
        <ele>7.35</ele>
        <time>2017-07-02T13:29:06Z</time>
      </trkpt>
      <trkpt lat="53.516979971900582" lon="9.919615024700761">
        <ele>7.83</ele>
        <time>2017-07-02T13:29:24Z</time>
      </trkpt>
      <trkpt lat="53.513608016073704" lon="9.915614007040858">
        <ele>6.39</ele>
        <time>2017-07-02T13:29:40Z</time>
      </trkpt>
      <trkpt lat="53.510792031884193" lon="9.913218040019274">
        <ele>4.94</ele>
        <time>2017-07-02T13:29:52Z</time>
      </trkpt>
      <trkpt lat="53.508521961048245" lon="9.91213702596724">
        <ele>3.98</ele>
        <time>2017-07-02T13:30:01Z</time>
      </trkpt>
      <trkpt lat="53.506238982081413" lon="9.91187903098762">
        <ele>2.06</ele>
        <time>2017-07-02T13:30:09Z</time>
      </trkpt>
      <trkpt lat="53.502653036266565" lon="9.912271974608302">
        <ele>0.62</ele>
        <time>2017-07-02T13:30:21Z</time>
      </trkpt>
      <trkpt lat="53.498066961765289" lon="9.913156013935804">
        <ele>-1.3</ele>
        <time>2017-07-02T13:30:36Z</time>
      </trkpt>
      <trkpt lat="53.49428596906364" lon="9.913561027497053">
        <ele>-2.75</ele>
        <time>2017-07-02T13:30:48Z</time>
      </trkpt>
      <trkpt lat="53.492015982046723" lon="9.913581982254982">
        <ele>-3.71</ele>
        <time>2017-07-02T13:30:56Z</time>
      </trkpt>
      <trkpt lat="53.488074978813529" lon="9.913590028882027">
        <ele>-4.19</ele>
        <time>2017-07-02T13:31:12Z</time>
      </trkpt>
      <trkpt lat="53.485357984900475" lon="9.913702011108398">
        <ele>-3.71</ele>
        <time>2017-07-02T13:31:25Z</time>
      </trkpt>
      <trkpt lat="53.481657961383462" lon="9.914171984419227">
        <ele>-1.3</ele>
        <time>2017-07-02T13:31:44Z</time>
      </trkpt>
      <trkpt lat="53.478502007201314" lon="9.91499500349164">
        <ele>0.14</ele>
        <time>2017-07-02T13:31:59Z</time>
      </trkpt>
      <trkpt lat="53.476993013173342" lon="9.915747027844191">
        <ele>0.62</ele>
        <time>2017-07-02T13:32:07Z</time>
      </trkpt>
      <trkpt lat="53.475554008036852" lon="9.916650010272861">
        <ele>1.1</ele>
        <time>2017-07-02T13:32:17Z</time>
      </trkpt>
      <trkpt lat="53.473719963803887" lon="9.917859015986323">
        <ele>2.54</ele>
        <time>2017-07-02T13:32:31Z</time>
      </trkpt>
      <trkpt lat="53.471734039485455" lon="9.919488960877061">
        <ele>4.94</ele>
        <time>2017-07-02T13:32:45Z</time>
      </trkpt>
      <trkpt lat="53.469762029126287" lon="9.921563984826207">
        <ele>8.310000000000001</ele>
        <time>2017-07-02T13:32:58Z</time>
      </trkpt>
      <trkpt lat="53.467555996030569" lon="9.92423303425312">
        <ele>12.630000000000001</ele>
        <time>2017-07-02T13:33:15Z</time>
      </trkpt>
      <trkpt lat="53.466122020035982" lon="9.925940008834004">
        <ele>15.52</ele>
        <time>2017-07-02T13:33:27Z</time>
      </trkpt>
      <trkpt lat="53.464510012418032" lon="9.927424024790525">
        <ele>18.399999999999999</ele>
        <time>2017-07-02T13:33:38Z</time>
      </trkpt>
      <trkpt lat="53.462947038933635" lon="9.928312003612518">
        <ele>21.77</ele>
        <time>2017-07-02T13:33:47Z</time>
      </trkpt>
      <trkpt lat="53.461342994123697" lon="9.928707964718342">
        <ele>25.129999999999999</ele>
        <time>2017-07-02T13:33:56Z</time>
      </trkpt>
      <trkpt lat="53.45932999625802" lon="9.928497998043895">
        <ele>31.379999999999999</ele>
        <time>2017-07-02T13:34:08Z</time>
      </trkpt>
      <trkpt lat="53.457378018647432" lon="9.927544975653291">
        <ele>37.630000000000003</ele>
        <time>2017-07-02T13:34:20Z</time>
      </trkpt>
      <trkpt lat="53.455606000497937" lon="9.925947971642017">
        <ele>44.840000000000003</ele>
        <time>2017-07-02T13:34:31Z</time>
      </trkpt>
      <trkpt lat="53.453823002055287" lon="9.923793990164995">
        <ele>52.530000000000001</ele>
        <time>2017-07-02T13:34:42Z</time>
      </trkpt>
      <trkpt lat="53.451441032811999" lon="9.921223009005189">
        <ele>60.219999999999999</ele>
        <time>2017-07-02T13:34:56Z</time>
      </trkpt>
      <trkpt lat="53.449547979980707" lon="9.919911995530129">
        <ele>65.510000000000005</ele>
        <time>2017-07-02T13:35:07Z</time>
      </trkpt>
      <trkpt lat="53.447896996513009" lon="9.919175980612636">
        <ele>69.349999999999994</ele>
        <time>2017-07-02T13:35:16Z</time>
      </trkpt>
      <trkpt lat="53.446067981421947" lon="9.918557982891798">
        <ele>72.239999999999995</ele>
        <time>2017-07-02T13:35:27Z</time>
      </trkpt>
      <trkpt lat="53.444410962983966" lon="9.918635012581945">
        <ele>74.640000000000001</ele>
        <time>2017-07-02T13:35:36Z</time>
      </trkpt>
      <trkpt lat="53.442421015352011" lon="9.919253010302782">
        <ele>75.120000000000005</ele>
        <time>2017-07-02T13:35:45Z</time>
      </trkpt>
      <trkpt lat="53.440022030845284" lon="9.920781031250954">
        <ele>74.640000000000001</ele>
        <time>2017-07-02T13:35:55Z</time>
      </trkpt>
      <trkpt lat="53.437769981101155" lon="9.923128969967365">
        <ele>74.159999999999997</ele>
        <time>2017-07-02T13:36:05Z</time>
      </trkpt>
      <trkpt lat="53.436040040105581" lon="9.925295021384955">
        <ele>71.760000000000005</ele>
        <time>2017-07-02T13:36:13Z</time>
      </trkpt>
      <trkpt lat="53.433926962316036" lon="9.927163012325764">
        <ele>70.310000000000002</ele>
        <time>2017-07-02T13:36:21Z</time>
      </trkpt>
      <trkpt lat="53.431843975558877" lon="9.928016038611531">
        <ele>67.909999999999997</ele>
        <time>2017-07-02T13:36:28Z</time>
      </trkpt>
      <trkpt lat="53.428800003603101" lon="9.928235979750752">
        <ele>65.989999999999995</ele>
        <time>2017-07-02T13:36:38Z</time>
      </trkpt>
      <trkpt lat="53.425342971459031" lon="9.927814034745097">
        <ele>63.579999999999998</ele>
        <time>2017-07-02T13:36:49Z</time>
      </trkpt>
      <trkpt lat="53.42181502841413" lon="9.926731009036303">
        <ele>61.659999999999997</ele>
        <time>2017-07-02T13:37:00Z</time>
      </trkpt>
      <trkpt lat="53.418086003512144" lon="9.924971982836723">
        <ele>58.780000000000001</ele>
        <time>2017-07-02T13:37:12Z</time>
      </trkpt>
      <trkpt lat="53.414756041020155" lon="9.922650028020144">
        <ele>54.93</ele>
        <time>2017-07-02T13:37:23Z</time>
      </trkpt>
      <trkpt lat="53.411699999123812" lon="9.919790038838983">
        <ele>53.490000000000002</ele>
        <time>2017-07-02T13:37:34Z</time>
      </trkpt>
      <trkpt lat="53.408414963632822" lon="9.91587501950562">
        <ele>55.409999999999997</ele>
        <time>2017-07-02T13:37:47Z</time>
      </trkpt>
      <trkpt lat="53.405931992456317" lon="9.9122029915452">
        <ele>60.700000000000003</ele>
        <time>2017-07-02T13:37:58Z</time>
      </trkpt>
      <trkpt lat="53.403524039313197" lon="9.907913971692324">
        <ele>67.430000000000007</ele>
        <time>2017-07-02T13:38:10Z</time>
      </trkpt>
      <trkpt lat="53.402230963110924" lon="9.905164958909154">
        <ele>71.760000000000005</ele>
        <time>2017-07-02T13:38:17Z</time>
      </trkpt>
      <trkpt lat="53.399828039109707" lon="9.899612031877041">
        <ele>77.040000000000006</ele>
        <time>2017-07-02T13:38:30Z</time>
      </trkpt>
      <trkpt lat="53.397519998252392" lon="9.894351968541741">
        <ele>83.769999999999996</ele>
        <time>2017-07-02T13:38:43Z</time>
      </trkpt>
      <trkpt lat="53.395974962040782" lon="9.891100041568279">
        <ele>89.540000000000006</ele>
        <time>2017-07-02T13:38:51Z</time>
      </trkpt>
      <trkpt lat="53.393065016716719" lon="9.885922037065029">
        <ele>97.230000000000004</ele>
        <time>2017-07-02T13:39:05Z</time>
      </trkpt>
      <trkpt lat="53.391195014119148" lon="9.883073028177023">
        <ele>100.59999999999999</ele>
        <time>2017-07-02T13:39:14Z</time>
      </trkpt>
      <trkpt lat="53.389745028689504" lon="9.880998004227877">
        <ele>102.52</ele>
        <time>2017-07-02T13:39:20Z</time>
      </trkpt>
      <trkpt lat="53.385979039594531" lon="9.876220989972353">
        <ele>103.95999999999999</ele>
        <time>2017-07-02T13:39:34Z</time>
      </trkpt>
      <trkpt lat="53.383750040084124" lon="9.873382039368153">
        <ele>103.48</ele>
        <time>2017-07-02T13:39:43Z</time>
      </trkpt>
      <trkpt lat="53.381118038669229" lon="9.869370963424444">
        <ele>101.08</ele>
        <time>2017-07-02T13:39:55Z</time>
      </trkpt>
      <trkpt lat="53.378532975912094" lon="9.86482797190547">
        <ele>97.709999999999994</ele>
        <time>2017-07-02T13:40:08Z</time>
      </trkpt>
      <trkpt lat="53.376306993886828" lon="9.860483966767788">
        <ele>91.939999999999998</ele>
        <time>2017-07-02T13:40:20Z</time>
      </trkpt>
      <trkpt lat="53.375173006206751" lon="9.857557006180286">
        <ele>90.980000000000004</ele>
        <time>2017-07-02T13:40:28Z</time>
      </trkpt>
      <trkpt lat="53.374106995761395" lon="9.85371801070869">
        <ele>92.900000000000006</ele>
        <time>2017-07-02T13:40:38Z</time>
      </trkpt>
      <trkpt lat="53.372757006436586" lon="9.847921002656221">
        <ele>100.11</ele>
        <time>2017-07-02T13:40:52Z</time>
      </trkpt>
      <trkpt lat="53.372564977034926" lon="9.844634961336851">
        <ele>103</ele>
        <time>2017-07-02T13:41:00Z</time>
      </trkpt>
      <trkpt lat="53.372427010908723" lon="9.840746009722352">
        <ele>103</ele>
        <time>2017-07-02T13:41:10Z</time>
      </trkpt>
      <trkpt lat="53.372247973456979" lon="9.834622023627162">
        <ele>97.709999999999994</ele>
        <time>2017-07-02T13:41:24Z</time>
      </trkpt>
      <trkpt lat="53.372090980410576" lon="9.830200988799334">
        <ele>91.459999999999994</ele>
        <time>2017-07-02T13:41:34Z</time>
      </trkpt>
      <trkpt lat="53.371942033991218" lon="9.824250005185604">
        <ele>89.540000000000006</ele>
        <time>2017-07-02T13:41:46Z</time>
      </trkpt>
      <trkpt lat="53.371679009869695" lon="9.8156469874084">
        <ele>92.900000000000006</ele>
        <time>2017-07-02T13:42:04Z</time>
      </trkpt>
      <trkpt lat="53.371446998789907" lon="9.808335034176707">
        <ele>86.659999999999997</ele>
        <time>2017-07-02T13:42:19Z</time>
      </trkpt>
      <trkpt lat="53.371224962174892" lon="9.801418036222458">
        <ele>78.969999999999999</ele>
        <time>2017-07-02T13:42:34Z</time>
      </trkpt>
      <trkpt lat="53.371041985228658" lon="9.796793991699815">
        <ele>75.120000000000005</ele>
        <time>2017-07-02T13:42:44Z</time>
      </trkpt>
      <trkpt lat="53.370820032432675" lon="9.789054980501533">
        <ele>68.870000000000005</ele>
        <time>2017-07-02T13:43:00Z</time>
      </trkpt>
      <trkpt lat="53.370534041896462" lon="9.780221041291952">
        <ele>64.549999999999997</ele>
        <time>2017-07-02T13:43:18Z</time>
      </trkpt>
      <trkpt lat="53.370342012494802" lon="9.774122033268213">
        <ele>60.700000000000003</ele>
        <time>2017-07-02T13:43:30Z</time>
      </trkpt>
      <trkpt lat="53.370129028335214" lon="9.767002025619149">
        <ele>51.090000000000003</ele>
        <time>2017-07-02T13:43:43Z</time>
      </trkpt>
      <trkpt lat="53.369811018928885" lon="9.757086988538504">
        <ele>39.07</ele>
        <time>2017-07-02T13:44:02Z</time>
      </trkpt>
      <trkpt lat="53.369496027007699" lon="9.751476980745792">
        <ele>39.549999999999997</ele>
        <time>2017-07-02T13:44:13Z</time>
      </trkpt>
      <trkpt lat="53.368784990161657" lon="9.74695703946054">
        <ele>36.189999999999998</ele>
        <time>2017-07-02T13:44:22Z</time>
      </trkpt>
      <trkpt lat="53.367557041347027" lon="9.74214599467814">
        <ele>27.050000000000001</ele>
        <time>2017-07-02T13:44:32Z</time>
      </trkpt>
      <trkpt lat="53.365558041259646" lon="9.735051970928907">
        <ele>22.73</ele>
        <time>2017-07-02T13:44:47Z</time>
      </trkpt>
      <trkpt lat="53.364110989496112" lon="9.729804983362556">
        <ele>20.809999999999999</ele>
        <time>2017-07-02T13:44:58Z</time>
      </trkpt>
      <trkpt lat="53.36172197945416" lon="9.721231972798705">
        <ele>20.32</ele>
        <time>2017-07-02T13:45:16Z</time>
      </trkpt>
      <trkpt lat="53.359736977145076" lon="9.714028984308243">
        <ele>16.48</ele>
        <time>2017-07-02T13:45:31Z</time>
      </trkpt>
      <trkpt lat="53.357365988194942" lon="9.7055350150913">
        <ele>19.359999999999999</ele>
        <time>2017-07-02T13:45:49Z</time>
      </trkpt>
      <trkpt lat="53.355545019730926" lon="9.698908030986786">
        <ele>20.32</ele>
        <time>2017-07-02T13:46:03Z</time>
      </trkpt>
      <trkpt lat="53.353382991626859" lon="9.69107698649168">
        <ele>23.210000000000001</ele>
        <time>2017-07-02T13:46:20Z</time>
      </trkpt>
      <trkpt lat="53.351233033463359" lon="9.683337975293398">
        <ele>28.02</ele>
        <time>2017-07-02T13:46:37Z</time>
      </trkpt>
      <trkpt lat="53.349401000887156" lon="9.67670202255249">
        <ele>37.630000000000003</ele>
        <time>2017-07-02T13:46:51Z</time>
      </trkpt>
      <trkpt lat="53.347418010234833" lon="9.669572962448001">
        <ele>43.399999999999999</ele>
        <time>2017-07-02T13:47:06Z</time>
      </trkpt>
      <trkpt lat="53.345717992633581" lon="9.663457022979856">
        <ele>43.880000000000003</ele>
        <time>2017-07-02T13:47:19Z</time>
      </trkpt>
      <trkpt lat="53.342975014820695" lon="9.653540980070829">
        <ele>47.240000000000002</ele>
        <time>2017-07-02T13:47:40Z</time>
      </trkpt>
      <trkpt lat="53.339872034266591" lon="9.642393970862031">
        <ele>45.799999999999997</ele>
        <time>2017-07-02T13:48:04Z</time>
      </trkpt>
      <trkpt lat="53.337474977597594" lon="9.633874017745256">
        <ele>34.740000000000002</ele>
        <time>2017-07-02T13:48:22Z</time>
      </trkpt>
      <trkpt lat="53.336471999064088" lon="9.630210036411881">
        <ele>32.82</ele>
        <time>2017-07-02T13:48:30Z</time>
      </trkpt>
      <trkpt lat="53.334146020933986" lon="9.621809022501111">
        <ele>30.899999999999999</ele>
        <time>2017-07-02T13:48:47Z</time>
      </trkpt>
      <trkpt lat="53.331923978403211" lon="9.61385702714324">
        <ele>29.940000000000001</ele>
        <time>2017-07-02T13:49:03Z</time>
      </trkpt>
      <trkpt lat="53.329753987491131" lon="9.606149028986692">
        <ele>29.940000000000001</ele>
        <time>2017-07-02T13:49:19Z</time>
      </trkpt>
      <trkpt lat="53.327980041503906" lon="9.60010601207614">
        <ele>30.420000000000002</ele>
        <time>2017-07-02T13:49:32Z</time>
      </trkpt>
      <trkpt lat="53.326262002810836" lon="9.595092963427305">
        <ele>29.940000000000001</ele>
        <time>2017-07-02T13:49:43Z</time>
      </trkpt>
      <trkpt lat="53.324156971648335" lon="9.589876988902688">
        <ele>29.940000000000001</ele>
        <time>2017-07-02T13:49:55Z</time>
      </trkpt>
      <trkpt lat="53.321196986362338" lon="9.583041965961456">
        <ele>30.899999999999999</ele>
        <time>2017-07-02T13:50:11Z</time>
      </trkpt>
      <trkpt lat="53.31722597591579" lon="9.573863027617335">
        <ele>32.340000000000003</ele>
        <time>2017-07-02T13:50:32Z</time>
      </trkpt>
      <trkpt lat="53.314070021733642" lon="9.566546967253089">
        <ele>37.630000000000003</ele>
        <time>2017-07-02T13:50:49Z</time>
      </trkpt>
      <trkpt lat="53.310042014345527" lon="9.557226039469242">
        <ele>38.109999999999999</ele>
        <time>2017-07-02T13:51:11Z</time>
      </trkpt>
      <trkpt lat="53.306502001360059" lon="9.549066005274653">
        <ele>39.549999999999997</ele>
        <time>2017-07-02T13:51:31Z</time>
      </trkpt>
      <trkpt lat="53.30347697250545" lon="9.542049011215568">
        <ele>38.109999999999999</ele>
        <time>2017-07-02T13:51:48Z</time>
      </trkpt>
      <trkpt lat="53.302533002570271" lon="9.539852030575275">
        <ele>38.590000000000003</ele>
        <time>2017-07-02T13:51:54Z</time>
      </trkpt>
      <trkpt lat="53.301535975188017" lon="9.537486992776394">
        <ele>39.07</ele>
        <time>2017-07-02T13:52:02Z</time>
      </trkpt>
      <trkpt lat="53.300987966358662" lon="9.535969030112028">
        <ele>38.109999999999999</ele>
        <time>2017-07-02T13:52:10Z</time>
      </trkpt>
      <trkpt lat="53.300805995240808" lon="9.535495033487678">
        <ele>37.630000000000003</ele>
        <time>2017-07-02T13:52:14Z</time>
      </trkpt>
      <trkpt lat="53.30076802521944" lon="9.535330999642611">
        <ele>37.630000000000003</ele>
        <time>2017-07-02T13:52:16Z</time>
      </trkpt>
      <trkpt lat="53.300756961107254" lon="9.535252964124084">
        <ele>37.630000000000003</ele>
        <time>2017-07-02T13:52:17Z</time>
      </trkpt>
      <trkpt lat="53.300754027441144" lon="9.535180041566491">
        <ele>38.109999999999999</ele>
        <time>2017-07-02T13:52:18Z</time>
      </trkpt>
      <trkpt lat="53.300737012177706" lon="9.534667991101742">
        <ele>36.670000000000002</ele>
        <time>2017-07-02T13:52:29Z</time>
      </trkpt>
      <trkpt lat="53.300713039934635" lon="9.534619962796569">
        <ele>34.740000000000002</ele>
        <time>2017-07-02T13:52:44Z</time>
      </trkpt>
      <trkpt lat="53.300671968609095" lon="9.534601019695401">
        <ele>31.859999999999999</ele>
        <time>2017-07-02T13:53:09Z</time>
      </trkpt>
      <trkpt lat="53.300655959174037" lon="9.534569000825286">
        <ele>28.02</ele>
        <time>2017-07-02T13:53:37Z</time>
      </trkpt>
      <trkpt lat="53.300640033558011" lon="9.534557014703751">
        <ele>23.690000000000001</ele>
        <time>2017-07-02T13:54:46Z</time>
      </trkpt>
      <trkpt lat="53.300523022189736" lon="9.534538993611932">
        <ele>66.950000000000003</ele>
        <time>2017-07-02T14:29:50Z</time>
      </trkpt>
      <trkpt lat="53.300528973340988" lon="9.534581992775202">
        <ele>57.82</ele>
        <time>2017-07-02T14:30:32Z</time>
      </trkpt>
      <trkpt lat="53.300449009984732" lon="9.534451989457011">
        <ele>57.82</ele>
        <time>2017-07-02T14:30:37Z</time>
      </trkpt>
      <trkpt lat="53.300155978649855" lon="9.533879002556205">
        <ele>49.649999999999999</ele>
        <time>2017-07-02T14:30:49Z</time>
      </trkpt>
      <trkpt lat="53.299947017803788" lon="9.533629976212978">
        <ele>47.719999999999999</ele>
        <time>2017-07-02T14:30:53Z</time>
      </trkpt>
      <trkpt lat="53.299891026690602" lon="9.533510031178594">
        <ele>47.240000000000002</ele>
        <time>2017-07-02T14:30:54Z</time>
      </trkpt>
      <trkpt lat="53.299218965694308" lon="9.531909003853798">
        <ele>43.399999999999999</ele>
        <time>2017-07-02T14:31:04Z</time>
      </trkpt>
      <trkpt lat="53.298302991315722" lon="9.529941016808152">
        <ele>40.030000000000001</ele>
        <time>2017-07-02T14:31:14Z</time>
      </trkpt>
      <trkpt lat="53.29720001667738" lon="9.527134001255035">
        <ele>38.109999999999999</ele>
        <time>2017-07-02T14:31:24Z</time>
      </trkpt>
      <trkpt lat="53.295903000980616" lon="9.522909019142389">
        <ele>38.109999999999999</ele>
        <time>2017-07-02T14:31:37Z</time>
      </trkpt>
      <trkpt lat="53.295055003836751" lon="9.519493980333209">
        <ele>38.109999999999999</ele>
        <time>2017-07-02T14:31:47Z</time>
      </trkpt>
      <trkpt lat="53.293711971491575" lon="9.513809960335493">
        <ele>35.229999999999997</ele>
        <time>2017-07-02T14:32:02Z</time>
      </trkpt>
      <trkpt lat="53.292617965489626" lon="9.509347015991807">
        <ele>31.379999999999999</ele>
        <time>2017-07-02T14:32:15Z</time>
      </trkpt>
      <trkpt lat="53.291624961420894" lon="9.504964035004377">
        <ele>31.379999999999999</ele>
        <time>2017-07-02T14:32:26Z</time>
      </trkpt>
      <trkpt lat="53.289986969903111" lon="9.49794502928853">
        <ele>28.02</ele>
        <time>2017-07-02T14:32:43Z</time>
      </trkpt>
      <trkpt lat="53.288315031677485" lon="9.490838013589382">
        <ele>24.170000000000002</ele>
        <time>2017-07-02T14:33:00Z</time>
      </trkpt>
      <trkpt lat="53.286852976307273" lon="9.485237980261445">
        <ele>20.809999999999999</ele>
        <time>2017-07-02T14:33:13Z</time>
      </trkpt>
      <trkpt lat="53.285402990877628" lon="9.481035964563489">
        <ele>18.399999999999999</ele>
        <time>2017-07-02T14:33:23Z</time>
      </trkpt>
      <trkpt lat="53.283296031877398" lon="9.476363975554705">
        <ele>21.289999999999999</ele>
        <time>2017-07-02T14:33:35Z</time>
      </trkpt>
      <trkpt lat="53.280977010726929" lon="9.472300009801984">
        <ele>21.289999999999999</ele>
        <time>2017-07-02T14:33:46Z</time>
      </trkpt>
      <trkpt lat="53.277903031557798" lon="9.467113958671689">
        <ele>23.210000000000001</ele>
        <time>2017-07-02T14:33:59Z</time>
      </trkpt>
      <trkpt lat="53.274554964154959" lon="9.461532030254602">
        <ele>23.210000000000001</ele>
        <time>2017-07-02T14:34:13Z</time>
      </trkpt>
      <trkpt lat="53.270571967586875" lon="9.454634981229901">
        <ele>22.73</ele>
        <time>2017-07-02T14:34:30Z</time>
      </trkpt>
      <trkpt lat="53.265764024108648" lon="9.446462038904429">
        <ele>23.690000000000001</ele>
        <time>2017-07-02T14:34:51Z</time>
      </trkpt>
      <trkpt lat="53.261777004227042" lon="9.439737992361188">
        <ele>19.84</ele>
        <time>2017-07-02T14:35:08Z</time>
      </trkpt>
      <trkpt lat="53.258597999811172" lon="9.43432898260653">
        <ele>17.920000000000002</ele>
        <time>2017-07-02T14:35:21Z</time>
      </trkpt>
      <trkpt lat="53.253085976466537" lon="9.424933036789298">
        <ele>19.84</ele>
        <time>2017-07-02T14:35:43Z</time>
      </trkpt>
      <trkpt lat="53.25008399784565" lon="9.419199982658029">
        <ele>20.809999999999999</ele>
        <time>2017-07-02T14:35:56Z</time>
      </trkpt>
      <trkpt lat="53.248032024130225" lon="9.41464701667428">
        <ele>21.77</ele>
        <time>2017-07-02T14:36:06Z</time>
      </trkpt>
      <trkpt lat="53.245993964374065" lon="9.40959800966084">
        <ele>23.210000000000001</ele>
        <time>2017-07-02T14:36:16Z</time>
      </trkpt>
      <trkpt lat="53.24318703263998" lon="9.402473978698254">
        <ele>23.210000000000001</ele>
        <time>2017-07-02T14:36:30Z</time>
      </trkpt>
      <trkpt lat="53.241397999227047" lon="9.397076033055782">
        <ele>23.210000000000001</ele>
        <time>2017-07-02T14:36:40Z</time>
      </trkpt>
      <trkpt lat="53.240074999630451" lon="9.391291011124849">
        <ele>23.690000000000001</ele>
        <time>2017-07-02T14:36:50Z</time>
      </trkpt>
      <trkpt lat="53.239090964198112" lon="9.384747007861733">
        <ele>23.690000000000001</ele>
        <time>2017-07-02T14:37:01Z</time>
      </trkpt>
      <trkpt lat="53.23811698704958" lon="9.377746023237705">
        <ele>23.690000000000001</ele>
        <time>2017-07-02T14:37:13Z</time>
      </trkpt>
      <trkpt lat="53.236937988549471" lon="9.36875400133431">
        <ele>24.170000000000002</ele>
        <time>2017-07-02T14:37:29Z</time>
      </trkpt>
      <trkpt lat="53.236188981682062" lon="9.360702009871602">
        <ele>26.09</ele>
        <time>2017-07-02T14:37:43Z</time>
      </trkpt>
      <trkpt lat="53.235250040888786" lon="9.355040034279227">
        <ele>27.530000000000001</ele>
        <time>2017-07-02T14:37:53Z</time>
      </trkpt>
      <trkpt lat="53.234068024903536" lon="9.350138967856765">
        <ele>28.02</ele>
        <time>2017-07-02T14:38:02Z</time>
      </trkpt>
      <trkpt lat="53.231238964945078" lon="9.340157965198159">
        <ele>26.57</ele>
        <time>2017-07-02T14:38:21Z</time>
      </trkpt>
      <trkpt lat="53.229612959548831" lon="9.335789987817407">
        <ele>30.420000000000002</ele>
        <time>2017-07-02T14:38:30Z</time>
      </trkpt>
      <trkpt lat="53.227551011368632" lon="9.331916039809585">
        <ele>28.02</ele>
        <time>2017-07-02T14:38:39Z</time>
      </trkpt>
      <trkpt lat="53.224125998094678" lon="9.326857980340719">
        <ele>18.879999999999999</ele>
        <time>2017-07-02T14:38:52Z</time>
      </trkpt>
      <trkpt lat="53.220533011481166" lon="9.32219403795898">
        <ele>19.359999999999999</ele>
        <time>2017-07-02T14:39:05Z</time>
      </trkpt>
      <trkpt lat="53.215654995292425" lon="9.316716967150569">
        <ele>26.57</ele>
        <time>2017-07-02T14:39:22Z</time>
      </trkpt>
      <trkpt lat="53.211142010986805" lon="9.311359003186226">
        <ele>26.09</ele>
        <time>2017-07-02T14:39:38Z</time>
      </trkpt>
      <trkpt lat="53.207665029913187" lon="9.30627403780818">
        <ele>26.57</ele>
        <time>2017-07-02T14:39:51Z</time>
      </trkpt>
      <trkpt lat="53.202461963519454" lon="9.298398988321424">
        <ele>23.210000000000001</ele>
        <time>2017-07-02T14:40:11Z</time>
      </trkpt>
      <trkpt lat="53.19924901239574" lon="9.293581992387772">
        <ele>22.25</ele>
        <time>2017-07-02T14:40:23Z</time>
      </trkpt>
      <trkpt lat="53.196229012683034" lon="9.288867004215717">
        <ele>20.809999999999999</ele>
        <time>2017-07-02T14:40:34Z</time>
      </trkpt>
      <trkpt lat="53.193275984376669" lon="9.284452004358172">
        <ele>21.77</ele>
        <time>2017-07-02T14:40:45Z</time>
      </trkpt>
      <trkpt lat="53.18943296559155" lon="9.278543014079332">
        <ele>19.84</ele>
        <time>2017-07-02T14:41:00Z</time>
      </trkpt>
      <trkpt lat="53.186178021132946" lon="9.274045033380389">
        <ele>22.25</ele>
        <time>2017-07-02T14:41:12Z</time>
      </trkpt>
      <trkpt lat="53.181059025228024" lon="9.267027033492923">
        <ele>22.25</ele>
        <time>2017-07-02T14:41:31Z</time>
      </trkpt>
      <trkpt lat="53.178961034864187" lon="9.264096971601248">
        <ele>20.809999999999999</ele>
        <time>2017-07-02T14:41:39Z</time>
      </trkpt>
      <trkpt lat="53.176168017089367" lon="9.25988900475204">
        <ele>19.84</ele>
        <time>2017-07-02T14:41:49Z</time>
      </trkpt>
      <trkpt lat="53.171843960881233" lon="9.253362016752362">
        <ele>19.84</ele>
        <time>2017-07-02T14:42:05Z</time>
      </trkpt>
      <trkpt lat="53.168919011950493" lon="9.249456971883774">
        <ele>18.399999999999999</ele>
        <time>2017-07-02T14:42:15Z</time>
      </trkpt>
      <trkpt lat="53.165644034743309" lon="9.245723001658917">
        <ele>17.920000000000002</ele>
        <time>2017-07-02T14:42:26Z</time>
      </trkpt>
      <trkpt lat="53.159774020314217" lon="9.239336997270584">
        <ele>22.73</ele>
        <time>2017-07-02T14:42:46Z</time>
      </trkpt>
      <trkpt lat="53.156374990940094" lon="9.236099990084767">
        <ele>20.32</ele>
        <time>2017-07-02T14:42:57Z</time>
      </trkpt>
      <trkpt lat="53.150990037247539" lon="9.231223985552788">
        <ele>17.440000000000001</ele>
        <time>2017-07-02T14:43:14Z</time>
      </trkpt>
      <trkpt lat="53.144591962918639" lon="9.225425971671939">
        <ele>15.52</ele>
        <time>2017-07-02T14:43:35Z</time>
      </trkpt>
      <trkpt lat="53.139923997223377" lon="9.221641039475799">
        <ele>16</ele>
        <time>2017-07-02T14:43:50Z</time>
      </trkpt>
      <trkpt lat="53.135635983198881" lon="9.219009960070252">
        <ele>15.52</ele>
        <time>2017-07-02T14:44:03Z</time>
      </trkpt>
      <trkpt lat="53.13021901063621" lon="9.215975040569902">
        <ele>17.920000000000002</ele>
        <time>2017-07-02T14:44:19Z</time>
      </trkpt>
      <trkpt lat="53.122880989685655" lon="9.211764978244901">
        <ele>17.440000000000001</ele>
        <time>2017-07-02T14:44:41Z</time>
      </trkpt>
      <trkpt lat="53.118689032271504" lon="9.209214029833674">
        <ele>17.440000000000001</ele>
        <time>2017-07-02T14:44:54Z</time>
      </trkpt>
      <trkpt lat="53.115762993693352" lon="9.206725023686886">
        <ele>16.48</ele>
        <time>2017-07-02T14:45:03Z</time>
      </trkpt>
      <trkpt lat="53.111824002116919" lon="9.202528037130833">
        <ele>14.08</ele>
        <time>2017-07-02T14:45:16Z</time>
      </trkpt>
      <trkpt lat="53.107329960912466" lon="9.197615990415216">
        <ele>11.67</ele>
        <time>2017-07-02T14:45:31Z</time>
      </trkpt>
      <trkpt lat="53.103191982954741" lon="9.193022036924958">
        <ele>12.630000000000001</ele>
        <time>2017-07-02T14:45:45Z</time>
      </trkpt>
      <trkpt lat="53.100041979923844" lon="9.189657038077712">
        <ele>17.920000000000002</ele>
        <time>2017-07-02T14:45:56Z</time>
      </trkpt>
      <trkpt lat="53.096519988030195" lon="9.185723997652531">
        <ele>15.039999999999999</ele>
        <time>2017-07-02T14:46:08Z</time>
      </trkpt>
      <trkpt lat="53.093158006668091" lon="9.182187002152205">
        <ele>13.6</ele>
        <time>2017-07-02T14:46:19Z</time>
      </trkpt>
      <trkpt lat="53.090231968089938" lon="9.17856702581048">
        <ele>11.19</ele>
        <time>2017-07-02T14:46:29Z</time>
      </trkpt>
      <trkpt lat="53.087859973311424" lon="9.174943026155233">
        <ele>10.710000000000001</ele>
        <time>2017-07-02T14:46:38Z</time>
      </trkpt>
      <trkpt lat="53.08535797521472" lon="9.169954033568502">
        <ele>11.19</ele>
        <time>2017-07-02T14:46:49Z</time>
      </trkpt>
      <trkpt lat="53.083366015926003" lon="9.164619036018848">
        <ele>12.15</ele>
        <time>2017-07-02T14:47:00Z</time>
      </trkpt>
      <trkpt lat="53.080496974289417" lon="9.156268984079361">
        <ele>9.75</ele>
        <time>2017-07-02T14:47:17Z</time>
      </trkpt>
      <trkpt lat="53.077581999823451" lon="9.147768979892135">
        <ele>8.789999999999999</ele>
        <time>2017-07-02T14:47:34Z</time>
      </trkpt>
      <trkpt lat="53.07502300478518" lon="9.140403969213367">
        <ele>8.789999999999999</ele>
        <time>2017-07-02T14:47:49Z</time>
      </trkpt>
      <trkpt lat="53.07291503995657" lon="9.134461032226682">
        <ele>11.67</ele>
        <time>2017-07-02T14:48:01Z</time>
      </trkpt>
      <trkpt lat="53.069038996472955" lon="9.123261971399188">
        <ele>16</ele>
        <time>2017-07-02T14:48:23Z</time>
      </trkpt>
      <trkpt lat="53.066318985074759" lon="9.115465963259339">
        <ele>16.48</ele>
        <time>2017-07-02T14:48:39Z</time>
      </trkpt>
      <trkpt lat="53.062957003712654" lon="9.105849992483854">
        <ele>13.6</ele>
        <time>2017-07-02T14:48:59Z</time>
      </trkpt>
      <trkpt lat="53.060804028064013" lon="9.099312024191022">
        <ele>13.119999999999999</ele>
        <time>2017-07-02T14:49:12Z</time>
      </trkpt>
      <trkpt lat="53.058923967182636" lon="9.09196000546217">
        <ele>12.630000000000001</ele>
        <time>2017-07-02T14:49:26Z</time>
      </trkpt>
      <trkpt lat="53.05774899199605" lon="9.085560003295541">
        <ele>10.23</ele>
        <time>2017-07-02T14:49:38Z</time>
      </trkpt>
      <trkpt lat="53.056819019839168" lon="9.078369000926614">
        <ele>10.710000000000001</ele>
        <time>2017-07-02T14:49:51Z</time>
      </trkpt>
      <trkpt lat="53.055756026878953" lon="9.068267969414592">
        <ele>12.15</ele>
        <time>2017-07-02T14:50:09Z</time>
      </trkpt>
      <trkpt lat="53.054588008671999" lon="9.057212993502617">
        <ele>15.039999999999999</ele>
        <time>2017-07-02T14:50:29Z</time>
      </trkpt>
      <trkpt lat="53.05360103957355" lon="9.048004969954491">
        <ele>15.039999999999999</ele>
        <time>2017-07-02T14:50:46Z</time>
      </trkpt>
      <trkpt lat="53.05291498079896" lon="9.039713004603982">
        <ele>13.119999999999999</ele>
        <time>2017-07-02T14:51:01Z</time>
      </trkpt>
      <trkpt lat="53.052740972489119" lon="9.033058024942875">
        <ele>8.310000000000001</ele>
        <time>2017-07-02T14:51:13Z</time>
      </trkpt>
      <trkpt lat="53.052339982241392" lon="9.021025970578194">
        <ele>8.789999999999999</ele>
        <time>2017-07-02T14:51:35Z</time>
      </trkpt>
      <trkpt lat="53.051974028348923" lon="9.014595961198211">
        <ele>15.52</ele>
        <time>2017-07-02T14:51:47Z</time>
      </trkpt>
      <trkpt lat="53.051283024251461" lon="9.010244999080896">
        <ele>14.08</ele>
        <time>2017-07-02T14:51:56Z</time>
      </trkpt>
      <trkpt lat="53.050193963572383" lon="9.006136022508144">
        <ele>8.310000000000001</ele>
        <time>2017-07-02T14:52:05Z</time>
      </trkpt>
      <trkpt lat="53.048593020066619" lon="9.001836022362113">
        <ele>1.58</ele>
        <time>2017-07-02T14:52:15Z</time>
      </trkpt>
      <trkpt lat="53.04599798284471" lon="8.995070988312364">
        <ele>0.14</ele>
        <time>2017-07-02T14:52:30Z</time>
      </trkpt>
      <trkpt lat="53.044845974072814" lon="8.992032967507839">
        <ele>0.14</ele>
        <time>2017-07-02T14:52:38Z</time>
      </trkpt>
      <trkpt lat="53.04324796423316" lon="8.987820977345109">
        <ele>-0.82</ele>
        <time>2017-07-02T14:52:51Z</time>
      </trkpt>
      <trkpt lat="53.041767971590161" lon="8.983969995751977">
        <ele>-0.82</ele>
        <time>2017-07-02T14:53:05Z</time>
      </trkpt>
      <trkpt lat="53.04090203717351" lon="8.98172096349299">
        <ele>0.14</ele>
        <time>2017-07-02T14:53:13Z</time>
      </trkpt>
      <trkpt lat="53.039452973753214" lon="8.978201989084482">
        <ele>1.1</ele>
        <time>2017-07-02T14:53:26Z</time>
      </trkpt>
      <trkpt lat="53.038601037114859" lon="8.976202988997102">
        <ele>1.1</ele>
        <time>2017-07-02T14:53:35Z</time>
      </trkpt>
      <trkpt lat="53.037598980590701" lon="8.973957980051637">
        <ele>0.14</ele>
        <time>2017-07-02T14:53:48Z</time>
      </trkpt>
      <trkpt lat="53.036888027563691" lon="8.972455020993948">
        <ele>0.62</ele>
        <time>2017-07-02T14:53:58Z</time>
      </trkpt>
      <trkpt lat="53.036500029265881" lon="8.971655974164605">
        <ele>1.1</ele>
        <time>2017-07-02T14:54:07Z</time>
      </trkpt>
      <trkpt lat="53.036324009299278" lon="8.971279039978981">
        <ele>2.06</ele>
        <time>2017-07-02T14:54:19Z</time>
      </trkpt>
      <trkpt lat="53.036037012934685" lon="8.970695994794369">
        <ele>3.5</ele>
        <time>2017-07-02T14:54:38Z</time>
      </trkpt>
      <trkpt lat="53.035829979926348" lon="8.970293998718262">
        <ele>4.46</ele>
        <time>2017-07-02T14:54:56Z</time>
      </trkpt>
      <trkpt lat="53.035565027967095" lon="8.96979502402246">
        <ele>6.39</ele>
        <time>2017-07-02T14:55:12Z</time>
      </trkpt>
      <trkpt lat="53.035308038815856" lon="8.96923603489995">
        <ele>5.91</ele>
        <time>2017-07-02T14:55:21Z</time>
      </trkpt>
      <trkpt lat="53.03469498641789" lon="8.968086959794164">
        <ele>7.35</ele>
        <time>2017-07-02T14:55:34Z</time>
      </trkpt>
      <trkpt lat="53.033842965960503" lon="8.966519962996244">
        <ele>9.75</ele>
        <time>2017-07-02T14:55:44Z</time>
      </trkpt>
      <trkpt lat="53.032557014375925" lon="8.964195996522903">
        <ele>11.67</ele>
        <time>2017-07-02T14:55:56Z</time>
      </trkpt>
      <trkpt lat="53.03125899285078" lon="8.961681006476283">
        <ele>11.67</ele>
        <time>2017-07-02T14:56:07Z</time>
      </trkpt>
      <trkpt lat="53.030079994350672" lon="8.95892595872283">
        <ele>7.83</ele>
        <time>2017-07-02T14:56:16Z</time>
      </trkpt>
      <trkpt lat="53.029026975855231" lon="8.955632038414478">
        <ele>4.46</ele>
        <time>2017-07-02T14:56:27Z</time>
      </trkpt>
      <trkpt lat="53.028411995619535" lon="8.953082012012601">
        <ele>3.5</ele>
        <time>2017-07-02T14:56:35Z</time>
      </trkpt>
      <trkpt lat="53.027815958485007" lon="8.94964199513197">
        <ele>3.02</ele>
        <time>2017-07-02T14:56:47Z</time>
      </trkpt>
      <trkpt lat="53.027581013739109" lon="8.947517015039921">
        <ele>3.02</ele>
        <time>2017-07-02T14:56:56Z</time>
      </trkpt>
      <trkpt lat="53.027503984048963" lon="8.946585031226277">
        <ele>3.02</ele>
        <time>2017-07-02T14:57:02Z</time>
      </trkpt>
      <trkpt lat="53.027427960187197" lon="8.94498098641634">
        <ele>2.54</ele>
        <time>2017-07-02T14:57:16Z</time>
      </trkpt>
      <trkpt lat="53.027417985722423" lon="8.943839035928249">
        <ele>1.58</ele>
        <time>2017-07-02T14:57:28Z</time>
      </trkpt>
      <trkpt lat="53.027421003207564" lon="8.943184996023774">
        <ele>1.58</ele>
        <time>2017-07-02T14:57:38Z</time>
      </trkpt>
      <trkpt lat="53.027427960187197" lon="8.943083994090557">
        <ele>0.62</ele>
        <time>2017-07-02T14:57:46Z</time>
      </trkpt>
      <trkpt lat="53.027422009035945" lon="8.942858017981052">
        <ele>0.14</ele>
        <time>2017-07-02T14:58:04Z</time>
      </trkpt>
      <trkpt lat="53.027428966015577" lon="8.942243959754705">
        <ele>0.14</ele>
        <time>2017-07-02T14:58:15Z</time>
      </trkpt>
      <trkpt lat="53.027448998764157" lon="8.941796030849218">
        <ele>0.14</ele>
        <time>2017-07-02T14:58:21Z</time>
      </trkpt>
      <trkpt lat="53.027462996542454" lon="8.941460000351071">
        <ele>0.14</ele>
        <time>2017-07-02T14:58:29Z</time>
      </trkpt>
      <trkpt lat="53.027469031512737" lon="8.941039983183146">
        <ele>-0.82</ele>
        <time>2017-07-02T14:58:45Z</time>
      </trkpt>
      <trkpt lat="53.027494009584188" lon="8.940677968785167">
        <ele>-1.3</ele>
        <time>2017-07-02T14:59:03Z</time>
      </trkpt>
      <trkpt lat="53.027548994868994" lon="8.939927034080029">
        <ele>-1.79</ele>
        <time>2017-07-02T14:59:12Z</time>
      </trkpt>
      <trkpt lat="53.027617977932096" lon="8.939079958945513">
        <ele>-1.3</ele>
        <time>2017-07-02T14:59:24Z</time>
      </trkpt>
      <trkpt lat="53.027667012065649" lon="8.938479982316494">
        <ele>-1.79</ele>
        <time>2017-07-02T14:59:36Z</time>
      </trkpt>
      <trkpt lat="53.027720991522074" lon="8.937977990135551">
        <ele>-1.3</ele>
        <time>2017-07-02T14:59:52Z</time>
      </trkpt>
      <trkpt lat="53.027805984020233" lon="8.937367033213377">
        <ele>-1.3</ele>
        <time>2017-07-02T15:00:01Z</time>
      </trkpt>
      <trkpt lat="53.027891982346773" lon="8.93670997582376">
        <ele>-1.3</ele>
        <time>2017-07-02T15:00:12Z</time>
      </trkpt>
      <trkpt lat="53.028001030907035" lon="8.935960968956351">
        <ele>-1.79</ele>
        <time>2017-07-02T15:00:26Z</time>
      </trkpt>
      <trkpt lat="53.028092980384827" lon="8.935284968465567">
        <ele>-0.82</ele>
        <time>2017-07-02T15:00:49Z</time>
      </trkpt>
      <trkpt lat="53.028178978711367" lon="8.934766966849566">
        <ele>0.62</ele>
        <time>2017-07-02T15:01:04Z</time>
      </trkpt>
      <trkpt lat="53.028344018384814" lon="8.933902960270643">
        <ele>0.14</ele>
        <time>2017-07-02T15:01:19Z</time>
      </trkpt>
      <trkpt lat="53.02859497256577" lon="8.932803003117442">
        <ele>0.14</ele>
        <time>2017-07-02T15:01:28Z</time>
      </trkpt>
      <trkpt lat="53.029081039130688" lon="8.930869968608022">
        <ele>-0.82</ele>
        <time>2017-07-02T15:01:38Z</time>
      </trkpt>
      <trkpt lat="53.02990498021245" lon="8.928299993276596">
        <ele>-0.82</ele>
        <time>2017-07-02T15:01:49Z</time>
      </trkpt>
      <trkpt lat="53.030988005921245" lon="8.925506975501776">
        <ele>-0.82</ele>
        <time>2017-07-02T15:02:01Z</time>
      </trkpt>
      <trkpt lat="53.032529018819332" lon="8.92240097746253">
        <ele>-1.79</ele>
        <time>2017-07-02T15:02:15Z</time>
      </trkpt>
      <trkpt lat="53.034015968441963" lon="8.9194789621979">
        <ele>-3.23</ele>
        <time>2017-07-02T15:02:27Z</time>
      </trkpt>
      <trkpt lat="53.03463002666831" lon="8.918041968718171">
        <ele>-3.23</ele>
        <time>2017-07-02T15:02:34Z</time>
      </trkpt>
      <trkpt lat="53.0349310208112" lon="8.91728600487113">
        <ele>-3.71</ele>
        <time>2017-07-02T15:02:42Z</time>
      </trkpt>
      <trkpt lat="53.035099999979138" lon="8.916892977431417">
        <ele>-3.23</ele>
        <time>2017-07-02T15:02:53Z</time>
      </trkpt>
      <trkpt lat="53.035293035209179" lon="8.916412023827434">
        <ele>-2.75</ele>
        <time>2017-07-02T15:03:03Z</time>
      </trkpt>
      <trkpt lat="53.035525968298316" lon="8.915713978931308">
        <ele>-3.23</ele>
        <time>2017-07-02T15:03:17Z</time>
      </trkpt>
      <trkpt lat="53.035776000469923" lon="8.914993973448873">
        <ele>-2.75</ele>
        <time>2017-07-02T15:03:29Z</time>
      </trkpt>
      <trkpt lat="53.036185037344694" lon="8.913796031847596">
        <ele>-2.75</ele>
        <time>2017-07-02T15:03:44Z</time>
      </trkpt>
      <trkpt lat="53.036472033709288" lon="8.912904029712081">
        <ele>-2.75</ele>
        <time>2017-07-02T15:03:56Z</time>
      </trkpt>
      <trkpt lat="53.036644030362368" lon="8.912318972870708">
        <ele>-2.75</ele>
        <time>2017-07-02T15:04:06Z</time>
      </trkpt>
      <trkpt lat="53.036841005086899" lon="8.911593016237021">
        <ele>-2.27</ele>
        <time>2017-07-02T15:04:16Z</time>
      </trkpt>
      <trkpt lat="53.037049965932965" lon="8.910805033519864">
        <ele>-2.75</ele>
        <time>2017-07-02T15:04:26Z</time>
      </trkpt>
      <trkpt lat="53.037493033334613" lon="8.909004013985395">
        <ele>-2.75</ele>
        <time>2017-07-02T15:04:39Z</time>
      </trkpt>
      <trkpt lat="53.03785203024745" lon="8.907224033027887">
        <ele>-2.27</ele>
        <time>2017-07-02T15:04:48Z</time>
      </trkpt>
      <trkpt lat="53.038298031315207" lon="8.904578033834696">
        <ele>-3.23</ele>
        <time>2017-07-02T15:05:01Z</time>
      </trkpt>
      <trkpt lat="53.03852098993957" lon="8.90291003510356">
        <ele>-4.19</ele>
        <time>2017-07-02T15:05:11Z</time>
      </trkpt>
      <trkpt lat="53.038753001019359" lon="8.900621021166444">
        <ele>-4.19</ele>
        <time>2017-07-02T15:05:24Z</time>
      </trkpt>
      <trkpt lat="53.038886021822691" lon="8.898786976933479">
        <ele>-4.67</ele>
        <time>2017-07-02T15:05:37Z</time>
      </trkpt>
      <trkpt lat="53.038940001279116" lon="8.897762037813664">
        <ele>-5.15</ele>
        <time>2017-07-02T15:05:48Z</time>
      </trkpt>
      <trkpt lat="53.038975037634373" lon="8.897001966834068">
        <ele>-4.67</ele>
        <time>2017-07-02T15:05:56Z</time>
      </trkpt>
      <trkpt lat="53.03899004124105" lon="8.896158998832107">
        <ele>-5.63</ele>
        <time>2017-07-02T15:06:09Z</time>
      </trkpt>
      <trkpt lat="53.039010995998979" lon="8.895375039428473">
        <ele>-5.63</ele>
        <time>2017-07-02T15:06:17Z</time>
      </trkpt>
      <trkpt lat="53.038991969078779" lon="8.893906027078629">
        <ele>-5.15</ele>
        <time>2017-07-02T15:06:28Z</time>
      </trkpt>
      <trkpt lat="53.038962967693806" lon="8.892863988876343">
        <ele>-4.67</ele>
        <time>2017-07-02T15:06:38Z</time>
      </trkpt>
      <trkpt lat="53.038941007107496" lon="8.892429973930121">
        <ele>-4.19</ele>
        <time>2017-07-02T15:06:48Z</time>
      </trkpt>
      <trkpt lat="53.038932038471103" lon="8.892278010025621">
        <ele>-4.19</ele>
        <time>2017-07-02T15:06:56Z</time>
      </trkpt>
      <trkpt lat="53.038903959095478" lon="8.89163201674819">
        <ele>-3.23</ele>
        <time>2017-07-02T15:07:05Z</time>
      </trkpt>
      <trkpt lat="53.038861965760589" lon="8.890782007947564">
        <ele>-2.27</ele>
        <time>2017-07-02T15:07:17Z</time>
      </trkpt>
      <trkpt lat="53.038823995739222" lon="8.890163004398346">
        <ele>-1.3</ele>
        <time>2017-07-02T15:07:28Z</time>
      </trkpt>
      <trkpt lat="53.038774961605668" lon="8.889514999464154">
        <ele>-0.82</ele>
        <time>2017-07-02T15:07:37Z</time>
      </trkpt>
      <trkpt lat="53.03873497992754" lon="8.889051983132958">
        <ele>-1.3</ele>
        <time>2017-07-02T15:07:47Z</time>
      </trkpt>
      <trkpt lat="53.038668008521199" lon="8.888394003733993">
        <ele>-0.82</ele>
        <time>2017-07-02T15:08:01Z</time>
      </trkpt>
      <trkpt lat="53.038593996316195" lon="8.887666035443544">
        <ele>0.62</ele>
        <time>2017-07-02T15:08:16Z</time>
      </trkpt>
      <trkpt lat="53.038502968847752" lon="8.886860031634569">
        <ele>1.1</ele>
        <time>2017-07-02T15:08:27Z</time>
      </trkpt>
      <trkpt lat="53.03836802020669" lon="8.885782035067678">
        <ele>1.58</ele>
        <time>2017-07-02T15:08:41Z</time>
      </trkpt>
      <trkpt lat="53.038256959989667" lon="8.884950969368219">
        <ele>1.58</ele>
        <time>2017-07-02T15:08:53Z</time>
      </trkpt>
      <trkpt lat="53.038128968328238" lon="8.884247979149222">
        <ele>3.02</ele>
        <time>2017-07-02T15:09:04Z</time>
      </trkpt>
      <trkpt lat="53.037944985553622" lon="8.883130000904203">
        <ele>3.98</ele>
        <time>2017-07-02T15:09:21Z</time>
      </trkpt>
      <trkpt lat="53.03772303275764" lon="8.881912026554346">
        <ele>3.5</ele>
        <time>2017-07-02T15:09:31Z</time>
      </trkpt>
      <trkpt lat="53.037548018619418" lon="8.881050031632185">
        <ele>2.54</ele>
        <time>2017-07-02T15:09:41Z</time>
      </trkpt>
      <trkpt lat="53.037304021418095" lon="8.879973040893674">
        <ele>2.54</ele>
        <time>2017-07-02T15:09:52Z</time>
      </trkpt>
      <trkpt lat="53.036894984543324" lon="8.878358015790582">
        <ele>1.58</ele>
        <time>2017-07-02T15:10:10Z</time>
      </trkpt>
      <trkpt lat="53.036756012588739" lon="8.877812018617988">
        <ele>0.62</ele>
        <time>2017-07-02T15:10:21Z</time>
      </trkpt>
      <trkpt lat="53.036518972367048" lon="8.876969972625375">
        <ele>0.14</ele>
        <time>2017-07-02T15:10:32Z</time>
      </trkpt>
      <trkpt lat="53.036060985177755" lon="8.875533984974027">
        <ele>-0.82</ele>
        <time>2017-07-02T15:10:47Z</time>
      </trkpt>
      <trkpt lat="53.035499984398484" lon="8.87390898540616">
        <ele>-0.82</ele>
        <time>2017-07-02T15:11:02Z</time>
      </trkpt>
      <trkpt lat="53.034872012212873" lon="8.872266970574856">
        <ele>0.62</ele>
        <time>2017-07-02T15:11:14Z</time>
      </trkpt>
      <trkpt lat="53.034096015617251" lon="8.870378024876118">
        <ele>3.5</ele>
        <time>2017-07-02T15:11:26Z</time>
      </trkpt>
      <trkpt lat="53.033135030418634" lon="8.868024973198772">
        <ele>5.91</ele>
        <time>2017-07-02T15:11:38Z</time>
      </trkpt>
      <trkpt lat="53.032313017174602" lon="8.866070983931422">
        <ele>5.91</ele>
        <time>2017-07-02T15:11:49Z</time>
      </trkpt>
      <trkpt lat="53.031803984194994" lon="8.864891985431314">
        <ele>4.46</ele>
        <time>2017-07-02T15:11:59Z</time>
      </trkpt>
      <trkpt lat="53.03162201307714" lon="8.864461993798614">
        <ele>4.94</ele>
        <time>2017-07-02T15:12:11Z</time>
      </trkpt>
      <trkpt lat="53.031477006152272" lon="8.864107020199299">
        <ele>5.42</ele>
        <time>2017-07-02T15:12:22Z</time>
      </trkpt>
      <trkpt lat="53.031337028369308" lon="8.863905016332865">
        <ele>5.91</ele>
        <time>2017-07-02T15:12:31Z</time>
      </trkpt>
      <trkpt lat="53.031132007017732" lon="8.863430013880134">
        <ele>4.46</ele>
        <time>2017-07-02T15:12:39Z</time>
      </trkpt>
      <trkpt lat="53.030795976519585" lon="8.862616969272494">
        <ele>3.98</ele>
        <time>2017-07-02T15:12:52Z</time>
      </trkpt>
      <trkpt lat="53.030199017375708" lon="8.861196991056204">
        <ele>1.58</ele>
        <time>2017-07-02T15:13:11Z</time>
      </trkpt>
      <trkpt lat="53.029607003554702" lon="8.859819006174803">
        <ele>0.14</ele>
        <time>2017-07-02T15:13:30Z</time>
      </trkpt>
      <trkpt lat="53.028951035812497" lon="8.858237005770207">
        <ele>0.62</ele>
        <time>2017-07-02T15:13:47Z</time>
      </trkpt>
      <trkpt lat="53.028461029753089" lon="8.857121961191297">
        <ele>1.1</ele>
        <time>2017-07-02T15:14:00Z</time>
      </trkpt>
      <trkpt lat="53.027379009872675" lon="8.854546034708619">
        <ele>2.06</ele>
        <time>2017-07-02T15:14:28Z</time>
      </trkpt>
      <trkpt lat="53.02680803462863" lon="8.853177018463612">
        <ele>1.58</ele>
        <time>2017-07-02T15:14:45Z</time>
      </trkpt>
      <trkpt lat="53.026505028828979" lon="8.852406973019242">
        <ele>2.54</ele>
        <time>2017-07-02T15:14:58Z</time>
      </trkpt>
      <trkpt lat="53.026090962812304" lon="8.851167960092425">
        <ele>2.54</ele>
        <time>2017-07-02T15:15:16Z</time>
      </trkpt>
      <trkpt lat="53.025906980037689" lon="8.850578963756561">
        <ele>3.5</ele>
        <time>2017-07-02T15:15:26Z</time>
      </trkpt>
      <trkpt lat="53.02545796148479" lon="8.849085979163647">
        <ele>3.98</ele>
        <time>2017-07-02T15:15:43Z</time>
      </trkpt>
      <trkpt lat="53.025040961802006" lon="8.847389984875917">
        <ele>2.06</ele>
        <time>2017-07-02T15:15:59Z</time>
      </trkpt>
      <trkpt lat="53.024784978479147" lon="8.846148960292339">
        <ele>1.1</ele>
        <time>2017-07-02T15:16:11Z</time>
      </trkpt>
      <trkpt lat="53.024713983759284" lon="8.845827011391521">
        <ele>1.1</ele>
        <time>2017-07-02T15:16:16Z</time>
      </trkpt>
      <trkpt lat="53.02453201264143" lon="8.844787990674377">
        <ele>0.14</ele>
        <time>2017-07-02T15:16:29Z</time>
      </trkpt>
      <trkpt lat="53.024355992674828" lon="8.843668000772595">
        <ele>-0.82</ele>
        <time>2017-07-02T15:16:40Z</time>
      </trkpt>
      <trkpt lat="53.024085005745292" lon="8.841488035395742">
        <ele>-1.79</ele>
        <time>2017-07-02T15:16:59Z</time>
      </trkpt>
      <trkpt lat="53.023931030184031" lon="8.839206984266639">
        <ele>-1.79</ele>
        <time>2017-07-02T15:17:19Z</time>
      </trkpt>
      <trkpt lat="53.023862969130278" lon="8.837466984987259">
        <ele>-1.3</ele>
        <time>2017-07-02T15:17:36Z</time>
      </trkpt>
      <trkpt lat="53.023855006322265" lon="8.836024040356278">
        <ele>-1.3</ele>
        <time>2017-07-02T15:17:51Z</time>
      </trkpt>
      <trkpt lat="53.023849977180362" lon="8.834346989169717">
        <ele>0.14</ele>
        <time>2017-07-02T15:18:09Z</time>
      </trkpt>
      <trkpt lat="53.023850983008742" lon="8.833163967356086">
        <ele>-0.34</ele>
        <time>2017-07-02T15:18:21Z</time>
      </trkpt>
      <trkpt lat="53.023855006322265" lon="8.830470023676753">
        <ele>-0.34</ele>
        <time>2017-07-02T15:18:43Z</time>
      </trkpt>
      <trkpt lat="53.023858023807406" lon="8.829793017357588">
        <ele>-0.82</ele>
        <time>2017-07-02T15:18:52Z</time>
      </trkpt>
      <trkpt lat="53.02384695969522" lon="8.829341987147927">
        <ele>-0.82</ele>
        <time>2017-07-02T15:18:58Z</time>
      </trkpt>
      <trkpt lat="53.023849977180362" lon="8.828430958092213">
        <ele>-0.34</ele>
        <time>2017-07-02T15:19:12Z</time>
      </trkpt>
      <trkpt lat="53.023859029635787" lon="8.826987007632852">
        <ele>-0.82</ele>
        <time>2017-07-02T15:19:30Z</time>
      </trkpt>
      <trkpt lat="53.023852994665504" lon="8.826366998255253">
        <ele>-1.3</ele>
        <time>2017-07-02T15:19:41Z</time>
      </trkpt>
      <trkpt lat="53.023870009928942" lon="8.826014036312699">
        <ele>-0.34</ele>
        <time>2017-07-02T15:19:50Z</time>
      </trkpt>
      <trkpt lat="53.023874033242464" lon="8.825223036110401">
        <ele>-0.34</ele>
        <time>2017-07-02T15:20:01Z</time>
      </trkpt>
      <trkpt lat="53.023865986615419" lon="8.823843039572239">
        <ele>-1.3</ele>
        <time>2017-07-02T15:20:17Z</time>
      </trkpt>
      <trkpt lat="53.023861041292548" lon="8.822351982817054">
        <ele>-2.27</ele>
        <time>2017-07-02T15:20:36Z</time>
      </trkpt>
      <trkpt lat="53.023855006322265" lon="8.821518989279866">
        <ele>-1.79</ele>
        <time>2017-07-02T15:20:49Z</time>
      </trkpt>
      <trkpt lat="53.023869004100561" lon="8.820981038734317">
        <ele>-2.27</ele>
        <time>2017-07-02T15:20:58Z</time>
      </trkpt>
      <trkpt lat="53.023877972736955" lon="8.820349965244532">
        <ele>-1.79</ele>
        <time>2017-07-02T15:21:09Z</time>
      </trkpt>
      <trkpt lat="53.023872021585703" lon="8.819716041907668">
        <ele>-0.82</ele>
        <time>2017-07-02T15:21:21Z</time>
      </trkpt>
      <trkpt lat="53.023878978565335" lon="8.819148000329733">
        <ele>-0.82</ele>
        <time>2017-07-02T15:21:30Z</time>
      </trkpt>
      <trkpt lat="53.023878978565335" lon="8.818473005667329">
        <ele>-0.82</ele>
        <time>2017-07-02T15:21:41Z</time>
      </trkpt>
      <trkpt lat="53.023874033242464" lon="8.817864982411265">
        <ele>-0.82</ele>
        <time>2017-07-02T15:21:50Z</time>
      </trkpt>
      <trkpt lat="53.02388702519238" lon="8.817675970494747">
        <ele>-0.82</ele>
        <time>2017-07-02T15:22:04Z</time>
      </trkpt>
      <trkpt lat="53.023898005485535" lon="8.817648980766535">
        <ele>-0.82</ele>
        <time>2017-07-02T15:22:06Z</time>
      </trkpt>
      <trkpt lat="53.023922983556986" lon="8.817585026845336">
        <ele>-0.82</ele>
        <time>2017-07-02T15:22:09Z</time>
      </trkpt>
      <trkpt lat="53.023921977728605" lon="8.817533981055021">
        <ele>-0.82</ele>
        <time>2017-07-02T15:22:10Z</time>
      </trkpt>
      <trkpt lat="53.023923989385366" lon="8.817477989941835">
        <ele>-0.34</ele>
        <time>2017-07-02T15:22:11Z</time>
      </trkpt>
      <trkpt lat="53.023939998820424" lon="8.816405022516847">
        <ele>-0.82</ele>
        <time>2017-07-02T15:22:24Z</time>
      </trkpt>
      <trkpt lat="53.023949973285198" lon="8.81527598015964">
        <ele>-0.34</ele>
        <time>2017-07-02T15:22:36Z</time>
      </trkpt>
      <trkpt lat="53.023979980498552" lon="8.81469301879406">
        <ele>-0.34</ele>
        <time>2017-07-02T15:22:46Z</time>
      </trkpt>
      <trkpt lat="53.023960031569004" lon="8.813928002491593">
        <ele>-0.34</ele>
        <time>2017-07-02T15:22:57Z</time>
      </trkpt>
      <trkpt lat="53.023945027962327" lon="8.81303901784122">
        <ele>-0.34</ele>
        <time>2017-07-02T15:23:08Z</time>
      </trkpt>
      <trkpt lat="53.023908985778689" lon="8.811167003586888">
        <ele>-0.82</ele>
        <time>2017-07-02T15:23:20Z</time>
      </trkpt>
      <trkpt lat="53.023822987452149" lon="8.80848697386682">
        <ele>-2.27</ele>
        <time>2017-07-02T15:23:35Z</time>
      </trkpt>
      <trkpt lat="53.0237150285393" lon="8.806268032640219">
        <ele>-3.23</ele>
        <time>2017-07-02T15:23:47Z</time>
      </trkpt>
      <trkpt lat="53.023481005802751" lon="8.802764983847737">
        <ele>-2.75</ele>
        <time>2017-07-02T15:24:02Z</time>
      </trkpt>
      <trkpt lat="53.023121003061533" lon="8.798778969794512">
        <ele>-3.71</ele>
        <time>2017-07-02T15:24:16Z</time>
      </trkpt>
      <trkpt lat="53.022632002830505" lon="8.79441199824214">
        <ele>-3.23</ele>
        <time>2017-07-02T15:24:30Z</time>
      </trkpt>
      <trkpt lat="53.021779982373118" lon="8.788580959662795">
        <ele>-3.23</ele>
        <time>2017-07-02T15:24:47Z</time>
      </trkpt>
      <trkpt lat="53.020984958857298" lon="8.784067975357175">
        <ele>-2.75</ele>
        <time>2017-07-02T15:25:00Z</time>
      </trkpt>
      <trkpt lat="53.01984996534884" lon="8.778614960610867">
        <ele>-0.34</ele>
        <time>2017-07-02T15:25:15Z</time>
      </trkpt>
      <trkpt lat="53.018166963011026" lon="8.771799970418215">
        <ele>2.54</ele>
        <time>2017-07-02T15:25:34Z</time>
      </trkpt>
      <trkpt lat="53.015930000692606" lon="8.763814028352499">
        <ele>0.14</ele>
        <time>2017-07-02T15:25:56Z</time>
      </trkpt>
      <trkpt lat="53.014422012493014" lon="8.75754302367568">
        <ele>0.14</ele>
        <time>2017-07-02T15:26:13Z</time>
      </trkpt>
      <trkpt lat="53.013172019273043" lon="8.751301020383835">
        <ele>0.62</ele>
        <time>2017-07-02T15:26:29Z</time>
      </trkpt>
      <trkpt lat="53.01209301687777" lon="8.744257958605886">
        <ele>2.06</ele>
        <time>2017-07-02T15:26:47Z</time>
      </trkpt>
      <trkpt lat="53.011331018060446" lon="8.737786961719394">
        <ele>5.42</ele>
        <time>2017-07-02T15:27:04Z</time>
      </trkpt>
      <trkpt lat="53.010527025908232" lon="8.731711003929377">
        <ele>7.35</ele>
        <time>2017-07-02T15:27:21Z</time>
      </trkpt>
      <trkpt lat="53.009387003257871" lon="8.725130036473274">
        <ele>4.94</ele>
        <time>2017-07-02T15:27:40Z</time>
      </trkpt>
      <trkpt lat="53.008257038891315" lon="8.719656988978386">
        <ele>3.98</ele>
        <time>2017-07-02T15:27:55Z</time>
      </trkpt>
      <trkpt lat="53.007049961015582" lon="8.713524034246802">
        <ele>5.42</ele>
        <time>2017-07-02T15:28:12Z</time>
      </trkpt>
      <trkpt lat="53.006137004122138" lon="8.707723002880812">
        <ele>5.91</ele>
        <time>2017-07-02T15:28:28Z</time>
      </trkpt>
      <trkpt lat="53.005422027781606" lon="8.701907973736525">
        <ele>7.83</ele>
        <time>2017-07-02T15:28:44Z</time>
      </trkpt>
      <trkpt lat="53.005015002563596" lon="8.697906034067273">
        <ele>10.710000000000001</ele>
        <time>2017-07-02T15:28:54Z</time>
      </trkpt>
      <trkpt lat="53.004417037591338" lon="8.693234967067838">
        <ele>12.15</ele>
        <time>2017-07-02T15:29:07Z</time>
      </trkpt>
      <trkpt lat="53.003398971632123" lon="8.687163032591343">
        <ele>12.15</ele>
        <time>2017-07-02T15:29:25Z</time>
      </trkpt>
      <trkpt lat="53.001789981499314" lon="8.679758962243795">
        <ele>12.15</ele>
        <time>2017-07-02T15:29:46Z</time>
      </trkpt>
      <trkpt lat="52.999841021373868" lon="8.672942966222763">
        <ele>9.75</ele>
        <time>2017-07-02T15:30:06Z</time>
      </trkpt>
      <trkpt lat="52.998454989865422" lon="8.668896015733481">
        <ele>6.87</ele>
        <time>2017-07-02T15:30:17Z</time>
      </trkpt>
      <trkpt lat="52.996910959482193" lon="8.664732975885272">
        <ele>6.39</ele>
        <time>2017-07-02T15:30:27Z</time>
      </trkpt>
      <trkpt lat="52.994466964155436" lon="8.65877503529191">
        <ele>7.35</ele>
        <time>2017-07-02T15:30:41Z</time>
      </trkpt>
      <trkpt lat="52.990655964240432" lon="8.650692030787468">
        <ele>6.87</ele>
        <time>2017-07-02T15:31:01Z</time>
      </trkpt>
      <trkpt lat="52.98738501034677" lon="8.64438297227025">
        <ele>7.35</ele>
        <time>2017-07-02T15:31:17Z</time>
      </trkpt>
      <trkpt lat="52.984027974307537" lon="8.638116996735334">
        <ele>7.83</ele>
        <time>2017-07-02T15:31:32Z</time>
      </trkpt>
      <trkpt lat="52.980320993810892" lon="8.63131801597774">
        <ele>10.710000000000001</ele>
        <time>2017-07-02T15:31:48Z</time>
      </trkpt>
      <trkpt lat="52.976753991097212" lon="8.624516017735004">
        <ele>12.630000000000001</ele>
        <time>2017-07-02T15:32:04Z</time>
      </trkpt>
      <trkpt lat="52.973545985296369" lon="8.617986012250185">
        <ele>12.15</ele>
        <time>2017-07-02T15:32:19Z</time>
      </trkpt>
      <trkpt lat="52.97034895978868" lon="8.610852006822825">
        <ele>12.15</ele>
        <time>2017-07-02T15:32:35Z</time>
      </trkpt>
      <trkpt lat="52.969010034576058" lon="8.607668979093432">
        <ele>15.039999999999999</ele>
        <time>2017-07-02T15:32:43Z</time>
      </trkpt>
      <trkpt lat="52.966927969828248" lon="8.602358037605882">
        <ele>21.289999999999999</ele>
        <time>2017-07-02T15:32:56Z</time>
      </trkpt>
      <trkpt lat="52.964759990572929" lon="8.596221981570125">
        <ele>26.57</ele>
        <time>2017-07-02T15:33:10Z</time>
      </trkpt>
      <trkpt lat="52.96256703324616" lon="8.589469017460942">
        <ele>28.02</ele>
        <time>2017-07-02T15:33:25Z</time>
      </trkpt>
      <trkpt lat="52.960521010681987" lon="8.582520000636578">
        <ele>24.170000000000002</ele>
        <time>2017-07-02T15:33:39Z</time>
      </trkpt>
      <trkpt lat="52.958800038322806" lon="8.575915982946754">
        <ele>20.809999999999999</ele>
        <time>2017-07-02T15:33:52Z</time>
      </trkpt>
      <trkpt lat="52.956884019076824" lon="8.568139001727104">
        <ele>17.920000000000002</ele>
        <time>2017-07-02T15:34:07Z</time>
      </trkpt>
      <trkpt lat="52.954931035637856" lon="8.559992965310812">
        <ele>21.77</ele>
        <time>2017-07-02T15:34:23Z</time>
      </trkpt>
      <trkpt lat="52.952884007245302" lon="8.551431018859148">
        <ele>28.98</ele>
        <time>2017-07-02T15:34:40Z</time>
      </trkpt>
      <trkpt lat="52.950461972504854" lon="8.541992995887995">
        <ele>32.82</ele>
        <time>2017-07-02T15:34:59Z</time>
      </trkpt>
      <trkpt lat="52.947564013302326" lon="8.532193964347243">
        <ele>33.299999999999997</ele>
        <time>2017-07-02T15:35:19Z</time>
      </trkpt>
      <trkpt lat="52.944936035200953" lon="8.524696016684175">
        <ele>33.299999999999997</ele>
        <time>2017-07-02T15:35:35Z</time>
      </trkpt>
      <trkpt lat="52.941795000806451" lon="8.517070999369025">
        <ele>33.299999999999997</ele>
        <time>2017-07-02T15:35:52Z</time>
      </trkpt>
      <trkpt lat="52.938275020569563" lon="8.509879997000098">
        <ele>34.259999999999998</ele>
        <time>2017-07-02T15:36:09Z</time>
      </trkpt>
      <trkpt lat="52.934934999793768" lon="8.504067985340953">
        <ele>33.299999999999997</ele>
        <time>2017-07-02T15:36:24Z</time>
      </trkpt>
      <trkpt lat="52.93085603043437" lon="8.497841991484165">
        <ele>33.299999999999997</ele>
        <time>2017-07-02T15:36:41Z</time>
      </trkpt>
      <trkpt lat="52.926944028586149" lon="8.49168699234724">
        <ele>32.340000000000003</ele>
        <time>2017-07-02T15:36:57Z</time>
      </trkpt>
      <trkpt lat="52.924137013033032" lon="8.486426007002592">
        <ele>31.379999999999999</ele>
        <time>2017-07-02T15:37:10Z</time>
      </trkpt>
      <trkpt lat="52.921858979389071" lon="8.481086986139417">
        <ele>29.940000000000001</ele>
        <time>2017-07-02T15:37:22Z</time>
      </trkpt>
      <trkpt lat="52.919931979849935" lon="8.475306993350387">
        <ele>26.09</ele>
        <time>2017-07-02T15:37:34Z</time>
      </trkpt>
      <trkpt lat="52.918391972780228" lon="8.469238998368383">
        <ele>25.129999999999999</ele>
        <time>2017-07-02T15:37:46Z</time>
      </trkpt>
      <trkpt lat="52.917095962911844" lon="8.462546970695257">
        <ele>29.460000000000001</ele>
        <time>2017-07-02T15:37:59Z</time>
      </trkpt>
      <trkpt lat="52.916055014356971" lon="8.454873003065586">
        <ele>25.129999999999999</ele>
        <time>2017-07-02T15:38:13Z</time>
      </trkpt>
      <trkpt lat="52.915384965017438" lon="8.447510004043579">
        <ele>19.84</ele>
        <time>2017-07-02T15:38:26Z</time>
      </trkpt>
      <trkpt lat="52.914838967844844" lon="8.437519026920199">
        <ele>15.52</ele>
        <time>2017-07-02T15:38:44Z</time>
      </trkpt>
      <trkpt lat="52.914608968421817" lon="8.429353963583708">
        <ele>14.56</ele>
        <time>2017-07-02T15:38:59Z</time>
      </trkpt>
      <trkpt lat="52.914459016174078" lon="8.421092005446553">
        <ele>13.6</ele>
        <time>2017-07-02T15:39:14Z</time>
      </trkpt>
      <trkpt lat="52.914307974278927" lon="8.413657005876303">
        <ele>14.56</ele>
        <time>2017-07-02T15:39:28Z</time>
      </trkpt>
      <trkpt lat="52.914175037294626" lon="8.408514959737659">
        <ele>14.56</ele>
        <time>2017-07-02T15:39:39Z</time>
      </trkpt>
      <trkpt lat="52.913899021223187" lon="8.401846988126636">
        <ele>15.039999999999999</ele>
        <time>2017-07-02T15:39:52Z</time>
      </trkpt>
      <trkpt lat="52.91341102682054" lon="8.394731003791094">
        <ele>16</ele>
        <time>2017-07-02T15:40:05Z</time>
      </trkpt>
      <trkpt lat="52.912712981924415" lon="8.387262979522348">
        <ele>16.960000000000001</ele>
        <time>2017-07-02T15:40:18Z</time>
      </trkpt>
      <trkpt lat="52.911484027281404" lon="8.378381012007594">
        <ele>16.960000000000001</ele>
        <time>2017-07-02T15:40:34Z</time>
      </trkpt>
      <trkpt lat="52.909700023010373" lon="8.368749031797051">
        <ele>17.920000000000002</ele>
        <time>2017-07-02T15:40:52Z</time>
      </trkpt>
      <trkpt lat="52.9076730273664" lon="8.360081976279616">
        <ele>18.399999999999999</ele>
        <time>2017-07-02T15:41:09Z</time>
      </trkpt>
      <trkpt lat="52.905836971476674" lon="8.353583989664912">
        <ele>18.879999999999999</ele>
        <time>2017-07-02T15:41:22Z</time>
      </trkpt>
      <trkpt lat="52.903480986133218" lon="8.346147984266281">
        <ele>19.84</ele>
        <time>2017-07-02T15:41:37Z</time>
      </trkpt>
      <trkpt lat="52.900496022775769" lon="8.338207975029945">
        <ele>21.77</ele>
        <time>2017-07-02T15:41:54Z</time>
      </trkpt>
      <trkpt lat="52.898866999894381" lon="8.334409967064858">
        <ele>22.73</ele>
        <time>2017-07-02T15:42:03Z</time>
      </trkpt>
      <trkpt lat="52.897003032267094" lon="8.330361004918814">
        <ele>25.609999999999999</ele>
        <time>2017-07-02T15:42:12Z</time>
      </trkpt>
      <trkpt lat="52.893455978482962" lon="8.322307001799345">
        <ele>31.379999999999999</ele>
        <time>2017-07-02T15:42:29Z</time>
      </trkpt>
      <trkpt lat="52.8909379709512" lon="8.315323032438755">
        <ele>32.340000000000003</ele>
        <time>2017-07-02T15:42:43Z</time>
      </trkpt>
      <trkpt lat="52.889151033014059" lon="8.308901991695166">
        <ele>32.82</ele>
        <time>2017-07-02T15:42:55Z</time>
      </trkpt>
      <trkpt lat="52.887633992359042" lon="8.301658015698195">
        <ele>34.259999999999998</ele>
        <time>2017-07-02T15:43:08Z</time>
      </trkpt>
      <trkpt lat="52.886606035754085" lon="8.294314965605736">
        <ele>35.229999999999997</ele>
        <time>2017-07-02T15:43:21Z</time>
      </trkpt>
      <trkpt lat="52.885525021702051" lon="8.28478398732841">
        <ele>35.710000000000001</ele>
        <time>2017-07-02T15:43:38Z</time>
      </trkpt>
      <trkpt lat="52.884308975189924" lon="8.277790965512395">
        <ele>34.259999999999998</ele>
        <time>2017-07-02T15:43:51Z</time>
      </trkpt>
      <trkpt lat="52.882825965061784" lon="8.272012984380126">
        <ele>30.899999999999999</ele>
        <time>2017-07-02T15:44:02Z</time>
      </trkpt>
      <trkpt lat="52.880825037136674" lon="8.266049008816481">
        <ele>26.57</ele>
        <time>2017-07-02T15:44:14Z</time>
      </trkpt>
      <trkpt lat="52.878096979111433" lon="8.259562002494931">
        <ele>25.129999999999999</ele>
        <time>2017-07-02T15:44:28Z</time>
      </trkpt>
      <trkpt lat="52.87624198012054" lon="8.255819985643029">
        <ele>26.57</ele>
        <time>2017-07-02T15:44:36Z</time>
      </trkpt>
      <trkpt lat="52.873860010877252" lon="8.251553010195494">
        <ele>29.460000000000001</ele>
        <time>2017-07-02T15:44:46Z</time>
      </trkpt>
      <trkpt lat="52.870391998440027" lon="8.246156992390752">
        <ele>32.82</ele>
        <time>2017-07-02T15:45:00Z</time>
      </trkpt>
      <trkpt lat="52.867917995899916" lon="8.242808002978563">
        <ele>36.189999999999998</ele>
        <time>2017-07-02T15:45:10Z</time>
      </trkpt>
      <trkpt lat="52.864939989522099" lon="8.239123988896608">
        <ele>38.590000000000003</ele>
        <time>2017-07-02T15:45:21Z</time>
      </trkpt>
      <trkpt lat="52.860963027924299" lon="8.234713012352586">
        <ele>41.469999999999999</ele>
        <time>2017-07-02T15:45:35Z</time>
      </trkpt>
      <trkpt lat="52.856619022786617" lon="8.230475038290024">
        <ele>49.649999999999999</ele>
        <time>2017-07-02T15:45:49Z</time>
      </trkpt>
      <trkpt lat="52.852146020159125" lon="8.226672001183033">
        <ele>55.409999999999997</ele>
        <time>2017-07-02T15:46:03Z</time>
      </trkpt>
      <trkpt lat="52.847781982272863" lon="8.223601961508393">
        <ele>52.530000000000001</ele>
        <time>2017-07-02T15:46:16Z</time>
      </trkpt>
      <trkpt lat="52.841927977278829" lon="8.220123974606395">
        <ele>51.57</ele>
        <time>2017-07-02T15:46:33Z</time>
      </trkpt>
      <trkpt lat="52.836811998859048" lon="8.217738987877965">
        <ele>51.57</ele>
        <time>2017-07-02T15:46:48Z</time>
      </trkpt>
      <trkpt lat="52.831553025171161" lon="8.215863034129143">
        <ele>52.530000000000001</ele>
        <time>2017-07-02T15:47:03Z</time>
      </trkpt>
      <trkpt lat="52.82517297193408" lon="8.213896974921227">
        <ele>51.57</ele>
        <time>2017-07-02T15:47:21Z</time>
      </trkpt>
      <trkpt lat="52.819869993254542" lon="8.212465010583401">
        <ele>49.649999999999999</ele>
        <time>2017-07-02T15:47:36Z</time>
      </trkpt>
      <trkpt lat="52.815618021413684" lon="8.2112389896065">
        <ele>47.719999999999999</ele>
        <time>2017-07-02T15:47:48Z</time>
      </trkpt>
      <trkpt lat="52.809595037251711" lon="8.209618013352156">
        <ele>46.759999999999998</ele>
        <time>2017-07-02T15:48:05Z</time>
      </trkpt>
      <trkpt lat="52.805631989613175" lon="8.208316974341869">
        <ele>46.280000000000001</ele>
        <time>2017-07-02T15:48:16Z</time>
      </trkpt>
      <trkpt lat="52.800648026168346" lon="8.206646963953972">
        <ele>42.920000000000002</ele>
        <time>2017-07-02T15:48:30Z</time>
      </trkpt>
      <trkpt lat="52.795804040506482" lon="8.204778973013163">
        <ele>37.149999999999999</ele>
        <time>2017-07-02T15:48:44Z</time>
      </trkpt>
      <trkpt lat="52.792974980548024" lon="8.203607015311718">
        <ele>34.740000000000002</ele>
        <time>2017-07-02T15:48:53Z</time>
      </trkpt>
      <trkpt lat="52.78927001170814" lon="8.201920995488763">
        <ele>34.259999999999998</ele>
        <time>2017-07-02T15:49:04Z</time>
      </trkpt>
      <trkpt lat="52.783049969002604" lon="8.198859002441168">
        <ele>32.340000000000003</ele>
        <time>2017-07-02T15:49:22Z</time>
      </trkpt>
      <trkpt lat="52.778263986110687" lon="8.196337977424264">
        <ele>31.379999999999999</ele>
        <time>2017-07-02T15:49:36Z</time>
      </trkpt>
      <trkpt lat="52.773539023473859" lon="8.193669011816382">
        <ele>31.859999999999999</ele>
        <time>2017-07-02T15:49:50Z</time>
      </trkpt>
      <trkpt lat="52.766854036599398" lon="8.189635975286365">
        <ele>28.98</ele>
        <time>2017-07-02T15:50:10Z</time>
      </trkpt>
      <trkpt lat="52.76258597150445" lon="8.186992993578315">
        <ele>27.530000000000001</ele>
        <time>2017-07-02T15:50:23Z</time>
      </trkpt>
      <trkpt lat="52.757435040548444" lon="8.184008030220866">
        <ele>27.050000000000001</ele>
        <time>2017-07-02T15:50:38Z</time>
      </trkpt>
      <trkpt lat="52.749989982694387" lon="8.180003995075822">
        <ele>27.530000000000001</ele>
        <time>2017-07-02T15:50:59Z</time>
      </trkpt>
      <trkpt lat="52.743945959955454" lon="8.177349027246237">
        <ele>27.530000000000001</ele>
        <time>2017-07-02T15:51:16Z</time>
      </trkpt>
      <trkpt lat="52.737772017717361" lon="8.175234021618962">
        <ele>27.050000000000001</ele>
        <time>2017-07-02T15:51:33Z</time>
      </trkpt>
      <trkpt lat="52.73257196880877" lon="8.173924013972282">
        <ele>24.649999999999999</ele>
        <time>2017-07-02T15:51:47Z</time>
      </trkpt>
      <trkpt lat="52.726702038198709" lon="8.172990018501878">
        <ele>22.73</ele>
        <time>2017-07-02T15:52:03Z</time>
      </trkpt>
      <trkpt lat="52.720866976305842" lon="8.172620963305235">
        <ele>21.77</ele>
        <time>2017-07-02T15:52:19Z</time>
      </trkpt>
      <trkpt lat="52.715786034241319" lon="8.172636972740293">
        <ele>23.210000000000001</ele>
        <time>2017-07-02T15:52:33Z</time>
      </trkpt>
      <trkpt lat="52.710423041135073" lon="8.172842999920249">
        <ele>22.73</ele>
        <time>2017-07-02T15:52:48Z</time>
      </trkpt>
      <trkpt lat="52.703374028205872" lon="8.173142988234758">
        <ele>22.25</ele>
        <time>2017-07-02T15:53:07Z</time>
      </trkpt>
      <trkpt lat="52.695605009794235" lon="8.173272991552949">
        <ele>22.25</ele>
        <time>2017-07-02T15:53:28Z</time>
      </trkpt>
      <trkpt lat="52.691673981025815" lon="8.173104012385011">
        <ele>22.73</ele>
        <time>2017-07-02T15:53:39Z</time>
      </trkpt>
      <trkpt lat="52.686228007078171" lon="8.17267200909555">
        <ele>23.210000000000001</ele>
        <time>2017-07-02T15:53:54Z</time>
      </trkpt>
      <trkpt lat="52.682119030505419" lon="8.172085024416447">
        <ele>23.210000000000001</ele>
        <time>2017-07-02T15:54:05Z</time>
      </trkpt>
      <trkpt lat="52.676089005544782" lon="8.170734029263258">
        <ele>23.210000000000001</ele>
        <time>2017-07-02T15:54:21Z</time>
      </trkpt>
      <trkpt lat="52.672169040888548" lon="8.16957900300622">
        <ele>24.170000000000002</ele>
        <time>2017-07-02T15:54:32Z</time>
      </trkpt>
      <trkpt lat="52.666981983929873" lon="8.16768997348845">
        <ele>27.530000000000001</ele>
        <time>2017-07-02T15:54:47Z</time>
      </trkpt>
      <trkpt lat="52.65986499376595" lon="8.164364034309983">
        <ele>22.73</ele>
        <time>2017-07-02T15:55:08Z</time>
      </trkpt>
      <trkpt lat="52.654216010123491" lon="8.161120992153883">
        <ele>22.25</ele>
        <time>2017-07-02T15:55:25Z</time>
      </trkpt>
      <trkpt lat="52.648334009572864" lon="8.157343016937375">
        <ele>23.210000000000001</ele>
        <time>2017-07-02T15:55:43Z</time>
      </trkpt>
      <trkpt lat="52.641921015456319" lon="8.152568014338613">
        <ele>22.25</ele>
        <time>2017-07-02T15:56:03Z</time>
      </trkpt>
      <trkpt lat="52.63595100492239" lon="8.147628977894783">
        <ele>20.809999999999999</ele>
        <time>2017-07-02T15:56:22Z</time>
      </trkpt>
      <trkpt lat="52.631035018712282" lon="8.143198974430561">
        <ele>20.32</ele>
        <time>2017-07-02T15:56:38Z</time>
      </trkpt>
      <trkpt lat="52.625294001773" lon="8.137662978842855">
        <ele>20.32</ele>
        <time>2017-07-02T15:56:57Z</time>
      </trkpt>
      <trkpt lat="52.620854023844004" lon="8.133275974541903">
        <ele>20.809999999999999</ele>
        <time>2017-07-02T15:57:12Z</time>
      </trkpt>
      <trkpt lat="52.617680970579386" lon="8.130048019811511">
        <ele>21.289999999999999</ele>
        <time>2017-07-02T15:57:23Z</time>
      </trkpt>
      <trkpt lat="52.615983970463276" lon="8.12830600887537">
        <ele>21.77</ele>
        <time>2017-07-02T15:57:30Z</time>
      </trkpt>
      <trkpt lat="52.615502011030912" lon="8.127745008096099">
        <ele>20.809999999999999</ele>
        <time>2017-07-02T15:57:33Z</time>
      </trkpt>
      <trkpt lat="52.615410983562469" lon="8.127587009221315">
        <ele>20.32</ele>
        <time>2017-07-02T15:57:34Z</time>
      </trkpt>
      <trkpt lat="52.615345017984509" lon="8.127423981204629">
        <ele>19.84</ele>
        <time>2017-07-02T15:57:35Z</time>
      </trkpt>
      <trkpt lat="52.61530302464962" lon="8.127277968451381">
        <ele>19.84</ele>
        <time>2017-07-02T15:57:36Z</time>
      </trkpt>
      <trkpt lat="52.615277962759137" lon="8.127149976789951">
        <ele>19.84</ele>
        <time>2017-07-02T15:57:37Z</time>
      </trkpt>
      <trkpt lat="52.615261031314731" lon="8.127017961815">
        <ele>19.84</ele>
        <time>2017-07-02T15:57:38Z</time>
      </trkpt>
      <trkpt lat="52.615252984687686" lon="8.126890975981951">
        <ele>19.359999999999999</ele>
        <time>2017-07-02T15:57:39Z</time>
      </trkpt>
      <trkpt lat="52.615186013281345" lon="8.126403987407684">
        <ele>19.359999999999999</ele>
        <time>2017-07-02T15:57:43Z</time>
      </trkpt>
      <trkpt lat="52.615136979147792" lon="8.126258980482817">
        <ele>18.879999999999999</ele>
        <time>2017-07-02T15:57:44Z</time>
      </trkpt>
      <trkpt lat="52.615069001913071" lon="8.126120008528233">
        <ele>19.359999999999999</ele>
        <time>2017-07-02T15:57:45Z</time>
      </trkpt>
      <trkpt lat="52.614818969741464" lon="8.125811973586679">
        <ele>19.84</ele>
        <time>2017-07-02T15:57:48Z</time>
      </trkpt>
      <trkpt lat="52.614674968644977" lon="8.125680964440107">
        <ele>19.84</ele>
        <time>2017-07-02T15:57:50Z</time>
      </trkpt>
      <trkpt lat="52.614511018618941" lon="8.125441996380687">
        <ele>20.32</ele>
        <time>2017-07-02T15:57:54Z</time>
      </trkpt>
      <trkpt lat="52.614474976435304" lon="8.12544803135097">
        <ele>21.289999999999999</ele>
        <time>2017-07-02T15:58:06Z</time>
      </trkpt>
      <trkpt lat="52.614473970606923" lon="8.12545096501708">
        <ele>21.77</ele>
        <time>2017-07-02T16:00:16Z</time>
      </trkpt>
      <trkpt lat="52.614474976435304" lon="8.12544803135097">
        <ele>21.77</ele>
        <time>2017-07-02T16:02:12Z</time>
      </trkpt>
      <trkpt lat="52.614425020292401" lon="8.125444008037448">
        <ele>18.879999999999999</ele>
        <time>2017-07-02T16:03:20Z</time>
      </trkpt>
      <trkpt lat="52.614429965615273" lon="8.125452976673842">
        <ele>21.289999999999999</ele>
        <time>2017-07-02T16:04:16Z</time>
      </trkpt>
      <trkpt lat="52.614341033622622" lon="8.125421963632107">
        <ele>21.289999999999999</ele>
        <time>2017-07-02T16:04:19Z</time>
      </trkpt>
      <trkpt lat="52.613548021763563" lon="8.124606991186738">
        <ele>21.289999999999999</ele>
        <time>2017-07-02T16:04:28Z</time>
      </trkpt>
      <trkpt lat="52.613149965181947" lon="8.124515041708946">
        <ele>20.809999999999999</ele>
        <time>2017-07-02T16:04:32Z</time>
      </trkpt>
      <trkpt lat="52.612803038209677" lon="8.124691983684897">
        <ele>19.84</ele>
        <time>2017-07-02T16:04:36Z</time>
      </trkpt>
      <trkpt lat="52.612702958285809" lon="8.124648984521627">
        <ele>20.32</ele>
        <time>2017-07-02T16:04:37Z</time>
      </trkpt>
      <trkpt lat="52.612460972741246" lon="8.124543959274888">
        <ele>20.32</ele>
        <time>2017-07-02T16:04:39Z</time>
      </trkpt>
      <trkpt lat="52.612144974991679" lon="8.124478999525309">
        <ele>20.809999999999999</ele>
        <time>2017-07-02T16:04:41Z</time>
      </trkpt>
      <trkpt lat="52.611970966681838" lon="8.12439601868391">
        <ele>21.289999999999999</ele>
        <time>2017-07-02T16:04:42Z</time>
      </trkpt>
      <trkpt lat="52.611795030534267" lon="8.124272972345352">
        <ele>21.77</ele>
        <time>2017-07-02T16:04:43Z</time>
      </trkpt>
      <trkpt lat="52.611623033881187" lon="8.12411799095571">
        <ele>21.77</ele>
        <time>2017-07-02T16:04:44Z</time>
      </trkpt>
      <trkpt lat="52.611440978944302" lon="8.123942976817489">
        <ele>21.77</ele>
        <time>2017-07-02T16:04:45Z</time>
      </trkpt>
      <trkpt lat="52.609527977183461" lon="8.122238013893366">
        <ele>21.289999999999999</ele>
        <time>2017-07-02T16:04:54Z</time>
      </trkpt>
      <trkpt lat="52.607496036216617" lon="8.120498014613986">
        <ele>22.73</ele>
        <time>2017-07-02T16:05:04Z</time>
      </trkpt>
      <trkpt lat="52.605135021731257" lon="8.118618037551642">
        <ele>23.210000000000001</ele>
        <time>2017-07-02T16:05:15Z</time>
      </trkpt>
      <trkpt lat="52.601557038724422" lon="8.116099024191499">
        <ele>24.170000000000002</ele>
        <time>2017-07-02T16:05:29Z</time>
      </trkpt>
      <trkpt lat="52.598426984623075" lon="8.114232961088419">
        <ele>24.170000000000002</ele>
        <time>2017-07-02T16:05:40Z</time>
      </trkpt>
      <trkpt lat="52.595305982977152" lon="8.112746011465788">
        <ele>25.129999999999999</ele>
        <time>2017-07-02T16:05:51Z</time>
      </trkpt>
      <trkpt lat="52.592312972992659" lon="8.111587967723608">
        <ele>26.57</ele>
        <time>2017-07-02T16:06:02Z</time>
      </trkpt>
      <trkpt lat="52.588512031361461" lon="8.110504020005465">
        <ele>27.530000000000001</ele>
        <time>2017-07-02T16:06:17Z</time>
      </trkpt>
      <trkpt lat="52.585543999448419" lon="8.109938995912671">
        <ele>28.5</ele>
        <time>2017-07-02T16:06:29Z</time>
      </trkpt>
      <trkpt lat="52.582529028877616" lon="8.109627021476626">
        <ele>28.98</ele>
        <time>2017-07-02T16:06:39Z</time>
      </trkpt>
      <trkpt lat="52.57877703756094" lon="8.109562983736396">
        <ele>29.940000000000001</ele>
        <time>2017-07-02T16:06:51Z</time>
      </trkpt>
      <trkpt lat="52.575930962339044" lon="8.109800023958087">
        <ele>31.859999999999999</ele>
        <time>2017-07-02T16:07:01Z</time>
      </trkpt>
      <trkpt lat="52.572566969320178" lon="8.110347026959062">
        <ele>35.710000000000001</ele>
        <time>2017-07-02T16:07:14Z</time>
      </trkpt>
      <trkpt lat="52.568626971915364" lon="8.11111799441278">
        <ele>39.549999999999997</ele>
        <time>2017-07-02T16:07:28Z</time>
      </trkpt>
      <trkpt lat="52.563735041767359" lon="8.112177969887853">
        <ele>44.840000000000003</ele>
        <time>2017-07-02T16:07:46Z</time>
      </trkpt>
      <trkpt lat="52.561148973181844" lon="8.112705023959279">
        <ele>46.759999999999998</ele>
        <time>2017-07-02T16:07:56Z</time>
      </trkpt>
      <trkpt lat="52.557325987145305" lon="8.113345988094807">
        <ele>49.159999999999997</ele>
        <time>2017-07-02T16:08:10Z</time>
      </trkpt>
      <trkpt lat="52.555235959589481" lon="8.113573975861073">
        <ele>50.609999999999999</ele>
        <time>2017-07-02T16:08:19Z</time>
      </trkpt>
      <trkpt lat="52.551938015967607" lon="8.113873964175582">
        <ele>53.009999999999998</ele>
        <time>2017-07-02T16:08:32Z</time>
      </trkpt>
      <trkpt lat="52.548754988238215" lon="8.113927021622658">
        <ele>56.369999999999997</ele>
        <time>2017-07-02T16:08:43Z</time>
      </trkpt>
      <trkpt lat="52.544447025284171" lon="8.113829959183931">
        <ele>63.100000000000001</ele>
        <time>2017-07-02T16:08:58Z</time>
      </trkpt>
      <trkpt lat="52.539622988551855" lon="8.113369038328528">
        <ele>66.469999999999999</ele>
        <time>2017-07-02T16:09:16Z</time>
      </trkpt>
      <trkpt lat="52.536193029955029" lon="8.112803008407354">
        <ele>64.549999999999997</ele>
        <time>2017-07-02T16:09:28Z</time>
      </trkpt>
      <trkpt lat="52.531742993742228" lon="8.111489983275533">
        <ele>60.219999999999999</ele>
        <time>2017-07-02T16:09:43Z</time>
      </trkpt>
      <trkpt lat="52.528236005455256" lon="8.109903959557414">
        <ele>60.219999999999999</ele>
        <time>2017-07-02T16:09:55Z</time>
      </trkpt>
      <trkpt lat="52.524477979168296" lon="8.107542023062706">
        <ele>66.469999999999999</ele>
        <time>2017-07-02T16:10:08Z</time>
      </trkpt>
      <trkpt lat="52.520954981446266" lon="8.104648003354669">
        <ele>73.200000000000003</ele>
        <time>2017-07-02T16:10:21Z</time>
      </trkpt>
      <trkpt lat="52.517662988975644" lon="8.101480985060334">
        <ele>74.159999999999997</ele>
        <time>2017-07-02T16:10:34Z</time>
      </trkpt>
      <trkpt lat="52.514557996764779" lon="8.09816300868988">
        <ele>72.239999999999995</ele>
        <time>2017-07-02T16:10:47Z</time>
      </trkpt>
      <trkpt lat="52.511515030637383" lon="8.094677980989218">
        <ele>72.239999999999995</ele>
        <time>2017-07-02T16:11:00Z</time>
      </trkpt>
      <trkpt lat="52.50776999630034" lon="8.090274967253208">
        <ele>65.510000000000005</ele>
        <time>2017-07-02T16:11:15Z</time>
      </trkpt>
      <trkpt lat="52.503734026104212" lon="8.085574982687831">
        <ele>51.090000000000003</ele>
        <time>2017-07-02T16:11:30Z</time>
      </trkpt>
      <trkpt lat="52.499080980196595" lon="8.080465961247683">
        <ele>39.549999999999997</ele>
        <time>2017-07-02T16:11:47Z</time>
      </trkpt>
      <trkpt lat="52.493918985128403" lon="8.075096011161804">
        <ele>33.780000000000001</ele>
        <time>2017-07-02T16:12:06Z</time>
      </trkpt>
      <trkpt lat="52.488550040870905" lon="8.069754978641868">
        <ele>33.780000000000001</ele>
        <time>2017-07-02T16:12:26Z</time>
      </trkpt>
      <trkpt lat="52.483145976439118" lon="8.064639000222087">
        <ele>33.780000000000001</ele>
        <time>2017-07-02T16:12:45Z</time>
      </trkpt>
      <trkpt lat="52.477519959211349" lon="8.059673979878426">
        <ele>33.780000000000001</ele>
        <time>2017-07-02T16:13:04Z</time>
      </trkpt>
      <trkpt lat="52.474048007279634" lon="8.056851960718632">
        <ele>34.740000000000002</ele>
        <time>2017-07-02T16:13:16Z</time>
      </trkpt>
      <trkpt lat="52.470603967085481" lon="8.05409599095583">
        <ele>35.710000000000001</ele>
        <time>2017-07-02T16:13:27Z</time>
      </trkpt>
      <trkpt lat="52.466268008574843" lon="8.050801986828446">
        <ele>36.670000000000002</ele>
        <time>2017-07-02T16:13:41Z</time>
      </trkpt>
      <trkpt lat="52.46065397746861" lon="8.046845979988575">
        <ele>36.670000000000002</ele>
        <time>2017-07-02T16:13:59Z</time>
      </trkpt>
      <trkpt lat="52.455620979890227" lon="8.043520962819457">
        <ele>36.670000000000002</ele>
        <time>2017-07-02T16:14:15Z</time>
      </trkpt>
      <trkpt lat="52.450117003172636" lon="8.040171973407269">
        <ele>36.189999999999998</ele>
        <time>2017-07-02T16:14:32Z</time>
      </trkpt>
      <trkpt lat="52.442809995263815" lon="8.036412019282579">
        <ele>37.149999999999999</ele>
        <time>2017-07-02T16:14:54Z</time>
      </trkpt>
      <trkpt lat="52.43613800033927" lon="8.033755961805582">
        <ele>36.670000000000002</ele>
        <time>2017-07-02T16:15:14Z</time>
      </trkpt>
      <trkpt lat="52.432299004867673" lon="8.032598001882434">
        <ele>37.149999999999999</ele>
        <time>2017-07-02T16:15:26Z</time>
      </trkpt>
      <trkpt lat="52.427778979763389" lon="8.031628970056772">
        <ele>38.109999999999999</ele>
        <time>2017-07-02T16:15:40Z</time>
      </trkpt>
      <trkpt lat="52.423104979097843" lon="8.031071992591023">
        <ele>38.590000000000003</ele>
        <time>2017-07-02T16:15:54Z</time>
      </trkpt>
      <trkpt lat="52.418828029185534" lon="8.030899995937944">
        <ele>39.549999999999997</ele>
        <time>2017-07-02T16:16:07Z</time>
      </trkpt>
      <trkpt lat="52.413267977535725" lon="8.031395031139255">
        <ele>40.509999999999998</ele>
        <time>2017-07-02T16:16:24Z</time>
      </trkpt>
      <trkpt lat="52.409420013427734" lon="8.032155018299818">
        <ele>44.840000000000003</ele>
        <time>2017-07-02T16:16:36Z</time>
      </trkpt>
      <trkpt lat="52.406756998971105" lon="8.032947024330497">
        <ele>49.649999999999999</ele>
        <time>2017-07-02T16:16:46Z</time>
      </trkpt>
      <trkpt lat="52.403766000643373" lon="8.034020997583866">
        <ele>52.530000000000001</ele>
        <time>2017-07-02T16:16:56Z</time>
      </trkpt>
      <trkpt lat="52.399758026003838" lon="8.035777006298304">
        <ele>51.57</ele>
        <time>2017-07-02T16:17:08Z</time>
      </trkpt>
      <trkpt lat="52.393544018268585" lon="8.038658034056425">
        <ele>54.450000000000003</ele>
        <time>2017-07-02T16:17:26Z</time>
      </trkpt>
      <trkpt lat="52.387894028797746" lon="8.041118960827589">
        <ele>61.659999999999997</ele>
        <time>2017-07-02T16:17:43Z</time>
      </trkpt>
      <trkpt lat="52.382201962172985" lon="8.042961973696947">
        <ele>73.680000000000007</ele>
        <time>2017-07-02T16:18:00Z</time>
      </trkpt>
      <trkpt lat="52.379016000777483" lon="8.043557005003095">
        <ele>80.409999999999997</ele>
        <time>2017-07-02T16:18:10Z</time>
      </trkpt>
      <trkpt lat="52.376799993216991" lon="8.043652977794409">
        <ele>85.689999999999998</ele>
        <time>2017-07-02T16:18:17Z</time>
      </trkpt>
      <trkpt lat="52.372949011623859" lon="8.043509982526302">
        <ele>93.390000000000001</ele>
        <time>2017-07-02T16:18:28Z</time>
      </trkpt>
      <trkpt lat="52.368694022297859" lon="8.042589984834194">
        <ele>98.670000000000002</ele>
        <time>2017-07-02T16:18:40Z</time>
      </trkpt>
      <trkpt lat="52.363817011937499" lon="8.040605988353491">
        <ele>101.08</ele>
        <time>2017-07-02T16:18:54Z</time>
      </trkpt>
      <trkpt lat="52.359633017331362" lon="8.038213038817048">
        <ele>99.150000000000006</ele>
        <time>2017-07-02T16:19:06Z</time>
      </trkpt>
      <trkpt lat="52.355034034699202" lon="8.034799005836248">
        <ele>92.900000000000006</ele>
        <time>2017-07-02T16:19:20Z</time>
      </trkpt>
      <trkpt lat="52.35065096989274" lon="8.030792037025094">
        <ele>85.209999999999994</ele>
        <time>2017-07-02T16:19:34Z</time>
      </trkpt>
      <trkpt lat="52.346274023875594" lon="8.025989960879087">
        <ele>80.409999999999997</ele>
        <time>2017-07-02T16:19:49Z</time>
      </trkpt>
      <trkpt lat="52.342776004225016" lon="8.021442024037242">
        <ele>82.329999999999998</ele>
        <time>2017-07-02T16:20:02Z</time>
      </trkpt>
      <trkpt lat="52.340039983391762" lon="8.017006991431117">
        <ele>84.25</ele>
        <time>2017-07-02T16:20:13Z</time>
      </trkpt>
      <trkpt lat="52.33810200355947" lon="8.012970015406609">
        <ele>85.689999999999998</ele>
        <time>2017-07-02T16:20:22Z</time>
      </trkpt>
      <trkpt lat="52.336582029238343" lon="8.008616035804153">
        <ele>87.140000000000001</ele>
        <time>2017-07-02T16:20:31Z</time>
      </trkpt>
      <trkpt lat="52.335092984139919" lon="8.00244402140379">
        <ele>89.060000000000002</ele>
        <time>2017-07-02T16:20:43Z</time>
      </trkpt>
      <trkpt lat="52.333947010338306" lon="7.997495010495186">
        <ele>91.459999999999994</ele>
        <time>2017-07-02T16:20:53Z</time>
      </trkpt>
      <trkpt lat="52.333065988495946" lon="7.994073014706373">
        <ele>93.390000000000001</ele>
        <time>2017-07-02T16:21:01Z</time>
      </trkpt>
      <trkpt lat="52.331443000584841" lon="7.988413972780109">
        <ele>91.939999999999998</ele>
        <time>2017-07-02T16:21:16Z</time>
      </trkpt>
      <trkpt lat="52.329346016049385" lon="7.981629995629191">
        <ele>82.329999999999998</ele>
        <time>2017-07-02T16:21:34Z</time>
      </trkpt>
      <trkpt lat="52.328339014202356" lon="7.978568002581596">
        <ele>77.040000000000006</ele>
        <time>2017-07-02T16:21:43Z</time>
      </trkpt>
      <trkpt lat="52.326402040198445" lon="7.973139965906739">
        <ele>67.430000000000007</ele>
        <time>2017-07-02T16:21:59Z</time>
      </trkpt>
      <trkpt lat="52.325247013941407" lon="7.970267990604043">
        <ele>62.140000000000001</ele>
        <time>2017-07-02T16:22:08Z</time>
      </trkpt>
      <trkpt lat="52.323690997436643" lon="7.966900980100036">
        <ele>56.369999999999997</ele>
        <time>2017-07-02T16:22:20Z</time>
      </trkpt>
      <trkpt lat="52.321878997609019" lon="7.963429028168321">
        <ele>55.890000000000001</ele>
        <time>2017-07-02T16:22:33Z</time>
      </trkpt>
      <trkpt lat="52.319735996425152" lon="7.959788013249636">
        <ele>60.219999999999999</ele>
        <time>2017-07-02T16:22:46Z</time>
      </trkpt>
      <trkpt lat="52.31695999391377" lon="7.955869976431131">
        <ele>65.989999999999995</ele>
        <time>2017-07-02T16:23:01Z</time>
      </trkpt>
      <trkpt lat="52.314560003578663" lon="7.95305198058486">
        <ele>67.430000000000007</ele>
        <time>2017-07-02T16:23:13Z</time>
      </trkpt>
      <trkpt lat="52.313603041693568" lon="7.952032992616296">
        <ele>66.469999999999999</ele>
        <time>2017-07-02T16:23:20Z</time>
      </trkpt>
      <trkpt lat="52.311916016042233" lon="7.950367005541921">
        <ele>64.069999999999993</ele>
        <time>2017-07-02T16:23:31Z</time>
      </trkpt>
      <trkpt lat="52.309679975733161" lon="7.948414022102952">
        <ele>59.740000000000002</ele>
        <time>2017-07-02T16:23:42Z</time>
      </trkpt>
      <trkpt lat="52.30770000256598" lon="7.946932017803192">
        <ele>58.780000000000001</ele>
        <time>2017-07-02T16:23:52Z</time>
      </trkpt>
      <trkpt lat="52.305986993014812" lon="7.945774979889393">
        <ele>58.780000000000001</ele>
        <time>2017-07-02T16:24:02Z</time>
      </trkpt>
      <trkpt lat="52.304042978212237" lon="7.944614002481103">
        <ele>61.18</ele>
        <time>2017-07-02T16:24:12Z</time>
      </trkpt>
      <trkpt lat="52.301020966842771" lon="7.943110959604383">
        <ele>65.510000000000005</ele>
        <time>2017-07-02T16:24:25Z</time>
      </trkpt>
      <trkpt lat="52.297808015719056" lon="7.941937996074557">
        <ele>66.469999999999999</ele>
        <time>2017-07-02T16:24:40Z</time>
      </trkpt>
      <trkpt lat="52.294355006888509" lon="7.941081030294299">
        <ele>66.469999999999999</ele>
        <time>2017-07-02T16:24:55Z</time>
      </trkpt>
      <trkpt lat="52.291108025237918" lon="7.940464038401842">
        <ele>62.619999999999997</ele>
        <time>2017-07-02T16:25:09Z</time>
      </trkpt>
      <trkpt lat="52.288609966635704" lon="7.939775967970491">
        <ele>60.219999999999999</ele>
        <time>2017-07-02T16:25:19Z</time>
      </trkpt>
      <trkpt lat="52.285382011905313" lon="7.938440982252359">
        <ele>58.780000000000001</ele>
        <time>2017-07-02T16:25:30Z</time>
      </trkpt>
      <trkpt lat="52.281471015885472" lon="7.936134031042457">
        <ele>60.700000000000003</ele>
        <time>2017-07-02T16:25:43Z</time>
      </trkpt>
      <trkpt lat="52.277629002928734" lon="7.933409996330738">
        <ele>62.619999999999997</ele>
        <time>2017-07-02T16:25:56Z</time>
      </trkpt>
      <trkpt lat="52.271809028461576" lon="7.929319040849805">
        <ele>63.100000000000001</ele>
        <time>2017-07-02T16:26:16Z</time>
      </trkpt>
      <trkpt lat="52.267597038298845" lon="7.926383027806878">
        <ele>61.18</ele>
        <time>2017-07-02T16:26:31Z</time>
      </trkpt>
      <trkpt lat="52.262856988236308" lon="7.923045018687844">
        <ele>62.619999999999997</ele>
        <time>2017-07-02T16:26:49Z</time>
      </trkpt>
      <trkpt lat="52.25766004063189" lon="7.919342983514071">
        <ele>66.950000000000003</ele>
        <time>2017-07-02T16:27:08Z</time>
      </trkpt>
      <trkpt lat="52.254496039822698" lon="7.916788011789322">
        <ele>70.790000000000006</ele>
        <time>2017-07-02T16:27:19Z</time>
      </trkpt>
      <trkpt lat="52.251591039821506" lon="7.91373398154974">
        <ele>72.719999999999999</ele>
        <time>2017-07-02T16:27:29Z</time>
      </trkpt>
      <trkpt lat="52.248811013996601" lon="7.909963969141245">
        <ele>72.719999999999999</ele>
        <time>2017-07-02T16:27:39Z</time>
      </trkpt>
      <trkpt lat="52.246146993711591" lon="7.905244035646319">
        <ele>71.269999999999996</ele>
        <time>2017-07-02T16:27:50Z</time>
      </trkpt>
      <trkpt lat="52.244351003319025" lon="7.901176968589425">
        <ele>71.760000000000005</ele>
        <time>2017-07-02T16:27:59Z</time>
      </trkpt>
      <trkpt lat="52.242861036211252" lon="7.897117026150227">
        <ele>73.680000000000007</ele>
        <time>2017-07-02T16:28:09Z</time>
      </trkpt>
      <trkpt lat="52.241597967222333" lon="7.89366502314806">
        <ele>77.040000000000006</ele>
        <time>2017-07-02T16:28:19Z</time>
      </trkpt>
      <trkpt lat="52.24000196903944" lon="7.889805994927883">
        <ele>82.810000000000002</ele>
        <time>2017-07-02T16:28:32Z</time>
      </trkpt>
      <trkpt lat="52.237599967047572" lon="7.885512029752135">
        <ele>92.900000000000006</ele>
        <time>2017-07-02T16:28:48Z</time>
      </trkpt>
      <trkpt lat="52.235091011971235" lon="7.882049968466163">
        <ele>103.48</ele>
        <time>2017-07-02T16:29:02Z</time>
      </trkpt>
      <trkpt lat="52.232306962832808" lon="7.879093000665307">
        <ele>109.25</ele>
        <time>2017-07-02T16:29:16Z</time>
      </trkpt>
      <trkpt lat="52.229573959484696" lon="7.876881016418338">
        <ele>110.20999999999999</ele>
        <time>2017-07-02T16:29:28Z</time>
      </trkpt>
      <trkpt lat="52.226317003369331" lon="7.874743966385722">
        <ele>111.17</ele>
        <time>2017-07-02T16:29:42Z</time>
      </trkpt>
      <trkpt lat="52.224232004955411" lon="7.873294986784458">
        <ele>115.01000000000001</ele>
        <time>2017-07-02T16:29:53Z</time>
      </trkpt>
      <trkpt lat="52.221835032105446" lon="7.871273020282388">
        <ele>124.63</ele>
        <time>2017-07-02T16:30:06Z</time>
      </trkpt>
      <trkpt lat="52.220055973157287" lon="7.869319031015039">
        <ele>132.31999999999999</ele>
        <time>2017-07-02T16:30:17Z</time>
      </trkpt>
      <trkpt lat="52.21808304078877" lon="7.86666096188128">
        <ele>140.49000000000001</ele>
        <time>2017-07-02T16:30:30Z</time>
      </trkpt>
      <trkpt lat="52.216891972348094" lon="7.864776961505413">
        <ele>144.34</ele>
        <time>2017-07-02T16:30:39Z</time>
      </trkpt>
      <trkpt lat="52.216183030977845" lon="7.863698964938521">
        <ele>141.93000000000001</ele>
        <time>2017-07-02T16:30:44Z</time>
      </trkpt>
      <trkpt lat="52.214554008096457" lon="7.860412001609802">
        <ele>140.00999999999999</ele>
        <time>2017-07-02T16:30:56Z</time>
      </trkpt>
      <trkpt lat="52.21297100186348" lon="7.856267988681793">
        <ele>132.80000000000001</ele>
        <time>2017-07-02T16:31:09Z</time>
      </trkpt>
      <trkpt lat="52.211829973384738" lon="7.852148031815887">
        <ele>124.63</ele>
        <time>2017-07-02T16:31:21Z</time>
      </trkpt>
      <trkpt lat="52.210771003738046" lon="7.846903977915645">
        <ele>122.22</ele>
        <time>2017-07-02T16:31:36Z</time>
      </trkpt>
      <trkpt lat="52.209998024627566" lon="7.84169202670455">
        <ele>123.19</ele>
        <time>2017-07-02T16:31:50Z</time>
      </trkpt>
      <trkpt lat="52.209563003852963" lon="7.837792010977864">
        <ele>124.63</ele>
        <time>2017-07-02T16:32:01Z</time>
      </trkpt>
      <trkpt lat="52.209063023328781" lon="7.834812998771668">
        <ele>123.67</ele>
        <time>2017-07-02T16:32:08Z</time>
      </trkpt>
      <trkpt lat="52.20807496458292" lon="7.829838003963232">
        <ele>117.90000000000001</ele>
        <time>2017-07-02T16:32:18Z</time>
      </trkpt>
      <trkpt lat="52.206293977797031" lon="7.822698969393969">
        <ele>101.08</ele>
        <time>2017-07-02T16:32:32Z</time>
      </trkpt>
      <trkpt lat="52.20480996184051" lon="7.817873004823923">
        <ele>88.099999999999994</ele>
        <time>2017-07-02T16:32:43Z</time>
      </trkpt>
      <trkpt lat="52.202842980623245" lon="7.812518980354071">
        <ele>72.719999999999999</ele>
        <time>2017-07-02T16:32:55Z</time>
      </trkpt>
      <trkpt lat="52.200628984719515" lon="7.807609029114246">
        <ele>62.140000000000001</ele>
        <time>2017-07-02T16:33:06Z</time>
      </trkpt>
      <trkpt lat="52.197591969743371" lon="7.80214000493288">
        <ele>55.890000000000001</ele>
        <time>2017-07-02T16:33:19Z</time>
      </trkpt>
      <trkpt lat="52.194250021129847" lon="7.797370031476021">
        <ele>54.450000000000003</ele>
        <time>2017-07-02T16:33:32Z</time>
      </trkpt>
      <trkpt lat="52.190936990082264" lon="7.793579986318946">
        <ele>54.450000000000003</ele>
        <time>2017-07-02T16:33:44Z</time>
      </trkpt>
      <trkpt lat="52.186138015240431" lon="7.788700964301825">
        <ele>53.490000000000002</ele>
        <time>2017-07-02T16:34:01Z</time>
      </trkpt>
      <trkpt lat="52.183477012440562" lon="7.78544400818646">
        <ele>53.009999999999998</ele>
        <time>2017-07-02T16:34:12Z</time>
      </trkpt>
      <trkpt lat="52.180695980787277" lon="7.781386999413371">
        <ele>52.530000000000001</ele>
        <time>2017-07-02T16:34:24Z</time>
      </trkpt>
      <trkpt lat="52.178580975160003" lon="7.777825025841594">
        <ele>52.049999999999997</ele>
        <time>2017-07-02T16:34:33Z</time>
      </trkpt>
      <trkpt lat="52.174399998039007" lon="7.770157009363174">
        <ele>50.609999999999999</ele>
        <time>2017-07-02T16:34:51Z</time>
      </trkpt>
      <trkpt lat="52.170061022043228" lon="7.762184981256723">
        <ele>50.609999999999999</ele>
        <time>2017-07-02T16:35:10Z</time>
      </trkpt>
      <trkpt lat="52.166924010962248" lon="7.756447987630963">
        <ele>50.609999999999999</ele>
        <time>2017-07-02T16:35:24Z</time>
      </trkpt>
      <trkpt lat="52.165289036929607" lon="7.753691012039781">
        <ele>50.130000000000003</ele>
        <time>2017-07-02T16:35:33Z</time>
      </trkpt>
      <trkpt lat="52.162914024665952" lon="7.750012027099729">
        <ele>50.130000000000003</ele>
        <time>2017-07-02T16:35:46Z</time>
      </trkpt>
      <trkpt lat="52.16059098020196" lon="7.746766973286867">
        <ele>50.609999999999999</ele>
        <time>2017-07-02T16:35:57Z</time>
      </trkpt>
      <trkpt lat="52.158296015113592" lon="7.743844036012888">
        <ele>50.609999999999999</ele>
        <time>2017-07-02T16:36:08Z</time>
      </trkpt>
      <trkpt lat="52.155856965109706" lon="7.74103500880301">
        <ele>49.649999999999999</ele>
        <time>2017-07-02T16:36:19Z</time>
      </trkpt>
      <trkpt lat="52.153554037213326" lon="7.738595958799124">
        <ele>50.130000000000003</ele>
        <time>2017-07-02T16:36:27Z</time>
      </trkpt>
      <trkpt lat="52.149072987958789" lon="7.734353039413691">
        <ele>48.68</ele>
        <time>2017-07-02T16:36:41Z</time>
      </trkpt>
      <trkpt lat="52.144643990322948" lon="7.730577997863293">
        <ele>48.200000000000003</ele>
        <time>2017-07-02T16:36:55Z</time>
      </trkpt>
      <trkpt lat="52.139970995485783" lon="7.726728022098541">
        <ele>46.280000000000001</ele>
        <time>2017-07-02T16:37:10Z</time>
      </trkpt>
      <trkpt lat="52.134096035733819" lon="7.721909014508128">
        <ele>47.719999999999999</ele>
        <time>2017-07-02T16:37:29Z</time>
      </trkpt>
      <trkpt lat="52.128980979323387" lon="7.717348001897335">
        <ele>50.130000000000003</ele>
        <time>2017-07-02T16:37:46Z</time>
      </trkpt>
      <trkpt lat="52.123251026496291" lon="7.711591981351376">
        <ele>56.369999999999997</ele>
        <time>2017-07-02T16:38:06Z</time>
      </trkpt>
      <trkpt lat="52.119251014664769" lon="7.707107998430729">
        <ele>56.369999999999997</ele>
        <time>2017-07-02T16:38:21Z</time>
      </trkpt>
      <trkpt lat="52.115391986444592" lon="7.702188994735479">
        <ele>50.609999999999999</ele>
        <time>2017-07-02T16:38:36Z</time>
      </trkpt>
      <trkpt lat="52.111048987135291" lon="7.695976998656988">
        <ele>50.130000000000003</ele>
        <time>2017-07-02T16:38:54Z</time>
      </trkpt>
      <trkpt lat="52.107597989961505" lon="7.690383000299335">
        <ele>51.090000000000003</ele>
        <time>2017-07-02T16:39:09Z</time>
      </trkpt>
      <trkpt lat="52.104630041867495" lon="7.685025036334992">
        <ele>51.090000000000003</ele>
        <time>2017-07-02T16:39:22Z</time>
      </trkpt>
      <trkpt lat="52.103241998702288" lon="7.682330003008246">
        <ele>51.090000000000003</ele>
        <time>2017-07-02T16:39:29Z</time>
      </trkpt>
      <trkpt lat="52.101802993565798" lon="7.679388038814068">
        <ele>50.609999999999999</ele>
        <time>2017-07-02T16:39:38Z</time>
      </trkpt>
      <trkpt lat="52.099691005423665" lon="7.674728035926819">
        <ele>50.609999999999999</ele>
        <time>2017-07-02T16:39:52Z</time>
      </trkpt>
      <trkpt lat="52.096982980147004" lon="7.668181015178561">
        <ele>50.130000000000003</ele>
        <time>2017-07-02T16:40:11Z</time>
      </trkpt>
      <trkpt lat="52.094586007297039" lon="7.662472017109394">
        <ele>50.130000000000003</ele>
        <time>2017-07-02T16:40:27Z</time>
      </trkpt>
      <trkpt lat="52.092519029974937" lon="7.658022986724973">
        <ele>50.609999999999999</ele>
        <time>2017-07-02T16:40:39Z</time>
      </trkpt>
      <trkpt lat="52.090308973565698" lon="7.653809990733862">
        <ele>50.130000000000003</ele>
        <time>2017-07-02T16:40:49Z</time>
      </trkpt>
      <trkpt lat="52.087666997686028" lon="7.649290971457958">
        <ele>47.719999999999999</ele>
        <time>2017-07-02T16:41:00Z</time>
      </trkpt>
      <trkpt lat="52.084366036579013" lon="7.644375991076231">
        <ele>45.799999999999997</ele>
        <time>2017-07-02T16:41:13Z</time>
      </trkpt>
      <trkpt lat="52.081922963261604" lon="7.64115197584033">
        <ele>46.280000000000001</ele>
        <time>2017-07-02T16:41:22Z</time>
      </trkpt>
      <trkpt lat="52.080165026709437" lon="7.639017021283507">
        <ele>45.32</ele>
        <time>2017-07-02T16:41:29Z</time>
      </trkpt>
      <trkpt lat="52.07808799110353" lon="7.636728007346392">
        <ele>45.799999999999997</ele>
        <time>2017-07-02T16:41:38Z</time>
      </trkpt>
      <trkpt lat="52.075029015541077" lon="7.633668025955558">
        <ele>47.719999999999999</ele>
        <time>2017-07-02T16:41:50Z</time>
      </trkpt>
      <trkpt lat="52.071504006162286" lon="7.630512993782759">
        <ele>47.719999999999999</ele>
        <time>2017-07-02T16:42:02Z</time>
      </trkpt>
      <trkpt lat="52.069264026358724" lon="7.628743993118405">
        <ele>47.719999999999999</ele>
        <time>2017-07-02T16:42:10Z</time>
      </trkpt>
      <trkpt lat="52.066057026386261" lon="7.626203019171953">
        <ele>47.719999999999999</ele>
        <time>2017-07-02T16:42:21Z</time>
      </trkpt>
      <trkpt lat="52.059355024248362" lon="7.620855029672384">
        <ele>47.240000000000002</ele>
        <time>2017-07-02T16:42:43Z</time>
      </trkpt>
      <trkpt lat="52.053040014579892" lon="7.615791019052267">
        <ele>52.530000000000001</ele>
        <time>2017-07-02T16:43:04Z</time>
      </trkpt>
      <trkpt lat="52.048442959785461" lon="7.612399030476809">
        <ele>54.450000000000003</ele>
        <time>2017-07-02T16:43:19Z</time>
      </trkpt>
      <trkpt lat="52.046614028513432" lon="7.61111400090158">
        <ele>54.450000000000003</ele>
        <time>2017-07-02T16:43:26Z</time>
      </trkpt>
      <trkpt lat="52.043955037370324" lon="7.609399985522032">
        <ele>52.530000000000001</ele>
        <time>2017-07-02T16:43:37Z</time>
      </trkpt>
      <trkpt lat="52.041835002601147" lon="7.60814999230206">
        <ele>51.090000000000003</ele>
        <time>2017-07-02T16:43:46Z</time>
      </trkpt>
      <trkpt lat="52.038140008226037" lon="7.606124002486467">
        <ele>48.68</ele>
        <time>2017-07-02T16:44:01Z</time>
      </trkpt>
      <trkpt lat="52.035430977120996" lon="7.60464602150023">
        <ele>47.240000000000002</ele>
        <time>2017-07-02T16:44:11Z</time>
      </trkpt>
      <trkpt lat="52.031363993883133" lon="7.602224992588162">
        <ele>47.240000000000002</ele>
        <time>2017-07-02T16:44:25Z</time>
      </trkpt>
      <trkpt lat="52.028882028535008" lon="7.600581971928477">
        <ele>47.719999999999999</ele>
        <time>2017-07-02T16:44:34Z</time>
      </trkpt>
      <trkpt lat="52.025087960064411" lon="7.597559960559011">
        <ele>47.719999999999999</ele>
        <time>2017-07-02T16:44:48Z</time>
      </trkpt>
      <trkpt lat="52.021580971777439" lon="7.594173001125455">
        <ele>49.159999999999997</ele>
        <time>2017-07-02T16:45:01Z</time>
      </trkpt>
      <trkpt lat="52.018371038138866" lon="7.590501978993416">
        <ele>53.009999999999998</ele>
        <time>2017-07-02T16:45:13Z</time>
      </trkpt>
      <trkpt lat="52.014330960810184" lon="7.585196988657117">
        <ele>58.780000000000001</ele>
        <time>2017-07-02T16:45:28Z</time>
      </trkpt>
      <trkpt lat="52.010049987584352" lon="7.579535013064742">
        <ele>61.18</ele>
        <time>2017-07-02T16:45:44Z</time>
      </trkpt>
      <trkpt lat="52.005976969376206" lon="7.575176004320383">
        <ele>62.140000000000001</ele>
        <time>2017-07-02T16:45:58Z</time>
      </trkpt>
      <trkpt lat="52.001744024455547" lon="7.57147204130888">
        <ele>65.030000000000001</ele>
        <time>2017-07-02T16:46:12Z</time>
      </trkpt>
      <trkpt lat="51.998219015076756" lon="7.568713976070285">
        <ele>69.349999999999994</ele>
        <time>2017-07-02T16:46:24Z</time>
      </trkpt>
      <trkpt lat="51.99403895996511" lon="7.564883027225733">
        <ele>73.200000000000003</ele>
        <time>2017-07-02T16:46:39Z</time>
      </trkpt>
      <trkpt lat="51.990713020786643" lon="7.561133969575167">
        <ele>74.640000000000001</ele>
        <time>2017-07-02T16:46:51Z</time>
      </trkpt>
      <trkpt lat="51.98660203255713" lon="7.556889038532972">
        <ele>71.760000000000005</ele>
        <time>2017-07-02T16:47:05Z</time>
      </trkpt>
      <trkpt lat="51.981932977214456" lon="7.553041996434331">
        <ele>67.909999999999997</ele>
        <time>2017-07-02T16:47:20Z</time>
      </trkpt>
      <trkpt lat="51.977181024849415" lon="7.550056027248502">
        <ele>65.030000000000001</ele>
        <time>2017-07-02T16:47:35Z</time>
      </trkpt>
      <trkpt lat="51.973255025222898" lon="7.548225000500679">
        <ele>62.619999999999997</ele>
        <time>2017-07-02T16:47:47Z</time>
      </trkpt>
      <trkpt lat="51.968871038407087" lon="7.546862019225955">
        <ele>60.219999999999999</ele>
        <time>2017-07-02T16:48:00Z</time>
      </trkpt>
      <trkpt lat="51.964169964194298" lon="7.546105971559882">
        <ele>62.140000000000001</ele>
        <time>2017-07-02T16:48:14Z</time>
      </trkpt>
      <trkpt lat="51.960225021466613" lon="7.546008992940188">
        <ele>62.140000000000001</ele>
        <time>2017-07-02T16:48:26Z</time>
      </trkpt>
      <trkpt lat="51.956452997401357" lon="7.546280985698104">
        <ele>63.100000000000001</ele>
        <time>2017-07-02T16:48:37Z</time>
      </trkpt>
      <trkpt lat="51.951393010094762" lon="7.547313971444964">
        <ele>62.140000000000001</ele>
        <time>2017-07-02T16:48:52Z</time>
      </trkpt>
      <trkpt lat="51.945238010957837" lon="7.548890020698309">
        <ele>60.700000000000003</ele>
        <time>2017-07-02T16:49:10Z</time>
      </trkpt>
      <trkpt lat="51.937336977571249" lon="7.551268972456455">
        <ele>63.579999999999998</ele>
        <time>2017-07-02T16:49:33Z</time>
      </trkpt>
      <trkpt lat="51.932583013549447" lon="7.552962033078075">
        <ele>66.469999999999999</ele>
        <time>2017-07-02T16:49:47Z</time>
      </trkpt>
      <trkpt lat="51.925393017008901" lon="7.555787991732359">
        <ele>66.950000000000003</ele>
        <time>2017-07-02T16:50:08Z</time>
      </trkpt>
      <trkpt lat="51.919147996231914" lon="7.558546978980303">
        <ele>66.469999999999999</ele>
        <time>2017-07-02T16:50:26Z</time>
      </trkpt>
      <trkpt lat="51.91265101544559" lon="7.561635039746761">
        <ele>66.469999999999999</ele>
        <time>2017-07-02T16:50:45Z</time>
      </trkpt>
      <trkpt lat="51.907248962670565" lon="7.564545990899205">
        <ele>64.549999999999997</ele>
        <time>2017-07-02T16:51:01Z</time>
      </trkpt>
      <trkpt lat="51.900275973603129" lon="7.568571986630559">
        <ele>61.18</ele>
        <time>2017-07-02T16:51:22Z</time>
      </trkpt>
      <trkpt lat="51.895131999626756" lon="7.571434993296862">
        <ele>59.259999999999998</ele>
        <time>2017-07-02T16:51:38Z</time>
      </trkpt>
      <trkpt lat="51.889585023745894" lon="7.573757031932473">
        <ele>57.340000000000003</ele>
        <time>2017-07-02T16:51:55Z</time>
      </trkpt>
      <trkpt lat="51.884578010067344" lon="7.575224032625556">
        <ele>58.780000000000001</ele>
        <time>2017-07-02T16:52:10Z</time>
      </trkpt>
      <trkpt lat="51.880432991310954" lon="7.575882012024522">
        <ele>58.780000000000001</ele>
        <time>2017-07-02T16:52:22Z</time>
      </trkpt>
      <trkpt lat="51.874806974083185" lon="7.576207984238863">
        <ele>61.659999999999997</ele>
        <time>2017-07-02T16:52:38Z</time>
      </trkpt>
      <trkpt lat="51.86733802780509" lon="7.575794002041221">
        <ele>59.740000000000002</ele>
        <time>2017-07-02T16:52:59Z</time>
      </trkpt>
      <trkpt lat="51.863101981580257" lon="7.576008997857571">
        <ele>59.740000000000002</ele>
        <time>2017-07-02T16:53:11Z</time>
      </trkpt>
      <trkpt lat="51.85786304064095" lon="7.576986998319626">
        <ele>58.780000000000001</ele>
        <time>2017-07-02T16:53:26Z</time>
      </trkpt>
      <trkpt lat="51.852745972573757" lon="7.578797992318869">
        <ele>58.780000000000001</ele>
        <time>2017-07-02T16:53:41Z</time>
      </trkpt>
      <trkpt lat="51.848077001050115" lon="7.581207035109401">
        <ele>58.780000000000001</ele>
        <time>2017-07-02T16:53:55Z</time>
      </trkpt>
      <trkpt lat="51.843602992594242" lon="7.584196021780372">
        <ele>59.740000000000002</ele>
        <time>2017-07-02T16:54:09Z</time>
      </trkpt>
      <trkpt lat="51.839919984340668" lon="7.587354993447661">
        <ele>60.219999999999999</ele>
        <time>2017-07-02T16:54:21Z</time>
      </trkpt>
      <trkpt lat="51.837546983733773" lon="7.589716007933021">
        <ele>60.219999999999999</ele>
        <time>2017-07-02T16:54:29Z</time>
      </trkpt>
      <trkpt lat="51.834365967661142" lon="7.593224002048373">
        <ele>59.259999999999998</ele>
        <time>2017-07-02T16:54:40Z</time>
      </trkpt>
      <trkpt lat="51.831646962091327" lon="7.596765020862222">
        <ele>58.780000000000001</ele>
        <time>2017-07-02T16:54:50Z</time>
      </trkpt>
      <trkpt lat="51.827216036617756" lon="7.602826980873942">
        <ele>59.259999999999998</ele>
        <time>2017-07-02T16:55:07Z</time>
      </trkpt>
      <trkpt lat="51.823417022824287" lon="7.607918987050653">
        <ele>59.740000000000002</ele>
        <time>2017-07-02T16:55:22Z</time>
      </trkpt>
      <trkpt lat="51.821620026603341" lon="7.61016801930964">
        <ele>60.700000000000003</ele>
        <time>2017-07-02T16:55:29Z</time>
      </trkpt>
      <trkpt lat="51.816693982109427" lon="7.616154039278626">
        <ele>63.100000000000001</ele>
        <time>2017-07-02T16:55:47Z</time>
      </trkpt>
      <trkpt lat="51.812007995322347" lon="7.6214499771595">
        <ele>64.069999999999993</ele>
        <time>2017-07-02T16:56:04Z</time>
      </trkpt>
      <trkpt lat="51.809082962572575" lon="7.624648008495569">
        <ele>62.619999999999997</ele>
        <time>2017-07-02T16:56:15Z</time>
      </trkpt>
      <trkpt lat="51.806697975844145" lon="7.62692796997726">
        <ele>61.18</ele>
        <time>2017-07-02T16:56:23Z</time>
      </trkpt>
      <trkpt lat="51.801980976015329" lon="7.630955977365375">
        <ele>60.700000000000003</ele>
        <time>2017-07-02T16:56:38Z</time>
      </trkpt>
      <trkpt lat="51.79809101857245" lon="7.633645981550217">
        <ele>60.700000000000003</ele>
        <time>2017-07-02T16:56:50Z</time>
      </trkpt>
      <trkpt lat="51.793505027890205" lon="7.636001966893673">
        <ele>60.700000000000003</ele>
        <time>2017-07-02T16:57:04Z</time>
      </trkpt>
      <trkpt lat="51.790194008499384" lon="7.637302000075579">
        <ele>61.659999999999997</ele>
        <time>2017-07-02T16:57:14Z</time>
      </trkpt>
      <trkpt lat="51.785470973700285" lon="7.638605972751975">
        <ele>64.549999999999997</ele>
        <time>2017-07-02T16:57:28Z</time>
      </trkpt>
      <trkpt lat="51.781470039859414" lon="7.639075024053454">
        <ele>63.100000000000001</ele>
        <time>2017-07-02T16:57:40Z</time>
      </trkpt>
      <trkpt lat="51.777643030509353" lon="7.639369983226061">
        <ele>62.619999999999997</ele>
        <time>2017-07-02T16:57:53Z</time>
      </trkpt>
      <trkpt lat="51.774483975023031" lon="7.639600988477469">
        <ele>62.619999999999997</ele>
        <time>2017-07-02T16:58:04Z</time>
      </trkpt>
      <trkpt lat="51.768479011952877" lon="7.640538001433015">
        <ele>64.069999999999993</ele>
        <time>2017-07-02T16:58:25Z</time>
      </trkpt>
      <trkpt lat="51.765679959207773" lon="7.64119204133749">
        <ele>65.030000000000001</ele>
        <time>2017-07-02T16:58:36Z</time>
      </trkpt>
      <trkpt lat="51.762351002544165" lon="7.642107009887695">
        <ele>66.469999999999999</ele>
        <time>2017-07-02T16:58:51Z</time>
      </trkpt>
      <trkpt lat="51.759975990280509" lon="7.642887029796839">
        <ele>67.909999999999997</ele>
        <time>2017-07-02T16:59:03Z</time>
      </trkpt>
      <trkpt lat="51.757880011573434" lon="7.643647016957402">
        <ele>67.909999999999997</ele>
        <time>2017-07-02T16:59:12Z</time>
      </trkpt>
      <trkpt lat="51.75557398237288" lon="7.644526027143002">
        <ele>68.870000000000005</ele>
        <time>2017-07-02T16:59:21Z</time>
      </trkpt>
      <trkpt lat="51.753421006724238" lon="7.645424986258149">
        <ele>69.829999999999998</ele>
        <time>2017-07-02T16:59:31Z</time>
      </trkpt>
      <trkpt lat="51.749560972675681" lon="7.647104971110821">
        <ele>73.680000000000007</ele>
        <time>2017-07-02T16:59:48Z</time>
      </trkpt>
      <trkpt lat="51.746201002970338" lon="7.648396035656333">
        <ele>78</ele>
        <time>2017-07-02T17:00:02Z</time>
      </trkpt>
      <trkpt lat="51.743117971345782" lon="7.649317961186171">
        <ele>81.370000000000005</ele>
        <time>2017-07-02T17:00:15Z</time>
      </trkpt>
      <trkpt lat="51.739976014941931" lon="7.650104016065598">
        <ele>84.730000000000004</ele>
        <time>2017-07-02T17:00:29Z</time>
      </trkpt>
      <trkpt lat="51.736689973622561" lon="7.650759983807802">
        <ele>87.620000000000005</ele>
        <time>2017-07-02T17:00:43Z</time>
      </trkpt>
      <trkpt lat="51.733136968687177" lon="7.651365995407105">
        <ele>86.659999999999997</ele>
        <time>2017-07-02T17:00:56Z</time>
      </trkpt>
      <trkpt lat="51.728861024603248" lon="7.652243999764323">
        <ele>83.769999999999996</ele>
        <time>2017-07-02T17:01:12Z</time>
      </trkpt>
      <trkpt lat="51.725482027977705" lon="7.653124015778303">
        <ele>81.849999999999994</ele>
        <time>2017-07-02T17:01:26Z</time>
      </trkpt>
      <trkpt lat="51.723159989342093" lon="7.653873022645712">
        <ele>81.370000000000005</ele>
        <time>2017-07-02T17:01:35Z</time>
      </trkpt>
      <trkpt lat="51.720547014847398" lon="7.654737029224634">
        <ele>80.409999999999997</ele>
        <time>2017-07-02T17:01:43Z</time>
      </trkpt>
      <trkpt lat="51.717474963515997" lon="7.655828017741442">
        <ele>79.930000000000007</ele>
        <time>2017-07-02T17:01:53Z</time>
      </trkpt>
      <trkpt lat="51.715068016201258" lon="7.656820015981793">
        <ele>80.409999999999997</ele>
        <time>2017-07-02T17:02:02Z</time>
      </trkpt>
      <trkpt lat="51.713079996407032" lon="7.657705983147025">
        <ele>81.370000000000005</ele>
        <time>2017-07-02T17:02:09Z</time>
      </trkpt>
      <trkpt lat="51.709323981776834" lon="7.65941496938467">
        <ele>80.890000000000001</ele>
        <time>2017-07-02T17:02:22Z</time>
      </trkpt>
      <trkpt lat="51.704328032210469" lon="7.662028027698398">
        <ele>78.480000000000004</ele>
        <time>2017-07-02T17:02:40Z</time>
      </trkpt>
      <trkpt lat="51.698920028284192" lon="7.665288001298904">
        <ele>73.200000000000003</ele>
        <time>2017-07-02T17:03:00Z</time>
      </trkpt>
      <trkpt lat="51.694074030965567" lon="7.668592985719442">
        <ele>66.950000000000003</ele>
        <time>2017-07-02T17:03:19Z</time>
      </trkpt>
      <trkpt lat="51.689213030040264" lon="7.67213299870491">
        <ele>63.579999999999998</ele>
        <time>2017-07-02T17:03:38Z</time>
      </trkpt>
      <trkpt lat="51.684067966416478" lon="7.675507972016931">
        <ele>66.950000000000003</ele>
        <time>2017-07-02T17:03:58Z</time>
      </trkpt>
      <trkpt lat="51.68001196347177" lon="7.677711993455887">
        <ele>75.120000000000005</ele>
        <time>2017-07-02T17:04:14Z</time>
      </trkpt>
      <trkpt lat="51.675669969990849" lon="7.679532039910555">
        <ele>77.040000000000006</ele>
        <time>2017-07-02T17:04:31Z</time>
      </trkpt>
      <trkpt lat="51.671262010931969" lon="7.680986970663071">
        <ele>73.680000000000007</ele>
        <time>2017-07-02T17:04:47Z</time>
      </trkpt>
      <trkpt lat="51.666524978354573" lon="7.682025991380215">
        <ele>63.579999999999998</ele>
        <time>2017-07-02T17:05:04Z</time>
      </trkpt>
      <trkpt lat="51.662587998434901" lon="7.682523038238287">
        <ele>62.140000000000001</ele>
        <time>2017-07-02T17:05:19Z</time>
      </trkpt>
      <trkpt lat="51.657043034210801" lon="7.682931991294026">
        <ele>61.659999999999997</ele>
        <time>2017-07-02T17:05:40Z</time>
      </trkpt>
      <trkpt lat="51.651776013895869" lon="7.683593994006515">
        <ele>53.490000000000002</ele>
        <time>2017-07-02T17:05:59Z</time>
      </trkpt>
      <trkpt lat="51.648669010028243" lon="7.68424803391099">
        <ele>54.450000000000003</ele>
        <time>2017-07-02T17:06:10Z</time>
      </trkpt>
      <trkpt lat="51.643521012738347" lon="7.685217987746">
        <ele>56.859999999999999</ele>
        <time>2017-07-02T17:06:28Z</time>
      </trkpt>
      <trkpt lat="51.63863000459969" lon="7.685586959123612">
        <ele>60.219999999999999</ele>
        <time>2017-07-02T17:06:45Z</time>
      </trkpt>
      <trkpt lat="51.634358000010252" lon="7.685659965500236">
        <ele>58.780000000000001</ele>
        <time>2017-07-02T17:07:00Z</time>
      </trkpt>
      <trkpt lat="51.629204973578453" lon="7.686363039538264">
        <ele>57.340000000000003</ele>
        <time>2017-07-02T17:07:18Z</time>
      </trkpt>
      <trkpt lat="51.625045035034418" lon="7.687501972541213">
        <ele>56.859999999999999</ele>
        <time>2017-07-02T17:07:33Z</time>
      </trkpt>
      <trkpt lat="51.622863980010152" lon="7.688338989391923">
        <ele>61.18</ele>
        <time>2017-07-02T17:07:42Z</time>
      </trkpt>
      <trkpt lat="51.619900977239013" lon="7.689326964318752">
        <ele>67.909999999999997</ele>
        <time>2017-07-02T17:07:54Z</time>
      </trkpt>
      <trkpt lat="51.616242025047541" lon="7.690031966194511">
        <ele>74.159999999999997</ele>
        <time>2017-07-02T17:08:08Z</time>
      </trkpt>
      <trkpt lat="51.612719027325511" lon="7.689935993403196">
        <ele>73.200000000000003</ele>
        <time>2017-07-02T17:08:21Z</time>
      </trkpt>
      <trkpt lat="51.608706023544073" lon="7.689052037894726">
        <ele>69.349999999999994</ele>
        <time>2017-07-02T17:08:36Z</time>
      </trkpt>
      <trkpt lat="51.603588033467531" lon="7.687724009156227">
        <ele>65.510000000000005</ele>
        <time>2017-07-02T17:08:55Z</time>
      </trkpt>
      <trkpt lat="51.59959296695888" lon="7.686745002865791">
        <ele>65.510000000000005</ele>
        <time>2017-07-02T17:09:10Z</time>
      </trkpt>
      <trkpt lat="51.593550033867359" lon="7.685229973867536">
        <ele>55.890000000000001</ele>
        <time>2017-07-02T17:09:33Z</time>
      </trkpt>
      <trkpt lat="51.589392023161054" lon="7.683865986764431">
        <ele>60.700000000000003</ele>
        <time>2017-07-02T17:09:49Z</time>
      </trkpt>
      <trkpt lat="51.587053975090384" lon="7.682322040200234">
        <ele>63.100000000000001</ele>
        <time>2017-07-02T17:09:59Z</time>
      </trkpt>
      <trkpt lat="51.583539023995399" lon="7.679343027994037">
        <ele>66.950000000000003</ele>
        <time>2017-07-02T17:10:15Z</time>
      </trkpt>
      <trkpt lat="51.580843990668654" lon="7.676547998562455">
        <ele>69.829999999999998</ele>
        <time>2017-07-02T17:10:28Z</time>
      </trkpt>
      <trkpt lat="51.577412020415068" lon="7.672232994809747">
        <ele>72.719999999999999</ele>
        <time>2017-07-02T17:10:46Z</time>
      </trkpt>
      <trkpt lat="51.575363986194134" lon="7.670200970023871">
        <ele>71.760000000000005</ele>
        <time>2017-07-02T17:10:57Z</time>
      </trkpt>
      <trkpt lat="51.573961023241282" lon="7.669110987335444">
        <ele>71.269999999999996</ele>
        <time>2017-07-02T17:11:07Z</time>
      </trkpt>
      <trkpt lat="51.573351994156837" lon="7.668668003752828">
        <ele>71.760000000000005</ele>
        <time>2017-07-02T17:11:14Z</time>
      </trkpt>
      <trkpt lat="51.572327977046371" lon="7.6680270396173">
        <ele>70.790000000000006</ele>
        <time>2017-07-02T17:11:27Z</time>
      </trkpt>
      <trkpt lat="51.571317035704851" lon="7.667396971955895">
        <ele>71.269999999999996</ele>
        <time>2017-07-02T17:11:44Z</time>
      </trkpt>
      <trkpt lat="51.569942990317941" lon="7.666646037250757">
        <ele>71.760000000000005</ele>
        <time>2017-07-02T17:12:05Z</time>
      </trkpt>
      <trkpt lat="51.568272979930043" lon="7.665947992354631">
        <ele>72.239999999999995</ele>
        <time>2017-07-02T17:12:27Z</time>
      </trkpt>
      <trkpt lat="51.566779995337129" lon="7.665486987680197">
        <ele>71.760000000000005</ele>
        <time>2017-07-02T17:12:42Z</time>
      </trkpt>
      <trkpt lat="51.565258009359241" lon="7.665156992152333">
        <ele>70.790000000000006</ele>
        <time>2017-07-02T17:12:54Z</time>
      </trkpt>
      <trkpt lat="51.56242199242115" lon="7.664819033816457">
        <ele>69.349999999999994</ele>
        <time>2017-07-02T17:13:12Z</time>
      </trkpt>
      <trkpt lat="51.56027203425765" lon="7.664618035778403">
        <ele>67.430000000000007</ele>
        <time>2017-07-02T17:13:24Z</time>
      </trkpt>
      <trkpt lat="51.558791035786271" lon="7.664460958912969">
        <ele>65.030000000000001</ele>
        <time>2017-07-02T17:13:34Z</time>
      </trkpt>
      <trkpt lat="51.557585969567299" lon="7.66433103941381">
        <ele>64.069999999999993</ele>
        <time>2017-07-02T17:13:46Z</time>
      </trkpt>
      <trkpt lat="51.555850999429822" lon="7.66418200917542">
        <ele>64.069999999999993</ele>
        <time>2017-07-02T17:14:02Z</time>
      </trkpt>
      <trkpt lat="51.554837040603161" lon="7.664072960615158">
        <ele>64.549999999999997</ele>
        <time>2017-07-02T17:14:10Z</time>
      </trkpt>
      <trkpt lat="51.553471041843295" lon="7.663928959518671">
        <ele>66.469999999999999</ele>
        <time>2017-07-02T17:14:21Z</time>
      </trkpt>
      <trkpt lat="51.553015988320112" lon="7.663871040567756">
        <ele>66.950000000000003</ele>
        <time>2017-07-02T17:14:29Z</time>
      </trkpt>
      <trkpt lat="51.552591025829315" lon="7.663847990334034">
        <ele>67.430000000000007</ele>
        <time>2017-07-02T17:14:41Z</time>
      </trkpt>
      <trkpt lat="51.552154999226332" lon="7.663791999220848">
        <ele>68.870000000000005</ele>
        <time>2017-07-02T17:14:50Z</time>
      </trkpt>
      <trkpt lat="51.550920009613037" lon="7.663674987852573">
        <ele>70.310000000000002</ele>
        <time>2017-07-02T17:15:07Z</time>
      </trkpt>
      <trkpt lat="51.549973022192717" lon="7.663587983697653">
        <ele>69.829999999999998</ele>
        <time>2017-07-02T17:15:21Z</time>
      </trkpt>
      <trkpt lat="51.549343960359693" lon="7.663512965664268">
        <ele>70.310000000000002</ele>
        <time>2017-07-02T17:15:35Z</time>
      </trkpt>
      <trkpt lat="51.549196019768715" lon="7.663498967885971">
        <ele>70.790000000000006</ele>
        <time>2017-07-02T17:15:43Z</time>
      </trkpt>
      <trkpt lat="51.548796035349369" lon="7.663470972329378">
        <ele>70.790000000000006</ele>
        <time>2017-07-02T17:15:54Z</time>
      </trkpt>
      <trkpt lat="51.548515995964408" lon="7.663415987044573">
        <ele>71.269999999999996</ele>
        <time>2017-07-02T17:16:04Z</time>
      </trkpt>
      <trkpt lat="51.54815498739481" lon="7.663369970396161">
        <ele>71.760000000000005</ele>
        <time>2017-07-02T17:16:13Z</time>
      </trkpt>
      <trkpt lat="51.547233983874321" lon="7.663264023140073">
        <ele>73.200000000000003</ele>
        <time>2017-07-02T17:16:25Z</time>
      </trkpt>
      <trkpt lat="51.545668998733163" lon="7.663083979859948">
        <ele>73.200000000000003</ele>
        <time>2017-07-02T17:16:42Z</time>
      </trkpt>
      <trkpt lat="51.544195963069797" lon="7.662834031507373">
        <ele>74.159999999999997</ele>
        <time>2017-07-02T17:16:55Z</time>
      </trkpt>
      <trkpt lat="51.54186001047492" lon="7.662318963557482">
        <ele>78</ele>
        <time>2017-07-02T17:17:11Z</time>
      </trkpt>
      <trkpt lat="51.539837038144469" lon="7.661878997460008">
        <ele>82.810000000000002</ele>
        <time>2017-07-02T17:17:24Z</time>
      </trkpt>
      <trkpt lat="51.538081029430032" lon="7.661512037739158">
        <ele>86.659999999999997</ele>
        <time>2017-07-02T17:17:38Z</time>
      </trkpt>
      <trkpt lat="51.537436963990331" lon="7.6613889914006">
        <ele>88.579999999999998</ele>
        <time>2017-07-02T17:17:47Z</time>
      </trkpt>
      <trkpt lat="51.536612017080188" lon="7.661222023889422">
        <ele>89.540000000000006</ele>
        <time>2017-07-02T17:18:01Z</time>
      </trkpt>
      <trkpt lat="51.536342035979033" lon="7.661166032776237">
        <ele>90.019999999999996</ele>
        <time>2017-07-02T17:18:11Z</time>
      </trkpt>
      <trkpt lat="51.535827973857522" lon="7.661050027236342">
        <ele>90.5</ele>
        <time>2017-07-02T17:18:19Z</time>
      </trkpt>
      <trkpt lat="51.53492197394371" lon="7.660879036411643">
        <ele>90.980000000000004</ele>
        <time>2017-07-02T17:18:29Z</time>
      </trkpt>
      <trkpt lat="51.533997030928731" lon="7.660607965663075">
        <ele>91.459999999999994</ele>
        <time>2017-07-02T17:18:39Z</time>
      </trkpt>
      <trkpt lat="51.532968990504742" lon="7.660382995381951">
        <ele>92.420000000000002</ele>
        <time>2017-07-02T17:18:49Z</time>
      </trkpt>
      <trkpt lat="51.531891999766231" lon="7.660137992352247">
        <ele>94.349999999999994</ele>
        <time>2017-07-02T17:18:59Z</time>
      </trkpt>
      <trkpt lat="51.53068601153791" lon="7.65988502651453">
        <ele>95.790000000000006</ele>
        <time>2017-07-02T17:19:14Z</time>
      </trkpt>
      <trkpt lat="51.52924700640142" lon="7.659574979916215">
        <ele>99.150000000000006</ele>
        <time>2017-07-02T17:19:27Z</time>
      </trkpt>
      <trkpt lat="51.528093991801143" lon="7.659336011856794">
        <ele>102.52</ele>
        <time>2017-07-02T17:19:39Z</time>
      </trkpt>
      <trkpt lat="51.527526034042239" lon="7.659221012145281">
        <ele>104.44</ele>
        <time>2017-07-02T17:19:48Z</time>
      </trkpt>
      <trkpt lat="51.527456967160106" lon="7.65921900048852">
        <ele>104.44</ele>
        <time>2017-07-02T17:19:57Z</time>
      </trkpt>
      <trkpt lat="51.52716401964426" lon="7.659165021032095">
        <ele>105.40000000000001</ele>
        <time>2017-07-02T17:20:04Z</time>
      </trkpt>
      <trkpt lat="51.526825977489352" lon="7.659084973856807">
        <ele>106.36</ele>
        <time>2017-07-02T17:20:12Z</time>
      </trkpt>
      <trkpt lat="51.526201022788882" lon="7.658943990245462">
        <ele>108.77</ele>
        <time>2017-07-02T17:20:20Z</time>
      </trkpt>
      <trkpt lat="51.525346990674734" lon="7.658760007470846">
        <ele>111.17</ele>
        <time>2017-07-02T17:20:29Z</time>
      </trkpt>
      <trkpt lat="51.524277040734887" lon="7.658511986956">
        <ele>114.53</ele>
        <time>2017-07-02T17:20:41Z</time>
      </trkpt>
      <trkpt lat="51.523268027231097" lon="7.658251980319619">
        <ele>116.45999999999999</ele>
        <time>2017-07-02T17:20:50Z</time>
      </trkpt>
      <trkpt lat="51.522962003946304" lon="7.65816698782146">
        <ele>116.45999999999999</ele>
        <time>2017-07-02T17:20:56Z</time>
      </trkpt>
      <trkpt lat="51.522411983460188" lon="7.657977975904942">
        <ele>118.38</ele>
        <time>2017-07-02T17:21:07Z</time>
      </trkpt>
      <trkpt lat="51.521918037906289" lon="7.65775702893734">
        <ele>118.86</ele>
        <time>2017-07-02T17:21:14Z</time>
      </trkpt>
      <trkpt lat="51.521553006023169" lon="7.657620990648866">
        <ele>119.34</ele>
        <time>2017-07-02T17:21:18Z</time>
      </trkpt>
      <trkpt lat="51.52080399915576" lon="7.657323013991118">
        <ele>120.78</ele>
        <time>2017-07-02T17:21:28Z</time>
      </trkpt>
      <trkpt lat="51.520088016986847" lon="7.656995030120015">
        <ele>121.73999999999999</ele>
        <time>2017-07-02T17:21:38Z</time>
      </trkpt>
      <trkpt lat="51.519297016784549" lon="7.656622035428882">
        <ele>120.78</ele>
        <time>2017-07-02T17:21:47Z</time>
      </trkpt>
      <trkpt lat="51.518454970791936" lon="7.656223978847265">
        <ele>119.34</ele>
        <time>2017-07-02T17:22:00Z</time>
      </trkpt>
      <trkpt lat="51.517662964761257" lon="7.655844027176499">
        <ele>118.86</ele>
        <time>2017-07-02T17:22:16Z</time>
      </trkpt>
      <trkpt lat="51.517159966751933" lon="7.655595000833273">
        <ele>118.86</ele>
        <time>2017-07-02T17:22:33Z</time>
      </trkpt>
      <trkpt lat="51.516828965395689" lon="7.655429961159825">
        <ele>118.86</ele>
        <time>2017-07-02T17:22:45Z</time>
      </trkpt>
      <trkpt lat="51.516754031181335" lon="7.655397020280361">
        <ele>119.34</ele>
        <time>2017-07-02T17:22:47Z</time>
      </trkpt>
      <trkpt lat="51.516583962365985" lon="7.655336000025272">
        <ele>118.86</ele>
        <time>2017-07-02T17:22:50Z</time>
      </trkpt>
      <trkpt lat="51.515923971310258" lon="7.655012039467692">
        <ele>118.38</ele>
        <time>2017-07-02T17:23:01Z</time>
      </trkpt>
      <trkpt lat="51.515062982216477" lon="7.654655976220965">
        <ele>116.45999999999999</ele>
        <time>2017-07-02T17:23:14Z</time>
      </trkpt>
      <trkpt lat="51.51412496343255" lon="7.654224978759885">
        <ele>115.98</ele>
        <time>2017-07-02T17:23:28Z</time>
      </trkpt>
      <trkpt lat="51.513240002095699" lon="7.653798004612327">
        <ele>115.98</ele>
        <time>2017-07-02T17:23:41Z</time>
      </trkpt>
      <trkpt lat="51.512444978579879" lon="7.653410006314516">
        <ele>115.98</ele>
        <time>2017-07-02T17:23:53Z</time>
      </trkpt>
      <trkpt lat="51.511145029217005" lon="7.652770970016718">
        <ele>115.01000000000001</ele>
        <time>2017-07-02T17:24:09Z</time>
      </trkpt>
      <trkpt lat="51.509492034092546" lon="7.651993967592716">
        <ele>115.5</ele>
        <time>2017-07-02T17:24:29Z</time>
      </trkpt>
      <trkpt lat="51.507825963199139" lon="7.651057038456202">
        <ele>116.94</ele>
        <time>2017-07-02T17:24:48Z</time>
      </trkpt>
      <trkpt lat="51.506547974422574" lon="7.65015103854239">
        <ele>118.86</ele>
        <time>2017-07-02T17:25:03Z</time>
      </trkpt>
      <trkpt lat="51.505172001197934" lon="7.648948989808559">
        <ele>119.81999999999999</ele>
        <time>2017-07-02T17:25:20Z</time>
      </trkpt>
      <trkpt lat="51.504168016836047" lon="7.647870993241668">
        <ele>121.26000000000001</ele>
        <time>2017-07-02T17:25:35Z</time>
      </trkpt>
      <trkpt lat="51.503419009968638" lon="7.646957030519843">
        <ele>121.26000000000001</ele>
        <time>2017-07-02T17:25:46Z</time>
      </trkpt>
      <trkpt lat="51.502178991213441" lon="7.645279979333282">
        <ele>122.22</ele>
        <time>2017-07-02T17:26:07Z</time>
      </trkpt>
      <trkpt lat="51.500745015218854" lon="7.643261030316353">
        <ele>125.59</ele>
        <time>2017-07-02T17:26:29Z</time>
      </trkpt>
      <trkpt lat="51.499947980046272" lon="7.642120001837611">
        <ele>125.59</ele>
        <time>2017-07-02T17:26:38Z</time>
      </trkpt>
      <trkpt lat="51.498698992654681" lon="7.640349995344877">
        <ele>128.47</ele>
        <time>2017-07-02T17:26:47Z</time>
      </trkpt>
      <trkpt lat="51.496587004512548" lon="7.637351034209132">
        <ele>134.24000000000001</ele>
        <time>2017-07-02T17:26:59Z</time>
      </trkpt>
      <trkpt lat="51.493794992566109" lon="7.633396033197641">
        <ele>143.37</ele>
        <time>2017-07-02T17:27:13Z</time>
      </trkpt>
      <trkpt lat="51.490396969020367" lon="7.628948008641601">
        <ele>155.87</ele>
        <time>2017-07-02T17:27:29Z</time>
      </trkpt>
      <trkpt lat="51.487584002315998" lon="7.626194972544909">
        <ele>164.52000000000001</ele>
        <time>2017-07-02T17:27:41Z</time>
      </trkpt>
      <trkpt lat="51.485550971701741" lon="7.623866982758045">
        <ele>171.25</ele>
        <time>2017-07-02T17:27:50Z</time>
      </trkpt>
      <trkpt lat="51.483563035726547" lon="7.62058898806572">
        <ele>177.97999999999999</ele>
        <time>2017-07-02T17:28:00Z</time>
      </trkpt>
      <trkpt lat="51.482290998101234" lon="7.617511991411448">
        <ele>182.78999999999999</ele>
        <time>2017-07-02T17:28:08Z</time>
      </trkpt>
      <trkpt lat="51.480532977730036" lon="7.612027963623405">
        <ele>183.27000000000001</ele>
        <time>2017-07-02T17:28:21Z</time>
      </trkpt>
      <trkpt lat="51.479021972045302" lon="7.608608985319734">
        <ele>180.87</ele>
        <time>2017-07-02T17:28:30Z</time>
      </trkpt>
      <trkpt lat="51.477322960272431" lon="7.606161972507834">
        <ele>177.97999999999999</ele>
        <time>2017-07-02T17:28:38Z</time>
      </trkpt>
      <trkpt lat="51.474475963041186" lon="7.603184971958399">
        <ele>171.25</ele>
        <time>2017-07-02T17:28:50Z</time>
      </trkpt>
      <trkpt lat="51.471964996308088" lon="7.600724967196584">
        <ele>165.47999999999999</ele>
        <time>2017-07-02T17:29:01Z</time>
      </trkpt>
      <trkpt lat="51.470428006723523" lon="7.598775001242757">
        <ele>162.12</ele>
        <time>2017-07-02T17:29:09Z</time>
      </trkpt>
      <trkpt lat="51.469441959634423" lon="7.597258966416121">
        <ele>159.72</ele>
        <time>2017-07-02T17:29:16Z</time>
      </trkpt>
      <trkpt lat="51.469110958278179" lon="7.596521023660898">
        <ele>158.75</ele>
        <time>2017-07-02T17:29:22Z</time>
      </trkpt>
      <trkpt lat="51.469070976600051" lon="7.596454974263907">
        <ele>158.75</ele>
        <time>2017-07-02T17:29:23Z</time>
      </trkpt>
      <trkpt lat="51.468912977725267" lon="7.596202008426189">
        <ele>157.78999999999999</ele>
        <time>2017-07-02T17:29:27Z</time>
      </trkpt>
      <trkpt lat="51.468892022967339" lon="7.596133025363088">
        <ele>157.31</ele>
        <time>2017-07-02T17:29:28Z</time>
      </trkpt>
      <trkpt lat="51.468879031017423" lon="7.596057001501322">
        <ele>157.31</ele>
        <time>2017-07-02T17:29:29Z</time>
      </trkpt>
      <trkpt lat="51.468790015205741" lon="7.595559032633901">
        <ele>154.43000000000001</ele>
        <time>2017-07-02T17:29:40Z</time>
      </trkpt>
      <trkpt lat="51.46881197579205" lon="7.595519972965121">
        <ele>152.99000000000001</ele>
        <time>2017-07-02T17:30:36Z</time>
      </trkpt>
      <trkpt lat="51.46880803629756" lon="7.595526007935405">
        <ele>152.50999999999999</ele>
        <time>2017-07-02T17:31:06Z</time>
      </trkpt>
      <trkpt lat="51.468805018812418" lon="7.595627009868622">
        <ele>153.47</ele>
        <time>2017-07-02T17:31:45Z</time>
      </trkpt>
      <trkpt lat="51.468814993277192" lon="7.595749972388148">
        <ele>154.91</ele>
        <time>2017-07-02T17:32:20Z</time>
      </trkpt>
      <trkpt lat="51.468821028247476" lon="7.595741003751755">
        <ele>155.38999999999999</ele>
        <time>2017-07-02T17:33:14Z</time>
      </trkpt>
      <trkpt lat="51.468824967741966" lon="7.595715019851923">
        <ele>154.43000000000001</ele>
        <time>2017-07-02T17:33:53Z</time>
      </trkpt>
      <trkpt lat="51.468834020197392" lon="7.595673026517034">
        <ele>153.94999999999999</ele>
        <time>2017-07-02T17:34:49Z</time>
      </trkpt>
      <trkpt lat="51.468837037682533" lon="7.59566699154675">
        <ele>152.99000000000001</ele>
        <time>2017-07-02T17:35:47Z</time>
      </trkpt>
      <trkpt lat="51.468834020197392" lon="7.595657017081976">
        <ele>151.53999999999999</ele>
        <time>2017-07-02T17:37:05Z</time>
      </trkpt>
      <trkpt lat="51.468663029372692" lon="7.595437997952104">
        <ele>157.31</ele>
        <time>2017-07-02T17:37:24Z</time>
      </trkpt>
      <trkpt lat="51.468475023284554" lon="7.595267007127404">
        <ele>159.24000000000001</ele>
        <time>2017-07-02T17:37:27Z</time>
      </trkpt>
      <trkpt lat="51.468406962230802" lon="7.595181008800864">
        <ele>159.24000000000001</ele>
        <time>2017-07-02T17:37:28Z</time>
      </trkpt>
      <trkpt lat="51.468339990824461" lon="7.595076989382505">
        <ele>159.24000000000001</ele>
        <time>2017-07-02T17:37:29Z</time>
      </trkpt>
      <trkpt lat="51.46827301941812" lon="7.59495603851974">
        <ele>158.75</ele>
        <time>2017-07-02T17:37:30Z</time>
      </trkpt>
      <trkpt lat="51.468202024698257" lon="7.594820000231266">
        <ele>158.75</ele>
        <time>2017-07-02T17:37:31Z</time>
      </trkpt>
      <trkpt lat="51.467299964278936" lon="7.593021998181939">
        <ele>157.78999999999999</ele>
        <time>2017-07-02T17:37:42Z</time>
      </trkpt>
      <trkpt lat="51.466477029025555" lon="7.59130597114563">
        <ele>156.34999999999999</ele>
        <time>2017-07-02T17:37:49Z</time>
      </trkpt>
      <trkpt lat="51.465398026630282" lon="7.588609009981155">
        <ele>154.91</ele>
        <time>2017-07-02T17:37:57Z</time>
      </trkpt>
      <trkpt lat="51.463930020108819" lon="7.58417297154665">
        <ele>152.50999999999999</ele>
        <time>2017-07-02T17:38:08Z</time>
      </trkpt>
      <trkpt lat="51.462217010557652" lon="7.578359032049775">
        <ele>150.09999999999999</ele>
        <time>2017-07-02T17:38:22Z</time>
      </trkpt>
      <trkpt lat="51.460332004353404" lon="7.57184000685811">
        <ele>150.09999999999999</ele>
        <time>2017-07-02T17:38:38Z</time>
      </trkpt>
      <trkpt lat="51.458251029253006" lon="7.564731985330582">
        <ele>153.47</ele>
        <time>2017-07-02T17:38:55Z</time>
      </trkpt>
      <trkpt lat="51.456848988309503" lon="7.55985002964735">
        <ele>157.31</ele>
        <time>2017-07-02T17:39:05Z</time>
      </trkpt>
      <trkpt lat="51.455663032829762" lon="7.555634016171098">
        <ele>158.75</ele>
        <time>2017-07-02T17:39:14Z</time>
      </trkpt>
      <trkpt lat="51.454145992174745" lon="7.549790991470218">
        <ele>152.99000000000001</ele>
        <time>2017-07-02T17:39:25Z</time>
      </trkpt>
      <trkpt lat="51.453179977834225" lon="7.546415012329817">
        <ele>146.25999999999999</ele>
        <time>2017-07-02T17:39:32Z</time>
      </trkpt>
      <trkpt lat="51.45185898989439" lon="7.543202983215451">
        <ele>138.56999999999999</ele>
        <time>2017-07-02T17:39:40Z</time>
      </trkpt>
      <trkpt lat="51.45013801753521" lon="7.540523037314415">
        <ele>131.84</ele>
        <time>2017-07-02T17:39:48Z</time>
      </trkpt>
      <trkpt lat="51.448130970820785" lon="7.538423035293818">
        <ele>126.55</ele>
        <time>2017-07-02T17:39:56Z</time>
      </trkpt>
      <trkpt lat="51.445897025987506" lon="7.537022000178695">
        <ele>123.19</ele>
        <time>2017-07-02T17:40:04Z</time>
      </trkpt>
      <trkpt lat="51.442195996642113" lon="7.535627000033855">
        <ele>121.26000000000001</ele>
        <time>2017-07-02T17:40:16Z</time>
      </trkpt>
      <trkpt lat="51.437092004343867" lon="7.533822041004896">
        <ele>127.03</ele>
        <time>2017-07-02T17:40:32Z</time>
      </trkpt>
      <trkpt lat="51.433938983827829" lon="7.532646981999278">
        <ele>133.28</ele>
        <time>2017-07-02T17:40:41Z</time>
      </trkpt>
      <trkpt lat="51.431188965216279" lon="7.531491033732891">
        <ele>141.44999999999999</ele>
        <time>2017-07-02T17:40:50Z</time>
      </trkpt>
      <trkpt lat="51.429198011755943" lon="7.529720021411777">
        <ele>149.13999999999999</ele>
        <time>2017-07-02T17:40:57Z</time>
      </trkpt>
      <trkpt lat="51.427536970004439" lon="7.527211988344789">
        <ele>154.91</ele>
        <time>2017-07-02T17:41:04Z</time>
      </trkpt>
      <trkpt lat="51.426298962906003" lon="7.524065002799034">
        <ele>156.83000000000001</ele>
        <time>2017-07-02T17:41:11Z</time>
      </trkpt>
      <trkpt lat="51.424853000789881" lon="7.520552985370159">
        <ele>153.47</ele>
        <time>2017-07-02T17:41:19Z</time>
      </trkpt>
      <trkpt lat="51.423161029815674" lon="7.518113013356924">
        <ele>146.74000000000001</ele>
        <time>2017-07-02T17:41:26Z</time>
      </trkpt>
      <trkpt lat="51.418311009183526" lon="7.512146020308137">
        <ele>117.90000000000001</ele>
        <time>2017-07-02T17:41:44Z</time>
      </trkpt>
      <trkpt lat="51.415471974760294" lon="7.508107032626867">
        <ele>107.81</ele>
        <time>2017-07-02T17:41:55Z</time>
      </trkpt>
      <trkpt lat="51.413041977211833" lon="7.503693960607052">
        <ele>105.40000000000001</ele>
        <time>2017-07-02T17:42:06Z</time>
      </trkpt>
      <trkpt lat="51.41077701933682" lon="7.498367009684444">
        <ele>104.92</ele>
        <time>2017-07-02T17:42:18Z</time>
      </trkpt>
      <trkpt lat="51.408958984538913" lon="7.492728000506759">
        <ele>106.36</ele>
        <time>2017-07-02T17:42:30Z</time>
      </trkpt>
      <trkpt lat="51.407746039330959" lon="7.487633982673287">
        <ele>108.77</ele>
        <time>2017-07-02T17:42:40Z</time>
      </trkpt>
      <trkpt lat="51.405654000118375" lon="7.477601012215018">
        <ele>119.81999999999999</ele>
        <time>2017-07-02T17:42:59Z</time>
      </trkpt>
      <trkpt lat="51.403739992529154" lon="7.469336036592722">
        <ele>131.84</ele>
        <time>2017-07-02T17:43:15Z</time>
      </trkpt>
      <trkpt lat="51.402178024873137" lon="7.465117005631328">
        <ele>127.98999999999999</ele>
        <time>2017-07-02T17:43:24Z</time>
      </trkpt>
      <trkpt lat="51.400052960962057" lon="7.459357967600226">
        <ele>112.13</ele>
        <time>2017-07-02T17:43:36Z</time>
      </trkpt>
      <trkpt lat="51.398842027410865" lon="7.45397200807929">
        <ele>103.48</ele>
        <time>2017-07-02T17:43:46Z</time>
      </trkpt>
      <trkpt lat="51.397377960383892" lon="7.448803978040814">
        <ele>97.709999999999994</ele>
        <time>2017-07-02T17:43:56Z</time>
      </trkpt>
      <trkpt lat="51.395852034911513" lon="7.445669984444976">
        <ele>96.269999999999996</ele>
        <time>2017-07-02T17:44:03Z</time>
      </trkpt>
      <trkpt lat="51.394015979021788" lon="7.443152982741594">
        <ele>96.75</ele>
        <time>2017-07-02T17:44:10Z</time>
      </trkpt>
      <trkpt lat="51.392036005854607" lon="7.441351041197777">
        <ele>96.75</ele>
        <time>2017-07-02T17:44:17Z</time>
      </trkpt>
      <trkpt lat="51.390233980491757" lon="7.440320989117026">
        <ele>92.420000000000002</ele>
        <time>2017-07-02T17:44:24Z</time>
      </trkpt>
      <trkpt lat="51.38809097930789" lon="7.439366960898042">
        <ele>90.019999999999996</ele>
        <time>2017-07-02T17:44:33Z</time>
      </trkpt>
      <trkpt lat="51.38594001531601" lon="7.438330035656691">
        <ele>98.189999999999998</ele>
        <time>2017-07-02T17:44:42Z</time>
      </trkpt>
      <trkpt lat="51.383066028356552" lon="7.436942998319864">
        <ele>112.13</ele>
        <time>2017-07-02T17:44:52Z</time>
      </trkpt>
      <trkpt lat="51.380771985277534" lon="7.435266030952334">
        <ele>119.34</ele>
        <time>2017-07-02T17:45:00Z</time>
      </trkpt>
      <trkpt lat="51.379339015111327" lon="7.433282034471631">
        <ele>126.55</ele>
        <time>2017-07-02T17:45:06Z</time>
      </trkpt>
      <trkpt lat="51.378088016062975" lon="7.43037804029882">
        <ele>135.68000000000001</ele>
        <time>2017-07-02T17:45:13Z</time>
      </trkpt>
      <trkpt lat="51.376323038712144" lon="7.425823984667659">
        <ele>142.41</ele>
        <time>2017-07-02T17:45:24Z</time>
      </trkpt>
      <trkpt lat="51.373975016176701" lon="7.419631015509367">
        <ele>136.16</ele>
        <time>2017-07-02T17:45:38Z</time>
      </trkpt>
      <trkpt lat="51.371583994477987" lon="7.413509963080287">
        <ele>128.94999999999999</ele>
        <time>2017-07-02T17:45:52Z</time>
      </trkpt>
      <trkpt lat="51.369869979098439" lon="7.409726958721876">
        <ele>130.40000000000001</ele>
        <time>2017-07-02T17:46:01Z</time>
      </trkpt>
      <trkpt lat="51.36757199652493" lon="7.405021023005247">
        <ele>139.53</ele>
        <time>2017-07-02T17:46:13Z</time>
      </trkpt>
      <trkpt lat="51.364501034840941" lon="7.398194968700409">
        <ele>161.63999999999999</ele>
        <time>2017-07-02T17:46:29Z</time>
      </trkpt>
      <trkpt lat="51.363540971651673" lon="7.395243030041456">
        <ele>171.25</ele>
        <time>2017-07-02T17:46:35Z</time>
      </trkpt>
      <trkpt lat="51.362478984519839" lon="7.391810975968838">
        <ele>181.83000000000001</ele>
        <time>2017-07-02T17:46:43Z</time>
      </trkpt>
      <trkpt lat="51.361243994906545" lon="7.387746004387736">
        <ele>194.80000000000001</ele>
        <time>2017-07-02T17:46:54Z</time>
      </trkpt>
      <trkpt lat="51.360360961407423" lon="7.384477984160185">
        <ele>204.41999999999999</ele>
        <time>2017-07-02T17:47:02Z</time>
      </trkpt>
      <trkpt lat="51.359594017267227" lon="7.380266999825835">
        <ele>214.99000000000001</ele>
        <time>2017-07-02T17:47:10Z</time>
      </trkpt>
      <trkpt lat="51.358580980449915" lon="7.374333031475544">
        <ele>219.31999999999999</ele>
        <time>2017-07-02T17:47:21Z</time>
      </trkpt>
      <trkpt lat="51.357557969167829" lon="7.37138201482594">
        <ele>217.40000000000001</ele>
        <time>2017-07-02T17:47:27Z</time>
      </trkpt>
      <trkpt lat="51.356104966253042" lon="7.368845986202359">
        <ele>212.59</ele>
        <time>2017-07-02T17:47:33Z</time>
      </trkpt>
      <trkpt lat="51.354159023612738" lon="7.366672977805138">
        <ele>206.81999999999999</ele>
        <time>2017-07-02T17:47:40Z</time>
      </trkpt>
      <trkpt lat="51.352345012128353" lon="7.364358985796571">
        <ele>202.00999999999999</ele>
        <time>2017-07-02T17:47:47Z</time>
      </trkpt>
      <trkpt lat="51.35102704167366" lon="7.361530009657145">
        <ele>197.21000000000001</ele>
        <time>2017-07-02T17:47:54Z</time>
      </trkpt>
      <trkpt lat="51.350183989852667" lon="7.358271963894367">
        <ele>192.88</ele>
        <time>2017-07-02T17:48:01Z</time>
      </trkpt>
      <trkpt lat="51.349357031285763" lon="7.35350601375103">
        <ele>187.11000000000001</ele>
        <time>2017-07-02T17:48:11Z</time>
      </trkpt>
      <trkpt lat="51.34834298864007" lon="7.350235981866717">
        <ele>189.03999999999999</ele>
        <time>2017-07-02T17:48:18Z</time>
      </trkpt>
      <trkpt lat="51.346447002142668" lon="7.346372008323669">
        <ele>195.77000000000001</ele>
        <time>2017-07-02T17:48:27Z</time>
      </trkpt>
      <trkpt lat="51.342398962005973" lon="7.338407021015883">
        <ele>188.56</ele>
        <time>2017-07-02T17:48:45Z</time>
      </trkpt>
      <trkpt lat="51.33888803422451" lon="7.331432020291686">
        <ele>183.75</ele>
        <time>2017-07-02T17:49:01Z</time>
      </trkpt>
      <trkpt lat="51.334530031308532" lon="7.322870995849371">
        <ele>212.59</ele>
        <time>2017-07-02T17:49:21Z</time>
      </trkpt>
      <trkpt lat="51.332483002915978" lon="7.31968897394836">
        <ele>222.68000000000001</ele>
        <time>2017-07-02T17:49:29Z</time>
      </trkpt>
      <trkpt lat="51.329431990161538" lon="7.315879985690117">
        <ele>225.56999999999999</ele>
        <time>2017-07-02T17:49:40Z</time>
      </trkpt>
      <trkpt lat="51.327716968953609" lon="7.312930980697274">
        <ele>220.75999999999999</ele>
        <time>2017-07-02T17:49:47Z</time>
      </trkpt>
      <trkpt lat="51.326219039037824" lon="7.308870032429695">
        <ele>209.69999999999999</ele>
        <time>2017-07-02T17:49:55Z</time>
      </trkpt>
      <trkpt lat="51.325348997488618" lon="7.304934980347753">
        <ele>203.46000000000001</ele>
        <time>2017-07-02T17:50:02Z</time>
      </trkpt>
      <trkpt lat="51.324811968952417" lon="7.301152981817722">
        <ele>203.46000000000001</ele>
        <time>2017-07-02T17:50:09Z</time>
      </trkpt>
      <trkpt lat="51.323665995150805" lon="7.295230999588966">
        <ele>214.03</ele>
        <time>2017-07-02T17:50:21Z</time>
      </trkpt>
      <trkpt lat="51.322146020829678" lon="7.289673965424299">
        <ele>231.33000000000001</ele>
        <time>2017-07-02T17:50:33Z</time>
      </trkpt>
      <trkpt lat="51.320214997977018" lon="7.284564021974802">
        <ele>250.56</ele>
        <time>2017-07-02T17:50:45Z</time>
      </trkpt>
      <trkpt lat="51.317814001813531" lon="7.279665973037481">
        <ele>271.23000000000002</ele>
        <time>2017-07-02T17:50:57Z</time>
      </trkpt>
      <trkpt lat="51.313798986375332" lon="7.27269901894033">
        <ele>289.49000000000001</ele>
        <time>2017-07-02T17:51:15Z</time>
      </trkpt>
      <trkpt lat="51.31149304099381" lon="7.268664976581931">
        <ele>288.05000000000001</ele>
        <time>2017-07-02T17:51:25Z</time>
      </trkpt>
      <trkpt lat="51.309397984296083" lon="7.265877993777394">
        <ele>282.27999999999997</ele>
        <time>2017-07-02T17:51:33Z</time>
      </trkpt>
      <trkpt lat="51.307299993932247" lon="7.264126008376479">
        <ele>272.67000000000002</ele>
        <time>2017-07-02T17:51:40Z</time>
      </trkpt>
      <trkpt lat="51.304964041337371" lon="7.263093022629619">
        <ele>261.13999999999999</ele>
        <time>2017-07-02T17:51:47Z</time>
      </trkpt>
      <trkpt lat="51.301511032506824" lon="7.262428002431989">
        <ele>244.31</ele>
        <time>2017-07-02T17:51:57Z</time>
      </trkpt>
      <trkpt lat="51.297299964353442" lon="7.261685030534864">
        <ele>226.05000000000001</ele>
        <time>2017-07-02T17:52:10Z</time>
      </trkpt>
      <trkpt lat="51.294913971796632" lon="7.260738965123892">
        <ele>216.43000000000001</ele>
        <time>2017-07-02T17:52:18Z</time>
      </trkpt>
      <trkpt lat="51.29282696172595" lon="7.259117988869548">
        <ele>209.69999999999999</ele>
        <time>2017-07-02T17:52:25Z</time>
      </trkpt>
      <trkpt lat="51.290210969746113" lon="7.257286962121725">
        <ele>202.00999999999999</ele>
        <time>2017-07-02T17:52:35Z</time>
      </trkpt>
      <trkpt lat="51.288366029039025" lon="7.256712969392538">
        <ele>199.13</ele>
        <time>2017-07-02T17:52:42Z</time>
      </trkpt>
      <trkpt lat="51.28637901507318" lon="7.256806008517742">
        <ele>197.69</ele>
        <time>2017-07-02T17:52:50Z</time>
      </trkpt>
      <trkpt lat="51.284001991152763" lon="7.257602959871292">
        <ele>197.21000000000001</ele>
        <time>2017-07-02T17:53:01Z</time>
      </trkpt>
      <trkpt lat="51.281945994123816" lon="7.258373005315661">
        <ele>200.09</ele>
        <time>2017-07-02T17:53:12Z</time>
      </trkpt>
      <trkpt lat="51.27943997271359" lon="7.259314963594079">
        <ele>206.81999999999999</ele>
        <time>2017-07-02T17:53:24Z</time>
      </trkpt>
      <trkpt lat="51.277409037575126" lon="7.259655017405748">
        <ele>214.50999999999999</ele>
        <time>2017-07-02T17:53:33Z</time>
      </trkpt>
      <trkpt lat="51.275882022455335" lon="7.259102985262871">
        <ele>221.24000000000001</ele>
        <time>2017-07-02T17:53:39Z</time>
      </trkpt>
      <trkpt lat="51.274466989561915" lon="7.25783497095108">
        <ele>228.44999999999999</ele>
        <time>2017-07-02T17:53:45Z</time>
      </trkpt>
      <trkpt lat="51.273044999688864" lon="7.255709990859032">
        <ele>235.18000000000001</ele>
        <time>2017-07-02T17:53:52Z</time>
      </trkpt>
      <trkpt lat="51.271421005949378" lon="7.253608983010054">
        <ele>241.91</ele>
        <time>2017-07-02T17:53:59Z</time>
      </trkpt>
      <trkpt lat="51.269423011690378" lon="7.252299981191754">
        <ele>245.27000000000001</ele>
        <time>2017-07-02T17:54:06Z</time>
      </trkpt>
      <trkpt lat="51.267501963302493" lon="7.250704988837242">
        <ele>245.75</ele>
        <time>2017-07-02T17:54:13Z</time>
      </trkpt>
      <trkpt lat="51.266438970342278" lon="7.248921990394592">
        <ele>245.27000000000001</ele>
        <time>2017-07-02T17:54:18Z</time>
      </trkpt>
      <trkpt lat="51.265186965465546" lon="7.245393041521311">
        <ele>241.43000000000001</ele>
        <time>2017-07-02T17:54:26Z</time>
      </trkpt>
      <trkpt lat="51.263891039416194" lon="7.242559036239982">
        <ele>236.13999999999999</ele>
        <time>2017-07-02T17:54:33Z</time>
      </trkpt>
      <trkpt lat="51.262197978794575" lon="7.240359960123897">
        <ele>228.44999999999999</ele>
        <time>2017-07-02T17:54:40Z</time>
      </trkpt>
      <trkpt lat="51.260093031451106" lon="7.237368039786816">
        <ele>216.91</ele>
        <time>2017-07-02T17:54:49Z</time>
      </trkpt>
      <trkpt lat="51.257561026141047" lon="7.232219958677888">
        <ele>203.94</ele>
        <time>2017-07-02T17:55:02Z</time>
      </trkpt>
      <trkpt lat="51.254987027496099" lon="7.227641008794308">
        <ele>199.61000000000001</ele>
        <time>2017-07-02T17:55:14Z</time>
      </trkpt>
      <trkpt lat="51.25294997356832" lon="7.225815011188388">
        <ele>201.05000000000001</ele>
        <time>2017-07-02T17:55:21Z</time>
      </trkpt>
      <trkpt lat="51.250995984300971" lon="7.225058041512966">
        <ele>203.94</ele>
        <time>2017-07-02T17:55:27Z</time>
      </trkpt>
      <trkpt lat="51.248948033899069" lon="7.225016970187426">
        <ele>209.22</ele>
        <time>2017-07-02T17:55:33Z</time>
      </trkpt>
      <trkpt lat="51.24590003862977" lon="7.225764971226454">
        <ele>220.75999999999999</ele>
        <time>2017-07-02T17:55:42Z</time>
      </trkpt>
      <trkpt lat="51.242721034213901" lon="7.227219985798001">
        <ele>235.18000000000001</ele>
        <time>2017-07-02T17:55:52Z</time>
      </trkpt>
      <trkpt lat="51.240554982796311" lon="7.229137010872364">
        <ele>246.22999999999999</ele>
        <time>2017-07-02T17:56:00Z</time>
      </trkpt>
      <trkpt lat="51.238586995750666" lon="7.230393039062619">
        <ele>251.03999999999999</ele>
        <time>2017-07-02T17:56:07Z</time>
      </trkpt>
      <trkpt lat="51.236548013985157" lon="7.23060904070735">
        <ele>255.37</ele>
        <time>2017-07-02T17:56:14Z</time>
      </trkpt>
      <trkpt lat="51.234723022207618" lon="7.23005399107933">
        <ele>259.20999999999998</ele>
        <time>2017-07-02T17:56:20Z</time>
      </trkpt>
      <trkpt lat="51.232754029333591" lon="7.229745034128428">
        <ele>265.94</ele>
        <time>2017-07-02T17:56:26Z</time>
      </trkpt>
      <trkpt lat="51.230830969288945" lon="7.230366971343756">
        <ele>273.63</ele>
        <time>2017-07-02T17:56:32Z</time>
      </trkpt>
      <trkpt lat="51.229068003594875" lon="7.231840007007122">
        <ele>280.83999999999997</ele>
        <time>2017-07-02T17:56:38Z</time>
      </trkpt>
      <trkpt lat="51.227632015943527" lon="7.234050985425711">
        <ele>289.49000000000001</ele>
        <time>2017-07-02T17:56:44Z</time>
      </trkpt>
      <trkpt lat="51.223753038793802" lon="7.240824988111854">
        <ele>304.38999999999999</ele>
        <time>2017-07-02T17:57:01Z</time>
      </trkpt>
      <trkpt lat="51.220658021047711" lon="7.246152022853494">
        <ele>303.43000000000001</ele>
        <time>2017-07-02T17:57:14Z</time>
      </trkpt>
      <trkpt lat="51.218489035964012" lon="7.24908703006804">
        <ele>300.06999999999999</ele>
        <time>2017-07-02T17:57:22Z</time>
      </trkpt>
      <trkpt lat="51.2163379881531" lon="7.250970024615526">
        <ele>302.47000000000003</ele>
        <time>2017-07-02T17:57:29Z</time>
      </trkpt>
      <trkpt lat="51.213701041415334" lon="7.25233300589025">
        <ele>310.63999999999999</ele>
        <time>2017-07-02T17:57:37Z</time>
      </trkpt>
      <trkpt lat="51.210925038903952" lon="7.252836003899574">
        <ele>319.30000000000001</ele>
        <time>2017-07-02T17:57:45Z</time>
      </trkpt>
      <trkpt lat="51.20849302969873" lon="7.252448005601764">
        <ele>324.10000000000002</ele>
        <time>2017-07-02T17:57:52Z</time>
      </trkpt>
      <trkpt lat="51.206183983013034" lon="7.251377971842885">
        <ele>326.99000000000001</ele>
        <time>2017-07-02T17:57:59Z</time>
      </trkpt>
      <trkpt lat="51.203745016828179" lon="7.249487014487386">
        <ele>328.91000000000003</ele>
        <time>2017-07-02T17:58:07Z</time>
      </trkpt>
      <trkpt lat="51.201172024011612" lon="7.246535997837782">
        <ele>327.94999999999999</ele>
        <time>2017-07-02T17:58:16Z</time>
      </trkpt>
      <trkpt lat="51.196071971207857" lon="7.240448975935578">
        <ele>303.91000000000003</ele>
        <time>2017-07-02T17:58:34Z</time>
      </trkpt>
      <trkpt lat="51.193524040281773" lon="7.237654030323029">
        <ele>301.50999999999999</ele>
        <time>2017-07-02T17:58:43Z</time>
      </trkpt>
      <trkpt lat="51.191621012985706" lon="7.236582990735769">
        <ele>300.55000000000001</ele>
        <time>2017-07-02T17:58:49Z</time>
      </trkpt>
      <trkpt lat="51.189256981015205" lon="7.236163979396224">
        <ele>300.06999999999999</ele>
        <time>2017-07-02T17:58:56Z</time>
      </trkpt>
      <trkpt lat="51.185845965519547" lon="7.236515013501048">
        <ele>304.88</ele>
        <time>2017-07-02T17:59:06Z</time>
      </trkpt>
      <trkpt lat="51.180501999333501" lon="7.237319005653262">
        <ele>314.49000000000001</ele>
        <time>2017-07-02T17:59:22Z</time>
      </trkpt>
      <trkpt lat="51.178128998726606" lon="7.237678002566099">
        <ele>313.52999999999997</ele>
        <time>2017-07-02T17:59:29Z</time>
      </trkpt>
      <trkpt lat="51.17321502417326" lon="7.238136995583773">
        <ele>289.49000000000001</ele>
        <time>2017-07-02T17:59:43Z</time>
      </trkpt>
      <trkpt lat="51.170757031068206" lon="7.237498965114355">
        <ele>275.56</ele>
        <time>2017-07-02T17:59:50Z</time>
      </trkpt>
      <trkpt lat="51.168133998289704" lon="7.236029030755162">
        <ele>260.17000000000002</ele>
        <time>2017-07-02T17:59:58Z</time>
      </trkpt>
      <trkpt lat="51.164509998634458" lon="7.233131993561983">
        <ele>249.59999999999999</ele>
        <time>2017-07-02T18:00:10Z</time>
      </trkpt>
      <trkpt lat="51.15895296446979" lon="7.228528987616301">
        <ele>229.88999999999999</ele>
        <time>2017-07-02T18:00:29Z</time>
      </trkpt>
      <trkpt lat="51.157219000160694" lon="7.226484976708889">
        <ele>234.22</ele>
        <time>2017-07-02T18:00:36Z</time>
      </trkpt>
      <trkpt lat="51.155977975577116" lon="7.223981972783804">
        <ele>244.31</ele>
        <time>2017-07-02T18:00:44Z</time>
      </trkpt>
      <trkpt lat="51.155142970383167" lon="7.221097005531192">
        <ele>254.41</ele>
        <time>2017-07-02T18:00:52Z</time>
      </trkpt>
      <trkpt lat="51.153915021568537" lon="7.215798972174525">
        <ele>260.64999999999998</ele>
        <time>2017-07-02T18:01:07Z</time>
      </trkpt>
      <trkpt lat="51.152731999754906" lon="7.211258998140693">
        <ele>255.84999999999999</ele>
        <time>2017-07-02T18:01:20Z</time>
      </trkpt>
      <trkpt lat="51.151454010978341" lon="7.207057988271117">
        <ele>252.96000000000001</ele>
        <time>2017-07-02T18:01:32Z</time>
      </trkpt>
      <trkpt lat="51.150183985009789" lon="7.205154038965702">
        <ele>251.52000000000001</ele>
        <time>2017-07-02T18:01:39Z</time>
      </trkpt>
      <trkpt lat="51.148566026240587" lon="7.203842019662261">
        <ele>252</ele>
        <time>2017-07-02T18:01:46Z</time>
      </trkpt>
      <trkpt lat="51.145746018737555" lon="7.201918959617615">
        <ele>252</ele>
        <time>2017-07-02T18:01:57Z</time>
      </trkpt>
      <trkpt lat="51.144155971705914" lon="7.200221959501505">
        <ele>249.12</ele>
        <time>2017-07-02T18:02:04Z</time>
      </trkpt>
      <trkpt lat="51.142672039568424" lon="7.197761032730341">
        <ele>245.75</ele>
        <time>2017-07-02T18:02:11Z</time>
      </trkpt>
      <trkpt lat="51.141061959788203" lon="7.194409025833011">
        <ele>251.52000000000001</ele>
        <time>2017-07-02T18:02:20Z</time>
      </trkpt>
      <trkpt lat="51.139481971040368" lon="7.191880960017443">
        <ele>261.13999999999999</ele>
        <time>2017-07-02T18:02:28Z</time>
      </trkpt>
      <trkpt lat="51.137810032814741" lon="7.190393004566431">
        <ele>265.45999999999998</ele>
        <time>2017-07-02T18:02:35Z</time>
      </trkpt>
      <trkpt lat="51.136212022975087" lon="7.189705017954111">
        <ele>265.94</ele>
        <time>2017-07-02T18:02:41Z</time>
      </trkpt>
      <trkpt lat="51.132561033591628" lon="7.188324015587568">
        <ele>251.03999999999999</ele>
        <time>2017-07-02T18:02:54Z</time>
      </trkpt>
      <trkpt lat="51.130241006612778" lon="7.186535988003016">
        <ele>239.99000000000001</ele>
        <time>2017-07-02T18:03:03Z</time>
      </trkpt>
      <trkpt lat="51.128339990973473" lon="7.184258038178086">
        <ele>237.58000000000001</ele>
        <time>2017-07-02T18:03:11Z</time>
      </trkpt>
      <trkpt lat="51.126747010275722" lon="7.181555964052677">
        <ele>242.87</ele>
        <time>2017-07-02T18:03:19Z</time>
      </trkpt>
      <trkpt lat="51.125205997377634" lon="7.17775602824986">
        <ele>247.68000000000001</ele>
        <time>2017-07-02T18:03:29Z</time>
      </trkpt>
      <trkpt lat="51.124109979718924" lon="7.173443958163261">
        <ele>242.38999999999999</ele>
        <time>2017-07-02T18:03:39Z</time>
      </trkpt>
      <trkpt lat="51.121310004964471" lon="7.162508005276322">
        <ele>210.66999999999999</ele>
        <time>2017-07-02T18:04:04Z</time>
      </trkpt>
      <trkpt lat="51.119774021208286" lon="7.157778013497591">
        <ele>195.77000000000001</ele>
        <time>2017-07-02T18:04:16Z</time>
      </trkpt>
      <trkpt lat="51.11834398470819" lon="7.154528014361858">
        <ele>190.96000000000001</ele>
        <time>2017-07-02T18:04:25Z</time>
      </trkpt>
      <trkpt lat="51.116311037912965" lon="7.151138037443161">
        <ele>197.21000000000001</ele>
        <time>2017-07-02T18:04:36Z</time>
      </trkpt>
      <trkpt lat="51.114210030063987" lon="7.148676021024585">
        <ele>204.41999999999999</ele>
        <time>2017-07-02T18:04:46Z</time>
      </trkpt>
      <trkpt lat="51.109680030494928" lon="7.144072009250522">
        <ele>217.88</ele>
        <time>2017-07-02T18:05:07Z</time>
      </trkpt>
      <trkpt lat="51.107132015749812" lon="7.142208963632584">
        <ele>220.28</ele>
        <time>2017-07-02T18:05:18Z</time>
      </trkpt>
      <trkpt lat="51.104763960465789" lon="7.141477977856994">
        <ele>219.80000000000001</ele>
        <time>2017-07-02T18:05:27Z</time>
      </trkpt>
      <trkpt lat="51.102404035627842" lon="7.141521982848644">
        <ele>216.43000000000001</ele>
        <time>2017-07-02T18:05:36Z</time>
      </trkpt>
      <trkpt lat="51.099559972062707" lon="7.141462974250317">
        <ele>210.66999999999999</ele>
        <time>2017-07-02T18:05:47Z</time>
      </trkpt>
      <trkpt lat="51.097294008359313" lon="7.140481034293771">
        <ele>205.86000000000001</ele>
        <time>2017-07-02T18:05:56Z</time>
      </trkpt>
      <trkpt lat="51.093751983717084" lon="7.138080960139632">
        <ele>200.56999999999999</ele>
        <time>2017-07-02T18:06:11Z</time>
      </trkpt>
      <trkpt lat="51.090668030083179" lon="7.135952040553093">
        <ele>209.22</ele>
        <time>2017-07-02T18:06:25Z</time>
      </trkpt>
      <trkpt lat="51.087089041247964" lon="7.133501004427671">
        <ele>216.43000000000001</ele>
        <time>2017-07-02T18:06:40Z</time>
      </trkpt>
      <trkpt lat="51.083927974104881" lon="7.131321961060166">
        <ele>214.99000000000001</ele>
        <time>2017-07-02T18:06:52Z</time>
      </trkpt>
      <trkpt lat="51.080951979383826" lon="7.128909984603524">
        <ele>211.63</ele>
        <time>2017-07-02T18:07:03Z</time>
      </trkpt>
      <trkpt lat="51.079090023413301" lon="7.126619964838028">
        <ele>209.69999999999999</ele>
        <time>2017-07-02T18:07:11Z</time>
      </trkpt>
      <trkpt lat="51.077381037175655" lon="7.123544979840517">
        <ele>209.22</ele>
        <time>2017-07-02T18:07:20Z</time>
      </trkpt>
      <trkpt lat="51.07595301233232" lon="7.119638007134199">
        <ele>206.34</ele>
        <time>2017-07-02T18:07:30Z</time>
      </trkpt>
      <trkpt lat="51.074399007484317" lon="7.113231969997287">
        <ele>191.44</ele>
        <time>2017-07-02T18:07:45Z</time>
      </trkpt>
      <trkpt lat="51.072880961000919" lon="7.106802966445684">
        <ele>174.13999999999999</ele>
        <time>2017-07-02T18:08:01Z</time>
      </trkpt>
      <trkpt lat="51.072458010166883" lon="7.104483023285866">
        <ele>167.88999999999999</ele>
        <time>2017-07-02T18:08:08Z</time>
      </trkpt>
      <trkpt lat="51.071562990546227" lon="7.098952978849411">
        <ele>158.27000000000001</ele>
        <time>2017-07-02T18:08:25Z</time>
      </trkpt>
      <trkpt lat="51.071102991700172" lon="7.096058959141374">
        <ele>157.78999999999999</ele>
        <time>2017-07-02T18:08:35Z</time>
      </trkpt>
      <trkpt lat="51.07049698010087" lon="7.09229196421802">
        <ele>156.83000000000001</ele>
        <time>2017-07-02T18:08:46Z</time>
      </trkpt>
      <trkpt lat="51.069868002086878" lon="7.088470989838243">
        <ele>151.06</ele>
        <time>2017-07-02T18:08:55Z</time>
      </trkpt>
      <trkpt lat="51.068724961951375" lon="7.083245040848851">
        <ele>135.19999999999999</ele>
        <time>2017-07-02T18:09:07Z</time>
      </trkpt>
      <trkpt lat="51.067308001220226" lon="7.079178979620338">
        <ele>122.22</ele>
        <time>2017-07-02T18:09:17Z</time>
      </trkpt>
      <trkpt lat="51.065163994207978" lon="7.07467001862824">
        <ele>119.81999999999999</ele>
        <time>2017-07-02T18:09:29Z</time>
      </trkpt>
      <trkpt lat="51.062939018011093" lon="7.070128032937646">
        <ele>119.81999999999999</ele>
        <time>2017-07-02T18:09:42Z</time>
      </trkpt>
      <trkpt lat="51.061866972595453" lon="7.067975979298353">
        <ele>117.42</ele>
        <time>2017-07-02T18:09:49Z</time>
      </trkpt>
      <trkpt lat="51.060774978250265" lon="7.065791990607977">
        <ele>114.53</ele>
        <time>2017-07-02T18:09:56Z</time>
      </trkpt>
      <trkpt lat="51.058642035350204" lon="7.061406997963786">
        <ele>109.73</ele>
        <time>2017-07-02T18:10:09Z</time>
      </trkpt>
      <trkpt lat="51.057549035176635" lon="7.058875998482108">
        <ele>107.81</ele>
        <time>2017-07-02T18:10:17Z</time>
      </trkpt>
      <trkpt lat="51.056223018094897" lon="7.054875986650586">
        <ele>102.52</ele>
        <time>2017-07-02T18:10:29Z</time>
      </trkpt>
      <trkpt lat="51.054706983268261" lon="7.050001993775368">
        <ele>93.390000000000001</ele>
        <time>2017-07-02T18:10:43Z</time>
      </trkpt>
      <trkpt lat="51.053379038348794" lon="7.046318985521793">
        <ele>90.019999999999996</ele>
        <time>2017-07-02T18:10:55Z</time>
      </trkpt>
      <trkpt lat="51.051279958337545" lon="7.040477972477675">
        <ele>81.849999999999994</ele>
        <time>2017-07-02T18:11:13Z</time>
      </trkpt>
      <trkpt lat="51.050325008109212" lon="7.037564003840089">
        <ele>75.599999999999994</ele>
        <time>2017-07-02T18:11:23Z</time>
      </trkpt>
      <trkpt lat="51.049393024295568" lon="7.033687960356474">
        <ele>68.870000000000005</ele>
        <time>2017-07-02T18:11:37Z</time>
      </trkpt>
      <trkpt lat="51.048548966646194" lon="7.02908000908792">
        <ele>63.100000000000001</ele>
        <time>2017-07-02T18:11:54Z</time>
      </trkpt>
      <trkpt lat="51.04795896448195" lon="7.025945009663701">
        <ele>62.140000000000001</ele>
        <time>2017-07-02T18:12:07Z</time>
      </trkpt>
      <trkpt lat="51.047127982601523" lon="7.022515973076224">
        <ele>58.299999999999997</ele>
        <time>2017-07-02T18:12:22Z</time>
      </trkpt>
      <trkpt lat="51.046147970482707" lon="7.019323976710439">
        <ele>54.450000000000003</ele>
        <time>2017-07-02T18:12:36Z</time>
      </trkpt>
      <trkpt lat="51.044934019446373" lon="7.015641974285245">
        <ele>52.530000000000001</ele>
        <time>2017-07-02T18:12:51Z</time>
      </trkpt>
      <trkpt lat="51.043809000402689" lon="7.012171028181911">
        <ele>50.609999999999999</ele>
        <time>2017-07-02T18:13:04Z</time>
      </trkpt>
      <trkpt lat="51.042386004701257" lon="7.00817696750164">
        <ele>49.159999999999997</ele>
        <time>2017-07-02T18:13:19Z</time>
      </trkpt>
      <trkpt lat="51.041765995323658" lon="7.006404027342796">
        <ele>50.130000000000003</ele>
        <time>2017-07-02T18:13:27Z</time>
      </trkpt>
      <trkpt lat="51.041575977578759" lon="7.005816036835313">
        <ele>50.609999999999999</ele>
        <time>2017-07-02T18:13:30Z</time>
      </trkpt>
      <trkpt lat="51.041557034477592" lon="7.005642028525472">
        <ele>50.609999999999999</ele>
        <time>2017-07-02T18:13:31Z</time>
      </trkpt>
      <trkpt lat="51.041558962315321" lon="7.005471037700772">
        <ele>50.130000000000003</ele>
        <time>2017-07-02T18:13:32Z</time>
      </trkpt>
      <trkpt lat="51.041580000892282" lon="7.005316978320479">
        <ele>49.649999999999999</ele>
        <time>2017-07-02T18:13:33Z</time>
      </trkpt>
      <trkpt lat="51.041632974520326" lon="7.005175994709134">
        <ele>50.609999999999999</ele>
        <time>2017-07-02T18:13:34Z</time>
      </trkpt>
      <trkpt lat="51.04183497838676" lon="7.0049739908427">
        <ele>51.090000000000003</ele>
        <time>2017-07-02T18:13:36Z</time>
      </trkpt>
      <trkpt lat="51.041954001411796" lon="7.004943983629346">
        <ele>51.090000000000003</ele>
        <time>2017-07-02T18:13:37Z</time>
      </trkpt>
      <trkpt lat="51.042080987244844" lon="7.004968039691448">
        <ele>51.090000000000003</ele>
        <time>2017-07-02T18:13:38Z</time>
      </trkpt>
      <trkpt lat="51.042220965027809" lon="7.005045991390944">
        <ele>51.090000000000003</ele>
        <time>2017-07-02T18:13:39Z</time>
      </trkpt>
      <trkpt lat="51.042361026629806" lon="7.005130983889103">
        <ele>51.57</ele>
        <time>2017-07-02T18:13:40Z</time>
      </trkpt>
      <trkpt lat="51.042504021897912" lon="7.005225028842688">
        <ele>52.049999999999997</ele>
        <time>2017-07-02T18:13:41Z</time>
      </trkpt>
      <trkpt lat="51.042914986610413" lon="7.00555301271379">
        <ele>53.490000000000002</ele>
        <time>2017-07-02T18:13:44Z</time>
      </trkpt>
      <trkpt lat="51.042999979108572" lon="7.005686033517122">
        <ele>53.969999999999999</ele>
        <time>2017-07-02T18:13:45Z</time>
      </trkpt>
      <trkpt lat="51.043047001585364" lon="7.00583104044199">
        <ele>54.93</ele>
        <time>2017-07-02T18:13:46Z</time>
      </trkpt>
      <trkpt lat="51.043053958564997" lon="7.006001025438309">
        <ele>54.93</ele>
        <time>2017-07-02T18:13:47Z</time>
      </trkpt>
      <trkpt lat="51.043034009635448" lon="7.006165981292725">
        <ele>54.93</ele>
        <time>2017-07-02T18:13:48Z</time>
      </trkpt>
      <trkpt lat="51.042982041835785" lon="7.006317023187876">
        <ele>54.450000000000003</ele>
        <time>2017-07-02T18:13:49Z</time>
      </trkpt>
      <trkpt lat="51.042898977175355" lon="7.006449038162828">
        <ele>54.450000000000003</ele>
        <time>2017-07-02T18:13:50Z</time>
      </trkpt>
      <trkpt lat="51.042795963585377" lon="7.006552973762155">
        <ele>54.450000000000003</ele>
        <time>2017-07-02T18:13:51Z</time>
      </trkpt>
      <trkpt lat="51.042667971923947" lon="7.006637966260314">
        <ele>54.450000000000003</ele>
        <time>2017-07-02T18:13:52Z</time>
      </trkpt>
      <trkpt lat="51.042524976655841" lon="7.006718013435602">
        <ele>54.450000000000003</ele>
        <time>2017-07-02T18:13:53Z</time>
      </trkpt>
      <trkpt lat="51.041265008971095" lon="7.007360989227891">
        <ele>52.530000000000001</ele>
        <time>2017-07-02T18:14:00Z</time>
      </trkpt>
      <trkpt lat="51.039391988888383" lon="7.008052999153733">
        <ele>50.130000000000003</ele>
        <time>2017-07-02T18:14:08Z</time>
      </trkpt>
      <trkpt lat="51.036212984472513" lon="7.008716007694602">
        <ele>47.719999999999999</ele>
        <time>2017-07-02T18:14:20Z</time>
      </trkpt>
      <trkpt lat="51.033387025818229" lon="7.009391002357006">
        <ele>48.200000000000003</ele>
        <time>2017-07-02T18:14:31Z</time>
      </trkpt>
      <trkpt lat="51.03057699277997" lon="7.009987961500883">
        <ele>49.159999999999997</ele>
        <time>2017-07-02T18:14:42Z</time>
      </trkpt>
      <trkpt lat="51.026927009224892" lon="7.010813998058438">
        <ele>42.439999999999998</ele>
        <time>2017-07-02T18:14:58Z</time>
      </trkpt>
      <trkpt lat="51.023553963750601" lon="7.011546995490789">
        <ele>43.880000000000003</ele>
        <time>2017-07-02T18:15:13Z</time>
      </trkpt>
      <trkpt lat="51.019800966605544" lon="7.012376971542835">
        <ele>44.359999999999999</ele>
        <time>2017-07-02T18:15:30Z</time>
      </trkpt>
      <trkpt lat="51.016559014096856" lon="7.013061018660665">
        <ele>43.399999999999999</ele>
        <time>2017-07-02T18:15:45Z</time>
      </trkpt>
      <trkpt lat="51.01405399851501" lon="7.01359000056982">
        <ele>44.840000000000003</ele>
        <time>2017-07-02T18:15:54Z</time>
      </trkpt>
      <trkpt lat="51.010069996118546" lon="7.014343030750752">
        <ele>45.32</ele>
        <time>2017-07-02T18:16:07Z</time>
      </trkpt>
      <trkpt lat="51.007217969745398" lon="7.014394998550415">
        <ele>45.32</ele>
        <time>2017-07-02T18:16:16Z</time>
      </trkpt>
      <trkpt lat="51.003768984228373" lon="7.014016974717379">
        <ele>46.759999999999998</ele>
        <time>2017-07-02T18:16:27Z</time>
      </trkpt>
      <trkpt lat="50.999639974907041" lon="7.013161014765501">
        <ele>41.469999999999999</ele>
        <time>2017-07-02T18:16:40Z</time>
      </trkpt>
      <trkpt lat="50.99572797305882" lon="7.01229901984334">
        <ele>45.799999999999997</ele>
        <time>2017-07-02T18:16:53Z</time>
      </trkpt>
      <trkpt lat="50.992577970027924" lon="7.012027027085424">
        <ele>41.950000000000003</ele>
        <time>2017-07-02T18:17:03Z</time>
      </trkpt>
      <trkpt lat="50.989734996110201" lon="7.012522984296084">
        <ele>39.07</ele>
        <time>2017-07-02T18:17:12Z</time>
      </trkpt>
      <trkpt lat="50.986728994175792" lon="7.013841038569808">
        <ele>37.630000000000003</ele>
        <time>2017-07-02T18:17:22Z</time>
      </trkpt>
      <trkpt lat="50.98388803191483" lon="7.015986973419786">
        <ele>38.109999999999999</ele>
        <time>2017-07-02T18:17:32Z</time>
      </trkpt>
      <trkpt lat="50.981300035491586" lon="7.018983000889421">
        <ele>39.549999999999997</ele>
        <time>2017-07-02T18:17:42Z</time>
      </trkpt>
      <trkpt lat="50.97879602573812" lon="7.023007990792394">
        <ele>40.509999999999998</ele>
        <time>2017-07-02T18:17:53Z</time>
      </trkpt>
      <trkpt lat="50.976177016273141" lon="7.026616986840963">
        <ele>55.890000000000001</ele>
        <time>2017-07-02T18:18:04Z</time>
      </trkpt>
      <trkpt lat="50.973859000951052" lon="7.028381964191794">
        <ele>56.369999999999997</ele>
        <time>2017-07-02T18:18:12Z</time>
      </trkpt>
      <trkpt lat="50.971014015376568" lon="7.029513018205762">
        <ele>50.609999999999999</ele>
        <time>2017-07-02T18:18:21Z</time>
      </trkpt>
      <trkpt lat="50.964328022673726" lon="7.0319580193609">
        <ele>42.439999999999998</ele>
        <time>2017-07-02T18:18:42Z</time>
      </trkpt>
      <trkpt lat="50.959638012573123" lon="7.033743029460311">
        <ele>45.32</ele>
        <time>2017-07-02T18:18:57Z</time>
      </trkpt>
      <trkpt lat="50.954700987786055" lon="7.035750998184085">
        <ele>47.240000000000002</ele>
        <time>2017-07-02T18:19:13Z</time>
      </trkpt>
      <trkpt lat="50.949308993294835" lon="7.037843959406018">
        <ele>46.280000000000001</ele>
        <time>2017-07-02T18:19:30Z</time>
      </trkpt>
      <trkpt lat="50.944939004257321" lon="7.039646990597248">
        <ele>44.359999999999999</ele>
        <time>2017-07-02T18:19:44Z</time>
      </trkpt>
      <trkpt lat="50.942048002034426" lon="7.041827039793134">
        <ele>43.399999999999999</ele>
        <time>2017-07-02T18:19:54Z</time>
      </trkpt>
      <trkpt lat="50.938083026558161" lon="7.045263033360243">
        <ele>48.200000000000003</ele>
        <time>2017-07-02T18:20:08Z</time>
      </trkpt>
      <trkpt lat="50.935095967724919" lon="7.048414964228869">
        <ele>53.490000000000002</ele>
        <time>2017-07-02T18:20:19Z</time>
      </trkpt>
      <trkpt lat="50.931331990286708" lon="7.052340041846037">
        <ele>55.890000000000001</ele>
        <time>2017-07-02T18:20:33Z</time>
      </trkpt>
      <trkpt lat="50.926752034574747" lon="7.057113032788038">
        <ele>56.859999999999999</ele>
        <time>2017-07-02T18:20:50Z</time>
      </trkpt>
      <trkpt lat="50.924699977040291" lon="7.059257039800286">
        <ele>55.890000000000001</ele>
        <time>2017-07-02T18:20:59Z</time>
      </trkpt>
      <trkpt lat="50.923502035439014" lon="7.060952028259635">
        <ele>54.450000000000003</ele>
        <time>2017-07-02T18:21:05Z</time>
      </trkpt>
      <trkpt lat="50.9223129786551" lon="7.063322011381388">
        <ele>52.049999999999997</ele>
        <time>2017-07-02T18:21:12Z</time>
      </trkpt>
      <trkpt lat="50.921400021761656" lon="7.066398002207279">
        <ele>48.200000000000003</ele>
        <time>2017-07-02T18:21:20Z</time>
      </trkpt>
      <trkpt lat="50.920735001564026" lon="7.069228990003467">
        <ele>46.280000000000001</ele>
        <time>2017-07-02T18:21:28Z</time>
      </trkpt>
      <trkpt lat="50.919352993369102" lon="7.075134040787816">
        <ele>47.240000000000002</ele>
        <time>2017-07-02T18:21:44Z</time>
      </trkpt>
      <trkpt lat="50.918987961485982" lon="7.078241966664791">
        <ele>52.530000000000001</ele>
        <time>2017-07-02T18:21:52Z</time>
      </trkpt>
      <trkpt lat="50.919025009498" lon="7.081980966031551">
        <ele>54.93</ele>
        <time>2017-07-02T18:22:01Z</time>
      </trkpt>
      <trkpt lat="50.919035989791155" lon="7.08766900934279">
        <ele>50.609999999999999</ele>
        <time>2017-07-02T18:22:15Z</time>
      </trkpt>
      <trkpt lat="50.918603986501694" lon="7.090697977691889">
        <ele>48.68</ele>
        <time>2017-07-02T18:22:23Z</time>
      </trkpt>
      <trkpt lat="50.917469998821616" lon="7.095555039122701">
        <ele>50.130000000000003</ele>
        <time>2017-07-02T18:22:37Z</time>
      </trkpt>
      <trkpt lat="50.916380016133189" lon="7.100161984562874">
        <ele>54.450000000000003</ele>
        <time>2017-07-02T18:22:50Z</time>
      </trkpt>
      <trkpt lat="50.915026003494859" lon="7.105156006291509">
        <ele>64.069999999999993</ele>
        <time>2017-07-02T18:23:04Z</time>
      </trkpt>
      <trkpt lat="50.913738962262869" lon="7.107785996049643">
        <ele>65.510000000000005</ele>
        <time>2017-07-02T18:23:12Z</time>
      </trkpt>
      <trkpt lat="50.910979975014925" lon="7.111851973459125">
        <ele>64.069999999999993</ele>
        <time>2017-07-02T18:23:26Z</time>
      </trkpt>
      <trkpt lat="50.908372029662132" lon="7.116249036043882">
        <ele>66.950000000000003</ele>
        <time>2017-07-02T18:23:40Z</time>
      </trkpt>
      <trkpt lat="50.907341977581382" lon="7.119399039074779">
        <ele>68.390000000000001</ele>
        <time>2017-07-02T18:23:48Z</time>
      </trkpt>
      <trkpt lat="50.905683031305671" lon="7.125659985467792">
        <ele>68.390000000000001</ele>
        <time>2017-07-02T18:24:03Z</time>
      </trkpt>
      <trkpt lat="50.9035540279001" lon="7.133640982210636">
        <ele>71.269999999999996</ele>
        <time>2017-07-02T18:24:22Z</time>
      </trkpt>
      <trkpt lat="50.901055969297886" lon="7.142895022407174">
        <ele>73.200000000000003</ele>
        <time>2017-07-02T18:24:44Z</time>
      </trkpt>
      <trkpt lat="50.898567968979478" lon="7.152206981554627">
        <ele>82.329999999999998</ele>
        <time>2017-07-02T18:25:06Z</time>
      </trkpt>
      <trkpt lat="50.896602999418974" lon="7.159568974748254">
        <ele>90.019999999999996</ele>
        <time>2017-07-02T18:25:23Z</time>
      </trkpt>
      <trkpt lat="50.894927959889174" lon="7.165706036612392">
        <ele>96.75</ele>
        <time>2017-07-02T18:25:37Z</time>
      </trkpt>
      <trkpt lat="50.893690958619118" lon="7.168357986956835">
        <ele>96.75</ele>
        <time>2017-07-02T18:25:44Z</time>
      </trkpt>
      <trkpt lat="50.891870995983481" lon="7.170789996162057">
        <ele>97.230000000000004</ele>
        <time>2017-07-02T18:25:52Z</time>
      </trkpt>
      <trkpt lat="50.888416981324553" lon="7.174873994663358">
        <ele>99.629999999999995</ele>
        <time>2017-07-02T18:26:07Z</time>
      </trkpt>
      <trkpt lat="50.886655021458864" lon="7.177936993539333">
        <ele>95.790000000000006</ele>
        <time>2017-07-02T18:26:16Z</time>
      </trkpt>
      <trkpt lat="50.882976958528161" lon="7.18448300845921">
        <ele>77.519999999999996</ele>
        <time>2017-07-02T18:26:35Z</time>
      </trkpt>
      <trkpt lat="50.879867020994425" lon="7.189718009904027">
        <ele>76.079999999999998</ele>
        <time>2017-07-02T18:26:51Z</time>
      </trkpt>
      <trkpt lat="50.877888975664973" lon="7.19159496948123">
        <ele>75.120000000000005</ele>
        <time>2017-07-02T18:26:59Z</time>
      </trkpt>
      <trkpt lat="50.875685038045049" lon="7.192771034315229">
        <ele>74.640000000000001</ele>
        <time>2017-07-02T18:27:07Z</time>
      </trkpt>
      <trkpt lat="50.872409977018833" lon="7.194669032469392">
        <ele>74.159999999999997</ele>
        <time>2017-07-02T18:27:19Z</time>
      </trkpt>
      <trkpt lat="50.870706019923091" lon="7.196529982611537">
        <ele>74.159999999999997</ele>
        <time>2017-07-02T18:27:26Z</time>
      </trkpt>
      <trkpt lat="50.868294965475798" lon="7.200097991153598">
        <ele>72.719999999999999</ele>
        <time>2017-07-02T18:27:37Z</time>
      </trkpt>
      <trkpt lat="50.86395800113678" lon="7.206616010516882">
        <ele>71.269999999999996</ele>
        <time>2017-07-02T18:27:57Z</time>
      </trkpt>
      <trkpt lat="50.861015031114221" lon="7.210621973499656">
        <ele>70.790000000000006</ele>
        <time>2017-07-02T18:28:10Z</time>
      </trkpt>
      <trkpt lat="50.858016991987824" lon="7.213312983512878">
        <ele>71.760000000000005</ele>
        <time>2017-07-02T18:28:22Z</time>
      </trkpt>
      <trkpt lat="50.855931993573904" lon="7.214620979502797">
        <ele>69.829999999999998</ele>
        <time>2017-07-02T18:28:30Z</time>
      </trkpt>
      <trkpt lat="50.853678015992045" lon="7.215050971135497">
        <ele>67.430000000000007</ele>
        <time>2017-07-02T18:28:38Z</time>
      </trkpt>
      <trkpt lat="50.851699970662594" lon="7.214665990322828">
        <ele>65.510000000000005</ele>
        <time>2017-07-02T18:28:45Z</time>
      </trkpt>
      <trkpt lat="50.849528973922133" lon="7.213398981839418">
        <ele>62.619999999999997</ele>
        <time>2017-07-02T18:28:53Z</time>
      </trkpt>
      <trkpt lat="50.847611026838422" lon="7.211272995918989">
        <ele>61.659999999999997</ele>
        <time>2017-07-02T18:29:01Z</time>
      </trkpt>
      <trkpt lat="50.843452010303736" lon="7.206185013055801">
        <ele>61.18</ele>
        <time>2017-07-02T18:29:19Z</time>
      </trkpt>
      <trkpt lat="50.841142041608691" lon="7.204058021306992">
        <ele>60.219999999999999</ele>
        <time>2017-07-02T18:29:28Z</time>
      </trkpt>
      <trkpt lat="50.838970961049199" lon="7.202835017815232">
        <ele>60.219999999999999</ele>
        <time>2017-07-02T18:29:36Z</time>
      </trkpt>
      <trkpt lat="50.836419006809592" lon="7.202188018709421">
        <ele>60.700000000000003</ele>
        <time>2017-07-02T18:29:45Z</time>
      </trkpt>
      <trkpt lat="50.83269702270627" lon="7.201986014842987">
        <ele>59.740000000000002</ele>
        <time>2017-07-02T18:29:58Z</time>
      </trkpt>
      <trkpt lat="50.828316975384951" lon="7.201887024566531">
        <ele>62.619999999999997</ele>
        <time>2017-07-02T18:30:13Z</time>
      </trkpt>
      <trkpt lat="50.826097028329968" lon="7.202675007283688">
        <ele>65.030000000000001</ele>
        <time>2017-07-02T18:30:21Z</time>
      </trkpt>
      <trkpt lat="50.824097022414207" lon="7.20420797355473">
        <ele>66.950000000000003</ele>
        <time>2017-07-02T18:30:29Z</time>
      </trkpt>
      <trkpt lat="50.820505041629076" lon="7.207481022924185">
        <ele>64.549999999999997</ele>
        <time>2017-07-02T18:30:44Z</time>
      </trkpt>
      <trkpt lat="50.816748021170497" lon="7.210893966257572">
        <ele>72.239999999999995</ele>
        <time>2017-07-02T18:31:00Z</time>
      </trkpt>
      <trkpt lat="50.813389979302883" lon="7.214180007576942">
        <ele>80.890000000000001</ele>
        <time>2017-07-02T18:31:15Z</time>
      </trkpt>
      <trkpt lat="50.809796992689371" lon="7.217738041654229">
        <ele>92.420000000000002</ele>
        <time>2017-07-02T18:31:31Z</time>
      </trkpt>
      <trkpt lat="50.808223038911819" lon="7.219291040673852">
        <ele>98.189999999999998</ele>
        <time>2017-07-02T18:31:39Z</time>
      </trkpt>
      <trkpt lat="50.807804027572274" lon="7.219572002068162">
        <ele>98.189999999999998</ele>
        <time>2017-07-02T18:31:42Z</time>
      </trkpt>
      <trkpt lat="50.807682992890477" lon="7.219596980139613">
        <ele>97.709999999999994</ele>
        <time>2017-07-02T18:31:43Z</time>
      </trkpt>
      <trkpt lat="50.807145964354277" lon="7.219607960432768">
        <ele>97.230000000000004</ele>
        <time>2017-07-02T18:31:50Z</time>
      </trkpt>
      <trkpt lat="50.807003974914551" lon="7.219641990959644">
        <ele>97.230000000000004</ele>
        <time>2017-07-02T18:31:53Z</time>
      </trkpt>
      <trkpt lat="50.806964999064803" lon="7.219659006223083">
        <ele>97.709999999999994</ele>
        <time>2017-07-02T18:31:54Z</time>
      </trkpt>
      <trkpt lat="50.806951001286507" lon="7.219708962365985">
        <ele>100.11</ele>
        <time>2017-07-02T18:32:03Z</time>
      </trkpt>
      <trkpt lat="50.806883024051785" lon="7.219659006223083">
        <ele>100.59999999999999</ele>
        <time>2017-07-02T18:32:54Z</time>
      </trkpt>
      <trkpt lat="50.806871959939599" lon="7.219627993181348">
        <ele>100.59999999999999</ele>
        <time>2017-07-02T18:33:29Z</time>
      </trkpt>
      <trkpt lat="50.806809011846781" lon="7.219538977369666">
        <ele>101.08</ele>
        <time>2017-07-02T18:34:15Z</time>
      </trkpt>
      <trkpt lat="50.80678696744144" lon="7.219516010954976">
        <ele>99.150000000000006</ele>
        <time>2017-07-02T18:34:54Z</time>
      </trkpt>
      <trkpt lat="50.806789984926581" lon="7.219519028440118">
        <ele>99.150000000000006</ele>
        <time>2017-07-02T18:36:10Z</time>
      </trkpt>
      <trkpt lat="50.806797025725245" lon="7.21952497959137">
        <ele>99.629999999999995</ele>
        <time>2017-07-02T18:36:57Z</time>
      </trkpt>
      <trkpt lat="50.8068080060184" lon="7.219526991248131">
        <ele>100.11</ele>
        <time>2017-07-02T18:38:26Z</time>
      </trkpt>
      <trkpt lat="50.806811023503542" lon="7.219521962106228">
        <ele>100.11</ele>
        <time>2017-07-02T18:39:46Z</time>
      </trkpt>
      <trkpt lat="50.806776992976665" lon="7.21963201649487">
        <ele>118.86</ele>
        <time>2017-07-02T18:40:02Z</time>
      </trkpt>
      <trkpt lat="50.806713039055467" lon="7.219621958211064">
        <ele>121.26000000000001</ele>
        <time>2017-07-02T18:40:05Z</time>
      </trkpt>
      <trkpt lat="50.806662999093533" lon="7.219636039808393">
        <ele>121.26000000000001</ele>
        <time>2017-07-02T18:40:06Z</time>
      </trkpt>
      <trkpt lat="50.806597033515573" lon="7.219683984294534">
        <ele>121.26000000000001</ele>
        <time>2017-07-02T18:40:07Z</time>
      </trkpt>
      <trkpt lat="50.80652603879571" lon="7.219745004549623">
        <ele>120.78</ele>
        <time>2017-07-02T18:40:08Z</time>
      </trkpt>
      <trkpt lat="50.806462001055479" lon="7.21980300731957">
        <ele>121.26000000000001</ele>
        <time>2017-07-02T18:40:09Z</time>
      </trkpt>
      <trkpt lat="50.806071991100907" lon="7.220499962568283">
        <ele>121.73999999999999</ele>
        <time>2017-07-02T18:40:17Z</time>
      </trkpt>
      <trkpt lat="50.806031003594398" lon="7.22064396366477">
        <ele>122.22</ele>
        <time>2017-07-02T18:40:18Z</time>
      </trkpt>
      <trkpt lat="50.805590031668544" lon="7.221902003511787">
        <ele>117.90000000000001</ele>
        <time>2017-07-02T18:40:26Z</time>
      </trkpt>
      <trkpt lat="50.805485006421804" lon="7.222052961587906">
        <ele>117.42</ele>
        <time>2017-07-02T18:40:27Z</time>
      </trkpt>
      <trkpt lat="50.805365983396769" lon="7.222204003483057">
        <ele>117.42</ele>
        <time>2017-07-02T18:40:28Z</time>
      </trkpt>
      <trkpt lat="50.805230028927326" lon="7.222340041771531">
        <ele>115.98</ele>
        <time>2017-07-02T18:40:29Z</time>
      </trkpt>
      <trkpt lat="50.80508703365922" lon="7.222479013726115">
        <ele>115.98</ele>
        <time>2017-07-02T18:40:30Z</time>
      </trkpt>
      <trkpt lat="50.803942987695336" lon="7.223634039983153">
        <ele>109.73</ele>
        <time>2017-07-02T18:40:37Z</time>
      </trkpt>
      <trkpt lat="50.801754975691438" lon="7.225753990933299">
        <ele>98.189999999999998</ele>
        <time>2017-07-02T18:40:48Z</time>
      </trkpt>
      <trkpt lat="50.799583978950977" lon="7.227675039321184">
        <ele>87.140000000000001</ele>
        <time>2017-07-02T18:40:58Z</time>
      </trkpt>
      <trkpt lat="50.797555977478623" lon="7.229396011680365">
        <ele>78.969999999999999</ele>
        <time>2017-07-02T18:41:08Z</time>
      </trkpt>
      <trkpt lat="50.793438032269478" lon="7.23301799967885">
        <ele>76.079999999999998</ele>
        <time>2017-07-02T18:41:27Z</time>
      </trkpt>
      <trkpt lat="50.789616974070668" lon="7.236388027667999">
        <ele>69.829999999999998</ele>
        <time>2017-07-02T18:41:45Z</time>
      </trkpt>
      <trkpt lat="50.786279970780015" lon="7.239241981878877">
        <ele>68.870000000000005</ele>
        <time>2017-07-02T18:42:00Z</time>
      </trkpt>
      <trkpt lat="50.783139020204544" lon="7.241563014686108">
        <ele>75.120000000000005</ele>
        <time>2017-07-02T18:42:14Z</time>
      </trkpt>
      <trkpt lat="50.78098202124238" lon="7.242260975763202">
        <ele>75.120000000000005</ele>
        <time>2017-07-02T18:42:23Z</time>
      </trkpt>
      <trkpt lat="50.778819993138313" lon="7.242123009636998">
        <ele>76.079999999999998</ele>
        <time>2017-07-02T18:42:32Z</time>
      </trkpt>
      <trkpt lat="50.776876984164119" lon="7.241235030815005">
        <ele>75.120000000000005</ele>
        <time>2017-07-02T18:42:41Z</time>
      </trkpt>
      <trkpt lat="50.774887958541512" lon="7.239448009058833">
        <ele>74.640000000000001</ele>
        <time>2017-07-02T18:42:51Z</time>
      </trkpt>
      <trkpt lat="50.770381009206176" lon="7.234781971201301">
        <ele>85.209999999999994</ele>
        <time>2017-07-02T18:43:14Z</time>
      </trkpt>
      <trkpt lat="50.765989981591702" lon="7.230567969381809">
        <ele>95.310000000000002</ele>
        <time>2017-07-02T18:43:35Z</time>
      </trkpt>
      <trkpt lat="50.763604994863272" lon="7.229204988107085">
        <ele>96.269999999999996</ele>
        <time>2017-07-02T18:43:45Z</time>
      </trkpt>
      <trkpt lat="50.761249009519815" lon="7.228622026741505">
        <ele>90.5</ele>
        <time>2017-07-02T18:43:54Z</time>
      </trkpt>
      <trkpt lat="50.758455991744995" lon="7.228772984817624">
        <ele>83.769999999999996</ele>
        <time>2017-07-02T18:44:04Z</time>
      </trkpt>
      <trkpt lat="50.756020965054631" lon="7.229668004438281">
        <ele>82.329999999999998</ele>
        <time>2017-07-02T18:44:13Z</time>
      </trkpt>
      <trkpt lat="50.753225013613701" lon="7.231430970132351">
        <ele>81.370000000000005</ele>
        <time>2017-07-02T18:44:24Z</time>
      </trkpt>
      <trkpt lat="50.746087990701199" lon="7.236079992726445">
        <ele>91.459999999999994</ele>
        <time>2017-07-02T18:44:52Z</time>
      </trkpt>
      <trkpt lat="50.74316899292171" lon="7.23765998147428">
        <ele>97.709999999999994</ele>
        <time>2017-07-02T18:45:03Z</time>
      </trkpt>
      <trkpt lat="50.74011898599565" lon="7.238412005826831">
        <ele>104.44</ele>
        <time>2017-07-02T18:45:14Z</time>
      </trkpt>
      <trkpt lat="50.736848032101989" lon="7.238429021090269">
        <ele>119.34</ele>
        <time>2017-07-02T18:45:26Z</time>
      </trkpt>
      <trkpt lat="50.731582017615438" lon="7.238314021378756">
        <ele>144.81999999999999</ele>
        <time>2017-07-02T18:45:45Z</time>
      </trkpt>
      <trkpt lat="50.726854959502816" lon="7.238576039671898">
        <ele>167.88999999999999</ele>
        <time>2017-07-02T18:46:02Z</time>
      </trkpt>
      <trkpt lat="50.721809975802898" lon="7.239611959084868">
        <ele>177.97999999999999</ele>
        <time>2017-07-02T18:46:20Z</time>
      </trkpt>
      <trkpt lat="50.717460019513965" lon="7.240777965635061">
        <ele>186.15000000000001</ele>
        <time>2017-07-02T18:46:36Z</time>
      </trkpt>
      <trkpt lat="50.714114969596267" lon="7.242429032921791">
        <ele>194.31999999999999</ele>
        <time>2017-07-02T18:46:49Z</time>
      </trkpt>
      <trkpt lat="50.711089018732309" lon="7.2446199785918">
        <ele>190.47999999999999</ele>
        <time>2017-07-02T18:47:01Z</time>
      </trkpt>
      <trkpt lat="50.707897022366524" lon="7.247766964137554">
        <ele>178.46000000000001</ele>
        <time>2017-07-02T18:47:14Z</time>
      </trkpt>
      <trkpt lat="50.705257980152965" lon="7.251249980181456">
        <ele>176.06</ele>
        <time>2017-07-02T18:47:26Z</time>
      </trkpt>
      <trkpt lat="50.702607035636902" lon="7.255632039159536">
        <ele>167.41</ele>
        <time>2017-07-02T18:47:39Z</time>
      </trkpt>
      <trkpt lat="50.699648978188634" lon="7.260643998160958">
        <ele>170.28999999999999</ele>
        <time>2017-07-02T18:47:54Z</time>
      </trkpt>
      <trkpt lat="50.69738301448524" lon="7.263346994295716">
        <ele>177.5</ele>
        <time>2017-07-02T18:48:04Z</time>
      </trkpt>
      <trkpt lat="50.693047977983952" lon="7.267614975571632">
        <ele>196.72999999999999</ele>
        <time>2017-07-02T18:48:22Z</time>
      </trkpt>
      <trkpt lat="50.687712980434299" lon="7.272970005869865">
        <ele>210.19</ele>
        <time>2017-07-02T18:48:44Z</time>
      </trkpt>
      <trkpt lat="50.683878008276224" lon="7.276827022433281">
        <ele>227.97</ele>
        <time>2017-07-02T18:49:00Z</time>
      </trkpt>
      <trkpt lat="50.680054016411304" lon="7.280918983742595">
        <ele>214.99000000000001</ele>
        <time>2017-07-02T18:49:16Z</time>
      </trkpt>
      <trkpt lat="50.678577041253448" lon="7.283747959882021">
        <ele>203.46000000000001</ele>
        <time>2017-07-02T18:49:24Z</time>
      </trkpt>
      <trkpt lat="50.677480017766356" lon="7.286716997623444">
        <ele>198.16999999999999</ele>
        <time>2017-07-02T18:49:32Z</time>
      </trkpt>
      <trkpt lat="50.676880041137338" lon="7.288737958297133">
        <ele>199.61000000000001</ele>
        <time>2017-07-02T18:49:39Z</time>
      </trkpt>
      <trkpt lat="50.675577996298671" lon="7.292866967618465">
        <ele>213.55000000000001</ele>
        <time>2017-07-02T18:49:53Z</time>
      </trkpt>
      <trkpt lat="50.674300007522106" lon="7.296897992491722">
        <ele>229.41</ele>
        <time>2017-07-02T18:50:05Z</time>
      </trkpt>
      <trkpt lat="50.673038028180599" lon="7.299447013065219">
        <ele>239.50999999999999</ele>
        <time>2017-07-02T18:50:13Z</time>
      </trkpt>
      <trkpt lat="50.671518975868821" lon="7.30174801312387">
        <ele>246.72</ele>
        <time>2017-07-02T18:50:21Z</time>
      </trkpt>
      <trkpt lat="50.669227028265595" lon="7.305859001353383">
        <ele>242.38999999999999</ele>
        <time>2017-07-02T18:50:34Z</time>
      </trkpt>
      <trkpt lat="50.667616026476026" lon="7.309982981532812">
        <ele>229.41</ele>
        <time>2017-07-02T18:50:45Z</time>
      </trkpt>
      <trkpt lat="50.665704030543566" lon="7.314710039645433">
        <ele>230.84999999999999</ele>
        <time>2017-07-02T18:50:58Z</time>
      </trkpt>
      <trkpt lat="50.664257984608412" lon="7.31719896197319">
        <ele>241.43000000000001</ele>
        <time>2017-07-02T18:51:06Z</time>
      </trkpt>
      <trkpt lat="50.662472974509001" lon="7.319334000349045">
        <ele>253.44</ele>
        <time>2017-07-02T18:51:14Z</time>
      </trkpt>
      <trkpt lat="50.65984801389277" lon="7.321659978479147">
        <ele>267.86000000000001</ele>
        <time>2017-07-02T18:51:25Z</time>
      </trkpt>
      <trkpt lat="50.654969997704029" lon="7.325883032754064">
        <ele>291.89999999999998</ele>
        <time>2017-07-02T18:51:45Z</time>
      </trkpt>
      <trkpt lat="50.650770999491215" lon="7.329513989388943">
        <ele>314.97000000000003</ele>
        <time>2017-07-02T18:52:02Z</time>
      </trkpt>
      <trkpt lat="50.648368997499347" lon="7.332102991640568">
        <ele>320.25999999999999</ele>
        <time>2017-07-02T18:52:12Z</time>
      </trkpt>
      <trkpt lat="50.646448032930493" lon="7.334987036883831">
        <ele>318.32999999999998</ele>
        <time>2017-07-02T18:52:21Z</time>
      </trkpt>
      <trkpt lat="50.643949974328279" lon="7.33981903642416">
        <ele>309.68000000000001</ele>
        <time>2017-07-02T18:52:34Z</time>
      </trkpt>
      <trkpt lat="50.639826999977231" lon="7.348076971247792">
        <ele>317.85000000000002</ele>
        <time>2017-07-02T18:52:56Z</time>
      </trkpt>
      <trkpt lat="50.638335021212697" lon="7.351948991417885">
        <ele>313.52999999999997</ele>
        <time>2017-07-02T18:53:05Z</time>
      </trkpt>
      <trkpt lat="50.637271022424102" lon="7.356173973530531">
        <ele>306.31999999999999</ele>
        <time>2017-07-02T18:53:14Z</time>
      </trkpt>
      <trkpt lat="50.63550696708262" lon="7.364997016265988">
        <ele>293.33999999999997</ele>
        <time>2017-07-02T18:53:33Z</time>
      </trkpt>
      <trkpt lat="50.633929995819926" lon="7.37275798805058">
        <ele>271.70999999999998</ele>
        <time>2017-07-02T18:53:50Z</time>
      </trkpt>
      <trkpt lat="50.632989965379238" lon="7.37664501182735">
        <ele>255.37</ele>
        <time>2017-07-02T18:54:00Z</time>
      </trkpt>
      <trkpt lat="50.631785988807678" lon="7.379532996565104">
        <ele>241.91</ele>
        <time>2017-07-02T18:54:08Z</time>
      </trkpt>
      <trkpt lat="50.630228966474533" lon="7.381998030468822">
        <ele>227.49000000000001</ele>
        <time>2017-07-02T18:54:16Z</time>
      </trkpt>
      <trkpt lat="50.628198031336069" lon="7.38416500389576">
        <ele>211.63</ele>
        <time>2017-07-02T18:54:25Z</time>
      </trkpt>
      <trkpt lat="50.625600982457399" lon="7.387186009436846">
        <ele>190.47999999999999</ele>
        <time>2017-07-02T18:54:37Z</time>
      </trkpt>
      <trkpt lat="50.624268008396029" lon="7.389900991693139">
        <ele>176.53999999999999</ele>
        <time>2017-07-02T18:54:45Z</time>
      </trkpt>
      <trkpt lat="50.622901003807783" lon="7.394139971584082">
        <ele>163.08000000000001</ele>
        <time>2017-07-02T18:54:56Z</time>
      </trkpt>
      <trkpt lat="50.621228981763124" lon="7.399958018213511">
        <ele>170.28999999999999</ele>
        <time>2017-07-02T18:55:11Z</time>
      </trkpt>
      <trkpt lat="50.618449039757252" lon="7.409649007022381">
        <ele>194.80000000000001</ele>
        <time>2017-07-02T18:55:36Z</time>
      </trkpt>
      <trkpt lat="50.616274019703269" lon="7.417118959128857">
        <ele>219.80000000000001</ele>
        <time>2017-07-02T18:55:55Z</time>
      </trkpt>
      <trkpt lat="50.614675004035234" lon="7.422223035246134">
        <ele>239.02000000000001</ele>
        <time>2017-07-02T18:56:09Z</time>
      </trkpt>
      <trkpt lat="50.61337698251009" lon="7.424563011154532">
        <ele>251.03999999999999</ele>
        <time>2017-07-02T18:56:17Z</time>
      </trkpt>
      <trkpt lat="50.611733039841056" lon="7.426234027370811">
        <ele>263.54000000000002</ele>
        <time>2017-07-02T18:56:25Z</time>
      </trkpt>
      <trkpt lat="50.609777960926294" lon="7.427291991189122">
        <ele>274.58999999999997</ele>
        <time>2017-07-02T18:56:33Z</time>
      </trkpt>
      <trkpt lat="50.605552978813648" lon="7.429216979071498">
        <ele>297.67000000000002</ele>
        <time>2017-07-02T18:56:50Z</time>
      </trkpt>
      <trkpt lat="50.601500999182463" lon="7.43138998746872">
        <ele>317.37</ele>
        <time>2017-07-02T18:57:06Z</time>
      </trkpt>
      <trkpt lat="50.599710959941149" lon="7.433408014476299">
        <ele>322.66000000000003</ele>
        <time>2017-07-02T18:57:14Z</time>
      </trkpt>
      <trkpt lat="50.598526010289788" lon="7.43581403978169">
        <ele>324.57999999999998</ele>
        <time>2017-07-02T18:57:21Z</time>
      </trkpt>
      <trkpt lat="50.597739033401012" lon="7.438662964850664">
        <ele>324.10000000000002</ele>
        <time>2017-07-02T18:57:28Z</time>
      </trkpt>
      <trkpt lat="50.596346966922283" lon="7.44346403516829">
        <ele>323.62</ele>
        <time>2017-07-02T18:57:40Z</time>
      </trkpt>
      <trkpt lat="50.594839984551072" lon="7.446127971634269">
        <ele>326.5</ele>
        <time>2017-07-02T18:57:48Z</time>
      </trkpt>
      <trkpt lat="50.5913329962641" lon="7.451791958883405">
        <ele>341.88999999999999</ele>
        <time>2017-07-02T18:58:06Z</time>
      </trkpt>
      <trkpt lat="50.587502969428897" lon="7.458102023229003">
        <ele>348.62</ele>
        <time>2017-07-02T18:58:25Z</time>
      </trkpt>
      <trkpt lat="50.584267973899841" lon="7.46342402882874">
        <ele>354.86000000000001</ele>
        <time>2017-07-02T18:58:41Z</time>
      </trkpt>
      <trkpt lat="50.582238966599107" lon="7.467677006497979">
        <ele>362.55000000000001</ele>
        <time>2017-07-02T18:58:53Z</time>
      </trkpt>
      <trkpt lat="50.581378983333707" lon="7.470541018992662">
        <ele>362.55000000000001</ele>
        <time>2017-07-02T18:59:00Z</time>
      </trkpt>
      <trkpt lat="50.58091102167964" lon="7.474065022543073">
        <ele>357.26999999999998</ele>
        <time>2017-07-02T18:59:08Z</time>
      </trkpt>
      <trkpt lat="50.580748999491334" lon="7.47962499037385">
        <ele>349.57999999999998</ele>
        <time>2017-07-02T18:59:20Z</time>
      </trkpt>
      <trkpt lat="50.580310961231589" lon="7.483705971390009">
        <ele>342.85000000000002</ele>
        <time>2017-07-02T18:59:29Z</time>
      </trkpt>
      <trkpt lat="50.579468999058008" lon="7.486595967784524">
        <ele>337.56</ele>
        <time>2017-07-02T18:59:36Z</time>
      </trkpt>
      <trkpt lat="50.578085985034704" lon="7.489427961409092">
        <ele>334.68000000000001</ele>
        <time>2017-07-02T18:59:44Z</time>
      </trkpt>
      <trkpt lat="50.576215982437134" lon="7.493069982156158">
        <ele>337.56</ele>
        <time>2017-07-02T18:59:55Z</time>
      </trkpt>
      <trkpt lat="50.575229013338685" lon="7.496024016290903">
        <ele>343.32999999999998</ele>
        <time>2017-07-02T19:00:03Z</time>
      </trkpt>
      <trkpt lat="50.574301974847913" lon="7.500670021399856">
        <ele>357.26999999999998</ele>
        <time>2017-07-02T19:00:14Z</time>
      </trkpt>
      <trkpt lat="50.572945028543472" lon="7.507100030779839">
        <ele>375.52999999999997</ele>
        <time>2017-07-02T19:00:29Z</time>
      </trkpt>
      <trkpt lat="50.571554973721504" lon="7.511168019846082">
        <ele>376.97000000000003</ele>
        <time>2017-07-02T19:00:39Z</time>
      </trkpt>
      <trkpt lat="50.569401998072863" lon="7.515678992494941">
        <ele>381.30000000000001</ele>
        <time>2017-07-02T19:00:51Z</time>
      </trkpt>
      <trkpt lat="50.565250022336841" lon="7.52418695949018">
        <ele>384.18000000000001</ele>
        <time>2017-07-02T19:01:14Z</time>
      </trkpt>
      <trkpt lat="50.562395984306931" lon="7.530610011890531">
        <ele>385.14999999999998</ele>
        <time>2017-07-02T19:01:31Z</time>
      </trkpt>
      <trkpt lat="50.560862012207508" lon="7.535566985607147">
        <ele>387.06999999999999</ele>
        <time>2017-07-02T19:01:43Z</time>
      </trkpt>
      <trkpt lat="50.559778986498713" lon="7.540786983445287">
        <ele>392.83999999999997</ele>
        <time>2017-07-02T19:01:55Z</time>
      </trkpt>
      <trkpt lat="50.559087982401252" lon="7.546736039221287">
        <ele>394.75999999999999</ele>
        <time>2017-07-02T19:02:08Z</time>
      </trkpt>
      <trkpt lat="50.558713981881738" lon="7.554277991876006">
        <ele>387.55000000000001</ele>
        <time>2017-07-02T19:02:24Z</time>
      </trkpt>
      <trkpt lat="50.558340987190604" lon="7.56283700466156">
        <ele>368.31999999999999</ele>
        <time>2017-07-02T19:02:42Z</time>
      </trkpt>
      <trkpt lat="50.557561973109841" lon="7.567042959854007">
        <ele>355.82999999999998</ele>
        <time>2017-07-02T19:02:51Z</time>
      </trkpt>
      <trkpt lat="50.556438965722919" lon="7.570453975349665">
        <ele>350.54000000000002</ele>
        <time>2017-07-02T19:02:59Z</time>
      </trkpt>
      <trkpt lat="50.55478697642684" lon="7.573715038597584">
        <ele>350.06</ele>
        <time>2017-07-02T19:03:08Z</time>
      </trkpt>
      <trkpt lat="50.551504036411643" lon="7.579232007265091">
        <ele>358.23000000000002</ele>
        <time>2017-07-02T19:03:25Z</time>
      </trkpt>
      <trkpt lat="50.548876980319619" lon="7.583235036581755">
        <ele>366.88</ele>
        <time>2017-07-02T19:03:38Z</time>
      </trkpt>
      <trkpt lat="50.546418987214565" lon="7.585853962227702">
        <ele>372.64999999999998</ele>
        <time>2017-07-02T19:03:48Z</time>
      </trkpt>
      <trkpt lat="50.542574040591717" lon="7.589296996593475">
        <ele>364.95999999999998</ele>
        <time>2017-07-02T19:04:02Z</time>
      </trkpt>
      <trkpt lat="50.53751396946609" lon="7.594004021957517">
        <ele>358.23000000000002</ele>
        <time>2017-07-02T19:04:20Z</time>
      </trkpt>
      <trkpt lat="50.535157984122634" lon="7.597195012494922">
        <ele>361.58999999999997</ele>
        <time>2017-07-02T19:04:30Z</time>
      </trkpt>
      <trkpt lat="50.530425980687141" lon="7.604396995157003">
        <ele>350.06</ele>
        <time>2017-07-02T19:04:51Z</time>
      </trkpt>
      <trkpt lat="50.528100002557039" lon="7.608468001708388">
        <ele>335.16000000000003</ele>
        <time>2017-07-02T19:05:02Z</time>
      </trkpt>
      <trkpt lat="50.526164034381509" lon="7.613063966855407">
        <ele>327.47000000000003</ele>
        <time>2017-07-02T19:05:13Z</time>
      </trkpt>
      <trkpt lat="50.524733997881413" lon="7.617921028286219">
        <ele>321.69999999999999</ele>
        <time>2017-07-02T19:05:24Z</time>
      </trkpt>
      <trkpt lat="50.523746022954583" lon="7.623101966455579">
        <ele>310.63999999999999</ele>
        <time>2017-07-02T19:05:35Z</time>
      </trkpt>
      <trkpt lat="50.523188961669803" lon="7.628477029502392">
        <ele>298.14999999999998</ele>
        <time>2017-07-02T19:05:46Z</time>
      </trkpt>
      <trkpt lat="50.522656040266156" lon="7.63698298484087">
        <ele>292.86000000000001</ele>
        <time>2017-07-02T19:06:03Z</time>
      </trkpt>
      <trkpt lat="50.522768022492528" lon="7.64336496591568">
        <ele>300.55000000000001</ele>
        <time>2017-07-02T19:06:16Z</time>
      </trkpt>
      <trkpt lat="50.523036997765303" lon="7.653809990733862">
        <ele>297.67000000000002</ele>
        <time>2017-07-02T19:06:37Z</time>
      </trkpt>
      <trkpt lat="50.523269008845091" lon="7.663140976801515">
        <ele>292.38</ele>
        <time>2017-07-02T19:06:57Z</time>
      </trkpt>
      <trkpt lat="50.523571008816361" lon="7.674377001821995">
        <ele>295.74000000000001</ele>
        <time>2017-07-02T19:07:21Z</time>
      </trkpt>
      <trkpt lat="50.523730013519526" lon="7.683400036767125">
        <ele>288.05000000000001</ele>
        <time>2017-07-02T19:07:40Z</time>
      </trkpt>
      <trkpt lat="50.523283006623387" lon="7.686596978455782">
        <ele>280.36000000000001</ele>
        <time>2017-07-02T19:07:47Z</time>
      </trkpt>
      <trkpt lat="50.522389998659492" lon="7.689564004540443">
        <ele>269.79000000000002</ele>
        <time>2017-07-02T19:07:54Z</time>
      </trkpt>
      <trkpt lat="50.521105974912643" lon="7.692103972658515">
        <ele>262.10000000000002</ele>
        <time>2017-07-02T19:08:01Z</time>
      </trkpt>
      <trkpt lat="50.519275031983852" lon="7.694291984662414">
        <ele>255.37</ele>
        <time>2017-07-02T19:08:09Z</time>
      </trkpt>
      <trkpt lat="50.515226991847157" lon="7.698325021192431">
        <ele>252.47999999999999</ele>
        <time>2017-07-02T19:08:26Z</time>
      </trkpt>
      <trkpt lat="50.513647003099322" lon="7.700848979875445">
        <ele>246.72</ele>
        <time>2017-07-02T19:08:34Z</time>
      </trkpt>
      <trkpt lat="50.510733034461737" lon="7.706247009336948">
        <ele>226.05000000000001</ele>
        <time>2017-07-02T19:08:50Z</time>
      </trkpt>
      <trkpt lat="50.507091013714671" lon="7.712971977889538">
        <ele>241.43000000000001</ele>
        <time>2017-07-02T19:09:10Z</time>
      </trkpt>
      <trkpt lat="50.505689978599548" lon="7.716279979795218">
        <ele>256.32999999999998</ele>
        <time>2017-07-02T19:09:19Z</time>
      </trkpt>
      <trkpt lat="50.504967039451003" lon="7.719613965600729">
        <ele>269.79000000000002</ele>
        <time>2017-07-02T19:09:27Z</time>
      </trkpt>
      <trkpt lat="50.504299001768231" lon="7.725277030840516">
        <ele>290.94</ele>
        <time>2017-07-02T19:09:40Z</time>
      </trkpt>
      <trkpt lat="50.503465002402663" lon="7.728074993938208">
        <ele>303.43000000000001</ele>
        <time>2017-07-02T19:09:47Z</time>
      </trkpt>
      <trkpt lat="50.502355992794037" lon="7.730127973482013">
        <ele>313.52999999999997</ele>
        <time>2017-07-02T19:09:53Z</time>
      </trkpt>
      <trkpt lat="50.500671984627843" lon="7.731932010501623">
        <ele>319.30000000000001</ele>
        <time>2017-07-02T19:10:00Z</time>
      </trkpt>
      <trkpt lat="50.498648006469011" lon="7.732886038720608">
        <ele>319.77999999999997</ele>
        <time>2017-07-02T19:10:07Z</time>
      </trkpt>
      <trkpt lat="50.494934991002083" lon="7.73411700502038">
        <ele>315.93000000000001</ele>
        <time>2017-07-02T19:10:20Z</time>
      </trkpt>
      <trkpt lat="50.493180993944407" lon="7.735593980178237">
        <ele>314.00999999999999</ele>
        <time>2017-07-02T19:10:27Z</time>
      </trkpt>
      <trkpt lat="50.491775013506413" lon="7.737702028825879">
        <ele>310.63999999999999</ele>
        <time>2017-07-02T19:10:34Z</time>
      </trkpt>
      <trkpt lat="50.488768005743623" lon="7.74354999884963">
        <ele>304.38999999999999</ele>
        <time>2017-07-02T19:10:51Z</time>
      </trkpt>
      <trkpt lat="50.485691009089351" lon="7.74954398162663">
        <ele>312.56999999999999</ele>
        <time>2017-07-02T19:11:08Z</time>
      </trkpt>
      <trkpt lat="50.483200997114182" lon="7.753623034805059">
        <ele>317.37</ele>
        <time>2017-07-02T19:11:20Z</time>
      </trkpt>
      <trkpt lat="50.480815004557371" lon="7.7563769929111">
        <ele>322.66000000000003</ele>
        <time>2017-07-02T19:11:30Z</time>
      </trkpt>
      <trkpt lat="50.478147966787219" lon="7.758486969396472">
        <ele>325.54000000000002</ele>
        <time>2017-07-02T19:11:40Z</time>
      </trkpt>
      <trkpt lat="50.475327959284186" lon="7.759910970926285">
        <ele>325.54000000000002</ele>
        <time>2017-07-02T19:11:50Z</time>
      </trkpt>
      <trkpt lat="50.470582041889429" lon="7.761923968791962">
        <ele>321.69999999999999</ele>
        <time>2017-07-02T19:12:07Z</time>
      </trkpt>
      <trkpt lat="50.463768979534507" lon="7.76486299932003">
        <ele>338.51999999999998</ele>
        <time>2017-07-02T19:12:31Z</time>
      </trkpt>
      <trkpt lat="50.461805015802383" lon="7.766269985586405">
        <ele>338.51999999999998</ele>
        <time>2017-07-02T19:12:38Z</time>
      </trkpt>
      <trkpt lat="50.460087982937694" lon="7.76840602979064">
        <ele>337.56</ele>
        <time>2017-07-02T19:12:45Z</time>
      </trkpt>
      <trkpt lat="50.45756402425468" lon="7.772868974134326">
        <ele>336.12</ele>
        <time>2017-07-02T19:12:57Z</time>
      </trkpt>
      <trkpt lat="50.455955034121871" lon="7.775214985013008">
        <ele>333.23000000000002</ele>
        <time>2017-07-02T19:13:04Z</time>
      </trkpt>
      <trkpt lat="50.454021999612451" lon="7.776890024542809">
        <ele>327.94999999999999</ele>
        <time>2017-07-02T19:13:11Z</time>
      </trkpt>
      <trkpt lat="50.450565973296762" lon="7.779527977108955">
        <ele>312.08999999999997</ele>
        <time>2017-07-02T19:13:23Z</time>
      </trkpt>
      <trkpt lat="50.449198968708515" lon="7.78147098608315">
        <ele>304.88</ele>
        <time>2017-07-02T19:13:29Z</time>
      </trkpt>
      <trkpt lat="50.448137987405062" lon="7.784040039405227">
        <ele>302.47000000000003</ele>
        <time>2017-07-02T19:13:36Z</time>
      </trkpt>
      <trkpt lat="50.447545973584056" lon="7.787044029682875">
        <ele>298.63</ele>
        <time>2017-07-02T19:13:43Z</time>
      </trkpt>
      <trkpt lat="50.44686796143651" lon="7.792564015835524">
        <ele>287.08999999999997</ele>
        <time>2017-07-02T19:13:54Z</time>
      </trkpt>
      <trkpt lat="50.445650992915034" lon="7.801806991919875">
        <ele>264.5</ele>
        <time>2017-07-02T19:14:12Z</time>
      </trkpt>
      <trkpt lat="50.445129973813891" lon="7.807716988027096">
        <ele>254.88999999999999</ele>
        <time>2017-07-02T19:14:23Z</time>
      </trkpt>
      <trkpt lat="50.445185964927077" lon="7.8113569971174">
        <ele>254.41</ele>
        <time>2017-07-02T19:14:30Z</time>
      </trkpt>
      <trkpt lat="50.445589972659945" lon="7.817204967141151">
        <ele>250.08000000000001</ele>
        <time>2017-07-02T19:14:41Z</time>
      </trkpt>
      <trkpt lat="50.446237977594137" lon="7.825597012415528">
        <ele>240.47</ele>
        <time>2017-07-02T19:14:57Z</time>
      </trkpt>
      <trkpt lat="50.446029016748071" lon="7.830257015302777">
        <ele>242.38999999999999</ele>
        <time>2017-07-02T19:15:06Z</time>
      </trkpt>
      <trkpt lat="50.445944024249911" lon="7.835985962301493">
        <ele>256.32999999999998</ele>
        <time>2017-07-02T19:15:17Z</time>
      </trkpt>
      <trkpt lat="50.446316013112664" lon="7.845028024166822">
        <ele>277</ele>
        <time>2017-07-02T19:15:34Z</time>
      </trkpt>
      <trkpt lat="50.446777017787099" lon="7.849604962393642">
        <ele>276.04000000000002</ele>
        <time>2017-07-02T19:15:43Z</time>
      </trkpt>
      <trkpt lat="50.447664996609092" lon="7.85230603069067">
        <ele>270.26999999999998</ele>
        <time>2017-07-02T19:15:49Z</time>
      </trkpt>
      <trkpt lat="50.448952037841082" lon="7.854505022987723">
        <ele>265.94</ele>
        <time>2017-07-02T19:15:55Z</time>
      </trkpt>
      <trkpt lat="50.452092988416553" lon="7.858818015083671">
        <ele>259.69</ele>
        <time>2017-07-02T19:16:08Z</time>
      </trkpt>
      <trkpt lat="50.453341975808144" lon="7.861230997368693">
        <ele>251.03999999999999</ele>
        <time>2017-07-02T19:16:14Z</time>
      </trkpt>
      <trkpt lat="50.454334979876876" lon="7.864416036754847">
        <ele>243.83000000000001</ele>
        <time>2017-07-02T19:16:21Z</time>
      </trkpt>
      <trkpt lat="50.454720966517925" lon="7.867054995149374">
        <ele>240.47</ele>
        <time>2017-07-02T19:16:27Z</time>
      </trkpt>
      <trkpt lat="50.454838983714581" lon="7.870706990361214">
        <ele>239.99000000000001</ele>
        <time>2017-07-02T19:16:34Z</time>
      </trkpt>
      <trkpt lat="50.454921964555979" lon="7.878566030412912">
        <ele>254.88999999999999</ele>
        <time>2017-07-02T19:16:49Z</time>
      </trkpt>
      <trkpt lat="50.454522985965014" lon="7.88414603099227">
        <ele>275.56</ele>
        <time>2017-07-02T19:17:00Z</time>
      </trkpt>
      <trkpt lat="50.454258034005761" lon="7.888809973374009">
        <ele>291.42000000000002</ele>
        <time>2017-07-02T19:17:09Z</time>
      </trkpt>
      <trkpt lat="50.453598964959383" lon="7.893855040892959">
        <ele>299.11000000000001</ele>
        <time>2017-07-02T19:17:18Z</time>
      </trkpt>
      <trkpt lat="50.452592968940735" lon="7.897650031372905">
        <ele>297.18000000000001</ele>
        <time>2017-07-02T19:17:25Z</time>
      </trkpt>
      <trkpt lat="50.451113982126117" lon="7.901101028546691">
        <ele>289.00999999999999</ele>
        <time>2017-07-02T19:17:32Z</time>
      </trkpt>
      <trkpt lat="50.447700032964349" lon="7.908051973208785">
        <ele>270.75</ele>
        <time>2017-07-02T19:17:47Z</time>
      </trkpt>
      <trkpt lat="50.44525695964694" lon="7.91240100748837">
        <ele>253.93000000000001</ele>
        <time>2017-07-02T19:17:57Z</time>
      </trkpt>
      <trkpt lat="50.443185959011316" lon="7.914732014760375">
        <ele>255.37</ele>
        <time>2017-07-02T19:18:04Z</time>
      </trkpt>
      <trkpt lat="50.440888982266188" lon="7.916343016549945">
        <ele>265.45999999999998</ele>
        <time>2017-07-02T19:18:11Z</time>
      </trkpt>
      <trkpt lat="50.4384879861027" lon="7.917264020070434">
        <ele>273.63</ele>
        <time>2017-07-02T19:18:18Z</time>
      </trkpt>
      <trkpt lat="50.433368990197778" lon="7.919182972982526">
        <ele>288.52999999999997</ele>
        <time>2017-07-02T19:18:33Z</time>
      </trkpt>
      <trkpt lat="50.431598983705044" lon="7.920772014185786">
        <ele>299.11000000000001</ele>
        <time>2017-07-02T19:18:39Z</time>
      </trkpt>
      <trkpt lat="50.428962036967278" lon="7.924219993874431">
        <ele>308.24000000000001</ele>
        <time>2017-07-02T19:18:49Z</time>
      </trkpt>
      <trkpt lat="50.426949039101601" lon="7.926393002271652">
        <ele>305.83999999999997</ele>
        <time>2017-07-02T19:18:56Z</time>
      </trkpt>
      <trkpt lat="50.424978034570813" lon="7.927337978035212">
        <ele>307.27999999999997</ele>
        <time>2017-07-02T19:19:02Z</time>
      </trkpt>
      <trkpt lat="50.422253999859095" lon="7.927707033231854">
        <ele>314.49000000000001</ele>
        <time>2017-07-02T19:19:10Z</time>
      </trkpt>
      <trkpt lat="50.418300004675984" lon="7.928275996819139">
        <ele>310.16000000000003</ele>
        <time>2017-07-02T19:19:22Z</time>
      </trkpt>
      <trkpt lat="50.416453974321485" lon="7.929261960089207">
        <ele>302.47000000000003</ele>
        <time>2017-07-02T19:19:28Z</time>
      </trkpt>
      <trkpt lat="50.414861999452114" lon="7.930955020710826">
        <ele>301.50999999999999</ele>
        <time>2017-07-02T19:19:34Z</time>
      </trkpt>
      <trkpt lat="50.413590967655182" lon="7.933259960263968">
        <ele>306.31999999999999</ele>
        <time>2017-07-02T19:19:40Z</time>
      </trkpt>
      <trkpt lat="50.412780018523335" lon="7.936052978038788">
        <ele>311.60000000000002</ele>
        <time>2017-07-02T19:19:46Z</time>
      </trkpt>
      <trkpt lat="50.412454968318343" lon="7.939123017713428">
        <ele>312.08999999999997</ele>
        <time>2017-07-02T19:19:52Z</time>
      </trkpt>
      <trkpt lat="50.41268102824688" lon="7.942215017974377">
        <ele>307.75999999999999</ele>
        <time>2017-07-02T19:19:58Z</time>
      </trkpt>
      <trkpt lat="50.413367003202438" lon="7.947094962000847">
        <ele>298.14999999999998</ele>
        <time>2017-07-02T19:20:08Z</time>
      </trkpt>
      <trkpt lat="50.413384018465877" lon="7.949709026142955">
        <ele>293.81999999999999</ele>
        <time>2017-07-02T19:20:15Z</time>
      </trkpt>
      <trkpt lat="50.413008006289601" lon="7.958210036158562">
        <ele>298.63</ele>
        <time>2017-07-02T19:20:38Z</time>
      </trkpt>
      <trkpt lat="50.412606010213494" lon="7.966884970664978">
        <ele>303.43000000000001</ele>
        <time>2017-07-02T19:21:02Z</time>
      </trkpt>
      <trkpt lat="50.412356983870268" lon="7.972546024248004">
        <ele>300.55000000000001</ele>
        <time>2017-07-02T19:21:17Z</time>
      </trkpt>
      <trkpt lat="50.412236033007503" lon="7.97859700396657">
        <ele>295.74000000000001</ele>
        <time>2017-07-02T19:21:33Z</time>
      </trkpt>
      <trkpt lat="50.412355978041887" lon="7.982155960053206">
        <ele>284.69</ele>
        <time>2017-07-02T19:21:43Z</time>
      </trkpt>
      <trkpt lat="50.41233996860683" lon="7.986391000449657">
        <ele>270.75</ele>
        <time>2017-07-02T19:21:54Z</time>
      </trkpt>
      <trkpt lat="50.412009973078966" lon="7.989331036806107">
        <ele>263.06</ele>
        <time>2017-07-02T19:22:02Z</time>
      </trkpt>
      <trkpt lat="50.411206986755133" lon="7.99290700815618">
        <ele>256.32999999999998</ele>
        <time>2017-07-02T19:22:12Z</time>
      </trkpt>
      <trkpt lat="50.410043997690082" lon="7.996142003685236">
        <ele>251.03999999999999</ele>
        <time>2017-07-02T19:22:22Z</time>
      </trkpt>
      <trkpt lat="50.408469960093498" lon="7.999862981960177">
        <ele>240.47</ele>
        <time>2017-07-02T19:22:35Z</time>
      </trkpt>
      <trkpt lat="50.40724796243012" lon="8.002784997224808">
        <ele>227.97</ele>
        <time>2017-07-02T19:22:44Z</time>
      </trkpt>
      <trkpt lat="50.406231991946697" lon="8.005268974229693">
        <ele>217.88</ele>
        <time>2017-07-02T19:22:51Z</time>
      </trkpt>
      <trkpt lat="50.405157012864947" lon="8.008962040767074">
        <ele>205.86000000000001</ele>
        <time>2017-07-02T19:22:59Z</time>
      </trkpt>
      <trkpt lat="50.404264004901052" lon="8.01327402703464">
        <ele>193.84</ele>
        <time>2017-07-02T19:23:07Z</time>
      </trkpt>
      <trkpt lat="50.403881035745144" lon="8.017714004963636">
        <ele>181.83000000000001</ele>
        <time>2017-07-02T19:23:15Z</time>
      </trkpt>
      <trkpt lat="50.403877012431622" lon="8.023380003869534">
        <ele>163.08000000000001</ele>
        <time>2017-07-02T19:23:25Z</time>
      </trkpt>
      <trkpt lat="50.403869971632957" lon="8.026406960561872">
        <ele>153.94999999999999</ele>
        <time>2017-07-02T19:23:31Z</time>
      </trkpt>
      <trkpt lat="50.403842981904745" lon="8.029465014114976">
        <ele>143.84999999999999</ele>
        <time>2017-07-02T19:23:39Z</time>
      </trkpt>
      <trkpt lat="50.403792019933462" lon="8.035304015502334">
        <ele>135.68000000000001</ele>
        <time>2017-07-02T19:23:56Z</time>
      </trkpt>
      <trkpt lat="50.403778022155166" lon="8.041426995769143">
        <ele>133.75999999999999</ele>
        <time>2017-07-02T19:24:15Z</time>
      </trkpt>
      <trkpt lat="50.40376503020525" lon="8.046012986451387">
        <ele>128.94999999999999</ele>
        <time>2017-07-02T19:24:28Z</time>
      </trkpt>
      <trkpt lat="50.403563026338816" lon="8.051185961812735">
        <ele>131.84</ele>
        <time>2017-07-02T19:24:43Z</time>
      </trkpt>
      <trkpt lat="50.40316597558558" lon="8.058806033805013">
        <ele>153.47</ele>
        <time>2017-07-02T19:25:05Z</time>
      </trkpt>
      <trkpt lat="50.402633976191282" lon="8.061579018831253">
        <ele>160.68000000000001</ele>
        <time>2017-07-02T19:25:14Z</time>
      </trkpt>
      <trkpt lat="50.401623034849763" lon="8.064471026882529">
        <ele>164.03999999999999</ele>
        <time>2017-07-02T19:25:24Z</time>
      </trkpt>
      <trkpt lat="50.399697041139007" lon="8.069767970591784">
        <ele>155.87</ele>
        <time>2017-07-02T19:25:41Z</time>
      </trkpt>
      <trkpt lat="50.398342022672296" lon="8.072828035801649">
        <ele>157.31</ele>
        <time>2017-07-02T19:25:51Z</time>
      </trkpt>
      <trkpt lat="50.396781982854009" lon="8.075008001178503">
        <ele>164.03999999999999</ele>
        <time>2017-07-02T19:26:00Z</time>
      </trkpt>
      <trkpt lat="50.394797986373305" lon="8.076689997687936">
        <ele>168.37</ele>
        <time>2017-07-02T19:26:10Z</time>
      </trkpt>
      <trkpt lat="50.392282996326685" lon="8.078215001150966">
        <ele>169.81</ele>
        <time>2017-07-02T19:26:21Z</time>
      </trkpt>
      <trkpt lat="50.389116983860731" lon="8.080147029832006">
        <ele>176.06</ele>
        <time>2017-07-02T19:26:34Z</time>
      </trkpt>
      <trkpt lat="50.385715020820498" lon="8.082161033526063">
        <ele>181.83000000000001</ele>
        <time>2017-07-02T19:26:46Z</time>
      </trkpt>
      <trkpt lat="50.382312973961234" lon="8.084371006116271">
        <ele>187.11000000000001</ele>
        <time>2017-07-02T19:26:58Z</time>
      </trkpt>
      <trkpt lat="50.380280027166009" lon="8.086586007848382">
        <ele>186.15000000000001</ele>
        <time>2017-07-02T19:27:06Z</time>
      </trkpt>
      <trkpt lat="50.378897013142705" lon="8.089134022593498">
        <ele>185.66999999999999</ele>
        <time>2017-07-02T19:27:12Z</time>
      </trkpt>
      <trkpt lat="50.376735990867019" lon="8.094519982114434">
        <ele>187.11000000000001</ele>
        <time>2017-07-02T19:27:23Z</time>
      </trkpt>
      <trkpt lat="50.371682038530707" lon="8.107440015301108">
        <ele>184.22999999999999</ele>
        <time>2017-07-02T19:27:50Z</time>
      </trkpt>
      <trkpt lat="50.367037961259484" lon="8.119225976988673">
        <ele>177.5</ele>
        <time>2017-07-02T19:28:15Z</time>
      </trkpt>
      <trkpt lat="50.362834017723799" lon="8.129818020388484">
        <ele>179.41999999999999</ele>
        <time>2017-07-02T19:28:38Z</time>
      </trkpt>
      <trkpt lat="50.360569981858134" lon="8.135931026190519">
        <ele>184.71000000000001</ele>
        <time>2017-07-02T19:28:51Z</time>
      </trkpt>
      <trkpt lat="50.35957002080977" lon="8.140120971947908">
        <ele>186.63</ele>
        <time>2017-07-02T19:28:59Z</time>
      </trkpt>
      <trkpt lat="50.35772499628365" lon="8.14785797148943">
        <ele>166.93000000000001</ele>
        <time>2017-07-02T19:29:13Z</time>
      </trkpt>
      <trkpt lat="50.356222037225962" lon="8.154137022793293">
        <ele>149.62</ele>
        <time>2017-07-02T19:29:24Z</time>
      </trkpt>
      <trkpt lat="50.355218974873424" lon="8.157275961712003">
        <ele>157.31</ele>
        <time>2017-07-02T19:29:30Z</time>
      </trkpt>
      <trkpt lat="50.353725990280509" lon="8.159877033904195">
        <ele>167.41</ele>
        <time>2017-07-02T19:29:36Z</time>
      </trkpt>
      <trkpt lat="50.348945958539844" lon="8.166718007996678">
        <ele>177.5</ele>
        <time>2017-07-02T19:29:53Z</time>
      </trkpt>
      <trkpt lat="50.345065975561738" lon="8.172279987484217">
        <ele>200.56999999999999</ele>
        <time>2017-07-02T19:30:07Z</time>
      </trkpt>
      <trkpt lat="50.341399982571602" lon="8.177869962528348">
        <ele>203.46000000000001</ele>
        <time>2017-07-02T19:30:21Z</time>
      </trkpt>
      <trkpt lat="50.339594017714262" lon="8.181548025459051">
        <ele>203.94</ele>
        <time>2017-07-02T19:30:29Z</time>
      </trkpt>
      <trkpt lat="50.336071019992232" lon="8.189963037148118">
        <ele>202.49000000000001</ele>
        <time>2017-07-02T19:30:46Z</time>
      </trkpt>
      <trkpt lat="50.333548989146948" lon="8.195949979126453">
        <ele>227.49000000000001</ele>
        <time>2017-07-02T19:30:59Z</time>
      </trkpt>
      <trkpt lat="50.331432977691293" lon="8.201250024139881">
        <ele>240.94999999999999</ele>
        <time>2017-07-02T19:31:11Z</time>
      </trkpt>
      <trkpt lat="50.328511968255043" lon="8.209395976737142">
        <ele>254.41</ele>
        <time>2017-07-02T19:31:28Z</time>
      </trkpt>
      <trkpt lat="50.326122958213091" lon="8.215591041371226">
        <ele>260.64999999999998</ele>
        <time>2017-07-02T19:31:41Z</time>
      </trkpt>
      <trkpt lat="50.324406009167433" lon="8.218382969498634">
        <ele>264.01999999999998</ele>
        <time>2017-07-02T19:31:48Z</time>
      </trkpt>
      <trkpt lat="50.322148008272052" lon="8.220949005335569">
        <ele>270.75</ele>
        <time>2017-07-02T19:31:56Z</time>
      </trkpt>
      <trkpt lat="50.318751996383071" lon="8.22374596260488">
        <ele>273.63</ele>
        <time>2017-07-02T19:32:07Z</time>
      </trkpt>
      <trkpt lat="50.313969030976295" lon="8.227757038548589">
        <ele>268.35000000000002</ele>
        <time>2017-07-02T19:32:22Z</time>
      </trkpt>
      <trkpt lat="50.309075005352497" lon="8.231411967426539">
        <ele>268.82999999999998</ele>
        <time>2017-07-02T19:32:37Z</time>
      </trkpt>
      <trkpt lat="50.303583014756441" lon="8.234219988808036">
        <ele>282.27999999999997</ele>
        <time>2017-07-02T19:32:53Z</time>
      </trkpt>
      <trkpt lat="50.296637015417218" lon="8.237742986530066">
        <ele>284.69</ele>
        <time>2017-07-02T19:33:13Z</time>
      </trkpt>
      <trkpt lat="50.291387010365725" lon="8.240080028772354">
        <ele>297.18000000000001</ele>
        <time>2017-07-02T19:33:28Z</time>
      </trkpt>
      <trkpt lat="50.288467006757855" lon="8.240349004045129">
        <ele>295.74000000000001</ele>
        <time>2017-07-02T19:33:36Z</time>
      </trkpt>
      <trkpt lat="50.282605960965157" lon="8.240580009296536">
        <ele>299.11000000000001</ele>
        <time>2017-07-02T19:33:52Z</time>
      </trkpt>
      <trkpt lat="50.278985984623432" lon="8.241177974268794">
        <ele>299.58999999999997</ele>
        <time>2017-07-02T19:34:02Z</time>
      </trkpt>
      <trkpt lat="50.276998970657587" lon="8.242413969710469">
        <ele>290.45999999999998</ele>
        <time>2017-07-02T19:34:08Z</time>
      </trkpt>
      <trkpt lat="50.274759996682405" lon="8.244190011173487">
        <ele>277.95999999999998</ele>
        <time>2017-07-02T19:34:16Z</time>
      </trkpt>
      <trkpt lat="50.272024981677532" lon="8.246375005692244">
        <ele>274.58999999999997</ele>
        <time>2017-07-02T19:34:26Z</time>
      </trkpt>
      <trkpt lat="50.268093030899763" lon="8.24954797513783">
        <ele>273.63</ele>
        <time>2017-07-02T19:34:41Z</time>
      </trkpt>
      <trkpt lat="50.265849027782679" lon="8.250868963077664">
        <ele>268.82999999999998</ele>
        <time>2017-07-02T19:34:49Z</time>
      </trkpt>
      <trkpt lat="50.263708960264921" lon="8.251124024391174">
        <ele>262.10000000000002</ele>
        <time>2017-07-02T19:34:56Z</time>
      </trkpt>
      <trkpt lat="50.261839963495731" lon="8.25062002055347">
        <ele>256.81</ele>
        <time>2017-07-02T19:35:02Z</time>
      </trkpt>
      <trkpt lat="50.259782038629055" lon="8.249164000153542">
        <ele>248.63999999999999</ele>
        <time>2017-07-02T19:35:09Z</time>
      </trkpt>
      <trkpt lat="50.256834039464593" lon="8.247050000354648">
        <ele>234.69999999999999</ele>
        <time>2017-07-02T19:35:19Z</time>
      </trkpt>
      <trkpt lat="50.254671005532146" lon="8.246500985696912">
        <ele>234.69999999999999</ele>
        <time>2017-07-02T19:35:26Z</time>
      </trkpt>
      <trkpt lat="50.252503026276827" lon="8.246767027303577">
        <ele>245.27000000000001</ele>
        <time>2017-07-02T19:35:33Z</time>
      </trkpt>
      <trkpt lat="50.249664997681975" lon="8.246958972886205">
        <ele>262.57999999999998</ele>
        <time>2017-07-02T19:35:42Z</time>
      </trkpt>
      <trkpt lat="50.245860032737255" lon="8.245961023494601">
        <ele>284.20999999999998</ele>
        <time>2017-07-02T19:35:54Z</time>
      </trkpt>
      <trkpt lat="50.242513976991177" lon="8.24546598829329">
        <ele>299.11000000000001</ele>
        <time>2017-07-02T19:36:04Z</time>
      </trkpt>
      <trkpt lat="50.238207019865513" lon="8.245579982176423">
        <ele>311.12</ele>
        <time>2017-07-02T19:36:16Z</time>
      </trkpt>
      <trkpt lat="50.235745003446937" lon="8.246136959642172">
        <ele>315.93000000000001</ele>
        <time>2017-07-02T19:36:23Z</time>
      </trkpt>
      <trkpt lat="50.233427993953228" lon="8.247529026120901">
        <ele>319.77999999999997</ele>
        <time>2017-07-02T19:36:30Z</time>
      </trkpt>
      <trkpt lat="50.229723025113344" lon="8.249331973493099">
        <ele>322.66000000000003</ele>
        <time>2017-07-02T19:36:41Z</time>
      </trkpt>
      <trkpt lat="50.223004007712007" lon="8.250953033566475">
        <ele>329.38999999999999</ele>
        <time>2017-07-02T19:37:00Z</time>
      </trkpt>
      <trkpt lat="50.22084298543632" lon="8.250968037173152">
        <ele>340.92000000000002</ele>
        <time>2017-07-02T19:37:06Z</time>
      </trkpt>
      <trkpt lat="50.216542985290289" lon="8.249971009790897">
        <ele>359.19</ele>
        <time>2017-07-02T19:37:18Z</time>
      </trkpt>
      <trkpt lat="50.214406019076705" lon="8.250050973147154">
        <ele>360.14999999999998</ele>
        <time>2017-07-02T19:37:24Z</time>
      </trkpt>
      <trkpt lat="50.20971299149096" lon="8.251209016889334">
        <ele>360.63</ele>
        <time>2017-07-02T19:37:37Z</time>
      </trkpt>
      <trkpt lat="50.204214965924621" lon="8.252838961780071">
        <ele>370.24000000000001</ele>
        <time>2017-07-02T19:37:52Z</time>
      </trkpt>
      <trkpt lat="50.200204979628325" lon="8.254706030711532">
        <ele>355.82999999999998</ele>
        <time>2017-07-02T19:38:03Z</time>
      </trkpt>
      <trkpt lat="50.195888970047235" lon="8.257464012131095">
        <ele>351.5</ele>
        <time>2017-07-02T19:38:15Z</time>
      </trkpt>
      <trkpt lat="50.191842019557953" lon="8.260859018191695">
        <ele>352.45999999999998</ele>
        <time>2017-07-02T19:38:27Z</time>
      </trkpt>
      <trkpt lat="50.186926033347845" lon="8.265281980857253">
        <ele>353.89999999999998</ele>
        <time>2017-07-02T19:38:42Z</time>
      </trkpt>
      <trkpt lat="50.184099990874529" lon="8.266927013173699">
        <ele>356.79000000000002</ele>
        <time>2017-07-02T19:38:50Z</time>
      </trkpt>
      <trkpt lat="50.180967003107071" lon="8.268756028264761">
        <ele>357.75</ele>
        <time>2017-07-02T19:38:59Z</time>
      </trkpt>
      <trkpt lat="50.178916035220027" lon="8.270982010290027">
        <ele>350.54000000000002</ele>
        <time>2017-07-02T19:39:06Z</time>
      </trkpt>
      <trkpt lat="50.177473006770015" lon="8.273503035306931">
        <ele>342.37</ele>
        <time>2017-07-02T19:39:12Z</time>
      </trkpt>
      <trkpt lat="50.175885977223516" lon="8.277488965541124">
        <ele>351.01999999999998</ele>
        <time>2017-07-02T19:39:20Z</time>
      </trkpt>
      <trkpt lat="50.173397976905107" lon="8.284301022067666">
        <ele>354.86000000000001</ele>
        <time>2017-07-02T19:39:33Z</time>
      </trkpt>
      <trkpt lat="50.171231003478169" lon="8.289391016587615">
        <ele>350.06</ele>
        <time>2017-07-02T19:39:43Z</time>
      </trkpt>
      <trkpt lat="50.169269973412156" lon="8.29230297356844">
        <ele>345.25</ele>
        <time>2017-07-02T19:39:50Z</time>
      </trkpt>
      <trkpt lat="50.16695799306035" lon="8.29451696947217">
        <ele>337.56</ele>
        <time>2017-07-02T19:39:57Z</time>
      </trkpt>
      <trkpt lat="50.164320040494204" lon="8.296934980899096">
        <ele>328.43000000000001</ele>
        <time>2017-07-02T19:40:05Z</time>
      </trkpt>
      <trkpt lat="50.162352975457907" lon="8.299723975360394">
        <ele>320.25999999999999</ele>
        <time>2017-07-02T19:40:12Z</time>
      </trkpt>
      <trkpt lat="50.15982398763299" lon="8.303147982805967">
        <ele>315.44999999999999</ele>
        <time>2017-07-02T19:40:21Z</time>
      </trkpt>
      <trkpt lat="50.156655041500926" lon="8.306147027760744">
        <ele>318.32999999999998</ele>
        <time>2017-07-02T19:40:31Z</time>
      </trkpt>
      <trkpt lat="50.151931000873446" lon="8.310579964891076">
        <ele>325.06</ele>
        <time>2017-07-02T19:40:46Z</time>
      </trkpt>
      <trkpt lat="50.150489984080195" lon="8.312836959958077">
        <ele>328.91000000000003</ele>
        <time>2017-07-02T19:40:52Z</time>
      </trkpt>
      <trkpt lat="50.149740977212787" lon="8.315172996371985">
        <ele>330.82999999999998</ele>
        <time>2017-07-02T19:40:57Z</time>
      </trkpt>
      <trkpt lat="50.149232028052211" lon="8.318764977157116">
        <ele>330.35000000000002</ele>
        <time>2017-07-02T19:41:04Z</time>
      </trkpt>
      <trkpt lat="50.148704973980784" lon="8.321097996085882">
        <ele>326.99000000000001</ele>
        <time>2017-07-02T19:41:09Z</time>
      </trkpt>
      <trkpt lat="50.147772990167141" lon="8.323055002838373">
        <ele>321.22000000000003</ele>
        <time>2017-07-02T19:41:14Z</time>
      </trkpt>
      <trkpt lat="50.146228037774563" lon="8.324881000444293">
        <ele>312.08999999999997</ele>
        <time>2017-07-02T19:41:20Z</time>
      </trkpt>
      <trkpt lat="50.142670003697276" lon="8.32872100174427">
        <ele>305.83999999999997</ele>
        <time>2017-07-02T19:41:33Z</time>
      </trkpt>
      <trkpt lat="50.140475034713745" lon="8.330615982413292">
        <ele>297.18000000000001</ele>
        <time>2017-07-02T19:41:40Z</time>
      </trkpt>
      <trkpt lat="50.134938033297658" lon="8.334411978721619">
        <ele>277</ele>
        <time>2017-07-02T19:41:56Z</time>
      </trkpt>
      <trkpt lat="50.132382977753878" lon="8.336182991042733">
        <ele>275.06999999999999</ele>
        <time>2017-07-02T19:42:04Z</time>
      </trkpt>
      <trkpt lat="50.127126015722752" lon="8.339669024571776">
        <ele>272.19</ele>
        <time>2017-07-02T19:42:22Z</time>
      </trkpt>
      <trkpt lat="50.123982969671488" lon="8.340834025293589">
        <ele>260.17000000000002</ele>
        <time>2017-07-02T19:42:32Z</time>
      </trkpt>
      <trkpt lat="50.122252022847533" lon="8.341065030544996">
        <ele>257.76999999999998</ele>
        <time>2017-07-02T19:42:38Z</time>
      </trkpt>
      <trkpt lat="50.118694994598627" lon="8.341190004721284">
        <ele>257.76999999999998</ele>
        <time>2017-07-02T19:42:50Z</time>
      </trkpt>
      <trkpt lat="50.115988980978727" lon="8.34169602021575">
        <ele>251.52000000000001</ele>
        <time>2017-07-02T19:42:58Z</time>
      </trkpt>
      <trkpt lat="50.112873008474708" lon="8.343014996498823">
        <ele>233.25999999999999</ele>
        <time>2017-07-02T19:43:07Z</time>
      </trkpt>
      <trkpt lat="50.10712101124227" lon="8.346254015341401">
        <ele>227.49000000000001</ele>
        <time>2017-07-02T19:43:24Z</time>
      </trkpt>
      <trkpt lat="50.101738991215825" lon="8.349299998953939">
        <ele>218.36000000000001</ele>
        <time>2017-07-02T19:43:40Z</time>
      </trkpt>
      <trkpt lat="50.096453027799726" lon="8.352228971198201">
        <ele>214.50999999999999</ele>
        <time>2017-07-02T19:43:56Z</time>
      </trkpt>
      <trkpt lat="50.091720018535852" lon="8.354919981211424">
        <ele>203.46000000000001</ele>
        <time>2017-07-02T19:44:11Z</time>
      </trkpt>
      <trkpt lat="50.089323967695236" lon="8.356384970247746">
        <ele>189.52000000000001</ele>
        <time>2017-07-02T19:44:19Z</time>
      </trkpt>
      <trkpt lat="50.086994972079992" lon="8.357894970104098">
        <ele>175.09999999999999</ele>
        <time>2017-07-02T19:44:28Z</time>
      </trkpt>
      <trkpt lat="50.084434971213341" lon="8.359792968258262">
        <ele>165.47999999999999</ele>
        <time>2017-07-02T19:44:40Z</time>
      </trkpt>
      <trkpt lat="50.082811983302236" lon="8.361136000603437">
        <ele>163.08000000000001</ele>
        <time>2017-07-02T19:44:50Z</time>
      </trkpt>
      <trkpt lat="50.080664036795497" lon="8.362768962979317">
        <ele>160.68000000000001</ele>
        <time>2017-07-02T19:45:03Z</time>
      </trkpt>
      <trkpt lat="50.078763021156192" lon="8.36419296450913">
        <ele>161.63999999999999</ele>
        <time>2017-07-02T19:45:14Z</time>
      </trkpt>
      <trkpt lat="50.076192962005734" lon="8.366794036701322">
        <ele>162.59999999999999</ele>
        <time>2017-07-02T19:45:30Z</time>
      </trkpt>
      <trkpt lat="50.074077034369111" lon="8.36954103782773">
        <ele>161.16</ele>
        <time>2017-07-02T19:45:45Z</time>
      </trkpt>
      <trkpt lat="50.071940990164876" lon="8.372296001762152">
        <ele>155.87</ele>
        <time>2017-07-02T19:45:59Z</time>
      </trkpt>
      <trkpt lat="50.069658011198044" lon="8.375240983441472">
        <ele>160.19999999999999</ele>
        <time>2017-07-02T19:46:14Z</time>
      </trkpt>
      <trkpt lat="50.068475995212793" lon="8.376688035205007">
        <ele>167.41</ele>
        <time>2017-07-02T19:46:23Z</time>
      </trkpt>
      <trkpt lat="50.067040007561445" lon="8.378088986501098">
        <ele>172.69</ele>
        <time>2017-07-02T19:46:33Z</time>
      </trkpt>
      <trkpt lat="50.065405033528805" lon="8.379497984424233">
        <ele>172.69</ele>
        <time>2017-07-02T19:46:42Z</time>
      </trkpt>
      <trkpt lat="50.06328902207315" lon="8.381262039765716">
        <ele>169.33000000000001</ele>
        <time>2017-07-02T19:46:51Z</time>
      </trkpt>
      <trkpt lat="50.058819958940148" lon="8.385003972798586">
        <ele>164.03999999999999</ele>
        <time>2017-07-02T19:47:09Z</time>
      </trkpt>
      <trkpt lat="50.056182006374002" lon="8.387196008116007">
        <ele>161.63999999999999</ele>
        <time>2017-07-02T19:47:21Z</time>
      </trkpt>
      <trkpt lat="50.055269971489906" lon="8.387931017205119">
        <ele>161.16</ele>
        <time>2017-07-02T19:47:27Z</time>
      </trkpt>
      <trkpt lat="50.055161006748676" lon="8.387992959469557">
        <ele>161.16</ele>
        <time>2017-07-02T19:47:28Z</time>
      </trkpt>
      <trkpt lat="50.055053969845176" lon="8.388026989996433">
        <ele>161.16</ele>
        <time>2017-07-02T19:47:29Z</time>
      </trkpt>
      <trkpt lat="50.054951040074229" lon="8.388031013309956">
        <ele>161.16</ele>
        <time>2017-07-02T19:47:30Z</time>
      </trkpt>
      <trkpt lat="50.054854983463883" lon="8.388012992218137">
        <ele>160.68000000000001</ele>
        <time>2017-07-02T19:47:31Z</time>
      </trkpt>
      <trkpt lat="50.054768985137343" lon="8.387962030246854">
        <ele>160.19999999999999</ele>
        <time>2017-07-02T19:47:32Z</time>
      </trkpt>
      <trkpt lat="50.054686004295945" lon="8.387885000556707">
        <ele>159.24000000000001</ele>
        <time>2017-07-02T19:47:33Z</time>
      </trkpt>
      <trkpt lat="50.054616015404463" lon="8.387770000845194">
        <ele>158.75</ele>
        <time>2017-07-02T19:47:34Z</time>
      </trkpt>
      <trkpt lat="50.054558012634516" lon="8.387629017233849">
        <ele>158.27000000000001</ele>
        <time>2017-07-02T19:47:35Z</time>
      </trkpt>
      <trkpt lat="50.054522976279259" lon="8.38746297173202">
        <ele>157.78999999999999</ele>
        <time>2017-07-02T19:47:36Z</time>
      </trkpt>
      <trkpt lat="50.054515013471246" lon="8.387284018099308">
        <ele>157.31</ele>
        <time>2017-07-02T19:47:37Z</time>
      </trkpt>
      <trkpt lat="50.054536974057555" lon="8.387106992304325">
        <ele>156.83000000000001</ele>
        <time>2017-07-02T19:47:38Z</time>
      </trkpt>
      <trkpt lat="50.054587014019489" lon="8.386942958459258">
        <ele>156.34999999999999</ele>
        <time>2017-07-02T19:47:39Z</time>
      </trkpt>
      <trkpt lat="50.054664965718985" lon="8.386803986504674">
        <ele>155.87</ele>
        <time>2017-07-02T19:47:40Z</time>
      </trkpt>
      <trkpt lat="50.054762028157711" lon="8.386702984571457">
        <ele>155.38999999999999</ele>
        <time>2017-07-02T19:47:41Z</time>
      </trkpt>
      <trkpt lat="50.05486898124218" lon="8.386640958487988">
        <ele>154.91</ele>
        <time>2017-07-02T19:47:42Z</time>
      </trkpt>
      <trkpt lat="50.054985992610455" lon="8.386627966538072">
        <ele>154.43000000000001</ele>
        <time>2017-07-02T19:47:43Z</time>
      </trkpt>
      <trkpt lat="50.055101998150349" lon="8.38666602037847">
        <ele>153.94999999999999</ele>
        <time>2017-07-02T19:47:44Z</time>
      </trkpt>
      <trkpt lat="50.055208029225469" lon="8.386749001219869">
        <ele>153.94999999999999</ele>
        <time>2017-07-02T19:47:45Z</time>
      </trkpt>
      <trkpt lat="50.055304002016783" lon="8.386882022023201">
        <ele>153.47</ele>
        <time>2017-07-02T19:47:46Z</time>
      </trkpt>
      <trkpt lat="50.055391006171703" lon="8.387044966220856">
        <ele>153.47</ele>
        <time>2017-07-02T19:47:47Z</time>
      </trkpt>
      <trkpt lat="50.055442973971367" lon="8.387230960652232">
        <ele>153.47</ele>
        <time>2017-07-02T19:47:48Z</time>
      </trkpt>
      <trkpt lat="50.055473987013102" lon="8.387442016974092">
        <ele>153.47</ele>
        <time>2017-07-02T19:47:49Z</time>
      </trkpt>
      <trkpt lat="50.055479016155005" lon="8.387665981426835">
        <ele>154.43000000000001</ele>
        <time>2017-07-02T19:47:50Z</time>
      </trkpt>
      <trkpt lat="50.055477004498243" lon="8.387904027476907">
        <ele>155.87</ele>
        <time>2017-07-02T19:47:51Z</time>
      </trkpt>
      <trkpt lat="50.055472981184721" lon="8.389771012589335">
        <ele>156.83000000000001</ele>
        <time>2017-07-02T19:47:57Z</time>
      </trkpt>
      <trkpt lat="50.055524026975036" lon="8.393561979755759">
        <ele>155.87</ele>
        <time>2017-07-02T19:48:07Z</time>
      </trkpt>
      <trkpt lat="50.055498965084553" lon="8.397487979382277">
        <ele>150.09999999999999</ele>
        <time>2017-07-02T19:48:16Z</time>
      </trkpt>
      <trkpt lat="50.055452026426792" lon="8.406139025464654">
        <ele>153.47</ele>
        <time>2017-07-02T19:48:34Z</time>
      </trkpt>
      <trkpt lat="50.055436016991735" lon="8.414903981611133">
        <ele>153.47</ele>
        <time>2017-07-02T19:48:51Z</time>
      </trkpt>
      <trkpt lat="50.055382959544659" lon="8.42680100351572">
        <ele>136.63999999999999</ele>
        <time>2017-07-02T19:49:13Z</time>
      </trkpt>
      <trkpt lat="50.055343983694911" lon="8.437003036960959">
        <ele>127.51000000000001</ele>
        <time>2017-07-02T19:49:32Z</time>
      </trkpt>
      <trkpt lat="50.055014993995428" lon="8.442225968465209">
        <ele>123.67</ele>
        <time>2017-07-02T19:49:42Z</time>
      </trkpt>
      <trkpt lat="50.055008037015796" lon="8.44469603151083">
        <ele>122.70999999999999</ele>
        <time>2017-07-02T19:49:47Z</time>
      </trkpt>
      <trkpt lat="50.055432999506593" lon="8.447158969938755">
        <ele>120.78</ele>
        <time>2017-07-02T19:49:53Z</time>
      </trkpt>
      <trkpt lat="50.05604999139905" lon="8.448878014460206">
        <ele>119.81999999999999</ele>
        <time>2017-07-02T19:49:59Z</time>
      </trkpt>
      <trkpt lat="50.056399013847113" lon="8.449801029637456">
        <ele>118.86</ele>
        <time>2017-07-02T19:50:05Z</time>
      </trkpt>
      <trkpt lat="50.056603029370308" lon="8.450345015153289">
        <ele>118.38</ele>
        <time>2017-07-02T19:50:13Z</time>
      </trkpt>
      <trkpt lat="50.056690033525229" lon="8.450453979894519">
        <ele>118.86</ele>
        <time>2017-07-02T19:50:22Z</time>
      </trkpt>
      <trkpt lat="50.056692967191339" lon="8.450460014864802">
        <ele>118.86</ele>
        <time>2017-07-02T19:51:35Z</time>
      </trkpt>
      <trkpt lat="50.056693973019719" lon="8.450475018471479">
        <ele>118.86</ele>
        <time>2017-07-02T19:53:14Z</time>
      </trkpt>
      <trkpt lat="50.056729009374976" lon="8.450594041496515">
        <ele>121.26000000000001</ele>
        <time>2017-07-02T19:54:21Z</time>
      </trkpt>
      <trkpt lat="50.056732026860118" lon="8.450595969334245">
        <ele>122.22</ele>
        <time>2017-07-02T19:54:59Z</time>
      </trkpt>
      <trkpt lat="50.056732026860118" lon="8.450600998476148">
        <ele>122.70999999999999</ele>
        <time>2017-07-02T19:55:38Z</time>
      </trkpt>
      <trkpt lat="50.056720040738583" lon="8.450557999312878">
        <ele>122.70999999999999</ele>
        <time>2017-07-02T19:56:27Z</time>
      </trkpt>
      <trkpt lat="50.056718029081821" lon="8.450551964342594">
        <ele>123.19</ele>
        <time>2017-07-02T19:57:23Z</time>
      </trkpt>
      <trkpt lat="50.056719034910202" lon="8.450553975999355">
        <ele>123.19</ele>
        <time>2017-07-02T19:58:55Z</time>
      </trkpt>
      <trkpt lat="50.056730015203357" lon="8.450566967949271">
        <ele>123.67</ele>
        <time>2017-07-02T19:59:39Z</time>
      </trkpt>
      <trkpt lat="50.056775026023388" lon="8.450502008199692">
        <ele>123.67</ele>
        <time>2017-07-02T19:59:42Z</time>
      </trkpt>
      <trkpt lat="50.056798998266459" lon="8.450448028743267">
        <ele>124.15000000000001</ele>
        <time>2017-07-02T19:59:44Z</time>
      </trkpt>
      <trkpt lat="50.056921960785985" lon="8.450507959350944">
        <ele>124.63</ele>
        <time>2017-07-02T19:59:49Z</time>
      </trkpt>
      <trkpt lat="50.056959008798003" lon="8.450560010969639">
        <ele>125.11</ele>
        <time>2017-07-02T19:59:50Z</time>
      </trkpt>
      <trkpt lat="50.057048024609685" lon="8.450675010681152">
        <ele>126.06999999999999</ele>
        <time>2017-07-02T19:59:52Z</time>
      </trkpt>
      <trkpt lat="50.057105021551251" lon="8.450728990137577">
        <ele>126.06999999999999</ele>
        <time>2017-07-02T19:59:53Z</time>
      </trkpt>
      <trkpt lat="50.057322029024363" lon="8.450962007045746">
        <ele>126.06999999999999</ele>
        <time>2017-07-02T19:59:56Z</time>
      </trkpt>
      <trkpt lat="50.058104982599616" lon="8.452120972797275">
        <ele>126.55</ele>
        <time>2017-07-02T20:00:04Z</time>
      </trkpt>
      <trkpt lat="50.059343995526433" lon="8.453774973750114">
        <ele>126.55</ele>
        <time>2017-07-02T20:00:14Z</time>
      </trkpt>
      <trkpt lat="50.060958014801145" lon="8.455987963825464">
        <ele>126.55</ele>
        <time>2017-07-02T20:00:24Z</time>
      </trkpt>
      <trkpt lat="50.064015984535217" lon="8.460498014464974">
        <ele>125.59</ele>
        <time>2017-07-02T20:00:42Z</time>
      </trkpt>
      <trkpt lat="50.066818976774812" lon="8.465499999001622">
        <ele>120.78</ele>
        <time>2017-07-02T20:01:00Z</time>
      </trkpt>
      <trkpt lat="50.067762024700642" lon="8.467133967205882">
        <ele>118.38</ele>
        <time>2017-07-02T20:01:08Z</time>
      </trkpt>
      <trkpt lat="50.068025970831513" lon="8.467654986307025">
        <ele>116.94</ele>
        <time>2017-07-02T20:01:11Z</time>
      </trkpt>
      <trkpt lat="50.068079028278589" lon="8.46783896908164">
        <ele>116.45999999999999</ele>
        <time>2017-07-02T20:01:12Z</time>
      </trkpt>
      <trkpt lat="50.068105012178421" lon="8.4680309984833">
        <ele>116.45999999999999</ele>
        <time>2017-07-02T20:01:13Z</time>
      </trkpt>
      <trkpt lat="50.068113980814815" lon="8.468230990692973">
        <ele>116.94</ele>
        <time>2017-07-02T20:01:14Z</time>
      </trkpt>
      <trkpt lat="50.068096965551376" lon="8.468432994559407">
        <ele>117.42</ele>
        <time>2017-07-02T20:01:15Z</time>
      </trkpt>
      <trkpt lat="50.068063018843532" lon="8.468617983162403">
        <ele>117.90000000000001</ele>
        <time>2017-07-02T20:01:16Z</time>
      </trkpt>
      <trkpt lat="50.068005016073585" lon="8.468783022835851">
        <ele>118.38</ele>
        <time>2017-07-02T20:01:17Z</time>
      </trkpt>
      <trkpt lat="50.067929998040199" lon="8.46893297508359">
        <ele>118.38</ele>
        <time>2017-07-02T20:01:18Z</time>
      </trkpt>
      <trkpt lat="50.067838970571756" lon="8.469060966745019">
        <ele>118.38</ele>
        <time>2017-07-02T20:01:19Z</time>
      </trkpt>
      <trkpt lat="50.06773897446692" lon="8.469173032790422">
        <ele>117.90000000000001</ele>
        <time>2017-07-02T20:01:20Z</time>
      </trkpt>
      <trkpt lat="50.067625986412168" lon="8.469281997531653">
        <ele>117.42</ele>
        <time>2017-07-02T20:01:21Z</time>
      </trkpt>
      <trkpt lat="50.067506963387132" lon="8.469390040263534">
        <ele>116.45999999999999</ele>
        <time>2017-07-02T20:01:22Z</time>
      </trkpt>
      <trkpt lat="50.06604197435081" lon="8.470487985759974">
        <ele>109.25</ele>
        <time>2017-07-02T20:01:33Z</time>
      </trkpt>
      <trkpt lat="50.065401010215282" lon="8.470994001254439">
        <ele>107.31999999999999</ele>
        <time>2017-07-02T20:01:41Z</time>
      </trkpt>
      <trkpt lat="50.065398998558521" lon="8.470981009304524">
        <ele>105.40000000000001</ele>
        <time>2017-07-02T20:01:53Z</time>
      </trkpt>
      <trkpt lat="50.065340995788574" lon="8.471064995974302">
        <ele>105.40000000000001</ele>
        <time>2017-07-02T20:02:14Z</time>
      </trkpt>
      <trkpt lat="50.065321968868375" lon="8.471163986250758">
        <ele>105.40000000000001</ele>
        <time>2017-07-02T20:02:15Z</time>
      </trkpt>
      <trkpt lat="50.065321968868375" lon="8.471279991790652">
        <ele>104.92</ele>
        <time>2017-07-02T20:02:16Z</time>
      </trkpt>
      <trkpt lat="50.065343007445335" lon="8.471409995108843">
        <ele>104.92</ele>
        <time>2017-07-02T20:02:17Z</time>
      </trkpt>
      <trkpt lat="50.065377959981561" lon="8.471549972891808">
        <ele>104.92</ele>
        <time>2017-07-02T20:02:18Z</time>
      </trkpt>
      <trkpt lat="50.065419031307101" lon="8.471701014786959">
        <ele>104.44</ele>
        <time>2017-07-02T20:02:19Z</time>
      </trkpt>
      <trkpt lat="50.065947007387877" lon="8.473495999351144">
        <ele>103.48</ele>
        <time>2017-07-02T20:02:29Z</time>
      </trkpt>
      <trkpt lat="50.066341962665319" lon="8.474719002842903">
        <ele>102.52</ele>
        <time>2017-07-02T20:02:37Z</time>
      </trkpt>
      <trkpt lat="50.066360989585519" lon="8.474846994504333">
        <ele>102.04000000000001</ele>
        <time>2017-07-02T20:02:38Z</time>
      </trkpt>
      <trkpt lat="50.066413963213563" lon="8.475128039717674">
        <ele>102.52</ele>
        <time>2017-07-02T20:02:41Z</time>
      </trkpt>
      <trkpt lat="50.0664690323174" lon="8.475194005295634">
        <ele>102.52</ele>
        <time>2017-07-02T20:02:42Z</time>
      </trkpt>
      <trkpt lat="50.066676987335086" lon="8.475453006103635">
        <ele>102.04000000000001</ele>
        <time>2017-07-02T20:02:45Z</time>
      </trkpt>
      <trkpt lat="50.067456001415849" lon="8.477003993466497">
        <ele>101.56</ele>
        <time>2017-07-02T20:02:56Z</time>
      </trkpt>
      <trkpt lat="50.068135019391775" lon="8.478641984984279">
        <ele>101.08</ele>
        <time>2017-07-02T20:03:08Z</time>
      </trkpt>
      <trkpt lat="50.068170977756381" lon="8.478691019117832">
        <ele>101.08</ele>
        <time>2017-07-02T20:03:09Z</time>
      </trkpt>
      <trkpt lat="50.068207019940019" lon="8.47870702855289">
        <ele>101.08</ele>
        <time>2017-07-02T20:03:10Z</time>
      </trkpt>
      <trkpt lat="50.068243984133005" lon="8.478695964440703">
        <ele>101.08</ele>
        <time>2017-07-02T20:03:11Z</time>
      </trkpt>
      <trkpt lat="50.068273991346359" lon="8.478668974712491">
        <ele>101.08</ele>
        <time>2017-07-02T20:03:12Z</time>
      </trkpt>
      <trkpt lat="50.06829796358943" lon="8.478618012741208">
        <ele>101.08</ele>
        <time>2017-07-02T20:03:13Z</time>
      </trkpt>
      <trkpt lat="50.068322019651532" lon="8.478553975000978">
        <ele>101.08</ele>
        <time>2017-07-02T20:03:14Z</time>
      </trkpt>
      <trkpt lat="50.068456968292594" lon="8.478276031091809">
        <ele>101.56</ele>
        <time>2017-07-02T20:03:20Z</time>
      </trkpt>
      <trkpt lat="50.068455040454865" lon="8.478232026100159">
        <ele>101.56</ele>
        <time>2017-07-02T20:03:21Z</time>
      </trkpt>
      <trkpt lat="50.068441964685917" lon="8.478187015280128">
        <ele>101.56</ele>
        <time>2017-07-02T20:03:22Z</time>
      </trkpt>
      <trkpt lat="50.06842696107924" lon="8.478158013895154">
        <ele>102.04000000000001</ele>
        <time>2017-07-02T20:03:23Z</time>
      </trkpt>
      <trkpt lat="50.068408017978072" lon="8.478125995025039">
        <ele>102.04000000000001</ele>
        <time>2017-07-02T20:03:41Z</time>
      </trkpt>
      <trkpt lat="50.068409023806453" lon="8.478123983368278">
        <ele>102.52</ele>
        <time>2017-07-02T20:04:44Z</time>
      </trkpt>
      <trkpt lat="50.068408017978072" lon="8.478122977539897">
        <ele>103</ele>
        <time>2017-07-02T20:06:30Z</time>
      </trkpt>
      <trkpt lat="50.068394020199776" lon="8.478096993640065">
        <ele>103</ele>
        <time>2017-07-02T20:07:22Z</time>
      </trkpt>
      <trkpt lat="50.06833903491497" lon="8.478033961728215">
        <ele>103.48</ele>
        <time>2017-07-02T20:07:37Z</time>
      </trkpt>
    </trkseg>
  </trk>

</gpx>